<?xml version='1.0' encoding='UTF-8'?><gpx version="1.1" creator="JPX - https://github.com/jenetics/jpx" xmlns="http://www.topografix.com/GPX/1/1"><trk><trkseg><trkpt lat="45.5080163065334" lon="10.463543211587886"><ele>188.0</ele><time>2026-03-29T06:54:08Z</time></trkpt><trkpt lat="45.50809040710435" lon="10.463537242272"><ele>188.0</ele><time>2026-03-29T06:54:56Z</time></trkpt><trkpt lat="45.508164878413254" lon="10.46354365791985"><ele>188.0</ele><time>2026-03-29T06:55:13Z</time></trkpt><trkpt lat="45.50826905480999" lon="10.463526267944658"><ele>188.0</ele><time>2026-03-29T06:55:15Z</time></trkpt><trkpt lat="45.5083320829142" lon="10.463540757579334"><ele>188.0</ele><time>2026-03-29T06:55:17Z</time></trkpt><trkpt lat="45.50839495495992" lon="10.463633984766485"><ele>188.0</ele><time>2026-03-29T06:55:20Z</time></trkpt><trkpt lat="45.50852924459377" lon="10.46366417447894"><ele>188.0</ele><time>2026-03-29T06:55:22Z</time></trkpt><trkpt lat="45.508630611329544" lon="10.463636147682879"><ele>188.0</ele><time>2026-03-29T06:55:23Z</time></trkpt><trkpt lat="45.50873282044074" lon="10.463602384323346"><ele>188.0</ele><time>2026-03-29T06:55:24Z</time></trkpt><trkpt lat="45.508847484375465" lon="10.463562125913938"><ele>188.0</ele><time>2026-03-29T06:55:25Z</time></trkpt><trkpt lat="45.508972956401074" lon="10.463515744702825"><ele>187.5</ele><time>2026-03-29T06:55:26Z</time></trkpt><trkpt lat="45.5090961219677" lon="10.463471952469925"><ele>187.0</ele><time>2026-03-29T06:55:27Z</time></trkpt><trkpt lat="45.509226530144886" lon="10.463427278272672"><ele>186.5</ele><time>2026-03-29T06:55:28Z</time></trkpt><trkpt lat="45.50936435149483" lon="10.463378781235397"><ele>186.0</ele><time>2026-03-29T06:55:29Z</time></trkpt><trkpt lat="45.50948878805568" lon="10.46333691002215"><ele>186.5</ele><time>2026-03-29T06:55:30Z</time></trkpt><trkpt lat="45.5096029255619" lon="10.463295407273577"><ele>187.0</ele><time>2026-03-29T06:55:31Z</time></trkpt><trkpt lat="45.50970606896282" lon="10.463253811196346"><ele>187.5</ele><time>2026-03-29T06:55:32Z</time></trkpt><trkpt lat="45.50981848526297" lon="10.463196821829936"><ele>188.0</ele><time>2026-03-29T06:55:33Z</time></trkpt><trkpt lat="45.50994158315458" lon="10.463151993516902"><ele>188.0</ele><time>2026-03-29T06:55:34Z</time></trkpt><trkpt lat="45.51007016216027" lon="10.463114339099727"><ele>188.0</ele><time>2026-03-29T06:55:35Z</time></trkpt><trkpt lat="45.51020689616767" lon="10.463075955138601"><ele>188.0</ele><time>2026-03-29T06:55:36Z</time></trkpt><trkpt lat="45.51035063793826" lon="10.463029389756162"><ele>188.0</ele><time>2026-03-29T06:55:37Z</time></trkpt><trkpt lat="45.510497632793054" lon="10.462981108868956"><ele>188.0</ele><time>2026-03-29T06:55:38Z</time></trkpt><trkpt lat="45.51064964896934" lon="10.462929472339175"><ele>188.0</ele><time>2026-03-29T06:55:39Z</time></trkpt><trkpt lat="45.5108056740162" lon="10.462878765400532"><ele>188.0</ele><time>2026-03-29T06:55:40Z</time></trkpt><trkpt lat="45.51096859264166" lon="10.462829095581727"><ele>188.0</ele><time>2026-03-29T06:55:41Z</time></trkpt><trkpt lat="45.511125685031956" lon="10.462766150767518"><ele>188.0</ele><time>2026-03-29T06:55:42Z</time></trkpt><trkpt lat="45.511286286863864" lon="10.46271221500538"><ele>188.0</ele><time>2026-03-29T06:55:43Z</time></trkpt><trkpt lat="45.511440450152" lon="10.462656471106616"><ele>188.33333333333331</ele><time>2026-03-29T06:55:44Z</time></trkpt><trkpt lat="45.511598028293164" lon="10.46260314132336"><ele>188.66666666666666</ele><time>2026-03-29T06:55:45Z</time></trkpt><trkpt lat="45.51175732355846" lon="10.462551099429028"><ele>189.0</ele><time>2026-03-29T06:55:46Z</time></trkpt><trkpt lat="45.5119182066733" lon="10.46250338071614"><ele>189.0</ele><time>2026-03-29T06:55:47Z</time></trkpt><trkpt lat="45.51207228024201" lon="10.462459590193388"><ele>189.0</ele><time>2026-03-29T06:55:48Z</time></trkpt><trkpt lat="45.5122277723188" lon="10.462423183292108"><ele>189.0</ele><time>2026-03-29T06:55:49Z</time></trkpt><trkpt lat="45.512393749299726" lon="10.46240423687216"><ele>189.66666666666666</ele><time>2026-03-29T06:55:50Z</time></trkpt><trkpt lat="45.512554839491976" lon="10.46239076488451"><ele>190.33333333333331</ele><time>2026-03-29T06:55:51Z</time></trkpt><trkpt lat="45.512705393073404" lon="10.462381875933191"><ele>191.0</ele><time>2026-03-29T06:55:52Z</time></trkpt><trkpt lat="45.5128509398935" lon="10.462374761460978"><ele>191.5</ele><time>2026-03-29T06:55:53Z</time></trkpt><trkpt lat="45.51299107320213" lon="10.462370764643612"><ele>192.0</ele><time>2026-03-29T06:55:54Z</time></trkpt><trkpt lat="45.513134031750184" lon="10.462365010414365"><ele>192.5</ele><time>2026-03-29T06:55:55Z</time></trkpt><trkpt lat="45.513273562078325" lon="10.462357005092713"><ele>193.0</ele><time>2026-03-29T06:55:56Z</time></trkpt><trkpt lat="45.513416191907346" lon="10.462348760519358"><ele>193.0</ele><time>2026-03-29T06:55:57Z</time></trkpt><trkpt lat="45.513557496216436" lon="10.46233646530451"><ele>193.0</ele><time>2026-03-29T06:55:58Z</time></trkpt><trkpt lat="45.513690356854966" lon="10.462330529313718"><ele>193.0</ele><time>2026-03-29T06:55:59Z</time></trkpt><trkpt lat="45.51382299992611" lon="10.462327070688413"><ele>193.0</ele><time>2026-03-29T06:56:00Z</time></trkpt><trkpt lat="45.51393642249352" lon="10.46232012131591"><ele>193.16666666666666</ele><time>2026-03-29T06:56:01Z</time></trkpt><trkpt lat="45.5140396843535" lon="10.462313622226949"><ele>193.33333333333331</ele><time>2026-03-29T06:56:02Z</time></trkpt><trkpt lat="45.514120208973395" lon="10.462304048421897"><ele>193.5</ele><time>2026-03-29T06:56:03Z</time></trkpt><trkpt lat="45.514194039089396" lon="10.462295713686979"><ele>193.66666666666669</ele><time>2026-03-29T06:56:04Z</time></trkpt><trkpt lat="45.51429485969316" lon="10.462297799578325"><ele>193.83333333333334</ele><time>2026-03-29T06:56:06Z</time></trkpt><trkpt lat="45.51434875670442" lon="10.462372522897308"><ele>194.0</ele><time>2026-03-29T06:56:08Z</time></trkpt><trkpt lat="45.51432206219498" lon="10.462609457595846"><ele>194.00000000000003</ele><time>2026-03-29T06:56:11Z</time></trkpt><trkpt lat="45.51433131517536" lon="10.462715014357656"><ele>194.0</ele><time>2026-03-29T06:56:12Z</time></trkpt><trkpt lat="45.51431114175802" lon="10.462809970157661"><ele>194.0</ele><time>2026-03-29T06:56:13Z</time></trkpt><trkpt lat="45.514305364800435" lon="10.462916042048985"><ele>194.0</ele><time>2026-03-29T06:56:14Z</time></trkpt><trkpt lat="45.514299768801166" lon="10.46302167923601"><ele>194.00000000000003</ele><time>2026-03-29T06:56:15Z</time></trkpt><trkpt lat="45.51429319099668" lon="10.463151362062556"><ele>194.0</ele><time>2026-03-29T06:56:16Z</time></trkpt><trkpt lat="45.51428695216477" lon="10.463274362098552"><ele>194.00000000000003</ele><time>2026-03-29T06:56:17Z</time></trkpt><trkpt lat="45.514281443901844" lon="10.46341292681182"><ele>194.0</ele><time>2026-03-29T06:56:18Z</time></trkpt><trkpt lat="45.51427641572429" lon="10.463540250913223"><ele>194.0</ele><time>2026-03-29T06:56:19Z</time></trkpt><trkpt lat="45.51427014447175" lon="10.463699052293563"><ele>194.0</ele><time>2026-03-29T06:56:20Z</time></trkpt><trkpt lat="45.51426659548427" lon="10.463788920307833"><ele>194.00000000000003</ele><time>2026-03-29T06:56:21Z</time></trkpt><trkpt lat="45.51426276496019" lon="10.463885917310702"><ele>194.0</ele><time>2026-03-29T06:56:22Z</time></trkpt><trkpt lat="45.514259185087504" lon="10.46397656730902"><ele>193.83333333333334</ele><time>2026-03-29T06:56:23Z</time></trkpt><trkpt lat="45.51425513847626" lon="10.464079036095526"><ele>193.66666666666669</ele><time>2026-03-29T06:56:24Z</time></trkpt><trkpt lat="45.51426505331538" lon="10.464201457087356"><ele>193.5</ele><time>2026-03-29T06:56:25Z</time></trkpt><trkpt lat="45.514257510459856" lon="10.464298220015642"><ele>193.33333333333331</ele><time>2026-03-29T06:56:26Z</time></trkpt><trkpt lat="45.51425355436114" lon="10.464427886359976"><ele>193.16666666666666</ele><time>2026-03-29T06:56:27Z</time></trkpt><trkpt lat="45.51424977932287" lon="10.464557465912529"><ele>193.0</ele><time>2026-03-29T06:56:28Z</time></trkpt><trkpt lat="45.51423832114753" lon="10.464703934650387"><ele>193.0</ele><time>2026-03-29T06:56:29Z</time></trkpt><trkpt lat="45.51423085177669" lon="10.464853626178003"><ele>193.0</ele><time>2026-03-29T06:56:30Z</time></trkpt><trkpt lat="45.51422035623842" lon="10.465007572110498"><ele>193.0</ele><time>2026-03-29T06:56:31Z</time></trkpt><trkpt lat="45.51422237532013" lon="10.465186385140433"><ele>193.0</ele><time>2026-03-29T06:56:32Z</time></trkpt><trkpt lat="45.514205531395355" lon="10.465363442238962"><ele>193.5</ele><time>2026-03-29T06:56:33Z</time></trkpt><trkpt lat="45.51420443247936" lon="10.465537031123548"><ele>194.0</ele><time>2026-03-29T06:56:34Z</time></trkpt><trkpt lat="45.514194907720395" lon="10.465714007910956"><ele>194.5</ele><time>2026-03-29T06:56:35Z</time></trkpt><trkpt lat="45.51419212252161" lon="10.465893125344103"><ele>195.0</ele><time>2026-03-29T06:56:36Z</time></trkpt><trkpt lat="45.514185621223795" lon="10.466058827864178"><ele>195.0</ele><time>2026-03-29T06:56:37Z</time></trkpt><trkpt lat="45.514172824421934" lon="10.466230618460914"><ele>195.0</ele><time>2026-03-29T06:56:38Z</time></trkpt><trkpt lat="45.51417133346886" lon="10.466405455810513"><ele>195.0</ele><time>2026-03-29T06:56:39Z</time></trkpt><trkpt lat="45.51416060518981" lon="10.466585007254752"><ele>195.0</ele><time>2026-03-29T06:56:40Z</time></trkpt><trkpt lat="45.514159371663126" lon="10.466764968059284"><ele>195.25</ele><time>2026-03-29T06:56:41Z</time></trkpt><trkpt lat="45.514153538674876" lon="10.466939231825883"><ele>195.5</ele><time>2026-03-29T06:56:42Z</time></trkpt><trkpt lat="45.51414586008655" lon="10.467113696176895"><ele>195.75</ele><time>2026-03-29T06:56:43Z</time></trkpt><trkpt lat="45.514132420755445" lon="10.467296039968488"><ele>196.0</ele><time>2026-03-29T06:56:44Z</time></trkpt><trkpt lat="45.51412984062464" lon="10.467481601534953"><ele>196.75</ele><time>2026-03-29T06:56:45Z</time></trkpt><trkpt lat="45.5141166205856" lon="10.467668498695494"><ele>197.5</ele><time>2026-03-29T06:56:46Z</time></trkpt><trkpt lat="45.51410392187252" lon="10.467849427552585"><ele>198.25</ele><time>2026-03-29T06:56:47Z</time></trkpt><trkpt lat="45.51410874408172" lon="10.468035742521565"><ele>199.0</ele><time>2026-03-29T06:56:48Z</time></trkpt><trkpt lat="45.5141025919914" lon="10.468220590429944"><ele>199.2</ele><time>2026-03-29T06:56:49Z</time></trkpt><trkpt lat="45.51409629392281" lon="10.468403846361467"><ele>199.39999999999998</ele><time>2026-03-29T06:56:50Z</time></trkpt><trkpt lat="45.51408834913751" lon="10.468556193667059"><ele>199.6</ele><time>2026-03-29T06:56:51Z</time></trkpt><trkpt lat="45.514089066123965" lon="10.468690876550966"><ele>199.8</ele><time>2026-03-29T06:56:52Z</time></trkpt><trkpt lat="45.51408202080416" lon="10.468827213506627"><ele>200.0</ele><time>2026-03-29T06:56:53Z</time></trkpt><trkpt lat="45.51407565933561" lon="10.468938584558826"><ele>200.0</ele><time>2026-03-29T06:56:54Z</time></trkpt><trkpt lat="45.5140721940281" lon="10.469040518651843"><ele>200.0</ele><time>2026-03-29T06:56:55Z</time></trkpt><trkpt lat="45.514067931110475" lon="10.469172019552015"><ele>200.0</ele><time>2026-03-29T06:56:57Z</time></trkpt><trkpt lat="45.51411945539593" lon="10.469242300346844"><ele>200.0</ele><time>2026-03-29T06:57:00Z</time></trkpt><trkpt lat="45.5142670898531" lon="10.469249271048005"><ele>200.0</ele><time>2026-03-29T06:57:02Z</time></trkpt><trkpt lat="45.51437403372776" lon="10.46924223385722"><ele>200.0</ele><time>2026-03-29T06:57:03Z</time></trkpt><trkpt lat="45.51447610372396" lon="10.469240026733441"><ele>200.0</ele><time>2026-03-29T06:57:04Z</time></trkpt><trkpt lat="45.514572447762184" lon="10.469246690659784"><ele>200.0</ele><time>2026-03-29T06:57:05Z</time></trkpt><trkpt lat="45.514672570490845" lon="10.469247277058825"><ele>200.0</ele><time>2026-03-29T06:57:06Z</time></trkpt><trkpt lat="45.51480551708203" lon="10.469237810623648"><ele>200.0</ele><time>2026-03-29T06:57:07Z</time></trkpt><trkpt lat="45.51491790561913" lon="10.469268557454482"><ele>200.0</ele><time>2026-03-29T06:57:08Z</time></trkpt><trkpt lat="45.51503999773892" lon="10.469280340412167"><ele>200.0</ele><time>2026-03-29T06:57:09Z</time></trkpt><trkpt lat="45.51516178088708" lon="10.469269314932024"><ele>200.0</ele><time>2026-03-29T06:57:10Z</time></trkpt><trkpt lat="45.51529146683802" lon="10.469286300159164"><ele>200.0</ele><time>2026-03-29T06:57:11Z</time></trkpt><trkpt lat="45.51542821573826" lon="10.469300541278828"><ele>200.5</ele><time>2026-03-29T06:57:12Z</time></trkpt><trkpt lat="45.515561190474244" lon="10.469319386922296"><ele>201.0</ele><time>2026-03-29T06:57:13Z</time></trkpt><trkpt lat="45.515688575701915" lon="10.469334982547137"><ele>201.5</ele><time>2026-03-29T06:57:14Z</time></trkpt><trkpt lat="45.51581564958646" lon="10.469352760616514"><ele>202.0</ele><time>2026-03-29T06:57:15Z</time></trkpt><trkpt lat="45.515949571498076" lon="10.469368950475536"><ele>202.0</ele><time>2026-03-29T06:57:16Z</time></trkpt><trkpt lat="45.516060927533395" lon="10.46937864424309"><ele>202.0</ele><time>2026-03-29T06:57:17Z</time></trkpt><trkpt lat="45.51617652050517" lon="10.469402361423581"><ele>202.0</ele><time>2026-03-29T06:57:18Z</time></trkpt><trkpt lat="45.516298439794866" lon="10.46942547241071"><ele>202.0</ele><time>2026-03-29T06:57:19Z</time></trkpt><trkpt lat="45.51642231475086" lon="10.469432805001464"><ele>202.75</ele><time>2026-03-29T06:57:20Z</time></trkpt><trkpt lat="45.51654385130937" lon="10.469427284712486"><ele>203.5</ele><time>2026-03-29T06:57:21Z</time></trkpt><trkpt lat="45.51667571343316" lon="10.469425688555232"><ele>204.25</ele><time>2026-03-29T06:57:22Z</time></trkpt><trkpt lat="45.51680457801286" lon="10.46943150860557"><ele>205.0</ele><time>2026-03-29T06:57:23Z</time></trkpt><trkpt lat="45.51691901128898" lon="10.46942272318959"><ele>204.99999999999997</ele><time>2026-03-29T06:57:24Z</time></trkpt><trkpt lat="45.51701669211469" lon="10.469425702932712"><ele>205.0</ele><time>2026-03-29T06:57:25Z</time></trkpt><trkpt lat="45.5170946227923" lon="10.46942156433806"><ele>205.0</ele><time>2026-03-29T06:57:26Z</time></trkpt><trkpt lat="45.51716588524977" lon="10.469418985450785"><ele>205.0</ele><time>2026-03-29T06:57:27Z</time></trkpt><trkpt lat="45.51723191485646" lon="10.469412147871614"><ele>204.99999999999997</ele><time>2026-03-29T06:57:28Z</time></trkpt><trkpt lat="45.51729284437716" lon="10.469455734991389"><ele>205.0</ele><time>2026-03-29T06:57:30Z</time></trkpt><trkpt lat="45.5172794748493" lon="10.469561745430234"><ele>205.4</ele><time>2026-03-29T06:57:32Z</time></trkpt><trkpt lat="45.517261851372794" lon="10.469667693023943"><ele>205.8</ele><time>2026-03-29T06:57:33Z</time></trkpt><trkpt lat="45.517225126426915" lon="10.469790766994016"><ele>206.2</ele><time>2026-03-29T06:57:34Z</time></trkpt><trkpt lat="45.51719016680995" lon="10.469953638060387"><ele>206.6</ele><time>2026-03-29T06:57:35Z</time></trkpt><trkpt lat="45.51715596094408" lon="10.470112791952898"><ele>207.0</ele><time>2026-03-29T06:57:36Z</time></trkpt><trkpt lat="45.51712496836117" lon="10.470265741636945"><ele>207.0</ele><time>2026-03-29T06:57:37Z</time></trkpt><trkpt lat="45.517094958854116" lon="10.470409295252203"><ele>207.0</ele><time>2026-03-29T06:57:38Z</time></trkpt><trkpt lat="45.51705252872651" lon="10.47052343659844"><ele>207.0</ele><time>2026-03-29T06:57:39Z</time></trkpt><trkpt lat="45.51701380405109" lon="10.470659162065328"><ele>207.0</ele><time>2026-03-29T06:57:40Z</time></trkpt><trkpt lat="45.51696363976262" lon="10.47077714035167"><ele>207.0</ele><time>2026-03-29T06:57:41Z</time></trkpt><trkpt lat="45.51690255681814" lon="10.470870782447355"><ele>207.25</ele><time>2026-03-29T06:57:42Z</time></trkpt><trkpt lat="45.516816249258866" lon="10.470998715318578"><ele>207.5</ele><time>2026-03-29T06:57:43Z</time></trkpt><trkpt lat="45.51671561722198" lon="10.471144874681453"><ele>207.75</ele><time>2026-03-29T06:57:44Z</time></trkpt><trkpt lat="45.51662056310513" lon="10.471286475747306"><ele>208.0</ele><time>2026-03-29T06:57:45Z</time></trkpt><trkpt lat="45.516536890954406" lon="10.471435846394346"><ele>208.60000000000002</ele><time>2026-03-29T06:57:46Z</time></trkpt><trkpt lat="45.51647578460692" lon="10.471566585544517"><ele>209.20000000000002</ele><time>2026-03-29T06:57:47Z</time></trkpt><trkpt lat="45.51643699531742" lon="10.471682541112825"><ele>209.8</ele><time>2026-03-29T06:57:48Z</time></trkpt><trkpt lat="45.516394422237056" lon="10.47181198976451"><ele>210.4</ele><time>2026-03-29T06:57:49Z</time></trkpt><trkpt lat="45.51636863072524" lon="10.471927814770368"><ele>211.0</ele><time>2026-03-29T06:57:50Z</time></trkpt><trkpt lat="45.51632297206106" lon="10.472038994855273"><ele>211.8</ele><time>2026-03-29T06:57:51Z</time></trkpt><trkpt lat="45.516310497519015" lon="10.472179327219381"><ele>212.60000000000002</ele><time>2026-03-29T06:57:52Z</time></trkpt><trkpt lat="45.516317538971514" lon="10.472332216442636"><ele>213.4</ele><time>2026-03-29T06:57:53Z</time></trkpt><trkpt lat="45.51630612612297" lon="10.472504379761835"><ele>214.2</ele><time>2026-03-29T06:57:54Z</time></trkpt><trkpt lat="45.516266783476794" lon="10.472636264465136"><ele>215.0</ele><time>2026-03-29T06:57:55Z</time></trkpt><trkpt lat="45.51623784202052" lon="10.472723774564509"><ele>216.0</ele><time>2026-03-29T06:57:56Z</time></trkpt><trkpt lat="45.51620971670316" lon="10.472811646863082"><ele>217.0</ele><time>2026-03-29T06:57:57Z</time></trkpt><trkpt lat="45.516170246351834" lon="10.472934964706011"><ele>218.0</ele><time>2026-03-29T06:57:59Z</time></trkpt><trkpt lat="45.516270633429876" lon="10.473097195090402"><ele>219.0</ele><time>2026-03-29T06:58:01Z</time></trkpt><trkpt lat="45.51632649941523" lon="10.4731772677231"><ele>220.0</ele><time>2026-03-29T06:58:02Z</time></trkpt><trkpt lat="45.51642039982991" lon="10.47324363003876"><ele>220.0</ele><time>2026-03-29T06:58:03Z</time></trkpt><trkpt lat="45.516536566580626" lon="10.473274368134321"><ele>220.0</ele><time>2026-03-29T06:58:04Z</time></trkpt><trkpt lat="45.51666173548924" lon="10.473331791475179"><ele>220.0</ele><time>2026-03-29T06:58:05Z</time></trkpt><trkpt lat="45.51680655432548" lon="10.473356476851837"><ele>220.0</ele><time>2026-03-29T06:58:06Z</time></trkpt><trkpt lat="45.51697530135495" lon="10.473348625573808"><ele>220.0</ele><time>2026-03-29T06:58:07Z</time></trkpt><trkpt lat="45.51713189812605" lon="10.473336216023784"><ele>220.0</ele><time>2026-03-29T06:58:08Z</time></trkpt><trkpt lat="45.51730698587395" lon="10.473324805257475"><ele>220.0</ele><time>2026-03-29T06:58:09Z</time></trkpt><trkpt lat="45.51749684935678" lon="10.473311354894616"><ele>220.0</ele><time>2026-03-29T06:58:10Z</time></trkpt><trkpt lat="45.517671011825" lon="10.473271581702205"><ele>220.0</ele><time>2026-03-29T06:58:11Z</time></trkpt><trkpt lat="45.51783142377099" lon="10.473205540021405"><ele>220.0</ele><time>2026-03-29T06:58:12Z</time></trkpt><trkpt lat="45.517978633802" lon="10.473160477451945"><ele>219.33333333333331</ele><time>2026-03-29T06:58:13Z</time></trkpt><trkpt lat="45.51811686311861" lon="10.473080854171279"><ele>218.66666666666669</ele><time>2026-03-29T06:58:14Z</time></trkpt><trkpt lat="45.51825872647891" lon="10.47296630878658"><ele>218.0</ele><time>2026-03-29T06:58:15Z</time></trkpt><trkpt lat="45.518403073804045" lon="10.472834232960828"><ele>218.0</ele><time>2026-03-29T06:58:16Z</time></trkpt><trkpt lat="45.51855961516418" lon="10.472690246847232"><ele>218.0</ele><time>2026-03-29T06:58:17Z</time></trkpt><trkpt lat="45.5187192894619" lon="10.472546972038547"><ele>218.0</ele><time>2026-03-29T06:58:18Z</time></trkpt><trkpt lat="45.518874889172366" lon="10.472415142837017"><ele>218.66666666666669</ele><time>2026-03-29T06:58:19Z</time></trkpt><trkpt lat="45.51902818697594" lon="10.47228657879377"><ele>219.33333333333331</ele><time>2026-03-29T06:58:20Z</time></trkpt><trkpt lat="45.51917495927196" lon="10.47216943727657"><ele>220.0</ele><time>2026-03-29T06:58:21Z</time></trkpt><trkpt lat="45.51931214632393" lon="10.472063673496928"><ele>219.75</ele><time>2026-03-29T06:58:22Z</time></trkpt><trkpt lat="45.51943508893385" lon="10.471963703790529"><ele>219.5</ele><time>2026-03-29T06:58:23Z</time></trkpt><trkpt lat="45.5195579812565" lon="10.471855512380484"><ele>219.25</ele><time>2026-03-29T06:58:24Z</time></trkpt><trkpt lat="45.51966392187801" lon="10.471769511819808"><ele>219.0</ele><time>2026-03-29T06:58:25Z</time></trkpt><trkpt lat="45.519759614465684" lon="10.471674711273566"><ele>219.0</ele><time>2026-03-29T06:58:26Z</time></trkpt><trkpt lat="45.519853516600634" lon="10.471570300066366"><ele>219.0</ele><time>2026-03-29T06:58:27Z</time></trkpt><trkpt lat="45.51994896339112" lon="10.471481784479916"><ele>219.0</ele><time>2026-03-29T06:58:28Z</time></trkpt><trkpt lat="45.52005064674652" lon="10.471441488983631"><ele>219.0</ele><time>2026-03-29T06:58:29Z</time></trkpt><trkpt lat="45.52015040170432" lon="10.471370242335103"><ele>219.0</ele><time>2026-03-29T06:58:30Z</time></trkpt><trkpt lat="45.52026581917269" lon="10.471332027789732"><ele>218.99999999999997</ele><time>2026-03-29T06:58:31Z</time></trkpt><trkpt lat="45.520370043507356" lon="10.471310686719882"><ele>218.99999999999997</ele><time>2026-03-29T06:58:32Z</time></trkpt><trkpt lat="45.520454684613284" lon="10.471288062080507"><ele>219.0</ele><time>2026-03-29T06:58:33Z</time></trkpt><trkpt lat="45.52053353103118" lon="10.471272129030227"><ele>219.0</ele><time>2026-03-29T06:58:35Z</time></trkpt><trkpt lat="45.52061656270785" lon="10.471254779440063"><ele>219.2</ele><time>2026-03-29T06:58:39Z</time></trkpt><trkpt lat="45.52062848570867" lon="10.471378293572315"><ele>219.39999999999998</ele><time>2026-03-29T06:58:41Z</time></trkpt><trkpt lat="45.520625209477565" lon="10.47151756924551"><ele>219.6</ele><time>2026-03-29T06:58:42Z</time></trkpt><trkpt lat="45.52062805166549" lon="10.471660818745429"><ele>219.8</ele><time>2026-03-29T06:58:43Z</time></trkpt><trkpt lat="45.520632984490305" lon="10.471796681853771"><ele>220.0</ele><time>2026-03-29T06:58:44Z</time></trkpt><trkpt lat="45.52065304152361" lon="10.471954861403853"><ele>221.5</ele><time>2026-03-29T06:58:45Z</time></trkpt><trkpt lat="45.52065077359456" lon="10.472130213742789"><ele>223.0</ele><time>2026-03-29T06:58:46Z</time></trkpt><trkpt lat="45.520641535126444" lon="10.472307039710335"><ele>224.5</ele><time>2026-03-29T06:58:47Z</time></trkpt><trkpt lat="45.52063503122667" lon="10.47249122131065"><ele>226.0</ele><time>2026-03-29T06:58:48Z</time></trkpt><trkpt lat="45.52059636761969" lon="10.472677932841327"><ele>226.0</ele><time>2026-03-29T06:58:49Z</time></trkpt><trkpt lat="45.520527045349276" lon="10.472888066387542"><ele>226.0</ele><time>2026-03-29T06:58:50Z</time></trkpt><trkpt lat="45.52045320598706" lon="10.47310668654871"><ele>226.0</ele><time>2026-03-29T06:58:51Z</time></trkpt><trkpt lat="45.520384400069" lon="10.473338600519444"><ele>229.33333333333331</ele><time>2026-03-29T06:58:52Z</time></trkpt><trkpt lat="45.52032981875198" lon="10.473595463103182"><ele>232.66666666666669</ele><time>2026-03-29T06:58:53Z</time></trkpt><trkpt lat="45.520263458262015" lon="10.473851764852139"><ele>236.0</ele><time>2026-03-29T06:58:54Z</time></trkpt><trkpt lat="45.52021088275142" lon="10.474103568440372"><ele>237.0</ele><time>2026-03-29T06:58:55Z</time></trkpt><trkpt lat="45.52015868280685" lon="10.474371982370196"><ele>238.0</ele><time>2026-03-29T06:58:56Z</time></trkpt><trkpt lat="45.52010922091729" lon="10.474644106949414"><ele>239.0</ele><time>2026-03-29T06:58:57Z</time></trkpt><trkpt lat="45.52006689340095" lon="10.4749200192584"><ele>239.0</ele><time>2026-03-29T06:58:58Z</time></trkpt><trkpt lat="45.52001275564271" lon="10.475191209687637"><ele>239.0</ele><time>2026-03-29T06:58:59Z</time></trkpt><trkpt lat="45.51998290711462" lon="10.475470967437143"><ele>239.0</ele><time>2026-03-29T06:59:00Z</time></trkpt><trkpt lat="45.51993684834907" lon="10.47573353019113"><ele>239.0</ele><time>2026-03-29T06:59:01Z</time></trkpt><trkpt lat="45.519900240344036" lon="10.475978216204766"><ele>239.0</ele><time>2026-03-29T06:59:02Z</time></trkpt><trkpt lat="45.51986833292349" lon="10.476207136747364"><ele>239.0</ele><time>2026-03-29T06:59:03Z</time></trkpt><trkpt lat="45.519833052627675" lon="10.476432015880313"><ele>238.66666666666669</ele><time>2026-03-29T06:59:04Z</time></trkpt><trkpt lat="45.519794894708625" lon="10.476655219674226"><ele>238.33333333333331</ele><time>2026-03-29T06:59:05Z</time></trkpt><trkpt lat="45.5197604588771" lon="10.476883095978183"><ele>238.0</ele><time>2026-03-29T06:59:06Z</time></trkpt><trkpt lat="45.51972533151787" lon="10.47710939315001"><ele>240.33333333333331</ele><time>2026-03-29T06:59:07Z</time></trkpt><trkpt lat="45.5196867177103" lon="10.477344010522604"><ele>242.66666666666669</ele><time>2026-03-29T06:59:08Z</time></trkpt><trkpt lat="45.51965182707258" lon="10.477570379514246"><ele>245.0</ele><time>2026-03-29T06:59:09Z</time></trkpt><trkpt lat="45.51963833933478" lon="10.477814586777415"><ele>246.66666666666669</ele><time>2026-03-29T06:59:10Z</time></trkpt><trkpt lat="45.519651348437385" lon="10.478056062920434"><ele>248.33333333333331</ele><time>2026-03-29T06:59:11Z</time></trkpt><trkpt lat="45.51968288901632" lon="10.478311120309366"><ele>250.0</ele><time>2026-03-29T06:59:12Z</time></trkpt><trkpt lat="45.519726383680876" lon="10.478551432917758"><ele>250.0</ele><time>2026-03-29T06:59:13Z</time></trkpt><trkpt lat="45.51977270967766" lon="10.478753282982021"><ele>250.0</ele><time>2026-03-29T06:59:14Z</time></trkpt><trkpt lat="45.51980122226653" lon="10.478933044208482"><ele>250.0</ele><time>2026-03-29T06:59:15Z</time></trkpt><trkpt lat="45.519801699663724" lon="10.479114028604835"><ele>250.0</ele><time>2026-03-29T06:59:16Z</time></trkpt><trkpt lat="45.519709467163906" lon="10.479242799306297"><ele>250.25</ele><time>2026-03-29T06:59:17Z</time></trkpt><trkpt lat="45.51962458563188" lon="10.479390937888791"><ele>250.5</ele><time>2026-03-29T06:59:18Z</time></trkpt><trkpt lat="45.519537595165154" lon="10.47954543301757"><ele>250.75</ele><time>2026-03-29T06:59:19Z</time></trkpt><trkpt lat="45.51943486262178" lon="10.479727792336316"><ele>251.0</ele><time>2026-03-29T06:59:20Z</time></trkpt><trkpt lat="45.51932715665534" lon="10.47992221069687"><ele>251.0</ele><time>2026-03-29T06:59:21Z</time></trkpt><trkpt lat="45.51924999962525" lon="10.480110617297338"><ele>251.0</ele><time>2026-03-29T06:59:22Z</time></trkpt><trkpt lat="45.51919240986356" lon="10.480288153963203"><ele>251.0</ele><time>2026-03-29T06:59:23Z</time></trkpt><trkpt lat="45.51915893103841" lon="10.480490510664923"><ele>251.0</ele><time>2026-03-29T06:59:24Z</time></trkpt><trkpt lat="45.51913571544873" lon="10.480714876745377"><ele>250.25</ele><time>2026-03-29T06:59:25Z</time></trkpt><trkpt lat="45.51910777849359" lon="10.480951697790255"><ele>249.5</ele><time>2026-03-29T06:59:26Z</time></trkpt><trkpt lat="45.51909689407534" lon="10.481155327345915"><ele>248.75</ele><time>2026-03-29T06:59:27Z</time></trkpt><trkpt lat="45.51908296295444" lon="10.481317686316588"><ele>248.0</ele><time>2026-03-29T06:59:28Z</time></trkpt><trkpt lat="45.51909897408339" lon="10.481478942933492"><ele>246.25</ele><time>2026-03-29T06:59:29Z</time></trkpt><trkpt lat="45.519147825419736" lon="10.48165775401435"><ele>244.5</ele><time>2026-03-29T06:59:30Z</time></trkpt><trkpt lat="45.51922432108618" lon="10.481840043605086"><ele>242.75</ele><time>2026-03-29T06:59:31Z</time></trkpt><trkpt lat="45.51931780521572" lon="10.482033833552089"><ele>241.0</ele><time>2026-03-29T06:59:32Z</time></trkpt><trkpt lat="45.51942703633081" lon="10.482240769797372"><ele>240.66666666666666</ele><time>2026-03-29T06:59:33Z</time></trkpt><trkpt lat="45.51953967685879" lon="10.482449229697888"><ele>240.33333333333331</ele><time>2026-03-29T06:59:34Z</time></trkpt><trkpt lat="45.519647549636005" lon="10.482657842452358"><ele>240.0</ele><time>2026-03-29T06:59:35Z</time></trkpt><trkpt lat="45.519745521222895" lon="10.482852982487156"><ele>240.0</ele><time>2026-03-29T06:59:36Z</time></trkpt><trkpt lat="45.51984908333631" lon="10.48304761439704"><ele>240.0</ele><time>2026-03-29T06:59:37Z</time></trkpt><trkpt lat="45.51994650534108" lon="10.48321506919516"><ele>240.0</ele><time>2026-03-29T06:59:38Z</time></trkpt><trkpt lat="45.52004424569487" lon="10.483374400779367"><ele>240.0</ele><time>2026-03-29T06:59:39Z</time></trkpt><trkpt lat="45.52015666213904" lon="10.48352857887733"><ele>240.0</ele><time>2026-03-29T06:59:40Z</time></trkpt><trkpt lat="45.52028847491183" lon="10.483689413522322"><ele>240.0</ele><time>2026-03-29T06:59:41Z</time></trkpt><trkpt lat="45.52041589309911" lon="10.483853244559292"><ele>240.66666666666669</ele><time>2026-03-29T06:59:42Z</time></trkpt><trkpt lat="45.52054545014997" lon="10.48403152013105"><ele>241.33333333333334</ele><time>2026-03-29T06:59:43Z</time></trkpt><trkpt lat="45.52067148622933" lon="10.484200008818448"><ele>242.0</ele><time>2026-03-29T06:59:44Z</time></trkpt><trkpt lat="45.52079800053614" lon="10.484357506151314"><ele>242.0</ele><time>2026-03-29T06:59:45Z</time></trkpt><trkpt lat="45.5209206218683" lon="10.48451277650775"><ele>242.0</ele><time>2026-03-29T06:59:46Z</time></trkpt><trkpt lat="45.52104120576441" lon="10.484662617728434"><ele>242.0</ele><time>2026-03-29T06:59:47Z</time></trkpt><trkpt lat="45.52115471846202" lon="10.484811180452743"><ele>242.0</ele><time>2026-03-29T06:59:48Z</time></trkpt><trkpt lat="45.52126315758682" lon="10.484967324801264"><ele>242.0</ele><time>2026-03-29T06:59:49Z</time></trkpt><trkpt lat="45.52135041689974" lon="10.485137813646533"><ele>242.0</ele><time>2026-03-29T06:59:50Z</time></trkpt><trkpt lat="45.52141009478717" lon="10.485324377683956"><ele>242.0</ele><time>2026-03-29T06:59:51Z</time></trkpt><trkpt lat="45.52143467133" lon="10.485528876876593"><ele>239.0</ele><time>2026-03-29T06:59:52Z</time></trkpt><trkpt lat="45.52144846451835" lon="10.485751471952304"><ele>236.0</ele><time>2026-03-29T06:59:53Z</time></trkpt><trkpt lat="45.52146574303422" lon="10.48597660027878"><ele>233.0</ele><time>2026-03-29T06:59:54Z</time></trkpt><trkpt lat="45.521477768002576" lon="10.486209682361482"><ele>231.33333333333334</ele><time>2026-03-29T06:59:55Z</time></trkpt><trkpt lat="45.52148328531046" lon="10.48645408875473"><ele>229.66666666666669</ele><time>2026-03-29T06:59:56Z</time></trkpt><trkpt lat="45.52145259404094" lon="10.486685843098451"><ele>228.0</ele><time>2026-03-29T06:59:57Z</time></trkpt><trkpt lat="45.52138327558495" lon="10.486910112072097"><ele>226.66666666666669</ele><time>2026-03-29T06:59:58Z</time></trkpt><trkpt lat="45.52132461574795" lon="10.487139627112796"><ele>225.33333333333334</ele><time>2026-03-29T06:59:59Z</time></trkpt><trkpt lat="45.5212759297199" lon="10.48738051533518"><ele>224.0</ele><time>2026-03-29T07:00:00Z</time></trkpt><trkpt lat="45.52121625473519" lon="10.487608442425982"><ele>223.75</ele><time>2026-03-29T07:00:01Z</time></trkpt><trkpt lat="45.52116406096416" lon="10.487813802043503"><ele>223.5</ele><time>2026-03-29T07:00:02Z</time></trkpt><trkpt lat="45.5211072578592" lon="10.488016344115048"><ele>223.25</ele><time>2026-03-29T07:00:03Z</time></trkpt><trkpt lat="45.52105539949383" lon="10.488199153758117"><ele>223.0</ele><time>2026-03-29T07:00:04Z</time></trkpt><trkpt lat="45.5210082614566" lon="10.488370624868312"><ele>222.60000000000002</ele><time>2026-03-29T07:00:05Z</time></trkpt><trkpt lat="45.520969033746624" lon="10.488513723973062"><ele>222.20000000000002</ele><time>2026-03-29T07:00:06Z</time></trkpt><trkpt lat="45.52093522355222" lon="10.488645432401313"><ele>221.8</ele><time>2026-03-29T07:00:07Z</time></trkpt><trkpt lat="45.520908700832315" lon="10.488752595916374"><ele>221.4</ele><time>2026-03-29T07:00:08Z</time></trkpt><trkpt lat="45.52088966835259" lon="10.488839176561326"><ele>221.0</ele><time>2026-03-29T07:00:09Z</time></trkpt><trkpt lat="45.52085596868568" lon="10.48898670515133"><ele>220.83333333333334</ele><time>2026-03-29T07:00:11Z</time></trkpt><trkpt lat="45.520844692005895" lon="10.4890832861287"><ele>220.66666666666669</ele><time>2026-03-29T07:00:13Z</time></trkpt><trkpt lat="45.52086524590343" lon="10.489201112688962"><ele>220.5</ele><time>2026-03-29T07:00:17Z</time></trkpt><trkpt lat="45.52090184650195" lon="10.489373155186522"><ele>220.33333333333331</ele><time>2026-03-29T07:00:19Z</time></trkpt><trkpt lat="45.52093627998045" lon="10.489465613342562"><ele>220.16666666666666</ele><time>2026-03-29T07:00:20Z</time></trkpt><trkpt lat="45.52097457151473" lon="10.48956842925042"><ele>220.0</ele><time>2026-03-29T07:00:21Z</time></trkpt><trkpt lat="45.52101892357753" lon="10.48968537471376"><ele>219.8</ele><time>2026-03-29T07:00:22Z</time></trkpt><trkpt lat="45.52106929192209" lon="10.489814893234687"><ele>219.6</ele><time>2026-03-29T07:00:23Z</time></trkpt><trkpt lat="45.52112109116182" lon="10.489948066176412"><ele>219.39999999999998</ele><time>2026-03-29T07:00:24Z</time></trkpt><trkpt lat="45.52117218022551" lon="10.490079282862661"><ele>219.2</ele><time>2026-03-29T07:00:25Z</time></trkpt><trkpt lat="45.52121114724753" lon="10.49017936534988"><ele>219.0</ele><time>2026-03-29T07:00:26Z</time></trkpt><trkpt lat="45.52125397341424" lon="10.490257136644244"><ele>218.33333333333331</ele><time>2026-03-29T07:00:27Z</time></trkpt><trkpt lat="45.521299946155224" lon="10.490334359874"><ele>217.66666666666666</ele><time>2026-03-29T07:00:28Z</time></trkpt><trkpt lat="45.52139878221494" lon="10.490475291882147"><ele>217.0</ele><time>2026-03-29T07:00:30Z</time></trkpt><trkpt lat="45.521967354432704" lon="10.49012631513655"><ele>216.99999999999997</ele><time>2026-03-29T07:00:31Z</time></trkpt><trkpt lat="45.52205042415632" lon="10.490180685873623"><ele>217.0</ele><time>2026-03-29T07:00:32Z</time></trkpt><trkpt lat="45.52213206042023" lon="10.49025352738235"><ele>217.0</ele><time>2026-03-29T07:00:33Z</time></trkpt><trkpt lat="45.52220370779739" lon="10.490320523236674"><ele>217.0</ele><time>2026-03-29T07:00:34Z</time></trkpt><trkpt lat="45.522275611155294" lon="10.490373568092616"><ele>216.99999999999997</ele><time>2026-03-29T07:00:35Z</time></trkpt><trkpt lat="45.522354904111886" lon="10.49040355737975"><ele>217.0</ele><time>2026-03-29T07:00:36Z</time></trkpt><trkpt lat="45.52244290046087" lon="10.490412872972518"><ele>216.99999999999997</ele><time>2026-03-29T07:00:37Z</time></trkpt><trkpt lat="45.5225251326133" lon="10.490421836097287"><ele>217.0</ele><time>2026-03-29T07:00:38Z</time></trkpt><trkpt lat="45.52260313949621" lon="10.490441142358772"><ele>217.0</ele><time>2026-03-29T07:00:39Z</time></trkpt><trkpt lat="45.522667648239576" lon="10.490481704023306"><ele>217.0</ele><time>2026-03-29T07:00:41Z</time></trkpt><trkpt lat="45.52272867682546" lon="10.490511762675785"><ele>216.99999999999997</ele><time>2026-03-29T07:00:43Z</time></trkpt><trkpt lat="45.52282975460842" lon="10.490437301561247"><ele>217.0</ele><time>2026-03-29T07:00:45Z</time></trkpt><trkpt lat="45.52286995259531" lon="10.490341604363708"><ele>219.0</ele><time>2026-03-29T07:00:46Z</time></trkpt><trkpt lat="45.52290086078206" lon="10.490201023908126"><ele>221.0</ele><time>2026-03-29T07:00:47Z</time></trkpt><trkpt lat="45.522927289762436" lon="10.49005807417968"><ele>223.0</ele><time>2026-03-29T07:00:48Z</time></trkpt><trkpt lat="45.52296802386505" lon="10.489895724954128"><ele>225.0</ele><time>2026-03-29T07:00:49Z</time></trkpt><trkpt lat="45.52301850112698" lon="10.48973264085378"><ele>225.75</ele><time>2026-03-29T07:00:50Z</time></trkpt><trkpt lat="45.52306624169242" lon="10.489578364329201"><ele>226.5</ele><time>2026-03-29T07:00:51Z</time></trkpt><trkpt lat="45.52312102966641" lon="10.489413160131978"><ele>227.25</ele><time>2026-03-29T07:00:52Z</time></trkpt><trkpt lat="45.52315967515049" lon="10.48926198751755"><ele>228.0</ele><time>2026-03-29T07:00:53Z</time></trkpt><trkpt lat="45.52319922250447" lon="10.489107408721411"><ele>228.0</ele><time>2026-03-29T07:00:54Z</time></trkpt><trkpt lat="45.52322942435466" lon="10.48896027461621"><ele>228.0</ele><time>2026-03-29T07:00:55Z</time></trkpt><trkpt lat="45.52326030535177" lon="10.488835343017362"><ele>228.0</ele><time>2026-03-29T07:00:56Z</time></trkpt><trkpt lat="45.523334236839936" lon="10.488766289767021"><ele>228.0</ele><time>2026-03-29T07:00:57Z</time></trkpt><trkpt lat="45.52338310860381" lon="10.48867994178301"><ele>228.0</ele><time>2026-03-29T07:00:58Z</time></trkpt><trkpt lat="45.52348255978408" lon="10.488612901248981"><ele>228.0</ele><time>2026-03-29T07:01:00Z</time></trkpt><trkpt lat="45.5235514791945" lon="10.488577036314966"><ele>228.0</ele><time>2026-03-29T07:01:01Z</time></trkpt><trkpt lat="45.523630230898036" lon="10.488540323918134"><ele>228.0</ele><time>2026-03-29T07:01:02Z</time></trkpt><trkpt lat="45.52373452210942" lon="10.488508167038768"><ele>228.0</ele><time>2026-03-29T07:01:03Z</time></trkpt><trkpt lat="45.523854840457844" lon="10.488487558301777"><ele>228.0</ele><time>2026-03-29T07:01:04Z</time></trkpt><trkpt lat="45.5239859114534" lon="10.488473385716839"><ele>229.2</ele><time>2026-03-29T07:01:05Z</time></trkpt><trkpt lat="45.52411608298695" lon="10.488461835140408"><ele>230.4</ele><time>2026-03-29T07:01:06Z</time></trkpt><trkpt lat="45.524216012237595" lon="10.488425714685645"><ele>231.59999999999997</ele><time>2026-03-29T07:01:07Z</time></trkpt><trkpt lat="45.52430449511189" lon="10.488406856813786"><ele>232.79999999999998</ele><time>2026-03-29T07:01:08Z</time></trkpt><trkpt lat="45.524392551457396" lon="10.488430232903408"><ele>234.0</ele><time>2026-03-29T07:01:09Z</time></trkpt><trkpt lat="45.52446511321733" lon="10.488463612423573"><ele>234.0</ele><time>2026-03-29T07:01:10Z</time></trkpt><trkpt lat="45.52452937145563" lon="10.488530928699852"><ele>233.99999999999997</ele><time>2026-03-29T07:01:11Z</time></trkpt><trkpt lat="45.52461409442821" lon="10.488559576087804"><ele>233.99999999999997</ele><time>2026-03-29T07:01:12Z</time></trkpt><trkpt lat="45.52469628282445" lon="10.48861375949548"><ele>234.0</ele><time>2026-03-29T07:01:13Z</time></trkpt><trkpt lat="45.52478828263071" lon="10.488653672943899"><ele>234.0</ele><time>2026-03-29T07:01:14Z</time></trkpt><trkpt lat="45.52489867884443" lon="10.48866810765776"><ele>234.5</ele><time>2026-03-29T07:01:15Z</time></trkpt><trkpt lat="45.52502520880938" lon="10.488685807613974"><ele>235.0</ele><time>2026-03-29T07:01:16Z</time></trkpt><trkpt lat="45.52514588682954" lon="10.488753707057304"><ele>235.5</ele><time>2026-03-29T07:01:17Z</time></trkpt><trkpt lat="45.5252784922333" lon="10.488777296847376"><ele>236.0</ele><time>2026-03-29T07:01:18Z</time></trkpt><trkpt lat="45.525416988473374" lon="10.488802204952602"><ele>237.0</ele><time>2026-03-29T07:01:19Z</time></trkpt><trkpt lat="45.52555155214615" lon="10.488837176627367"><ele>238.0</ele><time>2026-03-29T07:01:20Z</time></trkpt><trkpt lat="45.525684534041275" lon="10.488859467579886"><ele>239.0</ele><time>2026-03-29T07:01:21Z</time></trkpt><trkpt lat="45.52581369089194" lon="10.488880726626691"><ele>240.0</ele><time>2026-03-29T07:01:22Z</time></trkpt><trkpt lat="45.52593555210379" lon="10.488886369657992"><ele>240.0</ele><time>2026-03-29T07:01:23Z</time></trkpt><trkpt lat="45.52605229484657" lon="10.488868573037545"><ele>240.0</ele><time>2026-03-29T07:01:24Z</time></trkpt><trkpt lat="45.52618231820813" lon="10.488843719641098"><ele>240.0</ele><time>2026-03-29T07:01:25Z</time></trkpt><trkpt lat="45.52629750692132" lon="10.48882178944491"><ele>240.0</ele><time>2026-03-29T07:01:26Z</time></trkpt><trkpt lat="45.526406447662126" lon="10.488810250808015"><ele>240.16666666666666</ele><time>2026-03-29T07:01:27Z</time></trkpt><trkpt lat="45.52650067510749" lon="10.48883689160305"><ele>240.33333333333331</ele><time>2026-03-29T07:01:28Z</time></trkpt><trkpt lat="45.52658124270109" lon="10.488847330135084"><ele>240.5</ele><time>2026-03-29T07:01:29Z</time></trkpt><trkpt lat="45.52666438435521" lon="10.48884615431442"><ele>240.66666666666666</ele><time>2026-03-29T07:01:30Z</time></trkpt><trkpt lat="45.52674380432944" lon="10.488840184730908"><ele>240.83333333333331</ele><time>2026-03-29T07:01:31Z</time></trkpt><trkpt lat="45.526828878497305" lon="10.488856201056056"><ele>241.0</ele><time>2026-03-29T07:01:32Z</time></trkpt><trkpt lat="45.52690003926161" lon="10.488894520021622"><ele>241.0</ele><time>2026-03-29T07:01:33Z</time></trkpt><trkpt lat="45.526966138453936" lon="10.488956037496258"><ele>241.00000000000003</ele><time>2026-03-29T07:01:34Z</time></trkpt><trkpt lat="45.5270536753802" lon="10.489003974153155"><ele>241.00000000000003</ele><time>2026-03-29T07:01:35Z</time></trkpt><trkpt lat="45.52715456398448" lon="10.489081341352286"><ele>241.0</ele><time>2026-03-29T07:01:36Z</time></trkpt><trkpt lat="45.52723930357792" lon="10.489165620620708"><ele>241.0</ele><time>2026-03-29T07:01:37Z</time></trkpt><trkpt lat="45.52732668529777" lon="10.489160296400323"><ele>241.5</ele><time>2026-03-29T07:01:38Z</time></trkpt><trkpt lat="45.52741311135621" lon="10.489154780662988"><ele>242.0</ele><time>2026-03-29T07:01:39Z</time></trkpt><trkpt lat="45.52752429631103" lon="10.48915206086813"><ele>242.5</ele><time>2026-03-29T07:01:40Z</time></trkpt><trkpt lat="45.52764761798231" lon="10.489129453948712"><ele>243.0</ele><time>2026-03-29T07:01:41Z</time></trkpt><trkpt lat="45.52777854472741" lon="10.489103173228587"><ele>243.0</ele><time>2026-03-29T07:01:42Z</time></trkpt><trkpt lat="45.52788580368837" lon="10.489086609030439"><ele>243.0</ele><time>2026-03-29T07:01:43Z</time></trkpt><trkpt lat="45.52796540197153" lon="10.48908867963906"><ele>243.0</ele><time>2026-03-29T07:01:44Z</time></trkpt><trkpt lat="45.52805172579756" lon="10.489105228391688"><ele>243.0</ele><time>2026-03-29T07:01:45Z</time></trkpt><trkpt lat="45.52811672003966" lon="10.489139135605816"><ele>243.0</ele><time>2026-03-29T07:01:46Z</time></trkpt><trkpt lat="45.52817791698038" lon="10.48916849078748"><ele>243.0</ele><time>2026-03-29T07:01:47Z</time></trkpt><trkpt lat="45.52822560910843" lon="10.48924373604429"><ele>244.0</ele><time>2026-03-29T07:01:48Z</time></trkpt><trkpt lat="45.5282561074288" lon="10.489332597351567"><ele>245.0</ele><time>2026-03-29T07:01:49Z</time></trkpt><trkpt lat="45.528259761486765" lon="10.489425748392227"><ele>246.0</ele><time>2026-03-29T07:01:50Z</time></trkpt><trkpt lat="45.52824458292533" lon="10.489515825651152"><ele>247.0</ele><time>2026-03-29T07:01:51Z</time></trkpt><trkpt lat="45.528244423965724" lon="10.489640268552575"><ele>248.0</ele><time>2026-03-29T07:01:53Z</time></trkpt><trkpt lat="45.52826423488084" lon="10.489752701466536"><ele>249.0</ele><time>2026-03-29T07:01:55Z</time></trkpt><trkpt lat="45.5283249220598" lon="10.48988147840343"><ele>250.33333333333331</ele><time>2026-03-29T07:01:57Z</time></trkpt><trkpt lat="45.52859258066846" lon="10.489834647418258"><ele>251.66666666666666</ele><time>2026-03-29T07:01:58Z</time></trkpt><trkpt lat="45.528683241928555" lon="10.48989017103998"><ele>253.0</ele><time>2026-03-29T07:01:59Z</time></trkpt><trkpt lat="45.52879255760068" lon="10.489953746403947"><ele>253.60000000000002</ele><time>2026-03-29T07:02:00Z</time></trkpt><trkpt lat="45.52890105338999" lon="10.490017496843846"><ele>254.20000000000002</ele><time>2026-03-29T07:02:01Z</time></trkpt><trkpt lat="45.529005518414486" lon="10.490073230174595"><ele>254.8</ele><time>2026-03-29T07:02:02Z</time></trkpt><trkpt lat="45.529083634288824" lon="10.490115770821381"><ele>255.4</ele><time>2026-03-29T07:02:03Z</time></trkpt><trkpt lat="45.52919682706685" lon="10.490143780222486"><ele>256.0</ele><time>2026-03-29T07:02:05Z</time></trkpt><trkpt lat="45.52930708441153" lon="10.49005172921187"><ele>255.99999999999997</ele><time>2026-03-29T07:02:07Z</time></trkpt><trkpt lat="45.529357067962565" lon="10.48998885860593"><ele>256.0</ele><time>2026-03-29T07:02:08Z</time></trkpt><trkpt lat="45.529420895197454" lon="10.489965483824843"><ele>256.0</ele><time>2026-03-29T07:02:09Z</time></trkpt><trkpt lat="45.529496418908735" lon="10.489983778371906"><ele>256.0</ele><time>2026-03-29T07:02:10Z</time></trkpt><trkpt lat="45.529582437157714" lon="10.490020631328884"><ele>255.99999999999997</ele><time>2026-03-29T07:02:11Z</time></trkpt><trkpt lat="45.52967453585746" lon="10.490077134351761"><ele>256.0</ele><time>2026-03-29T07:02:12Z</time></trkpt><trkpt lat="45.52975231376003" lon="10.490152916994576"><ele>256.0</ele><time>2026-03-29T07:02:13Z</time></trkpt><trkpt lat="45.529849056970015" lon="10.490242531215541"><ele>256.0</ele><time>2026-03-29T07:02:14Z</time></trkpt><trkpt lat="45.52994463849452" lon="10.490341546862282"><ele>256.0</ele><time>2026-03-29T07:02:15Z</time></trkpt><trkpt lat="45.53001783160399" lon="10.490420869532473"><ele>256.0</ele><time>2026-03-29T07:02:16Z</time></trkpt><trkpt lat="45.53007959947604" lon="10.490488233757075"><ele>256.0</ele><time>2026-03-29T07:02:17Z</time></trkpt><trkpt lat="45.53014038894913" lon="10.490554010606731"><ele>255.99999999999997</ele><time>2026-03-29T07:02:18Z</time></trkpt><trkpt lat="45.53020084007243" lon="10.490640098705308"><ele>256.0</ele><time>2026-03-29T07:02:19Z</time></trkpt><trkpt lat="45.53025834378146" lon="10.490718088788658"><ele>256.0</ele><time>2026-03-29T07:02:20Z</time></trkpt><trkpt lat="45.53031863213646" lon="10.490811103566813"><ele>256.0</ele><time>2026-03-29T07:02:21Z</time></trkpt><trkpt lat="45.53036923126721" lon="10.490925027561145"><ele>255.99999999999997</ele><time>2026-03-29T07:02:22Z</time></trkpt><trkpt lat="45.53040466488062" lon="10.491047127784137"><ele>256.0</ele><time>2026-03-29T07:02:23Z</time></trkpt><trkpt lat="45.530448879673074" lon="10.491148036287347"><ele>255.8</ele><time>2026-03-29T07:02:24Z</time></trkpt><trkpt lat="45.53049670150413" lon="10.491230285083317"><ele>255.60000000000002</ele><time>2026-03-29T07:02:25Z</time></trkpt><trkpt lat="45.53057328596894" lon="10.4913254796055"><ele>255.4</ele><time>2026-03-29T07:02:26Z</time></trkpt><trkpt lat="45.530657027620634" lon="10.491427714852206"><ele>255.2</ele><time>2026-03-29T07:02:27Z</time></trkpt><trkpt lat="45.53072436145541" lon="10.49153510525191"><ele>255.0</ele><time>2026-03-29T07:02:28Z</time></trkpt><trkpt lat="45.53077337603424" lon="10.491639534048117"><ele>255.0</ele><time>2026-03-29T07:02:29Z</time></trkpt><trkpt lat="45.53082878779368" lon="10.491751369596432"><ele>255.0</ele><time>2026-03-29T07:02:30Z</time></trkpt><trkpt lat="45.53087975724032" lon="10.491860384281532"><ele>255.0</ele><time>2026-03-29T07:02:31Z</time></trkpt><trkpt lat="45.530927755595826" lon="10.491981874803841"><ele>255.0</ele><time>2026-03-29T07:02:32Z</time></trkpt><trkpt lat="45.53095225061682" lon="10.492070207966307"><ele>255.0</ele><time>2026-03-29T07:02:33Z</time></trkpt><trkpt lat="45.53097286200054" lon="10.49217531687495"><ele>255.0</ele><time>2026-03-29T07:02:34Z</time></trkpt><trkpt lat="45.53097531208715" lon="10.492293387080798"><ele>253.66666666666666</ele><time>2026-03-29T07:02:35Z</time></trkpt><trkpt lat="45.530976555917064" lon="10.492389365503996"><ele>252.33333333333331</ele><time>2026-03-29T07:02:36Z</time></trkpt><trkpt lat="45.531000828688526" lon="10.492505833546819"><ele>251.0</ele><time>2026-03-29T07:02:37Z</time></trkpt><trkpt lat="45.53103519309449" lon="10.492608317717771"><ele>249.66666666666666</ele><time>2026-03-29T07:02:38Z</time></trkpt><trkpt lat="45.53107571126373" lon="10.492701482367519"><ele>248.33333333333331</ele><time>2026-03-29T07:02:39Z</time></trkpt><trkpt lat="45.53113254465704" lon="10.492775709821409"><ele>247.0</ele><time>2026-03-29T07:02:40Z</time></trkpt><trkpt lat="45.53120871741114" lon="10.492850023776848"><ele>246.6</ele><time>2026-03-29T07:02:41Z</time></trkpt><trkpt lat="45.531290524023184" lon="10.492935987478765"><ele>246.2</ele><time>2026-03-29T07:02:42Z</time></trkpt><trkpt lat="45.53138294984716" lon="10.493019691538244"><ele>245.8</ele><time>2026-03-29T07:02:43Z</time></trkpt><trkpt lat="45.53146715604815" lon="10.493094162891675"><ele>245.4</ele><time>2026-03-29T07:02:44Z</time></trkpt><trkpt lat="45.53155713255669" lon="10.493166421886388"><ele>245.0</ele><time>2026-03-29T07:02:45Z</time></trkpt><trkpt lat="45.53165548883536" lon="10.493242220932261"><ele>245.0</ele><time>2026-03-29T07:02:46Z</time></trkpt><trkpt lat="45.531745840439626" lon="10.493308438609265"><ele>245.0</ele><time>2026-03-29T07:02:47Z</time></trkpt><trkpt lat="45.53184831844879" lon="10.493368798589444"><ele>245.0</ele><time>2026-03-29T07:02:48Z</time></trkpt><trkpt lat="45.53194254251229" lon="10.493426638108984"><ele>245.0</ele><time>2026-03-29T07:02:49Z</time></trkpt><trkpt lat="45.53202570994091" lon="10.493471172118054"><ele>245.0</ele><time>2026-03-29T07:02:50Z</time></trkpt><trkpt lat="45.53212826881312" lon="10.493513581146555"><ele>245.00000000000003</ele><time>2026-03-29T07:02:51Z</time></trkpt><trkpt lat="45.53221651443923" lon="10.493547230856706"><ele>245.0</ele><time>2026-03-29T07:02:52Z</time></trkpt><trkpt lat="45.53228217019824" lon="10.493619414351723"><ele>245.0</ele><time>2026-03-29T07:02:53Z</time></trkpt><trkpt lat="45.53234160367741" lon="10.493721986926646"><ele>245.0</ele><time>2026-03-29T07:02:54Z</time></trkpt><trkpt lat="45.53239062949807" lon="10.493817661777488"><ele>245.00000000000003</ele><time>2026-03-29T07:02:55Z</time></trkpt><trkpt lat="45.53245925808596" lon="10.493912862287731"><ele>245.0</ele><time>2026-03-29T07:02:56Z</time></trkpt><trkpt lat="45.532533915549735" lon="10.49395144872869"><ele>245.0</ele><time>2026-03-29T07:02:57Z</time></trkpt><trkpt lat="45.53264388853204" lon="10.493986433202029"><ele>245.0</ele><time>2026-03-29T07:02:58Z</time></trkpt><trkpt lat="45.53274258356167" lon="10.494044298205871"><ele>245.0</ele><time>2026-03-29T07:02:59Z</time></trkpt><trkpt lat="45.53283306674718" lon="10.494082920270385"><ele>245.0</ele><time>2026-03-29T07:03:00Z</time></trkpt><trkpt lat="45.53289949012286" lon="10.494105066069883"><ele>245.0</ele><time>2026-03-29T07:03:01Z</time></trkpt><trkpt lat="45.53299291724875" lon="10.49409745566604"><ele>244.83333333333334</ele><time>2026-03-29T07:03:02Z</time></trkpt><trkpt lat="45.53305960305393" lon="10.494087983527482"><ele>244.66666666666669</ele><time>2026-03-29T07:03:03Z</time></trkpt><trkpt lat="45.53314209288304" lon="10.494085424512992"><ele>244.5</ele><time>2026-03-29T07:03:04Z</time></trkpt><trkpt lat="45.53320551249543" lon="10.494131888786"><ele>244.33333333333331</ele><time>2026-03-29T07:03:05Z</time></trkpt><trkpt lat="45.5332550098576" lon="10.494233036444012"><ele>244.16666666666666</ele><time>2026-03-29T07:03:06Z</time></trkpt><trkpt lat="45.53331249164755" lon="10.494322447231509"><ele>244.0</ele><time>2026-03-29T07:03:07Z</time></trkpt><trkpt lat="45.5333909805832" lon="10.4944110735884"><ele>244.0</ele><time>2026-03-29T07:03:08Z</time></trkpt><trkpt lat="45.53347130398787" lon="10.494468408595804"><ele>243.99999999999997</ele><time>2026-03-29T07:03:09Z</time></trkpt><trkpt lat="45.533569939133955" lon="10.494516513817278"><ele>243.99999999999997</ele><time>2026-03-29T07:03:10Z</time></trkpt><trkpt lat="45.53367758739388" lon="10.494545897767011"><ele>244.0</ele><time>2026-03-29T07:03:11Z</time></trkpt><trkpt lat="45.53379672760576" lon="10.494564967949833"><ele>244.0</ele><time>2026-03-29T07:03:12Z</time></trkpt><trkpt lat="45.53389590806882" lon="10.494583248784657"><ele>242.39999999999998</ele><time>2026-03-29T07:03:13Z</time></trkpt><trkpt lat="45.53398451920006" lon="10.494607895592003"><ele>240.79999999999998</ele><time>2026-03-29T07:03:14Z</time></trkpt><trkpt lat="45.534072344676574" lon="10.494640788961624"><ele>239.20000000000002</ele><time>2026-03-29T07:03:15Z</time></trkpt><trkpt lat="45.53417016319733" lon="10.494671279494444"><ele>237.60000000000002</ele><time>2026-03-29T07:03:16Z</time></trkpt><trkpt lat="45.53426317929319" lon="10.494721587985415"><ele>236.0</ele><time>2026-03-29T07:03:17Z</time></trkpt><trkpt lat="45.53434259077278" lon="10.494768606497294"><ele>236.00000000000003</ele><time>2026-03-29T07:03:18Z</time></trkpt><trkpt lat="45.534421335455114" lon="10.494804183844659"><ele>236.0</ele><time>2026-03-29T07:03:19Z</time></trkpt><trkpt lat="45.5344901879023" lon="10.494822649608915"><ele>236.0</ele><time>2026-03-29T07:03:20Z</time></trkpt><trkpt lat="45.53457543512414" lon="10.494836084617358"><ele>236.0</ele><time>2026-03-29T07:03:21Z</time></trkpt><trkpt lat="45.53464207886235" lon="10.4948743680874"><ele>236.00000000000003</ele><time>2026-03-29T07:03:22Z</time></trkpt><trkpt lat="45.53472989367476" lon="10.494939143164794"><ele>236.0</ele><time>2026-03-29T07:03:23Z</time></trkpt><trkpt lat="45.53482612891356" lon="10.495006152945134"><ele>235.75</ele><time>2026-03-29T07:03:24Z</time></trkpt><trkpt lat="45.53490371376745" lon="10.49505804139431"><ele>235.5</ele><time>2026-03-29T07:03:25Z</time></trkpt><trkpt lat="45.534999306571024" lon="10.495104537271919"><ele>235.25</ele><time>2026-03-29T07:03:26Z</time></trkpt><trkpt lat="45.53513048320632" lon="10.495128809900862"><ele>235.0</ele><time>2026-03-29T07:03:27Z</time></trkpt><trkpt lat="45.535262532957276" lon="10.495146416069792"><ele>235.0</ele><time>2026-03-29T07:03:28Z</time></trkpt><trkpt lat="45.535371937734695" lon="10.495150456643731"><ele>235.0</ele><time>2026-03-29T07:03:29Z</time></trkpt><trkpt lat="45.53546542920162" lon="10.49515896648039"><ele>235.0</ele><time>2026-03-29T07:03:30Z</time></trkpt><trkpt lat="45.53556793540012" lon="10.495175959566375"><ele>235.0</ele><time>2026-03-29T07:03:31Z</time></trkpt><trkpt lat="45.535656434527205" lon="10.49520025248506"><ele>235.0</ele><time>2026-03-29T07:03:32Z</time></trkpt><trkpt lat="45.53574992069557" lon="10.495251947689967"><ele>234.8</ele><time>2026-03-29T07:03:33Z</time></trkpt><trkpt lat="45.53583917659685" lon="10.495336212127722"><ele>234.6</ele><time>2026-03-29T07:03:34Z</time></trkpt><trkpt lat="45.53592751829745" lon="10.49542721547165"><ele>234.39999999999998</ele><time>2026-03-29T07:03:35Z</time></trkpt><trkpt lat="45.536018114062486" lon="10.49551057978583"><ele>234.2</ele><time>2026-03-29T07:03:36Z</time></trkpt><trkpt lat="45.53610005398586" lon="10.495589099489353"><ele>234.0</ele><time>2026-03-29T07:03:37Z</time></trkpt><trkpt lat="45.53617823231772" lon="10.495669851115608"><ele>234.66666666666666</ele><time>2026-03-29T07:03:38Z</time></trkpt><trkpt lat="45.53625318443772" lon="10.495742447142366"><ele>235.33333333333331</ele><time>2026-03-29T07:03:39Z</time></trkpt><trkpt lat="45.5363142607674" lon="10.495812371604842"><ele>236.0</ele><time>2026-03-29T07:03:40Z</time></trkpt><trkpt lat="45.53636877310245" lon="10.495913515413008"><ele>236.66666666666666</ele><time>2026-03-29T07:03:41Z</time></trkpt><trkpt lat="45.53641653232767" lon="10.496035415843505"><ele>237.33333333333331</ele><time>2026-03-29T07:03:42Z</time></trkpt><trkpt lat="45.53646285443583" lon="10.49612175311475"><ele>238.0</ele><time>2026-03-29T07:03:43Z</time></trkpt><trkpt lat="45.53649934043575" lon="10.496222747930934"><ele>236.49999999999997</ele><time>2026-03-29T07:03:44Z</time></trkpt><trkpt lat="45.536534788647266" lon="10.496303533508224"><ele>235.0</ele><time>2026-03-29T07:03:45Z</time></trkpt><trkpt lat="45.536654181255926" lon="10.496298675990088"><ele>233.5</ele><time>2026-03-29T07:03:46Z</time></trkpt><trkpt lat="45.53674454741496" lon="10.49632633552551"><ele>232.0</ele><time>2026-03-29T07:03:47Z</time></trkpt><trkpt lat="45.5368230246677" lon="10.496329563554921"><ele>230.49999999999997</ele><time>2026-03-29T07:03:48Z</time></trkpt><trkpt lat="45.53688617354256" lon="10.496339087171906"><ele>229.0</ele><time>2026-03-29T07:03:49Z</time></trkpt><trkpt lat="45.53695173583613" lon="10.496334008896978"><ele>229.0</ele><time>2026-03-29T07:03:50Z</time></trkpt><trkpt lat="45.53704147384968" lon="10.496410713437736"><ele>229.0</ele><time>2026-03-29T07:03:51Z</time></trkpt><trkpt lat="45.53714213037327" lon="10.496441528365567"><ele>229.0</ele><time>2026-03-29T07:03:52Z</time></trkpt><trkpt lat="45.53725273601431" lon="10.496451613487213"><ele>229.0</ele><time>2026-03-29T07:03:53Z</time></trkpt><trkpt lat="45.53738543189551" lon="10.496437172748285"><ele>230.25</ele><time>2026-03-29T07:03:54Z</time></trkpt><trkpt lat="45.537523482989876" lon="10.496403792984266"><ele>231.5</ele><time>2026-03-29T07:03:55Z</time></trkpt><trkpt lat="45.53767192917293" lon="10.496355390383664"><ele>232.75</ele><time>2026-03-29T07:03:56Z</time></trkpt><trkpt lat="45.537822718295594" lon="10.49631160643948"><ele>234.0</ele><time>2026-03-29T07:03:57Z</time></trkpt><trkpt lat="45.53797796208521" lon="10.496259822984191"><ele>235.0</ele><time>2026-03-29T07:03:58Z</time></trkpt><trkpt lat="45.53812717006376" lon="10.49621429080576"><ele>236.0</ele><time>2026-03-29T07:03:59Z</time></trkpt><trkpt lat="45.53825738924006" lon="10.496177961207513"><ele>237.0</ele><time>2026-03-29T07:04:00Z</time></trkpt><trkpt lat="45.538368820112154" lon="10.496143730155097"><ele>238.0</ele><time>2026-03-29T07:04:01Z</time></trkpt><trkpt lat="45.53847616769442" lon="10.496123980751124"><ele>238.0</ele><time>2026-03-29T07:04:02Z</time></trkpt><trkpt lat="45.53858527664096" lon="10.49611009916326"><ele>238.0</ele><time>2026-03-29T07:04:03Z</time></trkpt><trkpt lat="45.53870479780744" lon="10.496098021835682"><ele>238.0</ele><time>2026-03-29T07:04:04Z</time></trkpt><trkpt lat="45.53884361523602" lon="10.49608914830713"><ele>238.0</ele><time>2026-03-29T07:04:05Z</time></trkpt><trkpt lat="45.53898067597865" lon="10.49607795105903"><ele>237.75</ele><time>2026-03-29T07:04:06Z</time></trkpt><trkpt lat="45.53911441454828" lon="10.496065900417573"><ele>237.5</ele><time>2026-03-29T07:04:07Z</time></trkpt><trkpt lat="45.53924091304579" lon="10.496045095066396"><ele>237.25</ele><time>2026-03-29T07:04:08Z</time></trkpt><trkpt lat="45.5393564736953" lon="10.496017903184384"><ele>237.0</ele><time>2026-03-29T07:04:09Z</time></trkpt><trkpt lat="45.539476628955725" lon="10.495973320644172"><ele>238.0</ele><time>2026-03-29T07:04:10Z</time></trkpt><trkpt lat="45.53959577699757" lon="10.495922914150547"><ele>239.0</ele><time>2026-03-29T07:04:11Z</time></trkpt><trkpt lat="45.53971340698286" lon="10.49586758536719"><ele>240.0</ele><time>2026-03-29T07:04:12Z</time></trkpt><trkpt lat="45.53983092254301" lon="10.495818300818641"><ele>241.0</ele><time>2026-03-29T07:04:13Z</time></trkpt><trkpt lat="45.539951708384294" lon="10.495771403225792"><ele>241.0</ele><time>2026-03-29T07:04:14Z</time></trkpt><trkpt lat="45.54007651190136" lon="10.495734807957364"><ele>241.0</ele><time>2026-03-29T07:04:15Z</time></trkpt><trkpt lat="45.540206120628866" lon="10.495716971460922"><ele>241.0</ele><time>2026-03-29T07:04:16Z</time></trkpt><trkpt lat="45.54033831788245" lon="10.495731214491668"><ele>241.0</ele><time>2026-03-29T07:04:17Z</time></trkpt><trkpt lat="45.54047451156435" lon="10.495746482665862"><ele>241.33333333333331</ele><time>2026-03-29T07:04:18Z</time></trkpt><trkpt lat="45.54062552718107" lon="10.495752788278423"><ele>241.66666666666669</ele><time>2026-03-29T07:04:19Z</time></trkpt><trkpt lat="45.54078346028635" lon="10.495747629075833"><ele>242.0</ele><time>2026-03-29T07:04:20Z</time></trkpt><trkpt lat="45.540949797567016" lon="10.495756581759254"><ele>242.0</ele><time>2026-03-29T07:04:21Z</time></trkpt><trkpt lat="45.5411159322416" lon="10.495785616210199"><ele>242.0</ele><time>2026-03-29T07:04:22Z</time></trkpt><trkpt lat="45.5412651764978" lon="10.495823192049231"><ele>242.0</ele><time>2026-03-29T07:04:23Z</time></trkpt><trkpt lat="45.54138360016609" lon="10.495846395649279"><ele>242.0</ele><time>2026-03-29T07:04:24Z</time></trkpt><trkpt lat="45.541491208208384" lon="10.495867703315325"><ele>242.0</ele><time>2026-03-29T07:04:25Z</time></trkpt><trkpt lat="45.54159115256545" lon="10.495883659788303"><ele>242.0</ele><time>2026-03-29T07:04:26Z</time></trkpt><trkpt lat="45.54167726606703" lon="10.495941317698234"><ele>242.0</ele><time>2026-03-29T07:04:27Z</time></trkpt><trkpt lat="45.54173832326046" lon="10.496053167829873"><ele>242.0</ele><time>2026-03-29T07:04:28Z</time></trkpt><trkpt lat="45.54175499875997" lon="10.496212167591242"><ele>242.0</ele><time>2026-03-29T07:04:29Z</time></trkpt><trkpt lat="45.541813198348805" lon="10.496331408211525"><ele>241.25</ele><time>2026-03-29T07:04:30Z</time></trkpt><trkpt lat="45.541884310648726" lon="10.496437409882917"><ele>240.5</ele><time>2026-03-29T07:04:31Z</time></trkpt><trkpt lat="45.541992009144366" lon="10.496483805024273"><ele>239.75</ele><time>2026-03-29T07:04:32Z</time></trkpt><trkpt lat="45.54212264142455" lon="10.496511536932356"><ele>239.0</ele><time>2026-03-29T07:04:33Z</time></trkpt><trkpt lat="45.542280596793866" lon="10.496544091952591"><ele>239.0</ele><time>2026-03-29T07:04:34Z</time></trkpt><trkpt lat="45.54244572149542" lon="10.49658061113032"><ele>239.0</ele><time>2026-03-29T07:04:35Z</time></trkpt><trkpt lat="45.54260575646009" lon="10.49662098109064"><ele>239.0</ele><time>2026-03-29T07:04:36Z</time></trkpt><trkpt lat="45.54278162058258" lon="10.496645243223512"><ele>240.66666666666669</ele><time>2026-03-29T07:04:37Z</time></trkpt><trkpt lat="45.54296975399899" lon="10.496645134807805"><ele>242.33333333333331</ele><time>2026-03-29T07:04:38Z</time></trkpt><trkpt lat="45.54315338245125" lon="10.496634760402596"><ele>244.0</ele><time>2026-03-29T07:04:39Z</time></trkpt><trkpt lat="45.543342905247876" lon="10.496634002810941"><ele>244.0</ele><time>2026-03-29T07:04:40Z</time></trkpt><trkpt lat="45.543530521292126" lon="10.496634897474918"><ele>244.0</ele><time>2026-03-29T07:04:41Z</time></trkpt><trkpt lat="45.54370700987798" lon="10.496650636016415"><ele>244.0</ele><time>2026-03-29T07:04:42Z</time></trkpt><trkpt lat="45.54387266636523" lon="10.496671008394424"><ele>243.66666666666666</ele><time>2026-03-29T07:04:43Z</time></trkpt><trkpt lat="45.544042337255924" lon="10.496700002413343"><ele>243.33333333333331</ele><time>2026-03-29T07:04:44Z</time></trkpt><trkpt lat="45.54420519118793" lon="10.496742493483692"><ele>243.0</ele><time>2026-03-29T07:04:45Z</time></trkpt><trkpt lat="45.544365045917914" lon="10.496803559396897"><ele>243.0</ele><time>2026-03-29T07:04:46Z</time></trkpt><trkpt lat="45.54452485090547" lon="10.496874234743425"><ele>243.0</ele><time>2026-03-29T07:04:47Z</time></trkpt><trkpt lat="45.54466054526972" lon="10.496933369358816"><ele>243.0</ele><time>2026-03-29T07:04:48Z</time></trkpt><trkpt lat="45.54478468516924" lon="10.496985762101161"><ele>243.0</ele><time>2026-03-29T07:04:49Z</time></trkpt><trkpt lat="45.54491718771247" lon="10.497036666608567"><ele>243.5</ele><time>2026-03-29T07:04:50Z</time></trkpt><trkpt lat="45.545052603739926" lon="10.497085297007612"><ele>244.0</ele><time>2026-03-29T07:04:51Z</time></trkpt><trkpt lat="45.54518808246032" lon="10.497142815348514"><ele>244.5</ele><time>2026-03-29T07:04:52Z</time></trkpt><trkpt lat="45.54532275833627" lon="10.497220878942732"><ele>245.0</ele><time>2026-03-29T07:04:53Z</time></trkpt><trkpt lat="45.545447681992854" lon="10.497336545850096"><ele>247.5</ele><time>2026-03-29T07:04:54Z</time></trkpt><trkpt lat="45.54554967160311" lon="10.497489192669724"><ele>250.0</ele><time>2026-03-29T07:04:55Z</time></trkpt><trkpt lat="45.54565095244541" lon="10.497639987633287"><ele>252.5</ele><time>2026-03-29T07:04:56Z</time></trkpt><trkpt lat="45.545738464263195" lon="10.497754658118927"><ele>255.0</ele><time>2026-03-29T07:04:57Z</time></trkpt><trkpt lat="45.54579286196245" lon="10.49785478523755"><ele>253.5</ele><time>2026-03-29T07:04:58Z</time></trkpt><trkpt lat="45.54585229445391" lon="10.497931376481858"><ele>252.0</ele><time>2026-03-29T07:04:59Z</time></trkpt><trkpt lat="45.54590107687906" lon="10.498003235680514"><ele>250.5</ele><time>2026-03-29T07:05:00Z</time></trkpt><trkpt lat="45.54595041915688" lon="10.498076297478327"><ele>249.0</ele><time>2026-03-29T07:05:01Z</time></trkpt><trkpt lat="45.54603128562883" lon="10.498187065193866"><ele>247.5</ele><time>2026-03-29T07:05:03Z</time></trkpt><trkpt lat="45.54608751706308" lon="10.498257740746952"><ele>246.0</ele><time>2026-03-29T07:05:05Z</time></trkpt><trkpt lat="45.5461530456554" lon="10.498254400161825"><ele>246.0</ele><time>2026-03-29T07:05:09Z</time></trkpt><trkpt lat="45.546083563304734" lon="10.497982257791815"><ele>246.0</ele><time>2026-03-29T07:05:11Z</time></trkpt><trkpt lat="45.54604505280381" lon="10.497855180824711"><ele>246.0</ele><time>2026-03-29T07:05:12Z</time></trkpt><trkpt lat="45.54599346511914" lon="10.497723154724753"><ele>246.0</ele><time>2026-03-29T07:05:13Z</time></trkpt><trkpt lat="45.545929663253396" lon="10.497573986030183"><ele>248.25</ele><time>2026-03-29T07:05:14Z</time></trkpt><trkpt lat="45.5458731278373" lon="10.49740976783595"><ele>250.5</ele><time>2026-03-29T07:05:15Z</time></trkpt><trkpt lat="45.54581581663175" lon="10.497224429479465"><ele>252.75</ele><time>2026-03-29T07:05:16Z</time></trkpt><trkpt lat="45.54575698404904" lon="10.497048064100653"><ele>255.0</ele><time>2026-03-29T07:05:17Z</time></trkpt><trkpt lat="45.54570454088819" lon="10.496886179710053"><ele>255.4</ele><time>2026-03-29T07:05:18Z</time></trkpt><trkpt lat="45.545660747199214" lon="10.496755279279606"><ele>255.8</ele><time>2026-03-29T07:05:19Z</time></trkpt><trkpt lat="45.54563251110888" lon="10.496659920091863"><ele>256.2</ele><time>2026-03-29T07:05:20Z</time></trkpt><trkpt lat="45.54560610212457" lon="10.496570547021635"><ele>256.6</ele><time>2026-03-29T07:05:21Z</time></trkpt><trkpt lat="45.545629012940374" lon="10.496450571388344"><ele>257.0</ele><time>2026-03-29T07:05:23Z</time></trkpt><trkpt lat="45.54580201444448" lon="10.49643738634152"><ele>257.0</ele><time>2026-03-29T07:05:27Z</time></trkpt><trkpt lat="45.54587620052191" lon="10.496416014625222"><ele>257.0</ele><time>2026-03-29T07:05:28Z</time></trkpt><trkpt lat="45.54596432344985" lon="10.49642419582063"><ele>257.0</ele><time>2026-03-29T07:05:29Z</time></trkpt><trkpt lat="45.54605445106898" lon="10.496432498586687"><ele>257.0</ele><time>2026-03-29T07:05:30Z</time></trkpt><trkpt lat="45.546158715558754" lon="10.496436910875763"><ele>257.0</ele><time>2026-03-29T07:05:31Z</time></trkpt><trkpt lat="45.54625878844074" lon="10.496462548018531"><ele>256.8</ele><time>2026-03-29T07:05:32Z</time></trkpt><trkpt lat="45.5463478257449" lon="10.49645269471859"><ele>256.6</ele><time>2026-03-29T07:05:33Z</time></trkpt><trkpt lat="45.54641283723051" lon="10.496410949057264"><ele>256.40000000000003</ele><time>2026-03-29T07:05:34Z</time></trkpt><trkpt lat="45.54650777389097" lon="10.496359357796228"><ele>256.2</ele><time>2026-03-29T07:05:36Z</time></trkpt><trkpt lat="45.54660813440141" lon="10.496265822778467"><ele>256.0</ele><time>2026-03-29T07:05:38Z</time></trkpt><trkpt lat="45.54666267462108" lon="10.496195638940883"><ele>256.0</ele><time>2026-03-29T07:05:39Z</time></trkpt><trkpt lat="45.5467215329801" lon="10.496143068888253"><ele>255.99999999999997</ele><time>2026-03-29T07:05:40Z</time></trkpt><trkpt lat="45.54676770545871" lon="10.496060624978217"><ele>256.0</ele><time>2026-03-29T07:05:41Z</time></trkpt><trkpt lat="45.54680903934881" lon="10.495979933166964"><ele>256.0</ele><time>2026-03-29T07:05:42Z</time></trkpt><trkpt lat="45.54684621991741" lon="10.495895073342963"><ele>255.99999999999997</ele><time>2026-03-29T07:05:43Z</time></trkpt><trkpt lat="45.54687501179415" lon="10.495803390791139"><ele>256.0</ele><time>2026-03-29T07:05:44Z</time></trkpt><trkpt lat="45.54689492510756" lon="10.495706058886443"><ele>256.0</ele><time>2026-03-29T07:05:45Z</time></trkpt><trkpt lat="45.54690861417857" lon="10.49561377392337"><ele>256.0</ele><time>2026-03-29T07:05:46Z</time></trkpt><trkpt lat="45.54691591008302" lon="10.495519162218747"><ele>256.0</ele><time>2026-03-29T07:05:47Z</time></trkpt><trkpt lat="45.546891512359714" lon="10.495356932202899"><ele>256.0</ele><time>2026-03-29T07:05:49Z</time></trkpt><trkpt lat="45.54680583693523" lon="10.495203316602122"><ele>256.0</ele><time>2026-03-29T07:05:51Z</time></trkpt><trkpt lat="45.5467561842337" lon="10.495118514364275"><ele>256.0</ele><time>2026-03-29T07:05:52Z</time></trkpt><trkpt lat="45.54670682075951" lon="10.495038529277434"><ele>255.66666666666666</ele><time>2026-03-29T07:05:53Z</time></trkpt><trkpt lat="45.546656788440984" lon="10.494966855784181"><ele>255.33333333333331</ele><time>2026-03-29T07:05:54Z</time></trkpt><trkpt lat="45.54661069704043" lon="10.494883982075368"><ele>255.0</ele><time>2026-03-29T07:05:55Z</time></trkpt><trkpt lat="45.546576958983565" lon="10.494780347683628"><ele>254.66666666666669</ele><time>2026-03-29T07:05:56Z</time></trkpt><trkpt lat="45.54654960575595" lon="10.494680022567534"><ele>254.33333333333334</ele><time>2026-03-29T07:05:57Z</time></trkpt><trkpt lat="45.546551711267945" lon="10.494582150867396"><ele>254.0</ele><time>2026-03-29T07:05:58Z</time></trkpt><trkpt lat="45.54657373985323" lon="10.494412300467763"><ele>253.33333333333334</ele><time>2026-03-29T07:06:00Z</time></trkpt><trkpt lat="45.546602141734304" lon="10.494294798274076"><ele>252.66666666666669</ele><time>2026-03-29T07:06:01Z</time></trkpt><trkpt lat="45.54663015577193" lon="10.494189147346278"><ele>252.0</ele><time>2026-03-29T07:06:02Z</time></trkpt><trkpt lat="45.54665992282947" lon="10.494084123294886"><ele>251.33333333333331</ele><time>2026-03-29T07:06:03Z</time></trkpt><trkpt lat="45.546693381153595" lon="10.493966075539664"><ele>250.66666666666666</ele><time>2026-03-29T07:06:04Z</time></trkpt><trkpt lat="45.546723956514654" lon="10.493858199004242"><ele>250.0</ele><time>2026-03-29T07:06:05Z</time></trkpt><trkpt lat="45.54675308726199" lon="10.493755419630592"><ele>250.6</ele><time>2026-03-29T07:06:06Z</time></trkpt><trkpt lat="45.54679148929288" lon="10.493628647551896"><ele>251.2</ele><time>2026-03-29T07:06:07Z</time></trkpt><trkpt lat="45.546833276327924" lon="10.493504842493998"><ele>251.8</ele><time>2026-03-29T07:06:08Z</time></trkpt><trkpt lat="45.546877687975766" lon="10.493396878109456"><ele>252.4</ele><time>2026-03-29T07:06:09Z</time></trkpt><trkpt lat="45.54692583117185" lon="10.493279782905878"><ele>253.0</ele><time>2026-03-29T07:06:10Z</time></trkpt><trkpt lat="45.54700683198619" lon="10.493197794115401"><ele>252.8</ele><time>2026-03-29T07:06:11Z</time></trkpt><trkpt lat="45.547082381499536" lon="10.49309700617417"><ele>252.60000000000002</ele><time>2026-03-29T07:06:12Z</time></trkpt><trkpt lat="45.54714347934097" lon="10.492996875415614"><ele>252.39999999999998</ele><time>2026-03-29T07:06:13Z</time></trkpt><trkpt lat="45.547195229908446" lon="10.492892230923015"><ele>252.2</ele><time>2026-03-29T07:06:14Z</time></trkpt><trkpt lat="45.5472398346837" lon="10.492789111363901"><ele>252.0</ele><time>2026-03-29T07:06:15Z</time></trkpt><trkpt lat="45.54728283459218" lon="10.492677665828088"><ele>252.0</ele><time>2026-03-29T07:06:16Z</time></trkpt><trkpt lat="45.54731754205594" lon="10.492578292862875"><ele>252.0</ele><time>2026-03-29T07:06:17Z</time></trkpt><trkpt lat="45.54733611035765" lon="10.492464928490108"><ele>252.0</ele><time>2026-03-29T07:06:18Z</time></trkpt><trkpt lat="45.54737201651672" lon="10.492339892910445"><ele>252.0</ele><time>2026-03-29T07:06:19Z</time></trkpt><trkpt lat="45.547395039696" lon="10.49222632084006"><ele>252.0</ele><time>2026-03-29T07:06:20Z</time></trkpt><trkpt lat="45.54741482746489" lon="10.49212758983736"><ele>252.0</ele><time>2026-03-29T07:06:21Z</time></trkpt><trkpt lat="45.54745436802665" lon="10.49202849028299"><ele>251.83333333333334</ele><time>2026-03-29T07:06:22Z</time></trkpt><trkpt lat="45.54746081419748" lon="10.491924247361792"><ele>251.66666666666669</ele><time>2026-03-29T07:06:23Z</time></trkpt><trkpt lat="45.547485034871784" lon="10.491827524660176"><ele>251.5</ele><time>2026-03-29T07:06:24Z</time></trkpt><trkpt lat="45.54752351260349" lon="10.491674425883469"><ele>251.33333333333334</ele><time>2026-03-29T07:06:26Z</time></trkpt><trkpt lat="45.547557495612445" lon="10.491563709209922"><ele>251.16666666666669</ele><time>2026-03-29T07:06:27Z</time></trkpt><trkpt lat="45.547590048857174" lon="10.491459294168141"><ele>251.0</ele><time>2026-03-29T07:06:28Z</time></trkpt><trkpt lat="45.54762890393795" lon="10.491361655320539"><ele>250.99999999999997</ele><time>2026-03-29T07:06:29Z</time></trkpt><trkpt lat="45.54767661913793" lon="10.49129556219621"><ele>251.0</ele><time>2026-03-29T07:06:30Z</time></trkpt><trkpt lat="45.54773555864754" lon="10.49120408637206"><ele>250.99999999999997</ele><time>2026-03-29T07:06:31Z</time></trkpt><trkpt lat="45.54778433390623" lon="10.491132157123042"><ele>250.99999999999997</ele><time>2026-03-29T07:06:32Z</time></trkpt><trkpt lat="45.54783835095194" lon="10.4910520386427"><ele>251.0</ele><time>2026-03-29T07:06:33Z</time></trkpt><trkpt lat="45.54788538599612" lon="10.490975345858537"><ele>250.99999999999997</ele><time>2026-03-29T07:06:34Z</time></trkpt><trkpt lat="45.547934728337495" lon="10.490892310156832"><ele>250.99999999999997</ele><time>2026-03-29T07:06:35Z</time></trkpt><trkpt lat="45.54798742097989" lon="10.490796259767857"><ele>250.83333333333334</ele><time>2026-03-29T07:06:36Z</time></trkpt><trkpt lat="45.548025699802594" lon="10.490705107212836"><ele>250.66666666666669</ele><time>2026-03-29T07:06:37Z</time></trkpt><trkpt lat="45.54805824402271" lon="10.490614840674658"><ele>250.5</ele><time>2026-03-29T07:06:38Z</time></trkpt><trkpt lat="45.54808544093962" lon="10.490510174525955"><ele>250.33333333333331</ele><time>2026-03-29T07:06:39Z</time></trkpt><trkpt lat="45.54811231520901" lon="10.490401355233203"><ele>250.16666666666666</ele><time>2026-03-29T07:06:40Z</time></trkpt><trkpt lat="45.548137383236025" lon="10.490299849372356"><ele>250.0</ele><time>2026-03-29T07:06:41Z</time></trkpt><trkpt lat="45.54816613715099" lon="10.490193427321092"><ele>250.0</ele><time>2026-03-29T07:06:42Z</time></trkpt><trkpt lat="45.548196818037866" lon="10.49008793498832"><ele>250.0</ele><time>2026-03-29T07:06:43Z</time></trkpt><trkpt lat="45.54822784564912" lon="10.489983426149173"><ele>250.0</ele><time>2026-03-29T07:06:44Z</time></trkpt><trkpt lat="45.548258960727104" lon="10.489895368184303"><ele>250.0</ele><time>2026-03-29T07:06:45Z</time></trkpt><trkpt lat="45.548299065428445" lon="10.489812256400734"><ele>250.0</ele><time>2026-03-29T07:06:46Z</time></trkpt><trkpt lat="45.5483438413809" lon="10.48973602906536"><ele>250.0</ele><time>2026-03-29T07:06:47Z</time></trkpt><trkpt lat="45.54840528266948" lon="10.489664503821581"><ele>250.0</ele><time>2026-03-29T07:06:48Z</time></trkpt><trkpt lat="45.548506942931134" lon="10.489547850845366"><ele>249.99999999999997</ele><time>2026-03-29T07:06:50Z</time></trkpt><trkpt lat="45.5485725070624" lon="10.489474257572397"><ele>250.0</ele><time>2026-03-29T07:06:51Z</time></trkpt><trkpt lat="45.54864421153398" lon="10.489388947019727"><ele>250.0</ele><time>2026-03-29T07:06:52Z</time></trkpt><trkpt lat="45.54869160160776" lon="10.489302433970904"><ele>250.0</ele><time>2026-03-29T07:06:53Z</time></trkpt><trkpt lat="45.54875422495771" lon="10.489218843306727"><ele>249.99999999999997</ele><time>2026-03-29T07:06:54Z</time></trkpt><trkpt lat="45.54881154982849" lon="10.489142442437082"><ele>250.0</ele><time>2026-03-29T07:06:55Z</time></trkpt><trkpt lat="45.548852349246665" lon="10.489022269053848"><ele>250.0</ele><time>2026-03-29T07:06:56Z</time></trkpt><trkpt lat="45.54889163468639" lon="10.488890159316822"><ele>250.0</ele><time>2026-03-29T07:06:57Z</time></trkpt><trkpt lat="45.548926777251516" lon="10.488763916252537"><ele>250.0</ele><time>2026-03-29T07:06:58Z</time></trkpt><trkpt lat="45.54896392756351" lon="10.488631420852956"><ele>250.0</ele><time>2026-03-29T07:06:59Z</time></trkpt><trkpt lat="45.54899826942786" lon="10.48850894138795"><ele>250.0</ele><time>2026-03-29T07:07:00Z</time></trkpt><trkpt lat="45.54903303501947" lon="10.4883731471205"><ele>249.83333333333331</ele><time>2026-03-29T07:07:01Z</time></trkpt><trkpt lat="45.5490582051777" lon="10.488241579801628"><ele>249.66666666666666</ele><time>2026-03-29T07:07:02Z</time></trkpt><trkpt lat="45.54907307959188" lon="10.488109600222254"><ele>249.5</ele><time>2026-03-29T07:07:03Z</time></trkpt><trkpt lat="45.549084828900995" lon="10.487991807663143"><ele>249.33333333333331</ele><time>2026-03-29T07:07:04Z</time></trkpt><trkpt lat="45.54909437353236" lon="10.48788636212334"><ele>249.16666666666666</ele><time>2026-03-29T07:07:05Z</time></trkpt><trkpt lat="45.54910361896528" lon="10.48778422232748"><ele>249.0</ele><time>2026-03-29T07:07:06Z</time></trkpt><trkpt lat="45.54910225734283" lon="10.487642485734646"><ele>249.0</ele><time>2026-03-29T07:07:07Z</time></trkpt><trkpt lat="45.54912455090984" lon="10.487506787532912"><ele>249.0</ele><time>2026-03-29T07:07:08Z</time></trkpt><trkpt lat="45.549133074224116" lon="10.487405974974399"><ele>249.0</ele><time>2026-03-29T07:07:09Z</time></trkpt><trkpt lat="45.54913435562956" lon="10.48730356407321"><ele>249.0</ele><time>2026-03-29T07:07:10Z</time></trkpt><trkpt lat="45.5491414621018" lon="10.487181917580923"><ele>249.0</ele><time>2026-03-29T07:07:11Z</time></trkpt><trkpt lat="45.54915942108314" lon="10.487066927252467"><ele>249.0</ele><time>2026-03-29T07:07:12Z</time></trkpt><trkpt lat="45.549184678884174" lon="10.486935121750184"><ele>249.16666666666666</ele><time>2026-03-29T07:07:13Z</time></trkpt><trkpt lat="45.54924213997449" lon="10.486817886422878"><ele>249.33333333333331</ele><time>2026-03-29T07:07:14Z</time></trkpt><trkpt lat="45.54928187166802" lon="10.486728179049582"><ele>249.5</ele><time>2026-03-29T07:07:15Z</time></trkpt><trkpt lat="45.549334760066074" lon="10.486631896192296"><ele>249.66666666666666</ele><time>2026-03-29T07:07:16Z</time></trkpt><trkpt lat="45.5493951432751" lon="10.486555957099593"><ele>249.83333333333331</ele><time>2026-03-29T07:07:17Z</time></trkpt><trkpt lat="45.5494571435745" lon="10.486479917198022"><ele>250.0</ele><time>2026-03-29T07:07:18Z</time></trkpt><trkpt lat="45.54950535495228" lon="10.486400565205335"><ele>249.83333333333331</ele><time>2026-03-29T07:07:19Z</time></trkpt><trkpt lat="45.54956576823245" lon="10.486337438339994"><ele>249.66666666666666</ele><time>2026-03-29T07:07:20Z</time></trkpt><trkpt lat="45.54964812242655" lon="10.48627905068683"><ele>249.5</ele><time>2026-03-29T07:07:22Z</time></trkpt><trkpt lat="45.54964491788946" lon="10.486156041481955"><ele>249.33333333333331</ele><time>2026-03-29T07:07:24Z</time></trkpt><trkpt lat="45.54960846521587" lon="10.486063867654345"><ele>249.16666666666666</ele><time>2026-03-29T07:07:25Z</time></trkpt><trkpt lat="45.549556651047446" lon="10.485977832397168"><ele>249.0</ele><time>2026-03-29T07:07:26Z</time></trkpt><trkpt lat="45.54949045382418" lon="10.485883996412174"><ele>250.16666666666666</ele><time>2026-03-29T07:07:27Z</time></trkpt><trkpt lat="45.54943700887289" lon="10.485775384978734"><ele>251.33333333333331</ele><time>2026-03-29T07:07:28Z</time></trkpt><trkpt lat="45.549384835077326" lon="10.485689805084617"><ele>252.5</ele><time>2026-03-29T07:07:29Z</time></trkpt><trkpt lat="45.54934436588151" lon="10.485618024393961"><ele>253.66666666666666</ele><time>2026-03-29T07:07:30Z</time></trkpt><trkpt lat="45.54931822600833" lon="10.485498585668465"><ele>254.83333333333331</ele><time>2026-03-29T07:07:32Z</time></trkpt><trkpt lat="45.549361722821374" lon="10.485417435475767"><ele>256.0</ele><time>2026-03-29T07:07:34Z</time></trkpt><trkpt lat="45.549424378321284" lon="10.485290718713756"><ele>255.42857142857142</ele><time>2026-03-29T07:07:36Z</time></trkpt><trkpt lat="45.549466699752955" lon="10.485220452022876"><ele>254.85714285714283</ele><time>2026-03-29T07:07:37Z</time></trkpt><trkpt lat="45.54951784541448" lon="10.485152969589414"><ele>254.28571428571428</ele><time>2026-03-29T07:07:38Z</time></trkpt><trkpt lat="45.549568816820184" lon="10.485099637192812"><ele>253.71428571428572</ele><time>2026-03-29T07:07:39Z</time></trkpt><trkpt lat="45.549626203333155" lon="10.48503986813001"><ele>253.14285714285714</ele><time>2026-03-29T07:07:40Z</time></trkpt><trkpt lat="45.54969699493266" lon="10.48497172560782"><ele>252.57142857142856</ele><time>2026-03-29T07:07:41Z</time></trkpt><trkpt lat="45.54975918020759" lon="10.484920100389848"><ele>252.0</ele><time>2026-03-29T07:07:42Z</time></trkpt><trkpt lat="45.54983198139912" lon="10.484860696798357"><ele>252.0</ele><time>2026-03-29T07:07:43Z</time></trkpt><trkpt lat="45.549909544660366" lon="10.484783920517218"><ele>252.0</ele><time>2026-03-29T07:07:44Z</time></trkpt><trkpt lat="45.549964437351456" lon="10.48471555674455"><ele>252.0</ele><time>2026-03-29T07:07:45Z</time></trkpt><trkpt lat="45.550021223456014" lon="10.484637912972817"><ele>252.0</ele><time>2026-03-29T07:07:46Z</time></trkpt><trkpt lat="45.55009130409619" lon="10.484548705244523"><ele>252.0</ele><time>2026-03-29T07:07:47Z</time></trkpt><trkpt lat="45.55019260204624" lon="10.484451589329542"><ele>253.0</ele><time>2026-03-29T07:07:48Z</time></trkpt><trkpt lat="45.5502831976443" lon="10.484392191481405"><ele>254.0</ele><time>2026-03-29T07:07:49Z</time></trkpt><trkpt lat="45.55038739034857" lon="10.484328599047496"><ele>255.0</ele><time>2026-03-29T07:07:50Z</time></trkpt><trkpt lat="45.55048322147638" lon="10.484274601984335"><ele>256.0</ele><time>2026-03-29T07:07:51Z</time></trkpt><trkpt lat="45.550572811839466" lon="10.484223745663982"><ele>257.0</ele><time>2026-03-29T07:07:52Z</time></trkpt><trkpt lat="45.55064220919912" lon="10.48418196072534"><ele>257.0</ele><time>2026-03-29T07:07:53Z</time></trkpt><trkpt lat="45.5507168018135" lon="10.484140888210906"><ele>257.0</ele><time>2026-03-29T07:07:54Z</time></trkpt><trkpt lat="45.55079275358919" lon="10.484120114409063"><ele>257.0</ele><time>2026-03-29T07:07:55Z</time></trkpt><trkpt lat="45.55086856348055" lon="10.484128661962023"><ele>257.0</ele><time>2026-03-29T07:07:56Z</time></trkpt><trkpt lat="45.550947285629626" lon="10.484212428072672"><ele>257.0</ele><time>2026-03-29T07:07:57Z</time></trkpt><trkpt lat="45.55103250396765" lon="10.484259184297667"><ele>257.0</ele><time>2026-03-29T07:07:58Z</time></trkpt><trkpt lat="45.55112188875793" lon="10.484311396806753"><ele>258.6</ele><time>2026-03-29T07:07:59Z</time></trkpt><trkpt lat="45.551215151318836" lon="10.48434713299469"><ele>260.2</ele><time>2026-03-29T07:08:00Z</time></trkpt><trkpt lat="45.5513243088255" lon="10.484380667742174"><ele>261.8</ele><time>2026-03-29T07:08:01Z</time></trkpt><trkpt lat="45.55143956431605" lon="10.484421218516987"><ele>263.4</ele><time>2026-03-29T07:08:02Z</time></trkpt><trkpt lat="45.55153476182366" lon="10.484462955185323"><ele>265.0</ele><time>2026-03-29T07:08:03Z</time></trkpt><trkpt lat="45.55164307539198" lon="10.484493680886494"><ele>265.0</ele><time>2026-03-29T07:08:04Z</time></trkpt><trkpt lat="45.55175476849959" lon="10.484537018902587"><ele>265.0</ele><time>2026-03-29T07:08:05Z</time></trkpt><trkpt lat="45.55185690753825" lon="10.484573244271893"><ele>265.0</ele><time>2026-03-29T07:08:06Z</time></trkpt><trkpt lat="45.55195258395373" lon="10.484638576249411"><ele>265.0</ele><time>2026-03-29T07:08:07Z</time></trkpt><trkpt lat="45.5520288098455" lon="10.484705972030858"><ele>265.0</ele><time>2026-03-29T07:08:08Z</time></trkpt><trkpt lat="45.552104551573706" lon="10.484746389703647"><ele>264.4</ele><time>2026-03-29T07:08:09Z</time></trkpt><trkpt lat="45.55219725430914" lon="10.484789935943644"><ele>263.8</ele><time>2026-03-29T07:08:10Z</time></trkpt><trkpt lat="45.55230032771439" lon="10.484855063413667"><ele>263.2</ele><time>2026-03-29T07:08:11Z</time></trkpt><trkpt lat="45.55239227068067" lon="10.484913453817352"><ele>262.6</ele><time>2026-03-29T07:08:12Z</time></trkpt><trkpt lat="45.552480427500676" lon="10.484964009080656"><ele>262.0</ele><time>2026-03-29T07:08:13Z</time></trkpt><trkpt lat="45.55255922824309" lon="10.48498062534783"><ele>262.0</ele><time>2026-03-29T07:08:14Z</time></trkpt><trkpt lat="45.55263096402148" lon="10.484991042473219"><ele>262.0</ele><time>2026-03-29T07:08:16Z</time></trkpt><trkpt lat="45.55271633533232" lon="10.484957002046674"><ele>262.0</ele><time>2026-03-29T07:08:29Z</time></trkpt><trkpt lat="45.55276683700792" lon="10.484860390270438"><ele>262.0</ele><time>2026-03-29T07:08:38Z</time></trkpt><trkpt lat="45.55269011401275" lon="10.48469190887605"><ele>262.0</ele><time>2026-03-29T07:08:42Z</time></trkpt><trkpt lat="45.552627713363655" lon="10.484659882577466"><ele>262.0</ele><time>2026-03-29T07:08:43Z</time></trkpt><trkpt lat="45.55256253186997" lon="10.484636185130892"><ele>262.0</ele><time>2026-03-29T07:08:44Z</time></trkpt><trkpt lat="45.55249180211005" lon="10.484617307738816"><ele>262.0</ele><time>2026-03-29T07:08:45Z</time></trkpt><trkpt lat="45.55237164575718" lon="10.48458354815701"><ele>262.0</ele><time>2026-03-29T07:08:47Z</time></trkpt><trkpt lat="45.5522779652442" lon="10.484526019795405"><ele>262.0</ele><time>2026-03-29T07:08:49Z</time></trkpt><trkpt lat="45.552212062852256" lon="10.484435555350762"><ele>262.42857142857144</ele><time>2026-03-29T07:08:51Z</time></trkpt><trkpt lat="45.55216246948512" lon="10.48437936023336"><ele>262.8571428571429</ele><time>2026-03-29T07:08:52Z</time></trkpt><trkpt lat="45.55210626153403" lon="10.4843156681193"><ele>263.2857142857143</ele><time>2026-03-29T07:08:53Z</time></trkpt><trkpt lat="45.55203762542526" lon="10.484255821689356"><ele>263.7142857142857</ele><time>2026-03-29T07:08:54Z</time></trkpt><trkpt lat="45.55198996363688" lon="10.484187933570661"><ele>264.1428571428571</ele><time>2026-03-29T07:08:55Z</time></trkpt><trkpt lat="45.551928087318856" lon="10.484099794704845"><ele>264.57142857142856</ele><time>2026-03-29T07:08:56Z</time></trkpt><trkpt lat="45.551875159278445" lon="10.484033490887791"><ele>265.0</ele><time>2026-03-29T07:08:57Z</time></trkpt><trkpt lat="45.55179456498784" lon="10.483926287527666"><ele>265.0</ele><time>2026-03-29T07:08:59Z</time></trkpt><trkpt lat="45.55173056318938" lon="10.483822121194725"><ele>265.0</ele><time>2026-03-29T07:09:01Z</time></trkpt><trkpt lat="45.551672798540324" lon="10.483674322496558"><ele>265.0</ele><time>2026-03-29T07:09:03Z</time></trkpt><trkpt lat="45.55164641034972" lon="10.483583058930245"><ele>265.0</ele><time>2026-03-29T07:09:04Z</time></trkpt><trkpt lat="45.55158962556785" lon="10.483415735943005"><ele>265.0</ele><time>2026-03-29T07:09:06Z</time></trkpt><trkpt lat="45.55153711295272" lon="10.483325677541776"><ele>266.0</ele><time>2026-03-29T07:09:07Z</time></trkpt><trkpt lat="45.55149652574769" lon="10.483223789259656"><ele>267.0</ele><time>2026-03-29T07:09:08Z</time></trkpt><trkpt lat="45.55146673620571" lon="10.48311480863002"><ele>268.0</ele><time>2026-03-29T07:09:09Z</time></trkpt><trkpt lat="45.55144026169405" lon="10.482983342834544"><ele>269.0</ele><time>2026-03-29T07:09:10Z</time></trkpt><trkpt lat="45.55141516579728" lon="10.482866429021048"><ele>270.0</ele><time>2026-03-29T07:09:11Z</time></trkpt><trkpt lat="45.55138498747897" lon="10.482754987126162"><ele>271.0</ele><time>2026-03-29T07:09:12Z</time></trkpt><trkpt lat="45.55133997828842" lon="10.482646055204446"><ele>270.8333333333333</ele><time>2026-03-29T07:09:13Z</time></trkpt><trkpt lat="45.55129096890459" lon="10.482538277522433"><ele>270.66666666666663</ele><time>2026-03-29T07:09:14Z</time></trkpt><trkpt lat="45.55124368317858" lon="10.48244108744242"><ele>270.5</ele><time>2026-03-29T07:09:15Z</time></trkpt><trkpt lat="45.55118176759141" lon="10.48233180907727"><ele>270.3333333333333</ele><time>2026-03-29T07:09:16Z</time></trkpt><trkpt lat="45.55112446122465" lon="10.482233686149401"><ele>270.1666666666667</ele><time>2026-03-29T07:09:17Z</time></trkpt><trkpt lat="45.55106859136468" lon="10.482157566781305"><ele>270.0</ele><time>2026-03-29T07:09:18Z</time></trkpt><trkpt lat="45.551012927345575" lon="10.482085979395062"><ele>270.0</ele><time>2026-03-29T07:09:19Z</time></trkpt><trkpt lat="45.55094583011605" lon="10.48202115633099"><ele>270.0</ele><time>2026-03-29T07:09:20Z</time></trkpt><trkpt lat="45.55085723088813" lon="10.481902942604224"><ele>270.0</ele><time>2026-03-29T07:09:21Z</time></trkpt><trkpt lat="45.55075478600335" lon="10.48181718335811"><ele>270.0</ele><time>2026-03-29T07:09:22Z</time></trkpt><trkpt lat="45.550655174538555" lon="10.48171068855059"><ele>270.0</ele><time>2026-03-29T07:09:23Z</time></trkpt><trkpt lat="45.55056141052179" lon="10.481591366412532"><ele>270.0</ele><time>2026-03-29T07:09:24Z</time></trkpt><trkpt lat="45.55046264953492" lon="10.481493870817197"><ele>270.0</ele><time>2026-03-29T07:09:25Z</time></trkpt><trkpt lat="45.55037041347929" lon="10.481403202152649"><ele>270.0</ele><time>2026-03-29T07:09:26Z</time></trkpt><trkpt lat="45.55026946951051" lon="10.48130397367459"><ele>270.0</ele><time>2026-03-29T07:09:27Z</time></trkpt><trkpt lat="45.55016112743851" lon="10.481220468207082"><ele>270.0</ele><time>2026-03-29T07:09:28Z</time></trkpt><trkpt lat="45.550067985095325" lon="10.481110823696675"><ele>270.0</ele><time>2026-03-29T07:09:29Z</time></trkpt><trkpt lat="45.54996358236421" lon="10.481050509795983"><ele>270.0</ele><time>2026-03-29T07:09:30Z</time></trkpt><trkpt lat="45.549871174187345" lon="10.480988220843871"><ele>270.0</ele><time>2026-03-29T07:09:31Z</time></trkpt><trkpt lat="45.549771168888384" lon="10.480930563575138"><ele>270.0</ele><time>2026-03-29T07:09:32Z</time></trkpt><trkpt lat="45.54965668109231" lon="10.4808871980439"><ele>269.5</ele><time>2026-03-29T07:09:33Z</time></trkpt><trkpt lat="45.54952338804356" lon="10.480811912085482"><ele>269.0</ele><time>2026-03-29T07:09:34Z</time></trkpt><trkpt lat="45.54940308873263" lon="10.48077452207436"><ele>268.5</ele><time>2026-03-29T07:09:35Z</time></trkpt><trkpt lat="45.54928514848342" lon="10.480718601825572"><ele>268.0</ele><time>2026-03-29T07:09:36Z</time></trkpt><trkpt lat="45.54915802787255" lon="10.480672681273822"><ele>268.0</ele><time>2026-03-29T07:09:37Z</time></trkpt><trkpt lat="45.549053790337794" lon="10.480619798247659"><ele>268.0</ele><time>2026-03-29T07:09:38Z</time></trkpt><trkpt lat="45.54895942442587" lon="10.480583779036028"><ele>268.0</ele><time>2026-03-29T07:09:39Z</time></trkpt><trkpt lat="45.54889850761757" lon="10.48054029408605"><ele>268.0</ele><time>2026-03-29T07:09:40Z</time></trkpt><trkpt lat="45.548839006940675" lon="10.480508000106326"><ele>268.0</ele><time>2026-03-29T07:09:42Z</time></trkpt><trkpt lat="45.54891936891184" lon="10.480525240055057"><ele>268.0</ele><time>2026-03-29T07:09:58Z</time></trkpt><trkpt lat="45.54885622733838" lon="10.480458309353448"><ele>267.5</ele><time>2026-03-29T07:10:02Z</time></trkpt><trkpt lat="45.54887184291894" lon="10.480101855682355"><ele>267.0</ele><time>2026-03-29T07:10:03Z</time></trkpt><trkpt lat="45.54881099639733" lon="10.480002596768749"><ele>266.5</ele><time>2026-03-29T07:10:04Z</time></trkpt><trkpt lat="45.548739282941675" lon="10.479895649271937"><ele>266.0</ele><time>2026-03-29T07:10:05Z</time></trkpt><trkpt lat="45.54866225619359" lon="10.479774888382803"><ele>266.0</ele><time>2026-03-29T07:10:06Z</time></trkpt><trkpt lat="45.548614456099074" lon="10.479665860017487"><ele>266.0</ele><time>2026-03-29T07:10:07Z</time></trkpt><trkpt lat="45.54857959099823" lon="10.47955175680019"><ele>266.0</ele><time>2026-03-29T07:10:08Z</time></trkpt><trkpt lat="45.54854447403201" lon="10.479416423724658"><ele>266.0</ele><time>2026-03-29T07:10:09Z</time></trkpt><trkpt lat="45.548495916037815" lon="10.479270004145556"><ele>266.0</ele><time>2026-03-29T07:10:10Z</time></trkpt><trkpt lat="45.548455093661765" lon="10.47913605386524"><ele>266.2</ele><time>2026-03-29T07:10:11Z</time></trkpt><trkpt lat="45.548427653594835" lon="10.479013558462608"><ele>266.40000000000003</ele><time>2026-03-29T07:10:12Z</time></trkpt><trkpt lat="45.54839616111226" lon="10.478878057943652"><ele>266.6</ele><time>2026-03-29T07:10:13Z</time></trkpt><trkpt lat="45.54834972894745" lon="10.47873575040492"><ele>266.8</ele><time>2026-03-29T07:10:14Z</time></trkpt><trkpt lat="45.548301147950426" lon="10.47859010866652"><ele>267.0</ele><time>2026-03-29T07:10:15Z</time></trkpt><trkpt lat="45.54824734269058" lon="10.47845603555145"><ele>267.25</ele><time>2026-03-29T07:10:16Z</time></trkpt><trkpt lat="45.54818776950537" lon="10.478331344242838"><ele>267.5</ele><time>2026-03-29T07:10:17Z</time></trkpt><trkpt lat="45.54811505847167" lon="10.478196159475788"><ele>267.75</ele><time>2026-03-29T07:10:18Z</time></trkpt><trkpt lat="45.54804898962581" lon="10.478049227959511"><ele>268.0</ele><time>2026-03-29T07:10:19Z</time></trkpt><trkpt lat="45.547978949623946" lon="10.477897808660753"><ele>268.75</ele><time>2026-03-29T07:10:20Z</time></trkpt><trkpt lat="45.547907411900916" lon="10.477743301848271"><ele>269.5</ele><time>2026-03-29T07:10:21Z</time></trkpt><trkpt lat="45.547841740058004" lon="10.477567952497798"><ele>270.25</ele><time>2026-03-29T07:10:22Z</time></trkpt><trkpt lat="45.54778216570329" lon="10.47739916512373"><ele>271.0</ele><time>2026-03-29T07:10:23Z</time></trkpt><trkpt lat="45.54772619695581" lon="10.477235280432179"><ele>273.0</ele><time>2026-03-29T07:10:24Z</time></trkpt><trkpt lat="45.547665662718885" lon="10.477074079129824"><ele>275.0</ele><time>2026-03-29T07:10:25Z</time></trkpt><trkpt lat="45.54761672144511" lon="10.47693353784791"><ele>277.0</ele><time>2026-03-29T07:10:26Z</time></trkpt><trkpt lat="45.54756603511064" lon="10.476815027688168"><ele>279.0</ele><time>2026-03-29T07:10:27Z</time></trkpt><trkpt lat="45.54751184836931" lon="10.476704563536266"><ele>281.0</ele><time>2026-03-29T07:10:28Z</time></trkpt><trkpt lat="45.547467257330744" lon="10.476600845950253"><ele>281.0</ele><time>2026-03-29T07:10:29Z</time></trkpt><trkpt lat="45.54735578386897" lon="10.47647500372332"><ele>281.0</ele><time>2026-03-29T07:10:31Z</time></trkpt><trkpt lat="45.54724654208527" lon="10.47637463984263"><ele>281.0</ele><time>2026-03-29T07:10:33Z</time></trkpt><trkpt lat="45.54716876508707" lon="10.476278597913357"><ele>281.0</ele><time>2026-03-29T07:10:34Z</time></trkpt><trkpt lat="45.5470856402624" lon="10.476147312393206"><ele>279.8</ele><time>2026-03-29T07:10:35Z</time></trkpt><trkpt lat="45.54700741559745" lon="10.475995279844655"><ele>278.6</ele><time>2026-03-29T07:10:36Z</time></trkpt><trkpt lat="45.54692502345235" lon="10.47590292904669"><ele>277.4</ele><time>2026-03-29T07:10:37Z</time></trkpt><trkpt lat="45.54684441799492" lon="10.475788061461163"><ele>276.2</ele><time>2026-03-29T07:10:38Z</time></trkpt><trkpt lat="45.54675448141969" lon="10.47575520407223"><ele>275.0</ele><time>2026-03-29T07:10:39Z</time></trkpt><trkpt lat="45.546685377489524" lon="10.475529132473444"><ele>275.0</ele><time>2026-03-29T07:10:40Z</time></trkpt><trkpt lat="45.54664172321158" lon="10.47546128647365"><ele>275.0</ele><time>2026-03-29T07:10:41Z</time></trkpt><trkpt lat="45.5465919840403" lon="10.475360378213265"><ele>275.0</ele><time>2026-03-29T07:10:42Z</time></trkpt><trkpt lat="45.54653431623663" lon="10.475247561329484"><ele>275.0</ele><time>2026-03-29T07:10:43Z</time></trkpt><trkpt lat="45.546453183797844" lon="10.47515536085081"><ele>275.0</ele><time>2026-03-29T07:10:44Z</time></trkpt><trkpt lat="45.54636846001045" lon="10.475049920358542"><ele>273.8</ele><time>2026-03-29T07:10:45Z</time></trkpt><trkpt lat="45.546297817398866" lon="10.474949005804513"><ele>272.6</ele><time>2026-03-29T07:10:46Z</time></trkpt><trkpt lat="45.54624294847122" lon="10.474856131924462"><ele>271.4</ele><time>2026-03-29T07:10:47Z</time></trkpt><trkpt lat="45.54620482937441" lon="10.474773932596563"><ele>270.2</ele><time>2026-03-29T07:10:48Z</time></trkpt><trkpt lat="45.54616012792044" lon="10.474702277933968"><ele>269.0</ele><time>2026-03-29T07:10:49Z</time></trkpt><trkpt lat="45.54615408672267" lon="10.47451567800662"><ele>269.0</ele><time>2026-03-29T07:10:51Z</time></trkpt><trkpt lat="45.54619492166354" lon="10.47439908238373"><ele>269.0</ele><time>2026-03-29T07:10:52Z</time></trkpt><trkpt lat="45.546241331236395" lon="10.474260373078048"><ele>269.0</ele><time>2026-03-29T07:10:53Z</time></trkpt><trkpt lat="45.54629345064814" lon="10.474097172273376"><ele>269.0</ele><time>2026-03-29T07:10:54Z</time></trkpt><trkpt lat="45.546364556137796" lon="10.473921814456721"><ele>271.0</ele><time>2026-03-29T07:10:55Z</time></trkpt><trkpt lat="45.54645207811455" lon="10.473730683006334"><ele>273.0</ele><time>2026-03-29T07:10:56Z</time></trkpt><trkpt lat="45.54653946412104" lon="10.473544315032399"><ele>275.0</ele><time>2026-03-29T07:10:57Z</time></trkpt><trkpt lat="45.546616686826276" lon="10.473380731788932"><ele>275.0</ele><time>2026-03-29T07:10:58Z</time></trkpt><trkpt lat="45.546671698229375" lon="10.473241803160956"><ele>275.0</ele><time>2026-03-29T07:10:59Z</time></trkpt><trkpt lat="45.546727591531926" lon="10.473109939709849"><ele>275.0</ele><time>2026-03-29T07:11:00Z</time></trkpt><trkpt lat="45.54678199143199" lon="10.472988240887338"><ele>275.0</ele><time>2026-03-29T07:11:01Z</time></trkpt><trkpt lat="45.54683793443707" lon="10.472876193203755"><ele>275.0</ele><time>2026-03-29T07:11:02Z</time></trkpt><trkpt lat="45.546877470889775" lon="10.47276762176594"><ele>274.33333333333337</ele><time>2026-03-29T07:11:03Z</time></trkpt><trkpt lat="45.5469248860981" lon="10.472678319325786"><ele>273.6666666666667</ele><time>2026-03-29T07:11:04Z</time></trkpt><trkpt lat="45.546975558324725" lon="10.47259411115321"><ele>273.0</ele><time>2026-03-29T07:11:05Z</time></trkpt><trkpt lat="45.54704306238915" lon="10.472519241696089"><ele>272.3333333333333</ele><time>2026-03-29T07:11:06Z</time></trkpt><trkpt lat="45.54711772767727" lon="10.472462090426673"><ele>271.66666666666663</ele><time>2026-03-29T07:11:07Z</time></trkpt><trkpt lat="45.547182835715844" lon="10.472398595524574"><ele>271.0</ele><time>2026-03-29T07:11:08Z</time></trkpt><trkpt lat="45.54726115851562" lon="10.472398105771617"><ele>271.0</ele><time>2026-03-29T07:11:09Z</time></trkpt><trkpt lat="45.54738033828542" lon="10.472513216199005"><ele>271.0</ele><time>2026-03-29T07:11:11Z</time></trkpt><trkpt lat="45.54746838569573" lon="10.472555148821062"><ele>271.0</ele><time>2026-03-29T07:11:12Z</time></trkpt><trkpt lat="45.547576602610214" lon="10.472629303013148"><ele>271.0</ele><time>2026-03-29T07:11:13Z</time></trkpt><trkpt lat="45.54769383840772" lon="10.472709693539807"><ele>271.0</ele><time>2026-03-29T07:11:14Z</time></trkpt><trkpt lat="45.54782216384547" lon="10.4728010649038"><ele>271.0</ele><time>2026-03-29T07:11:15Z</time></trkpt><trkpt lat="45.547944132746" lon="10.47287447448432"><ele>271.0</ele><time>2026-03-29T07:11:16Z</time></trkpt><trkpt lat="45.54806071151887" lon="10.472954525857123"><ele>271.0</ele><time>2026-03-29T07:11:17Z</time></trkpt><trkpt lat="45.54816043027667" lon="10.473020823892794"><ele>273.75</ele><time>2026-03-29T07:11:18Z</time></trkpt><trkpt lat="45.54826031792726" lon="10.473089116320894"><ele>276.5</ele><time>2026-03-29T07:11:19Z</time></trkpt><trkpt lat="45.54836019805207" lon="10.473158301335536"><ele>279.25</ele><time>2026-03-29T07:11:20Z</time></trkpt><trkpt lat="45.54846030589932" lon="10.473235936853827"><ele>282.0</ele><time>2026-03-29T07:11:21Z</time></trkpt><trkpt lat="45.54856575799145" lon="10.473319723003275"><ele>282.0</ele><time>2026-03-29T07:11:22Z</time></trkpt><trkpt lat="45.54867352750148" lon="10.473416243161966"><ele>282.0</ele><time>2026-03-29T07:11:23Z</time></trkpt><trkpt lat="45.54877053958613" lon="10.47350514493655"><ele>282.0</ele><time>2026-03-29T07:11:24Z</time></trkpt><trkpt lat="45.548863631456356" lon="10.473589382264334"><ele>282.0</ele><time>2026-03-29T07:11:25Z</time></trkpt><trkpt lat="45.54896382719379" lon="10.47368441386718"><ele>284.0</ele><time>2026-03-29T07:11:26Z</time></trkpt><trkpt lat="45.54908042098193" lon="10.473776066037864"><ele>286.0</ele><time>2026-03-29T07:11:27Z</time></trkpt><trkpt lat="45.549208273079884" lon="10.473874274851498"><ele>288.0</ele><time>2026-03-29T07:11:28Z</time></trkpt><trkpt lat="45.54933430878892" lon="10.47398830781688"><ele>290.0</ele><time>2026-03-29T07:11:29Z</time></trkpt><trkpt lat="45.54944603466962" lon="10.474117144602625"><ele>288.6666666666667</ele><time>2026-03-29T07:11:30Z</time></trkpt><trkpt lat="45.549557541415574" lon="10.474300930905105"><ele>287.3333333333333</ele><time>2026-03-29T07:11:31Z</time></trkpt><trkpt lat="45.54969732387221" lon="10.474447877664415"><ele>286.0</ele><time>2026-03-29T07:11:32Z</time></trkpt><trkpt lat="45.54984389219283" lon="10.474598869060944"><ele>289.3333333333333</ele><time>2026-03-29T07:11:33Z</time></trkpt><trkpt lat="45.55001046668115" lon="10.47474801797541"><ele>292.6666666666667</ele><time>2026-03-29T07:11:34Z</time></trkpt><trkpt lat="45.550176480416646" lon="10.474884033762168"><ele>296.0</ele><time>2026-03-29T07:11:35Z</time></trkpt><trkpt lat="45.55031638027303" lon="10.475013260690828"><ele>296.6666666666667</ele><time>2026-03-29T07:11:36Z</time></trkpt><trkpt lat="45.55043766332747" lon="10.475145762274199"><ele>297.3333333333333</ele><time>2026-03-29T07:11:37Z</time></trkpt><trkpt lat="45.550544542813185" lon="10.475294413361263"><ele>298.0</ele><time>2026-03-29T07:11:38Z</time></trkpt><trkpt lat="45.550660723324256" lon="10.4754527713403"><ele>298.0</ele><time>2026-03-29T07:11:39Z</time></trkpt><trkpt lat="45.55078328716071" lon="10.475608705278391"><ele>298.0</ele><time>2026-03-29T07:11:40Z</time></trkpt><trkpt lat="45.55091788528937" lon="10.475773609836168"><ele>298.0</ele><time>2026-03-29T07:11:41Z</time></trkpt><trkpt lat="45.55106098916036" lon="10.475917188820874"><ele>299.0</ele><time>2026-03-29T07:11:42Z</time></trkpt><trkpt lat="45.551221751482096" lon="10.47605157986483"><ele>300.0</ele><time>2026-03-29T07:11:43Z</time></trkpt><trkpt lat="45.551396984882686" lon="10.476176343132078"><ele>301.0</ele><time>2026-03-29T07:11:44Z</time></trkpt><trkpt lat="45.55157713581874" lon="10.47628579273548"><ele>301.0</ele><time>2026-03-29T07:11:45Z</time></trkpt><trkpt lat="45.55175935126054" lon="10.476400043951797"><ele>301.0</ele><time>2026-03-29T07:11:46Z</time></trkpt><trkpt lat="45.55192448063046" lon="10.476512081632867"><ele>301.0</ele><time>2026-03-29T07:11:47Z</time></trkpt><trkpt lat="45.552078544406896" lon="10.47663144705248"><ele>300.66666666666663</ele><time>2026-03-29T07:11:48Z</time></trkpt><trkpt lat="45.55221234692462" lon="10.476755767556964"><ele>300.3333333333333</ele><time>2026-03-29T07:11:49Z</time></trkpt><trkpt lat="45.5523378547831" lon="10.476882338992764"><ele>300.0</ele><time>2026-03-29T07:11:50Z</time></trkpt><trkpt lat="45.55246505472986" lon="10.47702778413197"><ele>301.6666666666667</ele><time>2026-03-29T07:11:51Z</time></trkpt><trkpt lat="45.5525966895621" lon="10.477178216544958"><ele>303.33333333333337</ele><time>2026-03-29T07:11:52Z</time></trkpt><trkpt lat="45.55273631830288" lon="10.47733057026348"><ele>305.0</ele><time>2026-03-29T07:11:53Z</time></trkpt><trkpt lat="45.55288252526916" lon="10.477483599186117"><ele>305.0</ele><time>2026-03-29T07:11:54Z</time></trkpt><trkpt lat="45.55303471396077" lon="10.47764211801406"><ele>305.0</ele><time>2026-03-29T07:11:55Z</time></trkpt><trkpt lat="45.55316937031171" lon="10.477797785069825"><ele>305.0</ele><time>2026-03-29T07:11:56Z</time></trkpt><trkpt lat="45.55329989463026" lon="10.477962186469808"><ele>308.0</ele><time>2026-03-29T07:11:57Z</time></trkpt><trkpt lat="45.55341098128428" lon="10.478168459459939"><ele>311.0</ele><time>2026-03-29T07:11:58Z</time></trkpt><trkpt lat="45.553517031470925" lon="10.478343689826236"><ele>314.0</ele><time>2026-03-29T07:11:59Z</time></trkpt><trkpt lat="45.553588815649746" lon="10.47851297755962"><ele>314.0</ele><time>2026-03-29T07:12:00Z</time></trkpt><trkpt lat="45.55368130011821" lon="10.478657261961219"><ele>314.0</ele><time>2026-03-29T07:12:01Z</time></trkpt><trkpt lat="45.55375652905869" lon="10.478808658414778"><ele>314.0</ele><time>2026-03-29T07:12:02Z</time></trkpt><trkpt lat="45.553818331993746" lon="10.478985130142648"><ele>314.0</ele><time>2026-03-29T07:12:03Z</time></trkpt><trkpt lat="45.553865112928385" lon="10.479161540387167"><ele>313.75</ele><time>2026-03-29T07:12:04Z</time></trkpt><trkpt lat="45.55389662005468" lon="10.479326829917667"><ele>313.5</ele><time>2026-03-29T07:12:05Z</time></trkpt><trkpt lat="45.553908644181654" lon="10.47951038957976"><ele>313.25</ele><time>2026-03-29T07:12:06Z</time></trkpt><trkpt lat="45.553916352097744" lon="10.479720107324166"><ele>313.0</ele><time>2026-03-29T07:12:07Z</time></trkpt><trkpt lat="45.553943004980894" lon="10.479935602301405"><ele>314.3333333333333</ele><time>2026-03-29T07:12:08Z</time></trkpt><trkpt lat="45.5539986982275" lon="10.480149280839283"><ele>315.6666666666667</ele><time>2026-03-29T07:12:09Z</time></trkpt><trkpt lat="45.5540848009187" lon="10.480373972190812"><ele>317.0</ele><time>2026-03-29T07:12:10Z</time></trkpt><trkpt lat="45.55414671693593" lon="10.480581142979782"><ele>317.8</ele><time>2026-03-29T07:12:11Z</time></trkpt><trkpt lat="45.55419252733798" lon="10.480730497109622"><ele>318.6</ele><time>2026-03-29T07:12:12Z</time></trkpt><trkpt lat="45.55422005610601" lon="10.480859723248981"><ele>319.40000000000003</ele><time>2026-03-29T07:12:13Z</time></trkpt><trkpt lat="45.55424922301979" lon="10.48097318964702"><ele>320.2</ele><time>2026-03-29T07:12:14Z</time></trkpt><trkpt lat="45.5542598294039" lon="10.481070931814306"><ele>321.0</ele><time>2026-03-29T07:12:15Z</time></trkpt><trkpt lat="45.554250835577236" lon="10.48121797817646"><ele>320.8</ele><time>2026-03-29T07:12:17Z</time></trkpt><trkpt lat="45.55436291295556" lon="10.4813584259857"><ele>320.6</ele><time>2026-03-29T07:12:19Z</time></trkpt><trkpt lat="45.554432078341" lon="10.481420224977114"><ele>320.4</ele><time>2026-03-29T07:12:20Z</time></trkpt><trkpt lat="45.554489882710975" lon="10.481468938453729"><ele>320.2</ele><time>2026-03-29T07:12:21Z</time></trkpt><trkpt lat="45.55458319390342" lon="10.481546907042976"><ele>320.0</ele><time>2026-03-29T07:12:22Z</time></trkpt><trkpt lat="45.55468027201246" lon="10.481636095634059"><ele>320.0</ele><time>2026-03-29T07:12:23Z</time></trkpt><trkpt lat="45.55476339294275" lon="10.481716130749154"><ele>320.0</ele><time>2026-03-29T07:12:24Z</time></trkpt><trkpt lat="45.55485309675318" lon="10.481782215826119"><ele>320.0</ele><time>2026-03-29T07:12:25Z</time></trkpt><trkpt lat="45.554935420767606" lon="10.48186337133482"><ele>320.0</ele><time>2026-03-29T07:12:26Z</time></trkpt><trkpt lat="45.5550107995243" lon="10.48194290283015"><ele>320.0</ele><time>2026-03-29T07:12:27Z</time></trkpt><trkpt lat="45.555077901576105" lon="10.482047286517982"><ele>321.0</ele><time>2026-03-29T07:12:28Z</time></trkpt><trkpt lat="45.55515246594179" lon="10.48211674208899"><ele>322.0</ele><time>2026-03-29T07:12:29Z</time></trkpt><trkpt lat="45.555234918787214" lon="10.482221940676757"><ele>323.0</ele><time>2026-03-29T07:12:30Z</time></trkpt><trkpt lat="45.55532237197239" lon="10.482310985994133"><ele>324.0</ele><time>2026-03-29T07:12:31Z</time></trkpt><trkpt lat="45.55542382218215" lon="10.48239490867605"><ele>325.0</ele><time>2026-03-29T07:12:32Z</time></trkpt><trkpt lat="45.55552806803086" lon="10.482464590246762"><ele>325.0</ele><time>2026-03-29T07:12:33Z</time></trkpt><trkpt lat="45.555635164345446" lon="10.482516620876414"><ele>325.0</ele><time>2026-03-29T07:12:34Z</time></trkpt><trkpt lat="45.55573490872711" lon="10.482579408508341"><ele>325.0</ele><time>2026-03-29T07:12:35Z</time></trkpt><trkpt lat="45.555829342881495" lon="10.482640829706353"><ele>325.0</ele><time>2026-03-29T07:12:36Z</time></trkpt><trkpt lat="45.5559323326167" lon="10.482691494544332"><ele>325.0</ele><time>2026-03-29T07:12:37Z</time></trkpt><trkpt lat="45.55603227342952" lon="10.482714146125733"><ele>325.0</ele><time>2026-03-29T07:12:38Z</time></trkpt><trkpt lat="45.556115285315464" lon="10.482776244268477"><ele>325.0</ele><time>2026-03-29T07:12:39Z</time></trkpt><trkpt lat="45.556216425286074" lon="10.482836844410597"><ele>325.0</ele><time>2026-03-29T07:12:40Z</time></trkpt><trkpt lat="45.55632430228554" lon="10.482882045069378"><ele>325.0</ele><time>2026-03-29T07:12:41Z</time></trkpt><trkpt lat="45.556426133904246" lon="10.482932941057875"><ele>325.0</ele><time>2026-03-29T07:12:42Z</time></trkpt><trkpt lat="45.55651945935178" lon="10.482983662572739"><ele>326.4</ele><time>2026-03-29T07:12:43Z</time></trkpt><trkpt lat="45.55661365336268" lon="10.483039231989075"><ele>327.8</ele><time>2026-03-29T07:12:44Z</time></trkpt><trkpt lat="45.55670750290004" lon="10.483068962560775"><ele>329.20000000000005</ele><time>2026-03-29T07:12:45Z</time></trkpt><trkpt lat="45.5568113121004" lon="10.483085987686763"><ele>330.6</ele><time>2026-03-29T07:12:46Z</time></trkpt><trkpt lat="45.55690961404441" lon="10.483097865095733"><ele>332.0</ele><time>2026-03-29T07:12:47Z</time></trkpt><trkpt lat="45.55699456009709" lon="10.48310598178712"><ele>332.0</ele><time>2026-03-29T07:12:48Z</time></trkpt><trkpt lat="45.55709568311183" lon="10.48312320555878"><ele>332.0</ele><time>2026-03-29T07:12:49Z</time></trkpt><trkpt lat="45.5571889156225" lon="10.483142149722493"><ele>332.0</ele><time>2026-03-29T07:12:50Z</time></trkpt><trkpt lat="45.557285680844764" lon="10.483156082825158"><ele>332.0</ele><time>2026-03-29T07:12:51Z</time></trkpt><trkpt lat="45.55738552011446" lon="10.48316413587838"><ele>332.0</ele><time>2026-03-29T07:12:52Z</time></trkpt><trkpt lat="45.557489628710385" lon="10.483169585098048"><ele>332.0</ele><time>2026-03-29T07:12:53Z</time></trkpt><trkpt lat="45.557610584977105" lon="10.483183774108769"><ele>332.0</ele><time>2026-03-29T07:12:54Z</time></trkpt><trkpt lat="45.55772636524938" lon="10.483200888406452"><ele>332.0</ele><time>2026-03-29T07:12:55Z</time></trkpt><trkpt lat="45.55786532900725" lon="10.483211307331764"><ele>332.0</ele><time>2026-03-29T07:12:56Z</time></trkpt><trkpt lat="45.55799908060856" lon="10.48322926100577"><ele>331.5</ele><time>2026-03-29T07:12:57Z</time></trkpt><trkpt lat="45.55812973667734" lon="10.483248643139758"><ele>331.0</ele><time>2026-03-29T07:12:58Z</time></trkpt><trkpt lat="45.55826101470335" lon="10.483270627654559"><ele>330.5</ele><time>2026-03-29T07:12:59Z</time></trkpt><trkpt lat="45.55838550398877" lon="10.483289737719245"><ele>330.0</ele><time>2026-03-29T07:13:00Z</time></trkpt><trkpt lat="45.558514609821856" lon="10.483309289794745"><ele>330.0</ele><time>2026-03-29T07:13:01Z</time></trkpt><trkpt lat="45.55863506919552" lon="10.483328223437377"><ele>330.0</ele><time>2026-03-29T07:13:02Z</time></trkpt><trkpt lat="45.55875943768947" lon="10.483345978240628"><ele>330.0</ele><time>2026-03-29T07:13:03Z</time></trkpt><trkpt lat="45.558883917263366" lon="10.483370724884907"><ele>330.0</ele><time>2026-03-29T07:13:04Z</time></trkpt><trkpt lat="45.55901798074615" lon="10.483398886591054"><ele>329.75</ele><time>2026-03-29T07:13:05Z</time></trkpt><trkpt lat="45.559151030758954" lon="10.483427760600419"><ele>329.5</ele><time>2026-03-29T07:13:06Z</time></trkpt><trkpt lat="45.5592898865872" lon="10.483453339341917"><ele>329.25</ele><time>2026-03-29T07:13:07Z</time></trkpt><trkpt lat="45.55943119566929" lon="10.483475199725289"><ele>329.0</ele><time>2026-03-29T07:13:08Z</time></trkpt><trkpt lat="45.559556820312814" lon="10.483491884924742"><ele>328.25</ele><time>2026-03-29T07:13:09Z</time></trkpt><trkpt lat="45.55967450061876" lon="10.48351410003765"><ele>327.5</ele><time>2026-03-29T07:13:10Z</time></trkpt><trkpt lat="45.559800303949466" lon="10.48353404798151"><ele>326.75</ele><time>2026-03-29T07:13:11Z</time></trkpt><trkpt lat="45.55992371471326" lon="10.483536058093703"><ele>326.0</ele><time>2026-03-29T07:13:12Z</time></trkpt><trkpt lat="45.560064218676466" lon="10.483526297293178"><ele>326.0</ele><time>2026-03-29T07:13:13Z</time></trkpt><trkpt lat="45.56019518046893" lon="10.483508542331448"><ele>326.0</ele><time>2026-03-29T07:13:14Z</time></trkpt><trkpt lat="45.56032408561755" lon="10.4834658952254"><ele>326.0</ele><time>2026-03-29T07:13:15Z</time></trkpt><trkpt lat="45.56045869255388" lon="10.483414637200909"><ele>326.0</ele><time>2026-03-29T07:13:16Z</time></trkpt><trkpt lat="45.560593786089335" lon="10.483346351479698"><ele>325.5</ele><time>2026-03-29T07:13:17Z</time></trkpt><trkpt lat="45.560728318872144" lon="10.483255579620005"><ele>325.0</ele><time>2026-03-29T07:13:18Z</time></trkpt><trkpt lat="45.56085046616115" lon="10.483168656738762"><ele>324.5</ele><time>2026-03-29T07:13:19Z</time></trkpt><trkpt lat="45.56097435481204" lon="10.483127613955673"><ele>324.0</ele><time>2026-03-29T07:13:20Z</time></trkpt><trkpt lat="45.56105871972624" lon="10.483086840542468"><ele>324.0</ele><time>2026-03-29T07:13:21Z</time></trkpt><trkpt lat="45.56112119185889" lon="10.483056647812885"><ele>324.0</ele><time>2026-03-29T07:13:22Z</time></trkpt><trkpt lat="45.56119779372522" lon="10.483000791688832"><ele>324.0</ele><time>2026-03-29T07:13:23Z</time></trkpt><trkpt lat="45.561287129868255" lon="10.48295941091907"><ele>324.0</ele><time>2026-03-29T07:13:25Z</time></trkpt><trkpt lat="45.561355927230686" lon="10.482917338710827"><ele>324.0</ele><time>2026-03-29T07:13:28Z</time></trkpt><trkpt lat="45.561298162312795" lon="10.482705574402717"><ele>324.0</ele><time>2026-03-29T07:13:34Z</time></trkpt><trkpt lat="45.56123962867498" lon="10.482551719637831"><ele>324.0</ele><time>2026-03-29T07:13:36Z</time></trkpt><trkpt lat="45.56119923972429" lon="10.48244163796455"><ele>324.0</ele><time>2026-03-29T07:13:37Z</time></trkpt><trkpt lat="45.561152887438055" lon="10.482310655998974"><ele>324.0</ele><time>2026-03-29T07:13:38Z</time></trkpt><trkpt lat="45.561097746539076" lon="10.482152593949671"><ele>324.0</ele><time>2026-03-29T07:13:39Z</time></trkpt><trkpt lat="45.561035815666486" lon="10.481979223880789"><ele>323.6666666666667</ele><time>2026-03-29T07:13:40Z</time></trkpt><trkpt lat="45.560960593510046" lon="10.481792761000925"><ele>323.33333333333337</ele><time>2026-03-29T07:13:41Z</time></trkpt><trkpt lat="45.56087012691695" lon="10.481594327233195"><ele>323.0</ele><time>2026-03-29T07:13:42Z</time></trkpt><trkpt lat="45.56075864836139" lon="10.481456009433245"><ele>323.0</ele><time>2026-03-29T07:13:43Z</time></trkpt><trkpt lat="45.56067442748003" lon="10.481304178928871"><ele>323.0</ele><time>2026-03-29T07:13:44Z</time></trkpt><trkpt lat="45.56052489563324" lon="10.481184897733058"><ele>323.0</ele><time>2026-03-29T07:13:45Z</time></trkpt><trkpt lat="45.560353819576825" lon="10.481102497534405"><ele>327.6666666666667</ele><time>2026-03-29T07:13:46Z</time></trkpt><trkpt lat="45.560178446323455" lon="10.481027846251937"><ele>332.3333333333333</ele><time>2026-03-29T07:13:47Z</time></trkpt><trkpt lat="45.56002523694096" lon="10.480966139872848"><ele>337.0</ele><time>2026-03-29T07:13:48Z</time></trkpt><trkpt lat="45.55990525015012" lon="10.48090818166582"><ele>337.0</ele><time>2026-03-29T07:13:49Z</time></trkpt><trkpt lat="45.559808520345705" lon="10.480838211146816"><ele>337.0</ele><time>2026-03-29T07:13:50Z</time></trkpt><trkpt lat="45.559754295042474" lon="10.480702472195633"><ele>337.0</ele><time>2026-03-29T07:13:51Z</time></trkpt><trkpt lat="45.559722256005" lon="10.48057120546081"><ele>337.0</ele><time>2026-03-29T07:13:52Z</time></trkpt><trkpt lat="45.55972113613511" lon="10.480419993045784"><ele>337.0</ele><time>2026-03-29T07:13:53Z</time></trkpt><trkpt lat="45.559708119272884" lon="10.480227762270873"><ele>338.25</ele><time>2026-03-29T07:13:54Z</time></trkpt><trkpt lat="45.559695805702255" lon="10.480043145273804"><ele>339.5</ele><time>2026-03-29T07:13:55Z</time></trkpt><trkpt lat="45.55968612007724" lon="10.47989592358657"><ele>340.75</ele><time>2026-03-29T07:13:56Z</time></trkpt><trkpt lat="45.55968126615653" lon="10.479752042304108"><ele>342.0</ele><time>2026-03-29T07:13:57Z</time></trkpt><trkpt lat="45.559681465807806" lon="10.479579033001135"><ele>342.0</ele><time>2026-03-29T07:13:58Z</time></trkpt><trkpt lat="45.55969948984203" lon="10.479413854379676"><ele>342.0</ele><time>2026-03-29T07:13:59Z</time></trkpt><trkpt lat="45.55975066914931" lon="10.479253152667761"><ele>342.0</ele><time>2026-03-29T07:14:00Z</time></trkpt><trkpt lat="45.55980921408825" lon="10.479057594788108"><ele>342.0</ele><time>2026-03-29T07:14:01Z</time></trkpt><trkpt lat="45.55987278986821" lon="10.478844980541835"><ele>341.0</ele><time>2026-03-29T07:14:02Z</time></trkpt><trkpt lat="45.559934129476815" lon="10.478630773366277"><ele>340.0</ele><time>2026-03-29T07:14:03Z</time></trkpt><trkpt lat="45.559981664217055" lon="10.478436966451453"><ele>339.0</ele><time>2026-03-29T07:14:04Z</time></trkpt><trkpt lat="45.56001330340637" lon="10.47824569907911"><ele>338.0</ele><time>2026-03-29T07:14:05Z</time></trkpt><trkpt lat="45.56001085285563" lon="10.478034671701025"><ele>337.33333333333337</ele><time>2026-03-29T07:14:06Z</time></trkpt><trkpt lat="45.560010553079934" lon="10.477789183742678"><ele>336.6666666666667</ele><time>2026-03-29T07:14:07Z</time></trkpt><trkpt lat="45.560022474271044" lon="10.477536722029143"><ele>336.0</ele><time>2026-03-29T07:14:08Z</time></trkpt><trkpt lat="45.56001427557069" lon="10.47729968455258"><ele>334.25</ele><time>2026-03-29T07:14:09Z</time></trkpt><trkpt lat="45.560004314867214" lon="10.477099929606593"><ele>332.5</ele><time>2026-03-29T07:14:10Z</time></trkpt><trkpt lat="45.560000744411006" lon="10.47693389547817"><ele>330.75</ele><time>2026-03-29T07:14:11Z</time></trkpt><trkpt lat="45.56001141372884" lon="10.47678396532136"><ele>329.0</ele><time>2026-03-29T07:14:12Z</time></trkpt><trkpt lat="45.56005094141603" lon="10.476647762749817"><ele>329.0</ele><time>2026-03-29T07:14:13Z</time></trkpt><trkpt lat="45.56010724830797" lon="10.476490884698586"><ele>329.0</ele><time>2026-03-29T07:14:14Z</time></trkpt><trkpt lat="45.56018030622323" lon="10.476318989100543"><ele>329.0</ele><time>2026-03-29T07:14:15Z</time></trkpt><trkpt lat="45.56025161120239" lon="10.476167143864783"><ele>329.0</ele><time>2026-03-29T07:14:16Z</time></trkpt><trkpt lat="45.560313906268966" lon="10.4760442786499"><ele>327.2</ele><time>2026-03-29T07:14:17Z</time></trkpt><trkpt lat="45.56037645246712" lon="10.475925645085653"><ele>325.4</ele><time>2026-03-29T07:14:18Z</time></trkpt><trkpt lat="45.5604330860027" lon="10.475823840087815"><ele>323.6</ele><time>2026-03-29T07:14:19Z</time></trkpt><trkpt lat="45.56048149067121" lon="10.47573776401077"><ele>321.8</ele><time>2026-03-29T07:14:20Z</time></trkpt><trkpt lat="45.56053854920851" lon="10.475616339452085"><ele>320.0</ele><time>2026-03-29T07:14:22Z</time></trkpt><trkpt lat="45.560652916779894" lon="10.475759713456677"><ele>320.0</ele><time>2026-03-29T07:14:25Z</time></trkpt><trkpt lat="45.560715645524986" lon="10.475807228048255"><ele>320.0</ele><time>2026-03-29T07:14:26Z</time></trkpt><trkpt lat="45.56080764914273" lon="10.4758170053049"><ele>320.0</ele><time>2026-03-29T07:14:27Z</time></trkpt><trkpt lat="45.560900036908336" lon="10.47584334981503"><ele>320.0</ele><time>2026-03-29T07:14:28Z</time></trkpt><trkpt lat="45.560998142278784" lon="10.475869430647572"><ele>320.0</ele><time>2026-03-29T07:14:29Z</time></trkpt><trkpt lat="45.56110639548285" lon="10.475950174256587"><ele>319.5</ele><time>2026-03-29T07:14:30Z</time></trkpt><trkpt lat="45.56122232429984" lon="10.476029669900544"><ele>319.0</ele><time>2026-03-29T07:14:31Z</time></trkpt><trkpt lat="45.56133526320994" lon="10.47609952998529"><ele>318.5</ele><time>2026-03-29T07:14:32Z</time></trkpt><trkpt lat="45.5614517213477" lon="10.476156953577362"><ele>318.0</ele><time>2026-03-29T07:14:33Z</time></trkpt><trkpt lat="45.561544713203354" lon="10.476261574977796"><ele>322.75</ele><time>2026-03-29T07:14:34Z</time></trkpt><trkpt lat="45.561625066740945" lon="10.476360031510179"><ele>327.5</ele><time>2026-03-29T07:14:35Z</time></trkpt><trkpt lat="45.56170572085555" lon="10.476512645208969"><ele>332.25</ele><time>2026-03-29T07:14:36Z</time></trkpt><trkpt lat="45.561769908504495" lon="10.476647583471816"><ele>337.0</ele><time>2026-03-29T07:14:37Z</time></trkpt><trkpt lat="45.561858800553985" lon="10.476746131368456"><ele>337.0</ele><time>2026-03-29T07:14:38Z</time></trkpt><trkpt lat="45.56196135855987" lon="10.476822200677763"><ele>337.0</ele><time>2026-03-29T07:14:39Z</time></trkpt><trkpt lat="45.56206410641498" lon="10.476859135344805"><ele>337.0</ele><time>2026-03-29T07:14:40Z</time></trkpt><trkpt lat="45.5621566989152" lon="10.476931154124937"><ele>337.0</ele><time>2026-03-29T07:14:41Z</time></trkpt><trkpt lat="45.5622410143617" lon="10.476960205345732"><ele>337.0</ele><time>2026-03-29T07:14:42Z</time></trkpt><trkpt lat="45.562318612648646" lon="10.476964895465212"><ele>337.75</ele><time>2026-03-29T07:14:43Z</time></trkpt><trkpt lat="45.56242389633387" lon="10.476877274632507"><ele>338.5</ele><time>2026-03-29T07:14:44Z</time></trkpt><trkpt lat="45.5625228070917" lon="10.476774566733386"><ele>339.25</ele><time>2026-03-29T07:14:45Z</time></trkpt><trkpt lat="45.562630380219225" lon="10.476666077695969"><ele>340.0</ele><time>2026-03-29T07:14:46Z</time></trkpt><trkpt lat="45.562757263563384" lon="10.476554190688685"><ele>341.25</ele><time>2026-03-29T07:14:47Z</time></trkpt><trkpt lat="45.56288623002843" lon="10.476440467063178"><ele>342.5</ele><time>2026-03-29T07:14:48Z</time></trkpt><trkpt lat="45.563007158319046" lon="10.476344305948185"><ele>343.75</ele><time>2026-03-29T07:14:49Z</time></trkpt><trkpt lat="45.563129276799074" lon="10.476247252246788"><ele>345.0</ele><time>2026-03-29T07:14:50Z</time></trkpt><trkpt lat="45.56325508485436" lon="10.476147266090473"><ele>342.5</ele><time>2026-03-29T07:14:51Z</time></trkpt><trkpt lat="45.563376233493635" lon="10.476029447591658"><ele>340.0</ele><time>2026-03-29T07:14:52Z</time></trkpt><trkpt lat="45.56349986395654" lon="10.47592259057038"><ele>337.5</ele><time>2026-03-29T07:14:53Z</time></trkpt><trkpt lat="45.56361069231505" lon="10.475837389647758"><ele>335.0</ele><time>2026-03-29T07:14:54Z</time></trkpt><trkpt lat="45.5636866519317" lon="10.475770719815246"><ele>335.0</ele><time>2026-03-29T07:14:55Z</time></trkpt><trkpt lat="45.56374968266834" lon="10.475745904842947"><ele>335.0</ele><time>2026-03-29T07:14:56Z</time></trkpt><trkpt lat="45.56380405529276" lon="10.47567718503284"><ele>335.0</ele><time>2026-03-29T07:14:57Z</time></trkpt><trkpt lat="45.563862710701436" lon="10.47563060017987"><ele>335.0</ele><time>2026-03-29T07:14:58Z</time></trkpt><trkpt lat="45.56393426956991" lon="10.475519774160896"><ele>335.0</ele><time>2026-03-29T07:15:00Z</time></trkpt><trkpt lat="45.563995353744275" lon="10.475472892699543"><ele>335.0</ele><time>2026-03-29T07:15:02Z</time></trkpt><trkpt lat="45.56406136011333" lon="10.475524629813524"><ele>335.0</ele><time>2026-03-29T07:15:03Z</time></trkpt><trkpt lat="45.564129497216115" lon="10.475659365859421"><ele>335.0</ele><time>2026-03-29T07:15:05Z</time></trkpt><trkpt lat="45.56416381829046" lon="10.475743141188401"><ele>335.0</ele><time>2026-03-29T07:15:06Z</time></trkpt><trkpt lat="45.56422774741316" lon="10.47586620821303"><ele>335.0</ele><time>2026-03-29T07:15:08Z</time></trkpt><trkpt lat="45.56427970190111" lon="10.475990111494319"><ele>335.0</ele><time>2026-03-29T07:15:10Z</time></trkpt><trkpt lat="45.564339742523146" lon="10.476136090513561"><ele>334.4</ele><time>2026-03-29T07:15:12Z</time></trkpt><trkpt lat="45.564396217169545" lon="10.476297985534325"><ele>333.8</ele><time>2026-03-29T07:15:14Z</time></trkpt><trkpt lat="45.56442968469508" lon="10.476374888251081"><ele>333.20000000000005</ele><time>2026-03-29T07:15:15Z</time></trkpt><trkpt lat="45.56446568797915" lon="10.476457618308235"><ele>332.6</ele><time>2026-03-29T07:15:16Z</time></trkpt><trkpt lat="45.564511869538045" lon="10.476536069930932"><ele>332.0</ele><time>2026-03-29T07:15:17Z</time></trkpt><trkpt lat="45.56456876220985" lon="10.47669882036727"><ele>332.0</ele><time>2026-03-29T07:15:19Z</time></trkpt><trkpt lat="45.56460905103325" lon="10.4767802953053"><ele>332.0</ele><time>2026-03-29T07:15:20Z</time></trkpt><trkpt lat="45.56466116373516" lon="10.476950241746335"><ele>332.0</ele><time>2026-03-29T07:15:22Z</time></trkpt><trkpt lat="45.56466939191324" lon="10.477040592618735"><ele>332.0</ele><time>2026-03-29T07:15:23Z</time></trkpt><trkpt lat="45.564699052976074" lon="10.477233894280639"><ele>332.0</ele><time>2026-03-29T07:15:25Z</time></trkpt><trkpt lat="45.56469794946255" lon="10.477388433255243"><ele>332.8</ele><time>2026-03-29T07:15:27Z</time></trkpt><trkpt lat="45.56469203115023" lon="10.47752004567403"><ele>333.6</ele><time>2026-03-29T07:15:29Z</time></trkpt><trkpt lat="45.56466660239453" lon="10.477667737711204"><ele>334.40000000000003</ele><time>2026-03-29T07:15:31Z</time></trkpt><trkpt lat="45.56460335860567" lon="10.477822050466122"><ele>335.20000000000005</ele><time>2026-03-29T07:15:33Z</time></trkpt><trkpt lat="45.5645555255844" lon="10.477897087362939"><ele>336.0</ele><time>2026-03-29T07:15:34Z</time></trkpt><trkpt lat="45.56449308085531" lon="10.477978288649744"><ele>337.0</ele><time>2026-03-29T07:15:35Z</time></trkpt><trkpt lat="45.56443522446969" lon="10.478053523387855"><ele>338.0</ele><time>2026-03-29T07:15:36Z</time></trkpt><trkpt lat="45.56438647468256" lon="10.47812671549066"><ele>339.0</ele><time>2026-03-29T07:15:37Z</time></trkpt><trkpt lat="45.564333481774945" lon="10.478245671851079"><ele>340.0</ele><time>2026-03-29T07:15:39Z</time></trkpt><trkpt lat="45.56432501611879" lon="10.478396443175383"><ele>341.0</ele><time>2026-03-29T07:15:41Z</time></trkpt><trkpt lat="45.564386945433135" lon="10.478498142645313"><ele>342.0</ele><time>2026-03-29T07:15:43Z</time></trkpt><trkpt lat="45.564483630130404" lon="10.478579454608782"><ele>342.40000000000003</ele><time>2026-03-29T07:15:45Z</time></trkpt><trkpt lat="45.564549781555364" lon="10.478630288053528"><ele>342.8</ele><time>2026-03-29T07:15:46Z</time></trkpt><trkpt lat="45.564640068107906" lon="10.47870167837882"><ele>343.2</ele><time>2026-03-29T07:15:47Z</time></trkpt><trkpt lat="45.564724966205524" lon="10.478765650842469"><ele>343.6</ele><time>2026-03-29T07:15:48Z</time></trkpt><trkpt lat="45.564815495098024" lon="10.478833222800644"><ele>344.0</ele><time>2026-03-29T07:15:49Z</time></trkpt><trkpt lat="45.564900915029234" lon="10.4788929746554"><ele>344.0</ele><time>2026-03-29T07:15:50Z</time></trkpt><trkpt lat="45.564967038938825" lon="10.478937289291746"><ele>344.0</ele><time>2026-03-29T07:15:51Z</time></trkpt><trkpt lat="45.565029752850585" lon="10.478977004887307"><ele>344.0</ele><time>2026-03-29T07:15:52Z</time></trkpt><trkpt lat="45.56509557541571" lon="10.479014744688413"><ele>344.0</ele><time>2026-03-29T07:15:53Z</time></trkpt><trkpt lat="45.56517641863828" lon="10.479061269871616"><ele>344.0</ele><time>2026-03-29T07:15:54Z</time></trkpt><trkpt lat="45.56527556523658" lon="10.479089244581345"><ele>344.0</ele><time>2026-03-29T07:15:55Z</time></trkpt><trkpt lat="45.5653711667143" lon="10.479120934823907"><ele>344.4</ele><time>2026-03-29T07:15:56Z</time></trkpt><trkpt lat="45.56547727149543" lon="10.479123272857567"><ele>344.79999999999995</ele><time>2026-03-29T07:15:57Z</time></trkpt><trkpt lat="45.565589228446235" lon="10.479107451365234"><ele>345.20000000000005</ele><time>2026-03-29T07:15:58Z</time></trkpt><trkpt lat="45.56570122520933" lon="10.479075230495756"><ele>345.6</ele><time>2026-03-29T07:15:59Z</time></trkpt><trkpt lat="45.56580634352089" lon="10.479041724432046"><ele>346.0</ele><time>2026-03-29T07:16:00Z</time></trkpt><trkpt lat="45.5659131143579" lon="10.47901498128695"><ele>346.0</ele><time>2026-03-29T07:16:01Z</time></trkpt><trkpt lat="45.566018286659684" lon="10.478985608638478"><ele>346.0</ele><time>2026-03-29T07:16:02Z</time></trkpt><trkpt lat="45.56613640185024" lon="10.47896461233288"><ele>346.0</ele><time>2026-03-29T07:16:03Z</time></trkpt><trkpt lat="45.56626559823521" lon="10.478927709174565"><ele>346.0</ele><time>2026-03-29T07:16:04Z</time></trkpt><trkpt lat="45.566364855180574" lon="10.478900661209076"><ele>345.6</ele><time>2026-03-29T07:16:05Z</time></trkpt><trkpt lat="45.566462273596514" lon="10.478874837912235"><ele>345.20000000000005</ele><time>2026-03-29T07:16:06Z</time></trkpt><trkpt lat="45.56655831007154" lon="10.478849381054683"><ele>344.79999999999995</ele><time>2026-03-29T07:16:07Z</time></trkpt><trkpt lat="45.566660667709726" lon="10.478822248502496"><ele>344.4</ele><time>2026-03-29T07:16:08Z</time></trkpt><trkpt lat="45.56674456004093" lon="10.478782175406792"><ele>344.0</ele><time>2026-03-29T07:16:09Z</time></trkpt><trkpt lat="45.56682949844106" lon="10.478767534830325"><ele>344.0</ele><time>2026-03-29T07:16:10Z</time></trkpt><trkpt lat="45.56693492531185" lon="10.47874157827422"><ele>344.0</ele><time>2026-03-29T07:16:11Z</time></trkpt><trkpt lat="45.56702899061925" lon="10.478715356639883"><ele>344.0</ele><time>2026-03-29T07:16:12Z</time></trkpt><trkpt lat="45.56712746421526" lon="10.478692401893275"><ele>344.0</ele><time>2026-03-29T07:16:13Z</time></trkpt><trkpt lat="45.56719218604911" lon="10.47867273619945"><ele>344.0</ele><time>2026-03-29T07:16:14Z</time></trkpt><trkpt lat="45.567275795884825" lon="10.478655680001363"><ele>344.6666666666667</ele><time>2026-03-29T07:16:15Z</time></trkpt><trkpt lat="45.567361431441405" lon="10.47864326079341"><ele>345.33333333333337</ele><time>2026-03-29T07:16:16Z</time></trkpt><trkpt lat="45.56744632446327" lon="10.478624876285567"><ele>346.0</ele><time>2026-03-29T07:16:17Z</time></trkpt><trkpt lat="45.56752975144526" lon="10.478636924434326"><ele>346.6666666666667</ele><time>2026-03-29T07:16:18Z</time></trkpt><trkpt lat="45.56760790234412" lon="10.478634896123031"><ele>347.3333333333333</ele><time>2026-03-29T07:16:19Z</time></trkpt><trkpt lat="45.56770360916187" lon="10.478637014947065"><ele>348.0</ele><time>2026-03-29T07:16:20Z</time></trkpt><trkpt lat="45.567792941523905" lon="10.478642879916766"><ele>348.59999999999997</ele><time>2026-03-29T07:16:21Z</time></trkpt><trkpt lat="45.56788773675334" lon="10.478638871905376"><ele>349.2</ele><time>2026-03-29T07:16:22Z</time></trkpt><trkpt lat="45.56799142594924" lon="10.478645835803542"><ele>349.8</ele><time>2026-03-29T07:16:23Z</time></trkpt><trkpt lat="45.5681032738978" lon="10.478653110858406"><ele>350.4</ele><time>2026-03-29T07:16:24Z</time></trkpt><trkpt lat="45.56821764537539" lon="10.478671603295757"><ele>351.0</ele><time>2026-03-29T07:16:25Z</time></trkpt><trkpt lat="45.56832018552958" lon="10.47870093109841"><ele>351.0</ele><time>2026-03-29T07:16:26Z</time></trkpt><trkpt lat="45.568417471788806" lon="10.478701752572169"><ele>351.0</ele><time>2026-03-29T07:16:27Z</time></trkpt><trkpt lat="45.568518335300745" lon="10.478703757340252"><ele>351.0</ele><time>2026-03-29T07:16:28Z</time></trkpt><trkpt lat="45.5686078717265" lon="10.478705019957467"><ele>351.0</ele><time>2026-03-29T07:16:29Z</time></trkpt><trkpt lat="45.56867558886051" lon="10.478709419060799"><ele>351.0</ele><time>2026-03-29T07:16:30Z</time></trkpt><trkpt lat="45.56875961741737" lon="10.478755672297467"><ele>351.0</ele><time>2026-03-29T07:16:32Z</time></trkpt><trkpt lat="45.568824734696946" lon="10.478780894068347"><ele>351.20000000000005</ele><time>2026-03-29T07:16:35Z</time></trkpt><trkpt lat="45.56888842231469" lon="10.478805561851756"><ele>351.40000000000003</ele><time>2026-03-29T07:16:37Z</time></trkpt><trkpt lat="45.56895765892211" lon="10.478785909153036"><ele>351.6</ele><time>2026-03-29T07:16:38Z</time></trkpt><trkpt lat="45.56904495619111" lon="10.47880657618361"><ele>351.8</ele><time>2026-03-29T07:16:39Z</time></trkpt><trkpt lat="45.56914860822649" lon="10.478927989773762"><ele>352.0</ele><time>2026-03-29T07:16:41Z</time></trkpt><trkpt lat="45.56921356815569" lon="10.479078741492776"><ele>352.0</ele><time>2026-03-29T07:16:43Z</time></trkpt><trkpt lat="45.56924841925447" lon="10.479168295192759"><ele>352.0</ele><time>2026-03-29T07:16:44Z</time></trkpt><trkpt lat="45.56929703899795" lon="10.47931228957988"><ele>352.0</ele><time>2026-03-29T07:16:46Z</time></trkpt><trkpt lat="45.569320887535156" lon="10.479436496120627"><ele>352.0</ele><time>2026-03-29T07:16:48Z</time></trkpt><trkpt lat="45.569390176703465" lon="10.479601772925516"><ele>352.0</ele><time>2026-03-29T07:16:52Z</time></trkpt><trkpt lat="45.56932254707276" lon="10.479838147969732"><ele>350.20000000000005</ele><time>2026-03-29T07:16:54Z</time></trkpt><trkpt lat="45.56939474632147" lon="10.480001626994033"><ele>348.4</ele><time>2026-03-29T07:16:56Z</time></trkpt><trkpt lat="45.56944450019991" lon="10.480069651538564"><ele>346.6</ele><time>2026-03-29T07:16:57Z</time></trkpt><trkpt lat="45.56952467244401" lon="10.480102582086314"><ele>344.79999999999995</ele><time>2026-03-29T07:16:58Z</time></trkpt><trkpt lat="45.56961946312209" lon="10.48019926361244"><ele>343.0</ele><time>2026-03-29T07:17:00Z</time></trkpt><trkpt lat="45.569685131179" lon="10.48023906367378"><ele>342.5</ele><time>2026-03-29T07:17:01Z</time></trkpt><trkpt lat="45.56976811900659" lon="10.4802885998575"><ele>342.0</ele><time>2026-03-29T07:17:02Z</time></trkpt><trkpt lat="45.569852033950525" lon="10.480308630295541"><ele>341.5</ele><time>2026-03-29T07:17:03Z</time></trkpt><trkpt lat="45.56991735459124" lon="10.48034339013246"><ele>341.0</ele><time>2026-03-29T07:17:04Z</time></trkpt><trkpt lat="45.5699857780236" lon="10.480373078439538"><ele>340.5</ele><time>2026-03-29T07:17:05Z</time></trkpt><trkpt lat="45.570045984181846" lon="10.480401642604553"><ele>340.0</ele><time>2026-03-29T07:17:06Z</time></trkpt><trkpt lat="45.57011464197609" lon="10.480425808106471"><ele>336.6</ele><time>2026-03-29T07:17:07Z</time></trkpt><trkpt lat="45.57017428870434" lon="10.480470678866094"><ele>333.2</ele><time>2026-03-29T07:17:08Z</time></trkpt><trkpt lat="45.5702956498592" lon="10.480516472026228"><ele>329.79999999999995</ele><time>2026-03-29T07:17:10Z</time></trkpt><trkpt lat="45.57041819141158" lon="10.48056317879868"><ele>326.4</ele><time>2026-03-29T07:17:12Z</time></trkpt><trkpt lat="45.57052414144852" lon="10.480590207336526"><ele>323.0</ele><time>2026-03-29T07:17:14Z</time></trkpt><trkpt lat="45.57059008554842" lon="10.480617313585322"><ele>322.5</ele><time>2026-03-29T07:17:15Z</time></trkpt><trkpt lat="45.5706519233155" lon="10.48065497347934"><ele>322.0</ele><time>2026-03-29T07:17:16Z</time></trkpt><trkpt lat="45.57070862228897" lon="10.48069653799006"><ele>321.5</ele><time>2026-03-29T07:17:17Z</time></trkpt><trkpt lat="45.57081635214828" lon="10.48079054452542"><ele>321.0</ele><time>2026-03-29T07:17:19Z</time></trkpt><trkpt lat="45.57087836629203" lon="10.480812944565935"><ele>320.5</ele><time>2026-03-29T07:17:20Z</time></trkpt><trkpt lat="45.57096357240877" lon="10.480894149675677"><ele>320.0</ele><time>2026-03-29T07:17:22Z</time></trkpt><trkpt lat="45.57102117586411" lon="10.48102699995588"><ele>320.0</ele><time>2026-03-29T07:17:24Z</time></trkpt><trkpt lat="45.571014109451745" lon="10.481175996531947"><ele>320.0</ele><time>2026-03-29T07:17:26Z</time></trkpt><trkpt lat="45.57096946740962" lon="10.481244777599041"><ele>320.0</ele><time>2026-03-29T07:17:27Z</time></trkpt><trkpt lat="45.570845160630164" lon="10.48129958924598"><ele>320.0</ele><time>2026-03-29T07:17:29Z</time></trkpt><trkpt lat="45.57077595226871" lon="10.481327048714382"><ele>320.0</ele><time>2026-03-29T07:17:30Z</time></trkpt><trkpt lat="45.570694989719996" lon="10.48136340454657"><ele>317.4</ele><time>2026-03-29T07:17:31Z</time></trkpt><trkpt lat="45.570636339095806" lon="10.481410396698488"><ele>314.8</ele><time>2026-03-29T07:17:32Z</time></trkpt><trkpt lat="45.570582695027426" lon="10.48157423505777"><ele>312.2</ele><time>2026-03-29T07:17:34Z</time></trkpt><trkpt lat="45.57055784921047" lon="10.481676124608468"><ele>309.6</ele><time>2026-03-29T07:17:35Z</time></trkpt><trkpt lat="45.5705514199164" lon="10.481798100069888"><ele>307.0</ele><time>2026-03-29T07:17:36Z</time></trkpt><trkpt lat="45.57051640613485" lon="10.481949919626686"><ele>307.0</ele><time>2026-03-29T07:17:37Z</time></trkpt><trkpt lat="45.570516091742846" lon="10.482087003569847"><ele>307.0</ele><time>2026-03-29T07:17:38Z</time></trkpt><trkpt lat="45.57050461052081" lon="10.482190429521816"><ele>307.0</ele><time>2026-03-29T07:17:39Z</time></trkpt><trkpt lat="45.57048592732313" lon="10.482348852370913"><ele>307.0</ele><time>2026-03-29T07:17:41Z</time></trkpt><trkpt lat="45.5704987196842" lon="10.482445983467992"><ele>307.0</ele><time>2026-03-29T07:17:44Z</time></trkpt><trkpt lat="45.5706509539012" lon="10.48247116589882"><ele>306.5</ele><time>2026-03-29T07:17:45Z</time></trkpt><trkpt lat="45.570759829128505" lon="10.482487497468387"><ele>306.0</ele><time>2026-03-29T07:17:46Z</time></trkpt><trkpt lat="45.5708928211971" lon="10.482498642413065"><ele>305.5</ele><time>2026-03-29T07:17:47Z</time></trkpt><trkpt lat="45.57102996487011" lon="10.482510751595553"><ele>305.0</ele><time>2026-03-29T07:17:48Z</time></trkpt><trkpt lat="45.57117937167014" lon="10.482525883597855"><ele>303.33333333333337</ele><time>2026-03-29T07:17:49Z</time></trkpt><trkpt lat="45.571345060860125" lon="10.482536727049267"><ele>301.6666666666667</ele><time>2026-03-29T07:17:50Z</time></trkpt><trkpt lat="45.571493188368336" lon="10.48254427377904"><ele>300.0</ele><time>2026-03-29T07:17:51Z</time></trkpt><trkpt lat="45.57163225570435" lon="10.482550948010335"><ele>300.0</ele><time>2026-03-29T07:17:52Z</time></trkpt><trkpt lat="45.57175504751856" lon="10.482551774804815"><ele>300.0</ele><time>2026-03-29T07:17:53Z</time></trkpt><trkpt lat="45.571864053142434" lon="10.4825582697571"><ele>300.0</ele><time>2026-03-29T07:17:54Z</time></trkpt><trkpt lat="45.571962872474984" lon="10.48255709239393"><ele>300.0</ele><time>2026-03-29T07:17:55Z</time></trkpt><trkpt lat="45.57205250909858" lon="10.48255113535635"><ele>300.0</ele><time>2026-03-29T07:17:56Z</time></trkpt><trkpt lat="45.572139564138936" lon="10.482547571674287"><ele>299.6</ele><time>2026-03-29T07:17:57Z</time></trkpt><trkpt lat="45.572228374051136" lon="10.482561276077044"><ele>299.2</ele><time>2026-03-29T07:17:58Z</time></trkpt><trkpt lat="45.57232928116833" lon="10.482551244362053"><ele>298.8</ele><time>2026-03-29T07:17:59Z</time></trkpt><trkpt lat="45.57241622916167" lon="10.482563697671855"><ele>298.4</ele><time>2026-03-29T07:18:00Z</time></trkpt><trkpt lat="45.57252680108523" lon="10.482583002726724"><ele>298.0</ele><time>2026-03-29T07:18:01Z</time></trkpt><trkpt lat="45.57264053243064" lon="10.4825911303314"><ele>298.0</ele><time>2026-03-29T07:18:02Z</time></trkpt><trkpt lat="45.57277033779045" lon="10.482593173108546"><ele>298.0</ele><time>2026-03-29T07:18:03Z</time></trkpt><trkpt lat="45.57291115232093" lon="10.482597643839316"><ele>298.0</ele><time>2026-03-29T07:18:04Z</time></trkpt><trkpt lat="45.573058180107154" lon="10.482606064358057"><ele>298.0</ele><time>2026-03-29T07:18:05Z</time></trkpt><trkpt lat="45.57318993983046" lon="10.4826188471219"><ele>296.5</ele><time>2026-03-29T07:18:06Z</time></trkpt><trkpt lat="45.57331157932755" lon="10.482630795939036"><ele>295.0</ele><time>2026-03-29T07:18:07Z</time></trkpt><trkpt lat="45.57343030226555" lon="10.482635359176994"><ele>293.5</ele><time>2026-03-29T07:18:08Z</time></trkpt><trkpt lat="45.57356115853584" lon="10.482648377464313"><ele>292.0</ele><time>2026-03-29T07:18:09Z</time></trkpt><trkpt lat="45.57369018746578" lon="10.482651741344126"><ele>291.0</ele><time>2026-03-29T07:18:10Z</time></trkpt><trkpt lat="45.57381476158834" lon="10.482656457787442"><ele>290.0</ele><time>2026-03-29T07:18:11Z</time></trkpt><trkpt lat="45.57393451666569" lon="10.482658634182616"><ele>289.0</ele><time>2026-03-29T07:18:12Z</time></trkpt><trkpt lat="45.5740472394887" lon="10.48266460131783"><ele>288.0</ele><time>2026-03-29T07:18:13Z</time></trkpt><trkpt lat="45.57416980955356" lon="10.482672045894324"><ele>288.0</ele><time>2026-03-29T07:18:14Z</time></trkpt><trkpt lat="45.57430152647041" lon="10.482677808007901"><ele>288.0</ele><time>2026-03-29T07:18:15Z</time></trkpt><trkpt lat="45.574434490174646" lon="10.482684704068475"><ele>288.0</ele><time>2026-03-29T07:18:16Z</time></trkpt><trkpt lat="45.574568979727" lon="10.482688501943011"><ele>288.0</ele><time>2026-03-29T07:18:17Z</time></trkpt><trkpt lat="45.57469323420031" lon="10.482691983443894"><ele>288.5</ele><time>2026-03-29T07:18:18Z</time></trkpt><trkpt lat="45.574811324898" lon="10.482687443505753"><ele>289.0</ele><time>2026-03-29T07:18:19Z</time></trkpt><trkpt lat="45.574927339732476" lon="10.48267559267334"><ele>289.5</ele><time>2026-03-29T07:18:20Z</time></trkpt><trkpt lat="45.575049850892135" lon="10.482660480469194"><ele>290.0</ele><time>2026-03-29T07:18:21Z</time></trkpt><trkpt lat="45.57517139647157" lon="10.482639851067423"><ele>290.0</ele><time>2026-03-29T07:18:22Z</time></trkpt><trkpt lat="45.57529988703029" lon="10.482608340221375"><ele>290.0</ele><time>2026-03-29T07:18:23Z</time></trkpt><trkpt lat="45.57543485237723" lon="10.482578411662889"><ele>290.0</ele><time>2026-03-29T07:18:24Z</time></trkpt><trkpt lat="45.57556647136122" lon="10.482547865129478"><ele>290.0</ele><time>2026-03-29T07:18:25Z</time></trkpt><trkpt lat="45.57569820993979" lon="10.482515691012077"><ele>289.0</ele><time>2026-03-29T07:18:26Z</time></trkpt><trkpt lat="45.575813886839605" lon="10.48249636901997"><ele>288.0</ele><time>2026-03-29T07:18:27Z</time></trkpt><trkpt lat="45.57592375548895" lon="10.482467221328118"><ele>287.0</ele><time>2026-03-29T07:18:28Z</time></trkpt><trkpt lat="45.576035960906104" lon="10.482443935736228"><ele>286.0</ele><time>2026-03-29T07:18:29Z</time></trkpt><trkpt lat="45.576154501223265" lon="10.482433831938899"><ele>285.5</ele><time>2026-03-29T07:18:30Z</time></trkpt><trkpt lat="45.57628210483961" lon="10.482415460256064"><ele>285.0</ele><time>2026-03-29T07:18:31Z</time></trkpt><trkpt lat="45.576417537469446" lon="10.482402854055081"><ele>284.5</ele><time>2026-03-29T07:18:32Z</time></trkpt><trkpt lat="45.576557391926755" lon="10.482384082148247"><ele>284.0</ele><time>2026-03-29T07:18:33Z</time></trkpt><trkpt lat="45.576696238084395" lon="10.482365464385344"><ele>284.0</ele><time>2026-03-29T07:18:34Z</time></trkpt><trkpt lat="45.57682558091785" lon="10.482350453679873"><ele>284.0</ele><time>2026-03-29T07:18:35Z</time></trkpt><trkpt lat="45.576946419550254" lon="10.482338393211366"><ele>284.0</ele><time>2026-03-29T07:18:36Z</time></trkpt><trkpt lat="45.577057412983116" lon="10.482320142987563"><ele>284.0</ele><time>2026-03-29T07:18:37Z</time></trkpt><trkpt lat="45.57716747441305" lon="10.482312938319566"><ele>283.5</ele><time>2026-03-29T07:18:38Z</time></trkpt><trkpt lat="45.57729425023736" lon="10.482304004123682"><ele>283.0</ele><time>2026-03-29T07:18:39Z</time></trkpt><trkpt lat="45.57742608189884" lon="10.482299931077053"><ele>282.5</ele><time>2026-03-29T07:18:40Z</time></trkpt><trkpt lat="45.57756355679393" lon="10.482297668949094"><ele>282.0</ele><time>2026-03-29T07:18:41Z</time></trkpt><trkpt lat="45.5777041648558" lon="10.482289986623766"><ele>282.0</ele><time>2026-03-29T07:18:42Z</time></trkpt><trkpt lat="45.57784925829284" lon="10.482292443207394"><ele>282.0</ele><time>2026-03-29T07:18:43Z</time></trkpt><trkpt lat="45.5780062400475" lon="10.48230013933727"><ele>282.0</ele><time>2026-03-29T07:18:44Z</time></trkpt><trkpt lat="45.57817381357662" lon="10.482305523518951"><ele>280.6666666666667</ele><time>2026-03-29T07:18:45Z</time></trkpt><trkpt lat="45.5783556165435" lon="10.482301702233842"><ele>279.33333333333337</ele><time>2026-03-29T07:18:46Z</time></trkpt><trkpt lat="45.5785225561668" lon="10.482304274541914"><ele>278.0</ele><time>2026-03-29T07:18:47Z</time></trkpt><trkpt lat="45.57868165872094" lon="10.482301137553721"><ele>277.0</ele><time>2026-03-29T07:18:48Z</time></trkpt><trkpt lat="45.57885064773047" lon="10.482300240088648"><ele>276.0</ele><time>2026-03-29T07:18:49Z</time></trkpt><trkpt lat="45.57902638378087" lon="10.482304169148867"><ele>275.0</ele><time>2026-03-29T07:18:50Z</time></trkpt><trkpt lat="45.57921026239603" lon="10.48231373691549"><ele>275.0</ele><time>2026-03-29T07:18:51Z</time></trkpt><trkpt lat="45.57938171727085" lon="10.482335384762345"><ele>275.0</ele><time>2026-03-29T07:18:52Z</time></trkpt><trkpt lat="45.57955803695352" lon="10.482381841341683"><ele>275.0</ele><time>2026-03-29T07:18:53Z</time></trkpt><trkpt lat="45.5797264812253" lon="10.482441000504506"><ele>274.0</ele><time>2026-03-29T07:18:54Z</time></trkpt><trkpt lat="45.579896584919524" lon="10.482508783889976"><ele>273.0</ele><time>2026-03-29T07:18:55Z</time></trkpt><trkpt lat="45.580067854837885" lon="10.482588142026259"><ele>272.0</ele><time>2026-03-29T07:18:56Z</time></trkpt><trkpt lat="45.580232170363985" lon="10.482667118624608"><ele>272.0</ele><time>2026-03-29T07:18:57Z</time></trkpt><trkpt lat="45.58038474676544" lon="10.482739580567928"><ele>272.0</ele><time>2026-03-29T07:18:58Z</time></trkpt><trkpt lat="45.58052046507964" lon="10.482802988932512"><ele>272.0</ele><time>2026-03-29T07:18:59Z</time></trkpt><trkpt lat="45.58065875994062" lon="10.482873996372874"><ele>272.5</ele><time>2026-03-29T07:19:00Z</time></trkpt><trkpt lat="45.580787080197034" lon="10.482934996325607"><ele>273.0</ele><time>2026-03-29T07:19:01Z</time></trkpt><trkpt lat="45.580907038604536" lon="10.482981466161476"><ele>273.5</ele><time>2026-03-29T07:19:02Z</time></trkpt><trkpt lat="45.581025615541826" lon="10.483039066969287"><ele>274.0</ele><time>2026-03-29T07:19:03Z</time></trkpt><trkpt lat="45.58113000149328" lon="10.483094253823122"><ele>274.16666666666663</ele><time>2026-03-29T07:19:04Z</time></trkpt><trkpt lat="45.581211729394276" lon="10.48313703759634"><ele>274.3333333333333</ele><time>2026-03-29T07:19:05Z</time></trkpt><trkpt lat="45.58127296547022" lon="10.48316472335037"><ele>274.5</ele><time>2026-03-29T07:19:06Z</time></trkpt><trkpt lat="45.58137089716656" lon="10.483196958230911"><ele>274.6666666666667</ele><time>2026-03-29T07:19:08Z</time></trkpt><trkpt lat="45.58143658054384" lon="10.483173510949824"><ele>274.83333333333337</ele><time>2026-03-29T07:19:10Z</time></trkpt><trkpt lat="45.58146579503098" lon="10.483051079159507"><ele>275.0</ele><time>2026-03-29T07:19:11Z</time></trkpt><trkpt lat="45.581492374641414" lon="10.482920640250558"><ele>274.5</ele><time>2026-03-29T07:19:12Z</time></trkpt><trkpt lat="45.58152205086353" lon="10.482763323371303"><ele>274.0</ele><time>2026-03-29T07:19:13Z</time></trkpt><trkpt lat="45.581579659544275" lon="10.482604185021286"><ele>273.5</ele><time>2026-03-29T07:19:14Z</time></trkpt><trkpt lat="45.581623715028755" lon="10.482421355410557"><ele>273.0</ele><time>2026-03-29T07:19:15Z</time></trkpt><trkpt lat="45.58168267794651" lon="10.482217978768558"><ele>273.0</ele><time>2026-03-29T07:19:16Z</time></trkpt><trkpt lat="45.581749865403495" lon="10.482000413059914"><ele>273.0</ele><time>2026-03-29T07:19:17Z</time></trkpt><trkpt lat="45.58181594753616" lon="10.481779975035703"><ele>273.0</ele><time>2026-03-29T07:19:18Z</time></trkpt><trkpt lat="45.58188811099324" lon="10.481536381972155"><ele>273.0</ele><time>2026-03-29T07:19:19Z</time></trkpt><trkpt lat="45.58196398441064" lon="10.481281200522128"><ele>273.0</ele><time>2026-03-29T07:19:20Z</time></trkpt><trkpt lat="45.58204057995353" lon="10.481019619864599"><ele>273.0</ele><time>2026-03-29T07:19:21Z</time></trkpt><trkpt lat="45.58212204970727" lon="10.480754240390379"><ele>274.3333333333333</ele><time>2026-03-29T07:19:22Z</time></trkpt><trkpt lat="45.582204199786936" lon="10.480477493503187"><ele>275.66666666666663</ele><time>2026-03-29T07:19:23Z</time></trkpt><trkpt lat="45.58228202763135" lon="10.48023231513791"><ele>277.0</ele><time>2026-03-29T07:19:24Z</time></trkpt><trkpt lat="45.58234552453889" lon="10.480009747566745"><ele>277.0</ele><time>2026-03-29T07:19:25Z</time></trkpt><trkpt lat="45.582391243330804" lon="10.479793156175834"><ele>277.0</ele><time>2026-03-29T07:19:26Z</time></trkpt><trkpt lat="45.58240405487766" lon="10.479598036832423"><ele>277.0</ele><time>2026-03-29T07:19:27Z</time></trkpt><trkpt lat="45.582380253006" lon="10.479400017887036"><ele>277.0</ele><time>2026-03-29T07:19:28Z</time></trkpt><trkpt lat="45.582341470143675" lon="10.47918848204877"><ele>277.0</ele><time>2026-03-29T07:19:29Z</time></trkpt><trkpt lat="45.582283879261844" lon="10.478963302728113"><ele>277.0</ele><time>2026-03-29T07:19:30Z</time></trkpt><trkpt lat="45.58222354733728" lon="10.478719378260726"><ele>277.0</ele><time>2026-03-29T07:19:31Z</time></trkpt><trkpt lat="45.58215346088252" lon="10.478482784430058"><ele>276.3333333333333</ele><time>2026-03-29T07:19:32Z</time></trkpt><trkpt lat="45.58205780291335" lon="10.478257866365547"><ele>275.6666666666667</ele><time>2026-03-29T07:19:33Z</time></trkpt><trkpt lat="45.581948483917415" lon="10.478056124395911"><ele>275.0</ele><time>2026-03-29T07:19:34Z</time></trkpt><trkpt lat="45.5818194048053" lon="10.477877380313725"><ele>275.0</ele><time>2026-03-29T07:19:35Z</time></trkpt><trkpt lat="45.581667903010654" lon="10.477725499884597"><ele>275.0</ele><time>2026-03-29T07:19:36Z</time></trkpt><trkpt lat="45.581511541806236" lon="10.477598138073589"><ele>275.0</ele><time>2026-03-29T07:19:37Z</time></trkpt><trkpt lat="45.58137788425928" lon="10.477484340489367"><ele>275.0</ele><time>2026-03-29T07:19:38Z</time></trkpt><trkpt lat="45.58125693106203" lon="10.477356783006238"><ele>275.0</ele><time>2026-03-29T07:19:39Z</time></trkpt><trkpt lat="45.58117146807771" lon="10.477233609730368"><ele>275.0</ele><time>2026-03-29T07:19:40Z</time></trkpt><trkpt lat="45.581153002928545" lon="10.477084945198742"><ele>275.0</ele><time>2026-03-29T07:19:41Z</time></trkpt><trkpt lat="45.58114744711979" lon="10.476949153035712"><ele>273.0</ele><time>2026-03-29T07:19:42Z</time></trkpt><trkpt lat="45.58115644694089" lon="10.476801613389476"><ele>271.0</ele><time>2026-03-29T07:19:43Z</time></trkpt><trkpt lat="45.58116324448915" lon="10.476608334294696"><ele>269.0</ele><time>2026-03-29T07:19:44Z</time></trkpt><trkpt lat="45.581144046937844" lon="10.476392249137808"><ele>267.0</ele><time>2026-03-29T07:19:45Z</time></trkpt><trkpt lat="45.58113430482278" lon="10.476156037649828"><ele>267.0</ele><time>2026-03-29T07:19:46Z</time></trkpt><trkpt lat="45.58113025118375" lon="10.475910493436643"><ele>267.0</ele><time>2026-03-29T07:19:47Z</time></trkpt><trkpt lat="45.5811563179665" lon="10.475700745034933"><ele>267.0</ele><time>2026-03-29T07:19:48Z</time></trkpt><trkpt lat="45.58116015782041" lon="10.475487415968828"><ele>267.0</ele><time>2026-03-29T07:19:49Z</time></trkpt><trkpt lat="45.581178438641686" lon="10.475294183824087"><ele>267.0</ele><time>2026-03-29T07:19:50Z</time></trkpt><trkpt lat="45.58120815027405" lon="10.475102069678242"><ele>267.0</ele><time>2026-03-29T07:19:51Z</time></trkpt><trkpt lat="45.58123561690418" lon="10.474929560128727"><ele>267.0</ele><time>2026-03-29T07:19:52Z</time></trkpt><trkpt lat="45.58125481531156" lon="10.474763449531897"><ele>267.0</ele><time>2026-03-29T07:19:53Z</time></trkpt><trkpt lat="45.581276676516566" lon="10.474595412074077"><ele>267.0</ele><time>2026-03-29T07:19:54Z</time></trkpt><trkpt lat="45.5812659067304" lon="10.474402817749894"><ele>267.0</ele><time>2026-03-29T07:19:55Z</time></trkpt><trkpt lat="45.581266147660436" lon="10.474210084700339"><ele>267.0</ele><time>2026-03-29T07:19:56Z</time></trkpt><trkpt lat="45.581264482823975" lon="10.473999379199604"><ele>267.0</ele><time>2026-03-29T07:19:57Z</time></trkpt><trkpt lat="45.58128538991587" lon="10.47380310158875"><ele>267.0</ele><time>2026-03-29T07:19:58Z</time></trkpt><trkpt lat="45.581317868911874" lon="10.473617895733812"><ele>267.0</ele><time>2026-03-29T07:19:59Z</time></trkpt><trkpt lat="45.58137531898039" lon="10.47343111359148"><ele>267.0</ele><time>2026-03-29T07:20:00Z</time></trkpt><trkpt lat="45.58145231308397" lon="10.473248807367543"><ele>265.0</ele><time>2026-03-29T07:20:01Z</time></trkpt><trkpt lat="45.58155536200815" lon="10.473060810918508"><ele>263.0</ele><time>2026-03-29T07:20:02Z</time></trkpt><trkpt lat="45.5816788141866" lon="10.472917230956684"><ele>261.0</ele><time>2026-03-29T07:20:03Z</time></trkpt><trkpt lat="45.5817990811585" lon="10.472801773645033"><ele>261.5</ele><time>2026-03-29T07:20:04Z</time></trkpt><trkpt lat="45.58191039464677" lon="10.472683017119882"><ele>262.0</ele><time>2026-03-29T07:20:05Z</time></trkpt><trkpt lat="45.582031812291056" lon="10.472589902901783"><ele>262.5</ele><time>2026-03-29T07:20:06Z</time></trkpt><trkpt lat="45.582152892658065" lon="10.47248022434206"><ele>263.0</ele><time>2026-03-29T07:20:07Z</time></trkpt><trkpt lat="45.582282998840334" lon="10.472362311678529"><ele>263.0</ele><time>2026-03-29T07:20:08Z</time></trkpt><trkpt lat="45.58242210450872" lon="10.472244547850652"><ele>263.0</ele><time>2026-03-29T07:20:09Z</time></trkpt><trkpt lat="45.58255791339962" lon="10.472135588534305"><ele>263.0</ele><time>2026-03-29T07:20:10Z</time></trkpt><trkpt lat="45.58269390368643" lon="10.472016793231507"><ele>261.0</ele><time>2026-03-29T07:20:11Z</time></trkpt><trkpt lat="45.58281941819367" lon="10.471883943409008"><ele>259.0</ele><time>2026-03-29T07:20:12Z</time></trkpt><trkpt lat="45.58294171157225" lon="10.471709223733113"><ele>257.0</ele><time>2026-03-29T07:20:13Z</time></trkpt><trkpt lat="45.583052252704874" lon="10.471511156230662"><ele>258.0</ele><time>2026-03-29T07:20:14Z</time></trkpt><trkpt lat="45.583157281430445" lon="10.47131135465939"><ele>259.0</ele><time>2026-03-29T07:20:15Z</time></trkpt><trkpt lat="45.58326327149514" lon="10.471129180583997"><ele>260.0</ele><time>2026-03-29T07:20:16Z</time></trkpt><trkpt lat="45.58336152929195" lon="10.470970723581921"><ele>260.0</ele><time>2026-03-29T07:20:17Z</time></trkpt><trkpt lat="45.58345254195904" lon="10.470828421771358"><ele>260.0</ele><time>2026-03-29T07:20:18Z</time></trkpt><trkpt lat="45.58354555277122" lon="10.47069116504177"><ele>260.0</ele><time>2026-03-29T07:20:19Z</time></trkpt><trkpt lat="45.58364947367409" lon="10.470567931119659"><ele>260.0</ele><time>2026-03-29T07:20:20Z</time></trkpt><trkpt lat="45.58377416724241" lon="10.470453680266617"><ele>259.0</ele><time>2026-03-29T07:20:21Z</time></trkpt><trkpt lat="45.58391445721662" lon="10.47036116837614"><ele>258.0</ele><time>2026-03-29T07:20:22Z</time></trkpt><trkpt lat="45.5840663477414" lon="10.470262843560434"><ele>257.0</ele><time>2026-03-29T07:20:23Z</time></trkpt><trkpt lat="45.58421524052166" lon="10.470152780465865"><ele>257.0</ele><time>2026-03-29T07:20:24Z</time></trkpt><trkpt lat="45.58436612382103" lon="10.470048250322007"><ele>257.0</ele><time>2026-03-29T07:20:25Z</time></trkpt><trkpt lat="45.584511364269346" lon="10.46994135363127"><ele>257.0</ele><time>2026-03-29T07:20:26Z</time></trkpt><trkpt lat="45.584650332146694" lon="10.469821221650093"><ele>257.25</ele><time>2026-03-29T07:20:27Z</time></trkpt><trkpt lat="45.58477715742987" lon="10.469688759738998"><ele>257.5</ele><time>2026-03-29T07:20:28Z</time></trkpt><trkpt lat="45.584889774395535" lon="10.469549280814283"><ele>257.75</ele><time>2026-03-29T07:20:29Z</time></trkpt><trkpt lat="45.58499630755778" lon="10.469412532833653"><ele>258.0</ele><time>2026-03-29T07:20:30Z</time></trkpt><trkpt lat="45.58510012592547" lon="10.469258495756277"><ele>257.0</ele><time>2026-03-29T07:20:31Z</time></trkpt><trkpt lat="45.58519888846285" lon="10.469076711186455"><ele>256.0</ele><time>2026-03-29T07:20:32Z</time></trkpt><trkpt lat="45.585291889584546" lon="10.468881059259182"><ele>255.0</ele><time>2026-03-29T07:20:33Z</time></trkpt><trkpt lat="45.58538304221976" lon="10.468660007450897"><ele>252.66666666666669</ele><time>2026-03-29T07:20:34Z</time></trkpt><trkpt lat="45.58549048674702" lon="10.468444113816545"><ele>250.33333333333334</ele><time>2026-03-29T07:20:35Z</time></trkpt><trkpt lat="45.58558955068297" lon="10.468225857009639"><ele>248.0</ele><time>2026-03-29T07:20:36Z</time></trkpt><trkpt lat="45.58567218220753" lon="10.468005635745815"><ele>248.0</ele><time>2026-03-29T07:20:37Z</time></trkpt><trkpt lat="45.585769909152404" lon="10.467793346526687"><ele>248.0</ele><time>2026-03-29T07:20:38Z</time></trkpt><trkpt lat="45.58586167391683" lon="10.46759538473053"><ele>248.0</ele><time>2026-03-29T07:20:39Z</time></trkpt><trkpt lat="45.58595257948524" lon="10.467425417544126"><ele>248.0</ele><time>2026-03-29T07:20:40Z</time></trkpt><trkpt lat="45.586032436576694" lon="10.467260181241365"><ele>248.0</ele><time>2026-03-29T07:20:41Z</time></trkpt><trkpt lat="45.58613938323072" lon="10.467125789034938"><ele>248.0</ele><time>2026-03-29T07:20:42Z</time></trkpt><trkpt lat="45.58623408543718" lon="10.466967117069727"><ele>248.0</ele><time>2026-03-29T07:20:43Z</time></trkpt><trkpt lat="45.58633136301937" lon="10.466830864765395"><ele>249.75</ele><time>2026-03-29T07:20:44Z</time></trkpt><trkpt lat="45.586426359375416" lon="10.466699675097846"><ele>251.5</ele><time>2026-03-29T07:20:45Z</time></trkpt><trkpt lat="45.58652056376717" lon="10.466565915717876"><ele>253.25</ele><time>2026-03-29T07:20:46Z</time></trkpt><trkpt lat="45.586615596740046" lon="10.466432463321999"><ele>255.0</ele><time>2026-03-29T07:20:47Z</time></trkpt><trkpt lat="45.58670474462436" lon="10.46630784563177"><ele>255.75</ele><time>2026-03-29T07:20:48Z</time></trkpt><trkpt lat="45.58679900283092" lon="10.466175201597995"><ele>256.5</ele><time>2026-03-29T07:20:49Z</time></trkpt><trkpt lat="45.586884655920336" lon="10.46604509603235"><ele>257.25</ele><time>2026-03-29T07:20:50Z</time></trkpt><trkpt lat="45.586977971083975" lon="10.465916956759377"><ele>258.0</ele><time>2026-03-29T07:20:51Z</time></trkpt><trkpt lat="45.58707199605588" lon="10.465787889485659"><ele>258.5</ele><time>2026-03-29T07:20:52Z</time></trkpt><trkpt lat="45.58716639448832" lon="10.465659841234064"><ele>259.0</ele><time>2026-03-29T07:20:53Z</time></trkpt><trkpt lat="45.58725600000276" lon="10.465534230785485"><ele>259.5</ele><time>2026-03-29T07:20:54Z</time></trkpt><trkpt lat="45.587342894802525" lon="10.465418820863656"><ele>260.0</ele><time>2026-03-29T07:20:55Z</time></trkpt><trkpt lat="45.587429942414" lon="10.465302163518711"><ele>260.2</ele><time>2026-03-29T07:20:56Z</time></trkpt><trkpt lat="45.587512419643375" lon="10.465189142363872"><ele>260.4</ele><time>2026-03-29T07:20:57Z</time></trkpt><trkpt lat="45.58759187927242" lon="10.46508185371104"><ele>260.6</ele><time>2026-03-29T07:20:58Z</time></trkpt><trkpt lat="45.587663524199634" lon="10.46498070098583"><ele>260.8</ele><time>2026-03-29T07:20:59Z</time></trkpt><trkpt lat="45.587745695726696" lon="10.464879180875366"><ele>261.0</ele><time>2026-03-29T07:21:00Z</time></trkpt><trkpt lat="45.58782290173847" lon="10.464780379616306"><ele>261.6666666666667</ele><time>2026-03-29T07:21:01Z</time></trkpt><trkpt lat="45.587889325387806" lon="10.464692090142771"><ele>262.3333333333333</ele><time>2026-03-29T07:21:02Z</time></trkpt><trkpt lat="45.58795319026314" lon="10.464612999212168"><ele>263.0</ele><time>2026-03-29T07:21:03Z</time></trkpt><trkpt lat="45.58800685337124" lon="10.464549524100931"><ele>263.66666666666663</ele><time>2026-03-29T07:21:04Z</time></trkpt><trkpt lat="45.58806181096498" lon="10.46448052191679"><ele>264.3333333333333</ele><time>2026-03-29T07:21:05Z</time></trkpt><trkpt lat="45.588107813953094" lon="10.464413398409313"><ele>265.0</ele><time>2026-03-29T07:21:06Z</time></trkpt><trkpt lat="45.58819279786614" lon="10.464312463689158"><ele>265.0</ele><time>2026-03-29T07:21:08Z</time></trkpt><trkpt lat="45.58827057282423" lon="10.46430039794472"><ele>265.0</ele><time>2026-03-29T07:21:10Z</time></trkpt><trkpt lat="45.58834427857804" lon="10.464393420722603"><ele>265.0</ele><time>2026-03-29T07:21:12Z</time></trkpt><trkpt lat="45.58836865706206" lon="10.464477968364706"><ele>265.0</ele><time>2026-03-29T07:21:13Z</time></trkpt><trkpt lat="45.58838644631146" lon="10.46458789945411"><ele>265.0</ele><time>2026-03-29T07:21:14Z</time></trkpt><trkpt lat="45.588407597241165" lon="10.46468556893736"><ele>265.0</ele><time>2026-03-29T07:21:15Z</time></trkpt><trkpt lat="45.58843059906" lon="10.464810198636544"><ele>265.16666666666663</ele><time>2026-03-29T07:21:17Z</time></trkpt><trkpt lat="45.588389285380664" lon="10.464900592776429"><ele>265.3333333333333</ele><time>2026-03-29T07:21:19Z</time></trkpt><trkpt lat="45.58834631330902" lon="10.46499610711216"><ele>265.5</ele><time>2026-03-29T07:21:21Z</time></trkpt><trkpt lat="45.588303641772754" lon="10.465086805274275"><ele>265.6666666666667</ele><time>2026-03-29T07:21:22Z</time></trkpt><trkpt lat="45.58824997434658" lon="10.46520059502794"><ele>265.83333333333337</ele><time>2026-03-29T07:21:23Z</time></trkpt><trkpt lat="45.588195750961795" lon="10.465312968637043"><ele>266.0</ele><time>2026-03-29T07:21:24Z</time></trkpt><trkpt lat="45.58814173695228" lon="10.465423088127737"><ele>266.5</ele><time>2026-03-29T07:21:25Z</time></trkpt><trkpt lat="45.58808027565381" lon="10.465544809975377"><ele>267.0</ele><time>2026-03-29T07:21:26Z</time></trkpt><trkpt lat="45.588014924737614" lon="10.465671367422582"><ele>267.5</ele><time>2026-03-29T07:21:27Z</time></trkpt><trkpt lat="45.587944574711685" lon="10.465804994754972"><ele>268.0</ele><time>2026-03-29T07:21:28Z</time></trkpt><trkpt lat="45.58787112966762" lon="10.46593787008171"><ele>266.75</ele><time>2026-03-29T07:21:29Z</time></trkpt><trkpt lat="45.58779975856281" lon="10.466069717990548"><ele>265.5</ele><time>2026-03-29T07:21:30Z</time></trkpt><trkpt lat="45.58773292857516" lon="10.466202953349583"><ele>264.25</ele><time>2026-03-29T07:21:31Z</time></trkpt><trkpt lat="45.58767191256247" lon="10.466340320550142"><ele>263.0</ele><time>2026-03-29T07:21:32Z</time></trkpt><trkpt lat="45.58760884578009" lon="10.466473807130116"><ele>263.0</ele><time>2026-03-29T07:21:33Z</time></trkpt><trkpt lat="45.587570828791684" lon="10.466609900966391"><ele>263.0</ele><time>2026-03-29T07:21:34Z</time></trkpt><trkpt lat="45.58751935538783" lon="10.466707934782637"><ele>263.0</ele><time>2026-03-29T07:21:35Z</time></trkpt><trkpt lat="45.587491583058316" lon="10.466814715383713"><ele>263.0</ele><time>2026-03-29T07:21:36Z</time></trkpt><trkpt lat="45.58747554768269" lon="10.466907284864549"><ele>263.0</ele><time>2026-03-29T07:21:37Z</time></trkpt><trkpt lat="45.58748305288609" lon="10.467019912817513"><ele>263.0</ele><time>2026-03-29T07:21:38Z</time></trkpt><trkpt lat="45.587472846058255" lon="10.467140848743059"><ele>263.33333333333337</ele><time>2026-03-29T07:21:39Z</time></trkpt><trkpt lat="45.587465421482456" lon="10.467268794710346"><ele>263.6666666666667</ele><time>2026-03-29T07:21:40Z</time></trkpt><trkpt lat="45.58746414155257" lon="10.467397096717471"><ele>264.0</ele><time>2026-03-29T07:21:41Z</time></trkpt><trkpt lat="45.58747000352189" lon="10.467508138874832"><ele>264.3333333333333</ele><time>2026-03-29T07:21:42Z</time></trkpt><trkpt lat="45.58749041666141" lon="10.467627447163528"><ele>264.66666666666663</ele><time>2026-03-29T07:21:43Z</time></trkpt><trkpt lat="45.587533818228195" lon="10.467754787558585"><ele>265.0</ele><time>2026-03-29T07:21:44Z</time></trkpt><trkpt lat="45.58758210800592" lon="10.467856992325126"><ele>265.0</ele><time>2026-03-29T07:21:45Z</time></trkpt><trkpt lat="45.587642264768185" lon="10.467956747916599"><ele>265.0</ele><time>2026-03-29T07:21:46Z</time></trkpt><trkpt lat="45.58772014747062" lon="10.468046267066704"><ele>265.0</ele><time>2026-03-29T07:21:47Z</time></trkpt><trkpt lat="45.58779650889541" lon="10.468130260522637"><ele>265.0</ele><time>2026-03-29T07:21:48Z</time></trkpt><trkpt lat="45.5878728430278" lon="10.468178273934955"><ele>265.0</ele><time>2026-03-29T07:21:49Z</time></trkpt><trkpt lat="45.587956193040604" lon="10.468217926627812"><ele>265.0</ele><time>2026-03-29T07:21:51Z</time></trkpt><trkpt lat="45.58802281455418" lon="10.468255206625008"><ele>265.0</ele><time>2026-03-29T07:21:53Z</time></trkpt><trkpt lat="45.588086525329885" lon="10.468411294664229"><ele>265.0</ele><time>2026-03-29T07:21:55Z</time></trkpt><trkpt lat="45.58814049543097" lon="10.468528320117445"><ele>265.0</ele><time>2026-03-29T07:21:56Z</time></trkpt><trkpt lat="45.588185989723755" lon="10.468666981861313"><ele>265.0</ele><time>2026-03-29T07:21:57Z</time></trkpt><trkpt lat="45.588246448432315" lon="10.468799614620066"><ele>263.8</ele><time>2026-03-29T07:21:58Z</time></trkpt><trkpt lat="45.588302525442664" lon="10.468954856686967"><ele>262.6</ele><time>2026-03-29T07:21:59Z</time></trkpt><trkpt lat="45.58836655218756" lon="10.46909383012924"><ele>261.4</ele><time>2026-03-29T07:22:00Z</time></trkpt><trkpt lat="45.588390092899196" lon="10.469242502294447"><ele>260.2</ele><time>2026-03-29T07:22:01Z</time></trkpt><trkpt lat="45.58841899673778" lon="10.469368785456945"><ele>259.0</ele><time>2026-03-29T07:22:02Z</time></trkpt><trkpt lat="45.58844522762678" lon="10.469484073633895"><ele>259.0</ele><time>2026-03-29T07:22:03Z</time></trkpt><trkpt lat="45.58848118750857" lon="10.469587786664476"><ele>259.0</ele><time>2026-03-29T07:22:04Z</time></trkpt><trkpt lat="45.588525069059585" lon="10.469709009620452"><ele>259.0</ele><time>2026-03-29T07:22:05Z</time></trkpt><trkpt lat="45.58857182354675" lon="10.469821320101545"><ele>259.0</ele><time>2026-03-29T07:22:06Z</time></trkpt><trkpt lat="45.58861321338141" lon="10.469919516046602"><ele>259.0</ele><time>2026-03-29T07:22:07Z</time></trkpt><trkpt lat="45.58865821802536" lon="10.470043850849954"><ele>259.0</ele><time>2026-03-29T07:22:09Z</time></trkpt><trkpt lat="45.58866765561709" lon="10.470146444946595"><ele>259.8</ele><time>2026-03-29T07:22:11Z</time></trkpt><trkpt lat="45.588684851998195" lon="10.470292792513973"><ele>260.59999999999997</ele><time>2026-03-29T07:22:13Z</time></trkpt><trkpt lat="45.58869671238529" lon="10.470457038717303"><ele>261.4</ele><time>2026-03-29T07:22:15Z</time></trkpt><trkpt lat="45.58870668204519" lon="10.470555753108266"><ele>262.2</ele><time>2026-03-29T07:22:16Z</time></trkpt><trkpt lat="45.588714751051185" lon="10.47065044197932"><ele>263.0</ele><time>2026-03-29T07:22:17Z</time></trkpt><trkpt lat="45.58872767417117" lon="10.470802253578974"><ele>263.0</ele><time>2026-03-29T07:22:19Z</time></trkpt><trkpt lat="45.58873063634745" lon="10.470918573947113"><ele>263.0</ele><time>2026-03-29T07:22:21Z</time></trkpt><trkpt lat="45.58873225478283" lon="10.471009876069465"><ele>263.0</ele><time>2026-03-29T07:22:22Z</time></trkpt><trkpt lat="45.58873186222478" lon="10.4712182313147"><ele>263.0</ele><time>2026-03-29T07:22:24Z</time></trkpt><trkpt lat="45.588731475364185" lon="10.471346939700116"><ele>263.0</ele><time>2026-03-29T07:22:25Z</time></trkpt><trkpt lat="45.588749070915696" lon="10.471471037450723"><ele>263.2</ele><time>2026-03-29T07:22:26Z</time></trkpt><trkpt lat="45.58874918273417" lon="10.471592856462577"><ele>263.4</ele><time>2026-03-29T07:22:27Z</time></trkpt><trkpt lat="45.58875110618424" lon="10.471746910249271"><ele>263.59999999999997</ele><time>2026-03-29T07:22:28Z</time></trkpt><trkpt lat="45.58875350910365" lon="10.471896067766586"><ele>263.8</ele><time>2026-03-29T07:22:29Z</time></trkpt><trkpt lat="45.58876004499236" lon="10.472033144295324"><ele>264.0</ele><time>2026-03-29T07:22:30Z</time></trkpt><trkpt lat="45.58877120283057" lon="10.472173192894537"><ele>264.4</ele><time>2026-03-29T07:22:31Z</time></trkpt><trkpt lat="45.58877779506287" lon="10.472305908722191"><ele>264.79999999999995</ele><time>2026-03-29T07:22:32Z</time></trkpt><trkpt lat="45.588792079836956" lon="10.472441325389768"><ele>265.20000000000005</ele><time>2026-03-29T07:22:33Z</time></trkpt><trkpt lat="45.588799993886816" lon="10.472580125045546"><ele>265.6</ele><time>2026-03-29T07:22:34Z</time></trkpt><trkpt lat="45.588834077821225" lon="10.472734350513717"><ele>266.0</ele><time>2026-03-29T07:22:35Z</time></trkpt><trkpt lat="45.58885042294924" lon="10.472875822010577"><ele>266.2</ele><time>2026-03-29T07:22:36Z</time></trkpt><trkpt lat="45.58887253098587" lon="10.473018952849547"><ele>266.40000000000003</ele><time>2026-03-29T07:22:37Z</time></trkpt><trkpt lat="45.588899426694105" lon="10.473169602650922"><ele>266.6</ele><time>2026-03-29T07:22:38Z</time></trkpt><trkpt lat="45.58892163157562" lon="10.473306005674202"><ele>266.8</ele><time>2026-03-29T07:22:39Z</time></trkpt><trkpt lat="45.58894824550327" lon="10.473452051991696"><ele>267.0</ele><time>2026-03-29T07:22:40Z</time></trkpt><trkpt lat="45.588948570394926" lon="10.473596649970071"><ele>267.0</ele><time>2026-03-29T07:22:41Z</time></trkpt><trkpt lat="45.588941680991" lon="10.473715417696729"><ele>267.0</ele><time>2026-03-29T07:22:42Z</time></trkpt><trkpt lat="45.588932592008696" lon="10.473841302451353"><ele>267.0</ele><time>2026-03-29T07:22:43Z</time></trkpt><trkpt lat="45.58893496691689" lon="10.47394427489377"><ele>267.0</ele><time>2026-03-29T07:22:44Z</time></trkpt><trkpt lat="45.58892597316532" lon="10.474054633223405"><ele>267.0</ele><time>2026-03-29T07:22:45Z</time></trkpt><trkpt lat="45.58891689983368" lon="10.474181216727684"><ele>267.0</ele><time>2026-03-29T07:22:46Z</time></trkpt><trkpt lat="45.58889387934771" lon="10.474302318503096"><ele>266.8333333333333</ele><time>2026-03-29T07:22:47Z</time></trkpt><trkpt lat="45.588875478599" lon="10.474407936627697"><ele>266.6666666666667</ele><time>2026-03-29T07:22:48Z</time></trkpt><trkpt lat="45.58886702041629" lon="10.474511040587046"><ele>266.5</ele><time>2026-03-29T07:22:49Z</time></trkpt><trkpt lat="45.588858913835395" lon="10.474622925162576"><ele>266.33333333333337</ele><time>2026-03-29T07:22:50Z</time></trkpt><trkpt lat="45.588861221024025" lon="10.474748461951942"><ele>266.1666666666667</ele><time>2026-03-29T07:22:51Z</time></trkpt><trkpt lat="45.58887560082067" lon="10.474846703158066"><ele>266.0</ele><time>2026-03-29T07:22:52Z</time></trkpt><trkpt lat="45.58889790688924" lon="10.474985712936062"><ele>265.83333333333337</ele><time>2026-03-29T07:22:53Z</time></trkpt><trkpt lat="45.58888843588144" lon="10.475116279630381"><ele>265.6666666666667</ele><time>2026-03-29T07:22:54Z</time></trkpt><trkpt lat="45.58888579660826" lon="10.47524472235292"><ele>265.5</ele><time>2026-03-29T07:22:55Z</time></trkpt><trkpt lat="45.58886102570996" lon="10.475415167941934"><ele>265.3333333333333</ele><time>2026-03-29T07:22:57Z</time></trkpt><trkpt lat="45.58884428761064" lon="10.475511510887152"><ele>265.16666666666663</ele><time>2026-03-29T07:22:58Z</time></trkpt><trkpt lat="45.588825537454206" lon="10.47559983087134"><ele>265.0</ele><time>2026-03-29T07:22:59Z</time></trkpt><trkpt lat="45.588818148876975" lon="10.475764348981476"><ele>265.0</ele><time>2026-03-29T07:23:01Z</time></trkpt><trkpt lat="45.58881930314263" lon="10.47586108754158"><ele>265.0</ele><time>2026-03-29T07:23:02Z</time></trkpt><trkpt lat="45.58883084197376" lon="10.47595989166691"><ele>265.0</ele><time>2026-03-29T07:23:03Z</time></trkpt><trkpt lat="45.588850438557564" lon="10.476079522694071"><ele>265.0</ele><time>2026-03-29T07:23:04Z</time></trkpt><trkpt lat="45.588883772966255" lon="10.476218512004156"><ele>265.0</ele><time>2026-03-29T07:23:05Z</time></trkpt><trkpt lat="45.588922561795776" lon="10.47638547885865"><ele>265.2</ele><time>2026-03-29T07:23:06Z</time></trkpt><trkpt lat="45.588935961345555" lon="10.476534142630795"><ele>265.4</ele><time>2026-03-29T07:23:07Z</time></trkpt><trkpt lat="45.58893074838161" lon="10.476695124964186"><ele>265.6</ele><time>2026-03-29T07:23:08Z</time></trkpt><trkpt lat="45.5889470944785" lon="10.476815125143506"><ele>265.8</ele><time>2026-03-29T07:23:09Z</time></trkpt><trkpt lat="45.58895644811904" lon="10.476944507897292"><ele>266.0</ele><time>2026-03-29T07:23:11Z</time></trkpt><trkpt lat="45.58895563032578" lon="10.477093169643396"><ele>267.0</ele><time>2026-03-29T07:23:13Z</time></trkpt><trkpt lat="45.588978213601685" lon="10.477194062692334"><ele>268.0</ele><time>2026-03-29T07:23:14Z</time></trkpt><trkpt lat="45.588966381093215" lon="10.477301446053275"><ele>269.0</ele><time>2026-03-29T07:23:15Z</time></trkpt><trkpt lat="45.588986281194614" lon="10.477425682423428"><ele>270.0</ele><time>2026-03-29T07:23:16Z</time></trkpt><trkpt lat="45.58898918470699" lon="10.477534753969314"><ele>271.0</ele><time>2026-03-29T07:23:17Z</time></trkpt><trkpt lat="45.588993017376566" lon="10.477649242833474"><ele>272.0</ele><time>2026-03-29T07:23:18Z</time></trkpt><trkpt lat="45.588997302669995" lon="10.477756778507413"><ele>272.0</ele><time>2026-03-29T07:23:19Z</time></trkpt><trkpt lat="45.5889851614493" lon="10.477874275542604"><ele>272.0</ele><time>2026-03-29T07:23:20Z</time></trkpt><trkpt lat="45.58898796514082" lon="10.477983769680105"><ele>272.0</ele><time>2026-03-29T07:23:21Z</time></trkpt><trkpt lat="45.589007933331295" lon="10.478113922920167"><ele>272.0</ele><time>2026-03-29T07:23:23Z</time></trkpt><trkpt lat="45.5890694147317" lon="10.47821964097675"><ele>272.0</ele><time>2026-03-29T07:23:25Z</time></trkpt><trkpt lat="45.589166109905044" lon="10.4781946331495"><ele>272.0</ele><time>2026-03-29T07:23:26Z</time></trkpt><trkpt lat="45.58923728241141" lon="10.478191018630037"><ele>272.6</ele><time>2026-03-29T07:23:27Z</time></trkpt><trkpt lat="45.5893372926833" lon="10.478216663035667"><ele>273.2</ele><time>2026-03-29T07:23:28Z</time></trkpt><trkpt lat="45.58943143897237" lon="10.47824739030849"><ele>273.8</ele><time>2026-03-29T07:23:29Z</time></trkpt><trkpt lat="45.58953300586796" lon="10.478291705456428"><ele>274.4</ele><time>2026-03-29T07:23:30Z</time></trkpt><trkpt lat="45.589637645325034" lon="10.478342144758118"><ele>275.0</ele><time>2026-03-29T07:23:31Z</time></trkpt><trkpt lat="45.589737075643065" lon="10.478404151750565"><ele>275.4</ele><time>2026-03-29T07:23:32Z</time></trkpt><trkpt lat="45.58982537995185" lon="10.478481260311561"><ele>275.8</ele><time>2026-03-29T07:23:33Z</time></trkpt><trkpt lat="45.589917343526274" lon="10.478553687375188"><ele>276.2</ele><time>2026-03-29T07:23:34Z</time></trkpt><trkpt lat="45.590006799489935" lon="10.478616835523821"><ele>276.6</ele><time>2026-03-29T07:23:35Z</time></trkpt><trkpt lat="45.59009032795101" lon="10.47869377465166"><ele>277.0</ele><time>2026-03-29T07:23:36Z</time></trkpt><trkpt lat="45.59016809706919" lon="10.478771084130356"><ele>277.4</ele><time>2026-03-29T07:23:37Z</time></trkpt><trkpt lat="45.590264791238745" lon="10.47883183884558"><ele>277.79999999999995</ele><time>2026-03-29T07:23:38Z</time></trkpt><trkpt lat="45.59035609430152" lon="10.478889357821659"><ele>278.2</ele><time>2026-03-29T07:23:39Z</time></trkpt><trkpt lat="45.59045424714372" lon="10.478947170220955"><ele>278.59999999999997</ele><time>2026-03-29T07:23:40Z</time></trkpt><trkpt lat="45.59057166284791" lon="10.479007461418142"><ele>279.0</ele><time>2026-03-29T07:23:41Z</time></trkpt><trkpt lat="45.59068021685909" lon="10.479084256343997"><ele>279.4</ele><time>2026-03-29T07:23:42Z</time></trkpt><trkpt lat="45.5907879589648" lon="10.479160932991507"><ele>279.79999999999995</ele><time>2026-03-29T07:23:43Z</time></trkpt><trkpt lat="45.59090134178398" lon="10.479222104197586"><ele>280.20000000000005</ele><time>2026-03-29T07:23:44Z</time></trkpt><trkpt lat="45.5909830349992" lon="10.479289289351447"><ele>280.6</ele><time>2026-03-29T07:23:45Z</time></trkpt><trkpt lat="45.591051080188315" lon="10.479369100786995"><ele>281.0</ele><time>2026-03-29T07:23:46Z</time></trkpt><trkpt lat="45.591128293169874" lon="10.479417117832782"><ele>281.25</ele><time>2026-03-29T07:23:47Z</time></trkpt><trkpt lat="45.591226125990964" lon="10.479425694504448"><ele>281.5</ele><time>2026-03-29T07:23:48Z</time></trkpt><trkpt lat="45.591321339431246" lon="10.479446798312084"><ele>281.75</ele><time>2026-03-29T07:23:49Z</time></trkpt><trkpt lat="45.591446208988664" lon="10.479481279744704"><ele>282.0</ele><time>2026-03-29T07:23:50Z</time></trkpt><trkpt lat="45.59157905439725" lon="10.47951464650156"><ele>282.0</ele><time>2026-03-29T07:23:51Z</time></trkpt><trkpt lat="45.59171611396168" lon="10.479548310736362"><ele>282.0</ele><time>2026-03-29T07:23:52Z</time></trkpt><trkpt lat="45.5918248949246" lon="10.47959645430194"><ele>282.0</ele><time>2026-03-29T07:23:53Z</time></trkpt><trkpt lat="45.59192328920137" lon="10.479605536102737"><ele>282.0</ele><time>2026-03-29T07:23:54Z</time></trkpt><trkpt lat="45.59201024431646" lon="10.47965937419403"><ele>282.0</ele><time>2026-03-29T07:23:55Z</time></trkpt><trkpt lat="45.592112375167986" lon="10.479682079220508"><ele>283.6</ele><time>2026-03-29T07:23:56Z</time></trkpt><trkpt lat="45.59221845149049" lon="10.47974007292939"><ele>285.2</ele><time>2026-03-29T07:23:57Z</time></trkpt><trkpt lat="45.592317645381655" lon="10.47980647371977"><ele>286.8</ele><time>2026-03-29T07:23:58Z</time></trkpt><trkpt lat="45.59240811862308" lon="10.479893880571082"><ele>288.4</ele><time>2026-03-29T07:23:59Z</time></trkpt><trkpt lat="45.592474024642165" lon="10.479955032139003"><ele>290.0</ele><time>2026-03-29T07:24:00Z</time></trkpt><trkpt lat="45.592565922709596" lon="10.47999214061304"><ele>290.0</ele><time>2026-03-29T07:24:01Z</time></trkpt><trkpt lat="45.59264967298879" lon="10.480022119666755"><ele>290.0</ele><time>2026-03-29T07:24:02Z</time></trkpt><trkpt lat="45.5927334800075" lon="10.480038728294574"><ele>290.0</ele><time>2026-03-29T07:24:03Z</time></trkpt><trkpt lat="45.59282497106877" lon="10.480057701267569"><ele>290.0</ele><time>2026-03-29T07:24:04Z</time></trkpt><trkpt lat="45.592920388974036" lon="10.480074250958777"><ele>290.0</ele><time>2026-03-29T07:24:05Z</time></trkpt><trkpt lat="45.593007107883224" lon="10.480083438676104"><ele>290.0</ele><time>2026-03-29T07:24:06Z</time></trkpt><trkpt lat="45.593096469514215" lon="10.48008148927245"><ele>290.2</ele><time>2026-03-29T07:24:07Z</time></trkpt><trkpt lat="45.59320510221697" lon="10.480075110405682"><ele>290.4</ele><time>2026-03-29T07:24:08Z</time></trkpt><trkpt lat="45.593286627957205" lon="10.480057026048128"><ele>290.6</ele><time>2026-03-29T07:24:09Z</time></trkpt><trkpt lat="45.59337533136834" lon="10.480012458592013"><ele>290.8</ele><time>2026-03-29T07:24:10Z</time></trkpt><trkpt lat="45.593479828791665" lon="10.479972059327167"><ele>291.0</ele><time>2026-03-29T07:24:11Z</time></trkpt><trkpt lat="45.59355339940309" lon="10.479941043392989"><ele>291.0</ele><time>2026-03-29T07:24:12Z</time></trkpt><trkpt lat="45.5936170775301" lon="10.479906505046433"><ele>291.0</ele><time>2026-03-29T07:24:13Z</time></trkpt><trkpt lat="45.59370235569339" lon="10.479937209877926"><ele>291.0</ele><time>2026-03-29T07:24:15Z</time></trkpt><trkpt lat="45.59382646116813" lon="10.479981729940684"><ele>291.0</ele><time>2026-03-29T07:24:19Z</time></trkpt><trkpt lat="45.59393390254418" lon="10.480008035791212"><ele>291.0</ele><time>2026-03-29T07:24:20Z</time></trkpt><trkpt lat="45.59404467051984" lon="10.480030281954132"><ele>291.6</ele><time>2026-03-29T07:24:21Z</time></trkpt><trkpt lat="45.59414841876428" lon="10.48002460125117"><ele>292.20000000000005</ele><time>2026-03-29T07:24:22Z</time></trkpt><trkpt lat="45.5942215761152" lon="10.480039284492591"><ele>292.79999999999995</ele><time>2026-03-29T07:24:23Z</time></trkpt><trkpt lat="45.59429315776898" lon="10.480071960601354"><ele>293.4</ele><time>2026-03-29T07:24:26Z</time></trkpt><trkpt lat="45.59434556487476" lon="10.47989473361824"><ele>294.0</ele><time>2026-03-29T07:24:27Z</time></trkpt><trkpt lat="45.594397767373934" lon="10.479755719208493"><ele>295.0</ele><time>2026-03-29T07:24:28Z</time></trkpt><trkpt lat="45.594452747628836" lon="10.479573966811792"><ele>296.0</ele><time>2026-03-29T07:24:29Z</time></trkpt><trkpt lat="45.594503072443935" lon="10.479407979808341"><ele>297.0</ele><time>2026-03-29T07:24:30Z</time></trkpt><trkpt lat="45.59455707381806" lon="10.479256190549686"><ele>298.0</ele><time>2026-03-29T07:24:31Z</time></trkpt><trkpt lat="45.5945142706377" lon="10.479076310519334"><ele>298.0</ele><time>2026-03-29T07:24:32Z</time></trkpt><trkpt lat="45.594458152359934" lon="10.478926605019682"><ele>298.0</ele><time>2026-03-29T07:24:33Z</time></trkpt><trkpt lat="45.594368475237076" lon="10.478773397248286"><ele>298.0</ele><time>2026-03-29T07:24:34Z</time></trkpt><trkpt lat="45.59427356012456" lon="10.478606058592884"><ele>298.0</ele><time>2026-03-29T07:24:35Z</time></trkpt><trkpt lat="45.59418214029047" lon="10.478427225560397"><ele>300.5</ele><time>2026-03-29T07:24:36Z</time></trkpt><trkpt lat="45.594097300847885" lon="10.4782603299333"><ele>303.0</ele><time>2026-03-29T07:24:37Z</time></trkpt><trkpt lat="45.59399852866464" lon="10.47810407164182"><ele>305.5</ele><time>2026-03-29T07:24:38Z</time></trkpt><trkpt lat="45.59389137611607" lon="10.477963534395426"><ele>308.0</ele><time>2026-03-29T07:24:39Z</time></trkpt><trkpt lat="45.59382817936995" lon="10.477813139040057"><ele>308.5</ele><time>2026-03-29T07:24:40Z</time></trkpt><trkpt lat="45.59375817376326" lon="10.477696501206193"><ele>309.0</ele><time>2026-03-29T07:24:41Z</time></trkpt><trkpt lat="45.59369633134368" lon="10.477540385679845"><ele>309.5</ele><time>2026-03-29T07:24:42Z</time></trkpt><trkpt lat="45.59363811153123" lon="10.477357869403393"><ele>310.0</ele><time>2026-03-29T07:24:43Z</time></trkpt><trkpt lat="45.59354833661859" lon="10.477192617779439"><ele>311.0</ele><time>2026-03-29T07:24:44Z</time></trkpt><trkpt lat="45.59349703543012" lon="10.47699759057601"><ele>312.0</ele><time>2026-03-29T07:24:45Z</time></trkpt><trkpt lat="45.5934469166224" lon="10.4767959327468"><ele>313.0</ele><time>2026-03-29T07:24:46Z</time></trkpt><trkpt lat="45.59338804955862" lon="10.47659729192452"><ele>314.0</ele><time>2026-03-29T07:24:47Z</time></trkpt><trkpt lat="45.593343712411254" lon="10.476383247099875"><ele>318.0</ele><time>2026-03-29T07:24:48Z</time></trkpt><trkpt lat="45.593301371823244" lon="10.47616975438184"><ele>322.0</ele><time>2026-03-29T07:24:49Z</time></trkpt><trkpt lat="45.59325410171465" lon="10.475948810554362"><ele>326.0</ele><time>2026-03-29T07:24:50Z</time></trkpt><trkpt lat="45.59322815711709" lon="10.475723875151516"><ele>326.0</ele><time>2026-03-29T07:24:51Z</time></trkpt><trkpt lat="45.59317234196108" lon="10.475524035192432"><ele>326.0</ele><time>2026-03-29T07:24:52Z</time></trkpt><trkpt lat="45.59315722777432" lon="10.475312905496146"><ele>326.0</ele><time>2026-03-29T07:24:53Z</time></trkpt><trkpt lat="45.593131406116754" lon="10.475101020387704"><ele>327.25</ele><time>2026-03-29T07:24:54Z</time></trkpt><trkpt lat="45.59309552053816" lon="10.474907129763807"><ele>328.5</ele><time>2026-03-29T07:24:55Z</time></trkpt><trkpt lat="45.593071443062996" lon="10.474714016918627"><ele>329.75</ele><time>2026-03-29T07:24:56Z</time></trkpt><trkpt lat="45.59306327441064" lon="10.4745314392095"><ele>331.0</ele><time>2026-03-29T07:24:57Z</time></trkpt><trkpt lat="45.593042202987604" lon="10.474359636054036"><ele>331.8</ele><time>2026-03-29T07:24:58Z</time></trkpt><trkpt lat="45.5930270644157" lon="10.47420073616219"><ele>332.6</ele><time>2026-03-29T07:24:59Z</time></trkpt><trkpt lat="45.59302201851945" lon="10.474058044526442"><ele>333.4</ele><time>2026-03-29T07:25:00Z</time></trkpt><trkpt lat="45.59304041712172" lon="10.473933750149666"><ele>334.2</ele><time>2026-03-29T07:25:01Z</time></trkpt><trkpt lat="45.59304555436397" lon="10.473799765779638"><ele>335.0</ele><time>2026-03-29T07:25:02Z</time></trkpt><trkpt lat="45.59302122696396" lon="10.473651295649814"><ele>335.0</ele><time>2026-03-29T07:25:03Z</time></trkpt><trkpt lat="45.5929907660189" lon="10.473462689384377"><ele>335.0</ele><time>2026-03-29T07:25:04Z</time></trkpt><trkpt lat="45.59294982906079" lon="10.473284872831647"><ele>335.0</ele><time>2026-03-29T07:25:05Z</time></trkpt><trkpt lat="45.59291156830359" lon="10.473099737839407"><ele>335.0</ele><time>2026-03-29T07:25:06Z</time></trkpt><trkpt lat="45.59290040567609" lon="10.472916327509697"><ele>334.25</ele><time>2026-03-29T07:25:07Z</time></trkpt><trkpt lat="45.59286007844892" lon="10.472738751010475"><ele>333.5</ele><time>2026-03-29T07:25:08Z</time></trkpt><trkpt lat="45.59281122382957" lon="10.472584814542067"><ele>332.75</ele><time>2026-03-29T07:25:09Z</time></trkpt><trkpt lat="45.59271664176423" lon="10.472442375865002"><ele>332.0</ele><time>2026-03-29T07:25:10Z</time></trkpt><trkpt lat="45.59265760517483" lon="10.472263877563286"><ele>328.5</ele><time>2026-03-29T07:25:11Z</time></trkpt><trkpt lat="45.59257361762499" lon="10.47210928538932"><ele>325.0</ele><time>2026-03-29T07:25:12Z</time></trkpt><trkpt lat="45.592513265907876" lon="10.47195293284133"><ele>321.5</ele><time>2026-03-29T07:25:13Z</time></trkpt><trkpt lat="45.592452593940095" lon="10.471791811759374"><ele>318.0</ele><time>2026-03-29T07:25:14Z</time></trkpt><trkpt lat="45.59239387928778" lon="10.471637963682555"><ele>318.0</ele><time>2026-03-29T07:25:15Z</time></trkpt><trkpt lat="45.59235183396123" lon="10.471468919614757"><ele>318.0</ele><time>2026-03-29T07:25:16Z</time></trkpt><trkpt lat="45.592286754604636" lon="10.47129857106499"><ele>318.0</ele><time>2026-03-29T07:25:17Z</time></trkpt><trkpt lat="45.59220943029249" lon="10.471115286074335"><ele>318.0</ele><time>2026-03-29T07:25:18Z</time></trkpt><trkpt lat="45.59213527627072" lon="10.470924688218899"><ele>318.75</ele><time>2026-03-29T07:25:19Z</time></trkpt><trkpt lat="45.59208207401357" lon="10.470734729538423"><ele>319.5</ele><time>2026-03-29T07:25:20Z</time></trkpt><trkpt lat="45.59203983706288" lon="10.470561537014417"><ele>320.25</ele><time>2026-03-29T07:25:21Z</time></trkpt><trkpt lat="45.59200616514142" lon="10.47039012981453"><ele>321.0</ele><time>2026-03-29T07:25:22Z</time></trkpt><trkpt lat="45.59198962397903" lon="10.470223881969424"><ele>318.6</ele><time>2026-03-29T07:25:23Z</time></trkpt><trkpt lat="45.59198598750918" lon="10.470061507761546"><ele>316.20000000000005</ele><time>2026-03-29T07:25:24Z</time></trkpt><trkpt lat="45.59199115964228" lon="10.469889373200347"><ele>313.79999999999995</ele><time>2026-03-29T07:25:25Z</time></trkpt><trkpt lat="45.59198653958895" lon="10.469719743324765"><ele>311.4</ele><time>2026-03-29T07:25:26Z</time></trkpt><trkpt lat="45.59198160165465" lon="10.469584837917132"><ele>309.0</ele><time>2026-03-29T07:25:27Z</time></trkpt><trkpt lat="45.591967852402384" lon="10.469474776108429"><ele>308.8333333333333</ele><time>2026-03-29T07:25:28Z</time></trkpt><trkpt lat="45.59192640200092" lon="10.469377302052704"><ele>308.6666666666667</ele><time>2026-03-29T07:25:29Z</time></trkpt><trkpt lat="45.591868811875976" lon="10.469293682538162"><ele>308.5</ele><time>2026-03-29T07:25:30Z</time></trkpt><trkpt lat="45.59178941214268" lon="10.46923607391364"><ele>308.33333333333337</ele><time>2026-03-29T07:25:31Z</time></trkpt><trkpt lat="45.591691334648495" lon="10.46923951173809"><ele>308.1666666666667</ele><time>2026-03-29T07:25:32Z</time></trkpt><trkpt lat="45.59160291591448" lon="10.469259203661057"><ele>308.0</ele><time>2026-03-29T07:25:33Z</time></trkpt><trkpt lat="45.591522531288454" lon="10.469330915194812"><ele>308.0</ele><time>2026-03-29T07:25:34Z</time></trkpt><trkpt lat="45.59146247845406" lon="10.469426417287195"><ele>308.0</ele><time>2026-03-29T07:25:35Z</time></trkpt><trkpt lat="45.591421593445816" lon="10.469544133909835"><ele>308.0</ele><time>2026-03-29T07:25:36Z</time></trkpt><trkpt lat="45.591363387831265" lon="10.469604600159569"><ele>308.0</ele><time>2026-03-29T07:25:37Z</time></trkpt><trkpt lat="45.591252654404634" lon="10.469643679589685"><ele>308.0</ele><time>2026-03-29T07:25:39Z</time></trkpt><trkpt lat="45.591196257719986" lon="10.469572434583082"><ele>308.0</ele><time>2026-03-29T07:25:40Z</time></trkpt><trkpt lat="45.59113914736081" lon="10.469454372331962"><ele>306.0</ele><time>2026-03-29T07:25:41Z</time></trkpt><trkpt lat="45.591077246930496" lon="10.469307388588486"><ele>304.0</ele><time>2026-03-29T07:25:42Z</time></trkpt><trkpt lat="45.591010106099596" lon="10.469137549614944"><ele>302.0</ele><time>2026-03-29T07:25:43Z</time></trkpt><trkpt lat="45.59091890488849" lon="10.468954264326692"><ele>300.0</ele><time>2026-03-29T07:25:44Z</time></trkpt><trkpt lat="45.590864040798195" lon="10.468750086893856"><ele>298.6666666666667</ele><time>2026-03-29T07:25:45Z</time></trkpt><trkpt lat="45.59081250438017" lon="10.46854496239637"><ele>297.33333333333337</ele><time>2026-03-29T07:25:46Z</time></trkpt><trkpt lat="45.59076057269088" lon="10.468322941309301"><ele>296.0</ele><time>2026-03-29T07:25:47Z</time></trkpt><trkpt lat="45.59070184484668" lon="10.46810380920531"><ele>295.0</ele><time>2026-03-29T07:25:48Z</time></trkpt><trkpt lat="45.59063983796722" lon="10.467862665912067"><ele>294.0</ele><time>2026-03-29T07:25:49Z</time></trkpt><trkpt lat="45.59058241660781" lon="10.467640360404683"><ele>293.0</ele><time>2026-03-29T07:25:50Z</time></trkpt><trkpt lat="45.590535625152356" lon="10.467425257585182"><ele>293.0</ele><time>2026-03-29T07:25:51Z</time></trkpt><trkpt lat="45.59051040297257" lon="10.467215182704232"><ele>293.0</ele><time>2026-03-29T07:25:52Z</time></trkpt><trkpt lat="45.59047379152611" lon="10.467007369952777"><ele>293.0</ele><time>2026-03-29T07:25:53Z</time></trkpt><trkpt lat="45.59043320264102" lon="10.46682081164422"><ele>293.0</ele><time>2026-03-29T07:25:54Z</time></trkpt><trkpt lat="45.5904012670635" lon="10.466639069843774"><ele>291.5</ele><time>2026-03-29T07:25:55Z</time></trkpt><trkpt lat="45.59037376796139" lon="10.466452538625685"><ele>290.0</ele><time>2026-03-29T07:25:56Z</time></trkpt><trkpt lat="45.590339825886446" lon="10.466260390186855"><ele>288.5</ele><time>2026-03-29T07:25:57Z</time></trkpt><trkpt lat="45.5903052325479" lon="10.466064363701724"><ele>287.0</ele><time>2026-03-29T07:25:58Z</time></trkpt><trkpt lat="45.59022937400628" lon="10.465865327409066"><ele>284.6666666666667</ele><time>2026-03-29T07:25:59Z</time></trkpt><trkpt lat="45.59013049470497" lon="10.465676614857697"><ele>282.3333333333333</ele><time>2026-03-29T07:26:00Z</time></trkpt><trkpt lat="45.59003404560854" lon="10.465507931694967"><ele>280.0</ele><time>2026-03-29T07:26:01Z</time></trkpt><trkpt lat="45.58994189677218" lon="10.465347797021384"><ele>278.75</ele><time>2026-03-29T07:26:02Z</time></trkpt><trkpt lat="45.58985799603632" lon="10.465197170865954"><ele>277.5</ele><time>2026-03-29T07:26:03Z</time></trkpt><trkpt lat="45.58976440485395" lon="10.465065933091815"><ele>276.25</ele><time>2026-03-29T07:26:04Z</time></trkpt><trkpt lat="45.58965273204378" lon="10.464956376428518"><ele>275.0</ele><time>2026-03-29T07:26:05Z</time></trkpt><trkpt lat="45.589529508450326" lon="10.464878425114492"><ele>275.0</ele><time>2026-03-29T07:26:06Z</time></trkpt><trkpt lat="45.58939933948203" lon="10.46481989431809"><ele>275.0</ele><time>2026-03-29T07:26:07Z</time></trkpt><trkpt lat="45.589275800929954" lon="10.464778625493182"><ele>275.0</ele><time>2026-03-29T07:26:08Z</time></trkpt><trkpt lat="45.58915083998063" lon="10.464768591827118"><ele>275.0</ele><time>2026-03-29T07:26:09Z</time></trkpt><trkpt lat="45.58902468673988" lon="10.464781937786707"><ele>275.0</ele><time>2026-03-29T07:26:10Z</time></trkpt><trkpt lat="45.58888998016224" lon="10.464802865406718"><ele>275.0</ele><time>2026-03-29T07:26:11Z</time></trkpt><trkpt lat="45.58876145017623" lon="10.464826137128684"><ele>275.0</ele><time>2026-03-29T07:26:12Z</time></trkpt><trkpt lat="45.58865196807871" lon="10.464848561220846"><ele>275.0</ele><time>2026-03-29T07:26:13Z</time></trkpt><trkpt lat="45.588565258991366" lon="10.464853015038988"><ele>273.2</ele><time>2026-03-29T07:26:14Z</time></trkpt><trkpt lat="45.58844318692462" lon="10.46475653512419"><ele>271.4</ele><time>2026-03-29T07:26:16Z</time></trkpt><trkpt lat="45.58839659050004" lon="10.464638083553934"><ele>269.6</ele><time>2026-03-29T07:26:17Z</time></trkpt><trkpt lat="45.588379935453425" lon="10.464495884354005"><ele>267.8</ele><time>2026-03-29T07:26:18Z</time></trkpt><trkpt lat="45.58835999870663" lon="10.464341071292898"><ele>266.0</ele><time>2026-03-29T07:26:19Z</time></trkpt><trkpt lat="45.588326480074954" lon="10.464178806916749"><ele>265.75</ele><time>2026-03-29T07:26:20Z</time></trkpt><trkpt lat="45.588289975228236" lon="10.464011071472543"><ele>265.5</ele><time>2026-03-29T07:26:21Z</time></trkpt><trkpt lat="45.58825304972301" lon="10.463840323757367"><ele>265.25</ele><time>2026-03-29T07:26:22Z</time></trkpt><trkpt lat="45.58821328714558" lon="10.463670188902734"><ele>265.0</ele><time>2026-03-29T07:26:23Z</time></trkpt><trkpt lat="45.58817496930117" lon="10.46350795423783"><ele>265.0</ele><time>2026-03-29T07:26:24Z</time></trkpt><trkpt lat="45.58814769809828" lon="10.463364319381409"><ele>265.0</ele><time>2026-03-29T07:26:25Z</time></trkpt><trkpt lat="45.58813993194827" lon="10.463230957024445"><ele>265.0</ele><time>2026-03-29T07:26:26Z</time></trkpt><trkpt lat="45.58814507822975" lon="10.46309542379295"><ele>265.0</ele><time>2026-03-29T07:26:27Z</time></trkpt><trkpt lat="45.58816331532867" lon="10.462956643801569"><ele>265.0</ele><time>2026-03-29T07:26:28Z</time></trkpt><trkpt lat="45.58818820013848" lon="10.462819095061475"><ele>265.0</ele><time>2026-03-29T07:26:29Z</time></trkpt><trkpt lat="45.58824214293863" lon="10.462705346126839"><ele>265.0</ele><time>2026-03-29T07:26:30Z</time></trkpt><trkpt lat="45.58827387952298" lon="10.462566953628716"><ele>265.0</ele><time>2026-03-29T07:26:31Z</time></trkpt><trkpt lat="45.58831532629073" lon="10.462450605514691"><ele>265.0</ele><time>2026-03-29T07:26:32Z</time></trkpt><trkpt lat="45.58836416821244" lon="10.46233290263034"><ele>265.0</ele><time>2026-03-29T07:26:33Z</time></trkpt><trkpt lat="45.5884157806268" lon="10.462208345037183"><ele>265.25</ele><time>2026-03-29T07:26:34Z</time></trkpt><trkpt lat="45.58847304338559" lon="10.462063477457539"><ele>265.5</ele><time>2026-03-29T07:26:35Z</time></trkpt><trkpt lat="45.58852087534793" lon="10.46191869893676"><ele>265.75</ele><time>2026-03-29T07:26:36Z</time></trkpt><trkpt lat="45.58854946405533" lon="10.46175385688874"><ele>266.0</ele><time>2026-03-29T07:26:37Z</time></trkpt><trkpt lat="45.588587075691706" lon="10.461588235784903"><ele>266.0</ele><time>2026-03-29T07:26:38Z</time></trkpt><trkpt lat="45.588614159913995" lon="10.461416044952562"><ele>266.0</ele><time>2026-03-29T07:26:39Z</time></trkpt><trkpt lat="45.588629247814985" lon="10.461253653105215"><ele>266.0</ele><time>2026-03-29T07:26:40Z</time></trkpt><trkpt lat="45.588660206378314" lon="10.461103621870015"><ele>266.0</ele><time>2026-03-29T07:26:41Z</time></trkpt><trkpt lat="45.5886542129739" lon="10.460943796444981"><ele>265.5</ele><time>2026-03-29T07:26:42Z</time></trkpt><trkpt lat="45.58865635445614" lon="10.460777813857769"><ele>265.0</ele><time>2026-03-29T07:26:43Z</time></trkpt><trkpt lat="45.58865537990623" lon="10.460611745712791"><ele>264.5</ele><time>2026-03-29T07:26:44Z</time></trkpt><trkpt lat="45.588672442958355" lon="10.460457894943294"><ele>264.0</ele><time>2026-03-29T07:26:45Z</time></trkpt><trkpt lat="45.588678444492835" lon="10.46029740870527"><ele>263.5</ele><time>2026-03-29T07:26:46Z</time></trkpt><trkpt lat="45.58867547972099" lon="10.460126997513639"><ele>263.0</ele><time>2026-03-29T07:26:47Z</time></trkpt><trkpt lat="45.58867000719456" lon="10.459924607142035"><ele>262.5</ele><time>2026-03-29T07:26:48Z</time></trkpt><trkpt lat="45.58866444572675" lon="10.459718927429229"><ele>262.0</ele><time>2026-03-29T07:26:49Z</time></trkpt><trkpt lat="45.58865857154436" lon="10.45950168265327"><ele>261.5</ele><time>2026-03-29T07:26:50Z</time></trkpt><trkpt lat="45.58865611982359" lon="10.459303601896464"><ele>261.0</ele><time>2026-03-29T07:26:51Z</time></trkpt><trkpt lat="45.58866942007585" lon="10.459117123899075"><ele>260.5</ele><time>2026-03-29T07:26:52Z</time></trkpt><trkpt lat="45.588724315642416" lon="10.458932807227121"><ele>260.0</ele><time>2026-03-29T07:26:53Z</time></trkpt><trkpt lat="45.588800814956706" lon="10.45874773893073"><ele>259.0</ele><time>2026-03-29T07:26:54Z</time></trkpt><trkpt lat="45.58888964123205" lon="10.45854299545923"><ele>258.0</ele><time>2026-03-29T07:26:55Z</time></trkpt><trkpt lat="45.58897601975656" lon="10.458335964237063"><ele>257.0</ele><time>2026-03-29T07:26:56Z</time></trkpt><trkpt lat="45.58906859124454" lon="10.458110004830248"><ele>259.6666666666667</ele><time>2026-03-29T07:26:57Z</time></trkpt><trkpt lat="45.58915848070315" lon="10.457886443992873"><ele>262.3333333333333</ele><time>2026-03-29T07:26:58Z</time></trkpt><trkpt lat="45.58925938293611" lon="10.457671387893464"><ele>265.0</ele><time>2026-03-29T07:26:59Z</time></trkpt><trkpt lat="45.589358176722676" lon="10.457466908943081"><ele>265.0</ele><time>2026-03-29T07:27:00Z</time></trkpt><trkpt lat="45.589452226734515" lon="10.457276830533447"><ele>265.0</ele><time>2026-03-29T07:27:01Z</time></trkpt><trkpt lat="45.58955222767533" lon="10.457087423764566"><ele>265.0</ele><time>2026-03-29T07:27:02Z</time></trkpt><trkpt lat="45.58965278442935" lon="10.45689911935959"><ele>258.0</ele><time>2026-03-29T07:27:03Z</time></trkpt><trkpt lat="45.589738664118364" lon="10.456719271432593"><ele>251.0</ele><time>2026-03-29T07:27:04Z</time></trkpt><trkpt lat="45.589794149021515" lon="10.456505366170958"><ele>244.0</ele><time>2026-03-29T07:27:05Z</time></trkpt><trkpt lat="45.589853148925435" lon="10.456325009578322"><ele>243.2</ele><time>2026-03-29T07:27:06Z</time></trkpt><trkpt lat="45.589908010688724" lon="10.456166789394427"><ele>242.39999999999998</ele><time>2026-03-29T07:27:07Z</time></trkpt><trkpt lat="45.58994695759115" lon="10.456029810763733"><ele>241.6</ele><time>2026-03-29T07:27:08Z</time></trkpt><trkpt lat="45.58997133719986" lon="10.455887554103557"><ele>240.8</ele><time>2026-03-29T07:27:09Z</time></trkpt><trkpt lat="45.589964867323744" lon="10.455738155865067"><ele>240.0</ele><time>2026-03-29T07:27:10Z</time></trkpt><trkpt lat="45.589913228995734" lon="10.455587249476862"><ele>237.0</ele><time>2026-03-29T07:27:11Z</time></trkpt><trkpt lat="45.589826073219086" lon="10.455428515863204"><ele>234.0</ele><time>2026-03-29T07:27:12Z</time></trkpt><trkpt lat="45.58972489292046" lon="10.455272461909308"><ele>231.0</ele><time>2026-03-29T07:27:13Z</time></trkpt><trkpt lat="45.58962865141671" lon="10.455135682602776"><ele>228.0</ele><time>2026-03-29T07:27:14Z</time></trkpt><trkpt lat="45.58957197125993" lon="10.455008827709298"><ele>228.0</ele><time>2026-03-29T07:27:15Z</time></trkpt><trkpt lat="45.589542536294225" lon="10.454859807889376"><ele>228.0</ele><time>2026-03-29T07:27:16Z</time></trkpt><trkpt lat="45.589566508286566" lon="10.45470733053978"><ele>228.0</ele><time>2026-03-29T07:27:17Z</time></trkpt><trkpt lat="45.58959162748797" lon="10.454544849565536"><ele>228.0</ele><time>2026-03-29T07:27:18Z</time></trkpt><trkpt lat="45.58964402070074" lon="10.454385971799299"><ele>226.60000000000002</ele><time>2026-03-29T07:27:19Z</time></trkpt><trkpt lat="45.58967548690749" lon="10.454243642578408"><ele>225.20000000000002</ele><time>2026-03-29T07:27:20Z</time></trkpt><trkpt lat="45.58967388150934" lon="10.454119415719669"><ele>223.8</ele><time>2026-03-29T07:27:21Z</time></trkpt><trkpt lat="45.589632511579545" lon="10.454009005514692"><ele>222.4</ele><time>2026-03-29T07:27:22Z</time></trkpt><trkpt lat="45.58955652546115" lon="10.453900994815198"><ele>221.0</ele><time>2026-03-29T07:27:23Z</time></trkpt><trkpt lat="45.589447425562824" lon="10.45379251980036"><ele>222.0</ele><time>2026-03-29T07:27:24Z</time></trkpt><trkpt lat="45.58932820662826" lon="10.45367590197295"><ele>223.0</ele><time>2026-03-29T07:27:25Z</time></trkpt><trkpt lat="45.58920812745041" lon="10.453513245462615"><ele>224.0</ele><time>2026-03-29T07:27:26Z</time></trkpt><trkpt lat="45.58909446104967" lon="10.453372827484758"><ele>224.0</ele><time>2026-03-29T07:27:27Z</time></trkpt><trkpt lat="45.5890108038157" lon="10.453246980198887"><ele>223.99999999999997</ele><time>2026-03-29T07:27:28Z</time></trkpt><trkpt lat="45.58894299885932" lon="10.453131507636725"><ele>223.99999999999997</ele><time>2026-03-29T07:27:29Z</time></trkpt><trkpt lat="45.588902596014194" lon="10.452989484869454"><ele>224.0</ele><time>2026-03-29T07:27:30Z</time></trkpt><trkpt lat="45.58889155568055" lon="10.452838519035344"><ele>224.0</ele><time>2026-03-29T07:27:31Z</time></trkpt><trkpt lat="45.58893052481468" lon="10.452691462452988"><ele>223.0</ele><time>2026-03-29T07:27:32Z</time></trkpt><trkpt lat="45.58898061472587" lon="10.45253956814172"><ele>221.99999999999997</ele><time>2026-03-29T07:27:33Z</time></trkpt><trkpt lat="45.58903948985779" lon="10.452394882157652"><ele>220.99999999999997</ele><time>2026-03-29T07:27:34Z</time></trkpt><trkpt lat="45.58907520640531" lon="10.452262456524743"><ele>220.0</ele><time>2026-03-29T07:27:35Z</time></trkpt><trkpt lat="45.58908958772076" lon="10.452130384039362"><ele>219.0</ele><time>2026-03-29T07:27:36Z</time></trkpt><trkpt lat="45.589060670216334" lon="10.451995406592236"><ele>219.0</ele><time>2026-03-29T07:27:37Z</time></trkpt><trkpt lat="45.58899785996407" lon="10.451856805609737"><ele>219.0</ele><time>2026-03-29T07:27:38Z</time></trkpt><trkpt lat="45.588908220634885" lon="10.451713752289242"><ele>219.0</ele><time>2026-03-29T07:27:39Z</time></trkpt><trkpt lat="45.58880662103056" lon="10.451562106219844"><ele>219.0</ele><time>2026-03-29T07:27:40Z</time></trkpt><trkpt lat="45.588697301886256" lon="10.451377362231932"><ele>221.66666666666669</ele><time>2026-03-29T07:27:41Z</time></trkpt><trkpt lat="45.58858988632842" lon="10.451166509961311"><ele>224.33333333333334</ele><time>2026-03-29T07:27:42Z</time></trkpt><trkpt lat="45.588469342440256" lon="10.450984394277578"><ele>227.0</ele><time>2026-03-29T07:27:43Z</time></trkpt><trkpt lat="45.58837840943598" lon="10.450813244087096"><ele>227.0</ele><time>2026-03-29T07:27:44Z</time></trkpt><trkpt lat="45.58829627653783" lon="10.450668243407943"><ele>227.0</ele><time>2026-03-29T07:27:45Z</time></trkpt><trkpt lat="45.588222424389" lon="10.450527275948396"><ele>227.0</ele><time>2026-03-29T07:27:46Z</time></trkpt><trkpt lat="45.588143367645735" lon="10.450392458241351"><ele>227.0</ele><time>2026-03-29T07:27:47Z</time></trkpt><trkpt lat="45.58806524451415" lon="10.450246736764035"><ele>224.75</ele><time>2026-03-29T07:27:48Z</time></trkpt><trkpt lat="45.587986949562435" lon="10.45009319849888"><ele>222.5</ele><time>2026-03-29T07:27:49Z</time></trkpt><trkpt lat="45.587910173417804" lon="10.449952931504674"><ele>220.25</ele><time>2026-03-29T07:27:50Z</time></trkpt><trkpt lat="45.58782556641061" lon="10.449816430399249"><ele>218.0</ele><time>2026-03-29T07:27:51Z</time></trkpt><trkpt lat="45.587733787150576" lon="10.449672133311145"><ele>218.2</ele><time>2026-03-29T07:27:52Z</time></trkpt><trkpt lat="45.58764962764007" lon="10.449543784108206"><ele>218.4</ele><time>2026-03-29T07:27:53Z</time></trkpt><trkpt lat="45.587566741511836" lon="10.449427040158868"><ele>218.59999999999997</ele><time>2026-03-29T07:27:54Z</time></trkpt><trkpt lat="45.587492689804066" lon="10.449322821417823"><ele>218.79999999999998</ele><time>2026-03-29T07:27:55Z</time></trkpt><trkpt lat="45.58743466392934" lon="10.449232534873026"><ele>219.0</ele><time>2026-03-29T07:27:56Z</time></trkpt><trkpt lat="45.58739579142079" lon="10.449147287891197"><ele>219.0</ele><time>2026-03-29T07:27:57Z</time></trkpt><trkpt lat="45.58738495721439" lon="10.44905119655075"><ele>219.0</ele><time>2026-03-29T07:27:58Z</time></trkpt><trkpt lat="45.5873848881108" lon="10.448959395792373"><ele>219.0</ele><time>2026-03-29T07:27:59Z</time></trkpt><trkpt lat="45.587295635607234" lon="10.448841648732223"><ele>219.0</ele><time>2026-03-29T07:28:01Z</time></trkpt><trkpt lat="45.58722295961155" lon="10.448816771355691"><ele>219.0</ele><time>2026-03-29T07:28:02Z</time></trkpt><trkpt lat="45.5871379852928" lon="10.448905620648198"><ele>219.0</ele><time>2026-03-29T07:28:03Z</time></trkpt><trkpt lat="45.587044170537105" lon="10.448951688697727"><ele>218.39999999999998</ele><time>2026-03-29T07:28:04Z</time></trkpt><trkpt lat="45.58694398030881" lon="10.448943381306961"><ele>217.79999999999998</ele><time>2026-03-29T07:28:05Z</time></trkpt><trkpt lat="45.58686292802982" lon="10.4488890267737"><ele>217.20000000000002</ele><time>2026-03-29T07:28:06Z</time></trkpt><trkpt lat="45.586793140859385" lon="10.448769901945454"><ele>216.60000000000002</ele><time>2026-03-29T07:28:07Z</time></trkpt><trkpt lat="45.586733191866614" lon="10.44861278706446"><ele>216.0</ele><time>2026-03-29T07:28:08Z</time></trkpt><trkpt lat="45.5867037736324" lon="10.44842266335679"><ele>216.0</ele><time>2026-03-29T07:28:09Z</time></trkpt><trkpt lat="45.586661029369196" lon="10.44819629670712"><ele>216.0</ele><time>2026-03-29T07:28:10Z</time></trkpt><trkpt lat="45.58660202105994" lon="10.447962550135657"><ele>216.0</ele><time>2026-03-29T07:28:11Z</time></trkpt><trkpt lat="45.58656036757605" lon="10.447728255706492"><ele>214.66666666666669</ele><time>2026-03-29T07:28:12Z</time></trkpt><trkpt lat="45.586515143170224" lon="10.447474666367828"><ele>213.33333333333334</ele><time>2026-03-29T07:28:13Z</time></trkpt><trkpt lat="45.586474120423595" lon="10.447248746771708"><ele>212.0</ele><time>2026-03-29T07:28:14Z</time></trkpt><trkpt lat="45.58645091017699" lon="10.447037972982985"><ele>211.75</ele><time>2026-03-29T07:28:15Z</time></trkpt><trkpt lat="45.58638979822326" lon="10.446850256648798"><ele>211.5</ele><time>2026-03-29T07:28:16Z</time></trkpt><trkpt lat="45.586330149101734" lon="10.446662910152668"><ele>211.25</ele><time>2026-03-29T07:28:17Z</time></trkpt><trkpt lat="45.58625999772391" lon="10.446489493484885"><ele>211.0</ele><time>2026-03-29T07:28:18Z</time></trkpt><trkpt lat="45.58617697578844" lon="10.446306426986457"><ele>210.0</ele><time>2026-03-29T07:28:19Z</time></trkpt><trkpt lat="45.58610464861992" lon="10.446090318788569"><ele>209.0</ele><time>2026-03-29T07:28:20Z</time></trkpt><trkpt lat="45.58601873797629" lon="10.445908286864256"><ele>208.0</ele><time>2026-03-29T07:28:21Z</time></trkpt><trkpt lat="45.58594620818123" lon="10.445706464784942"><ele>208.0</ele><time>2026-03-29T07:28:22Z</time></trkpt><trkpt lat="45.58587993843741" lon="10.445509179560158"><ele>208.0</ele><time>2026-03-29T07:28:23Z</time></trkpt><trkpt lat="45.58580860246024" lon="10.44529329273693"><ele>208.0</ele><time>2026-03-29T07:28:24Z</time></trkpt><trkpt lat="45.585737943900355" lon="10.44508193506839"><ele>208.0</ele><time>2026-03-29T07:28:25Z</time></trkpt><trkpt lat="45.585675172420586" lon="10.444889761566131"><ele>208.0</ele><time>2026-03-29T07:28:26Z</time></trkpt><trkpt lat="45.58561750146525" lon="10.444710963635018"><ele>208.0</ele><time>2026-03-29T07:28:27Z</time></trkpt><trkpt lat="45.585563296431864" lon="10.444537195881043"><ele>208.0</ele><time>2026-03-29T07:28:28Z</time></trkpt><trkpt lat="45.585506644243694" lon="10.444358944879749"><ele>207.75</ele><time>2026-03-29T07:28:29Z</time></trkpt><trkpt lat="45.585446687670334" lon="10.444176592046558"><ele>207.5</ele><time>2026-03-29T07:28:30Z</time></trkpt><trkpt lat="45.585388320546755" lon="10.443989193844875"><ele>207.25</ele><time>2026-03-29T07:28:31Z</time></trkpt><trkpt lat="45.585330555524365" lon="10.443805591243228"><ele>207.0</ele><time>2026-03-29T07:28:32Z</time></trkpt><trkpt lat="45.58527979230879" lon="10.443625670666444"><ele>206.75</ele><time>2026-03-29T07:28:33Z</time></trkpt><trkpt lat="45.585243174380174" lon="10.443449799563291"><ele>206.5</ele><time>2026-03-29T07:28:34Z</time></trkpt><trkpt lat="45.58520809610904" lon="10.44326533914581"><ele>206.25</ele><time>2026-03-29T07:28:35Z</time></trkpt><trkpt lat="45.58517667616102" lon="10.443083572914494"><ele>206.0</ele><time>2026-03-29T07:28:36Z</time></trkpt><trkpt lat="45.58514242945069" lon="10.442907544476281"><ele>206.0</ele><time>2026-03-29T07:28:37Z</time></trkpt><trkpt lat="45.58511012774069" lon="10.442747212753472"><ele>206.0</ele><time>2026-03-29T07:28:38Z</time></trkpt><trkpt lat="45.585066314323804" lon="10.442601751136072"><ele>206.0</ele><time>2026-03-29T07:28:39Z</time></trkpt><trkpt lat="45.58501784466285" lon="10.44246361838275"><ele>206.0</ele><time>2026-03-29T07:28:40Z</time></trkpt><trkpt lat="45.584975033958976" lon="10.442341048673352"><ele>206.0</ele><time>2026-03-29T07:28:41Z</time></trkpt><trkpt lat="45.58493722066726" lon="10.442229578259298"><ele>205.99999999999997</ele><time>2026-03-29T07:28:42Z</time></trkpt><trkpt lat="45.58490423938313" lon="10.442136198302277"><ele>206.0</ele><time>2026-03-29T07:28:43Z</time></trkpt><trkpt lat="45.58487087829537" lon="10.442054942845587"><ele>206.0</ele><time>2026-03-29T07:28:44Z</time></trkpt><trkpt lat="45.584837828700195" lon="10.441976609492487"><ele>206.0</ele><time>2026-03-29T07:28:45Z</time></trkpt><trkpt lat="45.58481157579599" lon="10.441886027966907"><ele>206.0</ele><time>2026-03-29T07:28:46Z</time></trkpt><trkpt lat="45.58478107242252" lon="10.441798061950205"><ele>205.99999999999997</ele><time>2026-03-29T07:28:47Z</time></trkpt><trkpt lat="45.584742743783714" lon="10.441726695399426"><ele>206.0</ele><time>2026-03-29T07:28:48Z</time></trkpt><trkpt lat="45.58465667623752" lon="10.441645138745415"><ele>205.8</ele><time>2026-03-29T07:28:50Z</time></trkpt><trkpt lat="45.5845995096182" lon="10.441684924909632"><ele>205.60000000000002</ele><time>2026-03-29T07:28:51Z</time></trkpt><trkpt lat="45.58445847777353" lon="10.441719568928107"><ele>205.4</ele><time>2026-03-29T07:28:53Z</time></trkpt><trkpt lat="45.58437349599823" lon="10.441695251662727"><ele>205.2</ele><time>2026-03-29T07:28:54Z</time></trkpt><trkpt lat="45.58426546151598" lon="10.441659574272439"><ele>205.0</ele><time>2026-03-29T07:28:55Z</time></trkpt><trkpt lat="45.5841429468843" lon="10.441610718737342"><ele>205.0</ele><time>2026-03-29T07:28:56Z</time></trkpt><trkpt lat="45.58403173670221" lon="10.44156452230258"><ele>205.0</ele><time>2026-03-29T07:28:57Z</time></trkpt><trkpt lat="45.58390680242723" lon="10.441501599012716"><ele>205.0</ele><time>2026-03-29T07:28:58Z</time></trkpt><trkpt lat="45.5837612707627" lon="10.441440226449142"><ele>205.0</ele><time>2026-03-29T07:28:59Z</time></trkpt><trkpt lat="45.58363106787592" lon="10.441388327590754"><ele>205.0</ele><time>2026-03-29T07:29:00Z</time></trkpt><trkpt lat="45.58350910224524" lon="10.441340552569994"><ele>205.0</ele><time>2026-03-29T07:29:01Z</time></trkpt><trkpt lat="45.58341136423806" lon="10.441296956156615"><ele>205.0</ele><time>2026-03-29T07:29:02Z</time></trkpt><trkpt lat="45.58331708470333" lon="10.441260482462877"><ele>205.0</ele><time>2026-03-29T07:29:03Z</time></trkpt><trkpt lat="45.583236900105945" lon="10.441225390189885"><ele>205.0</ele><time>2026-03-29T07:29:04Z</time></trkpt><trkpt lat="45.583164467722085" lon="10.44118644940542"><ele>205.0</ele><time>2026-03-29T07:29:05Z</time></trkpt><trkpt lat="45.583097429500675" lon="10.44117916667756"><ele>205.0</ele><time>2026-03-29T07:29:06Z</time></trkpt><trkpt lat="45.58298269647042" lon="10.44118752279604"><ele>205.0</ele><time>2026-03-29T07:29:08Z</time></trkpt><trkpt lat="45.582944220003355" lon="10.441427786888058"><ele>205.0</ele><time>2026-03-29T07:29:09Z</time></trkpt><trkpt lat="45.58287406200264" lon="10.441540488951665"><ele>205.0</ele><time>2026-03-29T07:29:10Z</time></trkpt><trkpt lat="45.58277896772382" lon="10.441652289976496"><ele>205.0</ele><time>2026-03-29T07:29:11Z</time></trkpt><trkpt lat="45.582680389825946" lon="10.441781280538635"><ele>205.0</ele><time>2026-03-29T07:29:12Z</time></trkpt><trkpt lat="45.58257184355548" lon="10.441924112587303"><ele>205.0</ele><time>2026-03-29T07:29:13Z</time></trkpt><trkpt lat="45.582456348748124" lon="10.442054679149082"><ele>204.75</ele><time>2026-03-29T07:29:14Z</time></trkpt><trkpt lat="45.582347368908586" lon="10.44219710688403"><ele>204.5</ele><time>2026-03-29T07:29:15Z</time></trkpt><trkpt lat="45.582243462284836" lon="10.442355094395152"><ele>204.25</ele><time>2026-03-29T07:29:16Z</time></trkpt><trkpt lat="45.5821517215758" lon="10.442522056341327"><ele>204.0</ele><time>2026-03-29T07:29:17Z</time></trkpt><trkpt lat="45.58208235324502" lon="10.44268505870143"><ele>203.75</ele><time>2026-03-29T07:29:18Z</time></trkpt><trkpt lat="45.58201432238951" lon="10.442838173877117"><ele>203.5</ele><time>2026-03-29T07:29:19Z</time></trkpt><trkpt lat="45.581942302369825" lon="10.44298907585597"><ele>203.25</ele><time>2026-03-29T07:29:20Z</time></trkpt><trkpt lat="45.58186156068885" lon="10.443140201172794"><ele>203.0</ele><time>2026-03-29T07:29:21Z</time></trkpt><trkpt lat="45.581775572692365" lon="10.443284792222489"><ele>202.75</ele><time>2026-03-29T07:29:22Z</time></trkpt><trkpt lat="45.58167026252686" lon="10.443409344335665"><ele>202.5</ele><time>2026-03-29T07:29:23Z</time></trkpt><trkpt lat="45.581567890723484" lon="10.443520961903014"><ele>202.25</ele><time>2026-03-29T07:29:24Z</time></trkpt><trkpt lat="45.5814522532391" lon="10.443618661651383"><ele>202.0</ele><time>2026-03-29T07:29:25Z</time></trkpt><trkpt lat="45.58133691397653" lon="10.443723524942547"><ele>202.0</ele><time>2026-03-29T07:29:26Z</time></trkpt><trkpt lat="45.581224147262844" lon="10.443819862660957"><ele>202.0</ele><time>2026-03-29T07:29:27Z</time></trkpt><trkpt lat="45.581098868770965" lon="10.443907030939819"><ele>202.0</ele><time>2026-03-29T07:29:28Z</time></trkpt><trkpt lat="45.58096566503945" lon="10.443979566518161"><ele>202.0</ele><time>2026-03-29T07:29:29Z</time></trkpt><trkpt lat="45.58082765158423" lon="10.444015962084604"><ele>202.0</ele><time>2026-03-29T07:29:30Z</time></trkpt><trkpt lat="45.58068687588208" lon="10.44407157167801"><ele>202.0</ele><time>2026-03-29T07:29:31Z</time></trkpt><trkpt lat="45.58054000855523" lon="10.444139551400651"><ele>202.0</ele><time>2026-03-29T07:29:32Z</time></trkpt><trkpt lat="45.58038489411948" lon="10.444196145181957"><ele>201.75</ele><time>2026-03-29T07:29:33Z</time></trkpt><trkpt lat="45.58023265789509" lon="10.444255890378066"><ele>201.5</ele><time>2026-03-29T07:29:34Z</time></trkpt><trkpt lat="45.580097795839414" lon="10.44430493523334"><ele>201.25</ele><time>2026-03-29T07:29:35Z</time></trkpt><trkpt lat="45.579977778499945" lon="10.444353103293471"><ele>201.0</ele><time>2026-03-29T07:29:36Z</time></trkpt><trkpt lat="45.57986296942533" lon="10.444399799535358"><ele>201.0</ele><time>2026-03-29T07:29:37Z</time></trkpt><trkpt lat="45.57975442838353" lon="10.444413368535702"><ele>201.0</ele><time>2026-03-29T07:29:38Z</time></trkpt><trkpt lat="45.579653185555664" lon="10.444450288925362"><ele>201.0</ele><time>2026-03-29T07:29:39Z</time></trkpt><trkpt lat="45.579558590957404" lon="10.444486269285637"><ele>201.0</ele><time>2026-03-29T07:29:40Z</time></trkpt><trkpt lat="45.579474399547856" lon="10.444541609132962"><ele>201.0</ele><time>2026-03-29T07:29:41Z</time></trkpt><trkpt lat="45.57937512720752" lon="10.444556458962236"><ele>201.25</ele><time>2026-03-29T07:29:42Z</time></trkpt><trkpt lat="45.57926310319412" lon="10.444602953604761"><ele>201.5</ele><time>2026-03-29T07:29:43Z</time></trkpt><trkpt lat="45.57913098992098" lon="10.444658595691642"><ele>201.75</ele><time>2026-03-29T07:29:44Z</time></trkpt><trkpt lat="45.57899637114391" lon="10.444748579074737"><ele>202.0</ele><time>2026-03-29T07:29:45Z</time></trkpt><trkpt lat="45.57886906559786" lon="10.44485830248706"><ele>202.25</ele><time>2026-03-29T07:29:46Z</time></trkpt><trkpt lat="45.57875320791445" lon="10.444934699236901"><ele>202.5</ele><time>2026-03-29T07:29:47Z</time></trkpt><trkpt lat="45.578643702589076" lon="10.445003554895637"><ele>202.75</ele><time>2026-03-29T07:29:48Z</time></trkpt><trkpt lat="45.578541509360754" lon="10.445063715876934"><ele>203.0</ele><time>2026-03-29T07:29:49Z</time></trkpt><trkpt lat="45.578446608943466" lon="10.445107012038543"><ele>203.0</ele><time>2026-03-29T07:29:50Z</time></trkpt><trkpt lat="45.57834686932854" lon="10.44513541448378"><ele>203.0</ele><time>2026-03-29T07:29:51Z</time></trkpt><trkpt lat="45.578248057721716" lon="10.445149535927122"><ele>203.0</ele><time>2026-03-29T07:29:52Z</time></trkpt><trkpt lat="45.57815337621496" lon="10.445159315407489"><ele>203.0</ele><time>2026-03-29T07:29:53Z</time></trkpt><trkpt lat="45.57808151688704" lon="10.445161423694428"><ele>203.0</ele><time>2026-03-29T07:29:54Z</time></trkpt><trkpt lat="45.577994544113665" lon="10.445111906933361"><ele>203.0</ele><time>2026-03-29T07:29:56Z</time></trkpt><trkpt lat="45.57796465409404" lon="10.445027721432284"><ele>203.0</ele><time>2026-03-29T07:29:57Z</time></trkpt><trkpt lat="45.5779374131708" lon="10.444897299371247"><ele>203.0</ele><time>2026-03-29T07:29:58Z</time></trkpt><trkpt lat="45.5779212780259" lon="10.444742548297775"><ele>203.0</ele><time>2026-03-29T07:29:59Z</time></trkpt><trkpt lat="45.57785250126526" lon="10.444580874754303"><ele>203.0</ele><time>2026-03-29T07:30:00Z</time></trkpt><trkpt lat="45.57780076550061" lon="10.444410830023935"><ele>202.75</ele><time>2026-03-29T07:30:01Z</time></trkpt><trkpt lat="45.57774792749728" lon="10.444247480630214"><ele>202.5</ele><time>2026-03-29T07:30:02Z</time></trkpt><trkpt lat="45.577690948466525" lon="10.444078688358921"><ele>202.25</ele><time>2026-03-29T07:30:03Z</time></trkpt><trkpt lat="45.57762641694365" lon="10.443881235074164"><ele>202.0</ele><time>2026-03-29T07:30:04Z</time></trkpt><trkpt lat="45.57756894734155" lon="10.443662086755298"><ele>201.25</ele><time>2026-03-29T07:30:05Z</time></trkpt><trkpt lat="45.577523939289605" lon="10.443462542485449"><ele>200.5</ele><time>2026-03-29T07:30:06Z</time></trkpt><trkpt lat="45.57748282575557" lon="10.443279484661984"><ele>199.75</ele><time>2026-03-29T07:30:07Z</time></trkpt><trkpt lat="45.57743587863574" lon="10.443111486913399"><ele>199.0</ele><time>2026-03-29T07:30:08Z</time></trkpt><trkpt lat="45.577414978678746" lon="10.442943314281397"><ele>198.6</ele><time>2026-03-29T07:30:09Z</time></trkpt><trkpt lat="45.57735025649942" lon="10.442838386831315"><ele>198.2</ele><time>2026-03-29T07:30:10Z</time></trkpt><trkpt lat="45.57730832836514" lon="10.442737625804812"><ele>197.79999999999998</ele><time>2026-03-29T07:30:11Z</time></trkpt><trkpt lat="45.5772224569833" lon="10.442611122631057"><ele>197.39999999999998</ele><time>2026-03-29T07:30:13Z</time></trkpt><trkpt lat="45.57716201749372" lon="10.442506756053747"><ele>197.0</ele><time>2026-03-29T07:30:15Z</time></trkpt><trkpt lat="45.577110996966965" lon="10.44243783056852"><ele>197.0</ele><time>2026-03-29T07:30:17Z</time></trkpt><trkpt lat="45.57707522543722" lon="10.442306970168369"><ele>197.0</ele><time>2026-03-29T07:30:19Z</time></trkpt><trkpt lat="45.577023477400544" lon="10.442177845672072"><ele>197.0</ele><time>2026-03-29T07:30:21Z</time></trkpt><trkpt lat="45.57695491891439" lon="10.44216656600359"><ele>197.0</ele><time>2026-03-29T07:30:22Z</time></trkpt><trkpt lat="45.57688196726412" lon="10.442216475966635"><ele>197.0</ele><time>2026-03-29T07:30:23Z</time></trkpt><trkpt lat="45.576828859330085" lon="10.442343053405429"><ele>197.39999999999998</ele><time>2026-03-29T07:30:24Z</time></trkpt><trkpt lat="45.57676199274199" lon="10.442450023691755"><ele>197.79999999999998</ele><time>2026-03-29T07:30:25Z</time></trkpt><trkpt lat="45.576689918877875" lon="10.442534685178607"><ele>198.2</ele><time>2026-03-29T07:30:26Z</time></trkpt><trkpt lat="45.57660756936697" lon="10.442605739169279"><ele>198.6</ele><time>2026-03-29T07:30:27Z</time></trkpt><trkpt lat="45.57653990303254" lon="10.442668135358717"><ele>199.0</ele><time>2026-03-29T07:30:28Z</time></trkpt><trkpt lat="45.576450582393846" lon="10.442775645152704"><ele>199.0</ele><time>2026-03-29T07:30:30Z</time></trkpt><trkpt lat="45.57634500564716" lon="10.442874179722821"><ele>199.0</ele><time>2026-03-29T07:30:32Z</time></trkpt><trkpt lat="45.57628467925745" lon="10.44291607332499"><ele>199.0</ele><time>2026-03-29T07:30:33Z</time></trkpt><trkpt lat="45.5761807153188" lon="10.44296827130389"><ele>199.0</ele><time>2026-03-29T07:30:35Z</time></trkpt><trkpt lat="45.57608375487197" lon="10.443074398806255"><ele>199.0</ele><time>2026-03-29T07:30:37Z</time></trkpt><trkpt lat="45.57605674286814" lon="10.443257903166137"><ele>199.75</ele><time>2026-03-29T07:30:39Z</time></trkpt><trkpt lat="45.57607171117522" lon="10.443400001020834"><ele>200.5</ele><time>2026-03-29T07:30:40Z</time></trkpt><trkpt lat="45.57607014816555" lon="10.443548161060052"><ele>201.25</ele><time>2026-03-29T07:30:41Z</time></trkpt><trkpt lat="45.576026195885134" lon="10.443722953029464"><ele>202.0</ele><time>2026-03-29T07:30:42Z</time></trkpt><trkpt lat="45.57595825544505" lon="10.443876791899017"><ele>202.0</ele><time>2026-03-29T07:30:43Z</time></trkpt><trkpt lat="45.57587436632377" lon="10.444050223498396"><ele>202.0</ele><time>2026-03-29T07:30:44Z</time></trkpt><trkpt lat="45.575796351035464" lon="10.444241587082212"><ele>202.0</ele><time>2026-03-29T07:30:45Z</time></trkpt><trkpt lat="45.57573222872919" lon="10.444421977993782"><ele>202.0</ele><time>2026-03-29T07:30:46Z</time></trkpt><trkpt lat="45.575688322733654" lon="10.444588123811291"><ele>202.0</ele><time>2026-03-29T07:30:47Z</time></trkpt><trkpt lat="45.57565259610584" lon="10.444737432353685"><ele>202.0</ele><time>2026-03-29T07:30:48Z</time></trkpt><trkpt lat="45.57560093860278" lon="10.444885900500724"><ele>202.0</ele><time>2026-03-29T07:30:49Z</time></trkpt><trkpt lat="45.575556355358245" lon="10.445053837829263"><ele>202.0</ele><time>2026-03-29T07:30:50Z</time></trkpt><trkpt lat="45.57543239357083" lon="10.445214090580052"><ele>202.0</ele><time>2026-03-29T07:30:51Z</time></trkpt><trkpt lat="45.57533639763915" lon="10.44539204624093"><ele>202.0</ele><time>2026-03-29T07:30:52Z</time></trkpt><trkpt lat="45.575242579100895" lon="10.445584067891966"><ele>202.0</ele><time>2026-03-29T07:30:53Z</time></trkpt><trkpt lat="45.57514696318897" lon="10.445790372220438"><ele>203.33333333333331</ele><time>2026-03-29T07:30:54Z</time></trkpt><trkpt lat="45.57503163492603" lon="10.446001555606433"><ele>204.66666666666669</ele><time>2026-03-29T07:30:55Z</time></trkpt><trkpt lat="45.57492138198407" lon="10.446186142560222"><ele>206.0</ele><time>2026-03-29T07:30:56Z</time></trkpt><trkpt lat="45.5748108008443" lon="10.446353501993247"><ele>207.0</ele><time>2026-03-29T07:30:57Z</time></trkpt><trkpt lat="45.57470057558668" lon="10.44650617240144"><ele>208.0</ele><time>2026-03-29T07:30:58Z</time></trkpt><trkpt lat="45.57458480339289" lon="10.446661443296826"><ele>209.0</ele><time>2026-03-29T07:30:59Z</time></trkpt><trkpt lat="45.5744636826714" lon="10.44681970686983"><ele>209.0</ele><time>2026-03-29T07:31:00Z</time></trkpt><trkpt lat="45.574342029495064" lon="10.446992462001912"><ele>209.0</ele><time>2026-03-29T07:31:01Z</time></trkpt><trkpt lat="45.57422300834649" lon="10.447169591704668"><ele>209.0</ele><time>2026-03-29T07:31:02Z</time></trkpt><trkpt lat="45.57409744838088" lon="10.44735388276153"><ele>210.33333333333334</ele><time>2026-03-29T07:31:03Z</time></trkpt><trkpt lat="45.573968288462474" lon="10.447534524404288"><ele>211.66666666666669</ele><time>2026-03-29T07:31:04Z</time></trkpt><trkpt lat="45.573842775420054" lon="10.447712160415554"><ele>213.0</ele><time>2026-03-29T07:31:05Z</time></trkpt><trkpt lat="45.57373487303329" lon="10.447872489106569"><ele>214.75</ele><time>2026-03-29T07:31:06Z</time></trkpt><trkpt lat="45.57364108810796" lon="10.448025552919688"><ele>216.5</ele><time>2026-03-29T07:31:07Z</time></trkpt><trkpt lat="45.57355887909469" lon="10.44819343439347"><ele>218.25</ele><time>2026-03-29T07:31:08Z</time></trkpt><trkpt lat="45.573485968495504" lon="10.448389037540464"><ele>220.0</ele><time>2026-03-29T07:31:09Z</time></trkpt><trkpt lat="45.57342292653152" lon="10.448604376313085"><ele>220.66666666666666</ele><time>2026-03-29T07:31:10Z</time></trkpt><trkpt lat="45.57336035676676" lon="10.448840490234824"><ele>221.33333333333331</ele><time>2026-03-29T07:31:11Z</time></trkpt><trkpt lat="45.573308305813605" lon="10.449057822157032"><ele>222.0</ele><time>2026-03-29T07:31:12Z</time></trkpt><trkpt lat="45.5732566442073" lon="10.449267971736619"><ele>222.0</ele><time>2026-03-29T07:31:13Z</time></trkpt><trkpt lat="45.573209335242424" lon="10.449446199110639"><ele>222.0</ele><time>2026-03-29T07:31:14Z</time></trkpt><trkpt lat="45.5731606426798" lon="10.449623458327693"><ele>222.0</ele><time>2026-03-29T07:31:15Z</time></trkpt><trkpt lat="45.57310199583134" lon="10.44978647544375"><ele>222.0</ele><time>2026-03-29T07:31:16Z</time></trkpt><trkpt lat="45.573030827825356" lon="10.449943477363997"><ele>222.0</ele><time>2026-03-29T07:31:17Z</time></trkpt><trkpt lat="45.572939184367506" lon="10.450089736024372"><ele>222.0</ele><time>2026-03-29T07:31:18Z</time></trkpt><trkpt lat="45.57284550524306" lon="10.450236083405086"><ele>222.0</ele><time>2026-03-29T07:31:19Z</time></trkpt><trkpt lat="45.57271402496578" lon="10.45037459962715"><ele>222.0</ele><time>2026-03-29T07:31:20Z</time></trkpt><trkpt lat="45.57257165483105" lon="10.450556056253097"><ele>222.66666666666669</ele><time>2026-03-29T07:31:21Z</time></trkpt><trkpt lat="45.572417243645795" lon="10.45075285986127"><ele>223.33333333333334</ele><time>2026-03-29T07:31:22Z</time></trkpt><trkpt lat="45.57226890210186" lon="10.450965186263216"><ele>224.0</ele><time>2026-03-29T07:31:23Z</time></trkpt><trkpt lat="45.57210222221012" lon="10.451152633826503"><ele>224.5</ele><time>2026-03-29T07:31:24Z</time></trkpt><trkpt lat="45.57193269821242" lon="10.45137425091293"><ele>225.0</ele><time>2026-03-29T07:31:25Z</time></trkpt><trkpt lat="45.57176871607492" lon="10.451612346521166"><ele>225.0</ele><time>2026-03-29T07:31:26Z</time></trkpt><trkpt lat="45.571614423253294" lon="10.451859518867256"><ele>225.0</ele><time>2026-03-29T07:31:27Z</time></trkpt><trkpt lat="45.57146601937743" lon="10.452111478817507"><ele>225.0</ele><time>2026-03-29T07:31:28Z</time></trkpt><trkpt lat="45.571321698506104" lon="10.452360823012434"><ele>225.0</ele><time>2026-03-29T07:31:29Z</time></trkpt><trkpt lat="45.5711816888941" lon="10.452594255709766"><ele>225.0</ele><time>2026-03-29T07:31:30Z</time></trkpt><trkpt lat="45.57105089140713" lon="10.452802277554884"><ele>225.33333333333331</ele><time>2026-03-29T07:31:31Z</time></trkpt><trkpt lat="45.57092355670256" lon="10.452994711887868"><ele>225.66666666666666</ele><time>2026-03-29T07:31:32Z</time></trkpt><trkpt lat="45.57079301300875" lon="10.453175143365216"><ele>226.0</ele><time>2026-03-29T07:31:33Z</time></trkpt><trkpt lat="45.570656134855405" lon="10.453341836419568"><ele>226.0</ele><time>2026-03-29T07:31:34Z</time></trkpt><trkpt lat="45.570503216606134" lon="10.453499320420699"><ele>226.0</ele><time>2026-03-29T07:31:35Z</time></trkpt><trkpt lat="45.570337860924816" lon="10.453665251719338"><ele>226.0</ele><time>2026-03-29T07:31:36Z</time></trkpt><trkpt lat="45.570176147981975" lon="10.4538325734459"><ele>227.33333333333331</ele><time>2026-03-29T07:31:37Z</time></trkpt><trkpt lat="45.570002615227494" lon="10.454011910127726"><ele>228.66666666666669</ele><time>2026-03-29T07:31:38Z</time></trkpt><trkpt lat="45.56983023930366" lon="10.454194982610044"><ele>230.0</ele><time>2026-03-29T07:31:39Z</time></trkpt><trkpt lat="45.56966310787334" lon="10.454370422322674"><ele>230.33333333333334</ele><time>2026-03-29T07:31:40Z</time></trkpt><trkpt lat="45.569513519871556" lon="10.454527424252646"><ele>230.66666666666669</ele><time>2026-03-29T07:31:41Z</time></trkpt><trkpt lat="45.56937139664366" lon="10.454674630706762"><ele>231.0</ele><time>2026-03-29T07:31:42Z</time></trkpt><trkpt lat="45.56922704996153" lon="10.454822173038298"><ele>232.33333333333331</ele><time>2026-03-29T07:31:43Z</time></trkpt><trkpt lat="45.569075462979775" lon="10.454967029881665"><ele>233.66666666666666</ele><time>2026-03-29T07:31:44Z</time></trkpt><trkpt lat="45.56891598685098" lon="10.455110583085208"><ele>235.0</ele><time>2026-03-29T07:31:45Z</time></trkpt><trkpt lat="45.5687568609579" lon="10.455247487069178"><ele>234.66666666666666</ele><time>2026-03-29T07:31:46Z</time></trkpt><trkpt lat="45.568588342485164" lon="10.455385730396523"><ele>234.33333333333331</ele><time>2026-03-29T07:31:47Z</time></trkpt><trkpt lat="45.56843138535202" lon="10.4555178810305"><ele>234.0</ele><time>2026-03-29T07:31:48Z</time></trkpt><trkpt lat="45.568278082010515" lon="10.455659362629993"><ele>235.0</ele><time>2026-03-29T07:31:49Z</time></trkpt><trkpt lat="45.568145691446205" lon="10.455790057539247"><ele>236.0</ele><time>2026-03-29T07:31:50Z</time></trkpt><trkpt lat="45.56800854356936" lon="10.455951074037879"><ele>237.0</ele><time>2026-03-29T07:31:51Z</time></trkpt><trkpt lat="45.56787798210197" lon="10.456137366468774"><ele>237.33333333333331</ele><time>2026-03-29T07:31:52Z</time></trkpt><trkpt lat="45.56775141871573" lon="10.456330935150179"><ele>237.66666666666666</ele><time>2026-03-29T07:31:53Z</time></trkpt><trkpt lat="45.567623916214416" lon="10.456543600256053"><ele>238.0</ele><time>2026-03-29T07:31:54Z</time></trkpt><trkpt lat="45.56751007152134" lon="10.45673271099005"><ele>238.0</ele><time>2026-03-29T07:31:55Z</time></trkpt><trkpt lat="45.5674032075328" lon="10.45690505857386"><ele>238.0</ele><time>2026-03-29T07:31:56Z</time></trkpt><trkpt lat="45.567297244797366" lon="10.457066340205609"><ele>238.0</ele><time>2026-03-29T07:31:57Z</time></trkpt><trkpt lat="45.56719142738589" lon="10.457227517977147"><ele>238.33333333333331</ele><time>2026-03-29T07:31:58Z</time></trkpt><trkpt lat="45.567084368247734" lon="10.457400971042347"><ele>238.66666666666669</ele><time>2026-03-29T07:31:59Z</time></trkpt><trkpt lat="45.5669807745901" lon="10.457551404180498"><ele>239.0</ele><time>2026-03-29T07:32:00Z</time></trkpt><trkpt lat="45.56687034380173" lon="10.457718350781862"><ele>238.25</ele><time>2026-03-29T07:32:01Z</time></trkpt><trkpt lat="45.56676287944784" lon="10.457876448841763"><ele>237.5</ele><time>2026-03-29T07:32:02Z</time></trkpt><trkpt lat="45.56666411088923" lon="10.458023154173198"><ele>236.75</ele><time>2026-03-29T07:32:03Z</time></trkpt><trkpt lat="45.5665678481654" lon="10.458169237635527"><ele>236.0</ele><time>2026-03-29T07:32:04Z</time></trkpt><trkpt lat="45.56648241189822" lon="10.458293032404903"><ele>236.0</ele><time>2026-03-29T07:32:05Z</time></trkpt><trkpt lat="45.56639983958855" lon="10.458417472584188"><ele>236.00000000000003</ele><time>2026-03-29T07:32:06Z</time></trkpt><trkpt lat="45.56632324022798" lon="10.45853345035837"><ele>236.00000000000003</ele><time>2026-03-29T07:32:07Z</time></trkpt><trkpt lat="45.566247450487666" lon="10.458625606626061"><ele>236.0</ele><time>2026-03-29T07:32:08Z</time></trkpt><trkpt lat="45.566157112804696" lon="10.458678266923078"><ele>236.0</ele><time>2026-03-29T07:32:09Z</time></trkpt><trkpt lat="45.56604513227216" lon="10.458699577712862"><ele>236.60000000000002</ele><time>2026-03-29T07:32:10Z</time></trkpt><trkpt lat="45.56592866470689" lon="10.458681257335698"><ele>237.20000000000002</ele><time>2026-03-29T07:32:11Z</time></trkpt><trkpt lat="45.56582442717759" lon="10.458640658868163"><ele>237.79999999999998</ele><time>2026-03-29T07:32:12Z</time></trkpt><trkpt lat="45.565739856095504" lon="10.458594113610273"><ele>238.39999999999998</ele><time>2026-03-29T07:32:13Z</time></trkpt><trkpt lat="45.56566526114437" lon="10.458532014886915"><ele>239.0</ele><time>2026-03-29T07:32:14Z</time></trkpt><trkpt lat="45.56558657667857" lon="10.458499934236935"><ele>239.00000000000003</ele><time>2026-03-29T07:32:15Z</time></trkpt><trkpt lat="45.56549662877575" lon="10.458491323004917"><ele>239.0</ele><time>2026-03-29T07:32:16Z</time></trkpt><trkpt lat="45.565417406016365" lon="10.458449407141611"><ele>239.0</ele><time>2026-03-29T07:32:17Z</time></trkpt><trkpt lat="45.56532975410949" lon="10.458432871611556"><ele>239.0</ele><time>2026-03-29T07:32:18Z</time></trkpt><trkpt lat="45.56525635872414" lon="10.458419159905246"><ele>239.00000000000003</ele><time>2026-03-29T07:32:19Z</time></trkpt><trkpt lat="45.56518127059899" lon="10.458403868341874"><ele>239.0</ele><time>2026-03-29T07:32:20Z</time></trkpt><trkpt lat="45.56511285413426" lon="10.458382420698866"><ele>238.83333333333334</ele><time>2026-03-29T07:32:21Z</time></trkpt><trkpt lat="45.56503998224834" lon="10.458348315152321"><ele>238.66666666666669</ele><time>2026-03-29T07:32:22Z</time></trkpt><trkpt lat="45.56496052816861" lon="10.458304455022244"><ele>238.5</ele><time>2026-03-29T07:32:23Z</time></trkpt><trkpt lat="45.56488012790727" lon="10.458255712270194"><ele>238.33333333333331</ele><time>2026-03-29T07:32:24Z</time></trkpt><trkpt lat="45.56479532250807" lon="10.458203162583507"><ele>238.16666666666666</ele><time>2026-03-29T07:32:25Z</time></trkpt><trkpt lat="45.56470834244482" lon="10.458148739190628"><ele>238.0</ele><time>2026-03-29T07:32:26Z</time></trkpt><trkpt lat="45.564613873868936" lon="10.458088196780821"><ele>238.0</ele><time>2026-03-29T07:32:27Z</time></trkpt><trkpt lat="45.5645212685678" lon="10.458028848386412"><ele>238.0</ele><time>2026-03-29T07:32:28Z</time></trkpt><trkpt lat="45.56440733741094" lon="10.457961570199497"><ele>238.0</ele><time>2026-03-29T07:32:29Z</time></trkpt><trkpt lat="45.5642850928531" lon="10.457890793208792"><ele>238.0</ele><time>2026-03-29T07:32:30Z</time></trkpt><trkpt lat="45.564163467533334" lon="10.45782406457447"><ele>237.5</ele><time>2026-03-29T07:32:31Z</time></trkpt><trkpt lat="45.56403302778776" lon="10.457755836507777"><ele>237.0</ele><time>2026-03-29T07:32:32Z</time></trkpt><trkpt lat="45.56391021317536" lon="10.45769297112392"><ele>236.5</ele><time>2026-03-29T07:32:33Z</time></trkpt><trkpt lat="45.563784495418886" lon="10.457634159553047"><ele>236.0</ele><time>2026-03-29T07:32:34Z</time></trkpt><trkpt lat="45.56366601588765" lon="10.457578826190716"><ele>236.0</ele><time>2026-03-29T07:32:35Z</time></trkpt><trkpt lat="45.56357106773669" lon="10.457530706713111"><ele>236.00000000000003</ele><time>2026-03-29T07:32:36Z</time></trkpt><trkpt lat="45.56350063494552" lon="10.457498917716812"><ele>236.00000000000003</ele><time>2026-03-29T07:32:37Z</time></trkpt><trkpt lat="45.56342832339158" lon="10.457501321869449"><ele>236.0</ele><time>2026-03-29T07:32:38Z</time></trkpt><trkpt lat="45.56332532323758" lon="10.457530906340015"><ele>236.0</ele><time>2026-03-29T07:32:40Z</time></trkpt><trkpt lat="45.56327361744563" lon="10.45766519588288"><ele>236.0</ele><time>2026-03-29T07:32:42Z</time></trkpt><trkpt lat="45.56324025165369" lon="10.457867788731948"><ele>236.00000000000003</ele><time>2026-03-29T07:32:44Z</time></trkpt><trkpt lat="45.563225261126384" lon="10.458000167919785"><ele>236.00000000000003</ele><time>2026-03-29T07:32:45Z</time></trkpt><trkpt lat="45.563212842340285" lon="10.458136552383365"><ele>236.0</ele><time>2026-03-29T07:32:46Z</time></trkpt><trkpt lat="45.56320209648675" lon="10.458231596129892"><ele>236.0</ele><time>2026-03-29T07:32:47Z</time></trkpt><trkpt lat="45.5631889641613" lon="10.458353822458294"><ele>236.60000000000002</ele><time>2026-03-29T07:32:48Z</time></trkpt><trkpt lat="45.563166726940956" lon="10.458470954575398"><ele>237.20000000000002</ele><time>2026-03-29T07:32:49Z</time></trkpt><trkpt lat="45.56313863367329" lon="10.458618639028801"><ele>237.79999999999998</ele><time>2026-03-29T07:32:50Z</time></trkpt><trkpt lat="45.563103063510894" lon="10.458762837604468"><ele>238.39999999999998</ele><time>2026-03-29T07:32:51Z</time></trkpt><trkpt lat="45.563071654220316" lon="10.458908958151738"><ele>239.0</ele><time>2026-03-29T07:32:52Z</time></trkpt><trkpt lat="45.56304137391742" lon="10.459050153378703"><ele>239.39999999999998</ele><time>2026-03-29T07:32:53Z</time></trkpt><trkpt lat="45.56301192786049" lon="10.459189683442496"><ele>239.79999999999998</ele><time>2026-03-29T07:32:54Z</time></trkpt><trkpt lat="45.56297686604115" lon="10.45933954642662"><ele>240.20000000000002</ele><time>2026-03-29T07:32:55Z</time></trkpt><trkpt lat="45.56293476944297" lon="10.45948973888111"><ele>240.60000000000002</ele><time>2026-03-29T07:32:56Z</time></trkpt><trkpt lat="45.56289208830336" lon="10.459642046731878"><ele>241.0</ele><time>2026-03-29T07:32:57Z</time></trkpt><trkpt lat="45.56285662436366" lon="10.459781718703962"><ele>241.16666666666666</ele><time>2026-03-29T07:32:58Z</time></trkpt><trkpt lat="45.56283224078121" lon="10.459901889228398"><ele>241.33333333333331</ele><time>2026-03-29T07:32:59Z</time></trkpt><trkpt lat="45.56281263369289" lon="10.459990183047823"><ele>241.5</ele><time>2026-03-29T07:33:00Z</time></trkpt><trkpt lat="45.56274167779031" lon="10.460064497323266"><ele>241.66666666666669</ele><time>2026-03-29T07:33:02Z</time></trkpt><trkpt lat="45.56268839300104" lon="10.459999203460637"><ele>241.83333333333334</ele><time>2026-03-29T07:33:03Z</time></trkpt><trkpt lat="45.56261151467342" lon="10.459982529161495"><ele>242.0</ele><time>2026-03-29T07:33:04Z</time></trkpt><trkpt lat="45.562525149685264" lon="10.459929603041292"><ele>242.0</ele><time>2026-03-29T07:33:05Z</time></trkpt><trkpt lat="45.56241457769796" lon="10.459890282702712"><ele>242.0</ele><time>2026-03-29T07:33:06Z</time></trkpt><trkpt lat="45.56229823160263" lon="10.459855350514564"><ele>242.0</ele><time>2026-03-29T07:33:07Z</time></trkpt><trkpt lat="45.56217670881107" lon="10.45981153524422"><ele>242.0</ele><time>2026-03-29T07:33:08Z</time></trkpt><trkpt lat="45.56204884187612" lon="10.459757758401128"><ele>241.5</ele><time>2026-03-29T07:33:09Z</time></trkpt><trkpt lat="45.56191518353107" lon="10.45970537390885"><ele>241.0</ele><time>2026-03-29T07:33:10Z</time></trkpt><trkpt lat="45.56177884419768" lon="10.459645734943447"><ele>240.5</ele><time>2026-03-29T07:33:11Z</time></trkpt><trkpt lat="45.561656406621225" lon="10.459577057442536"><ele>240.0</ele><time>2026-03-29T07:33:12Z</time></trkpt><trkpt lat="45.561539772541806" lon="10.459514905044633"><ele>239.5</ele><time>2026-03-29T07:33:13Z</time></trkpt><trkpt lat="45.5614236636954" lon="10.4594634283242"><ele>239.0</ele><time>2026-03-29T07:33:14Z</time></trkpt><trkpt lat="45.561301724268645" lon="10.459414787385688"><ele>238.5</ele><time>2026-03-29T07:33:15Z</time></trkpt><trkpt lat="45.56116846341545" lon="10.459379402679751"><ele>238.0</ele><time>2026-03-29T07:33:16Z</time></trkpt><trkpt lat="45.56102889578527" lon="10.459361742860555"><ele>237.0</ele><time>2026-03-29T07:33:17Z</time></trkpt><trkpt lat="45.560880038098304" lon="10.45935252583182"><ele>236.0</ele><time>2026-03-29T07:33:18Z</time></trkpt><trkpt lat="45.56073681684798" lon="10.459346374852892"><ele>235.0</ele><time>2026-03-29T07:33:19Z</time></trkpt><trkpt lat="45.560581768815176" lon="10.459314591518437"><ele>234.0</ele><time>2026-03-29T07:33:20Z</time></trkpt><trkpt lat="45.560421885911985" lon="10.4593272854297"><ele>233.5</ele><time>2026-03-29T07:33:21Z</time></trkpt><trkpt lat="45.560271142834864" lon="10.459310690402333"><ele>233.0</ele><time>2026-03-29T07:33:22Z</time></trkpt><trkpt lat="45.56013384032111" lon="10.45926300974525"><ele>232.5</ele><time>2026-03-29T07:33:23Z</time></trkpt><trkpt lat="45.5600143941682" lon="10.45922692056376"><ele>232.0</ele><time>2026-03-29T07:33:24Z</time></trkpt><trkpt lat="45.55993492744519" lon="10.459162567405503"><ele>232.0</ele><time>2026-03-29T07:33:25Z</time></trkpt><trkpt lat="45.5598791654596" lon="10.459063331258035"><ele>232.0</ele><time>2026-03-29T07:33:26Z</time></trkpt><trkpt lat="45.55984199374062" lon="10.458934600892166"><ele>232.0</ele><time>2026-03-29T07:33:27Z</time></trkpt><trkpt lat="45.559832375256896" lon="10.458769492305374"><ele>232.0</ele><time>2026-03-29T07:33:28Z</time></trkpt><trkpt lat="45.55984486851772" lon="10.458570464185888"><ele>232.0</ele><time>2026-03-29T07:33:29Z</time></trkpt><trkpt lat="45.55985800766257" lon="10.458354293245678"><ele>231.5</ele><time>2026-03-29T07:33:30Z</time></trkpt><trkpt lat="45.5598571795965" lon="10.458143709830827"><ele>231.0</ele><time>2026-03-29T07:33:31Z</time></trkpt><trkpt lat="45.559869797732865" lon="10.457940371480566"><ele>230.5</ele><time>2026-03-29T07:33:32Z</time></trkpt><trkpt lat="45.559884756181084" lon="10.457721716036636"><ele>230.0</ele><time>2026-03-29T07:33:33Z</time></trkpt><trkpt lat="45.55989805246489" lon="10.457517618325078"><ele>230.0</ele><time>2026-03-29T07:33:34Z</time></trkpt><trkpt lat="45.55990875130784" lon="10.45733322358336"><ele>230.0</ele><time>2026-03-29T07:33:35Z</time></trkpt><trkpt lat="45.55992038666993" lon="10.45715136238029"><ele>230.0</ele><time>2026-03-29T07:33:36Z</time></trkpt><trkpt lat="45.55993481045829" lon="10.456959174499456"><ele>230.0</ele><time>2026-03-29T07:33:37Z</time></trkpt><trkpt lat="45.55994889891394" lon="10.456767172712961"><ele>230.0</ele><time>2026-03-29T07:33:38Z</time></trkpt><trkpt lat="45.559957102062945" lon="10.456588479220045"><ele>230.0</ele><time>2026-03-29T07:33:39Z</time></trkpt><trkpt lat="45.55996915381255" lon="10.456408562909022"><ele>230.0</ele><time>2026-03-29T07:33:40Z</time></trkpt><trkpt lat="45.55998564454418" lon="10.456216551454974"><ele>230.0</ele><time>2026-03-29T07:33:41Z</time></trkpt><trkpt lat="45.560000196392416" lon="10.456039987167381"><ele>230.0</ele><time>2026-03-29T07:33:42Z</time></trkpt><trkpt lat="45.5600087354117" lon="10.455851081805507"><ele>230.0</ele><time>2026-03-29T07:33:43Z</time></trkpt><trkpt lat="45.56001775147755" lon="10.455661668090034"><ele>230.0</ele><time>2026-03-29T07:33:44Z</time></trkpt><trkpt lat="45.560033360023105" lon="10.455472981152115"><ele>230.0</ele><time>2026-03-29T07:33:45Z</time></trkpt><trkpt lat="45.56004604848203" lon="10.45531407159123"><ele>230.00000000000003</ele><time>2026-03-29T07:33:46Z</time></trkpt><trkpt lat="45.56005582973301" lon="10.45520085163195"><ele>230.0</ele><time>2026-03-29T07:33:47Z</time></trkpt><trkpt lat="45.56005816199481" lon="10.455106683117117"><ele>230.0</ele><time>2026-03-29T07:33:48Z</time></trkpt><trkpt lat="45.56007095980682" lon="10.454998037753468"><ele>230.0</ele><time>2026-03-29T07:33:50Z</time></trkpt><trkpt lat="45.559964080659405" lon="10.45498521806308"><ele>230.00000000000003</ele><time>2026-03-29T07:33:51Z</time></trkpt><trkpt lat="45.55988583736186" lon="10.454999429218546"><ele>230.0</ele><time>2026-03-29T07:33:52Z</time></trkpt><trkpt lat="45.5597874136937" lon="10.455026938222908"><ele>230.0</ele><time>2026-03-29T07:33:53Z</time></trkpt><trkpt lat="45.55968046800649" lon="10.455049849729567"><ele>230.0</ele><time>2026-03-29T07:33:54Z</time></trkpt><trkpt lat="45.559548012372105" lon="10.455035798916471"><ele>230.0</ele><time>2026-03-29T07:33:55Z</time></trkpt><trkpt lat="45.55940951455501" lon="10.455075803157149"><ele>230.0</ele><time>2026-03-29T07:33:56Z</time></trkpt><trkpt lat="45.55927257346036" lon="10.455093310592257"><ele>229.25</ele><time>2026-03-29T07:33:57Z</time></trkpt><trkpt lat="45.55913299795208" lon="10.455068512403622"><ele>228.5</ele><time>2026-03-29T07:33:58Z</time></trkpt><trkpt lat="45.558987373773675" lon="10.455059180559747"><ele>227.75</ele><time>2026-03-29T07:33:59Z</time></trkpt><trkpt lat="45.558836630734405" lon="10.455054905893265"><ele>227.0</ele><time>2026-03-29T07:34:00Z</time></trkpt><trkpt lat="45.55868572459916" lon="10.455093306419643"><ele>226.0</ele><time>2026-03-29T07:34:01Z</time></trkpt><trkpt lat="45.55853143996759" lon="10.455124792159488"><ele>225.0</ele><time>2026-03-29T07:34:02Z</time></trkpt><trkpt lat="45.5583889304375" lon="10.45516726674277"><ele>224.0</ele><time>2026-03-29T07:34:03Z</time></trkpt><trkpt lat="45.55825146383575" lon="10.455189506603752"><ele>223.0</ele><time>2026-03-29T07:34:04Z</time></trkpt><trkpt lat="45.55812743174943" lon="10.455223398524838"><ele>223.0</ele><time>2026-03-29T07:34:05Z</time></trkpt><trkpt lat="45.55801836837874" lon="10.455253243556722"><ele>223.0</ele><time>2026-03-29T07:34:06Z</time></trkpt><trkpt lat="45.55791783867919" lon="10.455280588394464"><ele>223.0</ele><time>2026-03-29T07:34:07Z</time></trkpt><trkpt lat="45.557835640224056" lon="10.45531547333224"><ele>223.0</ele><time>2026-03-29T07:34:08Z</time></trkpt><trkpt lat="45.557758061738525" lon="10.455380200140317"><ele>223.0</ele><time>2026-03-29T07:34:09Z</time></trkpt><trkpt lat="45.55771864671376" lon="10.455507826736554"><ele>224.25</ele><time>2026-03-29T07:34:10Z</time></trkpt><trkpt lat="45.55769481719693" lon="10.455644881180996"><ele>225.5</ele><time>2026-03-29T07:34:11Z</time></trkpt><trkpt lat="45.557686743059634" lon="10.455800987273287"><ele>226.75</ele><time>2026-03-29T07:34:12Z</time></trkpt><trkpt lat="45.55767694864866" lon="10.455993360423319"><ele>228.0</ele><time>2026-03-29T07:34:13Z</time></trkpt><trkpt lat="45.557660223079026" lon="10.456168933088302"><ele>228.60000000000002</ele><time>2026-03-29T07:34:14Z</time></trkpt><trkpt lat="45.55763167541952" lon="10.456318149626181"><ele>229.20000000000002</ele><time>2026-03-29T07:34:15Z</time></trkpt><trkpt lat="45.55758137613579" lon="10.456460222150866"><ele>229.8</ele><time>2026-03-29T07:34:16Z</time></trkpt><trkpt lat="45.55751443372152" lon="10.456583154302757"><ele>230.4</ele><time>2026-03-29T07:34:17Z</time></trkpt><trkpt lat="45.557419646840735" lon="10.456665467202887"><ele>231.0</ele><time>2026-03-29T07:34:18Z</time></trkpt><trkpt lat="45.55732093754313" lon="10.456752483883657"><ele>231.0</ele><time>2026-03-29T07:34:19Z</time></trkpt><trkpt lat="45.55721379395815" lon="10.456851570383291"><ele>231.0</ele><time>2026-03-29T07:34:20Z</time></trkpt><trkpt lat="45.55710772239192" lon="10.456949709364185"><ele>231.0</ele><time>2026-03-29T07:34:21Z</time></trkpt><trkpt lat="45.55700433529402" lon="10.457052743409909"><ele>231.0</ele><time>2026-03-29T07:34:22Z</time></trkpt><trkpt lat="45.55691666678611" lon="10.457161428469504"><ele>233.25</ele><time>2026-03-29T07:34:23Z</time></trkpt><trkpt lat="45.556832659197276" lon="10.457261683255926"><ele>235.5</ele><time>2026-03-29T07:34:24Z</time></trkpt><trkpt lat="45.55673840300285" lon="10.457350690242952"><ele>237.75</ele><time>2026-03-29T07:34:25Z</time></trkpt><trkpt lat="45.5566162896473" lon="10.457404013032559"><ele>240.0</ele><time>2026-03-29T07:34:26Z</time></trkpt><trkpt lat="45.55649167127962" lon="10.457490647701817"><ele>240.0</ele><time>2026-03-29T07:34:27Z</time></trkpt><trkpt lat="45.55635823216078" lon="10.457563268378948"><ele>240.0</ele><time>2026-03-29T07:34:28Z</time></trkpt><trkpt lat="45.556246172574426" lon="10.45765185003382"><ele>240.0</ele><time>2026-03-29T07:34:29Z</time></trkpt><trkpt lat="45.55615834077703" lon="10.45774409276717"><ele>240.0</ele><time>2026-03-29T07:34:30Z</time></trkpt><trkpt lat="45.55608436846764" lon="10.457833925680534"><ele>239.6</ele><time>2026-03-29T07:34:31Z</time></trkpt><trkpt lat="45.556013221166374" lon="10.457926776798782"><ele>239.2</ele><time>2026-03-29T07:34:32Z</time></trkpt><trkpt lat="45.55595577615354" lon="10.45804926800765"><ele>238.8</ele><time>2026-03-29T07:34:33Z</time></trkpt><trkpt lat="45.55590383911363" lon="10.458202809953379"><ele>238.4</ele><time>2026-03-29T07:34:34Z</time></trkpt><trkpt lat="45.55583260600741" lon="10.45831449869338"><ele>238.0</ele><time>2026-03-29T07:34:35Z</time></trkpt><trkpt lat="45.55576158853172" lon="10.458395022087585"><ele>239.25</ele><time>2026-03-29T07:34:36Z</time></trkpt><trkpt lat="45.55566621922903" lon="10.458435990855296"><ele>240.5</ele><time>2026-03-29T07:34:37Z</time></trkpt><trkpt lat="45.555556085397555" lon="10.458493294228946"><ele>241.75</ele><time>2026-03-29T07:34:38Z</time></trkpt><trkpt lat="45.55542285128776" lon="10.45858500449084"><ele>243.0</ele><time>2026-03-29T07:34:39Z</time></trkpt><trkpt lat="45.555276717337264" lon="10.458663750708682"><ele>243.0</ele><time>2026-03-29T07:34:40Z</time></trkpt><trkpt lat="45.555135327848014" lon="10.458719732433282"><ele>243.0</ele><time>2026-03-29T07:34:41Z</time></trkpt><trkpt lat="45.55497979608403" lon="10.458788989256671"><ele>243.0</ele><time>2026-03-29T07:34:42Z</time></trkpt><trkpt lat="45.55484197151892" lon="10.45884763969987"><ele>243.25</ele><time>2026-03-29T07:34:43Z</time></trkpt><trkpt lat="45.554727085505064" lon="10.458920896878148"><ele>243.5</ele><time>2026-03-29T07:34:44Z</time></trkpt><trkpt lat="45.554617590375756" lon="10.4589792795035"><ele>243.75</ele><time>2026-03-29T07:34:45Z</time></trkpt><trkpt lat="45.554518858303034" lon="10.459053065065525"><ele>244.0</ele><time>2026-03-29T07:34:46Z</time></trkpt><trkpt lat="45.55443654414887" lon="10.459145019011002"><ele>244.0</ele><time>2026-03-29T07:34:47Z</time></trkpt><trkpt lat="45.55437714618668" lon="10.45924312730746"><ele>243.99999999999997</ele><time>2026-03-29T07:34:48Z</time></trkpt><trkpt lat="45.554345009510925" lon="10.459350244209286"><ele>243.99999999999997</ele><time>2026-03-29T07:34:49Z</time></trkpt><trkpt lat="45.554330984563386" lon="10.459482658236276"><ele>244.0</ele><time>2026-03-29T07:34:50Z</time></trkpt><trkpt lat="45.554334348789894" lon="10.459620542943153"><ele>244.0</ele><time>2026-03-29T07:34:51Z</time></trkpt><trkpt lat="45.554348994826846" lon="10.459777372767098"><ele>245.0</ele><time>2026-03-29T07:34:52Z</time></trkpt><trkpt lat="45.554337599490346" lon="10.459937129060334"><ele>245.99999999999997</ele><time>2026-03-29T07:34:53Z</time></trkpt><trkpt lat="45.554334544641364" lon="10.460074822614592"><ele>246.99999999999997</ele><time>2026-03-29T07:34:54Z</time></trkpt><trkpt lat="45.554345993390676" lon="10.460183905640228"><ele>248.0</ele><time>2026-03-29T07:34:55Z</time></trkpt><trkpt lat="45.55433416144112" lon="10.46033793937695"><ele>249.0</ele><time>2026-03-29T07:34:57Z</time></trkpt><trkpt lat="45.554348021979095" lon="10.46017064019388"><ele>249.0</ele><time>2026-03-29T07:35:10Z</time></trkpt><trkpt lat="45.55434539108804" lon="10.460045210579661"><ele>248.99999999999997</ele><time>2026-03-29T07:35:11Z</time></trkpt><trkpt lat="45.554349730967935" lon="10.459901615393445"><ele>248.99999999999997</ele><time>2026-03-29T07:35:12Z</time></trkpt><trkpt lat="45.554352502198014" lon="10.459786842954053"><ele>249.0</ele><time>2026-03-29T07:35:13Z</time></trkpt><trkpt lat="45.55435279207558" lon="10.459645802381697"><ele>249.0</ele><time>2026-03-29T07:35:14Z</time></trkpt><trkpt lat="45.55437774069492" lon="10.45953401332215"><ele>247.75</ele><time>2026-03-29T07:35:15Z</time></trkpt><trkpt lat="45.55438476981063" lon="10.459413693130209"><ele>246.5</ele><time>2026-03-29T07:35:17Z</time></trkpt><trkpt lat="45.55418377409671" lon="10.459446709949443"><ele>245.25</ele><time>2026-03-29T07:35:24Z</time></trkpt><trkpt lat="45.554088693750145" lon="10.459536745636516"><ele>244.0</ele><time>2026-03-29T07:35:26Z</time></trkpt><trkpt lat="45.55403772474547" lon="10.459608264353811"><ele>243.57142857142856</ele><time>2026-03-29T07:35:27Z</time></trkpt><trkpt lat="45.553980511195775" lon="10.45968424788896"><ele>243.14285714285714</ele><time>2026-03-29T07:35:28Z</time></trkpt><trkpt lat="45.55392325114086" lon="10.459745974600757"><ele>242.71428571428572</ele><time>2026-03-29T07:35:29Z</time></trkpt><trkpt lat="45.553874352839365" lon="10.459815583949384"><ele>242.28571428571428</ele><time>2026-03-29T07:35:30Z</time></trkpt><trkpt lat="45.55383023953953" lon="10.459883305917636"><ele>241.8571428571429</ele><time>2026-03-29T07:35:31Z</time></trkpt><trkpt lat="45.55378282056362" lon="10.459970403581211"><ele>241.42857142857144</ele><time>2026-03-29T07:35:32Z</time></trkpt><trkpt lat="45.553730134221006" lon="10.460071629475973"><ele>241.0</ele><time>2026-03-29T07:35:33Z</time></trkpt><trkpt lat="45.55368415159119" lon="10.460167311377212"><ele>241.0</ele><time>2026-03-29T07:35:34Z</time></trkpt><trkpt lat="45.553638773312315" lon="10.460272265974007"><ele>241.00000000000003</ele><time>2026-03-29T07:35:35Z</time></trkpt><trkpt lat="45.55360243238231" lon="10.460382378655144"><ele>241.00000000000003</ele><time>2026-03-29T07:35:36Z</time></trkpt><trkpt lat="45.55355687282549" lon="10.460494734224241"><ele>241.0</ele><time>2026-03-29T07:35:37Z</time></trkpt><trkpt lat="45.553500226714355" lon="10.460607089689544"><ele>241.0</ele><time>2026-03-29T07:35:38Z</time></trkpt><trkpt lat="45.553426847729455" lon="10.460735365216642"><ele>241.49999999999997</ele><time>2026-03-29T07:35:40Z</time></trkpt><trkpt lat="45.55337573375857" lon="10.46081807786976"><ele>242.0</ele><time>2026-03-29T07:35:41Z</time></trkpt><trkpt lat="45.5533246209551" lon="10.460879329531625"><ele>242.5</ele><time>2026-03-29T07:35:42Z</time></trkpt><trkpt lat="45.55321864684507" lon="10.460951691992744"><ele>243.0</ele><time>2026-03-29T07:35:44Z</time></trkpt><trkpt lat="45.553150462874015" lon="10.460975468710046"><ele>243.49999999999997</ele><time>2026-03-29T07:35:45Z</time></trkpt><trkpt lat="45.55308557960752" lon="10.460994057572503"><ele>244.0</ele><time>2026-03-29T07:35:46Z</time></trkpt><trkpt lat="45.55302305665996" lon="10.46101412950904"><ele>244.0</ele><time>2026-03-29T07:35:47Z</time></trkpt><trkpt lat="45.5529255148009" lon="10.46102413790035"><ele>243.99999999999997</ele><time>2026-03-29T07:35:49Z</time></trkpt><trkpt lat="45.55288651047728" lon="10.461152727118304"><ele>243.99999999999997</ele><time>2026-03-29T07:35:52Z</time></trkpt><trkpt lat="45.55289176261379" lon="10.461337669528747"><ele>244.0</ele><time>2026-03-29T07:35:54Z</time></trkpt><trkpt lat="45.55286562408438" lon="10.461493449707856"><ele>244.0</ele><time>2026-03-29T07:35:56Z</time></trkpt><trkpt lat="45.5528205947909" lon="10.461575275551874"><ele>243.99999999999997</ele><time>2026-03-29T07:35:58Z</time></trkpt><trkpt lat="45.5527415143088" lon="10.461597774934418"><ele>244.0</ele><time>2026-03-29T07:36:00Z</time></trkpt><trkpt lat="45.55262437505798" lon="10.46158597935564"><ele>244.0</ele><time>2026-03-29T07:36:02Z</time></trkpt><trkpt lat="45.55254758703261" lon="10.461597082603465"><ele>244.0</ele><time>2026-03-29T07:36:03Z</time></trkpt><trkpt lat="45.552461240258744" lon="10.461615777824056"><ele>243.99999999999997</ele><time>2026-03-29T07:36:04Z</time></trkpt><trkpt lat="45.55237978045905" lon="10.461625489989576"><ele>244.0</ele><time>2026-03-29T07:36:05Z</time></trkpt><trkpt lat="45.552267258573885" lon="10.461558870547412"><ele>244.0</ele><time>2026-03-29T07:36:07Z</time></trkpt><trkpt lat="45.55219961500846" lon="10.461433661526954"><ele>243.99999999999997</ele><time>2026-03-29T07:36:09Z</time></trkpt><trkpt lat="45.55209094076579" lon="10.461361051269854"><ele>243.99999999999997</ele><time>2026-03-29T07:36:11Z</time></trkpt><trkpt lat="45.55202140545178" lon="10.46134638432459"><ele>244.0</ele><time>2026-03-29T07:36:12Z</time></trkpt><trkpt lat="45.55193816092559" lon="10.461233645342357"><ele>244.0</ele><time>2026-03-29T07:36:14Z</time></trkpt><trkpt lat="45.551906862602735" lon="10.461144868473314"><ele>243.6</ele><time>2026-03-29T07:36:15Z</time></trkpt><trkpt lat="45.55186345816499" lon="10.461078990275295"><ele>243.2</ele><time>2026-03-29T07:36:16Z</time></trkpt><trkpt lat="45.55169851338547" lon="10.461026348647602"><ele>242.79999999999998</ele><time>2026-03-29T07:36:18Z</time></trkpt><trkpt lat="45.551605061693664" lon="10.461003071693163"><ele>242.39999999999998</ele><time>2026-03-29T07:36:19Z</time></trkpt><trkpt lat="45.55150320987235" lon="10.460994611288744"><ele>242.0</ele><time>2026-03-29T07:36:20Z</time></trkpt><trkpt lat="45.551415792860084" lon="10.461021411636228"><ele>242.0</ele><time>2026-03-29T07:36:21Z</time></trkpt><trkpt lat="45.551313892642725" lon="10.461196814144955"><ele>242.0</ele><time>2026-03-29T07:36:22Z</time></trkpt><trkpt lat="45.55120530254702" lon="10.461216861905777"><ele>242.0</ele><time>2026-03-29T07:36:23Z</time></trkpt><trkpt lat="45.55110896521424" lon="10.461222107920774"><ele>242.0</ele><time>2026-03-29T07:36:24Z</time></trkpt><trkpt lat="45.55101810485778" lon="10.461219679318615"><ele>241.8</ele><time>2026-03-29T07:36:25Z</time></trkpt><trkpt lat="45.55093964903698" lon="10.461217447155608"><ele>241.6</ele><time>2026-03-29T07:36:26Z</time></trkpt><trkpt lat="45.55086544808646" lon="10.46121432412849"><ele>241.40000000000003</ele><time>2026-03-29T07:36:27Z</time></trkpt><trkpt lat="45.550800568253734" lon="10.461211124698472"><ele>241.20000000000002</ele><time>2026-03-29T07:36:28Z</time></trkpt><trkpt lat="45.55072879369817" lon="10.46117651565011"><ele>241.0</ele><time>2026-03-29T07:36:30Z</time></trkpt><trkpt lat="45.55074251882879" lon="10.46081415933256"><ele>240.99999999999997</ele><time>2026-03-29T07:36:31Z</time></trkpt><trkpt lat="45.55074541377041" lon="10.460709017595311"><ele>241.0</ele><time>2026-03-29T07:36:32Z</time></trkpt><trkpt lat="45.55075238100532" lon="10.460596047014622"><ele>241.0</ele><time>2026-03-29T07:36:33Z</time></trkpt><trkpt lat="45.55075615389766" lon="10.460499807190896"><ele>241.0</ele><time>2026-03-29T07:36:34Z</time></trkpt><trkpt lat="45.55073403021592" lon="10.460385393248403"><ele>240.99999999999997</ele><time>2026-03-29T07:36:35Z</time></trkpt><trkpt lat="45.5506687430763" lon="10.460262136267582"><ele>241.0</ele><time>2026-03-29T07:36:37Z</time></trkpt><trkpt lat="45.550542954619814" lon="10.460228751246106"><ele>240.5</ele><time>2026-03-29T07:36:39Z</time></trkpt><trkpt lat="45.55045271444552" lon="10.460250568971407"><ele>240.0</ele><time>2026-03-29T07:36:40Z</time></trkpt><trkpt lat="45.55034290788418" lon="10.460282518288981"><ele>239.5</ele><time>2026-03-29T07:36:41Z</time></trkpt><trkpt lat="45.550221586865966" lon="10.460308591622463"><ele>239.0</ele><time>2026-03-29T07:36:42Z</time></trkpt><trkpt lat="45.5500976346866" lon="10.460333468892621"><ele>239.0</ele><time>2026-03-29T07:36:43Z</time></trkpt><trkpt lat="45.54996087556888" lon="10.460367602490058"><ele>239.0</ele><time>2026-03-29T07:36:44Z</time></trkpt><trkpt lat="45.54983182164259" lon="10.460386731798469"><ele>239.0</ele><time>2026-03-29T07:36:45Z</time></trkpt><trkpt lat="45.5497186517419" lon="10.460401912222839"><ele>239.0</ele><time>2026-03-29T07:36:46Z</time></trkpt><trkpt lat="45.54962353939516" lon="10.460415420361963"><ele>239.0</ele><time>2026-03-29T07:36:47Z</time></trkpt><trkpt lat="45.54954624121409" lon="10.460429517831619"><ele>238.99999999999997</ele><time>2026-03-29T07:36:48Z</time></trkpt><trkpt lat="45.54943226429632" lon="10.4604076641485"><ele>238.99999999999997</ele><time>2026-03-29T07:36:50Z</time></trkpt><trkpt lat="45.54937783686036" lon="10.460346158232033"><ele>239.0</ele><time>2026-03-29T07:36:51Z</time></trkpt><trkpt lat="45.54932984923204" lon="10.460231118785948"><ele>239.0</ele><time>2026-03-29T07:36:52Z</time></trkpt><trkpt lat="45.54927321612393" lon="10.460086316454424"><ele>240.0</ele><time>2026-03-29T07:36:53Z</time></trkpt><trkpt lat="45.54918642994911" lon="10.459939851585158"><ele>241.0</ele><time>2026-03-29T07:36:54Z</time></trkpt><trkpt lat="45.549068612882714" lon="10.459790717733862"><ele>242.0</ele><time>2026-03-29T07:36:55Z</time></trkpt><trkpt lat="45.54895730668522" lon="10.459674280673044"><ele>243.0</ele><time>2026-03-29T07:36:56Z</time></trkpt><trkpt lat="45.54886135597331" lon="10.459574662304078"><ele>243.0</ele><time>2026-03-29T07:36:57Z</time></trkpt><trkpt lat="45.54877695880107" lon="10.459485133364266"><ele>243.0</ele><time>2026-03-29T07:36:58Z</time></trkpt><trkpt lat="45.548695952254015" lon="10.45940224155281"><ele>243.0</ele><time>2026-03-29T07:36:59Z</time></trkpt><trkpt lat="45.548614630973425" lon="10.459331990964595"><ele>243.0</ele><time>2026-03-29T07:37:00Z</time></trkpt><trkpt lat="45.54854200450375" lon="10.459260160175614"><ele>243.0</ele><time>2026-03-29T07:37:01Z</time></trkpt><trkpt lat="45.54848125505119" lon="10.459177529355005"><ele>243.33333333333334</ele><time>2026-03-29T07:37:02Z</time></trkpt><trkpt lat="45.54842506899744" lon="10.459093145558596"><ele>243.66666666666669</ele><time>2026-03-29T07:37:03Z</time></trkpt><trkpt lat="45.548350939322354" lon="10.45903723846516"><ele>244.0</ele><time>2026-03-29T07:37:04Z</time></trkpt><trkpt lat="45.54826949462362" lon="10.45903304235116"><ele>244.33333333333334</ele><time>2026-03-29T07:37:05Z</time></trkpt><trkpt lat="45.548197446291454" lon="10.459081637300924"><ele>244.66666666666669</ele><time>2026-03-29T07:37:06Z</time></trkpt><trkpt lat="45.548144143477884" lon="10.45917898986127"><ele>245.0</ele><time>2026-03-29T07:37:07Z</time></trkpt><trkpt lat="45.54811814816415" lon="10.459293899224502"><ele>245.0</ele><time>2026-03-29T07:37:08Z</time></trkpt><trkpt lat="45.54812001036958" lon="10.459419848157482"><ele>245.0</ele><time>2026-03-29T07:37:09Z</time></trkpt><trkpt lat="45.54816210335067" lon="10.459568282238417"><ele>245.0</ele><time>2026-03-29T07:37:10Z</time></trkpt><trkpt lat="45.54820267889906" lon="10.459722408776582"><ele>245.0</ele><time>2026-03-29T07:37:11Z</time></trkpt><trkpt lat="45.54820753665211" lon="10.459894432203024"><ele>245.0</ele><time>2026-03-29T07:37:12Z</time></trkpt><trkpt lat="45.54823028411909" lon="10.460071731255766"><ele>245.0</ele><time>2026-03-29T07:37:13Z</time></trkpt><trkpt lat="45.54809443887049" lon="10.460265989753582"><ele>245.0</ele><time>2026-03-29T07:37:14Z</time></trkpt><trkpt lat="45.54802816116657" lon="10.460467754642558"><ele>245.0</ele><time>2026-03-29T07:37:15Z</time></trkpt><trkpt lat="45.54795047922316" lon="10.460650557487488"><ele>245.0</ele><time>2026-03-29T07:37:16Z</time></trkpt><trkpt lat="45.54788004640561" lon="10.460857332020076"><ele>245.0</ele><time>2026-03-29T07:37:17Z</time></trkpt><trkpt lat="45.54781909966438" lon="10.461062723927128"><ele>245.0</ele><time>2026-03-29T07:37:18Z</time></trkpt><trkpt lat="45.54777165009018" lon="10.461273613763753"><ele>245.66666666666669</ele><time>2026-03-29T07:37:19Z</time></trkpt><trkpt lat="45.547739611056286" lon="10.461491951444026"><ele>246.33333333333331</ele><time>2026-03-29T07:37:20Z</time></trkpt><trkpt lat="45.547721847141965" lon="10.46172609552789"><ele>247.0</ele><time>2026-03-29T07:37:21Z</time></trkpt><trkpt lat="45.54770667831353" lon="10.461965821144108"><ele>248.0</ele><time>2026-03-29T07:37:22Z</time></trkpt><trkpt lat="45.5476847985747" lon="10.462213697498216"><ele>249.0</ele><time>2026-03-29T07:37:23Z</time></trkpt><trkpt lat="45.54766028438489" lon="10.462454726157848"><ele>250.0</ele><time>2026-03-29T07:37:24Z</time></trkpt><trkpt lat="45.54763702809751" lon="10.462689590823178"><ele>250.0</ele><time>2026-03-29T07:37:25Z</time></trkpt><trkpt lat="45.54761214465768" lon="10.462925353706325"><ele>250.0</ele><time>2026-03-29T07:37:26Z</time></trkpt><trkpt lat="45.54759005258758" lon="10.463149313769392"><ele>250.0</ele><time>2026-03-29T07:37:27Z</time></trkpt><trkpt lat="45.5475659527313" lon="10.463383823365112"><ele>251.0</ele><time>2026-03-29T07:37:28Z</time></trkpt><trkpt lat="45.547543220156086" lon="10.463609030832387"><ele>252.0</ele><time>2026-03-29T07:37:29Z</time></trkpt><trkpt lat="45.54752257385654" lon="10.46381343649111"><ele>253.0</ele><time>2026-03-29T07:37:30Z</time></trkpt><trkpt lat="45.54750120082999" lon="10.464000044186948"><ele>254.0</ele><time>2026-03-29T07:37:31Z</time></trkpt><trkpt lat="45.54748535551411" lon="10.464154144512143"><ele>254.39999999999998</ele><time>2026-03-29T07:37:32Z</time></trkpt><trkpt lat="45.54747379271113" lon="10.464269721705696"><ele>254.79999999999998</ele><time>2026-03-29T07:37:33Z</time></trkpt><trkpt lat="45.54744949742872" lon="10.46439977735168"><ele>255.20000000000002</ele><time>2026-03-29T07:37:35Z</time></trkpt><trkpt lat="45.54744636871743" lon="10.464608614961215"><ele>255.60000000000002</ele><time>2026-03-29T07:37:37Z</time></trkpt><trkpt lat="45.54743028311441" lon="10.46474642212379"><ele>256.0</ele><time>2026-03-29T07:37:38Z</time></trkpt><trkpt lat="45.54740892596565" lon="10.46484006643047"><ele>256.0</ele><time>2026-03-29T07:37:39Z</time></trkpt><trkpt lat="45.547335927361146" lon="10.464912260402125"><ele>256.0</ele><time>2026-03-29T07:37:41Z</time></trkpt><trkpt lat="45.547192880170506" lon="10.464797557328664"><ele>256.0</ele><time>2026-03-29T07:37:43Z</time></trkpt><trkpt lat="45.547087856471656" lon="10.464775235757367"><ele>256.0</ele><time>2026-03-29T07:37:44Z</time></trkpt><trkpt lat="45.54695775798907" lon="10.464748094401513"><ele>255.5</ele><time>2026-03-29T07:37:45Z</time></trkpt><trkpt lat="45.54681706937717" lon="10.464754903588764"><ele>255.0</ele><time>2026-03-29T07:37:46Z</time></trkpt><trkpt lat="45.54666136119655" lon="10.464748844408147"><ele>254.5</ele><time>2026-03-29T07:37:47Z</time></trkpt><trkpt lat="45.546516242062445" lon="10.464744574601394"><ele>254.0</ele><time>2026-03-29T07:37:48Z</time></trkpt><trkpt lat="45.54638177246456" lon="10.464709362020507"><ele>254.0</ele><time>2026-03-29T07:37:49Z</time></trkpt><trkpt lat="45.54624903698572" lon="10.4646665527644"><ele>254.0</ele><time>2026-03-29T07:37:50Z</time></trkpt><trkpt lat="45.54610832672172" lon="10.464599681891265"><ele>254.0</ele><time>2026-03-29T07:37:51Z</time></trkpt><trkpt lat="45.54597255127233" lon="10.464525632972675"><ele>254.0</ele><time>2026-03-29T07:37:52Z</time></trkpt><trkpt lat="45.545826077925696" lon="10.464470577083546"><ele>253.66666666666669</ele><time>2026-03-29T07:37:53Z</time></trkpt><trkpt lat="45.54567607050972" lon="10.464425200905803"><ele>253.33333333333331</ele><time>2026-03-29T07:37:54Z</time></trkpt><trkpt lat="45.54553034250237" lon="10.464380965120322"><ele>253.0</ele><time>2026-03-29T07:37:55Z</time></trkpt><trkpt lat="45.545384446295074" lon="10.464331942032528"><ele>252.75</ele><time>2026-03-29T07:37:56Z</time></trkpt><trkpt lat="45.54525345082429" lon="10.464301901963198"><ele>252.5</ele><time>2026-03-29T07:37:57Z</time></trkpt><trkpt lat="45.545135696536704" lon="10.46423905667731"><ele>252.25</ele><time>2026-03-29T07:37:58Z</time></trkpt><trkpt lat="45.545014523939564" lon="10.464209076626418"><ele>252.0</ele><time>2026-03-29T07:37:59Z</time></trkpt><trkpt lat="45.54489298343939" lon="10.464164235885875"><ele>252.0</ele><time>2026-03-29T07:38:00Z</time></trkpt><trkpt lat="45.54478130362254" lon="10.4641249923567"><ele>252.0</ele><time>2026-03-29T07:38:01Z</time></trkpt><trkpt lat="45.54465735263625" lon="10.464087109915546"><ele>252.0</ele><time>2026-03-29T07:38:02Z</time></trkpt><trkpt lat="45.54453080311746" lon="10.464023203916447"><ele>252.0</ele><time>2026-03-29T07:38:03Z</time></trkpt><trkpt lat="45.544395979830384" lon="10.463998016449757"><ele>252.0</ele><time>2026-03-29T07:38:04Z</time></trkpt><trkpt lat="45.54427440847334" lon="10.46396165523095"><ele>252.0</ele><time>2026-03-29T07:38:05Z</time></trkpt><trkpt lat="45.544164791448914" lon="10.463924323211437"><ele>252.0</ele><time>2026-03-29T07:38:06Z</time></trkpt><trkpt lat="45.54406464289757" lon="10.463879465311349"><ele>252.0</ele><time>2026-03-29T07:38:07Z</time></trkpt><trkpt lat="45.543974173154155" lon="10.463844999148728"><ele>252.0</ele><time>2026-03-29T07:38:08Z</time></trkpt><trkpt lat="45.5438904519861" lon="10.463839833041959"><ele>252.0</ele><time>2026-03-29T07:38:09Z</time></trkpt><trkpt lat="45.54382150483969" lon="10.463828405460916"><ele>252.0</ele><time>2026-03-29T07:38:10Z</time></trkpt><trkpt lat="45.54374583427507" lon="10.463806712061006"><ele>252.0</ele><time>2026-03-29T07:38:11Z</time></trkpt><trkpt lat="45.54365771193117" lon="10.463809714727164"><ele>252.0</ele><time>2026-03-29T07:38:13Z</time></trkpt><trkpt lat="45.54368190571888" lon="10.463720414988991"><ele>252.0</ele><time>2026-03-29T07:38:14Z</time></trkpt><trkpt lat="45.543652656274475" lon="10.46356243559256"><ele>252.0</ele><time>2026-03-29T07:38:16Z</time></trkpt><trkpt lat="45.5436299444825" lon="10.463432169446651"><ele>252.2</ele><time>2026-03-29T07:38:17Z</time></trkpt><trkpt lat="45.543602071939006" lon="10.46327227953912"><ele>252.39999999999998</ele><time>2026-03-29T07:38:18Z</time></trkpt><trkpt lat="45.54357247450063" lon="10.463110340865223"><ele>252.60000000000002</ele><time>2026-03-29T07:38:19Z</time></trkpt><trkpt lat="45.54354149626972" lon="10.462968265837437"><ele>252.8</ele><time>2026-03-29T07:38:20Z</time></trkpt><trkpt lat="45.543501306699646" lon="10.46282790668125"><ele>253.0</ele><time>2026-03-29T07:38:21Z</time></trkpt><trkpt lat="45.543472928951815" lon="10.462671385173199"><ele>253.0</ele><time>2026-03-29T07:38:22Z</time></trkpt><trkpt lat="45.54343523167767" lon="10.46252316871847"><ele>253.0</ele><time>2026-03-29T07:38:23Z</time></trkpt><trkpt lat="45.54342064545403" lon="10.462361295078226"><ele>253.0</ele><time>2026-03-29T07:38:24Z</time></trkpt><trkpt lat="45.543414118036495" lon="10.462196056466217"><ele>253.0</ele><time>2026-03-29T07:38:25Z</time></trkpt><trkpt lat="45.54339708601645" lon="10.462008423804265"><ele>253.2</ele><time>2026-03-29T07:38:26Z</time></trkpt><trkpt lat="45.5433919553729" lon="10.46184334096645"><ele>253.4</ele><time>2026-03-29T07:38:27Z</time></trkpt><trkpt lat="45.54340221489511" lon="10.461697757644375"><ele>253.59999999999997</ele><time>2026-03-29T07:38:28Z</time></trkpt><trkpt lat="45.5433685393543" lon="10.461550567066958"><ele>253.79999999999998</ele><time>2026-03-29T07:38:29Z</time></trkpt><trkpt lat="45.54332206261676" lon="10.46140839229673"><ele>254.0</ele><time>2026-03-29T07:38:30Z</time></trkpt><trkpt lat="45.54327073268026" lon="10.461220325115322"><ele>254.2</ele><time>2026-03-29T07:38:31Z</time></trkpt><trkpt lat="45.54322301728632" lon="10.461051950200737"><ele>254.39999999999998</ele><time>2026-03-29T07:38:32Z</time></trkpt><trkpt lat="45.54318383481426" lon="10.46088056274613"><ele>254.6</ele><time>2026-03-29T07:38:33Z</time></trkpt><trkpt lat="45.543155949491585" lon="10.460762633025093"><ele>254.8</ele><time>2026-03-29T07:38:34Z</time></trkpt><trkpt lat="45.5431347786874" lon="10.460658986749234"><ele>255.0</ele><time>2026-03-29T07:38:35Z</time></trkpt><trkpt lat="45.543145944631235" lon="10.460566783260456"><ele>255.0</ele><time>2026-03-29T07:38:36Z</time></trkpt><trkpt lat="45.543176317891465" lon="10.460455952361754"><ele>255.0</ele><time>2026-03-29T07:38:37Z</time></trkpt><trkpt lat="45.543178661149" lon="10.460346055685667"><ele>255.0</ele><time>2026-03-29T07:38:38Z</time></trkpt><trkpt lat="45.54315949886669" lon="10.460226189281277"><ele>255.0</ele><time>2026-03-29T07:38:39Z</time></trkpt><trkpt lat="45.54310265458801" lon="10.460089699894182"><ele>255.0</ele><time>2026-03-29T07:38:40Z</time></trkpt><trkpt lat="45.54305291867185" lon="10.45994887117071"><ele>255.25</ele><time>2026-03-29T07:38:41Z</time></trkpt><trkpt lat="45.54297763364261" lon="10.459789758971922"><ele>255.5</ele><time>2026-03-29T07:38:42Z</time></trkpt><trkpt lat="45.542940896330954" lon="10.459626332951819"><ele>255.75</ele><time>2026-03-29T07:38:43Z</time></trkpt><trkpt lat="45.54290566231761" lon="10.459475645561275"><ele>256.0</ele><time>2026-03-29T07:38:44Z</time></trkpt><trkpt lat="45.542890532458145" lon="10.459340129093047"><ele>255.60000000000002</ele><time>2026-03-29T07:38:45Z</time></trkpt><trkpt lat="45.54288702289858" lon="10.45919950906471"><ele>255.20000000000002</ele><time>2026-03-29T07:38:46Z</time></trkpt><trkpt lat="45.542903087978786" lon="10.459065990311858"><ele>254.79999999999998</ele><time>2026-03-29T07:38:47Z</time></trkpt><trkpt lat="45.54291321250576" lon="10.458958926590302"><ele>254.39999999999998</ele><time>2026-03-29T07:38:48Z</time></trkpt><trkpt lat="45.54293622897791" lon="10.45883320753345"><ele>254.0</ele><time>2026-03-29T07:38:50Z</time></trkpt><trkpt lat="45.54303130374726" lon="10.458840150921203"><ele>254.0</ele><time>2026-03-29T07:38:52Z</time></trkpt><trkpt lat="45.5431152579056" lon="10.45886774868976"><ele>253.99999999999997</ele><time>2026-03-29T07:38:53Z</time></trkpt><trkpt lat="45.54320046161599" lon="10.458855689451985"><ele>253.99999999999997</ele><time>2026-03-29T07:38:54Z</time></trkpt><trkpt lat="45.543302528531854" lon="10.458852175310922"><ele>254.0</ele><time>2026-03-29T07:38:56Z</time></trkpt><trkpt lat="45.54334950727798" lon="10.458720669320543"><ele>254.0</ele><time>2026-03-29T07:38:58Z</time></trkpt><trkpt lat="45.543313415008164" lon="10.458599879333478"><ele>253.50000000000003</ele><time>2026-03-29T07:38:59Z</time></trkpt><trkpt lat="45.543316109960585" lon="10.458490507776606"><ele>253.0</ele><time>2026-03-29T07:39:00Z</time></trkpt><trkpt lat="45.54328650777236" lon="10.458352633542795"><ele>252.5</ele><time>2026-03-29T07:39:01Z</time></trkpt><trkpt lat="45.543292018032396" lon="10.458238561032418"><ele>252.0</ele><time>2026-03-29T07:39:02Z</time></trkpt><trkpt lat="45.543284140780415" lon="10.458120036317085"><ele>251.50000000000003</ele><time>2026-03-29T07:39:03Z</time></trkpt><trkpt lat="45.54326287255415" lon="10.457985373078033"><ele>251.0</ele><time>2026-03-29T07:39:04Z</time></trkpt><trkpt lat="45.54325600390208" lon="10.457859810894094"><ele>250.66666666666669</ele><time>2026-03-29T07:39:05Z</time></trkpt><trkpt lat="45.54326619885304" lon="10.457729992273144"><ele>250.33333333333334</ele><time>2026-03-29T07:39:06Z</time></trkpt><trkpt lat="45.54326534465571" lon="10.457609191641483"><ele>250.0</ele><time>2026-03-29T07:39:07Z</time></trkpt><trkpt lat="45.54327919696688" lon="10.457493994943851"><ele>249.66666666666669</ele><time>2026-03-29T07:39:08Z</time></trkpt><trkpt lat="45.54331903512508" lon="10.457395475637147"><ele>249.33333333333334</ele><time>2026-03-29T07:39:09Z</time></trkpt><trkpt lat="45.54332694344777" lon="10.457239694047141"><ele>249.0</ele><time>2026-03-29T07:39:10Z</time></trkpt><trkpt lat="45.54337734642443" lon="10.457076238475446"><ele>248.6</ele><time>2026-03-29T07:39:11Z</time></trkpt><trkpt lat="45.54343646658002" lon="10.45694326513637"><ele>248.2</ele><time>2026-03-29T07:39:12Z</time></trkpt><trkpt lat="45.5434857528004" lon="10.456803584020799"><ele>247.79999999999998</ele><time>2026-03-29T07:39:13Z</time></trkpt><trkpt lat="45.54352999039938" lon="10.45665741601687"><ele>247.39999999999998</ele><time>2026-03-29T07:39:14Z</time></trkpt><trkpt lat="45.54354610960429" lon="10.456509368010222"><ele>247.0</ele><time>2026-03-29T07:39:15Z</time></trkpt><trkpt lat="45.54356540268952" lon="10.45633985586056"><ele>247.0</ele><time>2026-03-29T07:39:16Z</time></trkpt><trkpt lat="45.54357597858881" lon="10.456148399834527"><ele>247.0</ele><time>2026-03-29T07:39:17Z</time></trkpt><trkpt lat="45.54358129600008" lon="10.455935483783215"><ele>247.0</ele><time>2026-03-29T07:39:18Z</time></trkpt><trkpt lat="45.54358000161243" lon="10.455709262786138"><ele>247.0</ele><time>2026-03-29T07:39:19Z</time></trkpt><trkpt lat="45.54358636530455" lon="10.455486898547871"><ele>246.39999999999998</ele><time>2026-03-29T07:39:20Z</time></trkpt><trkpt lat="45.54361253312274" lon="10.455297696390314"><ele>245.79999999999998</ele><time>2026-03-29T07:39:21Z</time></trkpt><trkpt lat="45.54362104827075" lon="10.455120482813001"><ele>245.2</ele><time>2026-03-29T07:39:22Z</time></trkpt><trkpt lat="45.5436116377033" lon="10.454994377442345"><ele>244.6</ele><time>2026-03-29T07:39:23Z</time></trkpt><trkpt lat="45.54363081124607" lon="10.454867542746738"><ele>244.0</ele><time>2026-03-29T07:39:24Z</time></trkpt><trkpt lat="45.543648352204194" lon="10.45474725093123"><ele>244.0</ele><time>2026-03-29T07:39:25Z</time></trkpt><trkpt lat="45.54367468557835" lon="10.454638986762914"><ele>243.99999999999997</ele><time>2026-03-29T07:39:26Z</time></trkpt><trkpt lat="45.54368356816652" lon="10.454485502621708"><ele>243.99999999999997</ele><time>2026-03-29T07:39:27Z</time></trkpt><trkpt lat="45.54365277496395" lon="10.454353391198822"><ele>244.0</ele><time>2026-03-29T07:39:28Z</time></trkpt><trkpt lat="45.54362285289354" lon="10.454188207825"><ele>244.0</ele><time>2026-03-29T07:39:29Z</time></trkpt><trkpt lat="45.54358335988094" lon="10.453987869515446"><ele>243.0</ele><time>2026-03-29T07:39:30Z</time></trkpt><trkpt lat="45.54354900454992" lon="10.45380787680205"><ele>242.0</ele><time>2026-03-29T07:39:31Z</time></trkpt><trkpt lat="45.543540762486906" lon="10.453675553832841"><ele>241.0</ele><time>2026-03-29T07:39:32Z</time></trkpt><trkpt lat="45.543539858686515" lon="10.453544665842994"><ele>240.0</ele><time>2026-03-29T07:39:34Z</time></trkpt><trkpt lat="45.54335965008157" lon="10.453455113381825"><ele>240.0</ele><time>2026-03-29T07:39:36Z</time></trkpt><trkpt lat="45.54326903765682" lon="10.453397615710168"><ele>240.0</ele><time>2026-03-29T07:39:37Z</time></trkpt><trkpt lat="45.54321694805955" lon="10.453287180099352"><ele>240.0</ele><time>2026-03-29T07:39:38Z</time></trkpt><trkpt lat="45.54315415523357" lon="10.4531807547017"><ele>240.0</ele><time>2026-03-29T07:39:39Z</time></trkpt><trkpt lat="45.54309766810188" lon="10.453064193091393"><ele>240.0</ele><time>2026-03-29T07:39:40Z</time></trkpt><trkpt lat="45.543040869051104" lon="10.45293039055349"><ele>240.0</ele><time>2026-03-29T07:39:41Z</time></trkpt><trkpt lat="45.54300035810357" lon="10.452785058185476"><ele>240.0</ele><time>2026-03-29T07:39:42Z</time></trkpt><trkpt lat="45.54297260527519" lon="10.452662461989743"><ele>240.0</ele><time>2026-03-29T07:39:43Z</time></trkpt><trkpt lat="45.54295855384784" lon="10.452572694534279"><ele>240.0</ele><time>2026-03-29T07:39:44Z</time></trkpt><trkpt lat="45.54296262186405" lon="10.452426039309302"><ele>240.0</ele><time>2026-03-29T07:39:46Z</time></trkpt><trkpt lat="45.54304050057693" lon="10.452262064770053"><ele>240.0</ele><time>2026-03-29T07:39:48Z</time></trkpt><trkpt lat="45.54311995039376" lon="10.452157587878888"><ele>240.0</ele><time>2026-03-29T07:39:49Z</time></trkpt><trkpt lat="45.54319352415836" lon="10.452045328105436"><ele>240.0</ele><time>2026-03-29T07:39:50Z</time></trkpt><trkpt lat="45.543248884438675" lon="10.451959044264703"><ele>240.0</ele><time>2026-03-29T07:39:51Z</time></trkpt><trkpt lat="45.543298913696326" lon="10.451802630323149"><ele>240.0</ele><time>2026-03-29T07:39:53Z</time></trkpt><trkpt lat="45.54330839476252" lon="10.451706036797738"><ele>239.4</ele><time>2026-03-29T07:39:54Z</time></trkpt><trkpt lat="45.543249286137325" lon="10.451586303987753"><ele>238.8</ele><time>2026-03-29T07:39:55Z</time></trkpt><trkpt lat="45.543242836884" lon="10.451436505724724"><ele>238.2</ele><time>2026-03-29T07:39:56Z</time></trkpt><trkpt lat="45.543207312196756" lon="10.451296923769824"><ele>237.6</ele><time>2026-03-29T07:39:57Z</time></trkpt><trkpt lat="45.54320844282394" lon="10.451155177980857"><ele>237.0</ele><time>2026-03-29T07:39:58Z</time></trkpt><trkpt lat="45.543201396899825" lon="10.451041377514914"><ele>236.99999999999997</ele><time>2026-03-29T07:39:59Z</time></trkpt><trkpt lat="45.54319590592072" lon="10.450936622071469"><ele>237.0</ele><time>2026-03-29T07:40:00Z</time></trkpt><trkpt lat="45.54319244460299" lon="10.4508274996558"><ele>236.99999999999997</ele><time>2026-03-29T07:40:01Z</time></trkpt><trkpt lat="45.54319226769601" lon="10.45071338528305"><ele>236.99999999999997</ele><time>2026-03-29T07:40:02Z</time></trkpt><trkpt lat="45.54319518805003" lon="10.450618608928906"><ele>237.0</ele><time>2026-03-29T07:40:03Z</time></trkpt><trkpt lat="45.543198876922716" lon="10.450526580936991"><ele>236.99999999999997</ele><time>2026-03-29T07:40:04Z</time></trkpt><trkpt lat="45.543202775942866" lon="10.450429305363546"><ele>236.99999999999997</ele><time>2026-03-29T07:40:05Z</time></trkpt><trkpt lat="45.543194969930695" lon="10.450271894639126"><ele>236.83333333333334</ele><time>2026-03-29T07:40:07Z</time></trkpt><trkpt lat="45.543205608997" lon="10.450104307484166"><ele>236.66666666666669</ele><time>2026-03-29T07:40:09Z</time></trkpt><trkpt lat="45.54320796096625" lon="10.450005280402491"><ele>236.5</ele><time>2026-03-29T07:40:10Z</time></trkpt><trkpt lat="45.54322000772408" lon="10.449907430282282"><ele>236.33333333333334</ele><time>2026-03-29T07:40:11Z</time></trkpt><trkpt lat="45.54323522703992" lon="10.44982013400025"><ele>236.16666666666669</ele><time>2026-03-29T07:40:12Z</time></trkpt><trkpt lat="45.54327619168972" lon="10.449688470412886"><ele>236.0</ele><time>2026-03-29T07:40:14Z</time></trkpt><trkpt lat="45.543295748753025" lon="10.449588434226467"><ele>235.5</ele><time>2026-03-29T07:40:16Z</time></trkpt><trkpt lat="45.54334130822348" lon="10.44945308889605"><ele>235.0</ele><time>2026-03-29T07:40:19Z</time></trkpt><trkpt lat="45.54339718433536" lon="10.449327904017263"><ele>234.5</ele><time>2026-03-29T07:40:21Z</time></trkpt><trkpt lat="45.543451850387235" lon="10.449157652590651"><ele>234.0</ele><time>2026-03-29T07:40:23Z</time></trkpt><trkpt lat="45.54351644937577" lon="10.449020821383073"><ele>234.0</ele><time>2026-03-29T07:40:25Z</time></trkpt><trkpt lat="45.543544741781616" lon="10.448898841202137"><ele>233.99999999999997</ele><time>2026-03-29T07:40:27Z</time></trkpt><trkpt lat="45.543507945701904" lon="10.448746599402611"><ele>233.99999999999997</ele><time>2026-03-29T07:40:29Z</time></trkpt><trkpt lat="45.5434509253389" lon="10.448640315480512"><ele>234.0</ele><time>2026-03-29T07:40:30Z</time></trkpt><trkpt lat="45.54339936573877" lon="10.448547687462138"><ele>234.0</ele><time>2026-03-29T07:40:31Z</time></trkpt><trkpt lat="45.54333157366423" lon="10.44843469628561"><ele>233.5</ele><time>2026-03-29T07:40:32Z</time></trkpt><trkpt lat="45.54327791942077" lon="10.448339729682429"><ele>233.0</ele><time>2026-03-29T07:40:33Z</time></trkpt><trkpt lat="45.54322815885898" lon="10.448244211396561"><ele>232.5</ele><time>2026-03-29T07:40:34Z</time></trkpt><trkpt lat="45.54317361098003" lon="10.448174474349946"><ele>232.0</ele><time>2026-03-29T07:40:35Z</time></trkpt><trkpt lat="45.543104267182684" lon="10.448106131153967"><ele>231.5</ele><time>2026-03-29T07:40:36Z</time></trkpt><trkpt lat="45.54303720901811" lon="10.448034317603035"><ele>231.0</ele><time>2026-03-29T07:40:37Z</time></trkpt><trkpt lat="45.54297980375147" lon="10.447976813447623"><ele>230.20000000000002</ele><time>2026-03-29T07:40:38Z</time></trkpt><trkpt lat="45.542942239609474" lon="10.447897433698717"><ele>229.40000000000003</ele><time>2026-03-29T07:40:39Z</time></trkpt><trkpt lat="45.54290800591782" lon="10.447741768223844"><ele>228.6</ele><time>2026-03-29T07:40:41Z</time></trkpt><trkpt lat="45.54290134802772" lon="10.447590737880496"><ele>227.8</ele><time>2026-03-29T07:40:43Z</time></trkpt><trkpt lat="45.54297894313228" lon="10.447449249386176"><ele>227.0</ele><time>2026-03-29T07:40:45Z</time></trkpt><trkpt lat="45.54303478699059" lon="10.447369241170746"><ele>227.00000000000003</ele><time>2026-03-29T07:40:46Z</time></trkpt><trkpt lat="45.54309693547827" lon="10.44726275869125"><ele>227.0</ele><time>2026-03-29T07:40:47Z</time></trkpt><trkpt lat="45.54315495484863" lon="10.447169356817518"><ele>227.0</ele><time>2026-03-29T07:40:48Z</time></trkpt><trkpt lat="45.54321398523807" lon="10.447098021683077"><ele>227.0</ele><time>2026-03-29T07:40:49Z</time></trkpt><trkpt lat="45.54328217766367" lon="10.44702446654944"><ele>227.00000000000003</ele><time>2026-03-29T07:40:50Z</time></trkpt><trkpt lat="45.54335978944261" lon="10.446930130914684"><ele>227.0</ele><time>2026-03-29T07:40:51Z</time></trkpt><trkpt lat="45.54342728347534" lon="10.446838883277636"><ele>227.00000000000003</ele><time>2026-03-29T07:40:52Z</time></trkpt><trkpt lat="45.54348068224807" lon="10.446736954440121"><ele>227.0</ele><time>2026-03-29T07:40:53Z</time></trkpt><trkpt lat="45.54352241269395" lon="10.44664146312346"><ele>227.0</ele><time>2026-03-29T07:40:54Z</time></trkpt><trkpt lat="45.54355852321688" lon="10.446550418595399"><ele>227.0</ele><time>2026-03-29T07:40:55Z</time></trkpt><trkpt lat="45.54361922388476" lon="10.446468125884563"><ele>227.00000000000003</ele><time>2026-03-29T07:40:57Z</time></trkpt><trkpt lat="45.54365258627995" lon="10.44638511646293"><ele>227.0</ele><time>2026-03-29T07:41:04Z</time></trkpt><trkpt lat="45.543691701257266" lon="10.446241123130129"><ele>227.66666666666669</ele><time>2026-03-29T07:41:06Z</time></trkpt><trkpt lat="45.54371011545608" lon="10.446138922111743"><ele>228.33333333333331</ele><time>2026-03-29T07:41:07Z</time></trkpt><trkpt lat="45.54343980749657" lon="10.445887799409485"><ele>229.0</ele><time>2026-03-29T07:41:08Z</time></trkpt><trkpt lat="45.54336810374371" lon="10.445719643912806"><ele>229.0</ele><time>2026-03-29T07:41:09Z</time></trkpt><trkpt lat="45.54328933159453" lon="10.445534531329741"><ele>229.0</ele><time>2026-03-29T07:41:10Z</time></trkpt><trkpt lat="45.54320667519515" lon="10.445334442347407"><ele>229.0</ele><time>2026-03-29T07:41:11Z</time></trkpt><trkpt lat="45.54311551918004" lon="10.445113420409347"><ele>229.66666666666666</ele><time>2026-03-29T07:41:12Z</time></trkpt><trkpt lat="45.54302656331917" lon="10.444895877641914"><ele>230.33333333333331</ele><time>2026-03-29T07:41:13Z</time></trkpt><trkpt lat="45.54294214468087" lon="10.444695752494606"><ele>231.0</ele><time>2026-03-29T07:41:14Z</time></trkpt><trkpt lat="45.54286246148517" lon="10.444512534433922"><ele>229.75</ele><time>2026-03-29T07:41:15Z</time></trkpt><trkpt lat="45.54278285709855" lon="10.444337299615826"><ele>228.5</ele><time>2026-03-29T07:41:16Z</time></trkpt><trkpt lat="45.54271082554895" lon="10.44417041619788"><ele>227.25</ele><time>2026-03-29T07:41:17Z</time></trkpt><trkpt lat="45.54264777755951" lon="10.444031347166073"><ele>226.0</ele><time>2026-03-29T07:41:18Z</time></trkpt><trkpt lat="45.54253010128265" lon="10.443885232582009"><ele>223.0</ele><time>2026-03-29T07:41:19Z</time></trkpt><trkpt lat="45.542426944912314" lon="10.44377316161963"><ele>220.0</ele><time>2026-03-29T07:41:20Z</time></trkpt><trkpt lat="45.54230982936485" lon="10.44369490808998"><ele>217.0</ele><time>2026-03-29T07:41:21Z</time></trkpt><trkpt lat="45.54219908071127" lon="10.443604858084498"><ele>214.0</ele><time>2026-03-29T07:41:22Z</time></trkpt><trkpt lat="45.54208312494359" lon="10.443584322021668"><ele>214.39999999999998</ele><time>2026-03-29T07:41:23Z</time></trkpt><trkpt lat="45.54198276616611" lon="10.443551108972832"><ele>214.79999999999998</ele><time>2026-03-29T07:41:24Z</time></trkpt><trkpt lat="45.541902146055875" lon="10.443507733372398"><ele>215.20000000000002</ele><time>2026-03-29T07:41:25Z</time></trkpt><trkpt lat="45.5418322436638" lon="10.443483343211836"><ele>215.60000000000002</ele><time>2026-03-29T07:41:26Z</time></trkpt><trkpt lat="45.541753383208935" lon="10.443455826053274"><ele>216.0</ele><time>2026-03-29T07:41:28Z</time></trkpt><trkpt lat="45.54171872155772" lon="10.443660978682646"><ele>216.0</ele><time>2026-03-29T07:41:29Z</time></trkpt><trkpt lat="45.541705777006776" lon="10.443787108524802"><ele>216.0</ele><time>2026-03-29T07:41:30Z</time></trkpt><trkpt lat="45.541680748435994" lon="10.443940498883293"><ele>216.0</ele><time>2026-03-29T07:41:31Z</time></trkpt><trkpt lat="45.541634189295564" lon="10.444096814140492"><ele>216.0</ele><time>2026-03-29T07:41:32Z</time></trkpt><trkpt lat="45.54157653637008" lon="10.444296677635972"><ele>218.33333333333331</ele><time>2026-03-29T07:41:33Z</time></trkpt><trkpt lat="45.541515586716656" lon="10.444514496161064"><ele>220.66666666666666</ele><time>2026-03-29T07:41:34Z</time></trkpt><trkpt lat="45.54146197483806" lon="10.444712486089132"><ele>223.0</ele><time>2026-03-29T07:41:35Z</time></trkpt><trkpt lat="45.54140937735077" lon="10.44492239299015"><ele>223.5</ele><time>2026-03-29T07:41:36Z</time></trkpt><trkpt lat="45.541357348386846" lon="10.445110613128382"><ele>224.0</ele><time>2026-03-29T07:41:37Z</time></trkpt><trkpt lat="45.54131396519983" lon="10.44527781828011"><ele>224.5</ele><time>2026-03-29T07:41:38Z</time></trkpt><trkpt lat="45.541275312278" lon="10.445426043262602"><ele>225.0</ele><time>2026-03-29T07:41:39Z</time></trkpt><trkpt lat="45.54124144211726" lon="10.445544396791036"><ele>224.75</ele><time>2026-03-29T07:41:40Z</time></trkpt><trkpt lat="45.541201060192094" lon="10.44565188100259"><ele>224.5</ele><time>2026-03-29T07:41:41Z</time></trkpt><trkpt lat="45.54113996140166" lon="10.445729828804025"><ele>224.25</ele><time>2026-03-29T07:41:42Z</time></trkpt><trkpt lat="45.54096723601966" lon="10.445757874186802"><ele>224.0</ele><time>2026-03-29T07:41:44Z</time></trkpt><trkpt lat="45.54085689468403" lon="10.44573844691963"><ele>224.0</ele><time>2026-03-29T07:41:45Z</time></trkpt><trkpt lat="45.540724799556536" lon="10.44568348656998"><ele>224.0</ele><time>2026-03-29T07:41:46Z</time></trkpt><trkpt lat="45.54058386136312" lon="10.445633146180171"><ele>224.0</ele><time>2026-03-29T07:41:47Z</time></trkpt><trkpt lat="45.540430982716806" lon="10.445583822230372"><ele>224.0</ele><time>2026-03-29T07:41:48Z</time></trkpt><trkpt lat="45.5402623522478" lon="10.44552227723998"><ele>223.33333333333334</ele><time>2026-03-29T07:41:49Z</time></trkpt><trkpt lat="45.54009155242293" lon="10.445466844958686"><ele>222.66666666666669</ele><time>2026-03-29T07:41:50Z</time></trkpt><trkpt lat="45.539934894610276" lon="10.445413844218189"><ele>222.0</ele><time>2026-03-29T07:41:51Z</time></trkpt><trkpt lat="45.539794536238745" lon="10.445347997662038"><ele>221.75</ele><time>2026-03-29T07:41:52Z</time></trkpt><trkpt lat="45.53966319790622" lon="10.445302082418012"><ele>221.5</ele><time>2026-03-29T07:41:53Z</time></trkpt><trkpt lat="45.539532880156365" lon="10.44528060272682"><ele>221.25</ele><time>2026-03-29T07:41:54Z</time></trkpt><trkpt lat="45.53941656733858" lon="10.44521555434555"><ele>221.0</ele><time>2026-03-29T07:41:55Z</time></trkpt><trkpt lat="45.539300227369196" lon="10.44519906746736"><ele>220.60000000000002</ele><time>2026-03-29T07:41:56Z</time></trkpt><trkpt lat="45.53919667917904" lon="10.445151558547844"><ele>220.20000000000002</ele><time>2026-03-29T07:41:57Z</time></trkpt><trkpt lat="45.53910066588557" lon="10.445122999804342"><ele>219.79999999999998</ele><time>2026-03-29T07:41:58Z</time></trkpt><trkpt lat="45.53901166803055" lon="10.445076834650328"><ele>219.39999999999998</ele><time>2026-03-29T07:41:59Z</time></trkpt><trkpt lat="45.53892914231077" lon="10.444997709799573"><ele>219.0</ele><time>2026-03-29T07:42:00Z</time></trkpt><trkpt lat="45.538834795162856" lon="10.444941413533797"><ele>219.0</ele><time>2026-03-29T07:42:01Z</time></trkpt><trkpt lat="45.538719641710486" lon="10.444949068007908"><ele>219.0</ele><time>2026-03-29T07:42:02Z</time></trkpt><trkpt lat="45.53859764340191" lon="10.444933215223799"><ele>219.0</ele><time>2026-03-29T07:42:03Z</time></trkpt><trkpt lat="45.53849663483203" lon="10.444897079664418"><ele>219.0</ele><time>2026-03-29T07:42:04Z</time></trkpt><trkpt lat="45.5383857248576" lon="10.444881575727225"><ele>219.5</ele><time>2026-03-29T07:42:05Z</time></trkpt><trkpt lat="45.5382772103167" lon="10.4448396734604"><ele>220.0</ele><time>2026-03-29T07:42:06Z</time></trkpt><trkpt lat="45.53816193539686" lon="10.44480110166101"><ele>220.5</ele><time>2026-03-29T07:42:07Z</time></trkpt><trkpt lat="45.53805107247877" lon="10.444738788156908"><ele>221.0</ele><time>2026-03-29T07:42:08Z</time></trkpt><trkpt lat="45.53792219104311" lon="10.4446928034482"><ele>221.33333333333334</ele><time>2026-03-29T07:42:09Z</time></trkpt><trkpt lat="45.537785972566134" lon="10.444644978709873"><ele>221.66666666666669</ele><time>2026-03-29T07:42:10Z</time></trkpt><trkpt lat="45.53762429811378" lon="10.444586542711823"><ele>222.0</ele><time>2026-03-29T07:42:11Z</time></trkpt><trkpt lat="45.53745645887375" lon="10.444525908152364"><ele>220.66666666666669</ele><time>2026-03-29T07:42:12Z</time></trkpt><trkpt lat="45.53727570306929" lon="10.444482505884928"><ele>219.33333333333334</ele><time>2026-03-29T07:42:13Z</time></trkpt><trkpt lat="45.53709036464256" lon="10.444411554704882"><ele>218.0</ele><time>2026-03-29T07:42:14Z</time></trkpt><trkpt lat="45.53690976554486" lon="10.444360997228799"><ele>217.33333333333334</ele><time>2026-03-29T07:42:15Z</time></trkpt><trkpt lat="45.536734986509025" lon="10.444338912033997"><ele>216.66666666666669</ele><time>2026-03-29T07:42:16Z</time></trkpt><trkpt lat="45.53656184833866" lon="10.444335954651626"><ele>216.0</ele><time>2026-03-29T07:42:17Z</time></trkpt><trkpt lat="45.536391871571325" lon="10.444347535946848"><ele>214.66666666666669</ele><time>2026-03-29T07:42:18Z</time></trkpt><trkpt lat="45.53621648431438" lon="10.444362847742367"><ele>213.33333333333334</ele><time>2026-03-29T07:42:19Z</time></trkpt><trkpt lat="45.53604471987372" lon="10.444376374614562"><ele>212.0</ele><time>2026-03-29T07:42:20Z</time></trkpt><trkpt lat="45.53587205416354" lon="10.444387703373215"><ele>212.0</ele><time>2026-03-29T07:42:21Z</time></trkpt><trkpt lat="45.53569962950644" lon="10.444400510900795"><ele>212.0</ele><time>2026-03-29T07:42:22Z</time></trkpt><trkpt lat="45.53552392874343" lon="10.444408854971726"><ele>212.0</ele><time>2026-03-29T07:42:23Z</time></trkpt><trkpt lat="45.535371033750685" lon="10.444407894815328"><ele>211.66666666666669</ele><time>2026-03-29T07:42:24Z</time></trkpt><trkpt lat="45.535211513757325" lon="10.444387893823707"><ele>211.33333333333331</ele><time>2026-03-29T07:42:25Z</time></trkpt><trkpt lat="45.53505545169856" lon="10.444347311576475"><ele>211.0</ele><time>2026-03-29T07:42:26Z</time></trkpt><trkpt lat="45.534900658668" lon="10.444282703972862"><ele>211.0</ele><time>2026-03-29T07:42:27Z</time></trkpt><trkpt lat="45.53475588108217" lon="10.444174132623228"><ele>211.0</ele><time>2026-03-29T07:42:28Z</time></trkpt><trkpt lat="45.53460783810316" lon="10.444081405444118"><ele>211.0</ele><time>2026-03-29T07:42:29Z</time></trkpt><trkpt lat="45.53444306061547" lon="10.444022664570543"><ele>211.0</ele><time>2026-03-29T07:42:30Z</time></trkpt><trkpt lat="45.53428449038473" lon="10.443932223862024"><ele>211.0</ele><time>2026-03-29T07:42:31Z</time></trkpt><trkpt lat="45.534120769748135" lon="10.44392373771241"><ele>211.0</ele><time>2026-03-29T07:42:32Z</time></trkpt><trkpt lat="45.53394670688098" lon="10.44391847576799"><ele>211.0</ele><time>2026-03-29T07:42:33Z</time></trkpt><trkpt lat="45.533784226806134" lon="10.443912488163734"><ele>211.0</ele><time>2026-03-29T07:42:34Z</time></trkpt><trkpt lat="45.53360984678884" lon="10.44390748289768"><ele>211.0</ele><time>2026-03-29T07:42:35Z</time></trkpt><trkpt lat="45.5334489089395" lon="10.443897881749706"><ele>211.0</ele><time>2026-03-29T07:42:36Z</time></trkpt><trkpt lat="45.53329517714793" lon="10.443896796035592"><ele>211.0</ele><time>2026-03-29T07:42:37Z</time></trkpt><trkpt lat="45.533152183961604" lon="10.44389005795569"><ele>211.0</ele><time>2026-03-29T07:42:38Z</time></trkpt><trkpt lat="45.53301787494635" lon="10.443883004188686"><ele>211.0</ele><time>2026-03-29T07:42:39Z</time></trkpt><trkpt lat="45.532878722657316" lon="10.443873994194291"><ele>211.0</ele><time>2026-03-29T07:42:40Z</time></trkpt><trkpt lat="45.53274196243066" lon="10.443864930395145"><ele>211.0</ele><time>2026-03-29T07:42:41Z</time></trkpt><trkpt lat="45.53260451653464" lon="10.443851582122772"><ele>211.0</ele><time>2026-03-29T07:42:42Z</time></trkpt><trkpt lat="45.53246848584018" lon="10.443832153954228"><ele>211.0</ele><time>2026-03-29T07:42:43Z</time></trkpt><trkpt lat="45.532336410042376" lon="10.443809854922614"><ele>210.5</ele><time>2026-03-29T07:42:44Z</time></trkpt><trkpt lat="45.53220726500687" lon="10.443781655973718"><ele>210.0</ele><time>2026-03-29T07:42:45Z</time></trkpt><trkpt lat="45.53207708858988" lon="10.443754625755167"><ele>209.5</ele><time>2026-03-29T07:42:46Z</time></trkpt><trkpt lat="45.53194744108449" lon="10.443729030660032"><ele>209.0</ele><time>2026-03-29T07:42:47Z</time></trkpt><trkpt lat="45.53182206293791" lon="10.443703271283152"><ele>209.0</ele><time>2026-03-29T07:42:48Z</time></trkpt><trkpt lat="45.531699589389646" lon="10.443674738121205"><ele>209.0</ele><time>2026-03-29T07:42:49Z</time></trkpt><trkpt lat="45.53158472903194" lon="10.443650633641036"><ele>209.0</ele><time>2026-03-29T07:42:50Z</time></trkpt><trkpt lat="45.53147745528945" lon="10.443627609532875"><ele>209.0</ele><time>2026-03-29T07:42:51Z</time></trkpt><trkpt lat="45.531376895229066" lon="10.443600452631228"><ele>209.00000000000003</ele><time>2026-03-29T07:42:52Z</time></trkpt><trkpt lat="45.53128130510952" lon="10.443579371709609"><ele>209.0</ele><time>2026-03-29T07:42:53Z</time></trkpt><trkpt lat="45.53119142268324" lon="10.443558191307782"><ele>209.0</ele><time>2026-03-29T07:42:54Z</time></trkpt><trkpt lat="45.531103010572394" lon="10.443535239497987"><ele>209.0</ele><time>2026-03-29T07:42:55Z</time></trkpt><trkpt lat="45.53102575157073" lon="10.443513476825586"><ele>209.00000000000003</ele><time>2026-03-29T07:42:56Z</time></trkpt><trkpt lat="45.530959917921734" lon="10.44348817309027"><ele>209.0</ele><time>2026-03-29T07:42:57Z</time></trkpt><trkpt lat="45.53087508598818" lon="10.44343444129405"><ele>209.00000000000003</ele><time>2026-03-29T07:42:59Z</time></trkpt><trkpt lat="45.53081437104387" lon="10.443375217078993"><ele>209.0</ele><time>2026-03-29T07:43:04Z</time></trkpt><trkpt lat="45.53073018939972" lon="10.443273186822223"><ele>209.0</ele><time>2026-03-29T07:43:06Z</time></trkpt><trkpt lat="45.530670691389275" lon="10.443187528019163"><ele>209.0</ele><time>2026-03-29T07:43:07Z</time></trkpt><trkpt lat="45.530608473934606" lon="10.443125545697873"><ele>209.00000000000003</ele><time>2026-03-29T07:43:08Z</time></trkpt><trkpt lat="45.53053464393103" lon="10.44310893706289"><ele>209.0</ele><time>2026-03-29T07:43:09Z</time></trkpt><trkpt lat="45.53046411969668" lon="10.443134730937658"><ele>209.0</ele><time>2026-03-29T07:43:10Z</time></trkpt><trkpt lat="45.53038852239206" lon="10.443300169918428"><ele>209.0</ele><time>2026-03-29T07:43:12Z</time></trkpt><trkpt lat="45.53038928169771" lon="10.443420503200112"><ele>209.0</ele><time>2026-03-29T07:43:13Z</time></trkpt><trkpt lat="45.53043431538329" lon="10.443566417506524"><ele>209.0</ele><time>2026-03-29T07:43:14Z</time></trkpt><trkpt lat="45.530483389736396" lon="10.443720247885695"><ele>209.25</ele><time>2026-03-29T07:43:15Z</time></trkpt><trkpt lat="45.53053404008916" lon="10.443880995017295"><ele>209.5</ele><time>2026-03-29T07:43:16Z</time></trkpt><trkpt lat="45.53056107009372" lon="10.444038341048197"><ele>209.75</ele><time>2026-03-29T07:43:17Z</time></trkpt><trkpt lat="45.53049453311742" lon="10.44423167832651"><ele>210.0</ele><time>2026-03-29T07:43:18Z</time></trkpt><trkpt lat="45.53045899774665" lon="10.44441264760185"><ele>210.0</ele><time>2026-03-29T07:43:19Z</time></trkpt><trkpt lat="45.53041673191811" lon="10.444614607664212"><ele>210.0</ele><time>2026-03-29T07:43:20Z</time></trkpt><trkpt lat="45.53037504886523" lon="10.4448252421534"><ele>210.0</ele><time>2026-03-29T07:43:21Z</time></trkpt><trkpt lat="45.530333004965655" lon="10.445033327656294"><ele>211.0</ele><time>2026-03-29T07:43:22Z</time></trkpt><trkpt lat="45.53029287930762" lon="10.445254107696776"><ele>212.0</ele><time>2026-03-29T07:43:23Z</time></trkpt><trkpt lat="45.530252842326746" lon="10.44549136259811"><ele>213.0</ele><time>2026-03-29T07:43:24Z</time></trkpt><trkpt lat="45.53020967026514" lon="10.445727565549348"><ele>213.0</ele><time>2026-03-29T07:43:25Z</time></trkpt><trkpt lat="45.530167772553476" lon="10.445959501692707"><ele>213.0</ele><time>2026-03-29T07:43:26Z</time></trkpt><trkpt lat="45.53012520095333" lon="10.44616312745901"><ele>213.0</ele><time>2026-03-29T07:43:27Z</time></trkpt><trkpt lat="45.53007527228555" lon="10.446373963357514"><ele>212.75</ele><time>2026-03-29T07:43:28Z</time></trkpt><trkpt lat="45.53002534153593" lon="10.446568571269804"><ele>212.5</ele><time>2026-03-29T07:43:29Z</time></trkpt><trkpt lat="45.52997078937067" lon="10.446747425244537"><ele>212.25</ele><time>2026-03-29T07:43:30Z</time></trkpt><trkpt lat="45.52991539822825" lon="10.446912318736853"><ele>212.0</ele><time>2026-03-29T07:43:31Z</time></trkpt><trkpt lat="45.529843046279666" lon="10.447045718358893"><ele>211.5</ele><time>2026-03-29T07:43:32Z</time></trkpt><trkpt lat="45.52975074570773" lon="10.447169625863937"><ele>211.0</ele><time>2026-03-29T07:43:33Z</time></trkpt><trkpt lat="45.52964029253169" lon="10.447279843448447"><ele>210.5</ele><time>2026-03-29T07:43:34Z</time></trkpt><trkpt lat="45.52951582966574" lon="10.447385194831552"><ele>210.0</ele><time>2026-03-29T07:43:35Z</time></trkpt><trkpt lat="45.52939024038515" lon="10.44749864541578"><ele>211.0</ele><time>2026-03-29T07:43:36Z</time></trkpt><trkpt lat="45.529264348326926" lon="10.447600688828476"><ele>212.0</ele><time>2026-03-29T07:43:37Z</time></trkpt><trkpt lat="45.52913913534005" lon="10.447708419747574"><ele>213.0</ele><time>2026-03-29T07:43:38Z</time></trkpt><trkpt lat="45.52901718949372" lon="10.447817915929356"><ele>214.0</ele><time>2026-03-29T07:43:39Z</time></trkpt><trkpt lat="45.52890366290143" lon="10.447934737872956"><ele>212.5</ele><time>2026-03-29T07:43:40Z</time></trkpt><trkpt lat="45.52879012453822" lon="10.448066089992052"><ele>211.0</ele><time>2026-03-29T07:43:41Z</time></trkpt><trkpt lat="45.52869968559144" lon="10.448215526006315"><ele>209.5</ele><time>2026-03-29T07:43:42Z</time></trkpt><trkpt lat="45.52862044008308" lon="10.448388042599873"><ele>208.0</ele><time>2026-03-29T07:43:43Z</time></trkpt><trkpt lat="45.528558968425074" lon="10.448585103524437"><ele>208.0</ele><time>2026-03-29T07:43:44Z</time></trkpt><trkpt lat="45.52852864602784" lon="10.448795644485644"><ele>208.0</ele><time>2026-03-29T07:43:45Z</time></trkpt><trkpt lat="45.528515350219855" lon="10.449008676061531"><ele>208.0</ele><time>2026-03-29T07:43:46Z</time></trkpt><trkpt lat="45.52852055654939" lon="10.449218720443664"><ele>208.0</ele><time>2026-03-29T07:43:47Z</time></trkpt><trkpt lat="45.52852625804682" lon="10.44943406482656"><ele>208.25</ele><time>2026-03-29T07:43:48Z</time></trkpt><trkpt lat="45.528539335700415" lon="10.449629510026774"><ele>208.5</ele><time>2026-03-29T07:43:49Z</time></trkpt><trkpt lat="45.528540575375956" lon="10.449841067740365"><ele>208.75</ele><time>2026-03-29T07:43:50Z</time></trkpt><trkpt lat="45.52853174791691" lon="10.450056453692227"><ele>209.0</ele><time>2026-03-29T07:43:51Z</time></trkpt><trkpt lat="45.528509251772185" lon="10.450242982572048"><ele>209.0</ele><time>2026-03-29T07:43:52Z</time></trkpt><trkpt lat="45.52847557237066" lon="10.450420761701526"><ele>209.0</ele><time>2026-03-29T07:43:53Z</time></trkpt><trkpt lat="45.52843245385392" lon="10.450585030854743"><ele>209.0</ele><time>2026-03-29T07:43:54Z</time></trkpt><trkpt lat="45.52838075976224" lon="10.450733973837592"><ele>209.0</ele><time>2026-03-29T07:43:55Z</time></trkpt><trkpt lat="45.5283196000228" lon="10.450874428162447"><ele>208.75</ele><time>2026-03-29T07:43:56Z</time></trkpt><trkpt lat="45.52825002955293" lon="10.45100246494791"><ele>208.5</ele><time>2026-03-29T07:43:57Z</time></trkpt><trkpt lat="45.52817568288312" lon="10.451130513962141"><ele>208.25</ele><time>2026-03-29T07:43:58Z</time></trkpt><trkpt lat="45.528095170683876" lon="10.451250128586778"><ele>208.0</ele><time>2026-03-29T07:43:59Z</time></trkpt><trkpt lat="45.52799930996478" lon="10.45137093925015"><ele>208.0</ele><time>2026-03-29T07:44:00Z</time></trkpt><trkpt lat="45.52789980622611" lon="10.451504592663138"><ele>208.0</ele><time>2026-03-29T07:44:01Z</time></trkpt><trkpt lat="45.52778506756134" lon="10.451651212370566"><ele>208.0</ele><time>2026-03-29T07:44:02Z</time></trkpt><trkpt lat="45.52764801834178" lon="10.451813951668274"><ele>208.0</ele><time>2026-03-29T07:44:03Z</time></trkpt><trkpt lat="45.52751059624015" lon="10.452015468401278"><ele>208.0</ele><time>2026-03-29T07:44:04Z</time></trkpt><trkpt lat="45.52738069507305" lon="10.452226515611198"><ele>208.0</ele><time>2026-03-29T07:44:05Z</time></trkpt><trkpt lat="45.52728413272984" lon="10.452447320607028"><ele>207.33333333333331</ele><time>2026-03-29T07:44:06Z</time></trkpt><trkpt lat="45.52720124117325" lon="10.452660873883444"><ele>206.66666666666669</ele><time>2026-03-29T07:44:07Z</time></trkpt><trkpt lat="45.5271208208471" lon="10.452849355456681"><ele>206.0</ele><time>2026-03-29T07:44:08Z</time></trkpt><trkpt lat="45.52704050829554" lon="10.453020014674792"><ele>206.0</ele><time>2026-03-29T07:44:09Z</time></trkpt><trkpt lat="45.52696112401312" lon="10.453177146409022"><ele>206.0</ele><time>2026-03-29T07:44:10Z</time></trkpt><trkpt lat="45.52687653999221" lon="10.45333277916219"><ele>206.0</ele><time>2026-03-29T07:44:11Z</time></trkpt><trkpt lat="45.52677835405909" lon="10.453488882088363"><ele>206.0</ele><time>2026-03-29T07:44:12Z</time></trkpt><trkpt lat="45.526678018315216" lon="10.453645457799839"><ele>206.5</ele><time>2026-03-29T07:44:13Z</time></trkpt><trkpt lat="45.52658030805433" lon="10.45379662097161"><ele>207.0</ele><time>2026-03-29T07:44:14Z</time></trkpt><trkpt lat="45.5264853323194" lon="10.453962565955031"><ele>207.5</ele><time>2026-03-29T07:44:15Z</time></trkpt><trkpt lat="45.52640720601835" lon="10.454142639028412"><ele>208.0</ele><time>2026-03-29T07:44:16Z</time></trkpt><trkpt lat="45.52634426994461" lon="10.454329355563944"><ele>208.0</ele><time>2026-03-29T07:44:17Z</time></trkpt><trkpt lat="45.52628177005189" lon="10.45453566611546"><ele>208.0</ele><time>2026-03-29T07:44:18Z</time></trkpt><trkpt lat="45.5262104165242" lon="10.454740446849316"><ele>208.0</ele><time>2026-03-29T07:44:19Z</time></trkpt><trkpt lat="45.52613593411857" lon="10.454946111144043"><ele>207.0</ele><time>2026-03-29T07:44:20Z</time></trkpt><trkpt lat="45.52606312083253" lon="10.455149110150854"><ele>206.0</ele><time>2026-03-29T07:44:21Z</time></trkpt><trkpt lat="45.52598996916005" lon="10.455353334870551"><ele>205.0</ele><time>2026-03-29T07:44:22Z</time></trkpt><trkpt lat="45.52591365886823" lon="10.455554130993745"><ele>205.0</ele><time>2026-03-29T07:44:23Z</time></trkpt><trkpt lat="45.525842318210486" lon="10.45577053037092"><ele>205.0</ele><time>2026-03-29T07:44:24Z</time></trkpt><trkpt lat="45.525769495765985" lon="10.455964133668164"><ele>205.0</ele><time>2026-03-29T07:44:25Z</time></trkpt><trkpt lat="45.525692469348705" lon="10.456158324531957"><ele>205.0</ele><time>2026-03-29T07:44:26Z</time></trkpt><trkpt lat="45.52562327173933" lon="10.456345324967401"><ele>205.0</ele><time>2026-03-29T07:44:27Z</time></trkpt><trkpt lat="45.52554483404113" lon="10.45652853944004"><ele>205.0</ele><time>2026-03-29T07:44:28Z</time></trkpt><trkpt lat="45.52547343573482" lon="10.456683453933465"><ele>205.0</ele><time>2026-03-29T07:44:29Z</time></trkpt><trkpt lat="45.52540607447473" lon="10.456816603656407"><ele>204.6</ele><time>2026-03-29T07:44:30Z</time></trkpt><trkpt lat="45.5253368498788" lon="10.456944647709356"><ele>204.2</ele><time>2026-03-29T07:44:31Z</time></trkpt><trkpt lat="45.52526482887497" lon="10.457076524313917"><ele>203.8</ele><time>2026-03-29T07:44:32Z</time></trkpt><trkpt lat="45.52519700039817" lon="10.457201170290022"><ele>203.4</ele><time>2026-03-29T07:44:33Z</time></trkpt><trkpt lat="45.52514055257714" lon="10.457315215197086"><ele>203.0</ele><time>2026-03-29T07:44:34Z</time></trkpt><trkpt lat="45.52508897079682" lon="10.45739901817657"><ele>203.0</ele><time>2026-03-29T07:44:35Z</time></trkpt><trkpt lat="45.525032827549246" lon="10.45744720526685"><ele>203.0</ele><time>2026-03-29T07:44:36Z</time></trkpt><trkpt lat="45.52486985835119" lon="10.457407191677824"><ele>203.0</ele><time>2026-03-29T07:44:38Z</time></trkpt><trkpt lat="45.524759654857945" lon="10.457373970758818"><ele>203.0</ele><time>2026-03-29T07:44:39Z</time></trkpt><trkpt lat="45.524641100699725" lon="10.457347182261131"><ele>202.5</ele><time>2026-03-29T07:44:40Z</time></trkpt><trkpt lat="45.524497304769554" lon="10.457321368494034"><ele>202.0</ele><time>2026-03-29T07:44:41Z</time></trkpt><trkpt lat="45.52434285625862" lon="10.45730281877943"><ele>201.5</ele><time>2026-03-29T07:44:42Z</time></trkpt><trkpt lat="45.52420104789734" lon="10.457285730652854"><ele>201.0</ele><time>2026-03-29T07:44:43Z</time></trkpt><trkpt lat="45.52408030797117" lon="10.457265643130988"><ele>201.0</ele><time>2026-03-29T07:44:44Z</time></trkpt><trkpt lat="45.52396388890352" lon="10.457225263988459"><ele>201.0</ele><time>2026-03-29T07:44:45Z</time></trkpt><trkpt lat="45.52385860779637" lon="10.457201647292976"><ele>201.0</ele><time>2026-03-29T07:44:46Z</time></trkpt><trkpt lat="45.52374705249132" lon="10.457171226072788"><ele>201.0</ele><time>2026-03-29T07:44:47Z</time></trkpt><trkpt lat="45.52362337345054" lon="10.457131729961281"><ele>200.25</ele><time>2026-03-29T07:44:48Z</time></trkpt><trkpt lat="45.52349368281116" lon="10.457088731987085"><ele>199.5</ele><time>2026-03-29T07:44:49Z</time></trkpt><trkpt lat="45.52336231040276" lon="10.457045176515862"><ele>198.75</ele><time>2026-03-29T07:44:50Z</time></trkpt><trkpt lat="45.52323245600842" lon="10.456999938977079"><ele>198.0</ele><time>2026-03-29T07:44:51Z</time></trkpt><trkpt lat="45.52309962648372" lon="10.456953215892229"><ele>198.0</ele><time>2026-03-29T07:44:52Z</time></trkpt><trkpt lat="45.5229654982921" lon="10.456906035972793"><ele>198.0</ele><time>2026-03-29T07:44:53Z</time></trkpt><trkpt lat="45.522832355581414" lon="10.456858334552114"><ele>198.0</ele><time>2026-03-29T07:44:54Z</time></trkpt><trkpt lat="45.52270055445745" lon="10.456829565646652"><ele>198.0</ele><time>2026-03-29T07:44:55Z</time></trkpt><trkpt lat="45.522581858631895" lon="10.456765204508422"><ele>197.5</ele><time>2026-03-29T07:44:56Z</time></trkpt><trkpt lat="45.522464961826486" lon="10.456721744485394"><ele>197.0</ele><time>2026-03-29T07:44:57Z</time></trkpt><trkpt lat="45.52234974099171" lon="10.456695678612775"><ele>196.5</ele><time>2026-03-29T07:44:58Z</time></trkpt><trkpt lat="45.52222830903513" lon="10.456647174274158"><ele>196.0</ele><time>2026-03-29T07:44:59Z</time></trkpt><trkpt lat="45.522099132360594" lon="10.456598941822312"><ele>195.5</ele><time>2026-03-29T07:45:00Z</time></trkpt><trkpt lat="45.52196757755155" lon="10.456548463331176"><ele>195.0</ele><time>2026-03-29T07:45:01Z</time></trkpt><trkpt lat="45.521843221180106" lon="10.456503726084037"><ele>194.5</ele><time>2026-03-29T07:45:02Z</time></trkpt><trkpt lat="45.52172863220656" lon="10.456439566939517"><ele>194.0</ele><time>2026-03-29T07:45:03Z</time></trkpt><trkpt lat="45.521620268173" lon="10.456423130194313"><ele>194.0</ele><time>2026-03-29T07:45:04Z</time></trkpt><trkpt lat="45.52152587508248" lon="10.456395182302858"><ele>194.0</ele><time>2026-03-29T07:45:05Z</time></trkpt><trkpt lat="45.521422835456946" lon="10.456387847635355"><ele>194.0</ele><time>2026-03-29T07:45:06Z</time></trkpt><trkpt lat="45.52130880412518" lon="10.456355609087844"><ele>194.0</ele><time>2026-03-29T07:45:07Z</time></trkpt><trkpt lat="45.52119693430266" lon="10.456291204087327"><ele>194.0</ele><time>2026-03-29T07:45:08Z</time></trkpt><trkpt lat="45.521081649296015" lon="10.456211222827804"><ele>193.75</ele><time>2026-03-29T07:45:09Z</time></trkpt><trkpt lat="45.52095901913651" lon="10.45612999834583"><ele>193.5</ele><time>2026-03-29T07:45:10Z</time></trkpt><trkpt lat="45.520834076633626" lon="10.456051447983464"><ele>193.25</ele><time>2026-03-29T07:45:11Z</time></trkpt><trkpt lat="45.520706252845685" lon="10.455972399788013"><ele>193.0</ele><time>2026-03-29T07:45:12Z</time></trkpt><trkpt lat="45.52058468355816" lon="10.455895028294867"><ele>193.0</ele><time>2026-03-29T07:45:13Z</time></trkpt><trkpt lat="45.520460000347484" lon="10.455817156177403"><ele>193.0</ele><time>2026-03-29T07:45:14Z</time></trkpt><trkpt lat="45.52034300819084" lon="10.455746453788889"><ele>193.0</ele><time>2026-03-29T07:45:15Z</time></trkpt><trkpt lat="45.520239920568415" lon="10.45567504189667"><ele>193.0</ele><time>2026-03-29T07:45:16Z</time></trkpt><trkpt lat="45.52014295215958" lon="10.455613631124582"><ele>192.8</ele><time>2026-03-29T07:45:17Z</time></trkpt><trkpt lat="45.52004890116623" lon="10.45555868200225"><ele>192.60000000000002</ele><time>2026-03-29T07:45:18Z</time></trkpt><trkpt lat="45.51995876733352" lon="10.455500388190401"><ele>192.39999999999998</ele><time>2026-03-29T07:45:19Z</time></trkpt><trkpt lat="45.51986999287185" lon="10.455445206142711"><ele>192.2</ele><time>2026-03-29T07:45:20Z</time></trkpt><trkpt lat="45.51979001481386" lon="10.455395158354959"><ele>192.0</ele><time>2026-03-29T07:45:21Z</time></trkpt><trkpt lat="45.51970795612023" lon="10.4553079130011"><ele>192.0</ele><time>2026-03-29T07:45:22Z</time></trkpt><trkpt lat="45.51960513605469" lon="10.455242450540831"><ele>192.0</ele><time>2026-03-29T07:45:23Z</time></trkpt><trkpt lat="45.519493944106394" lon="10.455191045310999"><ele>192.0</ele><time>2026-03-29T07:45:24Z</time></trkpt><trkpt lat="45.51938429337414" lon="10.455155901188723"><ele>192.0</ele><time>2026-03-29T07:45:25Z</time></trkpt><trkpt lat="45.519273686755675" lon="10.455097348464822"><ele>191.6</ele><time>2026-03-29T07:45:26Z</time></trkpt><trkpt lat="45.519168834686496" lon="10.455046265401133"><ele>191.2</ele><time>2026-03-29T07:45:27Z</time></trkpt><trkpt lat="45.519067463441154" lon="10.455021013005984"><ele>190.8</ele><time>2026-03-29T07:45:28Z</time></trkpt><trkpt lat="45.518968705925765" lon="10.454969594266675"><ele>190.4</ele><time>2026-03-29T07:45:29Z</time></trkpt><trkpt lat="45.51887496509437" lon="10.45490157445992"><ele>190.0</ele><time>2026-03-29T07:45:30Z</time></trkpt><trkpt lat="45.51877474052187" lon="10.45487830306978"><ele>190.0</ele><time>2026-03-29T07:45:31Z</time></trkpt><trkpt lat="45.5186968367362" lon="10.454838858503125"><ele>190.0</ele><time>2026-03-29T07:45:32Z</time></trkpt><trkpt lat="45.51861581232565" lon="10.454801832731643"><ele>190.0</ele><time>2026-03-29T07:45:33Z</time></trkpt><trkpt lat="45.51855001442006" lon="10.454768650168859"><ele>190.0</ele><time>2026-03-29T07:45:34Z</time></trkpt><trkpt lat="45.51843692776761" lon="10.454744050133908"><ele>190.0</ele><time>2026-03-29T07:45:36Z</time></trkpt><trkpt lat="45.51832913853319" lon="10.454742579039893"><ele>190.0</ele><time>2026-03-29T07:45:38Z</time></trkpt><trkpt lat="45.518268367990075" lon="10.454695570769605"><ele>190.0</ele><time>2026-03-29T07:45:39Z</time></trkpt><trkpt lat="45.51824002505007" lon="10.454465634348434"><ele>190.0</ele><time>2026-03-29T07:45:40Z</time></trkpt><trkpt lat="45.51819425289231" lon="10.45437986896558"><ele>190.0</ele><time>2026-03-29T07:45:41Z</time></trkpt><trkpt lat="45.51813762624006" lon="10.454288916869766"><ele>190.0</ele><time>2026-03-29T07:45:42Z</time></trkpt><trkpt lat="45.51808660640753" lon="10.454212381700867"><ele>190.0</ele><time>2026-03-29T07:45:43Z</time></trkpt><trkpt lat="45.51802676112447" lon="10.4541386346648"><ele>190.0</ele><time>2026-03-29T07:45:44Z</time></trkpt><trkpt lat="45.51794777987579" lon="10.454041441856113"><ele>190.0</ele><time>2026-03-29T07:45:45Z</time></trkpt><trkpt lat="45.51788008257698" lon="10.453959352794609"><ele>190.0</ele><time>2026-03-29T07:45:46Z</time></trkpt><trkpt lat="45.517814615365815" lon="10.45387401084843"><ele>190.0</ele><time>2026-03-29T07:45:47Z</time></trkpt><trkpt lat="45.517762341827634" lon="10.453792251787094"><ele>190.0</ele><time>2026-03-29T07:45:48Z</time></trkpt><trkpt lat="45.517724993713706" lon="10.453718115412128"><ele>189.5</ele><time>2026-03-29T07:45:49Z</time></trkpt><trkpt lat="45.51767748660549" lon="10.45360121226458"><ele>189.0</ele><time>2026-03-29T07:45:50Z</time></trkpt><trkpt lat="45.517648306373026" lon="10.45348515969714"><ele>188.5</ele><time>2026-03-29T07:45:51Z</time></trkpt><trkpt lat="45.51764015086806" lon="10.45336622016425"><ele>188.0</ele><time>2026-03-29T07:45:52Z</time></trkpt><trkpt lat="45.51764651088185" lon="10.45324464881714"><ele>187.5</ele><time>2026-03-29T07:45:53Z</time></trkpt><trkpt lat="45.51766313490069" lon="10.453112051088329"><ele>187.0</ele><time>2026-03-29T07:45:54Z</time></trkpt><trkpt lat="45.517673285919614" lon="10.453018950875173"><ele>187.16666666666669</ele><time>2026-03-29T07:45:55Z</time></trkpt><trkpt lat="45.51767111207407" lon="10.452893264594689"><ele>187.33333333333334</ele><time>2026-03-29T07:45:56Z</time></trkpt><trkpt lat="45.51766448131433" lon="10.452780081595135"><ele>187.5</ele><time>2026-03-29T07:45:57Z</time></trkpt><trkpt lat="45.517649655605" lon="10.45266637684697"><ele>187.66666666666666</ele><time>2026-03-29T07:45:58Z</time></trkpt><trkpt lat="45.5176336508828" lon="10.452541896702266"><ele>187.83333333333331</ele><time>2026-03-29T07:45:59Z</time></trkpt><trkpt lat="45.51761500852909" lon="10.452435069458428"><ele>188.0</ele><time>2026-03-29T07:46:00Z</time></trkpt><trkpt lat="45.51761099956297" lon="10.452334902856508"><ele>188.0</ele><time>2026-03-29T07:46:01Z</time></trkpt><trkpt lat="45.5176180673302" lon="10.452209099259035"><ele>188.0</ele><time>2026-03-29T07:46:02Z</time></trkpt><trkpt lat="45.51761640724291" lon="10.452078783685819"><ele>188.0</ele><time>2026-03-29T07:46:03Z</time></trkpt><trkpt lat="45.5176137627547" lon="10.4519532700249"><ele>188.0</ele><time>2026-03-29T07:46:04Z</time></trkpt><trkpt lat="45.517620673434465" lon="10.451815179609513"><ele>188.0</ele><time>2026-03-29T07:46:05Z</time></trkpt><trkpt lat="45.51762817695262" lon="10.45167862546156"><ele>188.0</ele><time>2026-03-29T07:46:06Z</time></trkpt><trkpt lat="45.5176364412871" lon="10.451551853807906"><ele>188.0</ele><time>2026-03-29T07:46:07Z</time></trkpt><trkpt lat="45.51764501521697" lon="10.451422283621628"><ele>188.0</ele><time>2026-03-29T07:46:08Z</time></trkpt><trkpt lat="45.51765058526722" lon="10.451296791382745"><ele>188.0</ele><time>2026-03-29T07:46:09Z</time></trkpt><trkpt lat="45.517647631178555" lon="10.451155913775882"><ele>188.0</ele><time>2026-03-29T07:46:10Z</time></trkpt><trkpt lat="45.5176419254204" lon="10.451020795017135"><ele>188.0</ele><time>2026-03-29T07:46:11Z</time></trkpt><trkpt lat="45.51761955323881" lon="10.450879235099455"><ele>188.0</ele><time>2026-03-29T07:46:12Z</time></trkpt><trkpt lat="45.51759028932116" lon="10.450727315872856"><ele>188.0</ele><time>2026-03-29T07:46:13Z</time></trkpt><trkpt lat="45.51755973494135" lon="10.4505813785206"><ele>188.0</ele><time>2026-03-29T07:46:14Z</time></trkpt><trkpt lat="45.51752991800227" lon="10.450434063838642"><ele>188.0</ele><time>2026-03-29T07:46:15Z</time></trkpt><trkpt lat="45.5174906301607" lon="10.450298091381674"><ele>188.0</ele><time>2026-03-29T07:46:16Z</time></trkpt><trkpt lat="45.51745447426747" lon="10.450170934654782"><ele>188.0</ele><time>2026-03-29T07:46:17Z</time></trkpt><trkpt lat="45.51741953315549" lon="10.450053395129439"><ele>188.0</ele><time>2026-03-29T07:46:18Z</time></trkpt><trkpt lat="45.51738336461969" lon="10.449941108735901"><ele>188.0</ele><time>2026-03-29T07:46:19Z</time></trkpt><trkpt lat="45.51734760048544" lon="10.449833461883014"><ele>188.0</ele><time>2026-03-29T07:46:20Z</time></trkpt><trkpt lat="45.51730044170605" lon="10.449712312953991"><ele>188.0</ele><time>2026-03-29T07:46:21Z</time></trkpt><trkpt lat="45.51725104931234" lon="10.449593829883383"><ele>188.0</ele><time>2026-03-29T07:46:22Z</time></trkpt><trkpt lat="45.51719931083376" lon="10.449464024926263"><ele>188.0</ele><time>2026-03-29T07:46:23Z</time></trkpt><trkpt lat="45.51715846843532" lon="10.449331158880183"><ele>188.0</ele><time>2026-03-29T07:46:24Z</time></trkpt><trkpt lat="45.517115764580296" lon="10.449183806601974"><ele>188.0</ele><time>2026-03-29T07:46:25Z</time></trkpt><trkpt lat="45.517074702847786" lon="10.449034573345834"><ele>188.0</ele><time>2026-03-29T07:46:26Z</time></trkpt><trkpt lat="45.51703128813523" lon="10.448888546407847"><ele>188.0</ele><time>2026-03-29T07:46:27Z</time></trkpt><trkpt lat="45.51699140912336" lon="10.448782229337949"><ele>188.0</ele><time>2026-03-29T07:46:28Z</time></trkpt><trkpt lat="45.5169481274078" lon="10.448676584497028"><ele>188.0</ele><time>2026-03-29T07:46:29Z</time></trkpt><trkpt lat="45.51690055420966" lon="10.448571326296209"><ele>188.0</ele><time>2026-03-29T07:46:30Z</time></trkpt><trkpt lat="45.516854431669714" lon="10.44848271924191"><ele>188.0</ele><time>2026-03-29T07:46:31Z</time></trkpt><trkpt lat="45.5167867021914" lon="10.448388033460699"><ele>187.60000000000002</ele><time>2026-03-29T07:46:32Z</time></trkpt><trkpt lat="45.51671709202687" lon="10.4483142627974"><ele>187.20000000000002</ele><time>2026-03-29T07:46:33Z</time></trkpt><trkpt lat="45.516637656959254" lon="10.448238299618904"><ele>186.8</ele><time>2026-03-29T07:46:34Z</time></trkpt><trkpt lat="45.516549966110475" lon="10.448174036157361"><ele>186.4</ele><time>2026-03-29T07:46:35Z</time></trkpt><trkpt lat="45.516446765766524" lon="10.448115238866546"><ele>186.0</ele><time>2026-03-29T07:46:36Z</time></trkpt><trkpt lat="45.516346239179754" lon="10.448068097444144"><ele>186.0</ele><time>2026-03-29T07:46:37Z</time></trkpt><trkpt lat="45.51624372235268" lon="10.448013564226784"><ele>186.0</ele><time>2026-03-29T07:46:38Z</time></trkpt><trkpt lat="45.51612792783397" lon="10.447960882851413"><ele>186.0</ele><time>2026-03-29T07:46:39Z</time></trkpt><trkpt lat="45.51599698763362" lon="10.447894363281552"><ele>186.0</ele><time>2026-03-29T07:46:40Z</time></trkpt><trkpt lat="45.515859589967064" lon="10.447811442306852"><ele>185.0</ele><time>2026-03-29T07:46:41Z</time></trkpt><trkpt lat="45.51571209049547" lon="10.447726309556293"><ele>184.0</ele><time>2026-03-29T07:46:42Z</time></trkpt><trkpt lat="45.515565713397656" lon="10.447638591232767"><ele>183.0</ele><time>2026-03-29T07:46:43Z</time></trkpt><trkpt lat="45.51543801726149" lon="10.447558435709908"><ele>182.8</ele><time>2026-03-29T07:46:44Z</time></trkpt><trkpt lat="45.51531903414147" lon="10.447484607397417"><ele>182.60000000000002</ele><time>2026-03-29T07:46:45Z</time></trkpt><trkpt lat="45.51522429062265" lon="10.447422576059555"><ele>182.39999999999998</ele><time>2026-03-29T07:46:46Z</time></trkpt><trkpt lat="45.51514085330216" lon="10.447370051611097"><ele>182.2</ele><time>2026-03-29T07:46:47Z</time></trkpt><trkpt lat="45.51506265321156" lon="10.447326013027249"><ele>182.0</ele><time>2026-03-29T07:46:48Z</time></trkpt><trkpt lat="45.514998694616075" lon="10.447291011966211"><ele>182.0</ele><time>2026-03-29T07:46:49Z</time></trkpt><trkpt lat="45.51491036386444" lon="10.447252551971982"><ele>182.0</ele><time>2026-03-29T07:46:51Z</time></trkpt><trkpt lat="45.51488812520276" lon="10.447143083285855"><ele>182.0</ele><time>2026-03-29T07:46:53Z</time></trkpt><trkpt lat="45.514947390761854" lon="10.446960327294985"><ele>182.0</ele><time>2026-03-29T07:46:55Z</time></trkpt><trkpt lat="45.515006953853394" lon="10.446809353877875"><ele>182.0</ele><time>2026-03-29T07:46:56Z</time></trkpt><trkpt lat="45.515072484493665" lon="10.44662461872071"><ele>182.0</ele><time>2026-03-29T07:46:57Z</time></trkpt><trkpt lat="45.51514292267457" lon="10.446422300837613"><ele>182.0</ele><time>2026-03-29T07:46:58Z</time></trkpt><trkpt lat="45.515212831526874" lon="10.4462208803157"><ele>182.0</ele><time>2026-03-29T07:46:59Z</time></trkpt><trkpt lat="45.515269865089486" lon="10.446052530568748"><ele>182.0</ele><time>2026-03-29T07:47:00Z</time></trkpt><trkpt lat="45.515315599291576" lon="10.445905430914566"><ele>182.0</ele><time>2026-03-29T07:47:01Z</time></trkpt><trkpt lat="45.51535863275903" lon="10.445768399157265"><ele>182.0</ele><time>2026-03-29T07:47:02Z</time></trkpt><trkpt lat="45.51539266116644" lon="10.445629894466842"><ele>182.0</ele><time>2026-03-29T07:47:03Z</time></trkpt><trkpt lat="45.51542725943618" lon="10.445469598158295"><ele>182.0</ele><time>2026-03-29T07:47:04Z</time></trkpt><trkpt lat="45.51546434392821" lon="10.445278187933798"><ele>182.0</ele><time>2026-03-29T07:47:05Z</time></trkpt><trkpt lat="45.51550420410263" lon="10.445077802489978"><ele>182.0</ele><time>2026-03-29T07:47:06Z</time></trkpt><trkpt lat="45.51554912249495" lon="10.444868217568335"><ele>182.0</ele><time>2026-03-29T07:47:07Z</time></trkpt><trkpt lat="45.51559536501225" lon="10.444658135992775"><ele>182.0</ele><time>2026-03-29T07:47:08Z</time></trkpt><trkpt lat="45.51563576700388" lon="10.444445064746262"><ele>182.0</ele><time>2026-03-29T07:47:09Z</time></trkpt><trkpt lat="45.51566801530143" lon="10.444260003341592"><ele>182.0</ele><time>2026-03-29T07:47:10Z</time></trkpt><trkpt lat="45.51569995781361" lon="10.444091066415172"><ele>182.0</ele><time>2026-03-29T07:47:11Z</time></trkpt><trkpt lat="45.51574631565003" lon="10.443945663000392"><ele>182.0</ele><time>2026-03-29T07:47:12Z</time></trkpt><trkpt lat="45.51578995634859" lon="10.443826681258495"><ele>182.0</ele><time>2026-03-29T07:47:13Z</time></trkpt><trkpt lat="45.515836430628916" lon="10.44372117089976"><ele>182.0</ele><time>2026-03-29T07:47:14Z</time></trkpt><trkpt lat="45.51587292859512" lon="10.443625653495287"><ele>182.0</ele><time>2026-03-29T07:47:15Z</time></trkpt><trkpt lat="45.515934799280025" lon="10.443560881895234"><ele>182.0</ele><time>2026-03-29T07:47:16Z</time></trkpt><trkpt lat="45.515981402921504" lon="10.443471023376826"><ele>182.0</ele><time>2026-03-29T07:47:17Z</time></trkpt><trkpt lat="45.516035674022774" lon="10.443348843343465"><ele>182.0</ele><time>2026-03-29T07:47:18Z</time></trkpt><trkpt lat="45.51608426981262" lon="10.443177554079965"><ele>182.0</ele><time>2026-03-29T07:47:19Z</time></trkpt><trkpt lat="45.516113118921076" lon="10.442987181435667"><ele>182.0</ele><time>2026-03-29T07:47:20Z</time></trkpt><trkpt lat="45.51615474078348" lon="10.442829441026657"><ele>182.0</ele><time>2026-03-29T07:47:21Z</time></trkpt><trkpt lat="45.51620201297598" lon="10.442717113780995"><ele>182.0</ele><time>2026-03-29T07:47:22Z</time></trkpt><trkpt lat="45.5162494609652" lon="10.442632413965644"><ele>182.0</ele><time>2026-03-29T07:47:24Z</time></trkpt><trkpt lat="45.51631874114123" lon="10.442486757823549"><ele>182.0</ele><time>2026-03-29T07:47:27Z</time></trkpt><trkpt lat="45.51619768149484" lon="10.442186952732314"><ele>182.0</ele><time>2026-03-29T07:47:28Z</time></trkpt><trkpt lat="45.51621799412922" lon="10.441995790802647"><ele>181.75</ele><time>2026-03-29T07:47:29Z</time></trkpt><trkpt lat="45.516229711548945" lon="10.44181328266846"><ele>181.5</ele><time>2026-03-29T07:47:30Z</time></trkpt><trkpt lat="45.51626121233852" lon="10.441638352575579"><ele>181.25</ele><time>2026-03-29T07:47:31Z</time></trkpt><trkpt lat="45.51629871055593" lon="10.441497110386017"><ele>181.0</ele><time>2026-03-29T07:47:32Z</time></trkpt><trkpt lat="45.51632017607815" lon="10.441347733132227"><ele>181.16666666666669</ele><time>2026-03-29T07:47:33Z</time></trkpt><trkpt lat="45.51633947701745" lon="10.441206170522184"><ele>181.33333333333334</ele><time>2026-03-29T07:47:34Z</time></trkpt><trkpt lat="45.51636671699676" lon="10.441094915028483"><ele>181.5</ele><time>2026-03-29T07:47:35Z</time></trkpt><trkpt lat="45.51639814597639" lon="10.440995034727838"><ele>181.66666666666666</ele><time>2026-03-29T07:47:36Z</time></trkpt><trkpt lat="45.5163881553714" lon="10.44087777336052"><ele>181.83333333333331</ele><time>2026-03-29T07:47:38Z</time></trkpt><trkpt lat="45.51633816162276" lon="10.44080641595628"><ele>182.0</ele><time>2026-03-29T07:47:39Z</time></trkpt><trkpt lat="45.516275336327155" lon="10.44077579393744"><ele>182.0</ele><time>2026-03-29T07:47:40Z</time></trkpt><trkpt lat="45.51618594454291" lon="10.440717272520455"><ele>182.0</ele><time>2026-03-29T07:47:41Z</time></trkpt><trkpt lat="45.5161087004921" lon="10.440641816662328"><ele>182.0</ele><time>2026-03-29T07:47:42Z</time></trkpt><trkpt lat="45.516073185704826" lon="10.440549770776682"><ele>182.0</ele><time>2026-03-29T07:47:43Z</time></trkpt><trkpt lat="45.516059227992365" lon="10.440442672171066"><ele>182.0</ele><time>2026-03-29T07:47:44Z</time></trkpt><trkpt lat="45.516077755282055" lon="10.44032583082354"><ele>182.0</ele><time>2026-03-29T07:47:45Z</time></trkpt><trkpt lat="45.51610838076313" lon="10.440180747323097"><ele>181.5</ele><time>2026-03-29T07:47:46Z</time></trkpt><trkpt lat="45.51614478697806" lon="10.440009098694459"><ele>181.0</ele><time>2026-03-29T07:47:47Z</time></trkpt><trkpt lat="45.516186986990675" lon="10.439849621449659"><ele>180.5</ele><time>2026-03-29T07:47:48Z</time></trkpt><trkpt lat="45.51622849856136" lon="10.439703228139267"><ele>180.0</ele><time>2026-03-29T07:47:49Z</time></trkpt><trkpt lat="45.516275778279415" lon="10.439567598002723"><ele>181.2</ele><time>2026-03-29T07:47:50Z</time></trkpt><trkpt lat="45.51632242775431" lon="10.439448527647027"><ele>182.4</ele><time>2026-03-29T07:47:51Z</time></trkpt><trkpt lat="45.5163697208261" lon="10.439355376616934"><ele>183.60000000000002</ele><time>2026-03-29T07:47:52Z</time></trkpt><trkpt lat="45.516423359093935" lon="10.43924640038672"><ele>184.8</ele><time>2026-03-29T07:47:53Z</time></trkpt><trkpt lat="45.51647871581621" lon="10.43914219995333"><ele>186.0</ele><time>2026-03-29T07:47:54Z</time></trkpt><trkpt lat="45.51653328302131" lon="10.439024022126492"><ele>186.0</ele><time>2026-03-29T07:47:55Z</time></trkpt><trkpt lat="45.5165923149193" lon="10.43889826443553"><ele>186.0</ele><time>2026-03-29T07:47:56Z</time></trkpt><trkpt lat="45.51663891501966" lon="10.438778205163757"><ele>186.0</ele><time>2026-03-29T07:47:57Z</time></trkpt><trkpt lat="45.51668367755161" lon="10.43868570701177"><ele>186.0</ele><time>2026-03-29T07:47:58Z</time></trkpt><trkpt lat="45.51671466055068" lon="10.438567947183149"><ele>186.0</ele><time>2026-03-29T07:48:00Z</time></trkpt><trkpt lat="45.516813106152604" lon="10.438621854903392"><ele>186.66666666666666</ele><time>2026-03-29T07:48:03Z</time></trkpt><trkpt lat="45.51689508450317" lon="10.438650001031018"><ele>187.33333333333334</ele><time>2026-03-29T07:48:04Z</time></trkpt><trkpt lat="45.51697655567568" lon="10.438701422069606"><ele>188.0</ele><time>2026-03-29T07:48:05Z</time></trkpt><trkpt lat="45.517055473739944" lon="10.438705227378481"><ele>188.66666666666669</ele><time>2026-03-29T07:48:06Z</time></trkpt><trkpt lat="45.517137804603614" lon="10.438681488967745"><ele>189.33333333333334</ele><time>2026-03-29T07:48:07Z</time></trkpt><trkpt lat="45.5172291824144" lon="10.43865115839827"><ele>190.0</ele><time>2026-03-29T07:48:08Z</time></trkpt><trkpt lat="45.517334440050064" lon="10.438611685159932"><ele>190.2</ele><time>2026-03-29T07:48:09Z</time></trkpt><trkpt lat="45.51744967618846" lon="10.43855951089799"><ele>190.4</ele><time>2026-03-29T07:48:10Z</time></trkpt><trkpt lat="45.517550897049574" lon="10.438502593489554"><ele>190.60000000000002</ele><time>2026-03-29T07:48:11Z</time></trkpt><trkpt lat="45.51763593656452" lon="10.43845095169092"><ele>190.8</ele><time>2026-03-29T07:48:12Z</time></trkpt><trkpt lat="45.51771109234724" lon="10.438409799731815"><ele>191.0</ele><time>2026-03-29T07:48:13Z</time></trkpt><trkpt lat="45.517778022758556" lon="10.438371615252585"><ele>191.0</ele><time>2026-03-29T07:48:14Z</time></trkpt><trkpt lat="45.51788072027153" lon="10.438271165250052"><ele>191.0</ele><time>2026-03-29T07:48:16Z</time></trkpt><trkpt lat="45.51795202529646" lon="10.438211946575107"><ele>191.0</ele><time>2026-03-29T07:48:17Z</time></trkpt><trkpt lat="45.518035351041924" lon="10.438135647062277"><ele>191.0</ele><time>2026-03-29T07:48:18Z</time></trkpt><trkpt lat="45.51813088883465" lon="10.438050415065122"><ele>191.0</ele><time>2026-03-29T07:48:19Z</time></trkpt><trkpt lat="45.51821818359683" lon="10.43797498363486"><ele>191.0</ele><time>2026-03-29T07:48:20Z</time></trkpt><trkpt lat="45.51829786361315" lon="10.437879879930962"><ele>191.0</ele><time>2026-03-29T07:48:21Z</time></trkpt><trkpt lat="45.51839761052438" lon="10.43781296500702"><ele>191.0</ele><time>2026-03-29T07:48:22Z</time></trkpt><trkpt lat="45.51849762235144" lon="10.43772494354314"><ele>191.0</ele><time>2026-03-29T07:48:23Z</time></trkpt><trkpt lat="45.5185981370935" lon="10.437639895238604"><ele>191.0</ele><time>2026-03-29T07:48:24Z</time></trkpt><trkpt lat="45.518723809162715" lon="10.437537471625545"><ele>190.33333333333331</ele><time>2026-03-29T07:48:25Z</time></trkpt><trkpt lat="45.51884909293335" lon="10.437435025949451"><ele>189.66666666666666</ele><time>2026-03-29T07:48:26Z</time></trkpt><trkpt lat="45.518976170370685" lon="10.437302731620077"><ele>189.0</ele><time>2026-03-29T07:48:27Z</time></trkpt><trkpt lat="45.51911780654149" lon="10.43718957804167"><ele>188.75</ele><time>2026-03-29T07:48:28Z</time></trkpt><trkpt lat="45.51923604483598" lon="10.43709568410012"><ele>188.5</ele><time>2026-03-29T07:48:29Z</time></trkpt><trkpt lat="45.51935029288556" lon="10.43700028278795"><ele>188.25</ele><time>2026-03-29T07:48:30Z</time></trkpt><trkpt lat="45.519449185216395" lon="10.43692098672519"><ele>188.0</ele><time>2026-03-29T07:48:31Z</time></trkpt><trkpt lat="45.51953588105547" lon="10.436846341871737"><ele>188.5</ele><time>2026-03-29T07:48:32Z</time></trkpt><trkpt lat="45.519620775852566" lon="10.436782736123874"><ele>189.0</ele><time>2026-03-29T07:48:33Z</time></trkpt><trkpt lat="45.51969510012467" lon="10.436718181801266"><ele>189.5</ele><time>2026-03-29T07:48:34Z</time></trkpt><trkpt lat="45.519768826267544" lon="10.436686968953387"><ele>190.0</ele><time>2026-03-29T07:48:35Z</time></trkpt><trkpt lat="45.51988691613916" lon="10.436646435250095"><ele>190.5</ele><time>2026-03-29T07:48:37Z</time></trkpt><trkpt lat="45.51994993535143" lon="10.43667788586572"><ele>191.0</ele><time>2026-03-29T07:48:38Z</time></trkpt><trkpt lat="45.520018497742775" lon="10.436708702260256"><ele>191.0</ele><time>2026-03-29T07:48:39Z</time></trkpt><trkpt lat="45.52011904290208" lon="10.436683833337556"><ele>191.0</ele><time>2026-03-29T07:48:41Z</time></trkpt><trkpt lat="45.520158510958254" lon="10.43659722233018"><ele>191.0</ele><time>2026-03-29T07:48:42Z</time></trkpt><trkpt lat="45.520172051317054" lon="10.436473069980787"><ele>191.0</ele><time>2026-03-29T07:48:43Z</time></trkpt><trkpt lat="45.52020626535826" lon="10.436324321398004"><ele>191.0</ele><time>2026-03-29T07:48:44Z</time></trkpt><trkpt lat="45.520244782888085" lon="10.436151160991637"><ele>190.75</ele><time>2026-03-29T07:48:45Z</time></trkpt><trkpt lat="45.52028904073918" lon="10.435962284934725"><ele>190.5</ele><time>2026-03-29T07:48:46Z</time></trkpt><trkpt lat="45.52033686341736" lon="10.435796746943433"><ele>190.25</ele><time>2026-03-29T07:48:47Z</time></trkpt><trkpt lat="45.52038257528062" lon="10.43566073352898"><ele>190.0</ele><time>2026-03-29T07:48:48Z</time></trkpt><trkpt lat="45.52042282124719" lon="10.43555753812657"><ele>191.0</ele><time>2026-03-29T07:48:49Z</time></trkpt><trkpt lat="45.520459275661956" lon="10.435451671429608"><ele>192.0</ele><time>2026-03-29T07:48:50Z</time></trkpt><trkpt lat="45.52053549908738" lon="10.435372720651044"><ele>193.0</ele><time>2026-03-29T07:48:51Z</time></trkpt><trkpt lat="45.52062641955461" lon="10.435337079489155"><ele>194.0</ele><time>2026-03-29T07:48:52Z</time></trkpt><trkpt lat="45.52073709926202" lon="10.435268045015468"><ele>195.0</ele><time>2026-03-29T07:48:53Z</time></trkpt><trkpt lat="45.52084251991787" lon="10.43518557885318"><ele>195.0</ele><time>2026-03-29T07:48:54Z</time></trkpt><trkpt lat="45.52094738996502" lon="10.435075068280835"><ele>195.0</ele><time>2026-03-29T07:48:55Z</time></trkpt><trkpt lat="45.521059873151486" lon="10.434955109418278"><ele>195.0</ele><time>2026-03-29T07:48:56Z</time></trkpt><trkpt lat="45.52116577360327" lon="10.434815937689805"><ele>195.0</ele><time>2026-03-29T07:48:57Z</time></trkpt><trkpt lat="45.52126242190887" lon="10.434672254027143"><ele>195.25</ele><time>2026-03-29T07:48:58Z</time></trkpt><trkpt lat="45.521347530226166" lon="10.43454737146356"><ele>195.5</ele><time>2026-03-29T07:48:59Z</time></trkpt><trkpt lat="45.52142681812156" lon="10.43445275496114"><ele>195.75</ele><time>2026-03-29T07:49:00Z</time></trkpt><trkpt lat="45.521512544914835" lon="10.434349085759358"><ele>196.0</ele><time>2026-03-29T07:49:01Z</time></trkpt><trkpt lat="45.52160850449511" lon="10.434237379338496"><ele>196.0</ele><time>2026-03-29T07:49:02Z</time></trkpt><trkpt lat="45.52169850012922" lon="10.434131361495183"><ele>196.0</ele><time>2026-03-29T07:49:03Z</time></trkpt><trkpt lat="45.52179878480748" lon="10.434059834168117"><ele>196.0</ele><time>2026-03-29T07:49:04Z</time></trkpt><trkpt lat="45.521896151280906" lon="10.433999206001282"><ele>196.0</ele><time>2026-03-29T07:49:05Z</time></trkpt><trkpt lat="45.52198565665581" lon="10.433941471908913"><ele>196.0</ele><time>2026-03-29T07:49:06Z</time></trkpt><trkpt lat="45.522061457000035" lon="10.433873593978412"><ele>195.99999999999997</ele><time>2026-03-29T07:49:07Z</time></trkpt><trkpt lat="45.522137224852074" lon="10.433814910581544"><ele>196.0</ele><time>2026-03-29T07:49:08Z</time></trkpt><trkpt lat="45.522200355861926" lon="10.433756592040963"><ele>196.0</ele><time>2026-03-29T07:49:09Z</time></trkpt><trkpt lat="45.5222581500455" lon="10.433700832930802"><ele>196.0</ele><time>2026-03-29T07:49:10Z</time></trkpt><trkpt lat="45.522257955145136" lon="10.433577789423332"><ele>195.99999999999997</ele><time>2026-03-29T07:49:11Z</time></trkpt><trkpt lat="45.522242758810904" lon="10.433464009576232"><ele>196.0</ele><time>2026-03-29T07:49:12Z</time></trkpt><trkpt lat="45.522197236299284" lon="10.433340128125081"><ele>196.0</ele><time>2026-03-29T07:49:13Z</time></trkpt><trkpt lat="45.52214802690067" lon="10.433198598089724"><ele>196.0</ele><time>2026-03-29T07:49:14Z</time></trkpt><trkpt lat="45.52211388408515" lon="10.433060539006878"><ele>196.0</ele><time>2026-03-29T07:49:15Z</time></trkpt><trkpt lat="45.522081974149124" lon="10.432938835336472"><ele>196.0</ele><time>2026-03-29T07:49:16Z</time></trkpt><trkpt lat="45.52205211894378" lon="10.432817009066103"><ele>196.0</ele><time>2026-03-29T07:49:17Z</time></trkpt><trkpt lat="45.52204405741927" lon="10.432722008926742"><ele>195.4</ele><time>2026-03-29T07:49:18Z</time></trkpt><trkpt lat="45.52202562915634" lon="10.432629173681889"><ele>194.8</ele><time>2026-03-29T07:49:19Z</time></trkpt><trkpt lat="45.522008582027226" lon="10.432535996400889"><ele>194.20000000000002</ele><time>2026-03-29T07:49:23Z</time></trkpt><trkpt lat="45.5218671412016" lon="10.432485323944071"><ele>193.60000000000002</ele><time>2026-03-29T07:49:25Z</time></trkpt><trkpt lat="45.5217826106839" lon="10.432503686921526"><ele>193.0</ele><time>2026-03-29T07:49:26Z</time></trkpt><trkpt lat="45.52168810279067" lon="10.432528920375347"><ele>193.0</ele><time>2026-03-29T07:49:27Z</time></trkpt><trkpt lat="45.52159425347299" lon="10.432551796801986"><ele>193.0</ele><time>2026-03-29T07:49:28Z</time></trkpt><trkpt lat="45.521484037316284" lon="10.432570476084248"><ele>193.0</ele><time>2026-03-29T07:49:29Z</time></trkpt><trkpt lat="45.52135417816385" lon="10.432587130582398"><ele>193.0</ele><time>2026-03-29T07:49:30Z</time></trkpt><trkpt lat="45.52121750999644" lon="10.432597806248815"><ele>192.66666666666666</ele><time>2026-03-29T07:49:31Z</time></trkpt><trkpt lat="45.52106329324968" lon="10.43259616643872"><ele>192.33333333333331</ele><time>2026-03-29T07:49:32Z</time></trkpt><trkpt lat="45.52090822855588" lon="10.432540916830929"><ele>192.0</ele><time>2026-03-29T07:49:33Z</time></trkpt><trkpt lat="45.5207531749526" lon="10.432500524311205"><ele>192.0</ele><time>2026-03-29T07:49:34Z</time></trkpt><trkpt lat="45.52060396209382" lon="10.432428510597493"><ele>192.0</ele><time>2026-03-29T07:49:35Z</time></trkpt><trkpt lat="45.52043804996965" lon="10.43234206588062"><ele>192.0</ele><time>2026-03-29T07:49:36Z</time></trkpt><trkpt lat="45.520258515410816" lon="10.43225947421654"><ele>191.0</ele><time>2026-03-29T07:49:37Z</time></trkpt><trkpt lat="45.520076401327955" lon="10.432180002039429"><ele>190.0</ele><time>2026-03-29T07:49:38Z</time></trkpt><trkpt lat="45.51990859253309" lon="10.432078422220329"><ele>189.0</ele><time>2026-03-29T07:49:39Z</time></trkpt><trkpt lat="45.51972338217511" lon="10.432020108633262"><ele>190.0</ele><time>2026-03-29T07:49:40Z</time></trkpt><trkpt lat="45.51954509249763" lon="10.431952081467832"><ele>191.0</ele><time>2026-03-29T07:49:41Z</time></trkpt><trkpt lat="45.51936856990115" lon="10.431911246568347"><ele>192.0</ele><time>2026-03-29T07:49:42Z</time></trkpt><trkpt lat="45.51917619194645" lon="10.431885731253844"><ele>192.0</ele><time>2026-03-29T07:49:43Z</time></trkpt><trkpt lat="45.51899513489267" lon="10.431878268074792"><ele>192.0</ele><time>2026-03-29T07:49:44Z</time></trkpt><trkpt lat="45.51880865993508" lon="10.431864696074697"><ele>192.0</ele><time>2026-03-29T07:49:45Z</time></trkpt><trkpt lat="45.51862702826334" lon="10.431868114721226"><ele>192.0</ele><time>2026-03-29T07:49:46Z</time></trkpt><trkpt lat="45.518442733202704" lon="10.431836131931561"><ele>192.0</ele><time>2026-03-29T07:49:47Z</time></trkpt><trkpt lat="45.51826292119201" lon="10.431827530021643"><ele>192.0</ele><time>2026-03-29T07:49:48Z</time></trkpt><trkpt lat="45.51808806910886" lon="10.431817808124592"><ele>192.0</ele><time>2026-03-29T07:49:49Z</time></trkpt><trkpt lat="45.517909334244884" lon="10.431828717814774"><ele>192.0</ele><time>2026-03-29T07:49:50Z</time></trkpt><trkpt lat="45.517732065256745" lon="10.43182102102345"><ele>192.0</ele><time>2026-03-29T07:49:51Z</time></trkpt><trkpt lat="45.51755393926096" lon="10.431811744492013"><ele>192.33333333333331</ele><time>2026-03-29T07:49:52Z</time></trkpt><trkpt lat="45.51738465575344" lon="10.431801451131568"><ele>192.66666666666666</ele><time>2026-03-29T07:49:53Z</time></trkpt><trkpt lat="45.5172303864168" lon="10.431771553395496"><ele>193.0</ele><time>2026-03-29T07:49:54Z</time></trkpt><trkpt lat="45.51708020137878" lon="10.431784700709228"><ele>192.25</ele><time>2026-03-29T07:49:55Z</time></trkpt><trkpt lat="45.51693598471235" lon="10.431741884351052"><ele>191.5</ele><time>2026-03-29T07:49:56Z</time></trkpt><trkpt lat="45.51679361401196" lon="10.431693549508928"><ele>190.75</ele><time>2026-03-29T07:49:57Z</time></trkpt><trkpt lat="45.51664524045921" lon="10.431626605373557"><ele>190.0</ele><time>2026-03-29T07:49:58Z</time></trkpt><trkpt lat="45.516495836747445" lon="10.431540738614233"><ele>190.0</ele><time>2026-03-29T07:49:59Z</time></trkpt><trkpt lat="45.51634941950347" lon="10.431448462884257"><ele>190.0</ele><time>2026-03-29T07:50:00Z</time></trkpt><trkpt lat="45.5161954138948" lon="10.431349015880201"><ele>190.0</ele><time>2026-03-29T07:50:01Z</time></trkpt><trkpt lat="45.51604652197576" lon="10.431251228556901"><ele>188.75</ele><time>2026-03-29T07:50:02Z</time></trkpt><trkpt lat="45.515906756835946" lon="10.431159435103547"><ele>187.5</ele><time>2026-03-29T07:50:03Z</time></trkpt><trkpt lat="45.515772543979004" lon="10.431071288247523"><ele>186.25</ele><time>2026-03-29T07:50:04Z</time></trkpt><trkpt lat="45.515646453227184" lon="10.43098486977081"><ele>185.0</ele><time>2026-03-29T07:50:05Z</time></trkpt><trkpt lat="45.515527241975" lon="10.43088660804258"><ele>184.75</ele><time>2026-03-29T07:50:06Z</time></trkpt><trkpt lat="45.51539884855164" lon="10.43079078017934"><ele>184.5</ele><time>2026-03-29T07:50:07Z</time></trkpt><trkpt lat="45.515281165852606" lon="10.430657432650541"><ele>184.25</ele><time>2026-03-29T07:50:08Z</time></trkpt><trkpt lat="45.51516324441054" lon="10.430527201335384"><ele>184.0</ele><time>2026-03-29T07:50:09Z</time></trkpt><trkpt lat="45.51504075648234" lon="10.430387971563443"><ele>184.0</ele><time>2026-03-29T07:50:10Z</time></trkpt><trkpt lat="45.514915568845055" lon="10.430249113397915"><ele>184.0</ele><time>2026-03-29T07:50:11Z</time></trkpt><trkpt lat="45.514789360577346" lon="10.430131582454932"><ele>184.0</ele><time>2026-03-29T07:50:12Z</time></trkpt><trkpt lat="45.51465939793884" lon="10.430018263806053"><ele>183.33333333333334</ele><time>2026-03-29T07:50:13Z</time></trkpt><trkpt lat="45.51452023531897" lon="10.429926878580655"><ele>182.66666666666666</ele><time>2026-03-29T07:50:14Z</time></trkpt><trkpt lat="45.514370973458064" lon="10.42982803734329"><ele>182.0</ele><time>2026-03-29T07:50:15Z</time></trkpt><trkpt lat="45.51422337944789" lon="10.42975988153241"><ele>182.0</ele><time>2026-03-29T07:50:16Z</time></trkpt><trkpt lat="45.51406319248931" lon="10.429673680805077"><ele>182.0</ele><time>2026-03-29T07:50:17Z</time></trkpt><trkpt lat="45.51390982379426" lon="10.429601353141106"><ele>182.0</ele><time>2026-03-29T07:50:18Z</time></trkpt><trkpt lat="45.51374247104855" lon="10.429526187841702"><ele>182.66666666666666</ele><time>2026-03-29T07:50:19Z</time></trkpt><trkpt lat="45.513564872224826" lon="10.429398379283704"><ele>183.33333333333334</ele><time>2026-03-29T07:50:20Z</time></trkpt><trkpt lat="45.51337695336727" lon="10.429293670865471"><ele>184.0</ele><time>2026-03-29T07:50:21Z</time></trkpt><trkpt lat="45.51317590035451" lon="10.429188265799146"><ele>184.0</ele><time>2026-03-29T07:50:22Z</time></trkpt><trkpt lat="45.51297916899506" lon="10.429085126412005"><ele>184.0</ele><time>2026-03-29T07:50:23Z</time></trkpt><trkpt lat="45.51279882620297" lon="10.429014202829565"><ele>184.0</ele><time>2026-03-29T07:50:24Z</time></trkpt><trkpt lat="45.51262820299311" lon="10.42892438805819"><ele>184.0</ele><time>2026-03-29T07:50:25Z</time></trkpt><trkpt lat="45.51248349482584" lon="10.428847035284077"><ele>184.0</ele><time>2026-03-29T07:50:26Z</time></trkpt><trkpt lat="45.512345603782535" lon="10.428764931034749"><ele>184.0</ele><time>2026-03-29T07:50:27Z</time></trkpt><trkpt lat="45.51221917975543" lon="10.42869064218944"><ele>184.0</ele><time>2026-03-29T07:50:28Z</time></trkpt><trkpt lat="45.512097192940985" lon="10.42862170162882"><ele>183.39999999999998</ele><time>2026-03-29T07:50:29Z</time></trkpt><trkpt lat="45.51198009071883" lon="10.428555790127092"><ele>182.8</ele><time>2026-03-29T07:50:30Z</time></trkpt><trkpt lat="45.51187439433057" lon="10.42847971406321"><ele>182.2</ele><time>2026-03-29T07:50:31Z</time></trkpt><trkpt lat="45.51177979706862" lon="10.428425982706433"><ele>181.60000000000002</ele><time>2026-03-29T07:50:32Z</time></trkpt><trkpt lat="45.5117014296175" lon="10.42837262199589"><ele>181.0</ele><time>2026-03-29T07:50:33Z</time></trkpt><trkpt lat="45.51164158316899" lon="10.428323448250254"><ele>181.0</ele><time>2026-03-29T07:50:34Z</time></trkpt><trkpt lat="45.511590914888345" lon="10.42826745761042"><ele>181.0</ele><time>2026-03-29T07:50:36Z</time></trkpt><trkpt lat="45.511611990858434" lon="10.428095686590895"><ele>181.0</ele><time>2026-03-29T07:50:38Z</time></trkpt><trkpt lat="45.51164717194527" lon="10.427977391289057"><ele>181.0</ele><time>2026-03-29T07:50:39Z</time></trkpt><trkpt lat="45.51169263949362" lon="10.427857698772813"><ele>181.0</ele><time>2026-03-29T07:50:40Z</time></trkpt><trkpt lat="45.511750707973604" lon="10.4277299360124"><ele>180.5</ele><time>2026-03-29T07:50:41Z</time></trkpt><trkpt lat="45.511819300730195" lon="10.42758819509191"><ele>180.0</ele><time>2026-03-29T07:50:42Z</time></trkpt><trkpt lat="45.5118790636818" lon="10.427454736031459"><ele>179.5</ele><time>2026-03-29T07:50:43Z</time></trkpt><trkpt lat="45.51194449532019" lon="10.427309682411991"><ele>179.0</ele><time>2026-03-29T07:50:44Z</time></trkpt><trkpt lat="45.51199134798642" lon="10.427182480293407"><ele>179.0</ele><time>2026-03-29T07:50:45Z</time></trkpt><trkpt lat="45.51203230501542" lon="10.427042867156057"><ele>179.0</ele><time>2026-03-29T07:50:46Z</time></trkpt><trkpt lat="45.51207082795802" lon="10.426883863634316"><ele>179.0</ele><time>2026-03-29T07:50:47Z</time></trkpt><trkpt lat="45.51209850254394" lon="10.426695363197558"><ele>179.0</ele><time>2026-03-29T07:50:48Z</time></trkpt><trkpt lat="45.51210084382245" lon="10.426495044298482"><ele>179.33333333333331</ele><time>2026-03-29T07:50:49Z</time></trkpt><trkpt lat="45.512070086948015" lon="10.426273433636263"><ele>179.66666666666666</ele><time>2026-03-29T07:50:50Z</time></trkpt><trkpt lat="45.512027597898594" lon="10.426066914858092"><ele>180.0</ele><time>2026-03-29T07:50:51Z</time></trkpt><trkpt lat="45.511991223404756" lon="10.42587297358292"><ele>180.0</ele><time>2026-03-29T07:50:52Z</time></trkpt><trkpt lat="45.5119613796013" lon="10.425677083064253"><ele>180.0</ele><time>2026-03-29T07:50:53Z</time></trkpt><trkpt lat="45.51193250892974" lon="10.42549974611633"><ele>180.0</ele><time>2026-03-29T07:50:54Z</time></trkpt><trkpt lat="45.511905216824616" lon="10.425322630044558"><ele>180.0</ele><time>2026-03-29T07:50:55Z</time></trkpt><trkpt lat="45.51188616255723" lon="10.42516233171384"><ele>180.4</ele><time>2026-03-29T07:50:56Z</time></trkpt><trkpt lat="45.51186549533566" lon="10.425027126969173"><ele>180.8</ele><time>2026-03-29T07:50:57Z</time></trkpt><trkpt lat="45.511847709129604" lon="10.424896094321255"><ele>181.2</ele><time>2026-03-29T07:50:58Z</time></trkpt><trkpt lat="45.511828260688446" lon="10.424794682003663"><ele>181.6</ele><time>2026-03-29T07:50:59Z</time></trkpt><trkpt lat="45.511821444345216" lon="10.424683856841192"><ele>182.0</ele><time>2026-03-29T07:51:01Z</time></trkpt><trkpt lat="45.511690570958905" lon="10.424804695535686"><ele>182.0</ele><time>2026-03-29T07:51:03Z</time></trkpt><trkpt lat="45.511647573715564" lon="10.424904843015229"><ele>182.0</ele><time>2026-03-29T07:51:04Z</time></trkpt><trkpt lat="45.51157397968717" lon="10.425005909658976"><ele>182.0</ele><time>2026-03-29T07:51:05Z</time></trkpt><trkpt lat="45.51150371268892" lon="10.425149665111242"><ele>182.0</ele><time>2026-03-29T07:51:06Z</time></trkpt><trkpt lat="45.511415828411295" lon="10.425276445974466"><ele>182.0</ele><time>2026-03-29T07:51:07Z</time></trkpt><trkpt lat="45.51132474991749" lon="10.425413822145696"><ele>180.0</ele><time>2026-03-29T07:51:08Z</time></trkpt><trkpt lat="45.51121899279706" lon="10.425526031454943"><ele>178.0</ele><time>2026-03-29T07:51:09Z</time></trkpt><trkpt lat="45.51111642596901" lon="10.425634025182493"><ele>176.0</ele><time>2026-03-29T07:51:10Z</time></trkpt><trkpt lat="45.511034596930614" lon="10.425756113317282"><ele>174.0</ele><time>2026-03-29T07:51:11Z</time></trkpt><trkpt lat="45.510954073326175" lon="10.425870209864545"><ele>174.0</ele><time>2026-03-29T07:51:12Z</time></trkpt><trkpt lat="45.510882143970626" lon="10.425979685619351"><ele>174.0</ele><time>2026-03-29T07:51:13Z</time></trkpt><trkpt lat="45.51081703662968" lon="10.426074570881251"><ele>174.0</ele><time>2026-03-29T07:51:14Z</time></trkpt><trkpt lat="45.51075540870001" lon="10.426177679441556"><ele>174.0</ele><time>2026-03-29T07:51:15Z</time></trkpt><trkpt lat="45.510686605122366" lon="10.426260645207206"><ele>174.0</ele><time>2026-03-29T07:51:16Z</time></trkpt><trkpt lat="45.5106025905712" lon="10.426315943990486"><ele>174.0</ele><time>2026-03-29T07:51:17Z</time></trkpt><trkpt lat="45.510520139726985" lon="10.426327162642977"><ele>174.0</ele><time>2026-03-29T07:51:18Z</time></trkpt><trkpt lat="45.51044252262745" lon="10.426288250265351"><ele>174.0</ele><time>2026-03-29T07:51:19Z</time></trkpt><trkpt lat="45.510356515691704" lon="10.42622232862688"><ele>174.0</ele><time>2026-03-29T07:51:20Z</time></trkpt><trkpt lat="45.51024750886011" lon="10.426158988040868"><ele>174.0</ele><time>2026-03-29T07:51:21Z</time></trkpt><trkpt lat="45.510120163479456" lon="10.426096895967694"><ele>173.5</ele><time>2026-03-29T07:51:22Z</time></trkpt><trkpt lat="45.50998567193712" lon="10.426035693141213"><ele>173.0</ele><time>2026-03-29T07:51:23Z</time></trkpt><trkpt lat="45.509854091916196" lon="10.42597289182759"><ele>172.5</ele><time>2026-03-29T07:51:24Z</time></trkpt><trkpt lat="45.50972550366064" lon="10.425917136406271"><ele>172.0</ele><time>2026-03-29T07:51:25Z</time></trkpt><trkpt lat="45.50958007834581" lon="10.42584645714052"><ele>172.0</ele><time>2026-03-29T07:51:26Z</time></trkpt><trkpt lat="45.50943302942582" lon="10.425772866978155"><ele>172.0</ele><time>2026-03-29T07:51:27Z</time></trkpt><trkpt lat="45.509304806207524" lon="10.42571103913419"><ele>172.0</ele><time>2026-03-29T07:51:28Z</time></trkpt><trkpt lat="45.50918317920997" lon="10.425655561927782"><ele>172.0</ele><time>2026-03-29T07:51:29Z</time></trkpt><trkpt lat="45.50907127915553" lon="10.425601111354855"><ele>172.0</ele><time>2026-03-29T07:51:30Z</time></trkpt><trkpt lat="45.50896476064974" lon="10.4255458487856"><ele>172.0</ele><time>2026-03-29T07:51:31Z</time></trkpt><trkpt lat="45.5088769736991" lon="10.425503455983351"><ele>172.0</ele><time>2026-03-29T07:51:32Z</time></trkpt><trkpt lat="45.508811034641184" lon="10.42547428255238"><ele>172.0</ele><time>2026-03-29T07:51:33Z</time></trkpt><trkpt lat="45.50875188006385" lon="10.425402582278519"><ele>172.0</ele><time>2026-03-29T07:51:35Z</time></trkpt><trkpt lat="45.50871344267477" lon="10.425272240948477"><ele>171.2</ele><time>2026-03-29T07:51:37Z</time></trkpt><trkpt lat="45.50865014383952" lon="10.42525534448927"><ele>170.39999999999998</ele><time>2026-03-29T07:51:38Z</time></trkpt><trkpt lat="45.508565096700444" lon="10.425225981721963"><ele>169.60000000000002</ele><time>2026-03-29T07:51:39Z</time></trkpt><trkpt lat="45.50847644762773" lon="10.425202743216449"><ele>168.8</ele><time>2026-03-29T07:51:40Z</time></trkpt><trkpt lat="45.50841390192961" lon="10.425118363505495"><ele>168.0</ele><time>2026-03-29T07:51:41Z</time></trkpt><trkpt lat="45.50831178469459" lon="10.425002672951479"><ele>168.0</ele><time>2026-03-29T07:51:42Z</time></trkpt><trkpt lat="45.50819978636604" lon="10.4248998647329"><ele>168.0</ele><time>2026-03-29T07:51:43Z</time></trkpt><trkpt lat="45.50809300227907" lon="10.42475529153809"><ele>168.0</ele><time>2026-03-29T07:51:44Z</time></trkpt><trkpt lat="45.50797007465084" lon="10.424616919541434"><ele>168.0</ele><time>2026-03-29T07:51:45Z</time></trkpt><trkpt lat="45.50784350784704" lon="10.424474345954335"><ele>168.2</ele><time>2026-03-29T07:51:46Z</time></trkpt><trkpt lat="45.50773588282935" lon="10.424353109647088"><ele>168.4</ele><time>2026-03-29T07:51:47Z</time></trkpt><trkpt lat="45.50763990006665" lon="10.424244987965515"><ele>168.6</ele><time>2026-03-29T07:51:48Z</time></trkpt><trkpt lat="45.507566344590295" lon="10.424160315819469"><ele>168.79999999999998</ele><time>2026-03-29T07:51:49Z</time></trkpt><trkpt lat="45.50750332300302" lon="10.424115762197358"><ele>169.0</ele><time>2026-03-29T07:51:50Z</time></trkpt><trkpt lat="45.507475360556725" lon="10.423975513390134"><ele>169.0</ele><time>2026-03-29T07:51:52Z</time></trkpt><trkpt lat="45.50742341184113" lon="10.423897371443088"><ele>169.0</ele><time>2026-03-29T07:51:53Z</time></trkpt><trkpt lat="45.507360718159354" lon="10.42379745823851"><ele>169.0</ele><time>2026-03-29T07:51:54Z</time></trkpt><trkpt lat="45.50728461749068" lon="10.423688661176255"><ele>169.0</ele><time>2026-03-29T07:51:55Z</time></trkpt><trkpt lat="45.5071568727639" lon="10.423632613693856"><ele>169.0</ele><time>2026-03-29T07:51:56Z</time></trkpt><trkpt lat="45.507007057914755" lon="10.423593192412442"><ele>168.33333333333334</ele><time>2026-03-29T07:51:57Z</time></trkpt><trkpt lat="45.50685637980921" lon="10.423557296392449"><ele>167.66666666666666</ele><time>2026-03-29T07:51:58Z</time></trkpt><trkpt lat="45.50669984915213" lon="10.423527347072097"><ele>167.0</ele><time>2026-03-29T07:51:59Z</time></trkpt><trkpt lat="45.50653524848734" lon="10.423504161416457"><ele>167.0</ele><time>2026-03-29T07:52:00Z</time></trkpt><trkpt lat="45.5063795965559" lon="10.423491323223368"><ele>167.0</ele><time>2026-03-29T07:52:01Z</time></trkpt><trkpt lat="45.5062381647864" lon="10.42347037389938"><ele>167.0</ele><time>2026-03-29T07:52:02Z</time></trkpt><trkpt lat="45.50611394514288" lon="10.423465670580661"><ele>167.0</ele><time>2026-03-29T07:52:03Z</time></trkpt><trkpt lat="45.50599025445671" lon="10.423463152695012"><ele>167.0</ele><time>2026-03-29T07:52:04Z</time></trkpt><trkpt lat="45.50587811653468" lon="10.423466617756942"><ele>167.0</ele><time>2026-03-29T07:52:05Z</time></trkpt><trkpt lat="45.505769299791574" lon="10.423439525974738"><ele>167.0</ele><time>2026-03-29T07:52:06Z</time></trkpt><trkpt lat="45.50566992287074" lon="10.423386426767811"><ele>167.0</ele><time>2026-03-29T07:52:07Z</time></trkpt><trkpt lat="45.505598347622886" lon="10.42328635102201"><ele>167.0</ele><time>2026-03-29T07:52:08Z</time></trkpt><trkpt lat="45.505505226440036" lon="10.4232235035581"><ele>167.0</ele><time>2026-03-29T07:52:09Z</time></trkpt><trkpt lat="45.50542068687822" lon="10.423129207465788"><ele>167.0</ele><time>2026-03-29T07:52:10Z</time></trkpt><trkpt lat="45.50532441442905" lon="10.423036075161066"><ele>167.0</ele><time>2026-03-29T07:52:11Z</time></trkpt><trkpt lat="45.505229845005914" lon="10.422949914103501"><ele>167.0</ele><time>2026-03-29T07:52:12Z</time></trkpt><trkpt lat="45.50513833559393" lon="10.422881083787903"><ele>167.0</ele><time>2026-03-29T07:52:13Z</time></trkpt><trkpt lat="45.505046402023915" lon="10.422840455194603"><ele>167.25</ele><time>2026-03-29T07:52:14Z</time></trkpt><trkpt lat="45.504929271016834" lon="10.422827725019324"><ele>167.5</ele><time>2026-03-29T07:52:15Z</time></trkpt><trkpt lat="45.50480966792461" lon="10.42282907524915"><ele>167.75</ele><time>2026-03-29T07:52:16Z</time></trkpt><trkpt lat="45.50468393395492" lon="10.422823638709513"><ele>168.0</ele><time>2026-03-29T07:52:17Z</time></trkpt><trkpt lat="45.504565073234815" lon="10.422823202448358"><ele>168.0</ele><time>2026-03-29T07:52:18Z</time></trkpt><trkpt lat="45.50444992199999" lon="10.422831235724063"><ele>168.0</ele><time>2026-03-29T07:52:19Z</time></trkpt><trkpt lat="45.50434027504533" lon="10.42281297690729"><ele>168.0</ele><time>2026-03-29T07:52:20Z</time></trkpt><trkpt lat="45.50424367484044" lon="10.422798671306662"><ele>168.0</ele><time>2026-03-29T07:52:21Z</time></trkpt><trkpt lat="45.50414571560468" lon="10.422778616374071"><ele>168.0</ele><time>2026-03-29T07:52:22Z</time></trkpt><trkpt lat="45.50404563484862" lon="10.422762139089288"><ele>168.0</ele><time>2026-03-29T07:52:23Z</time></trkpt><trkpt lat="45.50393179830988" lon="10.422735178174651"><ele>168.0</ele><time>2026-03-29T07:52:24Z</time></trkpt><trkpt lat="45.50381863472699" lon="10.42273005310477"><ele>168.0</ele><time>2026-03-29T07:52:25Z</time></trkpt><trkpt lat="45.50372967633879" lon="10.422713795013415"><ele>168.0</ele><time>2026-03-29T07:52:26Z</time></trkpt><trkpt lat="45.503622888682955" lon="10.422720925340146"><ele>168.0</ele><time>2026-03-29T07:52:27Z</time></trkpt><trkpt lat="45.50353873138741" lon="10.422753753782576"><ele>167.75</ele><time>2026-03-29T07:52:28Z</time></trkpt><trkpt lat="45.503432094837144" lon="10.422817192779164"><ele>167.5</ele><time>2026-03-29T07:52:29Z</time></trkpt><trkpt lat="45.50332646068071" lon="10.422880236224955"><ele>167.25</ele><time>2026-03-29T07:52:30Z</time></trkpt><trkpt lat="45.50322061742461" lon="10.422943583181231"><ele>167.0</ele><time>2026-03-29T07:52:31Z</time></trkpt><trkpt lat="45.50310488387816" lon="10.423035044905186"><ele>166.66666666666666</ele><time>2026-03-29T07:52:32Z</time></trkpt><trkpt lat="45.50297957171238" lon="10.423135265017773"><ele>166.33333333333334</ele><time>2026-03-29T07:52:33Z</time></trkpt><trkpt lat="45.50285179958517" lon="10.423249908511158"><ele>166.0</ele><time>2026-03-29T07:52:34Z</time></trkpt><trkpt lat="45.50271832013673" lon="10.423373872048192"><ele>165.5</ele><time>2026-03-29T07:52:35Z</time></trkpt><trkpt lat="45.502597413803244" lon="10.423482325364681"><ele>165.0</ele><time>2026-03-29T07:52:36Z</time></trkpt><trkpt lat="45.50245782455031" lon="10.423534820137329"><ele>164.5</ele><time>2026-03-29T07:52:37Z</time></trkpt><trkpt lat="45.50231678725554" lon="10.42358737061287"><ele>164.0</ele><time>2026-03-29T07:52:38Z</time></trkpt><trkpt lat="45.50216917920674" lon="10.423605723385876"><ele>163.5</ele><time>2026-03-29T07:52:39Z</time></trkpt><trkpt lat="45.50203907727218" lon="10.423590365933412"><ele>163.0</ele><time>2026-03-29T07:52:40Z</time></trkpt><trkpt lat="45.50192944806904" lon="10.423562241441703"><ele>162.5</ele><time>2026-03-29T07:52:41Z</time></trkpt><trkpt lat="45.501830403624226" lon="10.423530518034102"><ele>162.0</ele><time>2026-03-29T07:52:42Z</time></trkpt><trkpt lat="45.50171928125724" lon="10.423494927467063"><ele>162.0</ele><time>2026-03-29T07:52:43Z</time></trkpt><trkpt lat="45.50158818308965" lon="10.423569451536197"><ele>162.0</ele><time>2026-03-29T07:52:44Z</time></trkpt><trkpt lat="45.501459826198364" lon="10.423586153193515"><ele>162.0</ele><time>2026-03-29T07:52:45Z</time></trkpt><trkpt lat="45.50131297007175" lon="10.423603654286094"><ele>162.0</ele><time>2026-03-29T07:52:46Z</time></trkpt><trkpt lat="45.50114727204425" lon="10.423621255472673"><ele>161.66666666666666</ele><time>2026-03-29T07:52:47Z</time></trkpt><trkpt lat="45.50097530725725" lon="10.423639522307898"><ele>161.33333333333331</ele><time>2026-03-29T07:52:48Z</time></trkpt><trkpt lat="45.50080878264605" lon="10.423657211262158"><ele>161.0</ele><time>2026-03-29T07:52:49Z</time></trkpt><trkpt lat="45.50065914680583" lon="10.423673623108257"><ele>161.0</ele><time>2026-03-29T07:52:50Z</time></trkpt><trkpt lat="45.500523247151804" lon="10.423689520791564"><ele>161.0</ele><time>2026-03-29T07:52:51Z</time></trkpt><trkpt lat="45.500395317374036" lon="10.423704486177872"><ele>161.0</ele><time>2026-03-29T07:52:52Z</time></trkpt><trkpt lat="45.500277572206215" lon="10.423718379025937"><ele>161.0</ele><time>2026-03-29T07:52:53Z</time></trkpt><trkpt lat="45.50016875937868" lon="10.42373586113521"><ele>160.75</ele><time>2026-03-29T07:52:54Z</time></trkpt><trkpt lat="45.50006139029373" lon="10.42375876987865"><ele>160.5</ele><time>2026-03-29T07:52:55Z</time></trkpt><trkpt lat="45.49994720305534" lon="10.423797448862047"><ele>160.25</ele><time>2026-03-29T07:52:56Z</time></trkpt><trkpt lat="45.499836532579714" lon="10.42388426591243"><ele>160.0</ele><time>2026-03-29T07:52:57Z</time></trkpt><trkpt lat="45.49971236984383" lon="10.423971152376385"><ele>159.66666666666669</ele><time>2026-03-29T07:52:58Z</time></trkpt><trkpt lat="45.499570026625584" lon="10.424066101252413"><ele>159.33333333333334</ele><time>2026-03-29T07:52:59Z</time></trkpt><trkpt lat="45.49940269908747" lon="10.424174025685053"><ele>159.0</ele><time>2026-03-29T07:53:00Z</time></trkpt><trkpt lat="45.499235165254824" lon="10.424299323497678"><ele>159.0</ele><time>2026-03-29T07:53:01Z</time></trkpt><trkpt lat="45.499057163917925" lon="10.42441649307519"><ele>159.0</ele><time>2026-03-29T07:53:02Z</time></trkpt><trkpt lat="45.49887590984676" lon="10.424522612018249"><ele>159.0</ele><time>2026-03-29T07:53:03Z</time></trkpt><trkpt lat="45.49869063703367" lon="10.424601050682798"><ele>159.0</ele><time>2026-03-29T07:53:04Z</time></trkpt><trkpt lat="45.498500704430406" lon="10.42471449540254"><ele>159.0</ele><time>2026-03-29T07:53:05Z</time></trkpt><trkpt lat="45.49831388930325" lon="10.424848443151564"><ele>159.0</ele><time>2026-03-29T07:53:06Z</time></trkpt><trkpt lat="45.498145468233105" lon="10.425001000129866"><ele>159.0</ele><time>2026-03-29T07:53:07Z</time></trkpt><trkpt lat="45.49799237592579" lon="10.425108806921363"><ele>159.0</ele><time>2026-03-29T07:53:08Z</time></trkpt><trkpt lat="45.49785714826036" lon="10.425207793613307"><ele>159.0</ele><time>2026-03-29T07:53:09Z</time></trkpt><trkpt lat="45.49772835634346" lon="10.425301847221297"><ele>158.5</ele><time>2026-03-29T07:53:10Z</time></trkpt><trkpt lat="45.49760283499941" lon="10.425401185952811"><ele>158.0</ele><time>2026-03-29T07:53:11Z</time></trkpt><trkpt lat="45.49747903911852" lon="10.425498758828098"><ele>157.5</ele><time>2026-03-29T07:53:12Z</time></trkpt><trkpt lat="45.497352487668394" lon="10.42559749694203"><ele>157.0</ele><time>2026-03-29T07:53:13Z</time></trkpt><trkpt lat="45.49723927934156" lon="10.42568911481995"><ele>157.0</ele><time>2026-03-29T07:53:14Z</time></trkpt><trkpt lat="45.49713539198164" lon="10.425774038303269"><ele>157.0</ele><time>2026-03-29T07:53:15Z</time></trkpt><trkpt lat="45.497038452594964" lon="10.42586205188224"><ele>157.0</ele><time>2026-03-29T07:53:16Z</time></trkpt><trkpt lat="45.49694670059253" lon="10.425952665175522"><ele>157.0</ele><time>2026-03-29T07:53:17Z</time></trkpt><trkpt lat="45.49685498636015" lon="10.4260543781168"><ele>157.0</ele><time>2026-03-29T07:53:18Z</time></trkpt><trkpt lat="45.496759826636065" lon="10.426170865888746"><ele>157.0</ele><time>2026-03-29T07:53:19Z</time></trkpt><trkpt lat="45.496664221423046" lon="10.426296824449244"><ele>157.0</ele><time>2026-03-29T07:53:20Z</time></trkpt><trkpt lat="45.49656023221549" lon="10.426418238318307"><ele>157.0</ele><time>2026-03-29T07:53:21Z</time></trkpt><trkpt lat="45.49644308693037" lon="10.42656084095865"><ele>157.0</ele><time>2026-03-29T07:53:22Z</time></trkpt><trkpt lat="45.49630181830984" lon="10.426724201750758"><ele>157.0</ele><time>2026-03-29T07:53:23Z</time></trkpt><trkpt lat="45.49613973758119" lon="10.426885639976641"><ele>157.0</ele><time>2026-03-29T07:53:24Z</time></trkpt><trkpt lat="45.49597595129768" lon="10.427058477688835"><ele>157.0</ele><time>2026-03-29T07:53:25Z</time></trkpt><trkpt lat="45.49582213254011" lon="10.427255033479545"><ele>157.0</ele><time>2026-03-29T07:53:26Z</time></trkpt><trkpt lat="45.49569431386005" lon="10.427426345217931"><ele>157.0</ele><time>2026-03-29T07:53:27Z</time></trkpt><trkpt lat="45.49552849312434" lon="10.427549913029312"><ele>156.66666666666669</ele><time>2026-03-29T07:53:28Z</time></trkpt><trkpt lat="45.49535081186358" lon="10.4277035971605"><ele>156.33333333333334</ele><time>2026-03-29T07:53:29Z</time></trkpt><trkpt lat="45.495155978158735" lon="10.42787467172608"><ele>156.0</ele><time>2026-03-29T07:53:30Z</time></trkpt><trkpt lat="45.49496738293604" lon="10.428042497979641"><ele>155.5</ele><time>2026-03-29T07:53:31Z</time></trkpt><trkpt lat="45.49478543466681" lon="10.428237585234793"><ele>155.0</ele><time>2026-03-29T07:53:32Z</time></trkpt><trkpt lat="45.49459151906531" lon="10.428409937699053"><ele>155.0</ele><time>2026-03-29T07:53:33Z</time></trkpt><trkpt lat="45.49440956524369" lon="10.428574907416344"><ele>155.0</ele><time>2026-03-29T07:53:34Z</time></trkpt><trkpt lat="45.49424051845527" lon="10.428700883321488"><ele>155.0</ele><time>2026-03-29T07:53:35Z</time></trkpt><trkpt lat="45.49408541592418" lon="10.4288415140923"><ele>155.25</ele><time>2026-03-29T07:53:36Z</time></trkpt><trkpt lat="45.4939638505569" lon="10.428954250515336"><ele>155.5</ele><time>2026-03-29T07:53:37Z</time></trkpt><trkpt lat="45.49385069695743" lon="10.42906070513352"><ele>155.75</ele><time>2026-03-29T07:53:38Z</time></trkpt><trkpt lat="45.493751860808224" lon="10.429156597219668"><ele>156.0</ele><time>2026-03-29T07:53:39Z</time></trkpt><trkpt lat="45.49365639682799" lon="10.429251044364952"><ele>155.6</ele><time>2026-03-29T07:53:40Z</time></trkpt><trkpt lat="45.4935653749092" lon="10.42933873626687"><ele>155.2</ele><time>2026-03-29T07:53:41Z</time></trkpt><trkpt lat="45.493474780276806" lon="10.429408193782955"><ele>154.8</ele><time>2026-03-29T07:53:42Z</time></trkpt><trkpt lat="45.49338865012049" lon="10.429443516451789"><ele>154.4</ele><time>2026-03-29T07:53:43Z</time></trkpt><trkpt lat="45.49333772076932" lon="10.429609517198124"><ele>154.0</ele><time>2026-03-29T07:53:44Z</time></trkpt><trkpt lat="45.49326850170023" lon="10.429690645846565"><ele>154.0</ele><time>2026-03-29T07:53:45Z</time></trkpt><trkpt lat="45.493205867890424" lon="10.42975596619389"><ele>154.0</ele><time>2026-03-29T07:53:46Z</time></trkpt><trkpt lat="45.493153078418004" lon="10.42980802424085"><ele>154.0</ele><time>2026-03-29T07:53:47Z</time></trkpt><trkpt lat="45.493074254095404" lon="10.4297366821936"><ele>154.0</ele><time>2026-03-29T07:53:48Z</time></trkpt><trkpt lat="45.49298148019896" lon="10.429669148684097"><ele>154.0</ele><time>2026-03-29T07:53:49Z</time></trkpt><trkpt lat="45.492881644108756" lon="10.429581309388857"><ele>154.0</ele><time>2026-03-29T07:53:50Z</time></trkpt><trkpt lat="45.492755988237334" lon="10.429451499597722"><ele>154.0</ele><time>2026-03-29T07:53:51Z</time></trkpt><trkpt lat="45.492626756530896" lon="10.429330750361222"><ele>154.0</ele><time>2026-03-29T07:53:52Z</time></trkpt><trkpt lat="45.4924969021851" lon="10.429268612395024"><ele>154.0</ele><time>2026-03-29T07:53:53Z</time></trkpt><trkpt lat="45.49236023550639" lon="10.429274869604228"><ele>154.0</ele><time>2026-03-29T07:53:54Z</time></trkpt><trkpt lat="45.49221791726167" lon="10.429284633100673"><ele>154.0</ele><time>2026-03-29T07:53:55Z</time></trkpt><trkpt lat="45.492082316162204" lon="10.42926764562878"><ele>154.0</ele><time>2026-03-29T07:53:56Z</time></trkpt><trkpt lat="45.49195780152375" lon="10.429270524581566"><ele>154.0</ele><time>2026-03-29T07:53:57Z</time></trkpt><trkpt lat="45.49182287384634" lon="10.42927103584027"><ele>153.75</ele><time>2026-03-29T07:53:58Z</time></trkpt><trkpt lat="45.491680208846496" lon="10.429262114306228"><ele>153.5</ele><time>2026-03-29T07:53:59Z</time></trkpt><trkpt lat="45.4915291062471" lon="10.429251952533274"><ele>153.25</ele><time>2026-03-29T07:54:00Z</time></trkpt><trkpt lat="45.49138446797828" lon="10.429236915089877"><ele>153.0</ele><time>2026-03-29T07:54:01Z</time></trkpt><trkpt lat="45.491260266954995" lon="10.429216098992319"><ele>153.4</ele><time>2026-03-29T07:54:02Z</time></trkpt><trkpt lat="45.491150705650405" lon="10.429192360717606"><ele>153.8</ele><time>2026-03-29T07:54:03Z</time></trkpt><trkpt lat="45.49106122024397" lon="10.429173571079051"><ele>154.2</ele><time>2026-03-29T07:54:04Z</time></trkpt><trkpt lat="45.49097210354478" lon="10.429165734377744"><ele>154.6</ele><time>2026-03-29T07:54:05Z</time></trkpt><trkpt lat="45.49089071743403" lon="10.429203725911151"><ele>155.0</ele><time>2026-03-29T07:54:06Z</time></trkpt><trkpt lat="45.49082217517407" lon="10.429289731006241"><ele>155.0</ele><time>2026-03-29T07:54:07Z</time></trkpt><trkpt lat="45.49079558088469" lon="10.429436270630191"><ele>155.0</ele><time>2026-03-29T07:54:08Z</time></trkpt><trkpt lat="45.490772253625586" lon="10.429573556777164"><ele>155.0</ele><time>2026-03-29T07:54:09Z</time></trkpt><trkpt lat="45.49075031284568" lon="10.429736314655317"><ele>155.0</ele><time>2026-03-29T07:54:10Z</time></trkpt><trkpt lat="45.490724434452225" lon="10.429908665790318"><ele>155.0</ele><time>2026-03-29T07:54:11Z</time></trkpt><trkpt lat="45.490695335670594" lon="10.430103006127016"><ele>154.75</ele><time>2026-03-29T07:54:12Z</time></trkpt><trkpt lat="45.49066465133998" lon="10.43030988473972"><ele>154.5</ele><time>2026-03-29T07:54:13Z</time></trkpt><trkpt lat="45.490636173809015" lon="10.430511238289254"><ele>154.25</ele><time>2026-03-29T07:54:14Z</time></trkpt><trkpt lat="45.49060768264594" lon="10.430689973425602"><ele>154.0</ele><time>2026-03-29T07:54:15Z</time></trkpt><trkpt lat="45.490580563860036" lon="10.430847527518345"><ele>153.6</ele><time>2026-03-29T07:54:16Z</time></trkpt><trkpt lat="45.49055297951065" lon="10.430996468874634"><ele>153.2</ele><time>2026-03-29T07:54:17Z</time></trkpt><trkpt lat="45.490529294440194" lon="10.431135951032728"><ele>152.79999999999998</ele><time>2026-03-29T07:54:18Z</time></trkpt><trkpt lat="45.49050508876712" lon="10.431261633843855"><ele>152.4</ele><time>2026-03-29T07:54:19Z</time></trkpt><trkpt lat="45.49046443975892" lon="10.431367978899866"><ele>152.0</ele><time>2026-03-29T07:54:20Z</time></trkpt><trkpt lat="45.4903924053045" lon="10.431449362578258"><ele>151.75</ele><time>2026-03-29T07:54:21Z</time></trkpt><trkpt lat="45.49028004288793" lon="10.431467738480245"><ele>151.5</ele><time>2026-03-29T07:54:22Z</time></trkpt><trkpt lat="45.4901564399793" lon="10.431522985216981"><ele>151.25</ele><time>2026-03-29T07:54:23Z</time></trkpt><trkpt lat="45.49002251008865" lon="10.43158284786045"><ele>151.0</ele><time>2026-03-29T07:54:24Z</time></trkpt><trkpt lat="45.48987032189799" lon="10.431643026754843"><ele>151.0</ele><time>2026-03-29T07:54:25Z</time></trkpt><trkpt lat="45.48970665850457" lon="10.431721660491368"><ele>151.0</ele><time>2026-03-29T07:54:26Z</time></trkpt><trkpt lat="45.48952730959113" lon="10.431730043860581"><ele>151.0</ele><time>2026-03-29T07:54:27Z</time></trkpt><trkpt lat="45.4893408455371" lon="10.431750944711272"><ele>150.66666666666669</ele><time>2026-03-29T07:54:28Z</time></trkpt><trkpt lat="45.48914426198902" lon="10.431789721598307"><ele>150.33333333333334</ele><time>2026-03-29T07:54:29Z</time></trkpt><trkpt lat="45.488948888209784" lon="10.431809742752643"><ele>150.0</ele><time>2026-03-29T07:54:30Z</time></trkpt><trkpt lat="45.488744028048345" lon="10.43185214113943"><ele>150.0</ele><time>2026-03-29T07:54:31Z</time></trkpt><trkpt lat="45.488528095072034" lon="10.431919325709057"><ele>150.0</ele><time>2026-03-29T07:54:32Z</time></trkpt><trkpt lat="45.48831263552528" lon="10.432008863677934"><ele>150.0</ele><time>2026-03-29T07:54:33Z</time></trkpt><trkpt lat="45.48809672292894" lon="10.43210998274427"><ele>150.33333333333334</ele><time>2026-03-29T07:54:34Z</time></trkpt><trkpt lat="45.48790044222555" lon="10.432203906853522"><ele>150.66666666666669</ele><time>2026-03-29T07:54:35Z</time></trkpt><trkpt lat="45.48771256727729" lon="10.43229424703758"><ele>151.0</ele><time>2026-03-29T07:54:36Z</time></trkpt><trkpt lat="45.48754175426724" lon="10.432376684595686"><ele>151.0</ele><time>2026-03-29T07:54:37Z</time></trkpt><trkpt lat="45.48737251351457" lon="10.432462120665711"><ele>151.0</ele><time>2026-03-29T07:54:38Z</time></trkpt><trkpt lat="45.48721138289004" lon="10.432537583707015"><ele>151.0</ele><time>2026-03-29T07:54:39Z</time></trkpt><trkpt lat="45.487039652872014" lon="10.43261653605738"><ele>151.0</ele><time>2026-03-29T07:54:40Z</time></trkpt><trkpt lat="45.486855549293786" lon="10.432678517652324"><ele>151.0</ele><time>2026-03-29T07:54:41Z</time></trkpt><trkpt lat="45.486672944281565" lon="10.432726251596332"><ele>151.0</ele><time>2026-03-29T07:54:42Z</time></trkpt><trkpt lat="45.48651191582238" lon="10.432764920859313"><ele>151.0</ele><time>2026-03-29T07:54:43Z</time></trkpt><trkpt lat="45.486356087253796" lon="10.43280915505633"><ele>151.0</ele><time>2026-03-29T07:54:44Z</time></trkpt><trkpt lat="45.48620945749917" lon="10.432851020822545"><ele>151.0</ele><time>2026-03-29T07:54:45Z</time></trkpt><trkpt lat="45.486064867212654" lon="10.43288351552357"><ele>150.5</ele><time>2026-03-29T07:54:46Z</time></trkpt><trkpt lat="45.485928717277474" lon="10.432857981402794"><ele>150.0</ele><time>2026-03-29T07:54:47Z</time></trkpt><trkpt lat="45.48579623351026" lon="10.432795055461183"><ele>149.5</ele><time>2026-03-29T07:54:48Z</time></trkpt><trkpt lat="45.48565963058691" lon="10.432691860189125"><ele>149.0</ele><time>2026-03-29T07:54:49Z</time></trkpt><trkpt lat="45.48551319280455" lon="10.432586884661383"><ele>149.0</ele><time>2026-03-29T07:54:50Z</time></trkpt><trkpt lat="45.48535785705346" lon="10.432482516491664"><ele>149.0</ele><time>2026-03-29T07:54:51Z</time></trkpt><trkpt lat="45.48518181016084" lon="10.432374329135584"><ele>149.0</ele><time>2026-03-29T07:54:52Z</time></trkpt><trkpt lat="45.48500479002261" lon="10.432290992385312"><ele>149.0</ele><time>2026-03-29T07:54:53Z</time></trkpt><trkpt lat="45.484807315122445" lon="10.432218115975397"><ele>149.0</ele><time>2026-03-29T07:54:54Z</time></trkpt><trkpt lat="45.48460688370132" lon="10.43216125518983"><ele>149.0</ele><time>2026-03-29T07:54:55Z</time></trkpt><trkpt lat="45.484405597689204" lon="10.432095019247729"><ele>148.66666666666666</ele><time>2026-03-29T07:54:56Z</time></trkpt><trkpt lat="45.48420403590755" lon="10.432025509783067"><ele>148.33333333333334</ele><time>2026-03-29T07:54:57Z</time></trkpt><trkpt lat="45.48400357990654" lon="10.431944184167946"><ele>148.0</ele><time>2026-03-29T07:54:58Z</time></trkpt><trkpt lat="45.48380232637948" lon="10.431868873063122"><ele>147.0</ele><time>2026-03-29T07:54:59Z</time></trkpt><trkpt lat="45.48360493677636" lon="10.431817354070107"><ele>146.0</ele><time>2026-03-29T07:55:00Z</time></trkpt><trkpt lat="45.48342866632261" lon="10.431725930988113"><ele>145.0</ele><time>2026-03-29T07:55:01Z</time></trkpt><trkpt lat="45.483252088504756" lon="10.431661600751273"><ele>145.0</ele><time>2026-03-29T07:55:02Z</time></trkpt><trkpt lat="45.483097295894126" lon="10.431607603287711"><ele>145.0</ele><time>2026-03-29T07:55:03Z</time></trkpt><trkpt lat="45.48293117598667" lon="10.431561045342963"><ele>145.0</ele><time>2026-03-29T07:55:04Z</time></trkpt><trkpt lat="45.48277065094679" lon="10.431520552947788"><ele>145.33333333333334</ele><time>2026-03-29T07:55:05Z</time></trkpt><trkpt lat="45.48259926720157" lon="10.4315046039156"><ele>145.66666666666666</ele><time>2026-03-29T07:55:06Z</time></trkpt><trkpt lat="45.48241385366626" lon="10.431468223006355"><ele>146.0</ele><time>2026-03-29T07:55:07Z</time></trkpt><trkpt lat="45.48224518518601" lon="10.431415749713604"><ele>145.66666666666666</ele><time>2026-03-29T07:55:08Z</time></trkpt><trkpt lat="45.48207635566605" lon="10.431392365724655"><ele>145.33333333333334</ele><time>2026-03-29T07:55:09Z</time></trkpt><trkpt lat="45.481908598347395" lon="10.431380990193833"><ele>145.0</ele><time>2026-03-29T07:55:10Z</time></trkpt><trkpt lat="45.48172706578345" lon="10.431419703282776"><ele>145.0</ele><time>2026-03-29T07:55:11Z</time></trkpt><trkpt lat="45.48154270921955" lon="10.43142504270662"><ele>145.0</ele><time>2026-03-29T07:55:12Z</time></trkpt><trkpt lat="45.48136365601306" lon="10.431452024249772"><ele>145.0</ele><time>2026-03-29T07:55:13Z</time></trkpt><trkpt lat="45.48120437322306" lon="10.431476097559324"><ele>144.75</ele><time>2026-03-29T07:55:14Z</time></trkpt><trkpt lat="45.48107122794552" lon="10.431483897672404"><ele>144.5</ele><time>2026-03-29T07:55:15Z</time></trkpt><trkpt lat="45.48094379730151" lon="10.431498627875369"><ele>144.25</ele><time>2026-03-29T07:55:16Z</time></trkpt><trkpt lat="45.48082014389486" lon="10.431417323859504"><ele>144.0</ele><time>2026-03-29T07:55:17Z</time></trkpt><trkpt lat="45.48067993874049" lon="10.431333357160849"><ele>144.33333333333334</ele><time>2026-03-29T07:55:18Z</time></trkpt><trkpt lat="45.48052844776654" lon="10.431245576474376"><ele>144.66666666666669</ele><time>2026-03-29T07:55:19Z</time></trkpt><trkpt lat="45.48036757992796" lon="10.431168017055827"><ele>145.0</ele><time>2026-03-29T07:55:20Z</time></trkpt><trkpt lat="45.480223821962475" lon="10.431032562651712"><ele>144.33333333333334</ele><time>2026-03-29T07:55:21Z</time></trkpt><trkpt lat="45.480075742359354" lon="10.430911512758549"><ele>143.66666666666666</ele><time>2026-03-29T07:55:22Z</time></trkpt><trkpt lat="45.479923916964744" lon="10.430799300097341"><ele>143.0</ele><time>2026-03-29T07:55:23Z</time></trkpt><trkpt lat="45.47976205814693" lon="10.43069689435043"><ele>142.66666666666666</ele><time>2026-03-29T07:55:24Z</time></trkpt><trkpt lat="45.47958499072492" lon="10.43060847337553"><ele>142.33333333333334</ele><time>2026-03-29T07:55:25Z</time></trkpt><trkpt lat="45.479377337955945" lon="10.430542224692099"><ele>142.0</ele><time>2026-03-29T07:55:26Z</time></trkpt><trkpt lat="45.47916809332262" lon="10.430463063148627"><ele>141.66666666666669</ele><time>2026-03-29T07:55:27Z</time></trkpt><trkpt lat="45.478965035991195" lon="10.43039868087322"><ele>141.33333333333334</ele><time>2026-03-29T07:55:28Z</time></trkpt><trkpt lat="45.47878108913431" lon="10.430314494389615"><ele>141.0</ele><time>2026-03-29T07:55:29Z</time></trkpt><trkpt lat="45.47861643011169" lon="10.430261736811849"><ele>141.0</ele><time>2026-03-29T07:55:30Z</time></trkpt><trkpt lat="45.47846198243287" lon="10.430213547464067"><ele>141.0</ele><time>2026-03-29T07:55:31Z</time></trkpt><trkpt lat="45.478314626280834" lon="10.4301694424708"><ele>141.0</ele><time>2026-03-29T07:55:32Z</time></trkpt><trkpt lat="45.478163811536746" lon="10.430126609302475"><ele>141.0</ele><time>2026-03-29T07:55:33Z</time></trkpt><trkpt lat="45.478014158752956" lon="10.430091143436266"><ele>141.0</ele><time>2026-03-29T07:55:34Z</time></trkpt><trkpt lat="45.477859429064104" lon="10.430058533900706"><ele>141.0</ele><time>2026-03-29T07:55:35Z</time></trkpt><trkpt lat="45.47771033887944" lon="10.43002926923422"><ele>140.75</ele><time>2026-03-29T07:55:36Z</time></trkpt><trkpt lat="45.477561787689055" lon="10.430002409923446"><ele>140.5</ele><time>2026-03-29T07:55:37Z</time></trkpt><trkpt lat="45.47742761576308" lon="10.429981039488725"><ele>140.25</ele><time>2026-03-29T07:55:38Z</time></trkpt><trkpt lat="45.47732472615729" lon="10.429966929319622"><ele>140.0</ele><time>2026-03-29T07:55:39Z</time></trkpt><trkpt lat="45.47723700635782" lon="10.429962538491106"><ele>140.0</ele><time>2026-03-29T07:55:40Z</time></trkpt><trkpt lat="45.477158960240295" lon="10.429985021726438"><ele>140.0</ele><time>2026-03-29T07:55:41Z</time></trkpt><trkpt lat="45.4770805495414" lon="10.430063118866391"><ele>140.0</ele><time>2026-03-29T07:55:42Z</time></trkpt><trkpt lat="45.4770683029689" lon="10.430268651302837"><ele>140.0</ele><time>2026-03-29T07:55:43Z</time></trkpt><trkpt lat="45.47704046618283" lon="10.430422867210154"><ele>140.0</ele><time>2026-03-29T07:55:44Z</time></trkpt><trkpt lat="45.4770160154656" lon="10.430588334343762"><ele>139.8</ele><time>2026-03-29T07:55:45Z</time></trkpt><trkpt lat="45.476981938314566" lon="10.430738341062392"><ele>139.6</ele><time>2026-03-29T07:55:46Z</time></trkpt><trkpt lat="45.476941316801884" lon="10.430856053011981"><ele>139.4</ele><time>2026-03-29T07:55:47Z</time></trkpt><trkpt lat="45.4768881204588" lon="10.430940189185781"><ele>139.2</ele><time>2026-03-29T07:55:48Z</time></trkpt><trkpt lat="45.47680665878039" lon="10.430995517570418"><ele>139.0</ele><time>2026-03-29T07:55:49Z</time></trkpt><trkpt lat="45.47670500577372" lon="10.431007426743735"><ele>139.0</ele><time>2026-03-29T07:55:50Z</time></trkpt><trkpt lat="45.47659969951769" lon="10.430929634020025"><ele>139.0</ele><time>2026-03-29T07:55:51Z</time></trkpt><trkpt lat="45.47645678805382" lon="10.430870271074674"><ele>139.0</ele><time>2026-03-29T07:55:52Z</time></trkpt><trkpt lat="45.47629109587264" lon="10.430798616470565"><ele>139.0</ele><time>2026-03-29T07:55:53Z</time></trkpt><trkpt lat="45.4761138452726" lon="10.43074297483193"><ele>139.33333333333334</ele><time>2026-03-29T07:55:54Z</time></trkpt><trkpt lat="45.47593070774212" lon="10.430653966419841"><ele>139.66666666666666</ele><time>2026-03-29T07:55:55Z</time></trkpt><trkpt lat="45.475737458472125" lon="10.4305738974974"><ele>140.0</ele><time>2026-03-29T07:55:56Z</time></trkpt><trkpt lat="45.47554184577104" lon="10.430472937943833"><ele>139.66666666666666</ele><time>2026-03-29T07:55:57Z</time></trkpt><trkpt lat="45.47535382160153" lon="10.430320225838662"><ele>139.33333333333334</ele><time>2026-03-29T07:55:58Z</time></trkpt><trkpt lat="45.475137861985324" lon="10.430202123948494"><ele>139.0</ele><time>2026-03-29T07:55:59Z</time></trkpt><trkpt lat="45.47490914657354" lon="10.430108353951784"><ele>139.0</ele><time>2026-03-29T07:56:00Z</time></trkpt><trkpt lat="45.474697911446896" lon="10.430003709618818"><ele>139.0</ele><time>2026-03-29T07:56:01Z</time></trkpt><trkpt lat="45.47450720139484" lon="10.429904255393726"><ele>139.0</ele><time>2026-03-29T07:56:02Z</time></trkpt><trkpt lat="45.47433658337057" lon="10.429816885001227"><ele>138.75</ele><time>2026-03-29T07:56:03Z</time></trkpt><trkpt lat="45.47418723665307" lon="10.429738247334813"><ele>138.5</ele><time>2026-03-29T07:56:04Z</time></trkpt><trkpt lat="45.47405919639528" lon="10.429673563107924"><ele>138.25</ele><time>2026-03-29T07:56:05Z</time></trkpt><trkpt lat="45.473948437349364" lon="10.429620731534378"><ele>138.0</ele><time>2026-03-29T07:56:06Z</time></trkpt><trkpt lat="45.47385446000064" lon="10.429574685529742"><ele>137.8</ele><time>2026-03-29T07:56:07Z</time></trkpt><trkpt lat="45.473778138994675" lon="10.429538736857388"><ele>137.60000000000002</ele><time>2026-03-29T07:56:08Z</time></trkpt><trkpt lat="45.473680992029465" lon="10.429484384123763"><ele>137.39999999999998</ele><time>2026-03-29T07:56:10Z</time></trkpt><trkpt lat="45.47361451979097" lon="10.429499144085343"><ele>137.2</ele><time>2026-03-29T07:56:12Z</time></trkpt><trkpt lat="45.47355090848812" lon="10.429643892785656"><ele>137.0</ele><time>2026-03-29T07:56:14Z</time></trkpt><trkpt lat="45.473539253111866" lon="10.429788833524638"><ele>137.0</ele><time>2026-03-29T07:56:15Z</time></trkpt><trkpt lat="45.4735267296017" lon="10.429942700719817"><ele>137.0</ele><time>2026-03-29T07:56:16Z</time></trkpt><trkpt lat="45.47350749220526" lon="10.430121302531722"><ele>137.0</ele><time>2026-03-29T07:56:17Z</time></trkpt><trkpt lat="45.47348260992678" lon="10.430310884256881"><ele>137.0</ele><time>2026-03-29T07:56:18Z</time></trkpt><trkpt lat="45.47345151662098" lon="10.430516686717443"><ele>137.0</ele><time>2026-03-29T07:56:19Z</time></trkpt><trkpt lat="45.47340913477724" lon="10.430733239204866"><ele>137.0</ele><time>2026-03-29T07:56:20Z</time></trkpt><trkpt lat="45.47335546883537" lon="10.43095340373327"><ele>137.0</ele><time>2026-03-29T07:56:21Z</time></trkpt><trkpt lat="45.473295994527746" lon="10.431185773513384"><ele>137.66666666666666</ele><time>2026-03-29T07:56:22Z</time></trkpt><trkpt lat="45.4732287805853" lon="10.431430427833572"><ele>138.33333333333334</ele><time>2026-03-29T07:56:23Z</time></trkpt><trkpt lat="45.47316054312343" lon="10.431685956031915"><ele>139.0</ele><time>2026-03-29T07:56:24Z</time></trkpt><trkpt lat="45.47309164788849" lon="10.431937769307517"><ele>139.0</ele><time>2026-03-29T07:56:25Z</time></trkpt><trkpt lat="45.4730172353481" lon="10.43219704812916"><ele>139.0</ele><time>2026-03-29T07:56:26Z</time></trkpt><trkpt lat="45.472941965370616" lon="10.432469458073566"><ele>139.0</ele><time>2026-03-29T07:56:27Z</time></trkpt><trkpt lat="45.47286497836045" lon="10.432737823935414"><ele>139.33333333333334</ele><time>2026-03-29T07:56:28Z</time></trkpt><trkpt lat="45.4727901139213" lon="10.43300475451285"><ele>139.66666666666666</ele><time>2026-03-29T07:56:29Z</time></trkpt><trkpt lat="45.472721584462626" lon="10.433263510261016"><ele>140.0</ele><time>2026-03-29T07:56:30Z</time></trkpt><trkpt lat="45.47266098009846" lon="10.433493266332881"><ele>140.0</ele><time>2026-03-29T07:56:31Z</time></trkpt><trkpt lat="45.47260548276645" lon="10.433705401676436"><ele>140.0</ele><time>2026-03-29T07:56:32Z</time></trkpt><trkpt lat="45.47255812522931" lon="10.433892223378464"><ele>140.0</ele><time>2026-03-29T07:56:33Z</time></trkpt><trkpt lat="45.47251328289307" lon="10.43406054715738"><ele>140.0</ele><time>2026-03-29T07:56:34Z</time></trkpt><trkpt lat="45.472470201319204" lon="10.434218128327549"><ele>139.6</ele><time>2026-03-29T07:56:35Z</time></trkpt><trkpt lat="45.472429752232806" lon="10.434362838048578"><ele>139.2</ele><time>2026-03-29T07:56:36Z</time></trkpt><trkpt lat="45.47239680168948" lon="10.43449833808843"><ele>138.8</ele><time>2026-03-29T07:56:37Z</time></trkpt><trkpt lat="45.47236755768467" lon="10.434629490237441"><ele>138.4</ele><time>2026-03-29T07:56:38Z</time></trkpt><trkpt lat="45.47233684716785" lon="10.434738530751545"><ele>138.0</ele><time>2026-03-29T07:56:39Z</time></trkpt><trkpt lat="45.47230176922317" lon="10.434838823268166"><ele>137.83333333333334</ele><time>2026-03-29T07:56:40Z</time></trkpt><trkpt lat="45.47225840376245" lon="10.434921848274968"><ele>137.66666666666666</ele><time>2026-03-29T07:56:41Z</time></trkpt><trkpt lat="45.47220562506091" lon="10.435003648262159"><ele>137.5</ele><time>2026-03-29T07:56:42Z</time></trkpt><trkpt lat="45.472162167446385" lon="10.435092940962594"><ele>137.33333333333331</ele><time>2026-03-29T07:56:43Z</time></trkpt><trkpt lat="45.47213356249971" lon="10.43518978310529"><ele>137.16666666666666</ele><time>2026-03-29T07:56:44Z</time></trkpt><trkpt lat="45.472125688462576" lon="10.435302156972213"><ele>137.0</ele><time>2026-03-29T07:56:45Z</time></trkpt><trkpt lat="45.47212720078488" lon="10.435426072004088"><ele>137.25</ele><time>2026-03-29T07:56:46Z</time></trkpt><trkpt lat="45.4721257121072" lon="10.43557112316761"><ele>137.5</ele><time>2026-03-29T07:56:47Z</time></trkpt><trkpt lat="45.47210569932018" lon="10.435725894463275"><ele>137.75</ele><time>2026-03-29T07:56:48Z</time></trkpt><trkpt lat="45.472064783543935" lon="10.43588231262559"><ele>138.0</ele><time>2026-03-29T07:56:49Z</time></trkpt><trkpt lat="45.47200956396424" lon="10.436065979534693"><ele>138.33333333333334</ele><time>2026-03-29T07:56:50Z</time></trkpt><trkpt lat="45.47194172137732" lon="10.43628068166843"><ele>138.66666666666669</ele><time>2026-03-29T07:56:51Z</time></trkpt><trkpt lat="45.47186603781306" lon="10.436495623163625"><ele>139.0</ele><time>2026-03-29T07:56:52Z</time></trkpt><trkpt lat="45.47178346580546" lon="10.436725161743288"><ele>139.0</ele><time>2026-03-29T07:56:53Z</time></trkpt><trkpt lat="45.471704514229465" lon="10.436959683184039"><ele>139.0</ele><time>2026-03-29T07:56:54Z</time></trkpt><trkpt lat="45.471630925673445" lon="10.437205152423132"><ele>139.0</ele><time>2026-03-29T07:56:55Z</time></trkpt><trkpt lat="45.47156115039008" lon="10.437448830549618"><ele>138.66666666666669</ele><time>2026-03-29T07:56:56Z</time></trkpt><trkpt lat="45.47148603288648" lon="10.43770916836194"><ele>138.33333333333334</ele><time>2026-03-29T07:56:57Z</time></trkpt><trkpt lat="45.47140785289095" lon="10.437979403869436"><ele>138.0</ele><time>2026-03-29T07:56:58Z</time></trkpt><trkpt lat="45.471329994689675" lon="10.438254060267772"><ele>138.0</ele><time>2026-03-29T07:56:59Z</time></trkpt><trkpt lat="45.47125845123624" lon="10.438514814090466"><ele>138.0</ele><time>2026-03-29T07:57:00Z</time></trkpt><trkpt lat="45.47119053432172" lon="10.438761671703432"><ele>138.0</ele><time>2026-03-29T07:57:01Z</time></trkpt><trkpt lat="45.471130614848626" lon="10.438985729106365"><ele>138.0</ele><time>2026-03-29T07:57:02Z</time></trkpt><trkpt lat="45.47107435029621" lon="10.439183830186927"><ele>138.0</ele><time>2026-03-29T07:57:03Z</time></trkpt><trkpt lat="45.47102432096" lon="10.43938252457812"><ele>138.0</ele><time>2026-03-29T07:57:04Z</time></trkpt><trkpt lat="45.47098093913185" lon="10.439561140518837"><ele>138.0</ele><time>2026-03-29T07:57:05Z</time></trkpt><trkpt lat="45.470947335225375" lon="10.439733097090484"><ele>138.20000000000002</ele><time>2026-03-29T07:57:06Z</time></trkpt><trkpt lat="45.47092616569389" lon="10.439896397059501"><ele>138.4</ele><time>2026-03-29T07:57:07Z</time></trkpt><trkpt lat="45.47091170988994" lon="10.440045652892131"><ele>138.60000000000002</ele><time>2026-03-29T07:57:08Z</time></trkpt><trkpt lat="45.47089216437622" lon="10.440170488840744"><ele>138.8</ele><time>2026-03-29T07:57:09Z</time></trkpt><trkpt lat="45.47087794509188" lon="10.440284871804062"><ele>139.0</ele><time>2026-03-29T07:57:10Z</time></trkpt><trkpt lat="45.47081768493115" lon="10.440360050442482"><ele>139.0</ele><time>2026-03-29T07:57:11Z</time></trkpt><trkpt lat="45.470783224983315" lon="10.440435216958704"><ele>139.0</ele><time>2026-03-29T07:57:12Z</time></trkpt><trkpt lat="45.4706176598178" lon="10.440354419503029"><ele>139.0</ele><time>2026-03-29T07:57:13Z</time></trkpt><trkpt lat="45.47050303400337" lon="10.440360782719935"><ele>139.0</ele><time>2026-03-29T07:57:14Z</time></trkpt><trkpt lat="45.470384108536805" lon="10.4403335373935"><ele>139.33333333333334</ele><time>2026-03-29T07:57:15Z</time></trkpt><trkpt lat="45.47022927807486" lon="10.440330458818034"><ele>139.66666666666666</ele><time>2026-03-29T07:57:16Z</time></trkpt><trkpt lat="45.47006545451003" lon="10.440343617184613"><ele>140.0</ele><time>2026-03-29T07:57:17Z</time></trkpt><trkpt lat="45.46991775535796" lon="10.440364959325624"><ele>140.0</ele><time>2026-03-29T07:57:18Z</time></trkpt><trkpt lat="45.4697604594242" lon="10.44039154111647"><ele>140.0</ele><time>2026-03-29T07:57:19Z</time></trkpt><trkpt lat="45.46959443725057" lon="10.440419725197115"><ele>140.0</ele><time>2026-03-29T07:57:20Z</time></trkpt><trkpt lat="45.469431690952874" lon="10.44046013964025"><ele>139.5</ele><time>2026-03-29T07:57:21Z</time></trkpt><trkpt lat="45.46927796642097" lon="10.440479396545562"><ele>139.0</ele><time>2026-03-29T07:57:22Z</time></trkpt><trkpt lat="45.46914529019074" lon="10.440507117540417"><ele>138.5</ele><time>2026-03-29T07:57:23Z</time></trkpt><trkpt lat="45.46902406159469" lon="10.44053002601207"><ele>138.0</ele><time>2026-03-29T07:57:24Z</time></trkpt><trkpt lat="45.46891553432738" lon="10.440584929135508"><ele>138.0</ele><time>2026-03-29T07:57:25Z</time></trkpt><trkpt lat="45.46880663687692" lon="10.440604255280956"><ele>138.0</ele><time>2026-03-29T07:57:26Z</time></trkpt><trkpt lat="45.46869963825616" lon="10.440629027772436"><ele>138.0</ele><time>2026-03-29T07:57:27Z</time></trkpt><trkpt lat="45.46858514979156" lon="10.440658516005438"><ele>138.0</ele><time>2026-03-29T07:57:28Z</time></trkpt><trkpt lat="45.46847586602406" lon="10.44068438446139"><ele>138.0</ele><time>2026-03-29T07:57:29Z</time></trkpt><trkpt lat="45.46839227283333" lon="10.44067823851886"><ele>138.20000000000002</ele><time>2026-03-29T07:57:30Z</time></trkpt><trkpt lat="45.468265775887566" lon="10.440695298519298"><ele>138.4</ele><time>2026-03-29T07:57:32Z</time></trkpt><trkpt lat="45.468204047270056" lon="10.440609990341649"><ele>138.60000000000002</ele><time>2026-03-29T07:57:33Z</time></trkpt><trkpt lat="45.46810955381221" lon="10.44056007404379"><ele>138.8</ele><time>2026-03-29T07:57:34Z</time></trkpt><trkpt lat="45.46801166143412" lon="10.440529950624379"><ele>139.0</ele><time>2026-03-29T07:57:35Z</time></trkpt><trkpt lat="45.46791165333389" lon="10.44059116195477"><ele>139.0</ele><time>2026-03-29T07:57:36Z</time></trkpt><trkpt lat="45.46779793290368" lon="10.440630939386127"><ele>139.0</ele><time>2026-03-29T07:57:37Z</time></trkpt><trkpt lat="45.46765778702537" lon="10.440648978194398"><ele>139.0</ele><time>2026-03-29T07:57:38Z</time></trkpt><trkpt lat="45.46750237053194" lon="10.440679987955066"><ele>139.0</ele><time>2026-03-29T07:57:39Z</time></trkpt><trkpt lat="45.467347372917885" lon="10.440705826291525"><ele>139.0</ele><time>2026-03-29T07:57:40Z</time></trkpt><trkpt lat="45.46718188096685" lon="10.440726943028535"><ele>139.0</ele><time>2026-03-29T07:57:41Z</time></trkpt><trkpt lat="45.46700758119086" lon="10.440746597266575"><ele>139.0</ele><time>2026-03-29T07:57:42Z</time></trkpt><trkpt lat="45.46682407427491" lon="10.440771014325222"><ele>138.0</ele><time>2026-03-29T07:57:43Z</time></trkpt><trkpt lat="45.46664332075071" lon="10.440799439676349"><ele>137.0</ele><time>2026-03-29T07:57:44Z</time></trkpt><trkpt lat="45.46645586266341" lon="10.440830244286824"><ele>136.0</ele><time>2026-03-29T07:57:45Z</time></trkpt><trkpt lat="45.46626314008759" lon="10.440866897215782"><ele>135.66666666666669</ele><time>2026-03-29T07:57:46Z</time></trkpt><trkpt lat="45.466058492179044" lon="10.440911711511573"><ele>135.33333333333334</ele><time>2026-03-29T07:57:47Z</time></trkpt><trkpt lat="45.465854641745764" lon="10.44096692620222"><ele>135.0</ele><time>2026-03-29T07:57:48Z</time></trkpt><trkpt lat="45.46565296267706" lon="10.441027367818887"><ele>135.0</ele><time>2026-03-29T07:57:49Z</time></trkpt><trkpt lat="45.46544957991497" lon="10.441092765753346"><ele>135.0</ele><time>2026-03-29T07:57:50Z</time></trkpt><trkpt lat="45.46524755222186" lon="10.441131850602533"><ele>135.0</ele><time>2026-03-29T07:57:51Z</time></trkpt><trkpt lat="45.46506518740057" lon="10.441183826892116"><ele>134.66666666666666</ele><time>2026-03-29T07:57:52Z</time></trkpt><trkpt lat="45.46490157407153" lon="10.441230168889879"><ele>134.33333333333331</ele><time>2026-03-29T07:57:53Z</time></trkpt><trkpt lat="45.46473606625032" lon="10.441280727058228"><ele>134.0</ele><time>2026-03-29T07:57:54Z</time></trkpt><trkpt lat="45.46458239951477" lon="10.441333126602405"><ele>134.66666666666666</ele><time>2026-03-29T07:57:55Z</time></trkpt><trkpt lat="45.46442415326935" lon="10.441366043284264"><ele>135.33333333333334</ele><time>2026-03-29T07:57:56Z</time></trkpt><trkpt lat="45.46425891660432" lon="10.441403909535168"><ele>136.0</ele><time>2026-03-29T07:57:57Z</time></trkpt><trkpt lat="45.464085032152546" lon="10.441405444738187"><ele>136.0</ele><time>2026-03-29T07:57:58Z</time></trkpt><trkpt lat="45.46389788168711" lon="10.441413639408644"><ele>136.0</ele><time>2026-03-29T07:57:59Z</time></trkpt><trkpt lat="45.463707430556994" lon="10.441423757839194"><ele>136.0</ele><time>2026-03-29T07:58:00Z</time></trkpt><trkpt lat="45.46350666038179" lon="10.441433862022048"><ele>135.66666666666669</ele><time>2026-03-29T07:58:01Z</time></trkpt><trkpt lat="45.463319720633805" lon="10.441457319213209"><ele>135.33333333333334</ele><time>2026-03-29T07:58:02Z</time></trkpt><trkpt lat="45.46312198540956" lon="10.441481748370895"><ele>135.0</ele><time>2026-03-29T07:58:03Z</time></trkpt><trkpt lat="45.46292064952975" lon="10.441514212525854"><ele>134.66666666666666</ele><time>2026-03-29T07:58:04Z</time></trkpt><trkpt lat="45.46272087219406" lon="10.441559680095626"><ele>134.33333333333331</ele><time>2026-03-29T07:58:05Z</time></trkpt><trkpt lat="45.462518946943035" lon="10.44161015134293"><ele>134.0</ele><time>2026-03-29T07:58:06Z</time></trkpt><trkpt lat="45.462317966971376" lon="10.441665954950073"><ele>134.0</ele><time>2026-03-29T07:58:07Z</time></trkpt><trkpt lat="45.46211534991666" lon="10.441720860251637"><ele>134.0</ele><time>2026-03-29T07:58:08Z</time></trkpt><trkpt lat="45.46191471514136" lon="10.441776669898127"><ele>134.0</ele><time>2026-03-29T07:58:09Z</time></trkpt><trkpt lat="45.46171181039084" lon="10.441834559670163"><ele>134.0</ele><time>2026-03-29T07:58:10Z</time></trkpt><trkpt lat="45.461509479265196" lon="10.441890052547942"><ele>134.0</ele><time>2026-03-29T07:58:11Z</time></trkpt><trkpt lat="45.46130759405242" lon="10.441944638746026"><ele>134.0</ele><time>2026-03-29T07:58:12Z</time></trkpt><trkpt lat="45.46110672347772" lon="10.442007804957486"><ele>133.66666666666666</ele><time>2026-03-29T07:58:13Z</time></trkpt><trkpt lat="45.460902165061555" lon="10.442066502452624"><ele>133.33333333333334</ele><time>2026-03-29T07:58:14Z</time></trkpt><trkpt lat="45.460692431414216" lon="10.44213204336473"><ele>133.0</ele><time>2026-03-29T07:58:15Z</time></trkpt><trkpt lat="45.46047821264343" lon="10.442196123281706"><ele>133.0</ele><time>2026-03-29T07:58:16Z</time></trkpt><trkpt lat="45.460269697246375" lon="10.442257005983254"><ele>133.0</ele><time>2026-03-29T07:58:17Z</time></trkpt><trkpt lat="45.46006803180397" lon="10.442312113252138"><ele>133.0</ele><time>2026-03-29T07:58:18Z</time></trkpt><trkpt lat="45.45987860282395" lon="10.44236373824611"><ele>133.0</ele><time>2026-03-29T07:58:19Z</time></trkpt><trkpt lat="45.4596943667284" lon="10.442417457548652"><ele>133.0</ele><time>2026-03-29T07:58:20Z</time></trkpt><trkpt lat="45.459519696409544" lon="10.442466359266447"><ele>133.0</ele><time>2026-03-29T07:58:21Z</time></trkpt><trkpt lat="45.45935097697727" lon="10.442513375691332"><ele>132.5</ele><time>2026-03-29T07:58:22Z</time></trkpt><trkpt lat="45.459192732488496" lon="10.442552548037364"><ele>132.0</ele><time>2026-03-29T07:58:23Z</time></trkpt><trkpt lat="45.459043855059825" lon="10.442593674733676"><ele>131.5</ele><time>2026-03-29T07:58:24Z</time></trkpt><trkpt lat="45.45891222617583" lon="10.442629829613917"><ele>131.0</ele><time>2026-03-29T07:58:25Z</time></trkpt><trkpt lat="45.45879204542358" lon="10.442662322082056"><ele>130.6</ele><time>2026-03-29T07:58:26Z</time></trkpt><trkpt lat="45.458678811106424" lon="10.442696060832054"><ele>130.2</ele><time>2026-03-29T07:58:27Z</time></trkpt><trkpt lat="45.45858241173993" lon="10.442723303828833"><ele>129.8</ele><time>2026-03-29T07:58:28Z</time></trkpt><trkpt lat="45.45851351473456" lon="10.44274689355221"><ele>129.4</ele><time>2026-03-29T07:58:29Z</time></trkpt><trkpt lat="45.45840725794705" lon="10.442762241161875"><ele>129.0</ele><time>2026-03-29T07:58:31Z</time></trkpt><trkpt lat="45.45840878860589" lon="10.442957128961135"><ele>129.2</ele><time>2026-03-29T07:58:32Z</time></trkpt><trkpt lat="45.458410793766035" lon="10.4430881104524"><ele>129.4</ele><time>2026-03-29T07:58:33Z</time></trkpt><trkpt lat="45.45838211774594" lon="10.443206257666585"><ele>129.6</ele><time>2026-03-29T07:58:34Z</time></trkpt><trkpt lat="45.458326107398236" lon="10.443275960038308"><ele>129.8</ele><time>2026-03-29T07:58:35Z</time></trkpt><trkpt lat="45.45823765573178" lon="10.443302836136304"><ele>130.0</ele><time>2026-03-29T07:58:36Z</time></trkpt><trkpt lat="45.458128167938895" lon="10.443334572751903"><ele>130.0</ele><time>2026-03-29T07:58:37Z</time></trkpt><trkpt lat="45.45800144171744" lon="10.443363371572381"><ele>130.0</ele><time>2026-03-29T07:58:38Z</time></trkpt><trkpt lat="45.45787367240733" lon="10.443381334429986"><ele>130.0</ele><time>2026-03-29T07:58:39Z</time></trkpt><trkpt lat="45.45772521503114" lon="10.443393550805595"><ele>130.0</ele><time>2026-03-29T07:58:40Z</time></trkpt><trkpt lat="45.45757709864699" lon="10.443427256578163"><ele>130.0</ele><time>2026-03-29T07:58:41Z</time></trkpt><trkpt lat="45.457424954487756" lon="10.443454437143968"><ele>130.0</ele><time>2026-03-29T07:58:42Z</time></trkpt><trkpt lat="45.457272098445145" lon="10.44347865400297"><ele>130.0</ele><time>2026-03-29T07:58:43Z</time></trkpt><trkpt lat="45.45714936396419" lon="10.443545123426748"><ele>130.0</ele><time>2026-03-29T07:58:44Z</time></trkpt><trkpt lat="45.457009194267954" lon="10.443549025221671"><ele>129.66666666666669</ele><time>2026-03-29T07:58:45Z</time></trkpt><trkpt lat="45.45685336080273" lon="10.443527813139806"><ele>129.33333333333334</ele><time>2026-03-29T07:58:46Z</time></trkpt><trkpt lat="45.456687008612775" lon="10.443507395834464"><ele>129.0</ele><time>2026-03-29T07:58:47Z</time></trkpt><trkpt lat="45.45651093275076" lon="10.443484807994624"><ele>129.0</ele><time>2026-03-29T07:58:48Z</time></trkpt><trkpt lat="45.45632331292141" lon="10.4434542950414"><ele>129.0</ele><time>2026-03-29T07:58:49Z</time></trkpt><trkpt lat="45.45614093161385" lon="10.443423310520467"><ele>129.0</ele><time>2026-03-29T07:58:50Z</time></trkpt><trkpt lat="45.45597667009511" lon="10.443387743378475"><ele>129.5</ele><time>2026-03-29T07:58:51Z</time></trkpt><trkpt lat="45.45583118607836" lon="10.443326165499844"><ele>130.0</ele><time>2026-03-29T07:58:52Z</time></trkpt><trkpt lat="45.455722487684405" lon="10.443326479066647"><ele>130.5</ele><time>2026-03-29T07:58:53Z</time></trkpt><trkpt lat="45.455597862658514" lon="10.443328318372759"><ele>131.0</ele><time>2026-03-29T07:58:54Z</time></trkpt><trkpt lat="45.4554734028747" lon="10.443332339509"><ele>130.5</ele><time>2026-03-29T07:58:55Z</time></trkpt><trkpt lat="45.455354953409646" lon="10.44335391917882"><ele>130.0</ele><time>2026-03-29T07:58:56Z</time></trkpt><trkpt lat="45.45524259738559" lon="10.443417888816874"><ele>129.5</ele><time>2026-03-29T07:58:57Z</time></trkpt><trkpt lat="45.45511450939694" lon="10.443485460329256"><ele>129.0</ele><time>2026-03-29T07:58:58Z</time></trkpt><trkpt lat="45.45497233805273" lon="10.443562222876983"><ele>129.0</ele><time>2026-03-29T07:58:59Z</time></trkpt><trkpt lat="45.45481061621888" lon="10.443624014983087"><ele>129.0</ele><time>2026-03-29T07:59:00Z</time></trkpt><trkpt lat="45.45464565891058" lon="10.443688797952818"><ele>129.0</ele><time>2026-03-29T07:59:01Z</time></trkpt><trkpt lat="45.45447048533702" lon="10.443774670633276"><ele>128.66666666666666</ele><time>2026-03-29T07:59:02Z</time></trkpt><trkpt lat="45.454297131384955" lon="10.443815550628237"><ele>128.33333333333331</ele><time>2026-03-29T07:59:03Z</time></trkpt><trkpt lat="45.454157317335664" lon="10.443857392359147"><ele>128.0</ele><time>2026-03-29T07:59:04Z</time></trkpt><trkpt lat="45.454020594953846" lon="10.443873708751887"><ele>128.0</ele><time>2026-03-29T07:59:05Z</time></trkpt><trkpt lat="45.4538827154935" lon="10.443886774540251"><ele>128.0</ele><time>2026-03-29T07:59:06Z</time></trkpt><trkpt lat="45.453735807663136" lon="10.4439164448213"><ele>128.0</ele><time>2026-03-29T07:59:07Z</time></trkpt><trkpt lat="45.453576247253366" lon="10.443935601304167"><ele>128.0</ele><time>2026-03-29T07:59:08Z</time></trkpt><trkpt lat="45.453432706365184" lon="10.443967560164007"><ele>128.0</ele><time>2026-03-29T07:59:09Z</time></trkpt><trkpt lat="45.45330923358393" lon="10.443988708132041"><ele>128.0</ele><time>2026-03-29T07:59:10Z</time></trkpt><trkpt lat="45.453194924272736" lon="10.443989538540254"><ele>128.0</ele><time>2026-03-29T07:59:11Z</time></trkpt><trkpt lat="45.453094566764584" lon="10.444004900138848"><ele>128.0</ele><time>2026-03-29T07:59:12Z</time></trkpt><trkpt lat="45.45300212690027" lon="10.444019049812656"><ele>128.0</ele><time>2026-03-29T07:59:13Z</time></trkpt><trkpt lat="45.45290953139225" lon="10.444032784478026"><ele>127.66666666666666</ele><time>2026-03-29T07:59:14Z</time></trkpt><trkpt lat="45.45282279513919" lon="10.444048987018524"><ele>127.33333333333333</ele><time>2026-03-29T07:59:15Z</time></trkpt><trkpt lat="45.45273788523849" lon="10.444064848322867"><ele>127.0</ele><time>2026-03-29T07:59:16Z</time></trkpt><trkpt lat="45.4526674803359" lon="10.444101053093771"><ele>126.66666666666666</ele><time>2026-03-29T07:59:17Z</time></trkpt><trkpt lat="45.45259051235068" lon="10.444115147526347"><ele>126.33333333333333</ele><time>2026-03-29T07:59:18Z</time></trkpt><trkpt lat="45.45250876019832" lon="10.444107649249249"><ele>126.0</ele><time>2026-03-29T07:59:19Z</time></trkpt><trkpt lat="45.45243337956938" lon="10.444121730464873"><ele>126.0</ele><time>2026-03-29T07:59:20Z</time></trkpt><trkpt lat="45.45236865801772" lon="10.444133829368766"><ele>126.0</ele><time>2026-03-29T07:59:21Z</time></trkpt><trkpt lat="45.452299646159354" lon="10.444146732284146"><ele>126.0</ele><time>2026-03-29T07:59:22Z</time></trkpt><trkpt lat="45.4522333317265" lon="10.44415929263633"><ele>126.0</ele><time>2026-03-29T07:59:23Z</time></trkpt><trkpt lat="45.45216427708365" lon="10.444172390394534"><ele>126.0</ele><time>2026-03-29T07:59:24Z</time></trkpt><trkpt lat="45.452092754097826" lon="10.44418595633485"><ele>126.0</ele><time>2026-03-29T07:59:25Z</time></trkpt><trkpt lat="45.45203017295914" lon="10.444197826235712"><ele>126.0</ele><time>2026-03-29T07:59:26Z</time></trkpt><trkpt lat="45.45196469091251" lon="10.444210246398928"><ele>126.19999999999999</ele><time>2026-03-29T07:59:27Z</time></trkpt><trkpt lat="45.451848988987464" lon="10.444232191851809"><ele>126.39999999999999</ele><time>2026-03-29T07:59:29Z</time></trkpt><trkpt lat="45.45174895286697" lon="10.444251167983069"><ele>126.6</ele><time>2026-03-29T07:59:31Z</time></trkpt><trkpt lat="45.45167032987744" lon="10.444266080642493"><ele>126.8</ele><time>2026-03-29T07:59:33Z</time></trkpt><trkpt lat="45.45160318448877" lon="10.444278816245806"><ele>127.0</ele><time>2026-03-29T08:02:57Z</time></trkpt><trkpt lat="45.45149794668187" lon="10.444298776953834"><ele>127.0</ele><time>2026-03-29T08:02:59Z</time></trkpt><trkpt lat="45.45141008928059" lon="10.44431544105507"><ele>126.99999999999999</ele><time>2026-03-29T08:03:00Z</time></trkpt><trkpt lat="45.45132482826017" lon="10.444331612734256"><ele>126.99999999999999</ele><time>2026-03-29T08:03:01Z</time></trkpt><trkpt lat="45.45124563653534" lon="10.444346633241038"><ele>127.0</ele><time>2026-03-29T08:03:02Z</time></trkpt><trkpt lat="45.451146707931215" lon="10.444365890976757"><ele>127.0</ele><time>2026-03-29T08:03:03Z</time></trkpt><trkpt lat="45.45102992065619" lon="10.444389190089801"><ele>126.5</ele><time>2026-03-29T08:03:04Z</time></trkpt><trkpt lat="45.45090236532634" lon="10.444414637504376"><ele>126.0</ele><time>2026-03-29T08:03:05Z</time></trkpt><trkpt lat="45.45077292389472" lon="10.444440461025751"><ele>125.5</ele><time>2026-03-29T08:03:06Z</time></trkpt><trkpt lat="45.45063293672244" lon="10.444468388527754"><ele>125.0</ele><time>2026-03-29T08:03:07Z</time></trkpt><trkpt lat="45.450493848010304" lon="10.44449613678543"><ele>124.5</ele><time>2026-03-29T08:03:08Z</time></trkpt><trkpt lat="45.45035645947994" lon="10.444523545841378"><ele>124.0</ele><time>2026-03-29T08:03:09Z</time></trkpt><trkpt lat="45.450229989042874" lon="10.444548036735174"><ele>123.5</ele><time>2026-03-29T08:03:10Z</time></trkpt><trkpt lat="45.45010031392423" lon="10.444572794353828"><ele>123.0</ele><time>2026-03-29T08:03:11Z</time></trkpt><trkpt lat="45.44998048022875" lon="10.444595673026644"><ele>123.0</ele><time>2026-03-29T08:03:12Z</time></trkpt><trkpt lat="45.44984760954505" lon="10.444619508192774"><ele>123.0</ele><time>2026-03-29T08:03:13Z</time></trkpt><trkpt lat="45.449702267605716" lon="10.444643624255363"><ele>123.0</ele><time>2026-03-29T08:03:14Z</time></trkpt><trkpt lat="45.4495546026836" lon="10.444690361370462"><ele>123.0</ele><time>2026-03-29T08:03:15Z</time></trkpt><trkpt lat="45.44941462756681" lon="10.444687633958669"><ele>123.66666666666666</ele><time>2026-03-29T08:03:16Z</time></trkpt><trkpt lat="45.449262500679694" lon="10.444709722891266"><ele>124.33333333333333</ele><time>2026-03-29T08:03:17Z</time></trkpt><trkpt lat="45.44910975576713" lon="10.444754257298907"><ele>125.0</ele><time>2026-03-29T08:03:18Z</time></trkpt><trkpt lat="45.44895947988498" lon="10.444754357325099"><ele>125.0</ele><time>2026-03-29T08:03:19Z</time></trkpt><trkpt lat="45.448814677757895" lon="10.444776877567438"><ele>125.0</ele><time>2026-03-29T08:03:20Z</time></trkpt><trkpt lat="45.44868656211366" lon="10.444798570424789"><ele>125.0</ele><time>2026-03-29T08:03:21Z</time></trkpt><trkpt lat="45.44855875410856" lon="10.44482296426296"><ele>125.0</ele><time>2026-03-29T08:03:22Z</time></trkpt><trkpt lat="45.44844161750998" lon="10.444868609183347"><ele>124.5</ele><time>2026-03-29T08:03:23Z</time></trkpt><trkpt lat="45.448313533256645" lon="10.44487711940161"><ele>124.0</ele><time>2026-03-29T08:03:24Z</time></trkpt><trkpt lat="45.44819658325243" lon="10.444902506076462"><ele>123.5</ele><time>2026-03-29T08:03:25Z</time></trkpt><trkpt lat="45.448064824788254" lon="10.444928405184342"><ele>123.0</ele><time>2026-03-29T08:03:26Z</time></trkpt><trkpt lat="45.44792971050782" lon="10.444959205187375"><ele>122.5</ele><time>2026-03-29T08:03:27Z</time></trkpt><trkpt lat="45.44778294653512" lon="10.444993979260301"><ele>122.0</ele><time>2026-03-29T08:03:28Z</time></trkpt><trkpt lat="45.44764510631136" lon="10.44502404510498"><ele>121.5</ele><time>2026-03-29T08:03:29Z</time></trkpt><trkpt lat="45.4475041317861" lon="10.445041518594037"><ele>121.0</ele><time>2026-03-29T08:03:30Z</time></trkpt><trkpt lat="45.447359731604074" lon="10.445053802090356"><ele>121.0</ele><time>2026-03-29T08:03:31Z</time></trkpt><trkpt lat="45.447213040840495" lon="10.44507943701124"><ele>121.0</ele><time>2026-03-29T08:03:32Z</time></trkpt><trkpt lat="45.44705666311054" lon="10.4451173436588"><ele>121.0</ele><time>2026-03-29T08:03:33Z</time></trkpt><trkpt lat="45.44690598118331" lon="10.445150410237195"><ele>121.0</ele><time>2026-03-29T08:03:34Z</time></trkpt><trkpt lat="45.44677727261736" lon="10.445177693233303"><ele>121.0</ele><time>2026-03-29T08:03:35Z</time></trkpt><trkpt lat="45.44665231360225" lon="10.445191189748657"><ele>121.0</ele><time>2026-03-29T08:03:36Z</time></trkpt><trkpt lat="45.44654264379218" lon="10.445211111336405"><ele>121.0</ele><time>2026-03-29T08:03:37Z</time></trkpt><trkpt lat="45.44643450163608" lon="10.445228395209185"><ele>121.0</ele><time>2026-03-29T08:03:38Z</time></trkpt><trkpt lat="45.4463215713378" lon="10.445199385425763"><ele>121.0</ele><time>2026-03-29T08:03:39Z</time></trkpt><trkpt lat="45.44619742039135" lon="10.445196473778536"><ele>121.0</ele><time>2026-03-29T08:03:40Z</time></trkpt><trkpt lat="45.44606679014852" lon="10.44519341017594"><ele>121.0</ele><time>2026-03-29T08:03:41Z</time></trkpt><trkpt lat="45.44593610486563" lon="10.445190345283573"><ele>121.0</ele><time>2026-03-29T08:03:42Z</time></trkpt><trkpt lat="45.44579128433805" lon="10.445186948884126"><ele>121.0</ele><time>2026-03-29T08:03:43Z</time></trkpt><trkpt lat="45.445644526538146" lon="10.445183507049794"><ele>121.0</ele><time>2026-03-29T08:03:44Z</time></trkpt><trkpt lat="45.445489795268436" lon="10.44517987821685"><ele>121.0</ele><time>2026-03-29T08:03:45Z</time></trkpt><trkpt lat="45.445349794183585" lon="10.445176594843248"><ele>121.25</ele><time>2026-03-29T08:03:46Z</time></trkpt><trkpt lat="45.44520636628579" lon="10.445173231107336"><ele>121.5</ele><time>2026-03-29T08:03:47Z</time></trkpt><trkpt lat="45.44506064831899" lon="10.445169813660272"><ele>121.75</ele><time>2026-03-29T08:03:48Z</time></trkpt><trkpt lat="45.444914117579984" lon="10.445166377151681"><ele>122.0</ele><time>2026-03-29T08:03:49Z</time></trkpt><trkpt lat="45.44476746455739" lon="10.445162937774647"><ele>121.5</ele><time>2026-03-29T08:03:50Z</time></trkpt><trkpt lat="45.4446193880029" lon="10.445160180103487"><ele>121.0</ele><time>2026-03-29T08:03:51Z</time></trkpt><trkpt lat="45.44447013792888" lon="10.44515777284596"><ele>120.5</ele><time>2026-03-29T08:03:52Z</time></trkpt><trkpt lat="45.44431848933929" lon="10.445155326901054"><ele>120.0</ele><time>2026-03-29T08:03:53Z</time></trkpt><trkpt lat="45.44416996129677" lon="10.445152931287314"><ele>120.0</ele><time>2026-03-29T08:03:54Z</time></trkpt><trkpt lat="45.44400160200278" lon="10.44515064545073"><ele>120.0</ele><time>2026-03-29T08:03:55Z</time></trkpt><trkpt lat="45.443846618718595" lon="10.445149427748193"><ele>120.0</ele><time>2026-03-29T08:03:56Z</time></trkpt><trkpt lat="45.44366904932084" lon="10.445148032582619"><ele>120.33333333333334</ele><time>2026-03-29T08:03:57Z</time></trkpt><trkpt lat="45.443501512614624" lon="10.445147183214397"><ele>120.66666666666667</ele><time>2026-03-29T08:03:58Z</time></trkpt><trkpt lat="45.44333321162389" lon="10.445147696447998"><ele>121.0</ele><time>2026-03-29T08:03:59Z</time></trkpt><trkpt lat="45.44315703570481" lon="10.445148233695813"><ele>121.0</ele><time>2026-03-29T08:04:00Z</time></trkpt><trkpt lat="45.44298537696537" lon="10.445149308390073"><ele>121.0</ele><time>2026-03-29T08:04:01Z</time></trkpt><trkpt lat="45.44283008254809" lon="10.44515042770315"><ele>121.0</ele><time>2026-03-29T08:04:02Z</time></trkpt><trkpt lat="45.442679502072586" lon="10.445152242319068"><ele>121.25</ele><time>2026-03-29T08:04:03Z</time></trkpt><trkpt lat="45.442551415105754" lon="10.445154630887258"><ele>121.5</ele><time>2026-03-29T08:04:04Z</time></trkpt><trkpt lat="45.44242307467995" lon="10.44515771957869"><ele>121.75</ele><time>2026-03-29T08:04:05Z</time></trkpt><trkpt lat="45.442309813552924" lon="10.445160577745103"><ele>122.0</ele><time>2026-03-29T08:04:06Z</time></trkpt><trkpt lat="45.4422004093872" lon="10.445163340573748"><ele>121.75</ele><time>2026-03-29T08:04:07Z</time></trkpt><trkpt lat="45.44207776434525" lon="10.445166435539258"><ele>121.5</ele><time>2026-03-29T08:04:08Z</time></trkpt><trkpt lat="45.44194570157567" lon="10.445169768173418"><ele>121.25</ele><time>2026-03-29T08:04:09Z</time></trkpt><trkpt lat="45.44181220987405" lon="10.445173136866934"><ele>121.0</ele><time>2026-03-29T08:04:10Z</time></trkpt><trkpt lat="45.44166962366517" lon="10.445176735050822"><ele>121.0</ele><time>2026-03-29T08:04:11Z</time></trkpt><trkpt lat="45.4415171097403" lon="10.445179528447458"><ele>121.0</ele><time>2026-03-29T08:04:12Z</time></trkpt><trkpt lat="45.44136876203405" lon="10.44518182314056"><ele>121.0</ele><time>2026-03-29T08:04:13Z</time></trkpt><trkpt lat="45.44121574784065" lon="10.445183254777925"><ele>120.75</ele><time>2026-03-29T08:04:14Z</time></trkpt><trkpt lat="45.44106422760489" lon="10.4452026081845"><ele>120.5</ele><time>2026-03-29T08:04:15Z</time></trkpt><trkpt lat="45.44092681606487" lon="10.445203098539235"><ele>120.25</ele><time>2026-03-29T08:04:16Z</time></trkpt><trkpt lat="45.44080498608696" lon="10.445199353455358"><ele>120.0</ele><time>2026-03-29T08:04:17Z</time></trkpt><trkpt lat="45.4406747540348" lon="10.445189537732626"><ele>120.0</ele><time>2026-03-29T08:04:18Z</time></trkpt><trkpt lat="45.440551580858696" lon="10.445189085444687"><ele>120.0</ele><time>2026-03-29T08:04:19Z</time></trkpt><trkpt lat="45.44043233096176" lon="10.44518545494169"><ele>120.0</ele><time>2026-03-29T08:04:20Z</time></trkpt><trkpt lat="45.440320319435116" lon="10.445183282837473"><ele>120.0</ele><time>2026-03-29T08:04:21Z</time></trkpt><trkpt lat="45.44021678825428" lon="10.445183951007595"><ele>120.0</ele><time>2026-03-29T08:04:22Z</time></trkpt><trkpt lat="45.44011393605679" lon="10.445181655101708"><ele>120.0</ele><time>2026-03-29T08:04:23Z</time></trkpt><trkpt lat="45.44002987122681" lon="10.445161980298863"><ele>120.0</ele><time>2026-03-29T08:04:24Z</time></trkpt><trkpt lat="45.43990622337831" lon="10.445160179603436"><ele>120.0</ele><time>2026-03-29T08:04:26Z</time></trkpt><trkpt lat="45.43981888720135" lon="10.445159285052661"><ele>120.0</ele><time>2026-03-29T08:04:28Z</time></trkpt><trkpt lat="45.43973995801817" lon="10.445180927408437"><ele>120.2</ele><time>2026-03-29T08:04:30Z</time></trkpt><trkpt lat="45.43962742347886" lon="10.445128383329182"><ele>120.4</ele><time>2026-03-29T08:04:32Z</time></trkpt><trkpt lat="45.43955212401731" lon="10.445134012603562"><ele>120.6</ele><time>2026-03-29T08:04:33Z</time></trkpt><trkpt lat="45.43945773106186" lon="10.445167596750636"><ele>120.8</ele><time>2026-03-29T08:04:34Z</time></trkpt><trkpt lat="45.439354833412004" lon="10.445202773283722"><ele>121.0</ele><time>2026-03-29T08:04:35Z</time></trkpt><trkpt lat="45.4392488580602" lon="10.445232270026715"><ele>121.0</ele><time>2026-03-29T08:04:36Z</time></trkpt><trkpt lat="45.43915344410792" lon="10.445269096575114"><ele>121.0</ele><time>2026-03-29T08:04:37Z</time></trkpt><trkpt lat="45.439061693655546" lon="10.445300806735627"><ele>121.0</ele><time>2026-03-29T08:04:38Z</time></trkpt><trkpt lat="45.438962162043396" lon="10.445335544611616"><ele>121.0</ele><time>2026-03-29T08:04:39Z</time></trkpt><trkpt lat="45.43885424943354" lon="10.44537456201075"><ele>121.0</ele><time>2026-03-29T08:04:40Z</time></trkpt><trkpt lat="45.438747222512674" lon="10.44540995022753"><ele>120.8</ele><time>2026-03-29T08:04:41Z</time></trkpt><trkpt lat="45.43865448686827" lon="10.445443855662152"><ele>120.6</ele><time>2026-03-29T08:04:42Z</time></trkpt><trkpt lat="45.43855947345385" lon="10.445469834904854"><ele>120.4</ele><time>2026-03-29T08:04:43Z</time></trkpt><trkpt lat="45.43845585882859" lon="10.44550230913403"><ele>120.2</ele><time>2026-03-29T08:04:44Z</time></trkpt><trkpt lat="45.438349217470495" lon="10.445534697309634"><ele>120.0</ele><time>2026-03-29T08:04:45Z</time></trkpt><trkpt lat="45.43823162913555" lon="10.44557435556726"><ele>120.0</ele><time>2026-03-29T08:04:46Z</time></trkpt><trkpt lat="45.43811297539566" lon="10.445616332637746"><ele>120.0</ele><time>2026-03-29T08:04:47Z</time></trkpt><trkpt lat="45.437995701136174" lon="10.445655635502325"><ele>120.0</ele><time>2026-03-29T08:04:48Z</time></trkpt><trkpt lat="45.437887619404535" lon="10.445681730689156"><ele>120.0</ele><time>2026-03-29T08:04:49Z</time></trkpt><trkpt lat="45.437781448750066" lon="10.445712911341188"><ele>120.0</ele><time>2026-03-29T08:04:50Z</time></trkpt><trkpt lat="45.43768589923754" lon="10.445748258139846"><ele>120.0</ele><time>2026-03-29T08:04:51Z</time></trkpt><trkpt lat="45.437601653097715" lon="10.445786891374786"><ele>120.0</ele><time>2026-03-29T08:04:52Z</time></trkpt><trkpt lat="45.437523793117634" lon="10.445819214771594"><ele>120.0</ele><time>2026-03-29T08:04:53Z</time></trkpt><trkpt lat="45.437448928419585" lon="10.445840023316753"><ele>120.0</ele><time>2026-03-29T08:04:54Z</time></trkpt><trkpt lat="45.43735895680192" lon="10.445873112386067"><ele>120.0</ele><time>2026-03-29T08:04:55Z</time></trkpt><trkpt lat="45.437260495241915" lon="10.445923324632538"><ele>120.0</ele><time>2026-03-29T08:04:56Z</time></trkpt><trkpt lat="45.437179752263226" lon="10.445978206482875"><ele>120.0</ele><time>2026-03-29T08:04:57Z</time></trkpt><trkpt lat="45.43711413925511" lon="10.446043084653386"><ele>120.0</ele><time>2026-03-29T08:04:58Z</time></trkpt><trkpt lat="45.43704329324349" lon="10.446125348604259"><ele>120.0</ele><time>2026-03-29T08:04:59Z</time></trkpt><trkpt lat="45.43697921576862" lon="10.446217438182941"><ele>120.0</ele><time>2026-03-29T08:05:00Z</time></trkpt><trkpt lat="45.436894193632064" lon="10.446315787293164"><ele>119.5</ele><time>2026-03-29T08:05:01Z</time></trkpt><trkpt lat="45.436826863785335" lon="10.44643990625857"><ele>119.0</ele><time>2026-03-29T08:05:02Z</time></trkpt><trkpt lat="45.43674594571643" lon="10.446549274387236"><ele>118.5</ele><time>2026-03-29T08:05:03Z</time></trkpt><trkpt lat="45.43665418125098" lon="10.44665726963123"><ele>118.0</ele><time>2026-03-29T08:05:04Z</time></trkpt><trkpt lat="45.43655533145549" lon="10.446782167468802"><ele>118.0</ele><time>2026-03-29T08:05:05Z</time></trkpt><trkpt lat="45.43644911825248" lon="10.446926806369163"><ele>118.0</ele><time>2026-03-29T08:05:06Z</time></trkpt><trkpt lat="45.436344299739204" lon="10.447064981203209"><ele>118.0</ele><time>2026-03-29T08:05:07Z</time></trkpt><trkpt lat="45.436253252975824" lon="10.447188251476332"><ele>118.0</ele><time>2026-03-29T08:05:08Z</time></trkpt><trkpt lat="45.43616477869156" lon="10.447302486658769"><ele>117.75</ele><time>2026-03-29T08:05:09Z</time></trkpt><trkpt lat="45.43607599237933" lon="10.447420759800993"><ele>117.5</ele><time>2026-03-29T08:05:10Z</time></trkpt><trkpt lat="45.43596343006646" lon="10.447566601650857"><ele>117.25</ele><time>2026-03-29T08:05:11Z</time></trkpt><trkpt lat="45.43584929345542" lon="10.447702791305847"><ele>117.0</ele><time>2026-03-29T08:05:12Z</time></trkpt><trkpt lat="45.435725846258514" lon="10.447851850483199"><ele>117.0</ele><time>2026-03-29T08:05:13Z</time></trkpt><trkpt lat="45.43560436395331" lon="10.44799321509662"><ele>117.0</ele><time>2026-03-29T08:05:14Z</time></trkpt><trkpt lat="45.43546974450546" lon="10.448143066618067"><ele>117.0</ele><time>2026-03-29T08:05:15Z</time></trkpt><trkpt lat="45.435361386689934" lon="10.448274134797567"><ele>116.66666666666666</ele><time>2026-03-29T08:05:16Z</time></trkpt><trkpt lat="45.43522929982016" lon="10.448425997794082"><ele>116.33333333333333</ele><time>2026-03-29T08:05:17Z</time></trkpt><trkpt lat="45.4350927535993" lon="10.448599494975243"><ele>116.0</ele><time>2026-03-29T08:05:18Z</time></trkpt><trkpt lat="45.43496737527854" lon="10.44876398121713"><ele>116.0</ele><time>2026-03-29T08:05:19Z</time></trkpt><trkpt lat="45.43484571978095" lon="10.448930071930192"><ele>116.0</ele><time>2026-03-29T08:05:20Z</time></trkpt><trkpt lat="45.43472136649522" lon="10.449103847362409"><ele>116.0</ele><time>2026-03-29T08:05:21Z</time></trkpt><trkpt lat="45.43459472878002" lon="10.44928367220105"><ele>116.0</ele><time>2026-03-29T08:05:22Z</time></trkpt><trkpt lat="45.43449219135443" lon="10.44943572789237"><ele>116.0</ele><time>2026-03-29T08:05:23Z</time></trkpt><trkpt lat="45.43437789163576" lon="10.449591378253249"><ele>116.0</ele><time>2026-03-29T08:05:24Z</time></trkpt><trkpt lat="45.43427619543667" lon="10.449733123789734"><ele>116.0</ele><time>2026-03-29T08:05:25Z</time></trkpt><trkpt lat="45.43416261306586" lon="10.449879690233006"><ele>116.0</ele><time>2026-03-29T08:05:26Z</time></trkpt><trkpt lat="45.434068414074645" lon="10.450006954083051"><ele>116.0</ele><time>2026-03-29T08:05:27Z</time></trkpt><trkpt lat="45.433978631697116" lon="10.45012959252222"><ele>116.0</ele><time>2026-03-29T08:05:28Z</time></trkpt><trkpt lat="45.43388541958088" lon="10.450256972065663"><ele>116.0</ele><time>2026-03-29T08:05:29Z</time></trkpt><trkpt lat="45.433778995702816" lon="10.450390331831251"><ele>116.33333333333333</ele><time>2026-03-29T08:05:30Z</time></trkpt><trkpt lat="45.433664564982855" lon="10.450542287934205"><ele>116.66666666666666</ele><time>2026-03-29T08:05:31Z</time></trkpt><trkpt lat="45.43353849845629" lon="10.4507094552288"><ele>117.0</ele><time>2026-03-29T08:05:32Z</time></trkpt><trkpt lat="45.43342180716925" lon="10.450877639048395"><ele>117.0</ele><time>2026-03-29T08:05:33Z</time></trkpt><trkpt lat="45.43329984788246" lon="10.451043685943686"><ele>117.0</ele><time>2026-03-29T08:05:34Z</time></trkpt><trkpt lat="45.433189874038916" lon="10.451189170351004"><ele>117.0</ele><time>2026-03-29T08:05:35Z</time></trkpt><trkpt lat="45.433070439932465" lon="10.451343621458095"><ele>116.75</ele><time>2026-03-29T08:05:36Z</time></trkpt><trkpt lat="45.43295112697808" lon="10.451500899679079"><ele>116.5</ele><time>2026-03-29T08:05:37Z</time></trkpt><trkpt lat="45.43283964439233" lon="10.451635798075644"><ele>116.25</ele><time>2026-03-29T08:05:38Z</time></trkpt><trkpt lat="45.4327505089021" lon="10.451743496252579"><ele>116.0</ele><time>2026-03-29T08:05:39Z</time></trkpt><trkpt lat="45.43265187130744" lon="10.451885073667091"><ele>116.0</ele><time>2026-03-29T08:05:40Z</time></trkpt><trkpt lat="45.43256496602293" lon="10.452015196134807"><ele>116.0</ele><time>2026-03-29T08:05:41Z</time></trkpt><trkpt lat="45.432476815234914" lon="10.452131461120553"><ele>116.0</ele><time>2026-03-29T08:05:42Z</time></trkpt><trkpt lat="45.43238362269706" lon="10.452260078798671"><ele>116.0</ele><time>2026-03-29T08:05:43Z</time></trkpt><trkpt lat="45.43228183150353" lon="10.452401696361767"><ele>116.0</ele><time>2026-03-29T08:05:44Z</time></trkpt><trkpt lat="45.43217898099527" lon="10.452562911053413"><ele>116.0</ele><time>2026-03-29T08:05:45Z</time></trkpt><trkpt lat="45.43207974662042" lon="10.452715043084815"><ele>116.0</ele><time>2026-03-29T08:05:46Z</time></trkpt><trkpt lat="45.431987846985706" lon="10.452855149676962"><ele>116.0</ele><time>2026-03-29T08:05:47Z</time></trkpt><trkpt lat="45.4318821180278" lon="10.453014833529528"><ele>116.0</ele><time>2026-03-29T08:05:48Z</time></trkpt><trkpt lat="45.431786995358046" lon="10.453175830994597"><ele>116.0</ele><time>2026-03-29T08:05:49Z</time></trkpt><trkpt lat="45.43169652396298" lon="10.453328366639218"><ele>116.0</ele><time>2026-03-29T08:05:50Z</time></trkpt><trkpt lat="45.43158957275024" lon="10.453459356160677"><ele>116.0</ele><time>2026-03-29T08:05:51Z</time></trkpt><trkpt lat="45.431504289234695" lon="10.453599641466177"><ele>116.0</ele><time>2026-03-29T08:05:52Z</time></trkpt><trkpt lat="45.43142118955636" lon="10.453716696812293"><ele>116.0</ele><time>2026-03-29T08:05:53Z</time></trkpt><trkpt lat="45.43134566929773" lon="10.453839835059537"><ele>116.0</ele><time>2026-03-29T08:05:54Z</time></trkpt><trkpt lat="45.43126367025778" lon="10.453981399131584"><ele>116.0</ele><time>2026-03-29T08:05:55Z</time></trkpt><trkpt lat="45.431177822599295" lon="10.454100643711556"><ele>115.8</ele><time>2026-03-29T08:05:56Z</time></trkpt><trkpt lat="45.431101228034926" lon="10.454225062155281"><ele>115.6</ele><time>2026-03-29T08:05:57Z</time></trkpt><trkpt lat="45.43103243487121" lon="10.454339885982174"><ele>115.4</ele><time>2026-03-29T08:05:58Z</time></trkpt><trkpt lat="45.43095456195838" lon="10.454441410463609"><ele>115.2</ele><time>2026-03-29T08:05:59Z</time></trkpt><trkpt lat="45.43088609745529" lon="10.454525357650974"><ele>115.0</ele><time>2026-03-29T08:06:00Z</time></trkpt><trkpt lat="45.430825498864074" lon="10.454574162454557"><ele>115.0</ele><time>2026-03-29T08:06:01Z</time></trkpt><trkpt lat="45.43074185027074" lon="10.45455941542658"><ele>115.0</ele><time>2026-03-29T08:06:02Z</time></trkpt><trkpt lat="45.43067609129447" lon="10.4546010434309"><ele>115.0</ele><time>2026-03-29T08:06:03Z</time></trkpt><trkpt lat="45.43059870507283" lon="10.454653880615504"><ele>115.0</ele><time>2026-03-29T08:06:04Z</time></trkpt><trkpt lat="45.430513686536095" lon="10.454736370508394"><ele>115.0</ele><time>2026-03-29T08:06:05Z</time></trkpt><trkpt lat="45.430408896162476" lon="10.454857948426364"><ele>115.0</ele><time>2026-03-29T08:06:06Z</time></trkpt><trkpt lat="45.43029503436213" lon="10.454984672157385"><ele>115.0</ele><time>2026-03-29T08:06:07Z</time></trkpt><trkpt lat="45.43018108671732" lon="10.455099611252784"><ele>115.0</ele><time>2026-03-29T08:06:08Z</time></trkpt><trkpt lat="45.43006964083325" lon="10.455211280519153"><ele>115.0</ele><time>2026-03-29T08:06:09Z</time></trkpt><trkpt lat="45.429946952767416" lon="10.455327209193419"><ele>115.0</ele><time>2026-03-29T08:06:10Z</time></trkpt><trkpt lat="45.42982492900743" lon="10.455444194173335"><ele>115.0</ele><time>2026-03-29T08:06:11Z</time></trkpt><trkpt lat="45.429707748293005" lon="10.455555566161646"><ele>115.0</ele><time>2026-03-29T08:06:12Z</time></trkpt><trkpt lat="45.42958700292309" lon="10.455677807346019"><ele>115.0</ele><time>2026-03-29T08:06:13Z</time></trkpt><trkpt lat="45.42946184110352" lon="10.455797758399703"><ele>115.0</ele><time>2026-03-29T08:06:14Z</time></trkpt><trkpt lat="45.42934555408286" lon="10.455917437075028"><ele>115.0</ele><time>2026-03-29T08:06:15Z</time></trkpt><trkpt lat="45.42923478810073" lon="10.456028973428301"><ele>115.0</ele><time>2026-03-29T08:06:16Z</time></trkpt><trkpt lat="45.42912674767095" lon="10.456135976956006"><ele>115.0</ele><time>2026-03-29T08:06:17Z</time></trkpt><trkpt lat="45.429017302083615" lon="10.456245002346638"><ele>115.0</ele><time>2026-03-29T08:06:18Z</time></trkpt><trkpt lat="45.4289012018297" lon="10.456349090153495"><ele>115.0</ele><time>2026-03-29T08:06:19Z</time></trkpt><trkpt lat="45.42878484579923" lon="10.456455967543668"><ele>115.0</ele><time>2026-03-29T08:06:20Z</time></trkpt><trkpt lat="45.42868759792869" lon="10.456548466245769"><ele>115.0</ele><time>2026-03-29T08:06:21Z</time></trkpt><trkpt lat="45.428593455220884" lon="10.456633518713852"><ele>115.0</ele><time>2026-03-29T08:06:22Z</time></trkpt><trkpt lat="45.42850952632709" lon="10.456712767088966"><ele>115.0</ele><time>2026-03-29T08:06:23Z</time></trkpt><trkpt lat="45.428432508691316" lon="10.456788066357607"><ele>115.0</ele><time>2026-03-29T08:06:24Z</time></trkpt><trkpt lat="45.42837178806767" lon="10.456851667933774"><ele>115.0</ele><time>2026-03-29T08:06:25Z</time></trkpt><trkpt lat="45.428310958206325" lon="10.456894809490153"><ele>115.0</ele><time>2026-03-29T08:06:26Z</time></trkpt><trkpt lat="45.42819896168612" lon="10.456830091808717"><ele>115.0</ele><time>2026-03-29T08:06:28Z</time></trkpt><trkpt lat="45.428142767897796" lon="10.456786859719989"><ele>115.0</ele><time>2026-03-29T08:06:29Z</time></trkpt><trkpt lat="45.42804719131032" lon="10.456737011564437"><ele>115.0</ele><time>2026-03-29T08:06:30Z</time></trkpt><trkpt lat="45.4279421646897" lon="10.456678158323603"><ele>115.0</ele><time>2026-03-29T08:06:31Z</time></trkpt><trkpt lat="45.427819218124064" lon="10.456603107996898"><ele>115.0</ele><time>2026-03-29T08:06:32Z</time></trkpt><trkpt lat="45.427698523278934" lon="10.456523463483396"><ele>115.0</ele><time>2026-03-29T08:06:33Z</time></trkpt><trkpt lat="45.42756522270939" lon="10.456436079308306"><ele>115.0</ele><time>2026-03-29T08:06:34Z</time></trkpt><trkpt lat="45.4274237777639" lon="10.456345895850854"><ele>115.0</ele><time>2026-03-29T08:06:35Z</time></trkpt><trkpt lat="45.42727803046344" lon="10.45625632923141"><ele>114.0</ele><time>2026-03-29T08:06:36Z</time></trkpt><trkpt lat="45.42712400211036" lon="10.456160262978672"><ele>113.0</ele><time>2026-03-29T08:06:37Z</time></trkpt><trkpt lat="45.42697820287418" lon="10.456067441054895"><ele>112.0</ele><time>2026-03-29T08:06:38Z</time></trkpt><trkpt lat="45.426809932395436" lon="10.455964770533916"><ele>112.0</ele><time>2026-03-29T08:06:39Z</time></trkpt><trkpt lat="45.42666554850326" lon="10.455873763424862"><ele>112.0</ele><time>2026-03-29T08:06:40Z</time></trkpt><trkpt lat="45.42653309667951" lon="10.455791953826933"><ele>112.0</ele><time>2026-03-29T08:06:41Z</time></trkpt><trkpt lat="45.42639556888989" lon="10.455708912914696"><ele>112.0</ele><time>2026-03-29T08:06:42Z</time></trkpt><trkpt lat="45.426251171978414" lon="10.455619465104668"><ele>112.0</ele><time>2026-03-29T08:06:43Z</time></trkpt><trkpt lat="45.426103386852645" lon="10.455527024809193"><ele>112.0</ele><time>2026-03-29T08:06:44Z</time></trkpt><trkpt lat="45.42595862582517" lon="10.45543682555439"><ele>112.0</ele><time>2026-03-29T08:06:45Z</time></trkpt><trkpt lat="45.425816542272734" lon="10.455349875812887"><ele>112.0</ele><time>2026-03-29T08:06:46Z</time></trkpt><trkpt lat="45.42566024708817" lon="10.45525180076061"><ele>112.0</ele><time>2026-03-29T08:06:47Z</time></trkpt><trkpt lat="45.42551412422879" lon="10.455156792859544"><ele>112.33333333333334</ele><time>2026-03-29T08:06:48Z</time></trkpt><trkpt lat="45.42535057358071" lon="10.455051453584012"><ele>112.66666666666666</ele><time>2026-03-29T08:06:49Z</time></trkpt><trkpt lat="45.42521232669578" lon="10.454962545478107"><ele>113.0</ele><time>2026-03-29T08:06:50Z</time></trkpt><trkpt lat="45.42508437671518" lon="10.454856815219449"><ele>113.0</ele><time>2026-03-29T08:06:51Z</time></trkpt><trkpt lat="45.42493871738697" lon="10.454779169267624"><ele>113.0</ele><time>2026-03-29T08:06:52Z</time></trkpt><trkpt lat="45.424794030371444" lon="10.454683266974511"><ele>113.0</ele><time>2026-03-29T08:06:53Z</time></trkpt><trkpt lat="45.424646069785396" lon="10.454587746999431"><ele>112.75</ele><time>2026-03-29T08:06:54Z</time></trkpt><trkpt lat="45.424498288822534" lon="10.454493291310408"><ele>112.5</ele><time>2026-03-29T08:06:55Z</time></trkpt><trkpt lat="45.424364011783425" lon="10.454405079506625"><ele>112.25</ele><time>2026-03-29T08:06:56Z</time></trkpt><trkpt lat="45.42424281790089" lon="10.454323646117462"><ele>112.0</ele><time>2026-03-29T08:06:57Z</time></trkpt><trkpt lat="45.42411749389663" lon="10.454259605256292"><ele>112.0</ele><time>2026-03-29T08:06:58Z</time></trkpt><trkpt lat="45.423984803769734" lon="10.45424608879072"><ele>112.0</ele><time>2026-03-29T08:06:59Z</time></trkpt><trkpt lat="45.42387330907575" lon="10.454149482153037"><ele>112.0</ele><time>2026-03-29T08:07:00Z</time></trkpt><trkpt lat="45.423746004347386" lon="10.454068190345595"><ele>112.0</ele><time>2026-03-29T08:07:01Z</time></trkpt><trkpt lat="45.4236167171921" lon="10.453986547258848"><ele>111.66666666666667</ele><time>2026-03-29T08:07:02Z</time></trkpt><trkpt lat="45.42347564588071" lon="10.45389746271084"><ele>111.33333333333334</ele><time>2026-03-29T08:07:03Z</time></trkpt><trkpt lat="45.423346146896705" lon="10.453815685811293"><ele>111.0</ele><time>2026-03-29T08:07:04Z</time></trkpt><trkpt lat="45.42320443870874" lon="10.453726198959885"><ele>110.66666666666666</ele><time>2026-03-29T08:07:05Z</time></trkpt><trkpt lat="45.423058343016976" lon="10.453633941530152"><ele>110.33333333333333</ele><time>2026-03-29T08:07:06Z</time></trkpt><trkpt lat="45.42292254798414" lon="10.45354819053794"><ele>110.0</ele><time>2026-03-29T08:07:07Z</time></trkpt><trkpt lat="45.42279310741903" lon="10.453466450589783"><ele>110.0</ele><time>2026-03-29T08:07:08Z</time></trkpt><trkpt lat="45.42267594520046" lon="10.453392464246619"><ele>110.0</ele><time>2026-03-29T08:07:09Z</time></trkpt><trkpt lat="45.422551836840924" lon="10.453314091463715"><ele>110.0</ele><time>2026-03-29T08:07:10Z</time></trkpt><trkpt lat="45.42243594753981" lon="10.45324133264446"><ele>110.0</ele><time>2026-03-29T08:07:11Z</time></trkpt><trkpt lat="45.42232995932435" lon="10.453177948183772"><ele>110.0</ele><time>2026-03-29T08:07:12Z</time></trkpt><trkpt lat="45.422224480559876" lon="10.453114868423265"><ele>110.0</ele><time>2026-03-29T08:07:13Z</time></trkpt><trkpt lat="45.422125915893524" lon="10.453055924025918"><ele>110.0</ele><time>2026-03-29T08:07:14Z</time></trkpt><trkpt lat="45.422024616698785" lon="10.452988727162353"><ele>110.0</ele><time>2026-03-29T08:07:15Z</time></trkpt><trkpt lat="45.421914444234474" lon="10.45292146263386"><ele>110.0</ele><time>2026-03-29T08:07:16Z</time></trkpt><trkpt lat="45.421800299841344" lon="10.452853505290197"><ele>110.0</ele><time>2026-03-29T08:07:17Z</time></trkpt><trkpt lat="45.42167701392916" lon="10.45278010542764"><ele>110.0</ele><time>2026-03-29T08:07:18Z</time></trkpt><trkpt lat="45.42155292906253" lon="10.45270485499677"><ele>110.0</ele><time>2026-03-29T08:07:19Z</time></trkpt><trkpt lat="45.4214206160097" lon="10.452621723938224"><ele>109.5</ele><time>2026-03-29T08:07:20Z</time></trkpt><trkpt lat="45.421303639486496" lon="10.452548228492965"><ele>109.0</ele><time>2026-03-29T08:07:21Z</time></trkpt><trkpt lat="45.421179751703946" lon="10.452470390866251"><ele>108.5</ele><time>2026-03-29T08:07:22Z</time></trkpt><trkpt lat="45.421043554289604" lon="10.452384791933031"><ele>108.0</ele><time>2026-03-29T08:07:23Z</time></trkpt><trkpt lat="45.420908644491185" lon="10.45229507843045"><ele>108.0</ele><time>2026-03-29T08:07:24Z</time></trkpt><trkpt lat="45.42076707678512" lon="10.452200937463621"><ele>108.0</ele><time>2026-03-29T08:07:25Z</time></trkpt><trkpt lat="45.42064000095044" lon="10.452116129920368"><ele>108.0</ele><time>2026-03-29T08:07:26Z</time></trkpt><trkpt lat="45.4205097420111" lon="10.452024120110242"><ele>108.0</ele><time>2026-03-29T08:07:27Z</time></trkpt><trkpt lat="45.420374073568176" lon="10.451928289191548"><ele>108.33333333333334</ele><time>2026-03-29T08:07:28Z</time></trkpt><trkpt lat="45.42022879825804" lon="10.45183568122468"><ele>108.66666666666667</ele><time>2026-03-29T08:07:29Z</time></trkpt><trkpt lat="45.4200811402181" lon="10.451746282816499"><ele>109.0</ele><time>2026-03-29T08:07:30Z</time></trkpt><trkpt lat="45.419948234576985" lon="10.451665816168621"><ele>109.0</ele><time>2026-03-29T08:07:31Z</time></trkpt><trkpt lat="45.419812172536055" lon="10.451583438412458"><ele>109.0</ele><time>2026-03-29T08:07:32Z</time></trkpt><trkpt lat="45.41967640498919" lon="10.451501238744198"><ele>109.0</ele><time>2026-03-29T08:07:33Z</time></trkpt><trkpt lat="45.41954111944541" lon="10.451409292890737"><ele>109.0</ele><time>2026-03-29T08:07:34Z</time></trkpt><trkpt lat="45.41940811344298" lon="10.451321586378189"><ele>108.25</ele><time>2026-03-29T08:07:35Z</time></trkpt><trkpt lat="45.419269444995656" lon="10.451235752097135"><ele>107.5</ele><time>2026-03-29T08:07:36Z</time></trkpt><trkpt lat="45.4191368450224" lon="10.451155473768026"><ele>106.75</ele><time>2026-03-29T08:07:37Z</time></trkpt><trkpt lat="45.41901792244542" lon="10.451083476113281"><ele>106.0</ele><time>2026-03-29T08:07:38Z</time></trkpt><trkpt lat="45.4188865030906" lon="10.451002451413428"><ele>105.66666666666667</ele><time>2026-03-29T08:07:39Z</time></trkpt><trkpt lat="45.41874628415567" lon="10.450915539538842"><ele>105.33333333333334</ele><time>2026-03-29T08:07:40Z</time></trkpt><trkpt lat="45.418597923627374" lon="10.450821325831004"><ele>105.0</ele><time>2026-03-29T08:07:41Z</time></trkpt><trkpt lat="45.41844352179361" lon="10.450722763973157"><ele>105.0</ele><time>2026-03-29T08:07:42Z</time></trkpt><trkpt lat="45.418306722175366" lon="10.450634708573078"><ele>105.0</ele><time>2026-03-29T08:07:43Z</time></trkpt><trkpt lat="45.41817326268533" lon="10.45054789552927"><ele>105.0</ele><time>2026-03-29T08:07:44Z</time></trkpt><trkpt lat="45.41804013981903" lon="10.450461299400521"><ele>105.0</ele><time>2026-03-29T08:07:45Z</time></trkpt><trkpt lat="45.417907691792074" lon="10.450374174395435"><ele>104.5</ele><time>2026-03-29T08:07:46Z</time></trkpt><trkpt lat="45.41777860989694" lon="10.450288023355748"><ele>104.0</ele><time>2026-03-29T08:07:47Z</time></trkpt><trkpt lat="45.41765798810719" lon="10.450205748165905"><ele>103.5</ele><time>2026-03-29T08:07:48Z</time></trkpt><trkpt lat="45.41753149484199" lon="10.450117540215347"><ele>103.0</ele><time>2026-03-29T08:07:49Z</time></trkpt><trkpt lat="45.417411810520285" lon="10.450031889064077"><ele>103.0</ele><time>2026-03-29T08:07:50Z</time></trkpt><trkpt lat="45.41729814796757" lon="10.449949842128323"><ele>103.0</ele><time>2026-03-29T08:07:51Z</time></trkpt><trkpt lat="45.41721047708831" lon="10.44988594546182"><ele>103.0</ele><time>2026-03-29T08:07:52Z</time></trkpt><trkpt lat="45.41712555586043" lon="10.449824052879492"><ele>103.0</ele><time>2026-03-29T08:07:53Z</time></trkpt><trkpt lat="45.417034468670046" lon="10.449757666349557"><ele>103.0</ele><time>2026-03-29T08:07:55Z</time></trkpt><trkpt lat="45.416885924761935" lon="10.449973125920835"><ele>103.5</ele><time>2026-03-29T08:07:58Z</time></trkpt><trkpt lat="45.416836249005726" lon="10.450076928673361"><ele>104.0</ele><time>2026-03-29T08:07:59Z</time></trkpt><trkpt lat="45.416773834820255" lon="10.450206702977066"><ele>104.5</ele><time>2026-03-29T08:08:00Z</time></trkpt><trkpt lat="45.41669944638779" lon="10.450340686973103"><ele>105.0</ele><time>2026-03-29T08:08:01Z</time></trkpt><trkpt lat="45.416604063466664" lon="10.450499436971823"><ele>105.0</ele><time>2026-03-29T08:08:02Z</time></trkpt><trkpt lat="45.416503942233696" lon="10.450660317617492"><ele>105.0</ele><time>2026-03-29T08:08:03Z</time></trkpt><trkpt lat="45.41638645711893" lon="10.450847242891413"><ele>105.0</ele><time>2026-03-29T08:08:04Z</time></trkpt><trkpt lat="45.416263452144264" lon="10.451002354442718"><ele>105.33333333333334</ele><time>2026-03-29T08:08:05Z</time></trkpt><trkpt lat="45.41615486909647" lon="10.451202506899136"><ele>105.66666666666667</ele><time>2026-03-29T08:08:06Z</time></trkpt><trkpt lat="45.41604037480454" lon="10.45137414107469"><ele>106.0</ele><time>2026-03-29T08:08:07Z</time></trkpt><trkpt lat="45.41593888261055" lon="10.451528362059461"><ele>105.33333333333334</ele><time>2026-03-29T08:08:08Z</time></trkpt><trkpt lat="45.41584986852638" lon="10.451694458039226"><ele>104.66666666666666</ele><time>2026-03-29T08:08:09Z</time></trkpt><trkpt lat="45.41573913155104" lon="10.451856597469837"><ele>104.0</ele><time>2026-03-29T08:08:10Z</time></trkpt><trkpt lat="45.41564109393882" lon="10.45202741200034"><ele>103.66666666666666</ele><time>2026-03-29T08:08:11Z</time></trkpt><trkpt lat="45.41552883815517" lon="10.452207453964595"><ele>103.33333333333334</ele><time>2026-03-29T08:08:12Z</time></trkpt><trkpt lat="45.41542185100701" lon="10.452379060292051"><ele>103.0</ele><time>2026-03-29T08:08:13Z</time></trkpt><trkpt lat="45.41532789116189" lon="10.45252684261877"><ele>103.0</ele><time>2026-03-29T08:08:14Z</time></trkpt><trkpt lat="45.415236500333634" lon="10.45267428433754"><ele>103.0</ele><time>2026-03-29T08:08:15Z</time></trkpt><trkpt lat="45.415159265807446" lon="10.452803956216554"><ele>103.0</ele><time>2026-03-29T08:08:16Z</time></trkpt><trkpt lat="45.41508612664463" lon="10.452924195000096"><ele>103.0</ele><time>2026-03-29T08:08:17Z</time></trkpt><trkpt lat="45.41501549246272" lon="10.45303886738392"><ele>103.60000000000001</ele><time>2026-03-29T08:08:18Z</time></trkpt><trkpt lat="45.41495319563639" lon="10.453134045954933"><ele>104.2</ele><time>2026-03-29T08:08:19Z</time></trkpt><trkpt lat="45.414877513159716" lon="10.453262116241762"><ele>104.8</ele><time>2026-03-29T08:08:21Z</time></trkpt><trkpt lat="45.41492952422269" lon="10.45343321419449"><ele>105.4</ele><time>2026-03-29T08:08:24Z</time></trkpt><trkpt lat="45.41498829266036" lon="10.453490655873583"><ele>106.0</ele><time>2026-03-29T08:08:25Z</time></trkpt><trkpt lat="45.41506016243759" lon="10.453561032509917"><ele>106.0</ele><time>2026-03-29T08:08:26Z</time></trkpt><trkpt lat="45.41514194882122" lon="10.453622997854117"><ele>106.0</ele><time>2026-03-29T08:08:27Z</time></trkpt><trkpt lat="45.41521867986316" lon="10.453696717789901"><ele>106.0</ele><time>2026-03-29T08:08:28Z</time></trkpt><trkpt lat="45.41529939987367" lon="10.453781748943227"><ele>106.0</ele><time>2026-03-29T08:08:29Z</time></trkpt><trkpt lat="45.41538786058591" lon="10.453869021358207"><ele>106.0</ele><time>2026-03-29T08:08:30Z</time></trkpt><trkpt lat="45.41548594726953" lon="10.453952526838172"><ele>106.0</ele><time>2026-03-29T08:08:31Z</time></trkpt><trkpt lat="45.415572752591515" lon="10.454032745604492"><ele>106.0</ele><time>2026-03-29T08:08:32Z</time></trkpt><trkpt lat="45.41565691254732" lon="10.454110912649114"><ele>106.0</ele><time>2026-03-29T08:08:33Z</time></trkpt><trkpt lat="45.415744998803724" lon="10.454183413085888"><ele>106.0</ele><time>2026-03-29T08:08:34Z</time></trkpt><trkpt lat="45.41582145747415" lon="10.454258770153965"><ele>106.0</ele><time>2026-03-29T08:08:35Z</time></trkpt><trkpt lat="45.4158839039953" lon="10.454315426812533"><ele>106.00000000000001</ele><time>2026-03-29T08:08:36Z</time></trkpt><trkpt lat="45.41593965649827" lon="10.454394304167176"><ele>106.0</ele><time>2026-03-29T08:08:37Z</time></trkpt><trkpt lat="45.41595818185819" lon="10.454485185501005"><ele>106.0</ele><time>2026-03-29T08:08:38Z</time></trkpt><trkpt lat="45.41595909127126" lon="10.454593706418079"><ele>106.0</ele><time>2026-03-29T08:08:39Z</time></trkpt><trkpt lat="45.41592528858758" lon="10.454705060624006"><ele>106.00000000000001</ele><time>2026-03-29T08:08:40Z</time></trkpt><trkpt lat="45.4159054072416" lon="10.454859942695917"><ele>106.0</ele><time>2026-03-29T08:08:41Z</time></trkpt><trkpt lat="45.415888626098095" lon="10.455043504504305"><ele>106.0</ele><time>2026-03-29T08:08:42Z</time></trkpt><trkpt lat="45.41587051822144" lon="10.455233190048487"><ele>106.0</ele><time>2026-03-29T08:08:43Z</time></trkpt><trkpt lat="45.415837595435725" lon="10.455441070744289"><ele>106.0</ele><time>2026-03-29T08:08:44Z</time></trkpt><trkpt lat="45.41580541346981" lon="10.455650135938598"><ele>106.0</ele><time>2026-03-29T08:08:45Z</time></trkpt><trkpt lat="45.41578178055309" lon="10.455857311713837"><ele>106.0</ele><time>2026-03-29T08:08:46Z</time></trkpt><trkpt lat="45.41575938540533" lon="10.456066167889956"><ele>106.0</ele><time>2026-03-29T08:08:47Z</time></trkpt><trkpt lat="45.4157355808054" lon="10.456278144148573"><ele>106.0</ele><time>2026-03-29T08:08:48Z</time></trkpt><trkpt lat="45.415705655823096" lon="10.456484631002716"><ele>106.0</ele><time>2026-03-29T08:08:49Z</time></trkpt><trkpt lat="45.415677268809866" lon="10.456695889133977"><ele>106.0</ele><time>2026-03-29T08:08:50Z</time></trkpt><trkpt lat="45.41565575928218" lon="10.456911795789585"><ele>106.0</ele><time>2026-03-29T08:08:51Z</time></trkpt><trkpt lat="45.41564100410017" lon="10.457101943101467"><ele>106.0</ele><time>2026-03-29T08:08:52Z</time></trkpt><trkpt lat="45.41561934345563" lon="10.457287194386575"><ele>106.0</ele><time>2026-03-29T08:08:53Z</time></trkpt><trkpt lat="45.41559829858442" lon="10.45746504670851"><ele>105.75</ele><time>2026-03-29T08:08:54Z</time></trkpt><trkpt lat="45.41559103722161" lon="10.457626539528698"><ele>105.5</ele><time>2026-03-29T08:08:55Z</time></trkpt><trkpt lat="45.41558719493606" lon="10.457806877670505"><ele>105.25</ele><time>2026-03-29T08:08:56Z</time></trkpt><trkpt lat="45.41556769250585" lon="10.457985472517697"><ele>105.0</ele><time>2026-03-29T08:08:57Z</time></trkpt><trkpt lat="45.41555037381361" lon="10.458175987277524"><ele>104.75</ele><time>2026-03-29T08:08:58Z</time></trkpt><trkpt lat="45.415536365009615" lon="10.458358314209681"><ele>104.5</ele><time>2026-03-29T08:08:59Z</time></trkpt><trkpt lat="45.41552851611938" lon="10.458551720895171"><ele>104.25</ele><time>2026-03-29T08:09:00Z</time></trkpt><trkpt lat="45.415502091075254" lon="10.458765720681127"><ele>104.0</ele><time>2026-03-29T08:09:01Z</time></trkpt><trkpt lat="45.415499431047834" lon="10.458964744778052"><ele>104.0</ele><time>2026-03-29T08:09:02Z</time></trkpt><trkpt lat="45.41550020448958" lon="10.459167378707093"><ele>104.0</ele><time>2026-03-29T08:09:03Z</time></trkpt><trkpt lat="45.41549062360356" lon="10.459373665675486"><ele>104.0</ele><time>2026-03-29T08:09:04Z</time></trkpt><trkpt lat="45.41547484505829" lon="10.459568873317593"><ele>104.0</ele><time>2026-03-29T08:09:05Z</time></trkpt><trkpt lat="45.415460525105246" lon="10.459769338899472"><ele>104.0</ele><time>2026-03-29T08:09:06Z</time></trkpt><trkpt lat="45.415455265432726" lon="10.459982204071569"><ele>104.0</ele><time>2026-03-29T08:09:07Z</time></trkpt><trkpt lat="45.415449781212985" lon="10.460177103800927"><ele>104.0</ele><time>2026-03-29T08:09:08Z</time></trkpt><trkpt lat="45.41543551852849" lon="10.460378552264343"><ele>104.0</ele><time>2026-03-29T08:09:09Z</time></trkpt><trkpt lat="45.41543072669974" lon="10.460571762235217"><ele>104.0</ele><time>2026-03-29T08:09:10Z</time></trkpt><trkpt lat="45.415421162852105" lon="10.460758790561451"><ele>104.0</ele><time>2026-03-29T08:09:11Z</time></trkpt><trkpt lat="45.41540880910295" lon="10.46094236156395"><ele>104.0</ele><time>2026-03-29T08:09:12Z</time></trkpt><trkpt lat="45.41539496455802" lon="10.461111178399728"><ele>104.0</ele><time>2026-03-29T08:09:13Z</time></trkpt><trkpt lat="45.415386377798185" lon="10.461284476760495"><ele>104.25</ele><time>2026-03-29T08:09:14Z</time></trkpt><trkpt lat="45.41538276971443" lon="10.461481224642773"><ele>104.5</ele><time>2026-03-29T08:09:15Z</time></trkpt><trkpt lat="45.41537949839609" lon="10.461657832771515"><ele>104.75</ele><time>2026-03-29T08:09:16Z</time></trkpt><trkpt lat="45.41538317674685" lon="10.461834934253522"><ele>105.0</ele><time>2026-03-29T08:09:17Z</time></trkpt><trkpt lat="45.41536826209262" lon="10.462012232464916"><ele>104.75</ele><time>2026-03-29T08:09:18Z</time></trkpt><trkpt lat="45.41535987497805" lon="10.462206147013584"><ele>104.5</ele><time>2026-03-29T08:09:19Z</time></trkpt><trkpt lat="45.415347946393425" lon="10.462373214895333"><ele>104.25</ele><time>2026-03-29T08:09:20Z</time></trkpt><trkpt lat="45.41534168520461" lon="10.462545584703799"><ele>104.0</ele><time>2026-03-29T08:09:21Z</time></trkpt><trkpt lat="45.41533942555302" lon="10.462721295409063"><ele>104.0</ele><time>2026-03-29T08:09:22Z</time></trkpt><trkpt lat="45.41533530063972" lon="10.46289642463382"><ele>104.0</ele><time>2026-03-29T08:09:23Z</time></trkpt><trkpt lat="45.41533757546883" lon="10.463071211819894"><ele>104.0</ele><time>2026-03-29T08:09:24Z</time></trkpt><trkpt lat="45.41534252169114" lon="10.463259064628074"><ele>104.0</ele><time>2026-03-29T08:09:25Z</time></trkpt><trkpt lat="45.41535099606707" lon="10.463428322282427"><ele>104.25</ele><time>2026-03-29T08:09:26Z</time></trkpt><trkpt lat="45.41536652866018" lon="10.463638332362578"><ele>104.5</ele><time>2026-03-29T08:09:27Z</time></trkpt><trkpt lat="45.41538259105522" lon="10.463827273077916"><ele>104.75</ele><time>2026-03-29T08:09:28Z</time></trkpt><trkpt lat="45.415393358401445" lon="10.464003799279839"><ele>105.0</ele><time>2026-03-29T08:09:29Z</time></trkpt><trkpt lat="45.415406737942526" lon="10.464174283455593"><ele>105.4</ele><time>2026-03-29T08:09:30Z</time></trkpt><trkpt lat="45.41541263294528" lon="10.464315924733743"><ele>105.8</ele><time>2026-03-29T08:09:31Z</time></trkpt><trkpt lat="45.415425258447875" lon="10.464461744747934"><ele>106.19999999999999</ele><time>2026-03-29T08:09:32Z</time></trkpt><trkpt lat="45.41544727468996" lon="10.464614559959996"><ele>106.6</ele><time>2026-03-29T08:09:33Z</time></trkpt><trkpt lat="45.415470741798806" lon="10.46478540955628"><ele>107.0</ele><time>2026-03-29T08:09:34Z</time></trkpt><trkpt lat="45.41549121451005" lon="10.464974854420674"><ele>107.0</ele><time>2026-03-29T08:09:35Z</time></trkpt><trkpt lat="45.41550647707763" lon="10.465184006813596"><ele>107.0</ele><time>2026-03-29T08:09:36Z</time></trkpt><trkpt lat="45.41551660249653" lon="10.465404613836865"><ele>107.0</ele><time>2026-03-29T08:09:37Z</time></trkpt><trkpt lat="45.415526560098634" lon="10.465649526440764"><ele>107.0</ele><time>2026-03-29T08:09:38Z</time></trkpt><trkpt lat="45.415543045727375" lon="10.465899046565026"><ele>107.0</ele><time>2026-03-29T08:09:39Z</time></trkpt><trkpt lat="45.41555649333265" lon="10.466137765167167"><ele>107.0</ele><time>2026-03-29T08:09:40Z</time></trkpt><trkpt lat="45.41556984904459" lon="10.466369282231923"><ele>107.0</ele><time>2026-03-29T08:09:41Z</time></trkpt><trkpt lat="45.41558259426501" lon="10.466598677308943"><ele>107.0</ele><time>2026-03-29T08:09:42Z</time></trkpt><trkpt lat="45.41559026127607" lon="10.466820388325102"><ele>107.0</ele><time>2026-03-29T08:09:43Z</time></trkpt><trkpt lat="45.41558460773901" lon="10.467037706019342"><ele>107.0</ele><time>2026-03-29T08:09:44Z</time></trkpt><trkpt lat="45.41558166442496" lon="10.467284051271122"><ele>107.0</ele><time>2026-03-29T08:09:45Z</time></trkpt><trkpt lat="45.41556389849026" lon="10.467488400251563"><ele>107.0</ele><time>2026-03-29T08:09:46Z</time></trkpt><trkpt lat="45.41553440683586" lon="10.467700271640204"><ele>107.0</ele><time>2026-03-29T08:09:47Z</time></trkpt><trkpt lat="45.415504814387376" lon="10.46791941679932"><ele>107.0</ele><time>2026-03-29T08:09:48Z</time></trkpt><trkpt lat="45.41547596978771" lon="10.46813206963273"><ele>107.0</ele><time>2026-03-29T08:09:49Z</time></trkpt><trkpt lat="45.415452738834134" lon="10.468323804644731"><ele>107.0</ele><time>2026-03-29T08:09:50Z</time></trkpt><trkpt lat="45.41543088989037" lon="10.46850770271453"><ele>107.0</ele><time>2026-03-29T08:09:51Z</time></trkpt><trkpt lat="45.41541744234302" lon="10.46869642473392"><ele>107.0</ele><time>2026-03-29T08:09:52Z</time></trkpt><trkpt lat="45.4154038934075" lon="10.468877127298676"><ele>107.0</ele><time>2026-03-29T08:09:53Z</time></trkpt><trkpt lat="45.415382393161636" lon="10.469077019124803"><ele>107.0</ele><time>2026-03-29T08:09:54Z</time></trkpt><trkpt lat="45.41535996630014" lon="10.469283098999872"><ele>107.0</ele><time>2026-03-29T08:09:55Z</time></trkpt><trkpt lat="45.415336290121886" lon="10.46949213332081"><ele>107.0</ele><time>2026-03-29T08:09:56Z</time></trkpt><trkpt lat="45.415307571329976" lon="10.469707469789196"><ele>107.0</ele><time>2026-03-29T08:09:57Z</time></trkpt><trkpt lat="45.41528284525928" lon="10.469926648362991"><ele>107.33333333333333</ele><time>2026-03-29T08:09:58Z</time></trkpt><trkpt lat="45.41525822464429" lon="10.470144445945174"><ele>107.66666666666666</ele><time>2026-03-29T08:09:59Z</time></trkpt><trkpt lat="45.41524279837389" lon="10.470354308030453"><ele>108.0</ele><time>2026-03-29T08:10:00Z</time></trkpt><trkpt lat="45.41522093832072" lon="10.470565443109585"><ele>108.5</ele><time>2026-03-29T08:10:01Z</time></trkpt><trkpt lat="45.41520110598822" lon="10.470765771179465"><ele>109.0</ele><time>2026-03-29T08:10:02Z</time></trkpt><trkpt lat="45.4151792811383" lon="10.470959579063562"><ele>109.5</ele><time>2026-03-29T08:10:03Z</time></trkpt><trkpt lat="45.41516075067594" lon="10.471157757726493"><ele>110.0</ele><time>2026-03-29T08:10:04Z</time></trkpt><trkpt lat="45.41514598852702" lon="10.471344018265068"><ele>110.33333333333333</ele><time>2026-03-29T08:10:05Z</time></trkpt><trkpt lat="45.41512985689258" lon="10.471547658666214"><ele>110.66666666666666</ele><time>2026-03-29T08:10:06Z</time></trkpt><trkpt lat="45.41511269079641" lon="10.471775782025649"><ele>111.0</ele><time>2026-03-29T08:10:07Z</time></trkpt><trkpt lat="45.41508561481033" lon="10.472016429872467"><ele>111.0</ele><time>2026-03-29T08:10:08Z</time></trkpt><trkpt lat="45.41506872247161" lon="10.472238317511675"><ele>111.0</ele><time>2026-03-29T08:10:09Z</time></trkpt><trkpt lat="45.41505384391765" lon="10.472429731336364"><ele>111.0</ele><time>2026-03-29T08:10:10Z</time></trkpt><trkpt lat="45.41503518850232" lon="10.472599959318515"><ele>111.0</ele><time>2026-03-29T08:10:11Z</time></trkpt><trkpt lat="45.415018467336054" lon="10.472752798903626"><ele>111.0</ele><time>2026-03-29T08:10:12Z</time></trkpt><trkpt lat="45.41500746682696" lon="10.472889091022509"><ele>111.0</ele><time>2026-03-29T08:10:13Z</time></trkpt><trkpt lat="45.41499646374646" lon="10.473013862457316"><ele>111.0</ele><time>2026-03-29T08:10:14Z</time></trkpt><trkpt lat="45.414986067725245" lon="10.473129302398924"><ele>111.0</ele><time>2026-03-29T08:10:15Z</time></trkpt><trkpt lat="45.41497516705306" lon="10.473223510691202"><ele>111.0</ele><time>2026-03-29T08:10:16Z</time></trkpt><trkpt lat="45.414963854424165" lon="10.473318335813207"><ele>111.0</ele><time>2026-03-29T08:10:17Z</time></trkpt><trkpt lat="45.41494489103108" lon="10.473441029159876"><ele>111.5</ele><time>2026-03-29T08:10:19Z</time></trkpt><trkpt lat="45.41513256925518" lon="10.473641130747769"><ele>112.0</ele><time>2026-03-29T08:10:27Z</time></trkpt><trkpt lat="45.41498926619793" lon="10.472996105617876"><ele>111.8</ele><time>2026-03-29T08:10:30Z</time></trkpt><trkpt lat="45.41500123614561" lon="10.472852246772208"><ele>111.6</ele><time>2026-03-29T08:10:31Z</time></trkpt><trkpt lat="45.41501941405613" lon="10.472672260095738"><ele>111.39999999999999</ele><time>2026-03-29T08:10:32Z</time></trkpt><trkpt lat="45.41503391855797" lon="10.472524288060754"><ele>111.19999999999999</ele><time>2026-03-29T08:10:33Z</time></trkpt><trkpt lat="45.4150447001471" lon="10.472406868918341"><ele>111.0</ele><time>2026-03-29T08:10:34Z</time></trkpt><trkpt lat="45.41505386956128" lon="10.47230615054956"><ele>111.0</ele><time>2026-03-29T08:10:35Z</time></trkpt><trkpt lat="45.41506616096933" lon="10.472144122209336"><ele>111.0</ele><time>2026-03-29T08:10:37Z</time></trkpt><trkpt lat="45.415101596389185" lon="10.472053338369397"><ele>111.0</ele><time>2026-03-29T08:10:39Z</time></trkpt><trkpt lat="45.41519393541912" lon="10.472047529820284"><ele>111.0</ele><time>2026-03-29T08:10:41Z</time></trkpt><trkpt lat="45.41525892066808" lon="10.472051999039685"><ele>111.0</ele><time>2026-03-29T08:10:42Z</time></trkpt><trkpt lat="45.41534177978131" lon="10.47207041521401"><ele>111.0</ele><time>2026-03-29T08:10:43Z</time></trkpt><trkpt lat="45.415452562185166" lon="10.472089123381915"><ele>111.0</ele><time>2026-03-29T08:10:44Z</time></trkpt><trkpt lat="45.41558350223465" lon="10.472095176414177"><ele>111.0</ele><time>2026-03-29T08:10:45Z</time></trkpt><trkpt lat="45.41572179685701" lon="10.472101345302727"><ele>111.0</ele><time>2026-03-29T08:10:46Z</time></trkpt><trkpt lat="45.41585234074573" lon="10.472117949261776"><ele>111.0</ele><time>2026-03-29T08:10:47Z</time></trkpt><trkpt lat="45.41597992422979" lon="10.472138652531727"><ele>111.0</ele><time>2026-03-29T08:10:48Z</time></trkpt><trkpt lat="45.41609746445173" lon="10.4721498674527"><ele>111.0</ele><time>2026-03-29T08:10:49Z</time></trkpt><trkpt lat="45.41621240319656" lon="10.47215034583763"><ele>111.0</ele><time>2026-03-29T08:10:50Z</time></trkpt><trkpt lat="45.4163396918385" lon="10.472162259202745"><ele>111.0</ele><time>2026-03-29T08:10:51Z</time></trkpt><trkpt lat="45.41647210250283" lon="10.472179156755454"><ele>111.0</ele><time>2026-03-29T08:10:52Z</time></trkpt><trkpt lat="45.416601855759424" lon="10.472193925733006"><ele>111.0</ele><time>2026-03-29T08:10:53Z</time></trkpt><trkpt lat="45.41673549616475" lon="10.472208390657126"><ele>111.0</ele><time>2026-03-29T08:10:54Z</time></trkpt><trkpt lat="45.4168770577276" lon="10.472224901741242"><ele>111.0</ele><time>2026-03-29T08:10:55Z</time></trkpt><trkpt lat="45.41701178153887" lon="10.472238433829931"><ele>111.0</ele><time>2026-03-29T08:10:56Z</time></trkpt><trkpt lat="45.41714685978721" lon="10.472256124481198"><ele>111.0</ele><time>2026-03-29T08:10:57Z</time></trkpt><trkpt lat="45.41729704939014" lon="10.472272511513935"><ele>111.0</ele><time>2026-03-29T08:10:58Z</time></trkpt><trkpt lat="45.41745885520794" lon="10.47229529063638"><ele>111.0</ele><time>2026-03-29T08:10:59Z</time></trkpt><trkpt lat="45.41761483865664" lon="10.472318572883239"><ele>111.33333333333334</ele><time>2026-03-29T08:11:00Z</time></trkpt><trkpt lat="45.417766815967326" lon="10.472340261980335"><ele>111.66666666666667</ele><time>2026-03-29T08:11:01Z</time></trkpt><trkpt lat="45.41793017365415" lon="10.472393190253491"><ele>112.0</ele><time>2026-03-29T08:11:02Z</time></trkpt><trkpt lat="45.41809500976949" lon="10.472417082334776"><ele>112.0</ele><time>2026-03-29T08:11:03Z</time></trkpt><trkpt lat="45.41826871378982" lon="10.472420440064898"><ele>112.0</ele><time>2026-03-29T08:11:04Z</time></trkpt><trkpt lat="45.418411021749165" lon="10.472455434218167"><ele>112.0</ele><time>2026-03-29T08:11:05Z</time></trkpt><trkpt lat="45.418540939260815" lon="10.47246151544996"><ele>112.0</ele><time>2026-03-29T08:11:06Z</time></trkpt><trkpt lat="45.418674203032246" lon="10.47247101102837"><ele>112.0</ele><time>2026-03-29T08:11:07Z</time></trkpt><trkpt lat="45.41879967767665" lon="10.472483175674538"><ele>112.0</ele><time>2026-03-29T08:11:08Z</time></trkpt><trkpt lat="45.41893062583683" lon="10.472473666489154"><ele>112.0</ele><time>2026-03-29T08:11:09Z</time></trkpt><trkpt lat="45.419047946529" lon="10.472507245143776"><ele>112.0</ele><time>2026-03-29T08:11:10Z</time></trkpt><trkpt lat="45.419152542004696" lon="10.47251872427092"><ele>111.8</ele><time>2026-03-29T08:11:11Z</time></trkpt><trkpt lat="45.419238830347666" lon="10.472531668158156"><ele>111.6</ele><time>2026-03-29T08:11:12Z</time></trkpt><trkpt lat="45.41932194099644" lon="10.472549502553603"><ele>111.39999999999999</ele><time>2026-03-29T08:11:13Z</time></trkpt><trkpt lat="45.419389318916586" lon="10.472568221605558"><ele>111.19999999999999</ele><time>2026-03-29T08:11:14Z</time></trkpt><trkpt lat="45.41948054961172" lon="10.472576813027182"><ele>111.0</ele><time>2026-03-29T08:11:16Z</time></trkpt><trkpt lat="45.41946295036414" lon="10.472750562994497"><ele>111.0</ele><time>2026-03-29T08:11:19Z</time></trkpt><trkpt lat="45.41944503131834" lon="10.472882311584867"><ele>111.0</ele><time>2026-03-29T08:11:20Z</time></trkpt><trkpt lat="45.41939483415751" lon="10.473043314679444"><ele>111.0</ele><time>2026-03-29T08:11:21Z</time></trkpt><trkpt lat="45.41934386017713" lon="10.473237147267275"><ele>111.0</ele><time>2026-03-29T08:11:22Z</time></trkpt><trkpt lat="45.41929930396087" lon="10.473420261844101"><ele>111.0</ele><time>2026-03-29T08:11:23Z</time></trkpt><trkpt lat="45.41925437673941" lon="10.473611308100846"><ele>111.0</ele><time>2026-03-29T08:11:24Z</time></trkpt><trkpt lat="45.41920544118225" lon="10.473804970343997"><ele>111.0</ele><time>2026-03-29T08:11:25Z</time></trkpt><trkpt lat="45.419148439736105" lon="10.474017533206968"><ele>111.0</ele><time>2026-03-29T08:11:26Z</time></trkpt><trkpt lat="45.419092695510365" lon="10.474244428920684"><ele>111.0</ele><time>2026-03-29T08:11:27Z</time></trkpt><trkpt lat="45.41903434882367" lon="10.474489376300962"><ele>111.0</ele><time>2026-03-29T08:11:28Z</time></trkpt><trkpt lat="45.41897914244882" lon="10.474737962438637"><ele>111.0</ele><time>2026-03-29T08:11:29Z</time></trkpt><trkpt lat="45.418930977798496" lon="10.474979110109862"><ele>111.0</ele><time>2026-03-29T08:11:30Z</time></trkpt><trkpt lat="45.41889926704762" lon="10.475202211644433"><ele>111.0</ele><time>2026-03-29T08:11:31Z</time></trkpt><trkpt lat="45.418884830556" lon="10.475425410874973"><ele>111.0</ele><time>2026-03-29T08:11:32Z</time></trkpt><trkpt lat="45.41887271059118" lon="10.475637737329725"><ele>111.5</ele><time>2026-03-29T08:11:33Z</time></trkpt><trkpt lat="45.41886172661187" lon="10.475836454652972"><ele>112.0</ele><time>2026-03-29T08:11:34Z</time></trkpt><trkpt lat="45.418849921520604" lon="10.476029156330165"><ele>112.5</ele><time>2026-03-29T08:11:35Z</time></trkpt><trkpt lat="45.41883776477695" lon="10.476211432681284"><ele>113.0</ele><time>2026-03-29T08:11:36Z</time></trkpt><trkpt lat="45.41882285328033" lon="10.476368014413495"><ele>113.33333333333333</ele><time>2026-03-29T08:11:37Z</time></trkpt><trkpt lat="45.418784665306525" lon="10.476493835382689"><ele>113.66666666666666</ele><time>2026-03-29T08:11:38Z</time></trkpt><trkpt lat="45.41873294005616" lon="10.476595367898765"><ele>114.0</ele><time>2026-03-29T08:11:39Z</time></trkpt><trkpt lat="45.41867086204245" lon="10.476659432544784"><ele>114.33333333333334</ele><time>2026-03-29T08:11:40Z</time></trkpt><trkpt lat="45.41862813881057" lon="10.476733970340304"><ele>114.66666666666667</ele><time>2026-03-29T08:11:41Z</time></trkpt><trkpt lat="45.41861598351314" lon="10.476849687132912"><ele>115.0</ele><time>2026-03-29T08:11:42Z</time></trkpt><trkpt lat="45.418619764444244" lon="10.476991623577865"><ele>116.25</ele><time>2026-03-29T08:11:43Z</time></trkpt><trkpt lat="45.41859697660415" lon="10.477135217353398"><ele>117.5</ele><time>2026-03-29T08:11:44Z</time></trkpt><trkpt lat="45.41853248208315" lon="10.477281826784383"><ele>118.75</ele><time>2026-03-29T08:11:45Z</time></trkpt><trkpt lat="45.41843795358727" lon="10.477425972812627"><ele>120.0</ele><time>2026-03-29T08:11:46Z</time></trkpt><trkpt lat="45.41834487415984" lon="10.477573401706277"><ele>120.0</ele><time>2026-03-29T08:11:47Z</time></trkpt><trkpt lat="45.41825076356613" lon="10.477717793405011"><ele>120.0</ele><time>2026-03-29T08:11:48Z</time></trkpt><trkpt lat="45.4181655056921" lon="10.477835433350618"><ele>120.0</ele><time>2026-03-29T08:11:49Z</time></trkpt><trkpt lat="45.41809642823777" lon="10.477974972104361"><ele>120.0</ele><time>2026-03-29T08:11:50Z</time></trkpt><trkpt lat="45.41804382699923" lon="10.478149918738572"><ele>119.5</ele><time>2026-03-29T08:11:51Z</time></trkpt><trkpt lat="45.418006563898075" lon="10.478340903489952"><ele>119.0</ele><time>2026-03-29T08:11:52Z</time></trkpt><trkpt lat="45.417960971347846" lon="10.478534599371873"><ele>118.5</ele><time>2026-03-29T08:11:53Z</time></trkpt><trkpt lat="45.417917747810584" lon="10.478726852921277"><ele>118.0</ele><time>2026-03-29T08:11:54Z</time></trkpt><trkpt lat="45.41787119294009" lon="10.47890809168151"><ele>118.80000000000001</ele><time>2026-03-29T08:11:55Z</time></trkpt><trkpt lat="45.41783328028906" lon="10.479061675378974"><ele>119.60000000000001</ele><time>2026-03-29T08:11:56Z</time></trkpt><trkpt lat="45.41781011245577" lon="10.47920231668753"><ele>120.39999999999999</ele><time>2026-03-29T08:11:57Z</time></trkpt><trkpt lat="45.417804413669906" lon="10.479332941464946"><ele>121.19999999999999</ele><time>2026-03-29T08:11:58Z</time></trkpt><trkpt lat="45.41783921191089" lon="10.479480656564437"><ele>122.0</ele><time>2026-03-29T08:11:59Z</time></trkpt><trkpt lat="45.417906141011365" lon="10.479641740866375"><ele>122.0</ele><time>2026-03-29T08:12:00Z</time></trkpt><trkpt lat="45.417970572237685" lon="10.479806186780994"><ele>122.0</ele><time>2026-03-29T08:12:01Z</time></trkpt><trkpt lat="45.41803293684333" lon="10.479981797972707"><ele>122.0</ele><time>2026-03-29T08:12:02Z</time></trkpt><trkpt lat="45.41808861689719" lon="10.480162023238593"><ele>122.0</ele><time>2026-03-29T08:12:03Z</time></trkpt><trkpt lat="45.418141449290786" lon="10.480351953649329"><ele>123.0</ele><time>2026-03-29T08:12:04Z</time></trkpt><trkpt lat="45.41818983905586" lon="10.480513028887945"><ele>123.99999999999999</ele><time>2026-03-29T08:12:05Z</time></trkpt><trkpt lat="45.4182436891576" lon="10.480650324261026"><ele>124.99999999999999</ele><time>2026-03-29T08:12:06Z</time></trkpt><trkpt lat="45.41831020870514" lon="10.48076617373773"><ele>126.0</ele><time>2026-03-29T08:12:07Z</time></trkpt><trkpt lat="45.418396990887494" lon="10.480844006210578"><ele>127.0</ele><time>2026-03-29T08:12:08Z</time></trkpt><trkpt lat="45.4184923931338" lon="10.480925412385"><ele>127.0</ele><time>2026-03-29T08:12:09Z</time></trkpt><trkpt lat="45.41858494977656" lon="10.481025569093752"><ele>126.99999999999999</ele><time>2026-03-29T08:12:10Z</time></trkpt><trkpt lat="45.418652243305935" lon="10.481127107586156"><ele>126.99999999999999</ele><time>2026-03-29T08:12:11Z</time></trkpt><trkpt lat="45.41870026470572" lon="10.481222930908475"><ele>127.0</ele><time>2026-03-29T08:12:12Z</time></trkpt><trkpt lat="45.418726961463584" lon="10.481331215338338"><ele>127.0</ele><time>2026-03-29T08:12:13Z</time></trkpt><trkpt lat="45.41871502325893" lon="10.481467623062024"><ele>126.39999999999999</ele><time>2026-03-29T08:12:14Z</time></trkpt><trkpt lat="45.418674621616645" lon="10.48160040193304"><ele>125.79999999999998</ele><time>2026-03-29T08:12:15Z</time></trkpt><trkpt lat="45.41863214969276" lon="10.481696012031327"><ele>125.2</ele><time>2026-03-29T08:12:16Z</time></trkpt><trkpt lat="45.418596114859184" lon="10.481781700160026"><ele>124.6</ele><time>2026-03-29T08:12:18Z</time></trkpt><trkpt lat="45.41867199920294" lon="10.48193830550507"><ele>124.0</ele><time>2026-03-29T08:12:22Z</time></trkpt><trkpt lat="45.41874184654369" lon="10.48205535437373"><ele>124.75</ele><time>2026-03-29T08:12:23Z</time></trkpt><trkpt lat="45.418776451140154" lon="10.482180990366858"><ele>125.5</ele><time>2026-03-29T08:12:24Z</time></trkpt><trkpt lat="45.41877494964872" lon="10.482343260985255"><ele>126.25</ele><time>2026-03-29T08:12:25Z</time></trkpt><trkpt lat="45.41876843562255" lon="10.482519863640785"><ele>127.0</ele><time>2026-03-29T08:12:26Z</time></trkpt><trkpt lat="45.41876660958234" lon="10.482698292822995"><ele>127.0</ele><time>2026-03-29T08:12:27Z</time></trkpt><trkpt lat="45.41877564263778" lon="10.482854649125743"><ele>126.99999999999999</ele><time>2026-03-29T08:12:28Z</time></trkpt><trkpt lat="45.418794111235954" lon="10.482982671233009"><ele>126.99999999999999</ele><time>2026-03-29T08:12:29Z</time></trkpt><trkpt lat="45.41878901216873" lon="10.483091227987542"><ele>127.0</ele><time>2026-03-29T08:12:30Z</time></trkpt><trkpt lat="45.41893718455171" lon="10.483180973553313"><ele>127.0</ele><time>2026-03-29T08:12:31Z</time></trkpt><trkpt lat="45.419048357867645" lon="10.483259597506184"><ele>126.6</ele><time>2026-03-29T08:12:32Z</time></trkpt><trkpt lat="45.41914359636098" lon="10.483345904109596"><ele>126.19999999999999</ele><time>2026-03-29T08:12:33Z</time></trkpt><trkpt lat="45.41922529583134" lon="10.483443826165802"><ele>125.8</ele><time>2026-03-29T08:12:34Z</time></trkpt><trkpt lat="45.41929760242041" lon="10.483557911665464"><ele>125.4</ele><time>2026-03-29T08:12:35Z</time></trkpt><trkpt lat="45.41934871939146" lon="10.483666370441195"><ele>125.0</ele><time>2026-03-29T08:12:36Z</time></trkpt><trkpt lat="45.41937392884022" lon="10.483751355472048"><ele>125.6</ele><time>2026-03-29T08:12:37Z</time></trkpt><trkpt lat="45.419373864640434" lon="10.483843116989387"><ele>126.2</ele><time>2026-03-29T08:12:38Z</time></trkpt><trkpt lat="45.41935333298934" lon="10.483960030008916"><ele>126.80000000000001</ele><time>2026-03-29T08:12:39Z</time></trkpt><trkpt lat="45.419328334073406" lon="10.48409874981991"><ele>127.4</ele><time>2026-03-29T08:12:40Z</time></trkpt><trkpt lat="45.41931283389105" lon="10.484250229308255"><ele>128.0</ele><time>2026-03-29T08:12:41Z</time></trkpt><trkpt lat="45.4193101333504" lon="10.484390349302503"><ele>128.0</ele><time>2026-03-29T08:12:42Z</time></trkpt><trkpt lat="45.4193189333012" lon="10.484511083480404"><ele>128.0</ele><time>2026-03-29T08:12:43Z</time></trkpt><trkpt lat="45.41936435606615" lon="10.484624659882723"><ele>128.0</ele><time>2026-03-29T08:12:44Z</time></trkpt><trkpt lat="45.41940993576046" lon="10.484707958243515"><ele>128.0</ele><time>2026-03-29T08:12:45Z</time></trkpt><trkpt lat="45.419478445126025" lon="10.484796637690177"><ele>128.0</ele><time>2026-03-29T08:12:46Z</time></trkpt><trkpt lat="45.41957522920737" lon="10.484908767196407"><ele>128.0</ele><time>2026-03-29T08:12:47Z</time></trkpt><trkpt lat="45.41969542808394" lon="10.485042891410284"><ele>128.0</ele><time>2026-03-29T08:12:48Z</time></trkpt><trkpt lat="45.41982625041079" lon="10.485171839644734"><ele>128.0</ele><time>2026-03-29T08:12:49Z</time></trkpt><trkpt lat="45.419968308271066" lon="10.485285601595017"><ele>128.0</ele><time>2026-03-29T08:12:50Z</time></trkpt><trkpt lat="45.42012424880621" lon="10.485372433876526"><ele>128.0</ele><time>2026-03-29T08:12:51Z</time></trkpt><trkpt lat="45.42028861961333" lon="10.485447737649242"><ele>128.0</ele><time>2026-03-29T08:12:52Z</time></trkpt><trkpt lat="45.420443162731424" lon="10.485497470263434"><ele>131.66666666666666</ele><time>2026-03-29T08:12:53Z</time></trkpt><trkpt lat="45.420595096097664" lon="10.485521794537652"><ele>135.33333333333334</ele><time>2026-03-29T08:12:54Z</time></trkpt><trkpt lat="45.42075961898153" lon="10.485518390832636"><ele>139.0</ele><time>2026-03-29T08:12:55Z</time></trkpt><trkpt lat="45.420914132982645" lon="10.485520352966297"><ele>139.0</ele><time>2026-03-29T08:12:56Z</time></trkpt><trkpt lat="45.42105900374063" lon="10.485522721105536"><ele>139.0</ele><time>2026-03-29T08:12:57Z</time></trkpt><trkpt lat="45.421199142599825" lon="10.485527886044371"><ele>139.0</ele><time>2026-03-29T08:12:58Z</time></trkpt><trkpt lat="45.42136035172452" lon="10.485544250253344"><ele>139.0</ele><time>2026-03-29T08:12:59Z</time></trkpt><trkpt lat="45.42152651514036" lon="10.485563023267703"><ele>139.25</ele><time>2026-03-29T08:13:00Z</time></trkpt><trkpt lat="45.4216639052335" lon="10.485623587576857"><ele>139.5</ele><time>2026-03-29T08:13:01Z</time></trkpt><trkpt lat="45.42179427693622" lon="10.48567249445911"><ele>139.75</ele><time>2026-03-29T08:13:02Z</time></trkpt><trkpt lat="45.421921396296376" lon="10.485712618941651"><ele>140.0</ele><time>2026-03-29T08:13:03Z</time></trkpt><trkpt lat="45.42203141166922" lon="10.485780445789883"><ele>140.0</ele><time>2026-03-29T08:13:04Z</time></trkpt><trkpt lat="45.42212199149957" lon="10.485867233653003"><ele>140.0</ele><time>2026-03-29T08:13:05Z</time></trkpt><trkpt lat="45.422201707116045" lon="10.48596344171724"><ele>140.0</ele><time>2026-03-29T08:13:06Z</time></trkpt><trkpt lat="45.42227779122321" lon="10.486079856780377"><ele>140.0</ele><time>2026-03-29T08:13:07Z</time></trkpt><trkpt lat="45.422341102315016" lon="10.48621696270687"><ele>140.0</ele><time>2026-03-29T08:13:08Z</time></trkpt><trkpt lat="45.422376361205416" lon="10.486382728361633"><ele>141.0</ele><time>2026-03-29T08:13:09Z</time></trkpt><trkpt lat="45.422388557088034" lon="10.486560203906405"><ele>142.0</ele><time>2026-03-29T08:13:10Z</time></trkpt><trkpt lat="45.422393448094276" lon="10.486747125827122"><ele>143.0</ele><time>2026-03-29T08:13:11Z</time></trkpt><trkpt lat="45.42239062963937" lon="10.486951515290006"><ele>144.0</ele><time>2026-03-29T08:13:12Z</time></trkpt><trkpt lat="45.42238499498615" lon="10.487151367933595"><ele>144.75</ele><time>2026-03-29T08:13:13Z</time></trkpt><trkpt lat="45.4223699513067" lon="10.487353442336511"><ele>145.5</ele><time>2026-03-29T08:13:14Z</time></trkpt><trkpt lat="45.42237953398356" lon="10.487549569114318"><ele>146.25</ele><time>2026-03-29T08:13:15Z</time></trkpt><trkpt lat="45.42241244819859" lon="10.487743893189247"><ele>147.0</ele><time>2026-03-29T08:13:16Z</time></trkpt><trkpt lat="45.42245924876641" lon="10.487943532316423"><ele>147.75</ele><time>2026-03-29T08:13:17Z</time></trkpt><trkpt lat="45.42251857209377" lon="10.488089318938124"><ele>148.5</ele><time>2026-03-29T08:13:18Z</time></trkpt><trkpt lat="45.42258956811023" lon="10.488211914418539"><ele>149.25</ele><time>2026-03-29T08:13:19Z</time></trkpt><trkpt lat="45.422680120017404" lon="10.488325340650954"><ele>150.0</ele><time>2026-03-29T08:13:20Z</time></trkpt><trkpt lat="45.42280197868557" lon="10.488439186685682"><ele>150.0</ele><time>2026-03-29T08:13:21Z</time></trkpt><trkpt lat="45.422954825958655" lon="10.488563661368394"><ele>150.0</ele><time>2026-03-29T08:13:22Z</time></trkpt><trkpt lat="45.42312648133501" lon="10.488704072942644"><ele>150.0</ele><time>2026-03-29T08:13:23Z</time></trkpt><trkpt lat="45.423285725636184" lon="10.488867020770838"><ele>151.0</ele><time>2026-03-29T08:13:24Z</time></trkpt><trkpt lat="45.42345757630661" lon="10.488985461551906"><ele>152.0</ele><time>2026-03-29T08:13:25Z</time></trkpt><trkpt lat="45.42359301217758" lon="10.489095278218146"><ele>153.0</ele><time>2026-03-29T08:13:26Z</time></trkpt><trkpt lat="45.42371919686948" lon="10.489216464180373"><ele>153.0</ele><time>2026-03-29T08:13:27Z</time></trkpt><trkpt lat="45.423845861580226" lon="10.489395615946261"><ele>153.0</ele><time>2026-03-29T08:13:28Z</time></trkpt><trkpt lat="45.423967750127495" lon="10.489529616498205"><ele>153.0</ele><time>2026-03-29T08:13:29Z</time></trkpt><trkpt lat="45.42409678813384" lon="10.489712305969812"><ele>152.66666666666666</ele><time>2026-03-29T08:13:30Z</time></trkpt><trkpt lat="45.424225795091445" lon="10.489899739620807"><ele>152.33333333333331</ele><time>2026-03-29T08:13:31Z</time></trkpt><trkpt lat="45.4243658411281" lon="10.49006820515276"><ele>152.0</ele><time>2026-03-29T08:13:32Z</time></trkpt><trkpt lat="45.42449659780578" lon="10.490242086643194"><ele>152.0</ele><time>2026-03-29T08:13:33Z</time></trkpt><trkpt lat="45.424606721100794" lon="10.49041041043139"><ele>152.0</ele><time>2026-03-29T08:13:34Z</time></trkpt><trkpt lat="45.42472176261221" lon="10.490537083482256"><ele>152.0</ele><time>2026-03-29T08:13:35Z</time></trkpt><trkpt lat="45.424828110850626" lon="10.490654718404842"><ele>152.0</ele><time>2026-03-29T08:13:36Z</time></trkpt><trkpt lat="45.424896535293016" lon="10.490776224822204"><ele>152.2</ele><time>2026-03-29T08:13:37Z</time></trkpt><trkpt lat="45.42495047316814" lon="10.490887049398843"><ele>152.39999999999998</ele><time>2026-03-29T08:13:38Z</time></trkpt><trkpt lat="45.42499490031106" lon="10.491015236067488"><ele>152.60000000000002</ele><time>2026-03-29T08:13:39Z</time></trkpt><trkpt lat="45.4250183793667" lon="10.491145621653258"><ele>152.8</ele><time>2026-03-29T08:13:40Z</time></trkpt><trkpt lat="45.42502439638603" lon="10.491263996063749"><ele>153.0</ele><time>2026-03-29T08:13:41Z</time></trkpt><trkpt lat="45.425022195036405" lon="10.49139949130928"><ele>153.0</ele><time>2026-03-29T08:13:42Z</time></trkpt><trkpt lat="45.42502130146554" lon="10.491581520882091"><ele>153.0</ele><time>2026-03-29T08:13:43Z</time></trkpt><trkpt lat="45.42500865876142" lon="10.491756375498206"><ele>153.0</ele><time>2026-03-29T08:13:44Z</time></trkpt><trkpt lat="45.42500199776207" lon="10.49195574731947"><ele>153.0</ele><time>2026-03-29T08:13:45Z</time></trkpt><trkpt lat="45.4250104481877" lon="10.492143706242963"><ele>152.0</ele><time>2026-03-29T08:13:46Z</time></trkpt><trkpt lat="45.4250153551393" lon="10.492295334630889"><ele>151.0</ele><time>2026-03-29T08:13:47Z</time></trkpt><trkpt lat="45.42501607448855" lon="10.492430064008014"><ele>150.0</ele><time>2026-03-29T08:13:48Z</time></trkpt><trkpt lat="45.42502666107813" lon="10.4925527029119"><ele>149.0</ele><time>2026-03-29T08:13:49Z</time></trkpt><trkpt lat="45.425063186641516" lon="10.492656584790605"><ele>148.0</ele><time>2026-03-29T08:13:50Z</time></trkpt><trkpt lat="45.42511669633421" lon="10.492760037299604"><ele>148.0</ele><time>2026-03-29T08:13:51Z</time></trkpt><trkpt lat="45.42519196907997" lon="10.492848347577501"><ele>148.0</ele><time>2026-03-29T08:13:52Z</time></trkpt><trkpt lat="45.4252804844259" lon="10.492916189237627"><ele>148.0</ele><time>2026-03-29T08:13:53Z</time></trkpt><trkpt lat="45.42540083627857" lon="10.492994766054574"><ele>148.0</ele><time>2026-03-29T08:13:54Z</time></trkpt><trkpt lat="45.42554238182324" lon="10.493079065105599"><ele>147.0</ele><time>2026-03-29T08:13:55Z</time></trkpt><trkpt lat="45.42570074490469" lon="10.493167680052935"><ele>146.0</ele><time>2026-03-29T08:13:56Z</time></trkpt><trkpt lat="45.42585382256947" lon="10.493268441249334"><ele>145.0</ele><time>2026-03-29T08:13:57Z</time></trkpt><trkpt lat="45.426003877004455" lon="10.493360065758365"><ele>145.0</ele><time>2026-03-29T08:13:58Z</time></trkpt><trkpt lat="45.426165889146226" lon="10.493450775709006"><ele>145.0</ele><time>2026-03-29T08:13:59Z</time></trkpt><trkpt lat="45.426339311348485" lon="10.493569989564959"><ele>145.0</ele><time>2026-03-29T08:14:00Z</time></trkpt><trkpt lat="45.42651100326864" lon="10.49367763970125"><ele>144.25</ele><time>2026-03-29T08:14:01Z</time></trkpt><trkpt lat="45.426661034158016" lon="10.49380568653069"><ele>143.5</ele><time>2026-03-29T08:14:02Z</time></trkpt><trkpt lat="45.42677496166244" lon="10.493916107296666"><ele>142.75</ele><time>2026-03-29T08:14:03Z</time></trkpt><trkpt lat="45.426884496659824" lon="10.494009028236505"><ele>142.0</ele><time>2026-03-29T08:14:04Z</time></trkpt><trkpt lat="45.42697448003565" lon="10.494077095476054"><ele>142.0</ele><time>2026-03-29T08:14:05Z</time></trkpt><trkpt lat="45.427058007302364" lon="10.49412537838069"><ele>142.0</ele><time>2026-03-29T08:14:06Z</time></trkpt><trkpt lat="45.42713600750427" lon="10.494137634782161"><ele>142.0</ele><time>2026-03-29T08:14:07Z</time></trkpt><trkpt lat="45.42723138154165" lon="10.49412385241535"><ele>142.0</ele><time>2026-03-29T08:14:08Z</time></trkpt><trkpt lat="45.42735877900989" lon="10.494102246399933"><ele>142.0</ele><time>2026-03-29T08:14:09Z</time></trkpt><trkpt lat="45.42749786520498" lon="10.494081106969055"><ele>143.0</ele><time>2026-03-29T08:14:10Z</time></trkpt><trkpt lat="45.427647080687095" lon="10.494060207864605"><ele>144.0</ele><time>2026-03-29T08:14:11Z</time></trkpt><trkpt lat="45.42780503944468" lon="10.494032046186947"><ele>145.0</ele><time>2026-03-29T08:14:12Z</time></trkpt><trkpt lat="45.42797736581621" lon="10.494027269464405"><ele>145.75</ele><time>2026-03-29T08:14:13Z</time></trkpt><trkpt lat="45.4281381843531" lon="10.49401783294585"><ele>146.5</ele><time>2026-03-29T08:14:14Z</time></trkpt><trkpt lat="45.4282671891995" lon="10.494071048972048"><ele>147.25</ele><time>2026-03-29T08:14:15Z</time></trkpt><trkpt lat="45.42838897351755" lon="10.494133108865116"><ele>148.0</ele><time>2026-03-29T08:14:16Z</time></trkpt><trkpt lat="45.42853469807488" lon="10.494197632282994"><ele>148.0</ele><time>2026-03-29T08:14:17Z</time></trkpt><trkpt lat="45.428685284251124" lon="10.494296714085786"><ele>148.0</ele><time>2026-03-29T08:14:18Z</time></trkpt><trkpt lat="45.42885601271078" lon="10.494405193066934"><ele>148.0</ele><time>2026-03-29T08:14:19Z</time></trkpt><trkpt lat="45.429026272728144" lon="10.494500097651105"><ele>146.66666666666669</ele><time>2026-03-29T08:14:20Z</time></trkpt><trkpt lat="45.42920231013277" lon="10.494593824971965"><ele>145.33333333333334</ele><time>2026-03-29T08:14:21Z</time></trkpt><trkpt lat="45.42935278361402" lon="10.49467963391679"><ele>144.0</ele><time>2026-03-29T08:14:22Z</time></trkpt><trkpt lat="45.429486407593316" lon="10.494768527637666"><ele>144.0</ele><time>2026-03-29T08:14:23Z</time></trkpt><trkpt lat="45.429624474643944" lon="10.494886139054092"><ele>144.0</ele><time>2026-03-29T08:14:24Z</time></trkpt><trkpt lat="45.42976509308421" lon="10.495030389060581"><ele>144.0</ele><time>2026-03-29T08:14:25Z</time></trkpt><trkpt lat="45.42989013916222" lon="10.495183948309732"><ele>145.5</ele><time>2026-03-29T08:14:26Z</time></trkpt><trkpt lat="45.43000680681564" lon="10.495324734038551"><ele>147.0</ele><time>2026-03-29T08:14:27Z</time></trkpt><trkpt lat="45.43010488635127" lon="10.49544989874485"><ele>148.5</ele><time>2026-03-29T08:14:28Z</time></trkpt><trkpt lat="45.430192791996596" lon="10.495598408786051"><ele>150.0</ele><time>2026-03-29T08:14:29Z</time></trkpt><trkpt lat="45.43026720636589" lon="10.495775852635528"><ele>150.0</ele><time>2026-03-29T08:14:30Z</time></trkpt><trkpt lat="45.4303276801729" lon="10.495961471158035"><ele>150.0</ele><time>2026-03-29T08:14:31Z</time></trkpt><trkpt lat="45.4303916767124" lon="10.496122946576234"><ele>150.0</ele><time>2026-03-29T08:14:32Z</time></trkpt><trkpt lat="45.43047535375842" lon="10.49628540564398"><ele>150.0</ele><time>2026-03-29T08:14:33Z</time></trkpt><trkpt lat="45.43057169636169" lon="10.496429014077009"><ele>152.0</ele><time>2026-03-29T08:14:34Z</time></trkpt><trkpt lat="45.430671977350805" lon="10.496544699998818"><ele>154.0</ele><time>2026-03-29T08:14:35Z</time></trkpt><trkpt lat="45.430782066531535" lon="10.496660228118662"><ele>156.0</ele><time>2026-03-29T08:14:36Z</time></trkpt><trkpt lat="45.43089606630407" lon="10.496757622776151"><ele>158.0</ele><time>2026-03-29T08:14:37Z</time></trkpt><trkpt lat="45.43103029240732" lon="10.49686354410073"><ele>158.0</ele><time>2026-03-29T08:14:38Z</time></trkpt><trkpt lat="45.43115223217265" lon="10.496965927699506"><ele>158.0</ele><time>2026-03-29T08:14:39Z</time></trkpt><trkpt lat="45.4312479417765" lon="10.497060052832028"><ele>158.0</ele><time>2026-03-29T08:14:40Z</time></trkpt><trkpt lat="45.43131593552205" lon="10.49718598743423"><ele>158.0</ele><time>2026-03-29T08:14:41Z</time></trkpt><trkpt lat="45.431421862414005" lon="10.497258991782594"><ele>157.33333333333331</ele><time>2026-03-29T08:14:42Z</time></trkpt><trkpt lat="45.43143691223062" lon="10.497480763740853"><ele>156.66666666666666</ele><time>2026-03-29T08:14:43Z</time></trkpt><trkpt lat="45.431519635068014" lon="10.497652805632729"><ele>156.0</ele><time>2026-03-29T08:14:44Z</time></trkpt><trkpt lat="45.4315759703977" lon="10.497871441516684"><ele>154.5</ele><time>2026-03-29T08:14:45Z</time></trkpt><trkpt lat="45.43164849112962" lon="10.498070667875467"><ele>153.0</ele><time>2026-03-29T08:14:46Z</time></trkpt><trkpt lat="45.43170084578543" lon="10.498266019139379"><ele>151.5</ele><time>2026-03-29T08:14:47Z</time></trkpt><trkpt lat="45.43173463499165" lon="10.498452456019168"><ele>150.0</ele><time>2026-03-29T08:14:48Z</time></trkpt><trkpt lat="45.43174368257589" lon="10.498625784192512"><ele>150.0</ele><time>2026-03-29T08:14:49Z</time></trkpt><trkpt lat="45.43172792631822" lon="10.498821621624245"><ele>150.0</ele><time>2026-03-29T08:14:50Z</time></trkpt><trkpt lat="45.431705594741565" lon="10.499043802429794"><ele>150.0</ele><time>2026-03-29T08:14:51Z</time></trkpt><trkpt lat="45.43167706038552" lon="10.499275356071212"><ele>150.0</ele><time>2026-03-29T08:14:52Z</time></trkpt><trkpt lat="45.4316443224714" lon="10.499489745622288"><ele>150.0</ele><time>2026-03-29T08:14:53Z</time></trkpt><trkpt lat="45.43160980202924" lon="10.49969879105927"><ele>150.0</ele><time>2026-03-29T08:14:54Z</time></trkpt><trkpt lat="45.43157397628419" lon="10.499901507550451"><ele>150.0</ele><time>2026-03-29T08:14:55Z</time></trkpt><trkpt lat="45.43154404643165" lon="10.500104935123332"><ele>150.0</ele><time>2026-03-29T08:14:56Z</time></trkpt><trkpt lat="45.43151258795836" lon="10.50029802818578"><ele>150.0</ele><time>2026-03-29T08:14:57Z</time></trkpt><trkpt lat="45.43147461714811" lon="10.500503498675371"><ele>150.0</ele><time>2026-03-29T08:14:58Z</time></trkpt><trkpt lat="45.4314377876429" lon="10.500705576629237"><ele>149.5</ele><time>2026-03-29T08:14:59Z</time></trkpt><trkpt lat="45.43140056642895" lon="10.500900723672029"><ele>149.0</ele><time>2026-03-29T08:15:00Z</time></trkpt><trkpt lat="45.431364772615275" lon="10.501090484734704"><ele>148.5</ele><time>2026-03-29T08:15:01Z</time></trkpt><trkpt lat="45.43132708135018" lon="10.501282524384418"><ele>148.0</ele><time>2026-03-29T08:15:02Z</time></trkpt><trkpt lat="45.43130320446888" lon="10.501453885352769"><ele>147.83333333333334</ele><time>2026-03-29T08:15:03Z</time></trkpt><trkpt lat="45.43127704911057" lon="10.50160426837422"><ele>147.66666666666669</ele><time>2026-03-29T08:15:04Z</time></trkpt><trkpt lat="45.43125425047644" lon="10.501743166260827"><ele>147.5</ele><time>2026-03-29T08:15:05Z</time></trkpt><trkpt lat="45.431238054859556" lon="10.501852103682326"><ele>147.33333333333334</ele><time>2026-03-29T08:15:06Z</time></trkpt><trkpt lat="45.431204936886786" lon="10.501940149448329"><ele>147.16666666666666</ele><time>2026-03-29T08:15:07Z</time></trkpt><trkpt lat="45.43115402873355" lon="10.502031994112365"><ele>147.0</ele><time>2026-03-29T08:15:09Z</time></trkpt><trkpt lat="45.431051593504385" lon="10.50194327491024"><ele>147.0</ele><time>2026-03-29T08:15:11Z</time></trkpt><trkpt lat="45.431007261938234" lon="10.501879496847677"><ele>147.0</ele><time>2026-03-29T08:15:12Z</time></trkpt><trkpt lat="45.43092749419143" lon="10.501789870785293"><ele>147.0</ele><time>2026-03-29T08:15:13Z</time></trkpt><trkpt lat="45.43084376592123" lon="10.501698159389678"><ele>147.0</ele><time>2026-03-29T08:15:14Z</time></trkpt><trkpt lat="45.43073300698662" lon="10.501587590355637"><ele>147.0</ele><time>2026-03-29T08:15:15Z</time></trkpt><trkpt lat="45.430609039966676" lon="10.501468989349627"><ele>147.0</ele><time>2026-03-29T08:15:16Z</time></trkpt><trkpt lat="45.43048857546484" lon="10.501346941465668"><ele>147.0</ele><time>2026-03-29T08:15:17Z</time></trkpt><trkpt lat="45.430376421666644" lon="10.501231929328217"><ele>147.0</ele><time>2026-03-29T08:15:18Z</time></trkpt><trkpt lat="45.430269278786035" lon="10.501124847102394"><ele>147.0</ele><time>2026-03-29T08:15:19Z</time></trkpt><trkpt lat="45.430169848469866" lon="10.501029901454569"><ele>146.6</ele><time>2026-03-29T08:15:20Z</time></trkpt><trkpt lat="45.43008488402134" lon="10.500946540481838"><ele>146.2</ele><time>2026-03-29T08:15:21Z</time></trkpt><trkpt lat="45.43000700375053" lon="10.500869036353047"><ele>145.8</ele><time>2026-03-29T08:15:22Z</time></trkpt><trkpt lat="45.4299420607104" lon="10.500804406826504"><ele>145.4</ele><time>2026-03-29T08:15:23Z</time></trkpt><trkpt lat="45.42984303247602" lon="10.500707722712932"><ele>145.0</ele><time>2026-03-29T08:15:25Z</time></trkpt><trkpt lat="45.42969418514397" lon="10.500819301503595"><ele>146.25</ele><time>2026-03-29T08:15:28Z</time></trkpt><trkpt lat="45.42960836713568" lon="10.500987326377592"><ele>147.5</ele><time>2026-03-29T08:15:30Z</time></trkpt><trkpt lat="45.42955040596255" lon="10.501109022534944"><ele>148.75</ele><time>2026-03-29T08:15:31Z</time></trkpt><trkpt lat="45.42947889340806" lon="10.501227142668744"><ele>150.0</ele><time>2026-03-29T08:15:32Z</time></trkpt><trkpt lat="45.429403981069676" lon="10.501340365189252"><ele>150.25</ele><time>2026-03-29T08:15:33Z</time></trkpt><trkpt lat="45.42931540156197" lon="10.50147037550506"><ele>150.5</ele><time>2026-03-29T08:15:34Z</time></trkpt><trkpt lat="45.429238227128636" lon="10.501606707667632"><ele>150.75</ele><time>2026-03-29T08:15:35Z</time></trkpt><trkpt lat="45.42915963196246" lon="10.501703178769027"><ele>151.0</ele><time>2026-03-29T08:15:36Z</time></trkpt><trkpt lat="45.42908987316476" lon="10.501802355427051"><ele>151.0</ele><time>2026-03-29T08:15:37Z</time></trkpt><trkpt lat="45.429049281806755" lon="10.501907430770796"><ele>151.0</ele><time>2026-03-29T08:15:38Z</time></trkpt><trkpt lat="45.4290183521184" lon="10.502021331628702"><ele>151.0</ele><time>2026-03-29T08:15:39Z</time></trkpt><trkpt lat="45.428988723917854" lon="10.50216187204054"><ele>151.0</ele><time>2026-03-29T08:15:40Z</time></trkpt><trkpt lat="45.42894235337784" lon="10.502291950314495"><ele>151.0</ele><time>2026-03-29T08:15:41Z</time></trkpt><trkpt lat="45.42889954099875" lon="10.502438065483366"><ele>151.2</ele><time>2026-03-29T08:15:42Z</time></trkpt><trkpt lat="45.428858424014784" lon="10.502574778395385"><ele>151.39999999999998</ele><time>2026-03-29T08:15:43Z</time></trkpt><trkpt lat="45.428799084620834" lon="10.502700899507104"><ele>151.6</ele><time>2026-03-29T08:15:44Z</time></trkpt><trkpt lat="45.428764413104304" lon="10.50281743733936"><ele>151.79999999999998</ele><time>2026-03-29T08:15:45Z</time></trkpt><trkpt lat="45.42871748347219" lon="10.502920997685635"><ele>152.0</ele><time>2026-03-29T08:15:46Z</time></trkpt><trkpt lat="45.428675682214" lon="10.502998828777859"><ele>151.66666666666666</ele><time>2026-03-29T08:15:47Z</time></trkpt><trkpt lat="45.42860402507078" lon="10.503045577826054"><ele>151.33333333333331</ele><time>2026-03-29T08:15:48Z</time></trkpt><trkpt lat="45.428528750516" lon="10.503089177436946"><ele>151.0</ele><time>2026-03-29T08:15:49Z</time></trkpt><trkpt lat="45.42846021571779" lon="10.503129588799759"><ele>150.66666666666666</ele><time>2026-03-29T08:15:50Z</time></trkpt><trkpt lat="45.4283847525466" lon="10.50317070265223"><ele>150.33333333333334</ele><time>2026-03-29T08:15:51Z</time></trkpt><trkpt lat="45.42833168732207" lon="10.503238288859093"><ele>150.0</ele><time>2026-03-29T08:15:52Z</time></trkpt><trkpt lat="45.42826951222271" lon="10.503294429769937"><ele>150.0</ele><time>2026-03-29T08:15:53Z</time></trkpt><trkpt lat="45.42821764435802" lon="10.503366639808409"><ele>150.0</ele><time>2026-03-29T08:15:54Z</time></trkpt><trkpt lat="45.4281711853666" lon="10.503452334430035"><ele>150.0</ele><time>2026-03-29T08:15:55Z</time></trkpt><trkpt lat="45.42812848537035" lon="10.5035524337776"><ele>150.0</ele><time>2026-03-29T08:15:56Z</time></trkpt><trkpt lat="45.42807756306981" lon="10.503657884138006"><ele>150.0</ele><time>2026-03-29T08:15:57Z</time></trkpt><trkpt lat="45.42802406402067" lon="10.503735595659087"><ele>150.0</ele><time>2026-03-29T08:15:58Z</time></trkpt><trkpt lat="45.42795379580251" lon="10.503801431316218"><ele>147.25</ele><time>2026-03-29T08:15:59Z</time></trkpt><trkpt lat="45.42785314410633" lon="10.503787822187515"><ele>144.5</ele><time>2026-03-29T08:16:00Z</time></trkpt><trkpt lat="45.42775786472878" lon="10.503841020408071"><ele>141.75</ele><time>2026-03-29T08:16:01Z</time></trkpt><trkpt lat="45.42763106348936" lon="10.503931322421847"><ele>139.0</ele><time>2026-03-29T08:16:02Z</time></trkpt><trkpt lat="45.42752814016469" lon="10.504033255867252"><ele>139.0</ele><time>2026-03-29T08:16:03Z</time></trkpt><trkpt lat="45.42745141077581" lon="10.504094981910262"><ele>139.0</ele><time>2026-03-29T08:16:04Z</time></trkpt><trkpt lat="45.4273695902896" lon="10.504155630132518"><ele>139.0</ele><time>2026-03-29T08:16:05Z</time></trkpt><trkpt lat="45.427262329704256" lon="10.50415961506169"><ele>139.0</ele><time>2026-03-29T08:16:06Z</time></trkpt><trkpt lat="45.42716288067419" lon="10.504161368903995"><ele>139.0</ele><time>2026-03-29T08:16:07Z</time></trkpt><trkpt lat="45.427066964526155" lon="10.504153436291249"><ele>139.16666666666669</ele><time>2026-03-29T08:16:08Z</time></trkpt><trkpt lat="45.426975709124875" lon="10.504131685365762"><ele>139.33333333333334</ele><time>2026-03-29T08:16:09Z</time></trkpt><trkpt lat="45.42688991839183" lon="10.504123712535671"><ele>139.5</ele><time>2026-03-29T08:16:10Z</time></trkpt><trkpt lat="45.42680424243476" lon="10.504112520041089"><ele>139.66666666666666</ele><time>2026-03-29T08:16:11Z</time></trkpt><trkpt lat="45.42673957977212" lon="10.504124319964689"><ele>139.83333333333331</ele><time>2026-03-29T08:16:12Z</time></trkpt><trkpt lat="45.4266479584604" lon="10.504126626097404"><ele>140.0</ele><time>2026-03-29T08:16:13Z</time></trkpt><trkpt lat="45.42657166056831" lon="10.504140454051456"><ele>140.0</ele><time>2026-03-29T08:16:14Z</time></trkpt><trkpt lat="45.42649349597094" lon="10.504173229481458"><ele>140.0</ele><time>2026-03-29T08:16:15Z</time></trkpt><trkpt lat="45.426411688412955" lon="10.504227283321303"><ele>140.0</ele><time>2026-03-29T08:16:16Z</time></trkpt><trkpt lat="45.426326251412824" lon="10.504302204860481"><ele>140.0</ele><time>2026-03-29T08:16:17Z</time></trkpt><trkpt lat="45.426224849379864" lon="10.504412347527284"><ele>140.0</ele><time>2026-03-29T08:16:18Z</time></trkpt><trkpt lat="45.42612519160493" lon="10.504510978019889"><ele>139.66666666666666</ele><time>2026-03-29T08:16:19Z</time></trkpt><trkpt lat="45.4260281294256" lon="10.504574533962886"><ele>139.33333333333331</ele><time>2026-03-29T08:16:20Z</time></trkpt><trkpt lat="45.425948627781054" lon="10.504647647415338"><ele>139.0</ele><time>2026-03-29T08:16:21Z</time></trkpt><trkpt lat="45.42586576682746" lon="10.504715952316309"><ele>138.66666666666666</ele><time>2026-03-29T08:16:22Z</time></trkpt><trkpt lat="45.42579560153688" lon="10.504770572261155"><ele>138.33333333333334</ele><time>2026-03-29T08:16:23Z</time></trkpt><trkpt lat="45.425742859922714" lon="10.50483923073668"><ele>138.0</ele><time>2026-03-29T08:16:24Z</time></trkpt><trkpt lat="45.42567520298831" lon="10.504891083081768"><ele>136.5</ele><time>2026-03-29T08:16:25Z</time></trkpt><trkpt lat="45.42560263859867" lon="10.504980439717018"><ele>135.0</ele><time>2026-03-29T08:16:27Z</time></trkpt><trkpt lat="45.425660780728656" lon="10.505029101439726"><ele>133.5</ele><time>2026-03-29T08:16:33Z</time></trkpt><trkpt lat="45.42572820723874" lon="10.505001071039803"><ele>132.0</ele><time>2026-03-29T08:16:34Z</time></trkpt><trkpt lat="45.42582076224264" lon="10.505000208344415"><ele>130.5</ele><time>2026-03-29T08:16:35Z</time></trkpt><trkpt lat="45.42591583066157" lon="10.50497656057704"><ele>129.0</ele><time>2026-03-29T08:16:36Z</time></trkpt><trkpt lat="45.42601997341928" lon="10.5049521968265"><ele>129.0</ele><time>2026-03-29T08:16:37Z</time></trkpt><trkpt lat="45.42614080646141" lon="10.504922973372002"><ele>129.0</ele><time>2026-03-29T08:16:38Z</time></trkpt><trkpt lat="45.42626535693077" lon="10.504869477631377"><ele>129.0</ele><time>2026-03-29T08:16:39Z</time></trkpt><trkpt lat="45.42638824527413" lon="10.504802002478133"><ele>129.0</ele><time>2026-03-29T08:16:40Z</time></trkpt><trkpt lat="45.42649499707032" lon="10.504763654485457"><ele>128.75</ele><time>2026-03-29T08:16:41Z</time></trkpt><trkpt lat="45.42661207629185" lon="10.504724971866752"><ele>128.5</ele><time>2026-03-29T08:16:42Z</time></trkpt><trkpt lat="45.42674586305168" lon="10.504716052283063"><ele>128.25</ele><time>2026-03-29T08:16:43Z</time></trkpt><trkpt lat="45.42689338357642" lon="10.504705784132023"><ele>128.0</ele><time>2026-03-29T08:16:44Z</time></trkpt><trkpt lat="45.42703744010359" lon="10.504719465548023"><ele>128.5</ele><time>2026-03-29T08:16:45Z</time></trkpt><trkpt lat="45.427197131086714" lon="10.504721923032415"><ele>129.0</ele><time>2026-03-29T08:16:46Z</time></trkpt><trkpt lat="45.42733837119856" lon="10.50472067902994"><ele>129.5</ele><time>2026-03-29T08:16:47Z</time></trkpt><trkpt lat="45.42747499607007" lon="10.504743738938336"><ele>130.0</ele><time>2026-03-29T08:16:48Z</time></trkpt><trkpt lat="45.42760891329235" lon="10.504828153506235"><ele>130.0</ele><time>2026-03-29T08:16:49Z</time></trkpt><trkpt lat="45.42777286081257" lon="10.504890239281892"><ele>130.0</ele><time>2026-03-29T08:16:50Z</time></trkpt><trkpt lat="45.42794005459068" lon="10.504978043704313"><ele>130.0</ele><time>2026-03-29T08:16:51Z</time></trkpt><trkpt lat="45.428118205051184" lon="10.50506960963257"><ele>131.33333333333334</ele><time>2026-03-29T08:16:52Z</time></trkpt><trkpt lat="45.428288280870845" lon="10.505152988812632"><ele>132.66666666666666</ele><time>2026-03-29T08:16:53Z</time></trkpt><trkpt lat="45.428438935277555" lon="10.505222685942345"><ele>134.0</ele><time>2026-03-29T08:16:54Z</time></trkpt><trkpt lat="45.4285936970491" lon="10.505293798439554"><ele>134.0</ele><time>2026-03-29T08:16:55Z</time></trkpt><trkpt lat="45.42875037349133" lon="10.505351154328396"><ele>134.0</ele><time>2026-03-29T08:16:56Z</time></trkpt><trkpt lat="45.42891617540213" lon="10.50541566033691"><ele>134.0</ele><time>2026-03-29T08:16:57Z</time></trkpt><trkpt lat="45.42908339778501" lon="10.505507653367927"><ele>133.33333333333331</ele><time>2026-03-29T08:16:58Z</time></trkpt><trkpt lat="45.42926278323425" lon="10.505593095722586"><ele>132.66666666666666</ele><time>2026-03-29T08:16:59Z</time></trkpt><trkpt lat="45.42944154044311" lon="10.505653393924739"><ele>132.0</ele><time>2026-03-29T08:17:00Z</time></trkpt><trkpt lat="45.42959554741545" lon="10.505738606837037"><ele>133.5</ele><time>2026-03-29T08:17:01Z</time></trkpt><trkpt lat="45.42972502531799" lon="10.505866640667826"><ele>135.0</ele><time>2026-03-29T08:17:02Z</time></trkpt><trkpt lat="45.42984598290755" lon="10.50596262410358"><ele>136.5</ele><time>2026-03-29T08:17:03Z</time></trkpt><trkpt lat="45.429965521058705" lon="10.506077859054328"><ele>138.0</ele><time>2026-03-29T08:17:04Z</time></trkpt><trkpt lat="45.430108114866194" lon="10.506165363773388"><ele>138.0</ele><time>2026-03-29T08:17:05Z</time></trkpt><trkpt lat="45.43026279135813" lon="10.506235735965575"><ele>138.0</ele><time>2026-03-29T08:17:06Z</time></trkpt><trkpt lat="45.43040664237695" lon="10.506282529127802"><ele>138.0</ele><time>2026-03-29T08:17:07Z</time></trkpt><trkpt lat="45.43055259595696" lon="10.50629985412036"><ele>137.0</ele><time>2026-03-29T08:17:08Z</time></trkpt><trkpt lat="45.43070440268799" lon="10.506298328475857"><ele>136.0</ele><time>2026-03-29T08:17:09Z</time></trkpt><trkpt lat="45.43085588830649" lon="10.506298402968563"><ele>135.0</ele><time>2026-03-29T08:17:10Z</time></trkpt><trkpt lat="45.431021338419875" lon="10.506300429309983"><ele>135.0</ele><time>2026-03-29T08:17:11Z</time></trkpt><trkpt lat="45.431197726203486" lon="10.50635642545327"><ele>135.0</ele><time>2026-03-29T08:17:12Z</time></trkpt><trkpt lat="45.43136302542344" lon="10.50638775208384"><ele>135.0</ele><time>2026-03-29T08:17:13Z</time></trkpt><trkpt lat="45.43149289643352" lon="10.506411482133759"><ele>135.6</ele><time>2026-03-29T08:17:14Z</time></trkpt><trkpt lat="45.43161160703402" lon="10.506429978671925"><ele>136.2</ele><time>2026-03-29T08:17:15Z</time></trkpt><trkpt lat="45.431708572997344" lon="10.506441768854994"><ele>136.8</ele><time>2026-03-29T08:17:16Z</time></trkpt><trkpt lat="45.43178794644629" lon="10.506432062930799"><ele>137.4</ele><time>2026-03-29T08:17:17Z</time></trkpt><trkpt lat="45.43187931601639" lon="10.506502285640435"><ele>138.0</ele><time>2026-03-29T08:17:19Z</time></trkpt><trkpt lat="45.43184658866881" lon="10.506651235653463"><ele>138.0</ele><time>2026-03-29T08:17:21Z</time></trkpt><trkpt lat="45.43180035996476" lon="10.506755137674373"><ele>138.0</ele><time>2026-03-29T08:17:22Z</time></trkpt><trkpt lat="45.43173624670767" lon="10.506899236762282"><ele>138.0</ele><time>2026-03-29T08:17:23Z</time></trkpt><trkpt lat="45.431661957286344" lon="10.507074873374236"><ele>138.0</ele><time>2026-03-29T08:17:24Z</time></trkpt><trkpt lat="45.4315285223287" lon="10.507254744396107"><ele>139.0</ele><time>2026-03-29T08:17:25Z</time></trkpt><trkpt lat="45.43136297262831" lon="10.507331724163812"><ele>140.0</ele><time>2026-03-29T08:17:26Z</time></trkpt><trkpt lat="45.43118084430596" lon="10.507430641555047"><ele>141.0</ele><time>2026-03-29T08:17:27Z</time></trkpt><trkpt lat="45.4309933678387" lon="10.507561154190766"><ele>138.66666666666666</ele><time>2026-03-29T08:17:28Z</time></trkpt><trkpt lat="45.43081947547613" lon="10.507700967047834"><ele>136.33333333333331</ele><time>2026-03-29T08:17:29Z</time></trkpt><trkpt lat="45.43064791764196" lon="10.50787137883273"><ele>134.0</ele><time>2026-03-29T08:17:30Z</time></trkpt><trkpt lat="45.43047765819822" lon="10.508063109418844"><ele>132.0</ele><time>2026-03-29T08:17:31Z</time></trkpt><trkpt lat="45.4303196762107" lon="10.508227606765416"><ele>130.0</ele><time>2026-03-29T08:17:32Z</time></trkpt><trkpt lat="45.430164688746444" lon="10.508372570855284"><ele>128.0</ele><time>2026-03-29T08:17:33Z</time></trkpt><trkpt lat="45.43001884191358" lon="10.508524199115236"><ele>128.0</ele><time>2026-03-29T08:17:34Z</time></trkpt><trkpt lat="45.42987402155848" lon="10.508704101416548"><ele>128.0</ele><time>2026-03-29T08:17:35Z</time></trkpt><trkpt lat="45.42973833749229" lon="10.508918186571098"><ele>128.0</ele><time>2026-03-29T08:17:36Z</time></trkpt><trkpt lat="45.42961041082683" lon="10.50916870472642"><ele>126.5</ele><time>2026-03-29T08:17:37Z</time></trkpt><trkpt lat="45.42948150010331" lon="10.509448577534723"><ele>125.0</ele><time>2026-03-29T08:17:38Z</time></trkpt><trkpt lat="45.42934935281243" lon="10.509728232327253"><ele>124.66666666666666</ele><time>2026-03-29T08:17:39Z</time></trkpt><trkpt lat="45.42922710734441" lon="10.50999166452327"><ele>124.33333333333334</ele><time>2026-03-29T08:17:40Z</time></trkpt><trkpt lat="45.429112337160944" lon="10.510239143531553"><ele>124.0</ele><time>2026-03-29T08:17:41Z</time></trkpt><trkpt lat="45.428993148956664" lon="10.510480401058253"><ele>123.66666666666667</ele><time>2026-03-29T08:17:42Z</time></trkpt><trkpt lat="45.42888615744635" lon="10.510698185875716"><ele>123.33333333333334</ele><time>2026-03-29T08:17:43Z</time></trkpt><trkpt lat="45.42879006804856" lon="10.510907099548213"><ele>123.0</ele><time>2026-03-29T08:17:44Z</time></trkpt><trkpt lat="45.42870089680187" lon="10.511091891724993"><ele>122.0</ele><time>2026-03-29T08:17:45Z</time></trkpt><trkpt lat="45.42861383176223" lon="10.511276058747963"><ele>121.0</ele><time>2026-03-29T08:17:46Z</time></trkpt><trkpt lat="45.42851637127935" lon="10.511478741059106"><ele>120.0</ele><time>2026-03-29T08:17:47Z</time></trkpt><trkpt lat="45.428421840654714" lon="10.511681985746955"><ele>120.0</ele><time>2026-03-29T08:17:48Z</time></trkpt><trkpt lat="45.42832905082057" lon="10.511886329478603"><ele>120.0</ele><time>2026-03-29T08:17:49Z</time></trkpt><trkpt lat="45.42823292999892" lon="10.512098598974582"><ele>120.0</ele><time>2026-03-29T08:17:50Z</time></trkpt><trkpt lat="45.42814656328816" lon="10.512299454658065"><ele>120.0</ele><time>2026-03-29T08:17:51Z</time></trkpt><trkpt lat="45.4280727496982" lon="10.512495794380865"><ele>120.0</ele><time>2026-03-29T08:17:52Z</time></trkpt><trkpt lat="45.42800039822602" lon="10.512683173971133"><ele>120.0</ele><time>2026-03-29T08:17:53Z</time></trkpt><trkpt lat="45.427940639019354" lon="10.512836190182343"><ele>120.0</ele><time>2026-03-29T08:17:54Z</time></trkpt><trkpt lat="45.427889327723854" lon="10.512966164695177"><ele>120.0</ele><time>2026-03-29T08:17:55Z</time></trkpt><trkpt lat="45.427839354323815" lon="10.51307303478122"><ele>120.0</ele><time>2026-03-29T08:17:56Z</time></trkpt><trkpt lat="45.42779239196978" lon="10.513166646037089"><ele>120.0</ele><time>2026-03-29T08:17:57Z</time></trkpt><trkpt lat="45.42775784147497" lon="10.513252184451854"><ele>120.0</ele><time>2026-03-29T08:17:58Z</time></trkpt><trkpt lat="45.42771587697679" lon="10.513332668921882"><ele>120.0</ele><time>2026-03-29T08:17:59Z</time></trkpt><trkpt lat="45.4276844960349" lon="10.513435840661197"><ele>120.0</ele><time>2026-03-29T08:18:02Z</time></trkpt><trkpt lat="45.42773174192713" lon="10.51336945719568"><ele>120.0</ele><time>2026-03-29T08:18:05Z</time></trkpt><trkpt lat="45.42776455655368" lon="10.513278760738254"><ele>120.0</ele><time>2026-03-29T08:18:06Z</time></trkpt><trkpt lat="45.427831519168436" lon="10.513130037776785"><ele>120.0</ele><time>2026-03-29T08:18:07Z</time></trkpt><trkpt lat="45.42788406507187" lon="10.512986411605066"><ele>120.0</ele><time>2026-03-29T08:18:08Z</time></trkpt><trkpt lat="45.42793914014371" lon="10.512836191725636"><ele>120.0</ele><time>2026-03-29T08:18:09Z</time></trkpt><trkpt lat="45.428011643995866" lon="10.512674218264195"><ele>121.0</ele><time>2026-03-29T08:18:10Z</time></trkpt><trkpt lat="45.42809297772873" lon="10.51248811953711"><ele>122.0</ele><time>2026-03-29T08:18:11Z</time></trkpt><trkpt lat="45.42817131799035" lon="10.512303774034088"><ele>123.0</ele><time>2026-03-29T08:18:12Z</time></trkpt><trkpt lat="45.42824996715604" lon="10.512115858381046"><ele>122.25</ele><time>2026-03-29T08:18:13Z</time></trkpt><trkpt lat="45.42833908845206" lon="10.511953413309438"><ele>121.5</ele><time>2026-03-29T08:18:14Z</time></trkpt><trkpt lat="45.42842282516097" lon="10.511809437695247"><ele>120.75</ele><time>2026-03-29T08:18:15Z</time></trkpt><trkpt lat="45.42848748586851" lon="10.511661274072791"><ele>120.0</ele><time>2026-03-29T08:18:16Z</time></trkpt><trkpt lat="45.42854202049831" lon="10.511520302873535"><ele>120.0</ele><time>2026-03-29T08:18:17Z</time></trkpt><trkpt lat="45.42859752889264" lon="10.51141003620349"><ele>120.0</ele><time>2026-03-29T08:18:18Z</time></trkpt><trkpt lat="45.428656648677816" lon="10.511338764541149"><ele>120.0</ele><time>2026-03-29T08:18:19Z</time></trkpt><trkpt lat="45.42876815477907" lon="10.51125801391409"><ele>120.0</ele><time>2026-03-29T08:18:21Z</time></trkpt><trkpt lat="45.42878722370148" lon="10.511517751306945"><ele>120.0</ele><time>2026-03-29T08:18:23Z</time></trkpt><trkpt lat="45.428762556975464" lon="10.511629257488824"><ele>120.0</ele><time>2026-03-29T08:18:24Z</time></trkpt><trkpt lat="45.42872113802811" lon="10.511788370627231"><ele>120.0</ele><time>2026-03-29T08:18:25Z</time></trkpt><trkpt lat="45.42869542369416" lon="10.511936445302155"><ele>120.0</ele><time>2026-03-29T08:18:26Z</time></trkpt><trkpt lat="45.42866885523303" lon="10.512109616036584"><ele>120.0</ele><time>2026-03-29T08:18:27Z</time></trkpt><trkpt lat="45.42863849082974" lon="10.512286437743342"><ele>120.75</ele><time>2026-03-29T08:18:28Z</time></trkpt><trkpt lat="45.4286085876823" lon="10.512461902384562"><ele>121.5</ele><time>2026-03-29T08:18:29Z</time></trkpt><trkpt lat="45.42858050898008" lon="10.512658580545404"><ele>122.25</ele><time>2026-03-29T08:18:30Z</time></trkpt><trkpt lat="45.42855169881126" lon="10.512862847532551"><ele>123.0</ele><time>2026-03-29T08:18:31Z</time></trkpt><trkpt lat="45.42851840487428" lon="10.513069261088182"><ele>123.0</ele><time>2026-03-29T08:18:32Z</time></trkpt><trkpt lat="45.428492746363254" lon="10.513280615036487"><ele>123.0</ele><time>2026-03-29T08:18:33Z</time></trkpt><trkpt lat="45.428467114683855" lon="10.51346843965085"><ele>123.0</ele><time>2026-03-29T08:18:34Z</time></trkpt><trkpt lat="45.428440681976326" lon="10.5136377776596"><ele>123.0</ele><time>2026-03-29T08:18:35Z</time></trkpt><trkpt lat="45.42841696817108" lon="10.513788936544746"><ele>122.80000000000001</ele><time>2026-03-29T08:18:36Z</time></trkpt><trkpt lat="45.42839842117242" lon="10.51393920541393"><ele>122.60000000000001</ele><time>2026-03-29T08:18:37Z</time></trkpt><trkpt lat="45.4283814606898" lon="10.514066560521991"><ele>122.39999999999999</ele><time>2026-03-29T08:18:38Z</time></trkpt><trkpt lat="45.42835596884026" lon="10.514167615639723"><ele>122.19999999999999</ele><time>2026-03-29T08:18:39Z</time></trkpt><trkpt lat="45.428292420199504" lon="10.51429845003526"><ele>122.0</ele><time>2026-03-29T08:18:41Z</time></trkpt><trkpt lat="45.42824174665738" lon="10.514400539130957"><ele>122.0</ele><time>2026-03-29T08:18:43Z</time></trkpt><trkpt lat="45.42832938680276" lon="10.514461163401709"><ele>121.99999999999999</ele><time>2026-03-29T08:18:44Z</time></trkpt><trkpt lat="45.428332713221685" lon="10.514559906708984"><ele>121.99999999999999</ele><time>2026-03-29T08:18:45Z</time></trkpt><trkpt lat="45.42830802993916" lon="10.514683469331434"><ele>122.0</ele><time>2026-03-29T08:18:46Z</time></trkpt><trkpt lat="45.428280262474026" lon="10.514824321006387"><ele>122.0</ele><time>2026-03-29T08:18:47Z</time></trkpt><trkpt lat="45.42824927946813" lon="10.514984180326422"><ele>122.0</ele><time>2026-03-29T08:18:48Z</time></trkpt><trkpt lat="45.42822327629299" lon="10.515148602016492"><ele>121.99999999999999</ele><time>2026-03-29T08:18:49Z</time></trkpt><trkpt lat="45.42820185626653" lon="10.515316167471886"><ele>121.99999999999999</ele><time>2026-03-29T08:18:50Z</time></trkpt><trkpt lat="45.42818095352233" lon="10.515467319012199"><ele>122.0</ele><time>2026-03-29T08:18:51Z</time></trkpt><trkpt lat="45.42816262488073" lon="10.515608019371733"><ele>122.0</ele><time>2026-03-29T08:18:52Z</time></trkpt><trkpt lat="45.428143439835935" lon="10.515723952808191"><ele>122.0</ele><time>2026-03-29T08:18:53Z</time></trkpt><trkpt lat="45.42812661985139" lon="10.515833388957558"><ele>121.99999999999999</ele><time>2026-03-29T08:18:54Z</time></trkpt><trkpt lat="45.42810597201077" lon="10.515923091528206"><ele>121.99999999999999</ele><time>2026-03-29T08:18:55Z</time></trkpt><trkpt lat="45.428052872473415" lon="10.51600906169983"><ele>122.0</ele><time>2026-03-29T08:18:57Z</time></trkpt><trkpt lat="45.427966715733476" lon="10.51606470364165"><ele>122.0</ele><time>2026-03-29T08:19:00Z</time></trkpt><trkpt lat="45.42780600485596" lon="10.51605694076428"><ele>121.99999999999999</ele><time>2026-03-29T08:19:02Z</time></trkpt><trkpt lat="45.42770918489666" lon="10.516033652726106"><ele>122.0</ele><time>2026-03-29T08:19:03Z</time></trkpt><trkpt lat="45.4276382475793" lon="10.51601216526475"><ele>122.0</ele><time>2026-03-29T08:19:04Z</time></trkpt><trkpt lat="45.42756542681845" lon="10.51598220142071"><ele>122.0</ele><time>2026-03-29T08:19:05Z</time></trkpt><trkpt lat="45.42749880392912" lon="10.515938346994638"><ele>121.99999999999999</ele><time>2026-03-29T08:19:06Z</time></trkpt><trkpt lat="45.42743777192403" lon="10.51589019365874"><ele>122.0</ele><time>2026-03-29T08:19:07Z</time></trkpt><trkpt lat="45.42732846361224" lon="10.515798282915855"><ele>121.99999999999999</ele><time>2026-03-29T08:19:09Z</time></trkpt><trkpt lat="45.427285521216604" lon="10.515720188536612"><ele>122.0</ele><time>2026-03-29T08:19:10Z</time></trkpt><trkpt lat="45.42723363117964" lon="10.51566835681498"><ele>122.0</ele><time>2026-03-29T08:19:11Z</time></trkpt><trkpt lat="45.42723306443503" lon="10.515574880220845"><ele>122.0</ele><time>2026-03-29T08:19:12Z</time></trkpt><trkpt lat="45.427181827598254" lon="10.515423857590784"><ele>121.99999999999999</ele><time>2026-03-29T08:19:14Z</time></trkpt><trkpt lat="45.42708900030753" lon="10.515327801088237"><ele>122.0</ele><time>2026-03-29T08:19:16Z</time></trkpt><trkpt lat="45.42701330746244" lon="10.515348220354339"><ele>122.19999999999999</ele><time>2026-03-29T08:19:17Z</time></trkpt><trkpt lat="45.42691262171975" lon="10.515455094913191"><ele>122.39999999999999</ele><time>2026-03-29T08:19:19Z</time></trkpt><trkpt lat="45.426844086133244" lon="10.515543818789443"><ele>122.60000000000001</ele><time>2026-03-29T08:19:20Z</time></trkpt><trkpt lat="45.42676885293774" lon="10.515608757123752"><ele>122.80000000000001</ele><time>2026-03-29T08:19:21Z</time></trkpt><trkpt lat="45.42666374978576" lon="10.515632690221572"><ele>123.0</ele><time>2026-03-29T08:19:22Z</time></trkpt><trkpt lat="45.42655196313091" lon="10.515605013543835"><ele>123.0</ele><time>2026-03-29T08:19:23Z</time></trkpt><trkpt lat="45.42644387314361" lon="10.515538014619462"><ele>123.0</ele><time>2026-03-29T08:19:24Z</time></trkpt><trkpt lat="45.4263382831455" lon="10.515471087685953"><ele>123.0</ele><time>2026-03-29T08:19:25Z</time></trkpt><trkpt lat="45.42620129823053" lon="10.515408013636463"><ele>123.0</ele><time>2026-03-29T08:19:26Z</time></trkpt><trkpt lat="45.42606530018628" lon="10.51533470110042"><ele>122.75</ele><time>2026-03-29T08:19:27Z</time></trkpt><trkpt lat="45.425930858605696" lon="10.515260848385678"><ele>122.5</ele><time>2026-03-29T08:19:28Z</time></trkpt><trkpt lat="45.425818421214665" lon="10.515167607754691"><ele>122.25</ele><time>2026-03-29T08:19:29Z</time></trkpt><trkpt lat="45.425710194480494" lon="10.515109332664927"><ele>122.0</ele><time>2026-03-29T08:19:30Z</time></trkpt><trkpt lat="45.42560747873133" lon="10.515038372595807"><ele>122.0</ele><time>2026-03-29T08:19:31Z</time></trkpt><trkpt lat="45.42550455366895" lon="10.514971217285177"><ele>121.99999999999999</ele><time>2026-03-29T08:19:32Z</time></trkpt><trkpt lat="45.4254097691635" lon="10.514901024265022"><ele>121.99999999999999</ele><time>2026-03-29T08:19:33Z</time></trkpt><trkpt lat="45.42531215835572" lon="10.514832150019483"><ele>122.0</ele><time>2026-03-29T08:19:34Z</time></trkpt><trkpt lat="45.42521108889084" lon="10.514751934419724"><ele>122.0</ele><time>2026-03-29T08:19:35Z</time></trkpt><trkpt lat="45.42511267419825" lon="10.514682028935816"><ele>122.0</ele><time>2026-03-29T08:19:36Z</time></trkpt><trkpt lat="45.425017644933995" lon="10.514587008793185"><ele>122.0</ele><time>2026-03-29T08:19:37Z</time></trkpt><trkpt lat="45.42490759348601" lon="10.514515220424588"><ele>122.0</ele><time>2026-03-29T08:19:38Z</time></trkpt><trkpt lat="45.42480768689027" lon="10.514431271558166"><ele>122.0</ele><time>2026-03-29T08:19:39Z</time></trkpt><trkpt lat="45.42471085534264" lon="10.51435441332448"><ele>121.5</ele><time>2026-03-29T08:19:40Z</time></trkpt><trkpt lat="45.42460337333219" lon="10.514270075286936"><ele>121.0</ele><time>2026-03-29T08:19:41Z</time></trkpt><trkpt lat="45.42448948505301" lon="10.514150705712474"><ele>120.5</ele><time>2026-03-29T08:19:42Z</time></trkpt><trkpt lat="45.424357606006794" lon="10.51404669161391"><ele>120.0</ele><time>2026-03-29T08:19:43Z</time></trkpt><trkpt lat="45.424238290338245" lon="10.513942207509071"><ele>120.0</ele><time>2026-03-29T08:19:44Z</time></trkpt><trkpt lat="45.424117374653015" lon="10.51382804551081"><ele>120.0</ele><time>2026-03-29T08:19:45Z</time></trkpt><trkpt lat="45.42400912854031" lon="10.513727190688092"><ele>120.0</ele><time>2026-03-29T08:19:46Z</time></trkpt><trkpt lat="45.423914654740464" lon="10.513612871018074"><ele>120.0</ele><time>2026-03-29T08:19:47Z</time></trkpt><trkpt lat="45.42380073290499" lon="10.513527875436399"><ele>120.0</ele><time>2026-03-29T08:19:48Z</time></trkpt><trkpt lat="45.42368649474607" lon="10.513411207798981"><ele>120.0</ele><time>2026-03-29T08:19:49Z</time></trkpt><trkpt lat="45.42357461369052" lon="10.513295632745963"><ele>120.0</ele><time>2026-03-29T08:19:50Z</time></trkpt><trkpt lat="45.423474406110316" lon="10.513192542246033"><ele>120.0</ele><time>2026-03-29T08:19:51Z</time></trkpt><trkpt lat="45.42336555390149" lon="10.513098544080794"><ele>120.0</ele><time>2026-03-29T08:19:52Z</time></trkpt><trkpt lat="45.42324527687152" lon="10.513002406929742"><ele>120.0</ele><time>2026-03-29T08:19:53Z</time></trkpt><trkpt lat="45.42310277625065" lon="10.512891956716983"><ele>120.0</ele><time>2026-03-29T08:19:54Z</time></trkpt><trkpt lat="45.42293390518057" lon="10.512753631355958"><ele>120.66666666666666</ele><time>2026-03-29T08:19:55Z</time></trkpt><trkpt lat="45.42274377121282" lon="10.512639509960003"><ele>121.33333333333333</ele><time>2026-03-29T08:19:56Z</time></trkpt><trkpt lat="45.42256024029898" lon="10.512527551806457"><ele>122.0</ele><time>2026-03-29T08:19:57Z</time></trkpt><trkpt lat="45.42241315247433" lon="10.51238780250492"><ele>122.0</ele><time>2026-03-29T08:19:58Z</time></trkpt><trkpt lat="45.422294829157586" lon="10.512210480663818"><ele>122.0</ele><time>2026-03-29T08:19:59Z</time></trkpt><trkpt lat="45.42217439563743" lon="10.512065360811533"><ele>122.0</ele><time>2026-03-29T08:20:00Z</time></trkpt><trkpt lat="45.42208987713501" lon="10.51188602485384"><ele>121.75</ele><time>2026-03-29T08:20:01Z</time></trkpt><trkpt lat="45.42200525876965" lon="10.511729090383263"><ele>121.5</ele><time>2026-03-29T08:20:02Z</time></trkpt><trkpt lat="45.421947727926906" lon="10.51158410978459"><ele>121.25</ele><time>2026-03-29T08:20:03Z</time></trkpt><trkpt lat="45.421920460466296" lon="10.511448517188969"><ele>121.0</ele><time>2026-03-29T08:20:04Z</time></trkpt><trkpt lat="45.42192196920798" lon="10.511313227861738"><ele>120.83333333333334</ele><time>2026-03-29T08:20:05Z</time></trkpt><trkpt lat="45.42191062541719" lon="10.511181012963135"><ele>120.66666666666667</ele><time>2026-03-29T08:20:06Z</time></trkpt><trkpt lat="45.42191032239472" lon="10.511068417945813"><ele>120.5</ele><time>2026-03-29T08:20:07Z</time></trkpt><trkpt lat="45.421884991881825" lon="10.510972285070697"><ele>120.33333333333334</ele><time>2026-03-29T08:20:08Z</time></trkpt><trkpt lat="45.421848474538145" lon="10.510891726784292"><ele>120.16666666666667</ele><time>2026-03-29T08:20:09Z</time></trkpt><trkpt lat="45.421761645362935" lon="10.510866878355978"><ele>120.0</ele><time>2026-03-29T08:20:10Z</time></trkpt><trkpt lat="45.42166544429048" lon="10.510829305610681"><ele>120.0</ele><time>2026-03-29T08:20:11Z</time></trkpt><trkpt lat="45.42154779522507" lon="10.510803790721356"><ele>120.0</ele><time>2026-03-29T08:20:12Z</time></trkpt><trkpt lat="45.42143680287976" lon="10.510658382213867"><ele>120.0</ele><time>2026-03-29T08:20:13Z</time></trkpt><trkpt lat="45.421306740379954" lon="10.510553461203708"><ele>120.0</ele><time>2026-03-29T08:20:14Z</time></trkpt><trkpt lat="45.42117488054444" lon="10.510498863914576"><ele>120.5</ele><time>2026-03-29T08:20:15Z</time></trkpt><trkpt lat="45.42104910386709" lon="10.51050252265129"><ele>121.0</ele><time>2026-03-29T08:20:16Z</time></trkpt><trkpt lat="45.42092129714884" lon="10.51054931335304"><ele>121.5</ele><time>2026-03-29T08:20:17Z</time></trkpt><trkpt lat="45.42081096381035" lon="10.510643249758669"><ele>122.0</ele><time>2026-03-29T08:20:18Z</time></trkpt><trkpt lat="45.42072484897252" lon="10.51074704130598"><ele>122.0</ele><time>2026-03-29T08:20:19Z</time></trkpt><trkpt lat="45.42065593301696" lon="10.510895744629641"><ele>122.0</ele><time>2026-03-29T08:20:20Z</time></trkpt><trkpt lat="45.42061706314378" lon="10.511076667294622"><ele>122.0</ele><time>2026-03-29T08:20:21Z</time></trkpt><trkpt lat="45.42059781356339" lon="10.511257619574602"><ele>122.0</ele><time>2026-03-29T08:20:22Z</time></trkpt><trkpt lat="45.42061536139998" lon="10.511444186969808"><ele>121.75</ele><time>2026-03-29T08:20:23Z</time></trkpt><trkpt lat="45.42066348685307" lon="10.51162481202258"><ele>121.5</ele><time>2026-03-29T08:20:24Z</time></trkpt><trkpt lat="45.42073031555638" lon="10.511794053494734"><ele>121.25</ele><time>2026-03-29T08:20:25Z</time></trkpt><trkpt lat="45.42079854952247" lon="10.511929350883749"><ele>121.0</ele><time>2026-03-29T08:20:26Z</time></trkpt><trkpt lat="45.42083762915271" lon="10.51203892770007"><ele>120.8</ele><time>2026-03-29T08:20:27Z</time></trkpt><trkpt lat="45.420839945234995" lon="10.512135095616854"><ele>120.6</ele><time>2026-03-29T08:20:28Z</time></trkpt><trkpt lat="45.42075916736758" lon="10.512259314572882"><ele>120.4</ele><time>2026-03-29T08:20:30Z</time></trkpt><trkpt lat="45.42068995139435" lon="10.512274896187867"><ele>120.2</ele><time>2026-03-29T08:20:31Z</time></trkpt><trkpt lat="45.42059657349781" lon="10.512219320381476"><ele>120.0</ele><time>2026-03-29T08:20:32Z</time></trkpt><trkpt lat="45.4204926159398" lon="10.512293345537055"><ele>120.33333333333334</ele><time>2026-03-29T08:20:33Z</time></trkpt><trkpt lat="45.42037866020824" lon="10.51235070763025"><ele>120.66666666666667</ele><time>2026-03-29T08:20:34Z</time></trkpt><trkpt lat="45.42020881722447" lon="10.512430201881795"><ele>121.0</ele><time>2026-03-29T08:20:35Z</time></trkpt><trkpt lat="45.42004449584006" lon="10.51250855114322"><ele>121.0</ele><time>2026-03-29T08:20:36Z</time></trkpt><trkpt lat="45.41987351351139" lon="10.51258971587944"><ele>121.0</ele><time>2026-03-29T08:20:37Z</time></trkpt><trkpt lat="45.41969003688441" lon="10.512657636391843"><ele>121.0</ele><time>2026-03-29T08:20:38Z</time></trkpt><trkpt lat="45.41950263890152" lon="10.51270482899912"><ele>121.33333333333334</ele><time>2026-03-29T08:20:39Z</time></trkpt><trkpt lat="45.41931050624543" lon="10.512728321053881"><ele>121.66666666666666</ele><time>2026-03-29T08:20:40Z</time></trkpt><trkpt lat="45.41911981777985" lon="10.512734553215584"><ele>122.0</ele><time>2026-03-29T08:20:41Z</time></trkpt><trkpt lat="45.41891910370808" lon="10.512750681899837"><ele>120.33333333333333</ele><time>2026-03-29T08:20:42Z</time></trkpt><trkpt lat="45.418726118729786" lon="10.512769318903832"><ele>118.66666666666666</ele><time>2026-03-29T08:20:43Z</time></trkpt><trkpt lat="45.41853373968095" lon="10.512761985848703"><ele>117.0</ele><time>2026-03-29T08:20:44Z</time></trkpt><trkpt lat="45.41834717582106" lon="10.512773988142337"><ele>117.0</ele><time>2026-03-29T08:20:45Z</time></trkpt><trkpt lat="45.41815580188333" lon="10.512786451864416"><ele>117.0</ele><time>2026-03-29T08:20:46Z</time></trkpt><trkpt lat="45.417956035063824" lon="10.51280107979967"><ele>117.0</ele><time>2026-03-29T08:20:47Z</time></trkpt><trkpt lat="45.41777064370042" lon="10.512837687625849"><ele>116.33333333333334</ele><time>2026-03-29T08:20:48Z</time></trkpt><trkpt lat="45.41757030238468" lon="10.512855907981153"><ele>115.66666666666667</ele><time>2026-03-29T08:20:49Z</time></trkpt><trkpt lat="45.41736669301479" lon="10.51285094709768"><ele>115.0</ele><time>2026-03-29T08:20:50Z</time></trkpt><trkpt lat="45.417166348429774" lon="10.512865319812102"><ele>115.33333333333334</ele><time>2026-03-29T08:20:51Z</time></trkpt><trkpt lat="45.416971988463395" lon="10.512879263202084"><ele>115.66666666666666</ele><time>2026-03-29T08:20:52Z</time></trkpt><trkpt lat="45.41678009160185" lon="10.512913499252557"><ele>116.0</ele><time>2026-03-29T08:20:53Z</time></trkpt><trkpt lat="45.416593480444924" lon="10.512924651476085"><ele>116.0</ele><time>2026-03-29T08:20:54Z</time></trkpt><trkpt lat="45.4164261170143" lon="10.512938299794994"><ele>116.0</ele><time>2026-03-29T08:20:55Z</time></trkpt><trkpt lat="45.41625147865412" lon="10.512953953666774"><ele>116.0</ele><time>2026-03-29T08:20:56Z</time></trkpt><trkpt lat="45.41608314436478" lon="10.512971209193221"><ele>116.0</ele><time>2026-03-29T08:20:57Z</time></trkpt><trkpt lat="45.41592408922182" lon="10.512979202357553"><ele>116.0</ele><time>2026-03-29T08:20:58Z</time></trkpt><trkpt lat="45.41575900985893" lon="10.51297045444827"><ele>116.0</ele><time>2026-03-29T08:20:59Z</time></trkpt><trkpt lat="45.41561244113397" lon="10.512988588774467"><ele>116.25</ele><time>2026-03-29T08:21:00Z</time></trkpt><trkpt lat="45.415467964635496" lon="10.512949315717371"><ele>116.5</ele><time>2026-03-29T08:21:01Z</time></trkpt><trkpt lat="45.41534059936105" lon="10.512920605091589"><ele>116.75</ele><time>2026-03-29T08:21:02Z</time></trkpt><trkpt lat="45.41523181962009" lon="10.512907464136315"><ele>117.0</ele><time>2026-03-29T08:21:03Z</time></trkpt><trkpt lat="45.4151365541479" lon="10.512897011075923"><ele>117.0</ele><time>2026-03-29T08:21:04Z</time></trkpt><trkpt lat="45.415057779173154" lon="10.512875750442072"><ele>117.0</ele><time>2026-03-29T08:21:05Z</time></trkpt><trkpt lat="45.414992507971874" lon="10.512898823943457"><ele>117.0</ele><time>2026-03-29T08:21:07Z</time></trkpt><trkpt lat="45.41495577638857" lon="10.513055103075313"><ele>117.0</ele><time>2026-03-29T08:21:09Z</time></trkpt><trkpt lat="45.414945681406635" lon="10.513176219828782"><ele>117.0</ele><time>2026-03-29T08:21:10Z</time></trkpt><trkpt lat="45.41493367830534" lon="10.513312059618288"><ele>117.0</ele><time>2026-03-29T08:21:11Z</time></trkpt><trkpt lat="45.41492734583157" lon="10.513471198317406"><ele>117.0</ele><time>2026-03-29T08:21:12Z</time></trkpt><trkpt lat="45.414925072375276" lon="10.513606311726482"><ele>116.99999999999999</ele><time>2026-03-29T08:21:13Z</time></trkpt><trkpt lat="45.41492840091327" lon="10.513716711589554"><ele>116.99999999999999</ele><time>2026-03-29T08:21:14Z</time></trkpt><trkpt lat="45.41490177138602" lon="10.513885314363085"><ele>117.0</ele><time>2026-03-29T08:21:16Z</time></trkpt><trkpt lat="45.41482012101014" lon="10.513978526456302"><ele>117.0</ele><time>2026-03-29T08:21:18Z</time></trkpt><trkpt lat="45.4147508829607" lon="10.513973743778083"><ele>116.75</ele><time>2026-03-29T08:21:19Z</time></trkpt><trkpt lat="45.41465019107625" lon="10.513967249867314"><ele>116.5</ele><time>2026-03-29T08:21:20Z</time></trkpt><trkpt lat="45.41450432001235" lon="10.513958286702637"><ele>116.25</ele><time>2026-03-29T08:21:21Z</time></trkpt><trkpt lat="45.41437016943171" lon="10.513958728594362"><ele>116.0</ele><time>2026-03-29T08:21:22Z</time></trkpt><trkpt lat="45.41423501519798" lon="10.513990083257909"><ele>116.0</ele><time>2026-03-29T08:21:23Z</time></trkpt><trkpt lat="45.41411178319014" lon="10.51406914953888"><ele>116.0</ele><time>2026-03-29T08:21:24Z</time></trkpt><trkpt lat="45.41398700487333" lon="10.514168337688679"><ele>116.0</ele><time>2026-03-29T08:21:25Z</time></trkpt><trkpt lat="45.413845723527274" lon="10.514213668030324"><ele>116.0</ele><time>2026-03-29T08:21:26Z</time></trkpt><trkpt lat="45.413725048587146" lon="10.514250273961947"><ele>116.0</ele><time>2026-03-29T08:21:27Z</time></trkpt><trkpt lat="45.413605331101934" lon="10.514292454823249"><ele>116.0</ele><time>2026-03-29T08:21:28Z</time></trkpt><trkpt lat="45.41351365069979" lon="10.514378300998697"><ele>116.0</ele><time>2026-03-29T08:21:29Z</time></trkpt><trkpt lat="45.413444965088615" lon="10.514435430663177"><ele>116.0</ele><time>2026-03-29T08:21:30Z</time></trkpt><trkpt lat="45.413394292037026" lon="10.51452242665221"><ele>116.0</ele><time>2026-03-29T08:21:31Z</time></trkpt><trkpt lat="45.41337627382141" lon="10.514638984914086"><ele>116.0</ele><time>2026-03-29T08:21:32Z</time></trkpt><trkpt lat="45.41333273076692" lon="10.514786756551842"><ele>116.0</ele><time>2026-03-29T08:21:33Z</time></trkpt><trkpt lat="45.413298882364224" lon="10.514973391315479"><ele>116.0</ele><time>2026-03-29T08:21:34Z</time></trkpt><trkpt lat="45.4132563899448" lon="10.515189889897767"><ele>116.0</ele><time>2026-03-29T08:21:35Z</time></trkpt><trkpt lat="45.413207475411184" lon="10.51540522373184"><ele>116.0</ele><time>2026-03-29T08:21:36Z</time></trkpt><trkpt lat="45.41315337864957" lon="10.515612331220618"><ele>116.0</ele><time>2026-03-29T08:21:37Z</time></trkpt><trkpt lat="45.41309855181279" lon="10.51579176587883"><ele>116.0</ele><time>2026-03-29T08:21:38Z</time></trkpt><trkpt lat="45.41303655629285" lon="10.515956988952846"><ele>116.0</ele><time>2026-03-29T08:21:39Z</time></trkpt><trkpt lat="45.41297796649808" lon="10.516124245741542"><ele>115.5</ele><time>2026-03-29T08:21:40Z</time></trkpt><trkpt lat="45.4129146170371" lon="10.516292313938647"><ele>115.0</ele><time>2026-03-29T08:21:41Z</time></trkpt><trkpt lat="45.412855772301164" lon="10.516450680525747"><ele>114.5</ele><time>2026-03-29T08:21:42Z</time></trkpt><trkpt lat="45.412798456077155" lon="10.5166104103982"><ele>114.0</ele><time>2026-03-29T08:21:43Z</time></trkpt><trkpt lat="45.41274250113299" lon="10.516778847283938"><ele>114.0</ele><time>2026-03-29T08:21:44Z</time></trkpt><trkpt lat="45.41269826239819" lon="10.516926662906684"><ele>114.0</ele><time>2026-03-29T08:21:45Z</time></trkpt><trkpt lat="45.41265589681185" lon="10.517080142026243"><ele>114.0</ele><time>2026-03-29T08:21:46Z</time></trkpt><trkpt lat="45.41261212397679" lon="10.517233841559452"><ele>114.0</ele><time>2026-03-29T08:21:47Z</time></trkpt><trkpt lat="45.41256695792047" lon="10.517376041886116"><ele>114.0</ele><time>2026-03-29T08:21:48Z</time></trkpt><trkpt lat="45.41249118521994" lon="10.517492188055863"><ele>114.0</ele><time>2026-03-29T08:21:49Z</time></trkpt><trkpt lat="45.41241041252722" lon="10.517602185012706"><ele>114.0</ele><time>2026-03-29T08:21:50Z</time></trkpt><trkpt lat="45.4123224400488" lon="10.517706422680662"><ele>114.0</ele><time>2026-03-29T08:21:51Z</time></trkpt><trkpt lat="45.412239829173835" lon="10.517828852031506"><ele>115.25</ele><time>2026-03-29T08:21:52Z</time></trkpt><trkpt lat="45.4121501389709" lon="10.517927253196737"><ele>116.5</ele><time>2026-03-29T08:21:53Z</time></trkpt><trkpt lat="45.41205351318915" lon="10.518027487655754"><ele>117.75</ele><time>2026-03-29T08:21:54Z</time></trkpt><trkpt lat="45.411954547513965" lon="10.518138677989548"><ele>119.0</ele><time>2026-03-29T08:21:55Z</time></trkpt><trkpt lat="45.41185452629473" lon="10.518285516808318"><ele>119.0</ele><time>2026-03-29T08:21:56Z</time></trkpt><trkpt lat="45.41176466031537" lon="10.518458333581515"><ele>119.0</ele><time>2026-03-29T08:21:57Z</time></trkpt><trkpt lat="45.411686055093085" lon="10.518643616582873"><ele>119.0</ele><time>2026-03-29T08:21:58Z</time></trkpt><trkpt lat="45.41159966188622" lon="10.518811094606352"><ele>119.0</ele><time>2026-03-29T08:21:59Z</time></trkpt><trkpt lat="45.41151465235474" lon="10.518932437087285"><ele>119.0</ele><time>2026-03-29T08:22:00Z</time></trkpt><trkpt lat="45.41144858038698" lon="10.519039074070472"><ele>119.0</ele><time>2026-03-29T08:22:01Z</time></trkpt><trkpt lat="45.411411320028684" lon="10.519140634540925"><ele>119.0</ele><time>2026-03-29T08:22:02Z</time></trkpt><trkpt lat="45.41136029741668" lon="10.519208797017361"><ele>119.0</ele><time>2026-03-29T08:22:03Z</time></trkpt><trkpt lat="45.41134585462047" lon="10.519398312958552"><ele>119.0</ele><time>2026-03-29T08:22:05Z</time></trkpt><trkpt lat="45.411403852783565" lon="10.519470511406817"><ele>118.6</ele><time>2026-03-29T08:22:06Z</time></trkpt><trkpt lat="45.41151823051687" lon="10.519598161991624"><ele>118.2</ele><time>2026-03-29T08:22:08Z</time></trkpt><trkpt lat="45.411562842754165" lon="10.519701865177689"><ele>117.79999999999998</ele><time>2026-03-29T08:22:09Z</time></trkpt><trkpt lat="45.41157726718159" lon="10.519833946985019"><ele>117.39999999999999</ele><time>2026-03-29T08:22:10Z</time></trkpt><trkpt lat="45.41157381810079" lon="10.519994603701049"><ele>117.0</ele><time>2026-03-29T08:22:11Z</time></trkpt><trkpt lat="45.411561759256585" lon="10.520188828918975"><ele>117.0</ele><time>2026-03-29T08:22:12Z</time></trkpt><trkpt lat="45.41154963703334" lon="10.520385266475193"><ele>116.99999999999999</ele><time>2026-03-29T08:22:13Z</time></trkpt><trkpt lat="45.41154789176438" lon="10.520543428155051"><ele>116.99999999999999</ele><time>2026-03-29T08:22:14Z</time></trkpt><trkpt lat="45.41154892347946" lon="10.520682588881261"><ele>117.0</ele><time>2026-03-29T08:22:15Z</time></trkpt><trkpt lat="45.41156336878063" lon="10.520800673655222"><ele>117.0</ele><time>2026-03-29T08:22:16Z</time></trkpt><trkpt lat="45.411595996302424" lon="10.52090581137184"><ele>117.0</ele><time>2026-03-29T08:22:17Z</time></trkpt><trkpt lat="45.41165488906506" lon="10.5209937706589"><ele>116.99999999999999</ele><time>2026-03-29T08:22:18Z</time></trkpt><trkpt lat="45.411735545391934" lon="10.521074628766815"><ele>116.99999999999999</ele><time>2026-03-29T08:22:19Z</time></trkpt><trkpt lat="45.41182612166085" lon="10.521131963102546"><ele>117.0</ele><time>2026-03-29T08:22:20Z</time></trkpt><trkpt lat="45.4119439413287" lon="10.521185274815341"><ele>117.0</ele><time>2026-03-29T08:22:21Z</time></trkpt><trkpt lat="45.412041651152094" lon="10.52123687029411"><ele>117.0</ele><time>2026-03-29T08:22:22Z</time></trkpt><trkpt lat="45.41210939814341" lon="10.521308821838293"><ele>116.99999999999999</ele><time>2026-03-29T08:22:23Z</time></trkpt><trkpt lat="45.41214161769807" lon="10.52140238029728"><ele>116.99999999999999</ele><time>2026-03-29T08:22:24Z</time></trkpt><trkpt lat="45.412160417759964" lon="10.521524268577782"><ele>117.0</ele><time>2026-03-29T08:22:25Z</time></trkpt><trkpt lat="45.412151779736824" lon="10.521655641778791"><ele>117.0</ele><time>2026-03-29T08:22:26Z</time></trkpt><trkpt lat="45.41212741116232" lon="10.521825089742421"><ele>117.0</ele><time>2026-03-29T08:22:27Z</time></trkpt><trkpt lat="45.41208307406687" lon="10.521997855429051"><ele>117.0</ele><time>2026-03-29T08:22:28Z</time></trkpt><trkpt lat="45.41204083306483" lon="10.522106455761218"><ele>117.0</ele><time>2026-03-29T08:22:29Z</time></trkpt><trkpt lat="45.41197811472696" lon="10.522208609038962"><ele>117.0</ele><time>2026-03-29T08:22:31Z</time></trkpt><trkpt lat="45.4118361972687" lon="10.52204707339441"><ele>117.0</ele><time>2026-03-29T08:22:33Z</time></trkpt><trkpt lat="45.41173465696751" lon="10.521980964368502"><ele>117.0</ele><time>2026-03-29T08:22:34Z</time></trkpt><trkpt lat="45.41159446314547" lon="10.521919061318165"><ele>117.0</ele><time>2026-03-29T08:22:35Z</time></trkpt><trkpt lat="45.411443304962084" lon="10.521894616556262"><ele>117.0</ele><time>2026-03-29T08:22:36Z</time></trkpt><trkpt lat="45.41128734208498" lon="10.521893852865407"><ele>117.33333333333334</ele><time>2026-03-29T08:22:37Z</time></trkpt><trkpt lat="45.41114337993347" lon="10.52193814701732"><ele>117.66666666666667</ele><time>2026-03-29T08:22:38Z</time></trkpt><trkpt lat="45.41098182338399" lon="10.521956515601419"><ele>118.0</ele><time>2026-03-29T08:22:39Z</time></trkpt><trkpt lat="45.41079795820147" lon="10.522019756252499"><ele>117.66666666666667</ele><time>2026-03-29T08:22:40Z</time></trkpt><trkpt lat="45.41061002139886" lon="10.5221207958316"><ele>117.33333333333334</ele><time>2026-03-29T08:22:41Z</time></trkpt><trkpt lat="45.41042600137437" lon="10.522179913568602"><ele>117.0</ele><time>2026-03-29T08:22:42Z</time></trkpt><trkpt lat="45.4102519380333" lon="10.522255293962466"><ele>118.0</ele><time>2026-03-29T08:22:43Z</time></trkpt><trkpt lat="45.41006746147243" lon="10.522335184495072"><ele>119.0</ele><time>2026-03-29T08:22:44Z</time></trkpt><trkpt lat="45.4098755901076" lon="10.522418277242341"><ele>120.0</ele><time>2026-03-29T08:22:45Z</time></trkpt><trkpt lat="45.40970036940625" lon="10.522518517057067"><ele>121.25</ele><time>2026-03-29T08:22:46Z</time></trkpt><trkpt lat="45.40954536118587" lon="10.52258402747303"><ele>122.5</ele><time>2026-03-29T08:22:47Z</time></trkpt><trkpt lat="45.40940617009634" lon="10.52264389567073"><ele>123.75</ele><time>2026-03-29T08:22:48Z</time></trkpt><trkpt lat="45.4092714257884" lon="10.522700461358511"><ele>125.0</ele><time>2026-03-29T08:22:49Z</time></trkpt><trkpt lat="45.409142577272405" lon="10.522754736544329"><ele>125.0</ele><time>2026-03-29T08:22:50Z</time></trkpt><trkpt lat="45.40902515981389" lon="10.522812632426477"><ele>125.0</ele><time>2026-03-29T08:22:51Z</time></trkpt><trkpt lat="45.40892030066763" lon="10.522867470038015"><ele>125.0</ele><time>2026-03-29T08:22:52Z</time></trkpt><trkpt lat="45.40882417352101" lon="10.522926661115562"><ele>125.0</ele><time>2026-03-29T08:22:53Z</time></trkpt><trkpt lat="45.408739097055964" lon="10.522969122827174"><ele>125.0</ele><time>2026-03-29T08:22:54Z</time></trkpt><trkpt lat="45.4086603327854" lon="10.523006079912626"><ele>125.4</ele><time>2026-03-29T08:22:55Z</time></trkpt><trkpt lat="45.40855641625145" lon="10.52302427517866"><ele>125.8</ele><time>2026-03-29T08:22:56Z</time></trkpt><trkpt lat="45.40846617656906" lon="10.523035280756787"><ele>126.19999999999999</ele><time>2026-03-29T08:22:57Z</time></trkpt><trkpt lat="45.40837943706083" lon="10.523050454839856"><ele>126.6</ele><time>2026-03-29T08:22:58Z</time></trkpt><trkpt lat="45.408308470441014" lon="10.52309063781404"><ele>127.0</ele><time>2026-03-29T08:22:59Z</time></trkpt><trkpt lat="45.408221039883976" lon="10.523145567650676"><ele>127.0</ele><time>2026-03-29T08:23:00Z</time></trkpt><trkpt lat="45.40813060963854" lon="10.523216219192996"><ele>126.99999999999999</ele><time>2026-03-29T08:23:01Z</time></trkpt><trkpt lat="45.40803989019841" lon="10.523286065428453"><ele>126.99999999999999</ele><time>2026-03-29T08:23:02Z</time></trkpt><trkpt lat="45.407954621878524" lon="10.523349200003173"><ele>127.0</ele><time>2026-03-29T08:23:03Z</time></trkpt><trkpt lat="45.40787649621372" lon="10.523416374222446"><ele>127.0</ele><time>2026-03-29T08:23:04Z</time></trkpt><trkpt lat="45.407780485085155" lon="10.523491887848849"><ele>127.39999999999999</ele><time>2026-03-29T08:23:05Z</time></trkpt><trkpt lat="45.40769428468582" lon="10.523560951337315"><ele>127.79999999999998</ele><time>2026-03-29T08:23:06Z</time></trkpt><trkpt lat="45.40761156909808" lon="10.523626389639997"><ele>128.2</ele><time>2026-03-29T08:23:07Z</time></trkpt><trkpt lat="45.4075198077031" lon="10.523702033012933"><ele>128.6</ele><time>2026-03-29T08:23:08Z</time></trkpt><trkpt lat="45.40741715631605" lon="10.5237946206791"><ele>129.0</ele><time>2026-03-29T08:23:09Z</time></trkpt><trkpt lat="45.40731695893025" lon="10.523884637736844"><ele>129.25</ele><time>2026-03-29T08:23:10Z</time></trkpt><trkpt lat="45.4072240427079" lon="10.523961997951389"><ele>129.5</ele><time>2026-03-29T08:23:11Z</time></trkpt><trkpt lat="45.407120963569994" lon="10.524035560935648"><ele>129.75</ele><time>2026-03-29T08:23:12Z</time></trkpt><trkpt lat="45.407014327450106" lon="10.524106370318757"><ele>130.0</ele><time>2026-03-29T08:23:13Z</time></trkpt><trkpt lat="45.40689711789321" lon="10.524181508585313"><ele>131.0</ele><time>2026-03-29T08:23:14Z</time></trkpt><trkpt lat="45.40677663034849" lon="10.524265126818484"><ele>132.0</ele><time>2026-03-29T08:23:15Z</time></trkpt><trkpt lat="45.40666872389587" lon="10.524343082753338"><ele>133.0</ele><time>2026-03-29T08:23:16Z</time></trkpt><trkpt lat="45.40656813065096" lon="10.524410275033551"><ele>134.0</ele><time>2026-03-29T08:23:17Z</time></trkpt><trkpt lat="45.40648592315128" lon="10.524470784564258"><ele>134.0</ele><time>2026-03-29T08:23:18Z</time></trkpt><trkpt lat="45.406411493348145" lon="10.524534923936493"><ele>134.0</ele><time>2026-03-29T08:23:19Z</time></trkpt><trkpt lat="45.406344809566285" lon="10.524608585647858"><ele>134.0</ele><time>2026-03-29T08:23:20Z</time></trkpt><trkpt lat="45.406265400945955" lon="10.52469474731628"><ele>134.0</ele><time>2026-03-29T08:23:21Z</time></trkpt><trkpt lat="45.406185262632064" lon="10.524798297687218"><ele>134.0</ele><time>2026-03-29T08:23:22Z</time></trkpt><trkpt lat="45.40608749924284" lon="10.524946486395066"><ele>132.66666666666666</ele><time>2026-03-29T08:23:23Z</time></trkpt><trkpt lat="45.40597989395441" lon="10.525104470443507"><ele>131.33333333333334</ele><time>2026-03-29T08:23:24Z</time></trkpt><trkpt lat="45.40585241995531" lon="10.525255808605152"><ele>130.0</ele><time>2026-03-29T08:23:25Z</time></trkpt><trkpt lat="45.405731720678" lon="10.525395545146523"><ele>130.25</ele><time>2026-03-29T08:23:26Z</time></trkpt><trkpt lat="45.405611655206634" lon="10.525545300475681"><ele>130.5</ele><time>2026-03-29T08:23:27Z</time></trkpt><trkpt lat="45.40550894651504" lon="10.525701923181304"><ele>130.75</ele><time>2026-03-29T08:23:28Z</time></trkpt><trkpt lat="45.40542327155152" lon="10.525846471819394"><ele>131.0</ele><time>2026-03-29T08:23:29Z</time></trkpt><trkpt lat="45.405329243878036" lon="10.525980397993449"><ele>131.25</ele><time>2026-03-29T08:23:30Z</time></trkpt><trkpt lat="45.40523357633063" lon="10.526107347959835"><ele>131.5</ele><time>2026-03-29T08:23:31Z</time></trkpt><trkpt lat="45.40514640378663" lon="10.526227938797465"><ele>131.75</ele><time>2026-03-29T08:23:32Z</time></trkpt><trkpt lat="45.4050406317261" lon="10.52637029741665"><ele>132.0</ele><time>2026-03-29T08:23:33Z</time></trkpt><trkpt lat="45.4049097188988" lon="10.526542688919777"><ele>132.0</ele><time>2026-03-29T08:23:34Z</time></trkpt><trkpt lat="45.40478507751295" lon="10.526711519134281"><ele>132.0</ele><time>2026-03-29T08:23:35Z</time></trkpt><trkpt lat="45.40467499033441" lon="10.52688217521888"><ele>132.0</ele><time>2026-03-29T08:23:36Z</time></trkpt><trkpt lat="45.40455438569074" lon="10.52703838841235"><ele>132.33333333333334</ele><time>2026-03-29T08:23:37Z</time></trkpt><trkpt lat="45.40440150062095" lon="10.527273614345605"><ele>132.66666666666669</ele><time>2026-03-29T08:23:38Z</time></trkpt><trkpt lat="45.40428888532631" lon="10.52742960668071"><ele>133.0</ele><time>2026-03-29T08:23:39Z</time></trkpt><trkpt lat="45.40419255083594" lon="10.527555718166763"><ele>133.0</ele><time>2026-03-29T08:23:40Z</time></trkpt><trkpt lat="45.40410250341698" lon="10.527668724448105"><ele>133.0</ele><time>2026-03-29T08:23:41Z</time></trkpt><trkpt lat="45.40399492405584" lon="10.527704656087902"><ele>133.0</ele><time>2026-03-29T08:23:42Z</time></trkpt><trkpt lat="45.403888238457554" lon="10.527694607243225"><ele>133.0</ele><time>2026-03-29T08:23:43Z</time></trkpt><trkpt lat="45.40376168973911" lon="10.527702202614945"><ele>133.5</ele><time>2026-03-29T08:23:44Z</time></trkpt><trkpt lat="45.403628576738676" lon="10.527708998540483"><ele>134.0</ele><time>2026-03-29T08:23:45Z</time></trkpt><trkpt lat="45.40348607983803" lon="10.527752086864565"><ele>134.5</ele><time>2026-03-29T08:23:46Z</time></trkpt><trkpt lat="45.40332401565065" lon="10.527805551127528"><ele>135.0</ele><time>2026-03-29T08:23:47Z</time></trkpt><trkpt lat="45.40316495213174" lon="10.527819619722397"><ele>135.0</ele><time>2026-03-29T08:23:48Z</time></trkpt><trkpt lat="45.40303088804033" lon="10.527833997318911"><ele>135.0</ele><time>2026-03-29T08:23:49Z</time></trkpt><trkpt lat="45.402908933641335" lon="10.527887343002586"><ele>135.0</ele><time>2026-03-29T08:23:50Z</time></trkpt><trkpt lat="45.40279502518133" lon="10.527941376559905"><ele>135.0</ele><time>2026-03-29T08:23:51Z</time></trkpt><trkpt lat="45.40267512053923" lon="10.528011543216648"><ele>136.0</ele><time>2026-03-29T08:23:52Z</time></trkpt><trkpt lat="45.4025415612353" lon="10.528118473318344"><ele>137.0</ele><time>2026-03-29T08:23:53Z</time></trkpt><trkpt lat="45.40239820612584" lon="10.528248519924684"><ele>138.0</ele><time>2026-03-29T08:23:54Z</time></trkpt><trkpt lat="45.402230647579174" lon="10.528370000782797"><ele>138.0</ele><time>2026-03-29T08:23:55Z</time></trkpt><trkpt lat="45.402066089925185" lon="10.528508912362891"><ele>138.0</ele><time>2026-03-29T08:23:56Z</time></trkpt><trkpt lat="45.40190507000411" lon="10.528675636300356"><ele>138.0</ele><time>2026-03-29T08:23:57Z</time></trkpt><trkpt lat="45.40173546522406" lon="10.528813708472821"><ele>137.66666666666666</ele><time>2026-03-29T08:23:58Z</time></trkpt><trkpt lat="45.401551484273504" lon="10.528959120651573"><ele>137.33333333333331</ele><time>2026-03-29T08:23:59Z</time></trkpt><trkpt lat="45.40138086071766" lon="10.529101930169277"><ele>137.0</ele><time>2026-03-29T08:24:00Z</time></trkpt><trkpt lat="45.40123756405318" lon="10.529221276055061"><ele>136.66666666666666</ele><time>2026-03-29T08:24:01Z</time></trkpt><trkpt lat="45.40109338299181" lon="10.529343843715107"><ele>136.33333333333334</ele><time>2026-03-29T08:24:02Z</time></trkpt><trkpt lat="45.4009411646807" lon="10.52947257671904"><ele>136.0</ele><time>2026-03-29T08:24:03Z</time></trkpt><trkpt lat="45.4007882069725" lon="10.529601837109706"><ele>135.66666666666669</ele><time>2026-03-29T08:24:04Z</time></trkpt><trkpt lat="45.40063203194807" lon="10.529737980434287"><ele>135.33333333333334</ele><time>2026-03-29T08:24:05Z</time></trkpt><trkpt lat="45.400456709895444" lon="10.529892860172554"><ele>135.0</ele><time>2026-03-29T08:24:06Z</time></trkpt><trkpt lat="45.40028811289576" lon="10.530047466158498"><ele>135.25</ele><time>2026-03-29T08:24:07Z</time></trkpt><trkpt lat="45.4001399075251" lon="10.530185581628153"><ele>135.5</ele><time>2026-03-29T08:24:08Z</time></trkpt><trkpt lat="45.40003487212375" lon="10.530289602874234"><ele>135.75</ele><time>2026-03-29T08:24:09Z</time></trkpt><trkpt lat="45.399934961777554" lon="10.530378406456286"><ele>136.0</ele><time>2026-03-29T08:24:10Z</time></trkpt><trkpt lat="45.39983611166331" lon="10.530467941297184"><ele>136.0</ele><time>2026-03-29T08:24:11Z</time></trkpt><trkpt lat="45.39974763600918" lon="10.530566569690473"><ele>136.0</ele><time>2026-03-29T08:24:12Z</time></trkpt><trkpt lat="45.39964275975764" lon="10.530698722209886"><ele>136.0</ele><time>2026-03-29T08:24:13Z</time></trkpt><trkpt lat="45.399523743197186" lon="10.530836103416231"><ele>136.0</ele><time>2026-03-29T08:24:14Z</time></trkpt><trkpt lat="45.399425340732265" lon="10.530951458395554"><ele>135.0</ele><time>2026-03-29T08:24:15Z</time></trkpt><trkpt lat="45.3993520986" lon="10.53106126501712"><ele>134.0</ele><time>2026-03-29T08:24:16Z</time></trkpt><trkpt lat="45.399281900758126" lon="10.531173963219597"><ele>133.0</ele><time>2026-03-29T08:24:17Z</time></trkpt><trkpt lat="45.39922692622691" lon="10.531346901309515"><ele>132.0</ele><time>2026-03-29T08:24:18Z</time></trkpt><trkpt lat="45.3991361810192" lon="10.531549688883743"><ele>132.0</ele><time>2026-03-29T08:24:19Z</time></trkpt><trkpt lat="45.39903143414323" lon="10.531739545506403"><ele>132.0</ele><time>2026-03-29T08:24:20Z</time></trkpt><trkpt lat="45.39891903285163" lon="10.531897334503723"><ele>132.0</ele><time>2026-03-29T08:24:21Z</time></trkpt><trkpt lat="45.39879248005125" lon="10.532042704149378"><ele>131.0</ele><time>2026-03-29T08:24:22Z</time></trkpt><trkpt lat="45.398675438844904" lon="10.532181362300824"><ele>130.0</ele><time>2026-03-29T08:24:23Z</time></trkpt><trkpt lat="45.39858239350289" lon="10.5322967870421"><ele>129.0</ele><time>2026-03-29T08:24:24Z</time></trkpt><trkpt lat="45.39850570887454" lon="10.532395574735043"><ele>128.0</ele><time>2026-03-29T08:24:25Z</time></trkpt><trkpt lat="45.398436572428835" lon="10.532485763506116"><ele>127.99999999999999</ele><time>2026-03-29T08:24:26Z</time></trkpt><trkpt lat="45.39838783545189" lon="10.532553304837585"><ele>128.0</ele><time>2026-03-29T08:24:27Z</time></trkpt><trkpt lat="45.39834038300513" lon="10.532635327713221"><ele>128.0</ele><time>2026-03-29T08:24:29Z</time></trkpt><trkpt lat="45.39830349337116" lon="10.532731877927766"><ele>128.0</ele><time>2026-03-29T08:24:31Z</time></trkpt><trkpt lat="45.39838363800519" lon="10.53287812366442"><ele>127.99999999999999</ele><time>2026-03-29T08:24:32Z</time></trkpt><trkpt lat="45.39844326803282" lon="10.532986751531096"><ele>128.0</ele><time>2026-03-29T08:24:33Z</time></trkpt><trkpt lat="45.398505699258415" lon="10.533104792590414"><ele>128.0</ele><time>2026-03-29T08:24:34Z</time></trkpt><trkpt lat="45.398574256210715" lon="10.533243658064336"><ele>128.0</ele><time>2026-03-29T08:24:35Z</time></trkpt><trkpt lat="45.398603895968456" lon="10.5334054024832"><ele>128.0</ele><time>2026-03-29T08:24:36Z</time></trkpt><trkpt lat="45.39864776608593" lon="10.53358004311018"><ele>128.0</ele><time>2026-03-29T08:24:37Z</time></trkpt><trkpt lat="45.39871089082236" lon="10.533743556141948"><ele>127.75</ele><time>2026-03-29T08:24:38Z</time></trkpt><trkpt lat="45.39876620642762" lon="10.533893628717479"><ele>127.5</ele><time>2026-03-29T08:24:39Z</time></trkpt><trkpt lat="45.398837437761735" lon="10.534025778112568"><ele>127.25</ele><time>2026-03-29T08:24:40Z</time></trkpt><trkpt lat="45.39892647946518" lon="10.53413511526395"><ele>127.0</ele><time>2026-03-29T08:24:41Z</time></trkpt><trkpt lat="45.399042586583064" lon="10.534256242313957"><ele>127.0</ele><time>2026-03-29T08:24:42Z</time></trkpt><trkpt lat="45.39915917571486" lon="10.53440843939235"><ele>127.0</ele><time>2026-03-29T08:24:43Z</time></trkpt><trkpt lat="45.399268748161404" lon="10.534544577793161"><ele>127.0</ele><time>2026-03-29T08:24:44Z</time></trkpt><trkpt lat="45.39934909100452" lon="10.534721196589176"><ele>128.33333333333334</ele><time>2026-03-29T08:24:45Z</time></trkpt><trkpt lat="45.39940835339093" lon="10.53491871193815"><ele>129.66666666666666</ele><time>2026-03-29T08:24:46Z</time></trkpt><trkpt lat="45.3994592714561" lon="10.535134184476565"><ele>131.0</ele><time>2026-03-29T08:24:47Z</time></trkpt><trkpt lat="45.39948305435347" lon="10.53533138207909"><ele>131.0</ele><time>2026-03-29T08:24:48Z</time></trkpt><trkpt lat="45.39948954096323" lon="10.535529778886598"><ele>131.0</ele><time>2026-03-29T08:24:49Z</time></trkpt><trkpt lat="45.399476020545976" lon="10.535754554844921"><ele>131.0</ele><time>2026-03-29T08:24:50Z</time></trkpt><trkpt lat="45.39944058280391" lon="10.536033532017372"><ele>130.0</ele><time>2026-03-29T08:24:51Z</time></trkpt><trkpt lat="45.39943074581457" lon="10.536300642418848"><ele>129.0</ele><time>2026-03-29T08:24:52Z</time></trkpt><trkpt lat="45.399410243897684" lon="10.536563507515378"><ele>128.0</ele><time>2026-03-29T08:24:53Z</time></trkpt><trkpt lat="45.39939197839186" lon="10.53680625138171"><ele>126.66666666666666</ele><time>2026-03-29T08:24:54Z</time></trkpt><trkpt lat="45.399349218547805" lon="10.53706349187408"><ele>125.33333333333334</ele><time>2026-03-29T08:24:55Z</time></trkpt><trkpt lat="45.399316031915525" lon="10.537321113491947"><ele>124.0</ele><time>2026-03-29T08:24:56Z</time></trkpt><trkpt lat="45.39929595215606" lon="10.537591060950344"><ele>124.0</ele><time>2026-03-29T08:24:57Z</time></trkpt><trkpt lat="45.399221077804704" lon="10.537833014186083"><ele>124.0</ele><time>2026-03-29T08:24:58Z</time></trkpt><trkpt lat="45.39917882597355" lon="10.538061234067262"><ele>124.0</ele><time>2026-03-29T08:24:59Z</time></trkpt><trkpt lat="45.39913909313414" lon="10.538278881518377"><ele>123.25</ele><time>2026-03-29T08:25:00Z</time></trkpt><trkpt lat="45.39910617063966" lon="10.538489821021495"><ele>122.5</ele><time>2026-03-29T08:25:01Z</time></trkpt><trkpt lat="45.399093299463146" lon="10.538727845771968"><ele>121.75</ele><time>2026-03-29T08:25:02Z</time></trkpt><trkpt lat="45.3990795765779" lon="10.538869593761872"><ele>121.0</ele><time>2026-03-29T08:25:03Z</time></trkpt><trkpt lat="45.39905640692079" lon="10.539034543338037"><ele>120.8</ele><time>2026-03-29T08:25:04Z</time></trkpt><trkpt lat="45.39906058561258" lon="10.539190284222638"><ele>120.6</ele><time>2026-03-29T08:25:05Z</time></trkpt><trkpt lat="45.39903789247051" lon="10.539349860932926"><ele>120.4</ele><time>2026-03-29T08:25:06Z</time></trkpt><trkpt lat="45.399023206734896" lon="10.5395025827349"><ele>120.2</ele><time>2026-03-29T08:25:07Z</time></trkpt><trkpt lat="45.3990039038677" lon="10.53965909092038"><ele>120.0</ele><time>2026-03-29T08:25:08Z</time></trkpt><trkpt lat="45.39898368110005" lon="10.539828149723943"><ele>119.33333333333334</ele><time>2026-03-29T08:25:09Z</time></trkpt><trkpt lat="45.39894180540129" lon="10.540015439400042"><ele>118.66666666666667</ele><time>2026-03-29T08:25:10Z</time></trkpt><trkpt lat="45.398872478329" lon="10.540240807707674"><ele>118.0</ele><time>2026-03-29T08:25:11Z</time></trkpt><trkpt lat="45.39879643181941" lon="10.540496067465556"><ele>118.0</ele><time>2026-03-29T08:25:12Z</time></trkpt><trkpt lat="45.39873707167253" lon="10.540697207464584"><ele>118.0</ele><time>2026-03-29T08:25:13Z</time></trkpt><trkpt lat="45.39867684816684" lon="10.540886942975089"><ele>118.0</ele><time>2026-03-29T08:25:14Z</time></trkpt><trkpt lat="45.398630767535984" lon="10.541059709798942"><ele>118.0</ele><time>2026-03-29T08:25:15Z</time></trkpt><trkpt lat="45.398595760378264" lon="10.541189049224581"><ele>117.0</ele><time>2026-03-29T08:25:16Z</time></trkpt><trkpt lat="45.398572981688474" lon="10.541305906904782"><ele>116.00000000000001</ele><time>2026-03-29T08:25:17Z</time></trkpt><trkpt lat="45.39857608461732" lon="10.541426104732116"><ele>115.00000000000001</ele><time>2026-03-29T08:25:18Z</time></trkpt><trkpt lat="45.39861333192969" lon="10.541557213955963"><ele>114.0</ele><time>2026-03-29T08:25:19Z</time></trkpt><trkpt lat="45.39867447132547" lon="10.541662980001803"><ele>113.0</ele><time>2026-03-29T08:25:20Z</time></trkpt><trkpt lat="45.39875483932666" lon="10.54178706490198"><ele>113.0</ele><time>2026-03-29T08:25:21Z</time></trkpt><trkpt lat="45.39879740298199" lon="10.541936251380777"><ele>113.0</ele><time>2026-03-29T08:25:22Z</time></trkpt><trkpt lat="45.39882514587107" lon="10.542064936173947"><ele>113.0</ele><time>2026-03-29T08:25:23Z</time></trkpt><trkpt lat="45.39877993798346" lon="10.542227312902078"><ele>113.0</ele><time>2026-03-29T08:25:24Z</time></trkpt><trkpt lat="45.39872278637427" lon="10.542380808281843"><ele>112.33333333333333</ele><time>2026-03-29T08:25:25Z</time></trkpt><trkpt lat="45.39867413928687" lon="10.542604066333633"><ele>111.66666666666666</ele><time>2026-03-29T08:25:26Z</time></trkpt><trkpt lat="45.398600315953566" lon="10.54282491022125"><ele>111.0</ele><time>2026-03-29T08:25:27Z</time></trkpt><trkpt lat="45.39854108321092" lon="10.54310421418898"><ele>111.0</ele><time>2026-03-29T08:25:28Z</time></trkpt><trkpt lat="45.39849111992625" lon="10.54335194974165"><ele>111.0</ele><time>2026-03-29T08:25:29Z</time></trkpt><trkpt lat="45.39842684812405" lon="10.543584930273978"><ele>111.0</ele><time>2026-03-29T08:25:30Z</time></trkpt><trkpt lat="45.39833243097726" lon="10.543833796701493"><ele>111.66666666666666</ele><time>2026-03-29T08:25:31Z</time></trkpt><trkpt lat="45.39823430721692" lon="10.54407752465338"><ele>112.33333333333333</ele><time>2026-03-29T08:25:32Z</time></trkpt><trkpt lat="45.39813562478552" lon="10.544313563191558"><ele>113.0</ele><time>2026-03-29T08:25:33Z</time></trkpt><trkpt lat="45.39803087934625" lon="10.544532257372861"><ele>113.0</ele><time>2026-03-29T08:25:34Z</time></trkpt><trkpt lat="45.39792612276744" lon="10.544727269088883"><ele>113.0</ele><time>2026-03-29T08:25:35Z</time></trkpt><trkpt lat="45.39783810920322" lon="10.544891499699947"><ele>113.0</ele><time>2026-03-29T08:25:36Z</time></trkpt><trkpt lat="45.3977607876177" lon="10.54506799153877"><ele>113.0</ele><time>2026-03-29T08:25:37Z</time></trkpt><trkpt lat="45.397695782346005" lon="10.545279019148447"><ele>113.0</ele><time>2026-03-29T08:25:38Z</time></trkpt><trkpt lat="45.397647807861894" lon="10.545494882859785"><ele>113.0</ele><time>2026-03-29T08:25:39Z</time></trkpt><trkpt lat="45.39761250850399" lon="10.545667972131053"><ele>113.0</ele><time>2026-03-29T08:25:40Z</time></trkpt><trkpt lat="45.39758604975108" lon="10.545839623591164"><ele>113.0</ele><time>2026-03-29T08:25:41Z</time></trkpt><trkpt lat="45.397583661163516" lon="10.546016453693527"><ele>113.0</ele><time>2026-03-29T08:25:42Z</time></trkpt><trkpt lat="45.3976037462899" lon="10.546189321928642"><ele>113.0</ele><time>2026-03-29T08:25:43Z</time></trkpt><trkpt lat="45.39763426847444" lon="10.546405028318347"><ele>113.0</ele><time>2026-03-29T08:25:44Z</time></trkpt><trkpt lat="45.39767076733006" lon="10.546653545554937"><ele>113.0</ele><time>2026-03-29T08:25:45Z</time></trkpt><trkpt lat="45.39767190517361" lon="10.546887149267073"><ele>113.0</ele><time>2026-03-29T08:25:46Z</time></trkpt><trkpt lat="45.39763035309992" lon="10.547127459960628"><ele>113.0</ele><time>2026-03-29T08:25:47Z</time></trkpt><trkpt lat="45.39756599679504" lon="10.547373108966273"><ele>114.0</ele><time>2026-03-29T08:25:48Z</time></trkpt><trkpt lat="45.3974948933865" lon="10.547624293028754"><ele>115.0</ele><time>2026-03-29T08:25:49Z</time></trkpt><trkpt lat="45.39744190131349" lon="10.547853371094803"><ele>116.0</ele><time>2026-03-29T08:25:50Z</time></trkpt><trkpt lat="45.397405772237526" lon="10.548082152293347"><ele>116.33333333333333</ele><time>2026-03-29T08:25:51Z</time></trkpt><trkpt lat="45.3973704482076" lon="10.548338131943783"><ele>116.66666666666666</ele><time>2026-03-29T08:25:52Z</time></trkpt><trkpt lat="45.39733400323032" lon="10.548613225506974"><ele>117.0</ele><time>2026-03-29T08:25:53Z</time></trkpt><trkpt lat="45.397303322365325" lon="10.548880268993383"><ele>118.0</ele><time>2026-03-29T08:25:54Z</time></trkpt><trkpt lat="45.397254250613486" lon="10.549175514979957"><ele>119.0</ele><time>2026-03-29T08:25:55Z</time></trkpt><trkpt lat="45.397217976290825" lon="10.549474778086186"><ele>120.0</ele><time>2026-03-29T08:25:56Z</time></trkpt><trkpt lat="45.39718600748682" lon="10.549765169807428"><ele>120.66666666666666</ele><time>2026-03-29T08:25:57Z</time></trkpt><trkpt lat="45.39717059965996" lon="10.550044191706156"><ele>121.33333333333333</ele><time>2026-03-29T08:25:58Z</time></trkpt><trkpt lat="45.39713872900095" lon="10.550298195313871"><ele>122.0</ele><time>2026-03-29T08:25:59Z</time></trkpt><trkpt lat="45.39711012315312" lon="10.550505811121976"><ele>121.75</ele><time>2026-03-29T08:26:00Z</time></trkpt><trkpt lat="45.39705363242815" lon="10.550695774820083"><ele>121.5</ele><time>2026-03-29T08:26:01Z</time></trkpt><trkpt lat="45.397006469841074" lon="10.550902602082395"><ele>121.25</ele><time>2026-03-29T08:26:02Z</time></trkpt><trkpt lat="45.39695554917385" lon="10.551064252760163"><ele>121.0</ele><time>2026-03-29T08:26:03Z</time></trkpt><trkpt lat="45.396926112375866" lon="10.551209164741163"><ele>121.0</ele><time>2026-03-29T08:26:04Z</time></trkpt><trkpt lat="45.39690101714526" lon="10.551340732118717"><ele>121.0</ele><time>2026-03-29T08:26:05Z</time></trkpt><trkpt lat="45.396885005853285" lon="10.551464258624337"><ele>121.0</ele><time>2026-03-29T08:26:06Z</time></trkpt><trkpt lat="45.396877486207" lon="10.551572662298872"><ele>121.0</ele><time>2026-03-29T08:26:07Z</time></trkpt><trkpt lat="45.39687775193478" lon="10.551715169881291"><ele>121.0</ele><time>2026-03-29T08:26:09Z</time></trkpt><trkpt lat="45.39675919837897" lon="10.551695089280177"><ele>121.0</ele><time>2026-03-29T08:26:11Z</time></trkpt><trkpt lat="45.39667977994896" lon="10.55168769626815"><ele>121.0</ele><time>2026-03-29T08:26:12Z</time></trkpt><trkpt lat="45.39658840219792" lon="10.551684538243581"><ele>121.0</ele><time>2026-03-29T08:26:13Z</time></trkpt><trkpt lat="45.39646278955104" lon="10.55168374003456"><ele>121.0</ele><time>2026-03-29T08:26:14Z</time></trkpt><trkpt lat="45.39631742697326" lon="10.55169287721794"><ele>121.0</ele><time>2026-03-29T08:26:15Z</time></trkpt><trkpt lat="45.3961596183517" lon="10.55173313852736"><ele>121.25</ele><time>2026-03-29T08:26:16Z</time></trkpt><trkpt lat="45.395999548773574" lon="10.551739728984078"><ele>121.5</ele><time>2026-03-29T08:26:17Z</time></trkpt><trkpt lat="45.39585707253801" lon="10.551767093499318"><ele>121.75</ele><time>2026-03-29T08:26:18Z</time></trkpt><trkpt lat="45.39571431541253" lon="10.551799077402839"><ele>122.0</ele><time>2026-03-29T08:26:19Z</time></trkpt><trkpt lat="45.39558535653163" lon="10.551823956227995"><ele>122.25</ele><time>2026-03-29T08:26:20Z</time></trkpt><trkpt lat="45.395442947177166" lon="10.55179943557539"><ele>122.5</ele><time>2026-03-29T08:26:21Z</time></trkpt><trkpt lat="45.395311381716" lon="10.551751411493917"><ele>122.75</ele><time>2026-03-29T08:26:22Z</time></trkpt><trkpt lat="45.395158473756716" lon="10.551684822674"><ele>123.0</ele><time>2026-03-29T08:26:23Z</time></trkpt><trkpt lat="45.39500310036885" lon="10.551630538640332"><ele>123.0</ele><time>2026-03-29T08:26:24Z</time></trkpt><trkpt lat="45.3948397079637" lon="10.55159881049366"><ele>123.0</ele><time>2026-03-29T08:26:25Z</time></trkpt><trkpt lat="45.394683027736285" lon="10.551561083421829"><ele>123.0</ele><time>2026-03-29T08:26:26Z</time></trkpt><trkpt lat="45.39453871743765" lon="10.5515435859546"><ele>121.0</ele><time>2026-03-29T08:26:27Z</time></trkpt><trkpt lat="45.3943813120594" lon="10.551543563503433"><ele>119.0</ele><time>2026-03-29T08:26:28Z</time></trkpt><trkpt lat="45.39420822041076" lon="10.551587849862987"><ele>117.0</ele><time>2026-03-29T08:26:29Z</time></trkpt><trkpt lat="45.39405519680118" lon="10.551638300445049"><ele>117.0</ele><time>2026-03-29T08:26:30Z</time></trkpt><trkpt lat="45.39391177293088" lon="10.551686790918172"><ele>117.0</ele><time>2026-03-29T08:26:31Z</time></trkpt><trkpt lat="45.3937830008987" lon="10.55171069749411"><ele>117.0</ele><time>2026-03-29T08:26:32Z</time></trkpt><trkpt lat="45.39366009313524" lon="10.551776866221388"><ele>117.0</ele><time>2026-03-29T08:26:33Z</time></trkpt><trkpt lat="45.39353793840013" lon="10.551829660877557"><ele>116.0</ele><time>2026-03-29T08:26:34Z</time></trkpt><trkpt lat="45.3934177887371" lon="10.551888181603287"><ele>114.99999999999999</ele><time>2026-03-29T08:26:35Z</time></trkpt><trkpt lat="45.39331623748733" lon="10.551929333781116"><ele>113.99999999999999</ele><time>2026-03-29T08:26:36Z</time></trkpt><trkpt lat="45.3932234964444" lon="10.551927585935378"><ele>113.0</ele><time>2026-03-29T08:26:37Z</time></trkpt><trkpt lat="45.39315519951992" lon="10.551847726185722"><ele>112.0</ele><time>2026-03-29T08:26:38Z</time></trkpt><trkpt lat="45.393135133514" lon="10.55175977230788"><ele>112.0</ele><time>2026-03-29T08:26:40Z</time></trkpt><trkpt lat="45.39308821154504" lon="10.551698302302762"><ele>111.99999999999999</ele><time>2026-03-29T08:26:41Z</time></trkpt><trkpt lat="45.392997353267425" lon="10.551643067895487"><ele>111.99999999999999</ele><time>2026-03-29T08:26:42Z</time></trkpt><trkpt lat="45.39289419164603" lon="10.55155823033832"><ele>112.0</ele><time>2026-03-29T08:26:43Z</time></trkpt><trkpt lat="45.392761950091085" lon="10.551478427163328"><ele>112.0</ele><time>2026-03-29T08:26:44Z</time></trkpt><trkpt lat="45.39261648903213" lon="10.551415990070575"><ele>111.5</ele><time>2026-03-29T08:26:45Z</time></trkpt><trkpt lat="45.39247039444197" lon="10.551348091602499"><ele>111.0</ele><time>2026-03-29T08:26:46Z</time></trkpt><trkpt lat="45.39233546081954" lon="10.551306810622247"><ele>110.5</ele><time>2026-03-29T08:26:47Z</time></trkpt><trkpt lat="45.392201744503545" lon="10.551254816848227"><ele>110.0</ele><time>2026-03-29T08:26:48Z</time></trkpt><trkpt lat="45.392083731012974" lon="10.551199335443602"><ele>111.5</ele><time>2026-03-29T08:26:49Z</time></trkpt><trkpt lat="45.391965762751" lon="10.551139606232"><ele>113.0</ele><time>2026-03-29T08:26:50Z</time></trkpt><trkpt lat="45.39183608033077" lon="10.551085059675037"><ele>114.5</ele><time>2026-03-29T08:26:51Z</time></trkpt><trkpt lat="45.39170816814921" lon="10.551037517629736"><ele>116.0</ele><time>2026-03-29T08:26:52Z</time></trkpt><trkpt lat="45.391580553115816" lon="10.550996619268622"><ele>116.0</ele><time>2026-03-29T08:26:53Z</time></trkpt><trkpt lat="45.39146200853232" lon="10.550951125202632"><ele>116.0</ele><time>2026-03-29T08:26:54Z</time></trkpt><trkpt lat="45.39134067702353" lon="10.550899166193611"><ele>116.0</ele><time>2026-03-29T08:26:55Z</time></trkpt><trkpt lat="45.39122789199972" lon="10.550840413724666"><ele>116.0</ele><time>2026-03-29T08:26:56Z</time></trkpt><trkpt lat="45.3911050897973" lon="10.550786570990239"><ele>116.6</ele><time>2026-03-29T08:26:57Z</time></trkpt><trkpt lat="45.39098366708438" lon="10.550737103194392"><ele>117.19999999999999</ele><time>2026-03-29T08:26:58Z</time></trkpt><trkpt lat="45.39086709939805" lon="10.550661432193978"><ele>117.80000000000001</ele><time>2026-03-29T08:26:59Z</time></trkpt><trkpt lat="45.39077021483574" lon="10.550631257846822"><ele>118.4</ele><time>2026-03-29T08:27:00Z</time></trkpt><trkpt lat="45.39070031393238" lon="10.550570237111797"><ele>119.0</ele><time>2026-03-29T08:27:01Z</time></trkpt><trkpt lat="45.39065938097776" lon="10.550482396502526"><ele>119.0</ele><time>2026-03-29T08:27:02Z</time></trkpt><trkpt lat="45.39064240422921" lon="10.550374903131388"><ele>119.0</ele><time>2026-03-29T08:27:03Z</time></trkpt><trkpt lat="45.390612549940364" lon="10.550229737117633"><ele>119.0</ele><time>2026-03-29T08:27:04Z</time></trkpt><trkpt lat="45.39056557822555" lon="10.55003363776486"><ele>119.0</ele><time>2026-03-29T08:27:05Z</time></trkpt><trkpt lat="45.39051781288056" lon="10.549830446235797"><ele>121.0</ele><time>2026-03-29T08:27:06Z</time></trkpt><trkpt lat="45.3904650610639" lon="10.54960892503053"><ele>123.0</ele><time>2026-03-29T08:27:07Z</time></trkpt><trkpt lat="45.39040666727885" lon="10.549363711411306"><ele>125.0</ele><time>2026-03-29T08:27:08Z</time></trkpt><trkpt lat="45.39034451654775" lon="10.54910988890507"><ele>125.0</ele><time>2026-03-29T08:27:09Z</time></trkpt><trkpt lat="45.39026872621723" lon="10.54886949202465"><ele>125.0</ele><time>2026-03-29T08:27:10Z</time></trkpt><trkpt lat="45.39020471393656" lon="10.548612187232463"><ele>125.0</ele><time>2026-03-29T08:27:11Z</time></trkpt><trkpt lat="45.39014748987749" lon="10.548339512845569"><ele>123.33333333333333</ele><time>2026-03-29T08:27:12Z</time></trkpt><trkpt lat="45.3900849940096" lon="10.548099588724217"><ele>121.66666666666666</ele><time>2026-03-29T08:27:13Z</time></trkpt><trkpt lat="45.39001758413961" lon="10.54784748818965"><ele>120.0</ele><time>2026-03-29T08:27:14Z</time></trkpt><trkpt lat="45.38995298343371" lon="10.547618312878653"><ele>120.0</ele><time>2026-03-29T08:27:15Z</time></trkpt><trkpt lat="45.38988419770403" lon="10.547395777696225"><ele>120.0</ele><time>2026-03-29T08:27:16Z</time></trkpt><trkpt lat="45.3897985511118" lon="10.547193229880426"><ele>120.0</ele><time>2026-03-29T08:27:17Z</time></trkpt><trkpt lat="45.38972903581048" lon="10.54698386764598"><ele>119.75</ele><time>2026-03-29T08:27:18Z</time></trkpt><trkpt lat="45.38965863065467" lon="10.546785181339507"><ele>119.5</ele><time>2026-03-29T08:27:19Z</time></trkpt><trkpt lat="45.3895978936347" lon="10.546608197932972"><ele>119.25</ele><time>2026-03-29T08:27:20Z</time></trkpt><trkpt lat="45.38953703872556" lon="10.546436671251769"><ele>119.0</ele><time>2026-03-29T08:27:21Z</time></trkpt><trkpt lat="45.389477657847756" lon="10.54626336643425"><ele>120.5</ele><time>2026-03-29T08:27:22Z</time></trkpt><trkpt lat="45.38942021861013" lon="10.546095935285273"><ele>122.0</ele><time>2026-03-29T08:27:23Z</time></trkpt><trkpt lat="45.389364637239" lon="10.545920816048197"><ele>123.5</ele><time>2026-03-29T08:27:24Z</time></trkpt><trkpt lat="45.38930687236396" lon="10.545752322465626"><ele>125.0</ele><time>2026-03-29T08:27:25Z</time></trkpt><trkpt lat="45.38924985304579" lon="10.545585392796111"><ele>125.0</ele><time>2026-03-29T08:27:26Z</time></trkpt><trkpt lat="45.389177304150564" lon="10.545447989901263"><ele>125.0</ele><time>2026-03-29T08:27:27Z</time></trkpt><trkpt lat="45.389133444843246" lon="10.545300316921233"><ele>125.0</ele><time>2026-03-29T08:27:28Z</time></trkpt><trkpt lat="45.38909739569916" lon="10.5451911892286"><ele>125.0</ele><time>2026-03-29T08:27:29Z</time></trkpt><trkpt lat="45.3890656089496" lon="10.54502911162445"><ele>125.0</ele><time>2026-03-29T08:27:31Z</time></trkpt><trkpt lat="45.38888912378354" lon="10.544982294223079"><ele>125.5</ele><time>2026-03-29T08:27:34Z</time></trkpt><trkpt lat="45.38879522699803" lon="10.545118842294535"><ele>126.0</ele><time>2026-03-29T08:27:36Z</time></trkpt><trkpt lat="45.38873687169879" lon="10.545223218159832"><ele>126.5</ele><time>2026-03-29T08:27:37Z</time></trkpt><trkpt lat="45.388658347435346" lon="10.545365156337292"><ele>127.0</ele><time>2026-03-29T08:27:38Z</time></trkpt><trkpt lat="45.388551689731" lon="10.545519615326562"><ele>125.66666666666667</ele><time>2026-03-29T08:27:39Z</time></trkpt><trkpt lat="45.38844749150267" lon="10.5456684180661"><ele>124.33333333333334</ele><time>2026-03-29T08:27:40Z</time></trkpt><trkpt lat="45.38833668099797" lon="10.545833683909889"><ele>123.0</ele><time>2026-03-29T08:27:41Z</time></trkpt><trkpt lat="45.38820500976295" lon="10.545967877358795"><ele>123.0</ele><time>2026-03-29T08:27:42Z</time></trkpt><trkpt lat="45.388067994630326" lon="10.546111799257568"><ele>123.0</ele><time>2026-03-29T08:27:43Z</time></trkpt><trkpt lat="45.387943694719404" lon="10.546256841242043"><ele>123.0</ele><time>2026-03-29T08:27:44Z</time></trkpt><trkpt lat="45.3878107133276" lon="10.546391473693328"><ele>123.33333333333334</ele><time>2026-03-29T08:27:45Z</time></trkpt><trkpt lat="45.38766418526721" lon="10.546545308582212"><ele>123.66666666666667</ele><time>2026-03-29T08:27:46Z</time></trkpt><trkpt lat="45.38751053487896" lon="10.546720409376947"><ele>124.0</ele><time>2026-03-29T08:27:47Z</time></trkpt><trkpt lat="45.38735264794121" lon="10.546875156839002"><ele>124.0</ele><time>2026-03-29T08:27:48Z</time></trkpt><trkpt lat="45.38718749850105" lon="10.547019597663722"><ele>124.0</ele><time>2026-03-29T08:27:49Z</time></trkpt><trkpt lat="45.387025339403166" lon="10.54718216387901"><ele>124.0</ele><time>2026-03-29T08:27:50Z</time></trkpt><trkpt lat="45.386877236105775" lon="10.547333630606095"><ele>124.33333333333334</ele><time>2026-03-29T08:27:51Z</time></trkpt><trkpt lat="45.386720773356124" lon="10.547488962250183"><ele>124.66666666666666</ele><time>2026-03-29T08:27:52Z</time></trkpt><trkpt lat="45.38658639224872" lon="10.547625849390398"><ele>125.0</ele><time>2026-03-29T08:27:53Z</time></trkpt><trkpt lat="45.38645737812234" lon="10.547766700821821"><ele>125.0</ele><time>2026-03-29T08:27:54Z</time></trkpt><trkpt lat="45.38631507018877" lon="10.547921013210694"><ele>125.0</ele><time>2026-03-29T08:27:55Z</time></trkpt><trkpt lat="45.38617916370326" lon="10.54806870097561"><ele>125.0</ele><time>2026-03-29T08:27:56Z</time></trkpt><trkpt lat="45.38604634181736" lon="10.548192986228138"><ele>125.0</ele><time>2026-03-29T08:27:57Z</time></trkpt><trkpt lat="45.38591581743325" lon="10.54829166590487"><ele>125.0</ele><time>2026-03-29T08:27:58Z</time></trkpt><trkpt lat="45.38580813487494" lon="10.54835378952415"><ele>125.0</ele><time>2026-03-29T08:27:59Z</time></trkpt><trkpt lat="45.38572029615351" lon="10.548410374107684"><ele>125.0</ele><time>2026-03-29T08:28:00Z</time></trkpt><trkpt lat="45.38563736030034" lon="10.548505742417387"><ele>125.0</ele><time>2026-03-29T08:28:01Z</time></trkpt><trkpt lat="45.3855575310965" lon="10.548627671634348"><ele>125.0</ele><time>2026-03-29T08:28:02Z</time></trkpt><trkpt lat="45.38547390733429" lon="10.548761227441998"><ele>125.0</ele><time>2026-03-29T08:28:03Z</time></trkpt><trkpt lat="45.385388606823476" lon="10.548895679867337"><ele>125.0</ele><time>2026-03-29T08:28:04Z</time></trkpt><trkpt lat="45.38528124159302" lon="10.54904802128585"><ele>126.0</ele><time>2026-03-29T08:28:05Z</time></trkpt><trkpt lat="45.3851668405433" lon="10.549208335994667"><ele>127.0</ele><time>2026-03-29T08:28:06Z</time></trkpt><trkpt lat="45.38504760473309" lon="10.549338131310279"><ele>128.0</ele><time>2026-03-29T08:28:07Z</time></trkpt><trkpt lat="45.38494220349641" lon="10.549442547230486"><ele>129.0</ele><time>2026-03-29T08:28:08Z</time></trkpt><trkpt lat="45.38484618798671" lon="10.549533949067065"><ele>129.75</ele><time>2026-03-29T08:28:09Z</time></trkpt><trkpt lat="45.384732709784274" lon="10.549604734109515"><ele>130.5</ele><time>2026-03-29T08:28:10Z</time></trkpt><trkpt lat="45.38461274750148" lon="10.549688044858566"><ele>131.25</ele><time>2026-03-29T08:28:11Z</time></trkpt><trkpt lat="45.38450160999897" lon="10.5497801513211"><ele>132.0</ele><time>2026-03-29T08:28:12Z</time></trkpt><trkpt lat="45.384365793006566" lon="10.549853340077386"><ele>132.66666666666666</ele><time>2026-03-29T08:28:13Z</time></trkpt><trkpt lat="45.384215059286156" lon="10.549900467627383"><ele>133.33333333333331</ele><time>2026-03-29T08:28:14Z</time></trkpt><trkpt lat="45.38406316327607" lon="10.549969868152667"><ele>134.0</ele><time>2026-03-29T08:28:15Z</time></trkpt><trkpt lat="45.38391015976908" lon="10.550060780373483"><ele>132.0</ele><time>2026-03-29T08:28:16Z</time></trkpt><trkpt lat="45.383764651543835" lon="10.550144481501453"><ele>130.0</ele><time>2026-03-29T08:28:17Z</time></trkpt><trkpt lat="45.3836105602693" lon="10.550253051314732"><ele>128.0</ele><time>2026-03-29T08:28:18Z</time></trkpt><trkpt lat="45.383466452966694" lon="10.550340908570131"><ele>128.25</ele><time>2026-03-29T08:28:19Z</time></trkpt><trkpt lat="45.38334015851515" lon="10.550467363098594"><ele>128.5</ele><time>2026-03-29T08:28:20Z</time></trkpt><trkpt lat="45.383226875157966" lon="10.550562614472888"><ele>128.75</ele><time>2026-03-29T08:28:21Z</time></trkpt><trkpt lat="45.383107460676406" lon="10.550669812328174"><ele>129.0</ele><time>2026-03-29T08:28:22Z</time></trkpt><trkpt lat="45.38300297008539" lon="10.550775841897003"><ele>128.33333333333334</ele><time>2026-03-29T08:28:23Z</time></trkpt><trkpt lat="45.382869451540735" lon="10.55086471908801"><ele>127.66666666666667</ele><time>2026-03-29T08:28:24Z</time></trkpt><trkpt lat="45.38273116154879" lon="10.550961448846571"><ele>127.0</ele><time>2026-03-29T08:28:25Z</time></trkpt><trkpt lat="45.3825716328507" lon="10.551054724568077"><ele>127.0</ele><time>2026-03-29T08:28:26Z</time></trkpt><trkpt lat="45.38239010247319" lon="10.551143719156359"><ele>127.0</ele><time>2026-03-29T08:28:27Z</time></trkpt><trkpt lat="45.382211839234884" lon="10.551226365563982"><ele>127.0</ele><time>2026-03-29T08:28:28Z</time></trkpt><trkpt lat="45.38204404878343" lon="10.551304973251387"><ele>126.33333333333334</ele><time>2026-03-29T08:28:29Z</time></trkpt><trkpt lat="45.38188475729909" lon="10.551380557905125"><ele>125.66666666666666</ele><time>2026-03-29T08:28:30Z</time></trkpt><trkpt lat="45.38171860004579" lon="10.551483389493406"><ele>125.0</ele><time>2026-03-29T08:28:31Z</time></trkpt><trkpt lat="45.3815478250681" lon="10.551561832171792"><ele>125.0</ele><time>2026-03-29T08:28:32Z</time></trkpt><trkpt lat="45.38141163088864" lon="10.551673086549732"><ele>125.0</ele><time>2026-03-29T08:28:33Z</time></trkpt><trkpt lat="45.38126347716547" lon="10.551754497124215"><ele>125.0</ele><time>2026-03-29T08:28:34Z</time></trkpt><trkpt lat="45.381124256645585" lon="10.551870439808765"><ele>124.75</ele><time>2026-03-29T08:28:35Z</time></trkpt><trkpt lat="45.38100379091307" lon="10.551997618249146"><ele>124.5</ele><time>2026-03-29T08:28:36Z</time></trkpt><trkpt lat="45.38087909043511" lon="10.552070836972183"><ele>124.25</ele><time>2026-03-29T08:28:37Z</time></trkpt><trkpt lat="45.38076674233931" lon="10.552174632670333"><ele>124.0</ele><time>2026-03-29T08:28:38Z</time></trkpt><trkpt lat="45.380666486202436" lon="10.552252301709446"><ele>124.0</ele><time>2026-03-29T08:28:39Z</time></trkpt><trkpt lat="45.38056734467906" lon="10.552320061285457"><ele>124.0</ele><time>2026-03-29T08:28:40Z</time></trkpt><trkpt lat="45.380494416773274" lon="10.552399624189464"><ele>124.0</ele><time>2026-03-29T08:28:41Z</time></trkpt><trkpt lat="45.38043333413156" lon="10.552495112917281"><ele>124.0</ele><time>2026-03-29T08:28:42Z</time></trkpt><trkpt lat="45.38038390055279" lon="10.552601549084695"><ele>124.0</ele><time>2026-03-29T08:28:43Z</time></trkpt><trkpt lat="45.38036416827544" lon="10.552730324005779"><ele>123.80000000000001</ele><time>2026-03-29T08:28:44Z</time></trkpt><trkpt lat="45.380355672676366" lon="10.552882665944521"><ele>123.60000000000001</ele><time>2026-03-29T08:28:45Z</time></trkpt><trkpt lat="45.38035047885018" lon="10.553020353004616"><ele>123.4</ele><time>2026-03-29T08:28:46Z</time></trkpt><trkpt lat="45.38035744344343" lon="10.553177163350796"><ele>123.2</ele><time>2026-03-29T08:28:47Z</time></trkpt><trkpt lat="45.38035241678979" lon="10.55328302189582"><ele>123.0</ele><time>2026-03-29T08:28:48Z</time></trkpt><trkpt lat="45.38036495431346" lon="10.553371380247818"><ele>123.0</ele><time>2026-03-29T08:28:49Z</time></trkpt><trkpt lat="45.380413260889405" lon="10.553446645625215"><ele>123.00000000000001</ele><time>2026-03-29T08:28:50Z</time></trkpt><trkpt lat="45.38047753196215" lon="10.553517904246862"><ele>123.00000000000001</ele><time>2026-03-29T08:28:51Z</time></trkpt><trkpt lat="45.38054840941924" lon="10.553597605621134"><ele>123.0</ele><time>2026-03-29T08:28:52Z</time></trkpt><trkpt lat="45.38062067307071" lon="10.553720501207339"><ele>123.0</ele><time>2026-03-29T08:28:53Z</time></trkpt><trkpt lat="45.380699538085814" lon="10.553843934870196"><ele>123.2</ele><time>2026-03-29T08:28:54Z</time></trkpt><trkpt lat="45.3807531756267" lon="10.55397029648906"><ele>123.4</ele><time>2026-03-29T08:28:55Z</time></trkpt><trkpt lat="45.380759560985794" lon="10.55409520871417"><ele>123.60000000000001</ele><time>2026-03-29T08:28:56Z</time></trkpt><trkpt lat="45.38074254757707" lon="10.554225852289868"><ele>123.80000000000001</ele><time>2026-03-29T08:28:57Z</time></trkpt><trkpt lat="45.380708163519635" lon="10.554365376449264"><ele>124.0</ele><time>2026-03-29T08:28:58Z</time></trkpt><trkpt lat="45.3806472452829" lon="10.554510836642217"><ele>124.33333333333334</ele><time>2026-03-29T08:28:59Z</time></trkpt><trkpt lat="45.3805705212771" lon="10.554674079571312"><ele>124.66666666666666</ele><time>2026-03-29T08:29:00Z</time></trkpt><trkpt lat="45.38048750833945" lon="10.554858536098243"><ele>125.0</ele><time>2026-03-29T08:29:01Z</time></trkpt><trkpt lat="45.38040063812136" lon="10.555046094401257"><ele>125.0</ele><time>2026-03-29T08:29:02Z</time></trkpt><trkpt lat="45.380327881931066" lon="10.55524979056559"><ele>125.0</ele><time>2026-03-29T08:29:03Z</time></trkpt><trkpt lat="45.38026243322666" lon="10.555428563201792"><ele>125.0</ele><time>2026-03-29T08:29:04Z</time></trkpt><trkpt lat="45.380212268048176" lon="10.555567800235734"><ele>125.0</ele><time>2026-03-29T08:29:05Z</time></trkpt><trkpt lat="45.38017465351576" lon="10.555666845954999"><ele>125.6</ele><time>2026-03-29T08:29:06Z</time></trkpt><trkpt lat="45.3801290653147" lon="10.555801150788295"><ele>126.2</ele><time>2026-03-29T08:29:08Z</time></trkpt><trkpt lat="45.380050059115845" lon="10.555943095266588"><ele>126.80000000000001</ele><time>2026-03-29T08:29:10Z</time></trkpt><trkpt lat="45.379974600899864" lon="10.556023475720393"><ele>127.4</ele><time>2026-03-29T08:29:11Z</time></trkpt><trkpt lat="45.37988671138073" lon="10.556126567133145"><ele>128.0</ele><time>2026-03-29T08:29:12Z</time></trkpt><trkpt lat="45.3797865434097" lon="10.556247367449986"><ele>128.0</ele><time>2026-03-29T08:29:13Z</time></trkpt><trkpt lat="45.37966229517177" lon="10.556364358470807"><ele>128.0</ele><time>2026-03-29T08:29:14Z</time></trkpt><trkpt lat="45.37950584123739" lon="10.556494638368743"><ele>128.0</ele><time>2026-03-29T08:29:15Z</time></trkpt><trkpt lat="45.37935780232133" lon="10.556640588596101"><ele>128.0</ele><time>2026-03-29T08:29:16Z</time></trkpt><trkpt lat="45.379237699427605" lon="10.556783188940537"><ele>128.0</ele><time>2026-03-29T08:29:17Z</time></trkpt><trkpt lat="45.37914055981271" lon="10.556932542598426"><ele>128.0</ele><time>2026-03-29T08:29:18Z</time></trkpt><trkpt lat="45.37904652557146" lon="10.557100857251182"><ele>128.33333333333331</ele><time>2026-03-29T08:29:19Z</time></trkpt><trkpt lat="45.3789594149004" lon="10.557294462443418"><ele>128.66666666666666</ele><time>2026-03-29T08:29:20Z</time></trkpt><trkpt lat="45.37886814868237" lon="10.557502247597233"><ele>129.0</ele><time>2026-03-29T08:29:21Z</time></trkpt><trkpt lat="45.378781986593104" lon="10.557703560807328"><ele>129.5</ele><time>2026-03-29T08:29:22Z</time></trkpt><trkpt lat="45.378703840818034" lon="10.557895853309548"><ele>130.0</ele><time>2026-03-29T08:29:23Z</time></trkpt><trkpt lat="45.37864693105891" lon="10.558054053726206"><ele>130.5</ele><time>2026-03-29T08:29:24Z</time></trkpt><trkpt lat="45.37859558224075" lon="10.558189274253388"><ele>131.0</ele><time>2026-03-29T08:29:25Z</time></trkpt><trkpt lat="45.3785555241663" lon="10.558299823202237"><ele>131.0</ele><time>2026-03-29T08:29:26Z</time></trkpt><trkpt lat="45.37850044415319" lon="10.558424025639736"><ele>131.0</ele><time>2026-03-29T08:29:28Z</time></trkpt><trkpt lat="45.37860366319368" lon="10.558577999901223"><ele>131.0</ele><time>2026-03-29T08:29:32Z</time></trkpt><trkpt lat="45.3787244057957" lon="10.55863207827641"><ele>131.0</ele><time>2026-03-29T08:29:33Z</time></trkpt><trkpt lat="45.37884504051293" lon="10.558715221564583"><ele>130.33333333333331</ele><time>2026-03-29T08:29:34Z</time></trkpt><trkpt lat="45.378973554752484" lon="10.558819366549965"><ele>129.66666666666666</ele><time>2026-03-29T08:29:35Z</time></trkpt><trkpt lat="45.37910246753587" lon="10.558925491903855"><ele>129.0</ele><time>2026-03-29T08:29:36Z</time></trkpt><trkpt lat="45.37922582187976" lon="10.559058018765151"><ele>129.0</ele><time>2026-03-29T08:29:37Z</time></trkpt><trkpt lat="45.379336818017755" lon="10.559156852176937"><ele>129.0</ele><time>2026-03-29T08:29:38Z</time></trkpt><trkpt lat="45.37941685097193" lon="10.559282873308652"><ele>129.0</ele><time>2026-03-29T08:29:39Z</time></trkpt><trkpt lat="45.379477766218216" lon="10.559447530815422"><ele>129.0</ele><time>2026-03-29T08:29:40Z</time></trkpt><trkpt lat="45.37955039311427" lon="10.55965154972882"><ele>128.33333333333334</ele><time>2026-03-29T08:29:41Z</time></trkpt><trkpt lat="45.379634614345065" lon="10.559877090332417"><ele>127.66666666666667</ele><time>2026-03-29T08:29:42Z</time></trkpt><trkpt lat="45.37973205477579" lon="10.56008351557537"><ele>127.0</ele><time>2026-03-29T08:29:43Z</time></trkpt><trkpt lat="45.379807783729134" lon="10.560254900369126"><ele>125.5</ele><time>2026-03-29T08:29:44Z</time></trkpt><trkpt lat="45.379881103263706" lon="10.560407067682267"><ele>124.0</ele><time>2026-03-29T08:29:45Z</time></trkpt><trkpt lat="45.37996507505236" lon="10.560525519391982"><ele>122.5</ele><time>2026-03-29T08:29:46Z</time></trkpt><trkpt lat="45.38008269687667" lon="10.560620358762657"><ele>121.0</ele><time>2026-03-29T08:29:47Z</time></trkpt><trkpt lat="45.38024772471507" lon="10.560690593886923"><ele>121.0</ele><time>2026-03-29T08:29:48Z</time></trkpt><trkpt lat="45.38042190477574" lon="10.560747816743607"><ele>121.0</ele><time>2026-03-29T08:29:49Z</time></trkpt><trkpt lat="45.380614351717455" lon="10.560829120386385"><ele>121.0</ele><time>2026-03-29T08:29:50Z</time></trkpt><trkpt lat="45.380824599477414" lon="10.560896372528326"><ele>120.0</ele><time>2026-03-29T08:29:51Z</time></trkpt><trkpt lat="45.38103005160063" lon="10.560961030652111"><ele>119.0</ele><time>2026-03-29T08:29:52Z</time></trkpt><trkpt lat="45.3812540717157" lon="10.561029489502424"><ele>118.0</ele><time>2026-03-29T08:29:53Z</time></trkpt><trkpt lat="45.38147729294858" lon="10.56109743461384"><ele>116.66666666666667</ele><time>2026-03-29T08:29:54Z</time></trkpt><trkpt lat="45.381677640238074" lon="10.561139929728308"><ele>115.33333333333334</ele><time>2026-03-29T08:29:55Z</time></trkpt><trkpt lat="45.38184918802182" lon="10.56119615955037"><ele>114.0</ele><time>2026-03-29T08:29:56Z</time></trkpt><trkpt lat="45.381987461662035" lon="10.561234136491226"><ele>113.75</ele><time>2026-03-29T08:29:57Z</time></trkpt><trkpt lat="45.38211410290137" lon="10.56125423632456"><ele>113.5</ele><time>2026-03-29T08:29:58Z</time></trkpt><trkpt lat="45.38224226278983" lon="10.561230931437457"><ele>113.25</ele><time>2026-03-29T08:29:59Z</time></trkpt><trkpt lat="45.38237221326201" lon="10.561147217956966"><ele>113.0</ele><time>2026-03-29T08:30:00Z</time></trkpt><trkpt lat="45.382497999870196" lon="10.561011947415755"><ele>112.66666666666666</ele><time>2026-03-29T08:30:01Z</time></trkpt><trkpt lat="45.382635103115504" lon="10.560863578369837"><ele>112.33333333333334</ele><time>2026-03-29T08:30:02Z</time></trkpt><trkpt lat="45.38278534370292" lon="10.560683575929618"><ele>112.0</ele><time>2026-03-29T08:30:03Z</time></trkpt><trkpt lat="45.382932591175646" lon="10.560521511931405"><ele>111.5</ele><time>2026-03-29T08:30:04Z</time></trkpt><trkpt lat="45.38306287539317" lon="10.560401552954248"><ele>111.0</ele><time>2026-03-29T08:30:05Z</time></trkpt><trkpt lat="45.38318859703187" lon="10.560322495591654"><ele>110.5</ele><time>2026-03-29T08:30:06Z</time></trkpt><trkpt lat="45.383316749689556" lon="10.56029722837418"><ele>110.0</ele><time>2026-03-29T08:30:07Z</time></trkpt><trkpt lat="45.38345679910276" lon="10.560306699998389"><ele>110.0</ele><time>2026-03-29T08:30:08Z</time></trkpt><trkpt lat="45.38362342175094" lon="10.56035100324407"><ele>110.0</ele><time>2026-03-29T08:30:09Z</time></trkpt><trkpt lat="45.383819930575456" lon="10.560408511560633"><ele>110.0</ele><time>2026-03-29T08:30:10Z</time></trkpt><trkpt lat="45.38402681163081" lon="10.560472218002749"><ele>109.33333333333333</ele><time>2026-03-29T08:30:11Z</time></trkpt><trkpt lat="45.38424333385159" lon="10.560516599426157"><ele>108.66666666666666</ele><time>2026-03-29T08:30:12Z</time></trkpt><trkpt lat="45.38446452530154" lon="10.560586241276587"><ele>108.0</ele><time>2026-03-29T08:30:13Z</time></trkpt><trkpt lat="45.384685539952564" lon="10.560682551146018"><ele>107.0</ele><time>2026-03-29T08:30:14Z</time></trkpt><trkpt lat="45.384909380524206" lon="10.560755815225574"><ele>106.0</ele><time>2026-03-29T08:30:15Z</time></trkpt><trkpt lat="45.38514415712649" lon="10.56083365332035"><ele>106.0</ele><time>2026-03-29T08:30:16Z</time></trkpt><trkpt lat="45.385377769908736" lon="10.560883646908596"><ele>106.0</ele><time>2026-03-29T08:30:17Z</time></trkpt><trkpt lat="45.385609889019925" lon="10.560959679229951"><ele>105.0</ele><time>2026-03-29T08:30:18Z</time></trkpt><trkpt lat="45.385843672881734" lon="10.561060736263189"><ele>104.0</ele><time>2026-03-29T08:30:19Z</time></trkpt><trkpt lat="45.38607691114181" lon="10.561140033552325"><ele>104.0</ele><time>2026-03-29T08:30:20Z</time></trkpt><trkpt lat="45.38630124986349" lon="10.56121622180203"><ele>104.0</ele><time>2026-03-29T08:30:21Z</time></trkpt><trkpt lat="45.38651848431583" lon="10.561290038344572"><ele>104.66666666666666</ele><time>2026-03-29T08:30:22Z</time></trkpt><trkpt lat="45.38671757101313" lon="10.561357595968285"><ele>105.33333333333334</ele><time>2026-03-29T08:30:23Z</time></trkpt><trkpt lat="45.38690162815918" lon="10.561396570776115"><ele>106.0</ele><time>2026-03-29T08:30:24Z</time></trkpt><trkpt lat="45.3870658582606" lon="10.561447967010277"><ele>107.33333333333334</ele><time>2026-03-29T08:30:25Z</time></trkpt><trkpt lat="45.387222110968935" lon="10.561487096402049"><ele>108.66666666666666</ele><time>2026-03-29T08:30:26Z</time></trkpt><trkpt lat="45.38738386625497" lon="10.561504102087751"><ele>110.0</ele><time>2026-03-29T08:30:27Z</time></trkpt><trkpt lat="45.38754780846012" lon="10.561470960697521"><ele>110.0</ele><time>2026-03-29T08:30:28Z</time></trkpt><trkpt lat="45.38770851884274" lon="10.561387558730397"><ele>110.0</ele><time>2026-03-29T08:30:29Z</time></trkpt><trkpt lat="45.387851696456785" lon="10.561276603044774"><ele>110.0</ele><time>2026-03-29T08:30:30Z</time></trkpt><trkpt lat="45.3880015598631" lon="10.561140479330733"><ele>113.0</ele><time>2026-03-29T08:30:31Z</time></trkpt><trkpt lat="45.388142970089184" lon="10.560998995705974"><ele>116.0</ele><time>2026-03-29T08:30:32Z</time></trkpt><trkpt lat="45.388273699329275" lon="10.560877959424479"><ele>119.0</ele><time>2026-03-29T08:30:33Z</time></trkpt><trkpt lat="45.388402049251795" lon="10.560785619655372"><ele>119.0</ele><time>2026-03-29T08:30:34Z</time></trkpt><trkpt lat="45.38853534106212" lon="10.560743406364042"><ele>119.0</ele><time>2026-03-29T08:30:35Z</time></trkpt><trkpt lat="45.38867708214574" lon="10.560776190018897"><ele>119.0</ele><time>2026-03-29T08:30:36Z</time></trkpt><trkpt lat="45.38883342117139" lon="10.56081432102771"><ele>119.0</ele><time>2026-03-29T08:30:37Z</time></trkpt><trkpt lat="45.388998139327995" lon="10.560841842839183"><ele>120.66666666666666</ele><time>2026-03-29T08:30:38Z</time></trkpt><trkpt lat="45.38918065559739" lon="10.560898386917899"><ele>122.33333333333334</ele><time>2026-03-29T08:30:39Z</time></trkpt><trkpt lat="45.3893650154809" lon="10.560955998697501"><ele>124.0</ele><time>2026-03-29T08:30:40Z</time></trkpt><trkpt lat="45.3895493615497" lon="10.561021382962586"><ele>122.33333333333334</ele><time>2026-03-29T08:30:41Z</time></trkpt><trkpt lat="45.38970650879739" lon="10.561094609771615"><ele>120.66666666666666</ele><time>2026-03-29T08:30:42Z</time></trkpt><trkpt lat="45.38987591644437" lon="10.56114987379157"><ele>119.0</ele><time>2026-03-29T08:30:43Z</time></trkpt><trkpt lat="45.39006382015014" lon="10.561206771602457"><ele>119.0</ele><time>2026-03-29T08:30:44Z</time></trkpt><trkpt lat="45.390255985755" lon="10.561264712778941"><ele>119.0</ele><time>2026-03-29T08:30:45Z</time></trkpt><trkpt lat="45.39043351847805" lon="10.561323442266023"><ele>119.0</ele><time>2026-03-29T08:30:46Z</time></trkpt><trkpt lat="45.39060074042042" lon="10.561380215326858"><ele>118.25</ele><time>2026-03-29T08:30:47Z</time></trkpt><trkpt lat="45.39075602525393" lon="10.561428769410568"><ele>117.5</ele><time>2026-03-29T08:30:48Z</time></trkpt><trkpt lat="45.39089045138485" lon="10.56144463124272"><ele>116.75</ele><time>2026-03-29T08:30:49Z</time></trkpt><trkpt lat="45.39099058702007" lon="10.561494033545658"><ele>116.0</ele><time>2026-03-29T08:30:50Z</time></trkpt><trkpt lat="45.39108251747403" lon="10.561486124316183"><ele>115.99999999999999</ele><time>2026-03-29T08:30:51Z</time></trkpt><trkpt lat="45.391152784286824" lon="10.561512130995855"><ele>116.0</ele><time>2026-03-29T08:30:52Z</time></trkpt><trkpt lat="45.391238992025514" lon="10.5615101267055"><ele>116.0</ele><time>2026-03-29T08:30:53Z</time></trkpt><trkpt lat="45.39134556847149" lon="10.56150852548372"><ele>116.0</ele><time>2026-03-29T08:30:54Z</time></trkpt><trkpt lat="45.39143985590244" lon="10.561505574160051"><ele>115.99999999999999</ele><time>2026-03-29T08:30:55Z</time></trkpt><trkpt lat="45.391504862230576" lon="10.561501600669416"><ele>116.0</ele><time>2026-03-29T08:30:56Z</time></trkpt><trkpt lat="45.39155172860434" lon="10.561655310313833"><ele>116.0</ele><time>2026-03-29T08:30:59Z</time></trkpt><trkpt lat="45.39151635485588" lon="10.561770517064225"><ele>116.0</ele><time>2026-03-29T08:31:00Z</time></trkpt><trkpt lat="45.39144954569097" lon="10.561911595392328"><ele>116.0</ele><time>2026-03-29T08:31:01Z</time></trkpt><trkpt lat="45.391367287640676" lon="10.56207110493376"><ele>116.0</ele><time>2026-03-29T08:31:02Z</time></trkpt><trkpt lat="45.391282179294535" lon="10.562286217471954"><ele>116.0</ele><time>2026-03-29T08:31:03Z</time></trkpt><trkpt lat="45.39119182106656" lon="10.562495201028304"><ele>116.0</ele><time>2026-03-29T08:31:04Z</time></trkpt><trkpt lat="45.391128391290785" lon="10.562689789466083"><ele>116.0</ele><time>2026-03-29T08:31:05Z</time></trkpt><trkpt lat="45.39109557047797" lon="10.562888043160767"><ele>116.33333333333333</ele><time>2026-03-29T08:31:06Z</time></trkpt><trkpt lat="45.39109208536817" lon="10.563092742995254"><ele>116.66666666666666</ele><time>2026-03-29T08:31:07Z</time></trkpt><trkpt lat="45.39110084093212" lon="10.563327272679977"><ele>117.0</ele><time>2026-03-29T08:31:08Z</time></trkpt><trkpt lat="45.39109027348199" lon="10.563582968854762"><ele>116.33333333333334</ele><time>2026-03-29T08:31:09Z</time></trkpt><trkpt lat="45.391060426730554" lon="10.563827800571218"><ele>115.66666666666667</ele><time>2026-03-29T08:31:10Z</time></trkpt><trkpt lat="45.39102643604521" lon="10.564035871569772"><ele>115.0</ele><time>2026-03-29T08:31:11Z</time></trkpt><trkpt lat="45.39099389643396" lon="10.56424085377485"><ele>115.0</ele><time>2026-03-29T08:31:12Z</time></trkpt><trkpt lat="45.39096570671061" lon="10.564445098832582"><ele>115.0</ele><time>2026-03-29T08:31:13Z</time></trkpt><trkpt lat="45.39093038126061" lon="10.564633443883551"><ele>115.0</ele><time>2026-03-29T08:31:14Z</time></trkpt><trkpt lat="45.390890256349415" lon="10.564793284586207"><ele>115.0</ele><time>2026-03-29T08:31:15Z</time></trkpt><trkpt lat="45.39083030875083" lon="10.564961854507185"><ele>115.5</ele><time>2026-03-29T08:31:16Z</time></trkpt><trkpt lat="45.39076565369114" lon="10.565118048113174"><ele>116.0</ele><time>2026-03-29T08:31:17Z</time></trkpt><trkpt lat="45.39070848799953" lon="10.565263407836326"><ele>116.5</ele><time>2026-03-29T08:31:18Z</time></trkpt><trkpt lat="45.390662760590345" lon="10.565406451910569"><ele>117.0</ele><time>2026-03-29T08:31:19Z</time></trkpt><trkpt lat="45.39060043593837" lon="10.56554832546729"><ele>117.0</ele><time>2026-03-29T08:31:20Z</time></trkpt><trkpt lat="45.3905209940322" lon="10.565693308541547"><ele>117.0</ele><time>2026-03-29T08:31:21Z</time></trkpt><trkpt lat="45.39043364714211" lon="10.565838957606466"><ele>117.0</ele><time>2026-03-29T08:31:22Z</time></trkpt><trkpt lat="45.39035903083599" lon="10.565974808678792"><ele>117.0</ele><time>2026-03-29T08:31:23Z</time></trkpt><trkpt lat="45.3902848838174" lon="10.566107403277359"><ele>116.0</ele><time>2026-03-29T08:31:24Z</time></trkpt><trkpt lat="45.39020249569087" lon="10.566252925600756"><ele>115.0</ele><time>2026-03-29T08:31:25Z</time></trkpt><trkpt lat="45.39012840383979" lon="10.566379340245595"><ele>114.0</ele><time>2026-03-29T08:31:26Z</time></trkpt><trkpt lat="45.39004765456714" lon="10.566478673945538"><ele>113.0</ele><time>2026-03-29T08:31:27Z</time></trkpt><trkpt lat="45.389957071106224" lon="10.566562720788296"><ele>113.0</ele><time>2026-03-29T08:31:28Z</time></trkpt><trkpt lat="45.38985722071251" lon="10.56664516461315"><ele>113.0</ele><time>2026-03-29T08:31:29Z</time></trkpt><trkpt lat="45.389751326664275" lon="10.566730158170857"><ele>113.0</ele><time>2026-03-29T08:31:30Z</time></trkpt><trkpt lat="45.38961346369014" lon="10.566798802235791"><ele>113.0</ele><time>2026-03-29T08:31:31Z</time></trkpt><trkpt lat="45.38946366914867" lon="10.566895536504672"><ele>113.33333333333333</ele><time>2026-03-29T08:31:32Z</time></trkpt><trkpt lat="45.38929886846333" lon="10.567002415515622"><ele>113.66666666666666</ele><time>2026-03-29T08:31:33Z</time></trkpt><trkpt lat="45.38913817648235" lon="10.567110355307998"><ele>114.0</ele><time>2026-03-29T08:31:34Z</time></trkpt><trkpt lat="45.389007132602835" lon="10.567228647324976"><ele>114.0</ele><time>2026-03-29T08:31:35Z</time></trkpt><trkpt lat="45.38889291974587" lon="10.56734978258798"><ele>114.0</ele><time>2026-03-29T08:31:36Z</time></trkpt><trkpt lat="45.38877016253415" lon="10.567509133714733"><ele>114.0</ele><time>2026-03-29T08:31:37Z</time></trkpt><trkpt lat="45.388640552057836" lon="10.567658363265929"><ele>114.0</ele><time>2026-03-29T08:31:38Z</time></trkpt><trkpt lat="45.38848733270477" lon="10.567823388539257"><ele>114.0</ele><time>2026-03-29T08:31:39Z</time></trkpt><trkpt lat="45.38832947880687" lon="10.567988006606006"><ele>114.0</ele><time>2026-03-29T08:31:40Z</time></trkpt><trkpt lat="45.388178518369315" lon="10.568165560898656"><ele>113.66666666666666</ele><time>2026-03-29T08:31:41Z</time></trkpt><trkpt lat="45.38802669725074" lon="10.568303565048167"><ele>113.33333333333333</ele><time>2026-03-29T08:31:42Z</time></trkpt><trkpt lat="45.387855316501835" lon="10.568412125267708"><ele>113.0</ele><time>2026-03-29T08:31:43Z</time></trkpt><trkpt lat="45.387706544827175" lon="10.568511588556238"><ele>113.0</ele><time>2026-03-29T08:31:44Z</time></trkpt><trkpt lat="45.38757341586287" lon="10.568648110274323"><ele>113.0</ele><time>2026-03-29T08:31:45Z</time></trkpt><trkpt lat="45.38743825109577" lon="10.568772010256268"><ele>113.0</ele><time>2026-03-29T08:31:46Z</time></trkpt><trkpt lat="45.38731329099773" lon="10.568893531472566"><ele>113.0</ele><time>2026-03-29T08:31:47Z</time></trkpt><trkpt lat="45.387192423287004" lon="10.56899791506967"><ele>113.0</ele><time>2026-03-29T08:31:48Z</time></trkpt><trkpt lat="45.38708259426426" lon="10.569097586762092"><ele>113.0</ele><time>2026-03-29T08:31:49Z</time></trkpt><trkpt lat="45.386969307605746" lon="10.569223212486865"><ele>113.0</ele><time>2026-03-29T08:31:50Z</time></trkpt><trkpt lat="45.386858819907154" lon="10.569374609395917"><ele>113.0</ele><time>2026-03-29T08:31:51Z</time></trkpt><trkpt lat="45.386756188945114" lon="10.56954525245118"><ele>113.0</ele><time>2026-03-29T08:31:52Z</time></trkpt><trkpt lat="45.38665993943096" lon="10.569732330175944"><ele>113.0</ele><time>2026-03-29T08:31:53Z</time></trkpt><trkpt lat="45.386581472541124" lon="10.56990330771589"><ele>113.0</ele><time>2026-03-29T08:31:54Z</time></trkpt><trkpt lat="45.38649871262074" lon="10.570025130078642"><ele>113.0</ele><time>2026-03-29T08:31:55Z</time></trkpt><trkpt lat="45.3864282726186" lon="10.570157813325368"><ele>113.0</ele><time>2026-03-29T08:31:56Z</time></trkpt><trkpt lat="45.38637318445576" lon="10.570321250088272"><ele>113.0</ele><time>2026-03-29T08:31:57Z</time></trkpt><trkpt lat="45.386322397882594" lon="10.570509919906172"><ele>112.0</ele><time>2026-03-29T08:31:58Z</time></trkpt><trkpt lat="45.38628588729344" lon="10.570723633268454"><ele>111.0</ele><time>2026-03-29T08:31:59Z</time></trkpt><trkpt lat="45.38626358674387" lon="10.570917360369366"><ele>110.0</ele><time>2026-03-29T08:32:00Z</time></trkpt><trkpt lat="45.38624113758315" lon="10.5710752710374"><ele>109.0</ele><time>2026-03-29T08:32:01Z</time></trkpt><trkpt lat="45.38622123161716" lon="10.571209038958893"><ele>108.83333333333334</ele><time>2026-03-29T08:32:02Z</time></trkpt><trkpt lat="45.38620553460094" lon="10.571313350594503"><ele>108.66666666666667</ele><time>2026-03-29T08:32:03Z</time></trkpt><trkpt lat="45.386177150838186" lon="10.571418467729057"><ele>108.5</ele><time>2026-03-29T08:32:04Z</time></trkpt><trkpt lat="45.38616939711209" lon="10.57152669394991"><ele>108.33333333333334</ele><time>2026-03-29T08:32:05Z</time></trkpt><trkpt lat="45.38619108628397" lon="10.571629645902341"><ele>108.16666666666667</ele><time>2026-03-29T08:32:06Z</time></trkpt><trkpt lat="45.386205142031336" lon="10.571734313481253"><ele>108.0</ele><time>2026-03-29T08:32:07Z</time></trkpt><trkpt lat="45.38622337236154" lon="10.571843401025907"><ele>108.0</ele><time>2026-03-29T08:32:08Z</time></trkpt><trkpt lat="45.386276141349114" lon="10.571971616467904"><ele>108.0</ele><time>2026-03-29T08:32:10Z</time></trkpt><trkpt lat="45.38633327492276" lon="10.572016360468883"><ele>108.0</ele><time>2026-03-29T08:32:11Z</time></trkpt><trkpt lat="45.38639229207781" lon="10.572077539974542"><ele>108.0</ele><time>2026-03-29T08:32:12Z</time></trkpt><trkpt lat="45.386462907936746" lon="10.572129505759035"><ele>108.0</ele><time>2026-03-29T08:32:13Z</time></trkpt><trkpt lat="45.38653980955569" lon="10.572162164873392"><ele>108.0</ele><time>2026-03-29T08:32:14Z</time></trkpt><trkpt lat="45.386600105669885" lon="10.572203335995919"><ele>107.16666666666667</ele><time>2026-03-29T08:32:15Z</time></trkpt><trkpt lat="45.38665856924157" lon="10.572348018933756"><ele>106.33333333333334</ele><time>2026-03-29T08:32:17Z</time></trkpt><trkpt lat="45.386644177565366" lon="10.572443323297852"><ele>105.5</ele><time>2026-03-29T08:32:18Z</time></trkpt><trkpt lat="45.386615269805745" lon="10.572541431746801"><ele>104.66666666666667</ele><time>2026-03-29T08:32:19Z</time></trkpt><trkpt lat="45.38654367112271" lon="10.572606096220323"><ele>103.83333333333334</ele><time>2026-03-29T08:32:20Z</time></trkpt><trkpt lat="45.38646493359335" lon="10.57267566152165"><ele>103.0</ele><time>2026-03-29T08:32:21Z</time></trkpt><trkpt lat="45.386406495368306" lon="10.572794445408682"><ele>103.0</ele><time>2026-03-29T08:32:22Z</time></trkpt><trkpt lat="45.38636359272887" lon="10.57288856213941"><ele>103.0</ele><time>2026-03-29T08:32:23Z</time></trkpt><trkpt lat="45.38635165620342" lon="10.572989605911403"><ele>103.0</ele><time>2026-03-29T08:32:24Z</time></trkpt><trkpt lat="45.386377969689235" lon="10.573121171901489"><ele>103.0</ele><time>2026-03-29T08:32:25Z</time></trkpt><trkpt lat="45.38640976815478" lon="10.573272399184557"><ele>103.0</ele><time>2026-03-29T08:32:26Z</time></trkpt><trkpt lat="45.386446887238996" lon="10.573471128222476"><ele>102.66666666666667</ele><time>2026-03-29T08:32:27Z</time></trkpt><trkpt lat="45.38648295456825" lon="10.57369788803344"><ele>102.33333333333334</ele><time>2026-03-29T08:32:28Z</time></trkpt><trkpt lat="45.38651337098397" lon="10.573904343534188"><ele>102.0</ele><time>2026-03-29T08:32:29Z</time></trkpt><trkpt lat="45.386539888271585" lon="10.574102304085896"><ele>102.0</ele><time>2026-03-29T08:32:30Z</time></trkpt><trkpt lat="45.386562115941366" lon="10.574280423064014"><ele>102.0</ele><time>2026-03-29T08:32:31Z</time></trkpt><trkpt lat="45.3865739085205" lon="10.57443396192984"><ele>102.0</ele><time>2026-03-29T08:32:32Z</time></trkpt><trkpt lat="45.38656167312758" lon="10.574563784748099"><ele>102.0</ele><time>2026-03-29T08:32:33Z</time></trkpt><trkpt lat="45.38652345828449" lon="10.5746949847759"><ele>102.0</ele><time>2026-03-29T08:32:34Z</time></trkpt><trkpt lat="45.38644780263325" lon="10.574806071718436"><ele>101.75</ele><time>2026-03-29T08:32:35Z</time></trkpt><trkpt lat="45.38637214234069" lon="10.574950910114962"><ele>101.5</ele><time>2026-03-29T08:32:36Z</time></trkpt><trkpt lat="45.38626092176978" lon="10.57508785737384"><ele>101.25</ele><time>2026-03-29T08:32:37Z</time></trkpt><trkpt lat="45.386146155302285" lon="10.575225291778668"><ele>101.0</ele><time>2026-03-29T08:32:38Z</time></trkpt><trkpt lat="45.386050467263814" lon="10.575386281904088"><ele>102.33333333333333</ele><time>2026-03-29T08:32:39Z</time></trkpt><trkpt lat="45.38595866863112" lon="10.575595582499444"><ele>103.66666666666666</ele><time>2026-03-29T08:32:40Z</time></trkpt><trkpt lat="45.38587736807561" lon="10.575834224842355"><ele>105.0</ele><time>2026-03-29T08:32:41Z</time></trkpt><trkpt lat="45.38579915774416" lon="10.576094048210967"><ele>105.66666666666666</ele><time>2026-03-29T08:32:42Z</time></trkpt><trkpt lat="45.38573217342012" lon="10.576338247892865"><ele>106.33333333333333</ele><time>2026-03-29T08:32:43Z</time></trkpt><trkpt lat="45.38567693110834" lon="10.576563895850663"><ele>107.0</ele><time>2026-03-29T08:32:44Z</time></trkpt><trkpt lat="45.38563600202653" lon="10.576797749590623"><ele>107.0</ele><time>2026-03-29T08:32:45Z</time></trkpt><trkpt lat="45.3856026008371" lon="10.57705472117261"><ele>107.0</ele><time>2026-03-29T08:32:46Z</time></trkpt><trkpt lat="45.38557192689161" lon="10.577284361648884"><ele>107.0</ele><time>2026-03-29T08:32:47Z</time></trkpt><trkpt lat="45.38554189086439" lon="10.577512578800276"><ele>106.75</ele><time>2026-03-29T08:32:48Z</time></trkpt><trkpt lat="45.38551045260284" lon="10.577728396826195"><ele>106.5</ele><time>2026-03-29T08:32:49Z</time></trkpt><trkpt lat="45.38548577521253" lon="10.577921016322371"><ele>106.25</ele><time>2026-03-29T08:32:50Z</time></trkpt><trkpt lat="45.38546373106905" lon="10.57809592298859"><ele>106.0</ele><time>2026-03-29T08:32:51Z</time></trkpt><trkpt lat="45.38544264832032" lon="10.578250168948488"><ele>106.00000000000001</ele><time>2026-03-29T08:32:52Z</time></trkpt><trkpt lat="45.3854236054268" lon="10.578373202712058"><ele>106.0</ele><time>2026-03-29T08:32:53Z</time></trkpt><trkpt lat="45.38540918928748" lon="10.578475310970838"><ele>106.0</ele><time>2026-03-29T08:32:54Z</time></trkpt><trkpt lat="45.3853986276284" lon="10.578564795211081"><ele>106.0</ele><time>2026-03-29T08:32:55Z</time></trkpt><trkpt lat="45.385352282813486" lon="10.578655770558374"><ele>106.00000000000001</ele><time>2026-03-29T08:32:57Z</time></trkpt><trkpt lat="45.38523900337705" lon="10.578586697483942"><ele>106.0</ele><time>2026-03-29T08:32:59Z</time></trkpt><trkpt lat="45.38515638678539" lon="10.578553478018893"><ele>106.0</ele><time>2026-03-29T08:33:00Z</time></trkpt><trkpt lat="45.38504041021565" lon="10.578523506644725"><ele>106.0</ele><time>2026-03-29T08:33:01Z</time></trkpt><trkpt lat="45.384901355651266" lon="10.578456633377762"><ele>106.0</ele><time>2026-03-29T08:33:02Z</time></trkpt><trkpt lat="45.38473958781782" lon="10.57838416551094"><ele>106.0</ele><time>2026-03-29T08:33:03Z</time></trkpt><trkpt lat="45.38459891437139" lon="10.578322638268451"><ele>106.19999999999999</ele><time>2026-03-29T08:33:04Z</time></trkpt><trkpt lat="45.38447492089818" lon="10.57826900820099"><ele>106.39999999999999</ele><time>2026-03-29T08:33:05Z</time></trkpt><trkpt lat="45.38437778589174" lon="10.578233329995403"><ele>106.6</ele><time>2026-03-29T08:33:06Z</time></trkpt><trkpt lat="45.38428879780997" lon="10.578217345087294"><ele>106.8</ele><time>2026-03-29T08:33:07Z</time></trkpt><trkpt lat="45.38419617859291" lon="10.578233211118508"><ele>107.0</ele><time>2026-03-29T08:33:08Z</time></trkpt><trkpt lat="45.384096194016465" lon="10.57828202459749"><ele>107.0</ele><time>2026-03-29T08:33:09Z</time></trkpt><trkpt lat="45.383999981232506" lon="10.578263128137992"><ele>106.99999999999999</ele><time>2026-03-29T08:33:10Z</time></trkpt><trkpt lat="45.38388920387933" lon="10.578259477216172"><ele>106.99999999999999</ele><time>2026-03-29T08:33:11Z</time></trkpt><trkpt lat="45.38378090338552" lon="10.57823624492884"><ele>107.0</ele><time>2026-03-29T08:33:12Z</time></trkpt><trkpt lat="45.38368528783752" lon="10.578213019710944"><ele>107.0</ele><time>2026-03-29T08:33:13Z</time></trkpt><trkpt lat="45.38361701104027" lon="10.578164210479567"><ele>107.5</ele><time>2026-03-29T08:33:14Z</time></trkpt><trkpt lat="45.3835690287558" lon="10.57804813298786"><ele>108.0</ele><time>2026-03-29T08:33:15Z</time></trkpt><trkpt lat="45.383478072178455" lon="10.57795642995863"><ele>108.5</ele><time>2026-03-29T08:33:16Z</time></trkpt><trkpt lat="45.38337153845482" lon="10.577848004626428"><ele>109.0</ele><time>2026-03-29T08:33:17Z</time></trkpt><trkpt lat="45.383252050828695" lon="10.577751598778434"><ele>109.0</ele><time>2026-03-29T08:33:18Z</time></trkpt><trkpt lat="45.38312498070405" lon="10.577660025299977"><ele>109.0</ele><time>2026-03-29T08:33:19Z</time></trkpt><trkpt lat="45.38298780652877" lon="10.577583437062962"><ele>109.0</ele><time>2026-03-29T08:33:20Z</time></trkpt><trkpt lat="45.38284021636968" lon="10.577516765120206"><ele>109.0</ele><time>2026-03-29T08:33:21Z</time></trkpt><trkpt lat="45.382699755802406" lon="10.577485493134814"><ele>110.5</ele><time>2026-03-29T08:33:22Z</time></trkpt><trkpt lat="45.38256235281792" lon="10.577481206568931"><ele>112.0</ele><time>2026-03-29T08:33:23Z</time></trkpt><trkpt lat="45.38241892221338" lon="10.577489302174694"><ele>113.5</ele><time>2026-03-29T08:33:24Z</time></trkpt><trkpt lat="45.38227343790459" lon="10.577497073352431"><ele>115.0</ele><time>2026-03-29T08:33:25Z</time></trkpt><trkpt lat="45.38213085048996" lon="10.577505714010451"><ele>115.0</ele><time>2026-03-29T08:33:26Z</time></trkpt><trkpt lat="45.381995459596524" lon="10.577529639478215"><ele>115.0</ele><time>2026-03-29T08:33:27Z</time></trkpt><trkpt lat="45.38185802942338" lon="10.577544722714213"><ele>115.0</ele><time>2026-03-29T08:33:28Z</time></trkpt><trkpt lat="45.38172647161642" lon="10.577543543249998"><ele>115.0</ele><time>2026-03-29T08:33:29Z</time></trkpt><trkpt lat="45.38161177116471" lon="10.57754237322326"><ele>115.0</ele><time>2026-03-29T08:33:30Z</time></trkpt><trkpt lat="45.381501896771205" lon="10.577546903176703"><ele>115.0</ele><time>2026-03-29T08:33:31Z</time></trkpt><trkpt lat="45.381392872309696" lon="10.5775524687226"><ele>115.0</ele><time>2026-03-29T08:33:32Z</time></trkpt><trkpt lat="45.381287415325815" lon="10.577527685732909"><ele>115.0</ele><time>2026-03-29T08:33:33Z</time></trkpt><trkpt lat="45.381175148015444" lon="10.577546016481962"><ele>115.0</ele><time>2026-03-29T08:33:34Z</time></trkpt><trkpt lat="45.38106756201517" lon="10.577528616911017"><ele>113.4</ele><time>2026-03-29T08:33:35Z</time></trkpt><trkpt lat="45.380958481331234" lon="10.577491642323398"><ele>111.8</ele><time>2026-03-29T08:33:36Z</time></trkpt><trkpt lat="45.38085546491778" lon="10.577444080945698"><ele>110.19999999999999</ele><time>2026-03-29T08:33:37Z</time></trkpt><trkpt lat="45.38076492713024" lon="10.577393664828804"><ele>108.6</ele><time>2026-03-29T08:33:38Z</time></trkpt><trkpt lat="45.38070106848171" lon="10.577321652818108"><ele>107.0</ele><time>2026-03-29T08:33:39Z</time></trkpt><trkpt lat="45.380661397493014" lon="10.577238067459266"><ele>107.0</ele><time>2026-03-29T08:33:40Z</time></trkpt><trkpt lat="45.38069589013467" lon="10.577129920701209"><ele>106.99999999999999</ele><time>2026-03-29T08:33:41Z</time></trkpt><trkpt lat="45.38070524550958" lon="10.577021308018333"><ele>106.99999999999999</ele><time>2026-03-29T08:33:42Z</time></trkpt><trkpt lat="45.380701084643945" lon="10.576875977451383"><ele>107.0</ele><time>2026-03-29T08:33:43Z</time></trkpt><trkpt lat="45.38065686538767" lon="10.576737390421993"><ele>107.0</ele><time>2026-03-29T08:33:44Z</time></trkpt><trkpt lat="45.38057088189817" lon="10.576639990716112"><ele>105.66666666666666</ele><time>2026-03-29T08:33:45Z</time></trkpt><trkpt lat="45.380434313236194" lon="10.57658082720231"><ele>104.33333333333334</ele><time>2026-03-29T08:33:46Z</time></trkpt><trkpt lat="45.380283157388575" lon="10.576502305040382"><ele>103.0</ele><time>2026-03-29T08:33:47Z</time></trkpt><trkpt lat="45.380128497484286" lon="10.57646573008434"><ele>103.0</ele><time>2026-03-29T08:33:48Z</time></trkpt><trkpt lat="45.37998365571863" lon="10.576458941215044"><ele>103.0</ele><time>2026-03-29T08:33:49Z</time></trkpt><trkpt lat="45.37987086074616" lon="10.576373372721008"><ele>103.0</ele><time>2026-03-29T08:33:50Z</time></trkpt><trkpt lat="45.379749615685505" lon="10.576278271183812"><ele>103.0</ele><time>2026-03-29T08:33:51Z</time></trkpt><trkpt lat="45.379626137547326" lon="10.57626100856988"><ele>103.33333333333334</ele><time>2026-03-29T08:33:52Z</time></trkpt><trkpt lat="45.37948103716996" lon="10.57627163420483"><ele>103.66666666666666</ele><time>2026-03-29T08:33:53Z</time></trkpt><trkpt lat="45.37931925525441" lon="10.576310008748404"><ele>104.0</ele><time>2026-03-29T08:33:54Z</time></trkpt><trkpt lat="45.379165134946895" lon="10.576336749840273"><ele>104.0</ele><time>2026-03-29T08:33:55Z</time></trkpt><trkpt lat="45.379040656033574" lon="10.576344766333266"><ele>104.0</ele><time>2026-03-29T08:33:56Z</time></trkpt><trkpt lat="45.3789341914886" lon="10.576341367548013"><ele>104.0</ele><time>2026-03-29T08:33:57Z</time></trkpt><trkpt lat="45.37885753288821" lon="10.576310329400332"><ele>104.0</ele><time>2026-03-29T08:33:58Z</time></trkpt><trkpt lat="45.37881065127749" lon="10.576233832389118"><ele>104.0</ele><time>2026-03-29T08:33:59Z</time></trkpt><trkpt lat="45.37880992926292" lon="10.576099291358533"><ele>104.4</ele><time>2026-03-29T08:34:00Z</time></trkpt><trkpt lat="45.37880908372229" lon="10.575952851071634"><ele>104.80000000000001</ele><time>2026-03-29T08:34:01Z</time></trkpt><trkpt lat="45.37880279875321" lon="10.57581801198829"><ele>105.19999999999999</ele><time>2026-03-29T08:34:02Z</time></trkpt><trkpt lat="45.37878572049857" lon="10.575704739867819"><ele>105.6</ele><time>2026-03-29T08:34:03Z</time></trkpt><trkpt lat="45.378756290811566" lon="10.575602278132147"><ele>106.0</ele><time>2026-03-29T08:34:04Z</time></trkpt><trkpt lat="45.37867922422524" lon="10.575522644282328"><ele>106.0</ele><time>2026-03-29T08:34:05Z</time></trkpt><trkpt lat="45.37854004086777" lon="10.575555365327022"><ele>106.0</ele><time>2026-03-29T08:34:06Z</time></trkpt><trkpt lat="45.378417977361906" lon="10.575588634956079"><ele>106.0</ele><time>2026-03-29T08:34:07Z</time></trkpt><trkpt lat="45.3782504237588" lon="10.575614423537859"><ele>106.0</ele><time>2026-03-29T08:34:08Z</time></trkpt><trkpt lat="45.37806992346213" lon="10.575631137960295"><ele>105.66666666666667</ele><time>2026-03-29T08:34:09Z</time></trkpt><trkpt lat="45.377884678513645" lon="10.5756477545233"><ele>105.33333333333334</ele><time>2026-03-29T08:34:10Z</time></trkpt><trkpt lat="45.377686932204895" lon="10.57566965407156"><ele>105.0</ele><time>2026-03-29T08:34:11Z</time></trkpt><trkpt lat="45.37749680386143" lon="10.575687665852662"><ele>105.0</ele><time>2026-03-29T08:34:12Z</time></trkpt><trkpt lat="45.37731842815642" lon="10.575697836983956"><ele>105.0</ele><time>2026-03-29T08:34:13Z</time></trkpt><trkpt lat="45.3771509599168" lon="10.575712333418139"><ele>105.0</ele><time>2026-03-29T08:34:14Z</time></trkpt><trkpt lat="45.37699295097934" lon="10.575716671065877"><ele>106.66666666666666</ele><time>2026-03-29T08:34:15Z</time></trkpt><trkpt lat="45.37683992381329" lon="10.575703581735139"><ele>108.33333333333333</ele><time>2026-03-29T08:34:16Z</time></trkpt><trkpt lat="45.37669834021546" lon="10.575630551377152"><ele>110.0</ele><time>2026-03-29T08:34:17Z</time></trkpt><trkpt lat="45.37655946420298" lon="10.57555356846141"><ele>110.0</ele><time>2026-03-29T08:34:18Z</time></trkpt><trkpt lat="45.37642818608197" lon="10.575491833159044"><ele>110.0</ele><time>2026-03-29T08:34:19Z</time></trkpt><trkpt lat="45.37631132551459" lon="10.575416931258872"><ele>110.0</ele><time>2026-03-29T08:34:20Z</time></trkpt><trkpt lat="45.37620713226333" lon="10.57535433851061"><ele>110.0</ele><time>2026-03-29T08:34:21Z</time></trkpt><trkpt lat="45.37609728136634" lon="10.575295454338598"><ele>110.25</ele><time>2026-03-29T08:34:22Z</time></trkpt><trkpt lat="45.375973248026305" lon="10.57523569160341"><ele>110.5</ele><time>2026-03-29T08:34:23Z</time></trkpt><trkpt lat="45.37584640218255" lon="10.575168428336118"><ele>110.75</ele><time>2026-03-29T08:34:24Z</time></trkpt><trkpt lat="45.375718570632436" lon="10.575095551776581"><ele>111.0</ele><time>2026-03-29T08:34:25Z</time></trkpt><trkpt lat="45.37559754745678" lon="10.575030036222236"><ele>111.25</ele><time>2026-03-29T08:34:26Z</time></trkpt><trkpt lat="45.37549094241341" lon="10.574969496838278"><ele>111.5</ele><time>2026-03-29T08:34:27Z</time></trkpt><trkpt lat="45.3754220028614" lon="10.574891355632879"><ele>111.75</ele><time>2026-03-29T08:34:28Z</time></trkpt><trkpt lat="45.37537202514273" lon="10.57483685223097"><ele>112.0</ele><time>2026-03-29T08:34:29Z</time></trkpt><trkpt lat="45.375267987997354" lon="10.575068374892886"><ele>112.0</ele><time>2026-03-29T08:34:33Z</time></trkpt><trkpt lat="45.37526158557073" lon="10.575184159526719"><ele>111.99999999999999</ele><time>2026-03-29T08:34:34Z</time></trkpt><trkpt lat="45.37525186998415" lon="10.575317076762099"><ele>111.99999999999999</ele><time>2026-03-29T08:34:35Z</time></trkpt><trkpt lat="45.3752387920877" lon="10.575491048738897"><ele>112.0</ele><time>2026-03-29T08:34:36Z</time></trkpt><trkpt lat="45.37521951019135" lon="10.575694271590722"><ele>112.0</ele><time>2026-03-29T08:34:37Z</time></trkpt><trkpt lat="45.37519149059601" lon="10.575926042632828"><ele>112.0</ele><time>2026-03-29T08:34:38Z</time></trkpt><trkpt lat="45.37517498277031" lon="10.576152546693477"><ele>112.0</ele><time>2026-03-29T08:34:39Z</time></trkpt><trkpt lat="45.37515707332609" lon="10.576378866834146"><ele>112.0</ele><time>2026-03-29T08:34:40Z</time></trkpt><trkpt lat="45.375144475274894" lon="10.576640176404561"><ele>111.33333333333334</ele><time>2026-03-29T08:34:41Z</time></trkpt><trkpt lat="45.37512341198715" lon="10.576879566677372"><ele>110.66666666666666</ele><time>2026-03-29T08:34:42Z</time></trkpt><trkpt lat="45.37510198444588" lon="10.577111943474396"><ele>110.0</ele><time>2026-03-29T08:34:43Z</time></trkpt><trkpt lat="45.37507740785495" lon="10.577351712151813"><ele>110.0</ele><time>2026-03-29T08:34:44Z</time></trkpt><trkpt lat="45.37506104125278" lon="10.577543685576984"><ele>110.0</ele><time>2026-03-29T08:34:45Z</time></trkpt><trkpt lat="45.37504089284936" lon="10.577755527529261"><ele>110.0</ele><time>2026-03-29T08:34:46Z</time></trkpt><trkpt lat="45.375027213118756" lon="10.57795405904436"><ele>110.0</ele><time>2026-03-29T08:34:47Z</time></trkpt><trkpt lat="45.37500835550345" lon="10.578158818327873"><ele>110.0</ele><time>2026-03-29T08:34:48Z</time></trkpt><trkpt lat="45.37498875402316" lon="10.578343095631459"><ele>110.0</ele><time>2026-03-29T08:34:49Z</time></trkpt><trkpt lat="45.37497362012118" lon="10.57849065195035"><ele>110.0</ele><time>2026-03-29T08:34:50Z</time></trkpt><trkpt lat="45.37495613331885" lon="10.578615346864906"><ele>110.0</ele><time>2026-03-29T08:34:51Z</time></trkpt><trkpt lat="45.37492580323472" lon="10.57876112700521"><ele>110.0</ele><time>2026-03-29T08:34:53Z</time></trkpt><trkpt lat="45.37482121890702" lon="10.578808154843003"><ele>110.0</ele><time>2026-03-29T08:34:55Z</time></trkpt><trkpt lat="45.374721272641985" lon="10.578801838276531"><ele>110.0</ele><time>2026-03-29T08:34:56Z</time></trkpt><trkpt lat="45.37460396514433" lon="10.57879239705638"><ele>110.0</ele><time>2026-03-29T08:34:57Z</time></trkpt><trkpt lat="45.37445360170401" lon="10.578786689138346"><ele>110.0</ele><time>2026-03-29T08:34:58Z</time></trkpt><trkpt lat="45.37429913720092" lon="10.578801396369371"><ele>111.66666666666666</ele><time>2026-03-29T08:34:59Z</time></trkpt><trkpt lat="45.374119883772835" lon="10.578809511922127"><ele>113.33333333333334</ele><time>2026-03-29T08:35:00Z</time></trkpt><trkpt lat="45.37396257488893" lon="10.578822207113227"><ele>115.0</ele><time>2026-03-29T08:35:01Z</time></trkpt><trkpt lat="45.37379537325148" lon="10.578839074170812"><ele>115.33333333333334</ele><time>2026-03-29T08:35:02Z</time></trkpt><trkpt lat="45.3736142930004" lon="10.57884960738101"><ele>115.66666666666666</ele><time>2026-03-29T08:35:03Z</time></trkpt><trkpt lat="45.37346673279346" lon="10.578866818082087"><ele>116.0</ele><time>2026-03-29T08:35:04Z</time></trkpt><trkpt lat="45.37333540717966" lon="10.578876248138247"><ele>115.99999999999999</ele><time>2026-03-29T08:35:05Z</time></trkpt><trkpt lat="45.37323554371378" lon="10.578881925038413"><ele>116.0</ele><time>2026-03-29T08:35:06Z</time></trkpt><trkpt lat="45.373152156901874" lon="10.578887739279152"><ele>116.0</ele><time>2026-03-29T08:35:07Z</time></trkpt><trkpt lat="45.37306551621843" lon="10.57888965114004"><ele>116.0</ele><time>2026-03-29T08:35:08Z</time></trkpt><trkpt lat="45.37298150515932" lon="10.578892293729448"><ele>115.99999999999999</ele><time>2026-03-29T08:35:09Z</time></trkpt><trkpt lat="45.37290013161745" lon="10.578906313789314"><ele>116.0</ele><time>2026-03-29T08:35:10Z</time></trkpt><trkpt lat="45.37282365813008" lon="10.578927808834013"><ele>115.6</ele><time>2026-03-29T08:35:11Z</time></trkpt><trkpt lat="45.37273429094154" lon="10.578972455794712"><ele>115.19999999999999</ele><time>2026-03-29T08:35:13Z</time></trkpt><trkpt lat="45.37263329729221" lon="10.57898940954513"><ele>114.80000000000001</ele><time>2026-03-29T08:35:20Z</time></trkpt><trkpt lat="45.37256933012217" lon="10.579022582216934"><ele>114.4</ele><time>2026-03-29T08:35:21Z</time></trkpt><trkpt lat="45.37249770695383" lon="10.57908259868661"><ele>114.0</ele><time>2026-03-29T08:35:22Z</time></trkpt><trkpt lat="45.37239364501322" lon="10.579175826238181"><ele>114.0</ele><time>2026-03-29T08:35:23Z</time></trkpt><trkpt lat="45.37230191618855" lon="10.57927616649505"><ele>114.0</ele><time>2026-03-29T08:35:24Z</time></trkpt><trkpt lat="45.372496486576594" lon="10.579820788998488"><ele>113.75</ele><time>2026-03-29T08:35:25Z</time></trkpt><trkpt lat="45.3725613415494" lon="10.579968034190118"><ele>113.5</ele><time>2026-03-29T08:35:27Z</time></trkpt><trkpt lat="45.372642650270436" lon="10.580044589676952"><ele>113.25</ele><time>2026-03-29T08:35:28Z</time></trkpt><trkpt lat="45.372756056240036" lon="10.580113161369288"><ele>113.0</ele><time>2026-03-29T08:35:29Z</time></trkpt><trkpt lat="45.372903836030986" lon="10.580196775561001"><ele>113.0</ele><time>2026-03-29T08:35:30Z</time></trkpt><trkpt lat="45.373071304970146" lon="10.580284625396052"><ele>113.0</ele><time>2026-03-29T08:35:31Z</time></trkpt><trkpt lat="45.37324365014726" lon="10.580388624405675"><ele>113.0</ele><time>2026-03-29T08:35:32Z</time></trkpt><trkpt lat="45.37342140964806" lon="10.580525823999595"><ele>112.66666666666666</ele><time>2026-03-29T08:35:33Z</time></trkpt><trkpt lat="45.3735925683477" lon="10.580684649217112"><ele>112.33333333333334</ele><time>2026-03-29T08:35:34Z</time></trkpt><trkpt lat="45.37376469964285" lon="10.580862896443609"><ele>112.0</ele><time>2026-03-29T08:35:35Z</time></trkpt><trkpt lat="45.37394026056046" lon="10.581068199227737"><ele>112.5</ele><time>2026-03-29T08:35:36Z</time></trkpt><trkpt lat="45.374111373979176" lon="10.581290129945518"><ele>113.0</ele><time>2026-03-29T08:35:37Z</time></trkpt><trkpt lat="45.37428865533227" lon="10.58152146705679"><ele>113.0</ele><time>2026-03-29T08:35:38Z</time></trkpt><trkpt lat="45.374454698650204" lon="10.581746038482928"><ele>113.0</ele><time>2026-03-29T08:35:39Z</time></trkpt><trkpt lat="45.37462173104893" lon="10.581970182880857"><ele>112.0</ele><time>2026-03-29T08:35:40Z</time></trkpt><trkpt lat="45.37479427656452" lon="10.582193382189946"><ele>111.0</ele><time>2026-03-29T08:35:41Z</time></trkpt><trkpt lat="45.37496091763048" lon="10.582406536672726"><ele>111.0</ele><time>2026-03-29T08:35:42Z</time></trkpt><trkpt lat="45.375126978649476" lon="10.58261785253921"><ele>111.0</ele><time>2026-03-29T08:35:43Z</time></trkpt><trkpt lat="45.375290849856526" lon="10.58282591232137"><ele>111.0</ele><time>2026-03-29T08:35:44Z</time></trkpt><trkpt lat="45.37545964215846" lon="10.583031271730453"><ele>111.0</ele><time>2026-03-29T08:35:45Z</time></trkpt><trkpt lat="45.37562746942319" lon="10.583227174831473"><ele>111.0</ele><time>2026-03-29T08:35:46Z</time></trkpt><trkpt lat="45.37580144392545" lon="10.58341075831346"><ele>111.0</ele><time>2026-03-29T08:35:47Z</time></trkpt><trkpt lat="45.37598042297352" lon="10.58358831134102"><ele>111.0</ele><time>2026-03-29T08:35:48Z</time></trkpt><trkpt lat="45.37614688255049" lon="10.583760240079934"><ele>111.0</ele><time>2026-03-29T08:35:49Z</time></trkpt><trkpt lat="45.37631218263277" lon="10.583935631091466"><ele>111.0</ele><time>2026-03-29T08:35:50Z</time></trkpt><trkpt lat="45.37647768730642" lon="10.584115503850166"><ele>111.0</ele><time>2026-03-29T08:35:51Z</time></trkpt><trkpt lat="45.376647600174145" lon="10.584299489045142"><ele>111.0</ele><time>2026-03-29T08:35:52Z</time></trkpt><trkpt lat="45.37681608697817" lon="10.584487776377149"><ele>111.0</ele><time>2026-03-29T08:35:53Z</time></trkpt><trkpt lat="45.3769818353194" lon="10.584683806507867"><ele>111.33333333333334</ele><time>2026-03-29T08:35:54Z</time></trkpt><trkpt lat="45.37714262944772" lon="10.584891904045278"><ele>111.66666666666667</ele><time>2026-03-29T08:35:55Z</time></trkpt><trkpt lat="45.37729284600022" lon="10.585121899249836"><ele>112.0</ele><time>2026-03-29T08:35:56Z</time></trkpt><trkpt lat="45.37743575109395" lon="10.58535308766705"><ele>112.33333333333334</ele><time>2026-03-29T08:35:57Z</time></trkpt><trkpt lat="45.37758295488495" lon="10.58559441107926"><ele>112.66666666666666</ele><time>2026-03-29T08:35:58Z</time></trkpt><trkpt lat="45.37772339523212" lon="10.585828484910298"><ele>113.0</ele><time>2026-03-29T08:35:59Z</time></trkpt><trkpt lat="45.377864458714306" lon="10.586062770019437"><ele>113.0</ele><time>2026-03-29T08:36:00Z</time></trkpt><trkpt lat="45.37801003526261" lon="10.586302383989397"><ele>113.0</ele><time>2026-03-29T08:36:01Z</time></trkpt><trkpt lat="45.378148941593786" lon="10.586542365061852"><ele>113.0</ele><time>2026-03-29T08:36:02Z</time></trkpt><trkpt lat="45.378273212142936" lon="10.586792960399583"><ele>115.33333333333333</ele><time>2026-03-29T08:36:03Z</time></trkpt><trkpt lat="45.378383395624226" lon="10.587067487731034"><ele>117.66666666666666</ele><time>2026-03-29T08:36:04Z</time></trkpt><trkpt lat="45.37847309138526" lon="10.587346665886864"><ele>120.0</ele><time>2026-03-29T08:36:05Z</time></trkpt><trkpt lat="45.378565899578085" lon="10.587619533032688"><ele>120.66666666666666</ele><time>2026-03-29T08:36:06Z</time></trkpt><trkpt lat="45.378649234290016" lon="10.587876410131418"><ele>121.33333333333333</ele><time>2026-03-29T08:36:07Z</time></trkpt><trkpt lat="45.378714596062444" lon="10.58810860536634"><ele>122.0</ele><time>2026-03-29T08:36:08Z</time></trkpt><trkpt lat="45.37876838677569" lon="10.588361885477221"><ele>122.0</ele><time>2026-03-29T08:36:09Z</time></trkpt><trkpt lat="45.3788002328518" lon="10.588632843734041"><ele>122.0</ele><time>2026-03-29T08:36:10Z</time></trkpt><trkpt lat="45.37877659292148" lon="10.58891591622377"><ele>122.0</ele><time>2026-03-29T08:36:11Z</time></trkpt><trkpt lat="45.37876858145017" lon="10.589191817556207"><ele>123.0</ele><time>2026-03-29T08:36:12Z</time></trkpt><trkpt lat="45.37872616738279" lon="10.58947352613548"><ele>124.0</ele><time>2026-03-29T08:36:13Z</time></trkpt><trkpt lat="45.378688264766154" lon="10.589762084598028"><ele>125.0</ele><time>2026-03-29T08:36:14Z</time></trkpt><trkpt lat="45.37866090727983" lon="10.590058630299849"><ele>126.0</ele><time>2026-03-29T08:36:15Z</time></trkpt><trkpt lat="45.37862632038568" lon="10.590319186176407"><ele>127.0</ele><time>2026-03-29T08:36:16Z</time></trkpt><trkpt lat="45.37859690814453" lon="10.590578257856114"><ele>128.0</ele><time>2026-03-29T08:36:17Z</time></trkpt><trkpt lat="45.378573504317785" lon="10.590836263966361"><ele>129.5</ele><time>2026-03-29T08:36:18Z</time></trkpt><trkpt lat="45.37874703446898" lon="10.59114828825048"><ele>131.0</ele><time>2026-03-29T08:36:19Z</time></trkpt><trkpt lat="45.37884366508075" lon="10.591430642012197"><ele>133.5</ele><time>2026-03-29T08:36:20Z</time></trkpt><trkpt lat="45.37896796773719" lon="10.59170710362699"><ele>136.0</ele><time>2026-03-29T08:36:21Z</time></trkpt><trkpt lat="45.37910267827388" lon="10.591977317200598"><ele>136.33333333333334</ele><time>2026-03-29T08:36:22Z</time></trkpt><trkpt lat="45.379217064502896" lon="10.592252494995257"><ele>136.66666666666666</ele><time>2026-03-29T08:36:23Z</time></trkpt><trkpt lat="45.37931980597525" lon="10.592527851748226"><ele>137.0</ele><time>2026-03-29T08:36:24Z</time></trkpt><trkpt lat="45.37940793802567" lon="10.59279991459882"><ele>137.33333333333331</ele><time>2026-03-29T08:36:25Z</time></trkpt><trkpt lat="45.37946984203736" lon="10.593102696873858"><ele>137.66666666666666</ele><time>2026-03-29T08:36:26Z</time></trkpt><trkpt lat="45.37949906212229" lon="10.593408919374168"><ele>138.0</ele><time>2026-03-29T08:36:27Z</time></trkpt><trkpt lat="45.37951055666121" lon="10.593737854436524"><ele>138.0</ele><time>2026-03-29T08:36:28Z</time></trkpt><trkpt lat="45.37949968566742" lon="10.594050122445514"><ele>138.0</ele><time>2026-03-29T08:36:29Z</time></trkpt><trkpt lat="45.37949186985243" lon="10.594367406943702"><ele>138.0</ele><time>2026-03-29T08:36:30Z</time></trkpt><trkpt lat="45.37949190957963" lon="10.594675855892373"><ele>138.0</ele><time>2026-03-29T08:36:31Z</time></trkpt><trkpt lat="45.37950486186138" lon="10.594956196971207"><ele>138.0</ele><time>2026-03-29T08:36:32Z</time></trkpt><trkpt lat="45.37952736030155" lon="10.595212691080608"><ele>138.0</ele><time>2026-03-29T08:36:33Z</time></trkpt><trkpt lat="45.37955817504138" lon="10.595448948143902"><ele>138.66666666666666</ele><time>2026-03-29T08:36:34Z</time></trkpt><trkpt lat="45.379618906518324" lon="10.5956987212013"><ele>139.33333333333331</ele><time>2026-03-29T08:36:35Z</time></trkpt><trkpt lat="45.37969213612451" lon="10.595969018648896"><ele>140.0</ele><time>2026-03-29T08:36:36Z</time></trkpt><trkpt lat="45.379770102074495" lon="10.596254597794953"><ele>138.66666666666666</ele><time>2026-03-29T08:36:37Z</time></trkpt><trkpt lat="45.37984238908841" lon="10.596531918632486"><ele>137.33333333333334</ele><time>2026-03-29T08:36:38Z</time></trkpt><trkpt lat="45.37991781051625" lon="10.596816704215879"><ele>136.0</ele><time>2026-03-29T08:36:39Z</time></trkpt><trkpt lat="45.379993840125195" lon="10.597090182043639"><ele>136.0</ele><time>2026-03-29T08:36:40Z</time></trkpt><trkpt lat="45.380071174262056" lon="10.597365758206504"><ele>136.0</ele><time>2026-03-29T08:36:41Z</time></trkpt><trkpt lat="45.38014408093189" lon="10.597633189276731"><ele>136.0</ele><time>2026-03-29T08:36:42Z</time></trkpt><trkpt lat="45.38021185909617" lon="10.59788610511315"><ele>136.33333333333334</ele><time>2026-03-29T08:36:43Z</time></trkpt><trkpt lat="45.380273930276104" lon="10.598127803480914"><ele>136.66666666666666</ele><time>2026-03-29T08:36:44Z</time></trkpt><trkpt lat="45.38032467098966" lon="10.598365093693976"><ele>137.0</ele><time>2026-03-29T08:36:45Z</time></trkpt><trkpt lat="45.38034008816012" lon="10.598584206878256"><ele>137.0</ele><time>2026-03-29T08:36:46Z</time></trkpt><trkpt lat="45.38034233619052" lon="10.59881316621007"><ele>137.0</ele><time>2026-03-29T08:36:47Z</time></trkpt><trkpt lat="45.38034831962101" lon="10.599033699916923"><ele>137.0</ele><time>2026-03-29T08:36:48Z</time></trkpt><trkpt lat="45.38035898871061" lon="10.599261595778142"><ele>137.0</ele><time>2026-03-29T08:36:49Z</time></trkpt><trkpt lat="45.38037096392019" lon="10.599500312329495"><ele>137.0</ele><time>2026-03-29T08:36:50Z</time></trkpt><trkpt lat="45.38038415682016" lon="10.599722216185441"><ele>137.0</ele><time>2026-03-29T08:36:51Z</time></trkpt><trkpt lat="45.38039528374358" lon="10.5999341016334"><ele>136.79999999999998</ele><time>2026-03-29T08:36:52Z</time></trkpt><trkpt lat="45.38040739368094" lon="10.600126425306627"><ele>136.6</ele><time>2026-03-29T08:36:53Z</time></trkpt><trkpt lat="45.380413378054904" lon="10.600276889314614"><ele>136.39999999999998</ele><time>2026-03-29T08:36:54Z</time></trkpt><trkpt lat="45.380413027004806" lon="10.600386274390283"><ele>136.2</ele><time>2026-03-29T08:36:55Z</time></trkpt><trkpt lat="45.3804076667288" lon="10.600478823113624"><ele>136.0</ele><time>2026-03-29T08:36:56Z</time></trkpt><trkpt lat="45.380358634150895" lon="10.600587257478054"><ele>135.25</ele><time>2026-03-29T08:36:58Z</time></trkpt><trkpt lat="45.380231892056074" lon="10.600658661236924"><ele>134.5</ele><time>2026-03-29T08:37:00Z</time></trkpt><trkpt lat="45.38012238551171" lon="10.600674417577949"><ele>133.75</ele><time>2026-03-29T08:37:01Z</time></trkpt><trkpt lat="45.37998460763221" lon="10.60068637983607"><ele>133.0</ele><time>2026-03-29T08:37:02Z</time></trkpt><trkpt lat="45.37984055730376" lon="10.600706861693023"><ele>133.66666666666669</ele><time>2026-03-29T08:37:03Z</time></trkpt><trkpt lat="45.379667908222515" lon="10.600740957535127"><ele>134.33333333333334</ele><time>2026-03-29T08:37:04Z</time></trkpt><trkpt lat="45.37949033804841" lon="10.600779109115548"><ele>135.0</ele><time>2026-03-29T08:37:05Z</time></trkpt><trkpt lat="45.37930418736781" lon="10.60080985538813"><ele>135.0</ele><time>2026-03-29T08:37:06Z</time></trkpt><trkpt lat="45.37910904630891" lon="10.600843613296648"><ele>135.0</ele><time>2026-03-29T08:37:07Z</time></trkpt><trkpt lat="45.37892775613406" lon="10.600849205987128"><ele>135.0</ele><time>2026-03-29T08:37:08Z</time></trkpt><trkpt lat="45.37875116147876" lon="10.600834999443492"><ele>133.33333333333334</ele><time>2026-03-29T08:37:09Z</time></trkpt><trkpt lat="45.378566365624266" lon="10.600800483191653"><ele>131.66666666666669</ele><time>2026-03-29T08:37:10Z</time></trkpt><trkpt lat="45.378367753552745" lon="10.600747421504897"><ele>130.0</ele><time>2026-03-29T08:37:11Z</time></trkpt><trkpt lat="45.37820743784967" lon="10.600706306252466"><ele>130.0</ele><time>2026-03-29T08:37:12Z</time></trkpt><trkpt lat="45.37805635496396" lon="10.600684703403852"><ele>130.0</ele><time>2026-03-29T08:37:13Z</time></trkpt><trkpt lat="45.37790347462007" lon="10.600704093292212"><ele>130.0</ele><time>2026-03-29T08:37:14Z</time></trkpt><trkpt lat="45.377731674200064" lon="10.600777317727111"><ele>127.33333333333334</ele><time>2026-03-29T08:37:15Z</time></trkpt><trkpt lat="45.3775480691599" lon="10.600907155301627"><ele>124.66666666666666</ele><time>2026-03-29T08:37:16Z</time></trkpt><trkpt lat="45.37737756729257" lon="10.601063360480348"><ele>122.0</ele><time>2026-03-29T08:37:17Z</time></trkpt><trkpt lat="45.377214161623364" lon="10.601219817733202"><ele>121.0</ele><time>2026-03-29T08:37:18Z</time></trkpt><trkpt lat="45.377057066601886" lon="10.601353318627993"><ele>120.0</ele><time>2026-03-29T08:37:19Z</time></trkpt><trkpt lat="45.37690572783385" lon="10.601445675821452"><ele>119.0</ele><time>2026-03-29T08:37:20Z</time></trkpt><trkpt lat="45.37673009040905" lon="10.601517777267576"><ele>119.0</ele><time>2026-03-29T08:37:21Z</time></trkpt><trkpt lat="45.37654265449406" lon="10.601555928126286"><ele>119.0</ele><time>2026-03-29T08:37:22Z</time></trkpt><trkpt lat="45.37634970978536" lon="10.601574828910218"><ele>119.0</ele><time>2026-03-29T08:37:23Z</time></trkpt><trkpt lat="45.376170924711815" lon="10.601598063304593"><ele>119.33333333333333</ele><time>2026-03-29T08:37:24Z</time></trkpt><trkpt lat="45.37599509328373" lon="10.601609332092425"><ele>119.66666666666666</ele><time>2026-03-29T08:37:25Z</time></trkpt><trkpt lat="45.37582388097262" lon="10.601603848689912"><ele>120.0</ele><time>2026-03-29T08:37:26Z</time></trkpt><trkpt lat="45.3756719757138" lon="10.601581885144173"><ele>118.0</ele><time>2026-03-29T08:37:27Z</time></trkpt><trkpt lat="45.375515576132" lon="10.601543634763201"><ele>116.0</ele><time>2026-03-29T08:37:28Z</time></trkpt><trkpt lat="45.37535437730389" lon="10.601467771728537"><ele>114.0</ele><time>2026-03-29T08:37:29Z</time></trkpt><trkpt lat="45.375187213653014" lon="10.60135154765536"><ele>114.0</ele><time>2026-03-29T08:37:30Z</time></trkpt><trkpt lat="45.3750190782012" lon="10.601231960305462"><ele>114.0</ele><time>2026-03-29T08:37:31Z</time></trkpt><trkpt lat="45.3748390913877" lon="10.601111772787258"><ele>114.0</ele><time>2026-03-29T08:37:32Z</time></trkpt><trkpt lat="45.37467249534524" lon="10.60098224857348"><ele>113.0</ele><time>2026-03-29T08:37:33Z</time></trkpt><trkpt lat="45.37449299935051" lon="10.60085404368064"><ele>112.0</ele><time>2026-03-29T08:37:34Z</time></trkpt><trkpt lat="45.37431978796166" lon="10.600730442253921"><ele>111.0</ele><time>2026-03-29T08:37:35Z</time></trkpt><trkpt lat="45.37414479363587" lon="10.600602788353122"><ele>111.0</ele><time>2026-03-29T08:37:36Z</time></trkpt><trkpt lat="45.37397365930823" lon="10.600476452002821"><ele>111.0</ele><time>2026-03-29T08:37:37Z</time></trkpt><trkpt lat="45.37380831176491" lon="10.600346845983296"><ele>111.0</ele><time>2026-03-29T08:37:38Z</time></trkpt><trkpt lat="45.3736678240945" lon="10.600215385928857"><ele>111.25</ele><time>2026-03-29T08:37:39Z</time></trkpt><trkpt lat="45.373543446733535" lon="10.600093127526868"><ele>111.5</ele><time>2026-03-29T08:37:40Z</time></trkpt><trkpt lat="45.37343077941704" lon="10.599987286062149"><ele>111.75</ele><time>2026-03-29T08:37:41Z</time></trkpt><trkpt lat="45.37332771495225" lon="10.599895074164525"><ele>112.0</ele><time>2026-03-29T08:37:42Z</time></trkpt><trkpt lat="45.373235044375406" lon="10.599791350366752"><ele>112.0</ele><time>2026-03-29T08:37:43Z</time></trkpt><trkpt lat="45.37315207489491" lon="10.599664641918356"><ele>112.0</ele><time>2026-03-29T08:37:44Z</time></trkpt><trkpt lat="45.373091526946475" lon="10.599504169227458"><ele>112.0</ele><time>2026-03-29T08:37:45Z</time></trkpt><trkpt lat="45.373059218932916" lon="10.599308413967641"><ele>112.0</ele><time>2026-03-29T08:37:46Z</time></trkpt><trkpt lat="45.37304236948927" lon="10.599102146033983"><ele>111.0</ele><time>2026-03-29T08:37:47Z</time></trkpt><trkpt lat="45.37302892847787" lon="10.598897854790492"><ele>110.0</ele><time>2026-03-29T08:37:48Z</time></trkpt><trkpt lat="45.37300611307293" lon="10.59868351784396"><ele>109.0</ele><time>2026-03-29T08:37:49Z</time></trkpt><trkpt lat="45.37296530892276" lon="10.59845553019213"><ele>109.0</ele><time>2026-03-29T08:37:50Z</time></trkpt><trkpt lat="45.372907350873945" lon="10.598225914268465"><ele>109.0</ele><time>2026-03-29T08:37:51Z</time></trkpt><trkpt lat="45.372830947826095" lon="10.597985132203167"><ele>109.0</ele><time>2026-03-29T08:37:52Z</time></trkpt><trkpt lat="45.37274735366182" lon="10.597735071081509"><ele>109.0</ele><time>2026-03-29T08:37:53Z</time></trkpt><trkpt lat="45.372672756268116" lon="10.597520637415219"><ele>109.0</ele><time>2026-03-29T08:37:54Z</time></trkpt><trkpt lat="45.372598937122405" lon="10.597337717850504"><ele>109.0</ele><time>2026-03-29T08:37:55Z</time></trkpt><trkpt lat="45.372510282231" lon="10.59717637773181"><ele>109.0</ele><time>2026-03-29T08:37:56Z</time></trkpt><trkpt lat="45.37238359380507" lon="10.597058549807889"><ele>109.0</ele><time>2026-03-29T08:37:57Z</time></trkpt><trkpt lat="45.372231579473436" lon="10.596960407138676"><ele>109.0</ele><time>2026-03-29T08:37:58Z</time></trkpt><trkpt lat="45.372052991178066" lon="10.59686350851636"><ele>110.0</ele><time>2026-03-29T08:37:59Z</time></trkpt><trkpt lat="45.37186082154" lon="10.596748899732859"><ele>111.0</ele><time>2026-03-29T08:38:00Z</time></trkpt><trkpt lat="45.37166610202842" lon="10.596636269468416"><ele>112.0</ele><time>2026-03-29T08:38:01Z</time></trkpt><trkpt lat="45.37145919572748" lon="10.596511037467339"><ele>112.0</ele><time>2026-03-29T08:38:02Z</time></trkpt><trkpt lat="45.37126143191591" lon="10.596388644358964"><ele>112.0</ele><time>2026-03-29T08:38:03Z</time></trkpt><trkpt lat="45.371074991631936" lon="10.596281477903867"><ele>112.0</ele><time>2026-03-29T08:38:04Z</time></trkpt><trkpt lat="45.37091162333829" lon="10.596191764490122"><ele>112.5</ele><time>2026-03-29T08:38:05Z</time></trkpt><trkpt lat="45.37076506601044" lon="10.59612330766794"><ele>113.0</ele><time>2026-03-29T08:38:06Z</time></trkpt><trkpt lat="45.37062934072795" lon="10.59606335083824"><ele>113.5</ele><time>2026-03-29T08:38:07Z</time></trkpt><trkpt lat="45.37050430083655" lon="10.59602233007786"><ele>114.0</ele><time>2026-03-29T08:38:08Z</time></trkpt><trkpt lat="45.37039512928626" lon="10.595991230986531"><ele>115.2</ele><time>2026-03-29T08:38:09Z</time></trkpt><trkpt lat="45.37029668392184" lon="10.595984753113942"><ele>116.4</ele><time>2026-03-29T08:38:10Z</time></trkpt><trkpt lat="45.37022318087322" lon="10.596002396856642"><ele>117.6</ele><time>2026-03-29T08:38:11Z</time></trkpt><trkpt lat="45.37014984893032" lon="10.596002284670606"><ele>118.8</ele><time>2026-03-29T08:38:13Z</time></trkpt><trkpt lat="45.370117381546315" lon="10.595834084150036"><ele>120.0</ele><time>2026-03-29T08:38:16Z</time></trkpt><trkpt lat="45.37014716195455" lon="10.595633066027752"><ele>120.0</ele><time>2026-03-29T08:38:18Z</time></trkpt><trkpt lat="45.370166078824845" lon="10.595468766971376"><ele>120.0</ele><time>2026-03-29T08:38:19Z</time></trkpt><trkpt lat="45.37018230847171" lon="10.595279018573107"><ele>120.0</ele><time>2026-03-29T08:38:20Z</time></trkpt><trkpt lat="45.370196746103176" lon="10.595060580480839"><ele>120.0</ele><time>2026-03-29T08:38:21Z</time></trkpt><trkpt lat="45.370195440181746" lon="10.594833636324482"><ele>120.25</ele><time>2026-03-29T08:38:22Z</time></trkpt><trkpt lat="45.37018593921717" lon="10.59462991155418"><ele>120.5</ele><time>2026-03-29T08:38:23Z</time></trkpt><trkpt lat="45.37017197181179" lon="10.594430646643726"><ele>120.75</ele><time>2026-03-29T08:38:24Z</time></trkpt><trkpt lat="45.37015754238169" lon="10.59424324904371"><ele>121.0</ele><time>2026-03-29T08:38:25Z</time></trkpt><trkpt lat="45.37014688895781" lon="10.594087352264683"><ele>121.4</ele><time>2026-03-29T08:38:26Z</time></trkpt><trkpt lat="45.37016479619933" lon="10.593943999781033"><ele>121.8</ele><time>2026-03-29T08:38:27Z</time></trkpt><trkpt lat="45.370175695936524" lon="10.593822970662693"><ele>122.20000000000002</ele><time>2026-03-29T08:38:28Z</time></trkpt><trkpt lat="45.370185799333115" lon="10.593710784227309"><ele>122.60000000000001</ele><time>2026-03-29T08:38:29Z</time></trkpt><trkpt lat="45.370194460903015" lon="10.593614607521353"><ele>123.0</ele><time>2026-03-29T08:38:30Z</time></trkpt><trkpt lat="45.37009359193607" lon="10.593478190491787"><ele>123.2</ele><time>2026-03-29T08:38:31Z</time></trkpt><trkpt lat="45.370111716488765" lon="10.593369857310112"><ele>123.4</ele><time>2026-03-29T08:38:32Z</time></trkpt><trkpt lat="45.370146492332985" lon="10.5932487268828"><ele>123.60000000000001</ele><time>2026-03-29T08:38:33Z</time></trkpt><trkpt lat="45.3701851689381" lon="10.593132115739067"><ele>123.80000000000001</ele><time>2026-03-29T08:38:34Z</time></trkpt><trkpt lat="45.37021767071851" lon="10.59301794063774"><ele>124.0</ele><time>2026-03-29T08:38:35Z</time></trkpt><trkpt lat="45.37026404046896" lon="10.59288121886425"><ele>125.0</ele><time>2026-03-29T08:38:36Z</time></trkpt><trkpt lat="45.37031484220968" lon="10.59275091826215"><ele>126.0</ele><time>2026-03-29T08:38:37Z</time></trkpt><trkpt lat="45.37038223717676" lon="10.592600939413584"><ele>127.0</ele><time>2026-03-29T08:38:38Z</time></trkpt><trkpt lat="45.37045013042804" lon="10.592441320772753"><ele>128.0</ele><time>2026-03-29T08:38:39Z</time></trkpt><trkpt lat="45.37052167836312" lon="10.592254081997893"><ele>124.5</ele><time>2026-03-29T08:38:40Z</time></trkpt><trkpt lat="45.370602172137616" lon="10.592057877911161"><ele>121.0</ele><time>2026-03-29T08:38:41Z</time></trkpt><trkpt lat="45.37066029470266" lon="10.59186317484186"><ele>117.5</ele><time>2026-03-29T08:38:42Z</time></trkpt><trkpt lat="45.37070195115615" lon="10.591688351286471"><ele>114.0</ele><time>2026-03-29T08:38:43Z</time></trkpt><trkpt lat="45.370745267497966" lon="10.591512987608583"><ele>114.0</ele><time>2026-03-29T08:38:44Z</time></trkpt><trkpt lat="45.370761810614965" lon="10.591341392241487"><ele>114.0</ele><time>2026-03-29T08:38:45Z</time></trkpt><trkpt lat="45.370767412999434" lon="10.591188089781042"><ele>114.0</ele><time>2026-03-29T08:38:46Z</time></trkpt><trkpt lat="45.37077463167568" lon="10.591048493918715"><ele>114.0</ele><time>2026-03-29T08:38:47Z</time></trkpt><trkpt lat="45.370756678683136" lon="10.590932321935151"><ele>114.0</ele><time>2026-03-29T08:38:48Z</time></trkpt><trkpt lat="45.37072114651421" lon="10.590819704890801"><ele>113.5</ele><time>2026-03-29T08:38:49Z</time></trkpt><trkpt lat="45.37066694390928" lon="10.59069056824108"><ele>113.0</ele><time>2026-03-29T08:38:50Z</time></trkpt><trkpt lat="45.37060474468808" lon="10.590571921692666"><ele>112.5</ele><time>2026-03-29T08:38:51Z</time></trkpt><trkpt lat="45.37051629324035" lon="10.590421216537985"><ele>112.0</ele><time>2026-03-29T08:38:52Z</time></trkpt><trkpt lat="45.37041520394621" lon="10.590287507798275"><ele>114.19999999999999</ele><time>2026-03-29T08:38:53Z</time></trkpt><trkpt lat="45.370338654404186" lon="10.590170914341744"><ele>116.39999999999999</ele><time>2026-03-29T08:38:54Z</time></trkpt><trkpt lat="45.37027963105477" lon="10.590043458981217"><ele>118.60000000000001</ele><time>2026-03-29T08:38:55Z</time></trkpt><trkpt lat="45.37024496505802" lon="10.589903288564033"><ele>120.80000000000001</ele><time>2026-03-29T08:38:56Z</time></trkpt><trkpt lat="45.370219504947826" lon="10.589770761127332"><ele>123.0</ele><time>2026-03-29T08:38:57Z</time></trkpt><trkpt lat="45.37017077071014" lon="10.589673394808365"><ele>123.0</ele><time>2026-03-29T08:38:58Z</time></trkpt><trkpt lat="45.37011581546209" lon="10.589611759355321"><ele>123.00000000000001</ele><time>2026-03-29T08:38:59Z</time></trkpt><trkpt lat="45.37004542461982" lon="10.589561395758462"><ele>123.00000000000001</ele><time>2026-03-29T08:39:00Z</time></trkpt><trkpt lat="45.36995462002672" lon="10.58951707273157"><ele>123.0</ele><time>2026-03-29T08:39:01Z</time></trkpt><trkpt lat="45.36984057340764" lon="10.589438643434017"><ele>123.0</ele><time>2026-03-29T08:39:02Z</time></trkpt><trkpt lat="45.369708719747" lon="10.589362433083634"><ele>123.2</ele><time>2026-03-29T08:39:03Z</time></trkpt><trkpt lat="45.36959944387653" lon="10.589271820338144"><ele>123.4</ele><time>2026-03-29T08:39:04Z</time></trkpt><trkpt lat="45.36950901789683" lon="10.58919369928699"><ele>123.60000000000001</ele><time>2026-03-29T08:39:05Z</time></trkpt><trkpt lat="45.36942897225478" lon="10.589098429804968"><ele>123.80000000000001</ele><time>2026-03-29T08:39:06Z</time></trkpt><trkpt lat="45.369385078707744" lon="10.588982300956694"><ele>124.0</ele><time>2026-03-29T08:39:07Z</time></trkpt><trkpt lat="45.369334552629475" lon="10.588871690949857"><ele>124.00000000000001</ele><time>2026-03-29T08:39:08Z</time></trkpt><trkpt lat="45.369280280186864" lon="10.588775835410798"><ele>124.0</ele><time>2026-03-29T08:39:09Z</time></trkpt><trkpt lat="45.369222877512215" lon="10.58866428607187"><ele>124.0</ele><time>2026-03-29T08:39:10Z</time></trkpt><trkpt lat="45.369169992539824" lon="10.588551862243863"><ele>124.0</ele><time>2026-03-29T08:39:11Z</time></trkpt><trkpt lat="45.369128232887675" lon="10.588445993478233"><ele>124.00000000000001</ele><time>2026-03-29T08:39:12Z</time></trkpt><trkpt lat="45.36909100071176" lon="10.5883621046744"><ele>124.0</ele><time>2026-03-29T08:39:13Z</time></trkpt><trkpt lat="45.369053583176715" lon="10.588286569020092"><ele>124.83333333333334</ele><time>2026-03-29T08:39:14Z</time></trkpt><trkpt lat="45.36899228596873" lon="10.588201457277417"><ele>125.66666666666667</ele><time>2026-03-29T08:39:16Z</time></trkpt><trkpt lat="45.36893256502694" lon="10.588155602059324"><ele>126.5</ele><time>2026-03-29T08:39:18Z</time></trkpt><trkpt lat="45.36886846552021" lon="10.588148773358885"><ele>127.33333333333334</ele><time>2026-03-29T08:39:25Z</time></trkpt><trkpt lat="45.3687860815723" lon="10.588068346141519"><ele>128.16666666666666</ele><time>2026-03-29T08:39:31Z</time></trkpt><trkpt lat="45.36869172123909" lon="10.587995808921004"><ele>129.0</ele><time>2026-03-29T08:39:33Z</time></trkpt><trkpt lat="45.36863326011368" lon="10.58794641090326"><ele>128.99999999999997</ele><time>2026-03-29T08:39:34Z</time></trkpt><trkpt lat="45.368576185843125" lon="10.587884283298209"><ele>129.0</ele><time>2026-03-29T08:39:35Z</time></trkpt><trkpt lat="45.368522944592534" lon="10.587816737993997"><ele>129.0</ele><time>2026-03-29T08:39:36Z</time></trkpt><trkpt lat="45.36847315781604" lon="10.587741277496006"><ele>129.0</ele><time>2026-03-29T08:39:37Z</time></trkpt><trkpt lat="45.3684231602172" lon="10.58766124540999"><ele>129.0</ele><time>2026-03-29T08:39:38Z</time></trkpt><trkpt lat="45.36838139878296" lon="10.587578901835352"><ele>128.99999999999997</ele><time>2026-03-29T08:39:39Z</time></trkpt><trkpt lat="45.368340464595235" lon="10.587475218178554"><ele>129.0</ele><time>2026-03-29T08:39:40Z</time></trkpt><trkpt lat="45.36831956106945" lon="10.587360120825904"><ele>129.16666666666666</ele><time>2026-03-29T08:39:41Z</time></trkpt><trkpt lat="45.368283372239866" lon="10.587284542859873"><ele>129.33333333333334</ele><time>2026-03-29T08:39:42Z</time></trkpt><trkpt lat="45.36823531962616" lon="10.587212579792787"><ele>129.5</ele><time>2026-03-29T08:39:43Z</time></trkpt><trkpt lat="45.368164443210176" lon="10.587139631961158"><ele>129.66666666666669</ele><time>2026-03-29T08:39:44Z</time></trkpt><trkpt lat="45.36809011884082" lon="10.587040584698977"><ele>129.83333333333334</ele><time>2026-03-29T08:39:45Z</time></trkpt><trkpt lat="45.36802550167718" lon="10.586942363541311"><ele>130.0</ele><time>2026-03-29T08:39:46Z</time></trkpt><trkpt lat="45.367989142894956" lon="10.586838775874952"><ele>130.0</ele><time>2026-03-29T08:39:47Z</time></trkpt><trkpt lat="45.36796191504541" lon="10.586722721781436"><ele>130.0</ele><time>2026-03-29T08:39:48Z</time></trkpt><trkpt lat="45.36792691843002" lon="10.586611160256863"><ele>130.0</ele><time>2026-03-29T08:39:49Z</time></trkpt><trkpt lat="45.36786765451081" lon="10.58650360959982"><ele>130.0</ele><time>2026-03-29T08:39:50Z</time></trkpt><trkpt lat="45.3677997437956" lon="10.586386878679344"><ele>130.0</ele><time>2026-03-29T08:39:51Z</time></trkpt><trkpt lat="45.36771759371022" lon="10.5862464261577"><ele>127.75</ele><time>2026-03-29T08:39:52Z</time></trkpt><trkpt lat="45.36763973246422" lon="10.586118029990612"><ele>125.5</ele><time>2026-03-29T08:39:53Z</time></trkpt><trkpt lat="45.36756573494347" lon="10.585990549834158"><ele>123.25</ele><time>2026-03-29T08:39:54Z</time></trkpt><trkpt lat="45.36748985631575" lon="10.585840464477537"><ele>121.0</ele><time>2026-03-29T08:39:55Z</time></trkpt><trkpt lat="45.36742201162835" lon="10.585695861331999"><ele>121.00000000000001</ele><time>2026-03-29T08:39:56Z</time></trkpt><trkpt lat="45.36736505780014" lon="10.585571587899386"><ele>121.0</ele><time>2026-03-29T08:39:57Z</time></trkpt><trkpt lat="45.367304458429" lon="10.585466602765093"><ele>121.0</ele><time>2026-03-29T08:39:58Z</time></trkpt><trkpt lat="45.367260794882995" lon="10.585388396129872"><ele>121.0</ele><time>2026-03-29T08:39:59Z</time></trkpt><trkpt lat="45.367213351863114" lon="10.585297198872953"><ele>121.00000000000001</ele><time>2026-03-29T08:40:00Z</time></trkpt><trkpt lat="45.36719373671019" lon="10.58520438277309"><ele>121.0</ele><time>2026-03-29T08:40:01Z</time></trkpt><trkpt lat="45.367193951910984" lon="10.585081880269072"><ele>121.25</ele><time>2026-03-29T08:40:02Z</time></trkpt><trkpt lat="45.36723512424174" lon="10.58493227046551"><ele>121.5</ele><time>2026-03-29T08:40:03Z</time></trkpt><trkpt lat="45.367294933778275" lon="10.584778857257866"><ele>121.75</ele><time>2026-03-29T08:40:04Z</time></trkpt><trkpt lat="45.367379192139545" lon="10.58460657312932"><ele>122.0</ele><time>2026-03-29T08:40:05Z</time></trkpt><trkpt lat="45.36745984090744" lon="10.584446923871111"><ele>123.25</ele><time>2026-03-29T08:40:06Z</time></trkpt><trkpt lat="45.36753461915523" lon="10.584296288420898"><ele>124.5</ele><time>2026-03-29T08:40:07Z</time></trkpt><trkpt lat="45.36760103410703" lon="10.584161640403467"><ele>125.75</ele><time>2026-03-29T08:40:08Z</time></trkpt><trkpt lat="45.367663668294455" lon="10.584017928386379"><ele>127.0</ele><time>2026-03-29T08:40:09Z</time></trkpt><trkpt lat="45.36772419203647" lon="10.583874659018003"><ele>127.0</ele><time>2026-03-29T08:40:10Z</time></trkpt><trkpt lat="45.36777916099258" lon="10.583738987670593"><ele>126.99999999999999</ele><time>2026-03-29T08:40:11Z</time></trkpt><trkpt lat="45.367830075451444" lon="10.583603898912298"><ele>126.99999999999999</ele><time>2026-03-29T08:40:12Z</time></trkpt><trkpt lat="45.36786521511981" lon="10.583478117833563"><ele>127.0</ele><time>2026-03-29T08:40:13Z</time></trkpt><trkpt lat="45.36789382919564" lon="10.583349790376959"><ele>127.0</ele><time>2026-03-29T08:40:14Z</time></trkpt><trkpt lat="45.3679088031541" lon="10.583171289861886"><ele>127.5</ele><time>2026-03-29T08:40:15Z</time></trkpt><trkpt lat="45.36793665699469" lon="10.582973801588592"><ele>128.0</ele><time>2026-03-29T08:40:16Z</time></trkpt><trkpt lat="45.36795700892437" lon="10.582775396276784"><ele>128.5</ele><time>2026-03-29T08:40:17Z</time></trkpt><trkpt lat="45.36798510009839" lon="10.582607750949913"><ele>129.0</ele><time>2026-03-29T08:40:18Z</time></trkpt><trkpt lat="45.36802431073825" lon="10.58245590817455"><ele>125.6</ele><time>2026-03-29T08:40:19Z</time></trkpt><trkpt lat="45.36806193049565" lon="10.582306233088026"><ele>122.2</ele><time>2026-03-29T08:40:20Z</time></trkpt><trkpt lat="45.36810851612374" lon="10.582152683561397"><ele>118.79999999999998</ele><time>2026-03-29T08:40:21Z</time></trkpt><trkpt lat="45.36815184742644" lon="10.582024125830158"><ele>115.39999999999999</ele><time>2026-03-29T08:40:22Z</time></trkpt><trkpt lat="45.368197733265674" lon="10.581936913721673"><ele>112.0</ele><time>2026-03-29T08:40:23Z</time></trkpt><trkpt lat="45.36825841636411" lon="10.581876088612422"><ele>112.0</ele><time>2026-03-29T08:40:24Z</time></trkpt><trkpt lat="45.36834943475902" lon="10.581851000100398"><ele>112.0</ele><time>2026-03-29T08:40:25Z</time></trkpt><trkpt lat="45.368462386749044" lon="10.581852090052559"><ele>112.0</ele><time>2026-03-29T08:40:26Z</time></trkpt><trkpt lat="45.368588914179085" lon="10.58182764334159"><ele>112.0</ele><time>2026-03-29T08:40:27Z</time></trkpt><trkpt lat="45.36875051531004" lon="10.581761160863675"><ele>111.66666666666667</ele><time>2026-03-29T08:40:28Z</time></trkpt><trkpt lat="45.36888212672342" lon="10.581496879204387"><ele>111.33333333333334</ele><time>2026-03-29T08:40:29Z</time></trkpt><trkpt lat="45.36903873703838" lon="10.58144247754568"><ele>111.0</ele><time>2026-03-29T08:40:30Z</time></trkpt><trkpt lat="45.369161324805724" lon="10.581392695101401"><ele>111.0</ele><time>2026-03-29T08:40:31Z</time></trkpt><trkpt lat="45.36925437554452" lon="10.581349592527124"><ele>111.0</ele><time>2026-03-29T08:40:32Z</time></trkpt><trkpt lat="45.36932466956741" lon="10.581313293538306"><ele>111.0</ele><time>2026-03-29T08:40:33Z</time></trkpt><trkpt lat="45.36941261545711" lon="10.581263826226847"><ele>111.0</ele><time>2026-03-29T08:40:35Z</time></trkpt><trkpt lat="45.36935389309449" lon="10.581198437219921"><ele>111.0</ele><time>2026-03-29T08:40:39Z</time></trkpt><trkpt lat="45.36924917983215" lon="10.581266542973925"><ele>111.0</ele><time>2026-03-29T08:40:41Z</time></trkpt><trkpt lat="45.36914433824021" lon="10.58131783403368"><ele>111.0</ele><time>2026-03-29T08:40:42Z</time></trkpt><trkpt lat="45.36904356405844" lon="10.581361431204394"><ele>111.0</ele><time>2026-03-29T08:40:43Z</time></trkpt><trkpt lat="45.368929617024236" lon="10.581405997088677"><ele>111.0</ele><time>2026-03-29T08:40:44Z</time></trkpt><trkpt lat="45.36880294328479" lon="10.581447781764783"><ele>111.25</ele><time>2026-03-29T08:40:45Z</time></trkpt><trkpt lat="45.36867625124822" lon="10.581485532576098"><ele>111.5</ele><time>2026-03-29T08:40:46Z</time></trkpt><trkpt lat="45.36853790789802" lon="10.58152414590564"><ele>111.75</ele><time>2026-03-29T08:40:47Z</time></trkpt><trkpt lat="45.36838675827155" lon="10.581556619565776"><ele>112.0</ele><time>2026-03-29T08:40:48Z</time></trkpt><trkpt lat="45.368229504794826" lon="10.581578936587324"><ele>112.0</ele><time>2026-03-29T08:40:49Z</time></trkpt><trkpt lat="45.36805486298561" lon="10.581498792311468"><ele>112.0</ele><time>2026-03-29T08:40:50Z</time></trkpt><trkpt lat="45.36787910663162" lon="10.581514859157435"><ele>112.0</ele><time>2026-03-29T08:40:51Z</time></trkpt><trkpt lat="45.367690674894604" lon="10.58152746195791"><ele>116.0</ele><time>2026-03-29T08:40:52Z</time></trkpt><trkpt lat="45.367506710515876" lon="10.581546071578908"><ele>120.0</ele><time>2026-03-29T08:40:53Z</time></trkpt><trkpt lat="45.367316764766954" lon="10.581563805617272"><ele>124.0</ele><time>2026-03-29T08:40:54Z</time></trkpt><trkpt lat="45.367131087175416" lon="10.581581434038707"><ele>125.66666666666667</ele><time>2026-03-29T08:40:55Z</time></trkpt><trkpt lat="45.36693860736908" lon="10.58160214105602"><ele>127.33333333333334</ele><time>2026-03-29T08:40:56Z</time></trkpt><trkpt lat="45.36676256125278" lon="10.581617084142449"><ele>129.0</ele><time>2026-03-29T08:40:57Z</time></trkpt><trkpt lat="45.366587523801364" lon="10.581630192654703"><ele>129.0</ele><time>2026-03-29T08:40:58Z</time></trkpt><trkpt lat="45.36643703827638" lon="10.581639888756543"><ele>129.0</ele><time>2026-03-29T08:40:59Z</time></trkpt><trkpt lat="45.36629670415824" lon="10.581647007582747"><ele>129.0</ele><time>2026-03-29T08:41:00Z</time></trkpt><trkpt lat="45.366163044134794" lon="10.58164066761425"><ele>129.0</ele><time>2026-03-29T08:41:01Z</time></trkpt><trkpt lat="45.36603636833799" lon="10.581601613597433"><ele>129.6</ele><time>2026-03-29T08:41:02Z</time></trkpt><trkpt lat="45.36591564113424" lon="10.581538304240514"><ele>130.2</ele><time>2026-03-29T08:41:03Z</time></trkpt><trkpt lat="45.36581943704375" lon="10.581482906589692"><ele>130.79999999999998</ele><time>2026-03-29T08:41:04Z</time></trkpt><trkpt lat="45.36572750774823" lon="10.581445208202602"><ele>131.4</ele><time>2026-03-29T08:41:05Z</time></trkpt><trkpt lat="45.36564020112505" lon="10.58144791018841"><ele>132.0</ele><time>2026-03-29T08:41:06Z</time></trkpt><trkpt lat="45.3655294992948" lon="10.581483633200651"><ele>133.25</ele><time>2026-03-29T08:41:07Z</time></trkpt><trkpt lat="45.36542324199124" lon="10.581596766773828"><ele>134.5</ele><time>2026-03-29T08:41:08Z</time></trkpt><trkpt lat="45.365290181899454" lon="10.581658518555018"><ele>135.75</ele><time>2026-03-29T08:41:09Z</time></trkpt><trkpt lat="45.365160775835" lon="10.581780590471539"><ele>137.0</ele><time>2026-03-29T08:41:10Z</time></trkpt><trkpt lat="45.36496586685846" lon="10.581761427058252"><ele>137.0</ele><time>2026-03-29T08:41:11Z</time></trkpt><trkpt lat="45.364776998276476" lon="10.581776225465516"><ele>137.0</ele><time>2026-03-29T08:41:12Z</time></trkpt><trkpt lat="45.36458061908917" lon="10.581791106498587"><ele>137.0</ele><time>2026-03-29T08:41:13Z</time></trkpt><trkpt lat="45.36438520517875" lon="10.581797301745954"><ele>138.66666666666666</ele><time>2026-03-29T08:41:14Z</time></trkpt><trkpt lat="45.364191820786836" lon="10.581803541053448"><ele>140.33333333333334</ele><time>2026-03-29T08:41:15Z</time></trkpt><trkpt lat="45.36400765708289" lon="10.581804923580577"><ele>142.0</ele><time>2026-03-29T08:41:16Z</time></trkpt><trkpt lat="45.36382059751381" lon="10.581790149663906"><ele>142.66666666666669</ele><time>2026-03-29T08:41:17Z</time></trkpt><trkpt lat="45.36363197038492" lon="10.581756416267371"><ele>143.33333333333334</ele><time>2026-03-29T08:41:18Z</time></trkpt><trkpt lat="45.363475571805886" lon="10.581704607187852"><ele>144.0</ele><time>2026-03-29T08:41:19Z</time></trkpt><trkpt lat="45.36332474989124" lon="10.581650015929327"><ele>144.0</ele><time>2026-03-29T08:41:20Z</time></trkpt><trkpt lat="45.363188332764786" lon="10.58159369714476"><ele>144.0</ele><time>2026-03-29T08:41:21Z</time></trkpt><trkpt lat="45.36305809655062" lon="10.581532094392998"><ele>144.0</ele><time>2026-03-29T08:41:22Z</time></trkpt><trkpt lat="45.36293165310329" lon="10.581469946245706"><ele>144.0</ele><time>2026-03-29T08:41:23Z</time></trkpt><trkpt lat="45.36280954095818" lon="10.581407592514173"><ele>144.66666666666666</ele><time>2026-03-29T08:41:24Z</time></trkpt><trkpt lat="45.36267675985139" lon="10.5813401680153"><ele>145.33333333333331</ele><time>2026-03-29T08:41:25Z</time></trkpt><trkpt lat="45.362535423055476" lon="10.581254890545864"><ele>146.0</ele><time>2026-03-29T08:41:26Z</time></trkpt><trkpt lat="45.36239021091601" lon="10.581160037727043"><ele>146.33333333333331</ele><time>2026-03-29T08:41:27Z</time></trkpt><trkpt lat="45.3622403144712" lon="10.581051712111304"><ele>146.66666666666666</ele><time>2026-03-29T08:41:28Z</time></trkpt><trkpt lat="45.362096348975065" lon="10.58091939992508"><ele>147.0</ele><time>2026-03-29T08:41:29Z</time></trkpt><trkpt lat="45.36194447450383" lon="10.580778974909965"><ele>148.66666666666666</ele><time>2026-03-29T08:41:30Z</time></trkpt><trkpt lat="45.361800167389354" lon="10.580645803219522"><ele>150.33333333333331</ele><time>2026-03-29T08:41:31Z</time></trkpt><trkpt lat="45.36167469182279" lon="10.580527259501483"><ele>152.0</ele><time>2026-03-29T08:41:32Z</time></trkpt><trkpt lat="45.36156719690743" lon="10.580431062418029"><ele>152.0</ele><time>2026-03-29T08:41:33Z</time></trkpt><trkpt lat="45.36149491834875" lon="10.580359738325468"><ele>152.0</ele><time>2026-03-29T08:41:34Z</time></trkpt><trkpt lat="45.36143397173912" lon="10.580309580093253"><ele>152.0</ele><time>2026-03-29T08:41:35Z</time></trkpt><trkpt lat="45.36137687469778" lon="10.580262260476399"><ele>152.0</ele><time>2026-03-29T08:41:37Z</time></trkpt><trkpt lat="45.3614535679225" lon="10.580332408273625"><ele>152.0</ele><time>2026-03-29T08:41:47Z</time></trkpt><trkpt lat="45.36153791452576" lon="10.580401490426125"><ele>152.0</ele><time>2026-03-29T08:41:49Z</time></trkpt><trkpt lat="45.36151503554395" lon="10.580628300175869"><ele>152.0</ele><time>2026-03-29T08:41:50Z</time></trkpt><trkpt lat="45.361572236856446" lon="10.580722699691533"><ele>152.0</ele><time>2026-03-29T08:41:51Z</time></trkpt><trkpt lat="45.36164720601321" lon="10.580812839755128"><ele>152.0</ele><time>2026-03-29T08:41:52Z</time></trkpt><trkpt lat="45.36175211417166" lon="10.580915375088622"><ele>152.0</ele><time>2026-03-29T08:41:53Z</time></trkpt><trkpt lat="45.361871570907105" lon="10.581019391695266"><ele>152.0</ele><time>2026-03-29T08:41:54Z</time></trkpt><trkpt lat="45.361978126413526" lon="10.581121955123"><ele>152.0</ele><time>2026-03-29T08:41:55Z</time></trkpt><trkpt lat="45.3620754784893" lon="10.581237946292344"><ele>152.0</ele><time>2026-03-29T08:41:56Z</time></trkpt><trkpt lat="45.362143153917636" lon="10.581338495110995"><ele>152.0</ele><time>2026-03-29T08:41:57Z</time></trkpt><trkpt lat="45.3621689413284" lon="10.581449225991827"><ele>152.0</ele><time>2026-03-29T08:41:58Z</time></trkpt><trkpt lat="45.362191357690776" lon="10.58159551266022"><ele>153.0</ele><time>2026-03-29T08:41:59Z</time></trkpt><trkpt lat="45.362195783878306" lon="10.581776905001718"><ele>154.0</ele><time>2026-03-29T08:42:00Z</time></trkpt><trkpt lat="45.362195559794536" lon="10.581985389352132"><ele>155.0</ele><time>2026-03-29T08:42:01Z</time></trkpt><trkpt lat="45.36217783381316" lon="10.582204259264383"><ele>156.0</ele><time>2026-03-29T08:42:02Z</time></trkpt><trkpt lat="45.36217013444114" lon="10.582424662757472"><ele>156.75</ele><time>2026-03-29T08:42:03Z</time></trkpt><trkpt lat="45.36217733895707" lon="10.582617281311599"><ele>157.5</ele><time>2026-03-29T08:42:04Z</time></trkpt><trkpt lat="45.36219863461094" lon="10.582816920769243"><ele>158.25</ele><time>2026-03-29T08:42:05Z</time></trkpt><trkpt lat="45.36224077106076" lon="10.5830243036785"><ele>159.0</ele><time>2026-03-29T08:42:06Z</time></trkpt><trkpt lat="45.36228159675707" lon="10.583226379626042"><ele>157.5</ele><time>2026-03-29T08:42:07Z</time></trkpt><trkpt lat="45.36232758740981" lon="10.583433013536474"><ele>156.0</ele><time>2026-03-29T08:42:08Z</time></trkpt><trkpt lat="45.36235841310063" lon="10.583610589659212"><ele>154.5</ele><time>2026-03-29T08:42:09Z</time></trkpt><trkpt lat="45.36237885510829" lon="10.583771265169261"><ele>153.0</ele><time>2026-03-29T08:42:10Z</time></trkpt><trkpt lat="45.362396623456846" lon="10.583955956588387"><ele>153.0</ele><time>2026-03-29T08:42:11Z</time></trkpt><trkpt lat="45.36239959139952" lon="10.584116261473277"><ele>153.0</ele><time>2026-03-29T08:42:12Z</time></trkpt><trkpt lat="45.362398283044676" lon="10.584260586384763"><ele>153.0</ele><time>2026-03-29T08:42:13Z</time></trkpt><trkpt lat="45.362412520410956" lon="10.584395819837342"><ele>153.0</ele><time>2026-03-29T08:42:14Z</time></trkpt><trkpt lat="45.36242871588144" lon="10.5844969959542"><ele>153.0</ele><time>2026-03-29T08:42:15Z</time></trkpt><trkpt lat="45.362462100100934" lon="10.584584590591513"><ele>153.20000000000002</ele><time>2026-03-29T08:42:16Z</time></trkpt><trkpt lat="45.362517843099354" lon="10.584673372818969"><ele>153.4</ele><time>2026-03-29T08:42:18Z</time></trkpt><trkpt lat="45.36261587373748" lon="10.584788662445886"><ele>153.60000000000002</ele><time>2026-03-29T08:42:20Z</time></trkpt><trkpt lat="45.36263519415272" lon="10.584887544629007"><ele>153.8</ele><time>2026-03-29T08:42:21Z</time></trkpt><trkpt lat="45.362640392982435" lon="10.585016624839824"><ele>154.0</ele><time>2026-03-29T08:42:22Z</time></trkpt><trkpt lat="45.36261694702398" lon="10.585128924388592"><ele>154.0</ele><time>2026-03-29T08:42:23Z</time></trkpt><trkpt lat="45.36256786846545" lon="10.585233657044512"><ele>154.0</ele><time>2026-03-29T08:42:24Z</time></trkpt><trkpt lat="45.3625048502814" lon="10.585326288268432"><ele>154.0</ele><time>2026-03-29T08:42:25Z</time></trkpt><trkpt lat="45.36246424258571" lon="10.585441270709074"><ele>154.0</ele><time>2026-03-29T08:42:26Z</time></trkpt><trkpt lat="45.3624515188396" lon="10.585568793918496"><ele>154.0</ele><time>2026-03-29T08:42:27Z</time></trkpt><trkpt lat="45.362464790508334" lon="10.58569786125963"><ele>153.8</ele><time>2026-03-29T08:42:28Z</time></trkpt><trkpt lat="45.362510221673524" lon="10.585825611835354"><ele>153.60000000000002</ele><time>2026-03-29T08:42:29Z</time></trkpt><trkpt lat="45.36256162948921" lon="10.585945832906415"><ele>153.4</ele><time>2026-03-29T08:42:30Z</time></trkpt><trkpt lat="45.36258186233116" lon="10.586060562845455"><ele>153.20000000000002</ele><time>2026-03-29T08:42:31Z</time></trkpt><trkpt lat="45.362580110900474" lon="10.586216392149986"><ele>153.0</ele><time>2026-03-29T08:42:32Z</time></trkpt><trkpt lat="45.36258348715335" lon="10.586368145372372"><ele>153.33333333333334</ele><time>2026-03-29T08:42:33Z</time></trkpt><trkpt lat="45.36258199901831" lon="10.586497920546968"><ele>153.66666666666666</ele><time>2026-03-29T08:42:34Z</time></trkpt><trkpt lat="45.362584540199414" lon="10.58660453704895"><ele>154.0</ele><time>2026-03-29T08:42:35Z</time></trkpt><trkpt lat="45.36262047707872" lon="10.586710684257353"><ele>154.33333333333331</ele><time>2026-03-29T08:42:37Z</time></trkpt><trkpt lat="45.36272999023907" lon="10.58677526416484"><ele>154.66666666666666</ele><time>2026-03-29T08:42:39Z</time></trkpt><trkpt lat="45.362802739727044" lon="10.586803098696477"><ele>155.0</ele><time>2026-03-29T08:42:40Z</time></trkpt><trkpt lat="45.36288034845034" lon="10.586826832240567"><ele>155.0</ele><time>2026-03-29T08:42:41Z</time></trkpt><trkpt lat="45.36298494847065" lon="10.586836941249903"><ele>155.0</ele><time>2026-03-29T08:42:42Z</time></trkpt><trkpt lat="45.36307913127435" lon="10.586831352228241"><ele>155.0</ele><time>2026-03-29T08:42:43Z</time></trkpt><trkpt lat="45.36316916552929" lon="10.586811514556686"><ele>155.0</ele><time>2026-03-29T08:42:44Z</time></trkpt><trkpt lat="45.36326547960766" lon="10.586782704944158"><ele>155.0</ele><time>2026-03-29T08:42:45Z</time></trkpt><trkpt lat="45.36334219267186" lon="10.586789100242768"><ele>154.33333333333331</ele><time>2026-03-29T08:42:46Z</time></trkpt><trkpt lat="45.36342107414779" lon="10.586824775147067"><ele>153.66666666666666</ele><time>2026-03-29T08:42:47Z</time></trkpt><trkpt lat="45.36348228550672" lon="10.58687124104664"><ele>153.0</ele><time>2026-03-29T08:42:48Z</time></trkpt><trkpt lat="45.36352490486964" lon="10.586946870738597"><ele>152.33333333333334</ele><time>2026-03-29T08:42:49Z</time></trkpt><trkpt lat="45.36353244255409" lon="10.587046251799547"><ele>151.66666666666669</ele><time>2026-03-29T08:42:50Z</time></trkpt><trkpt lat="45.36355107950478" lon="10.587181637624095"><ele>151.0</ele><time>2026-03-29T08:42:51Z</time></trkpt><trkpt lat="45.363556213548016" lon="10.587299315391054"><ele>151.0</ele><time>2026-03-29T08:42:52Z</time></trkpt><trkpt lat="45.363543012041966" lon="10.587423254201648"><ele>151.0</ele><time>2026-03-29T08:42:53Z</time></trkpt><trkpt lat="45.36354073694122" lon="10.587524922824452"><ele>151.0</ele><time>2026-03-29T08:42:54Z</time></trkpt><trkpt lat="45.36355889501265" lon="10.587611911454285"><ele>151.0</ele><time>2026-03-29T08:42:55Z</time></trkpt><trkpt lat="45.363601436104766" lon="10.587700687737787"><ele>151.0</ele><time>2026-03-29T08:42:56Z</time></trkpt><trkpt lat="45.36367837897712" lon="10.587781660902237"><ele>151.0</ele><time>2026-03-29T08:42:57Z</time></trkpt><trkpt lat="45.363772564130166" lon="10.587869175766846"><ele>147.75</ele><time>2026-03-29T08:42:58Z</time></trkpt><trkpt lat="45.36388252977365" lon="10.587957248387335"><ele>144.5</ele><time>2026-03-29T08:42:59Z</time></trkpt><trkpt lat="45.36397707493688" lon="10.588030923270864"><ele>141.25</ele><time>2026-03-29T08:43:00Z</time></trkpt><trkpt lat="45.36408415525964" lon="10.588073798397055"><ele>138.0</ele><time>2026-03-29T08:43:01Z</time></trkpt><trkpt lat="45.364193026093865" lon="10.58809935096883"><ele>138.0</ele><time>2026-03-29T08:43:02Z</time></trkpt><trkpt lat="45.36429771776874" lon="10.588132820149855"><ele>138.0</ele><time>2026-03-29T08:43:03Z</time></trkpt><trkpt lat="45.36439393603093" lon="10.588179187804652"><ele>138.0</ele><time>2026-03-29T08:43:04Z</time></trkpt><trkpt lat="45.36450685589365" lon="10.588230207686394"><ele>138.0</ele><time>2026-03-29T08:43:05Z</time></trkpt><trkpt lat="45.364634257464814" lon="10.5882921215972"><ele>138.5</ele><time>2026-03-29T08:43:06Z</time></trkpt><trkpt lat="45.364770295615884" lon="10.588353739547033"><ele>139.0</ele><time>2026-03-29T08:43:07Z</time></trkpt><trkpt lat="45.36489176750226" lon="10.588403922495463"><ele>139.5</ele><time>2026-03-29T08:43:08Z</time></trkpt><trkpt lat="45.364999680111765" lon="10.588437113970416"><ele>140.0</ele><time>2026-03-29T08:43:09Z</time></trkpt><trkpt lat="45.36512128467629" lon="10.588445409616916"><ele>140.0</ele><time>2026-03-29T08:43:10Z</time></trkpt><trkpt lat="45.365264571317894" lon="10.588428180616894"><ele>140.0</ele><time>2026-03-29T08:43:11Z</time></trkpt><trkpt lat="45.365405269033765" lon="10.58840769245483"><ele>140.0</ele><time>2026-03-29T08:43:12Z</time></trkpt><trkpt lat="45.36551860686095" lon="10.588391913965221"><ele>140.0</ele><time>2026-03-29T08:43:13Z</time></trkpt><trkpt lat="45.36562367278944" lon="10.588384182454229"><ele>140.5</ele><time>2026-03-29T08:43:14Z</time></trkpt><trkpt lat="45.365717148655634" lon="10.588381371019942"><ele>141.0</ele><time>2026-03-29T08:43:15Z</time></trkpt><trkpt lat="45.36581992866742" lon="10.588405469368167"><ele>141.5</ele><time>2026-03-29T08:43:16Z</time></trkpt><trkpt lat="45.36590221005412" lon="10.588437239350988"><ele>142.0</ele><time>2026-03-29T08:43:17Z</time></trkpt><trkpt lat="45.36597972262719" lon="10.588471495709994"><ele>142.5</ele><time>2026-03-29T08:43:18Z</time></trkpt><trkpt lat="45.366041792590096" lon="10.588496287318836"><ele>143.0</ele><time>2026-03-29T08:43:19Z</time></trkpt><trkpt lat="45.36611542255263" lon="10.588536043055154"><ele>143.0</ele><time>2026-03-29T08:43:21Z</time></trkpt><trkpt lat="45.36612295799906" lon="10.588638689459605"><ele>143.0</ele><time>2026-03-29T08:43:23Z</time></trkpt><trkpt lat="45.366091423437226" lon="10.588722653670928"><ele>143.0</ele><time>2026-03-29T08:43:24Z</time></trkpt><trkpt lat="45.36604618601115" lon="10.588846128246871"><ele>143.0</ele><time>2026-03-29T08:43:25Z</time></trkpt><trkpt lat="45.36599667701102" lon="10.589022581461986"><ele>143.0</ele><time>2026-03-29T08:43:26Z</time></trkpt><trkpt lat="45.365947702052246" lon="10.589234942200855"><ele>143.33333333333331</ele><time>2026-03-29T08:43:27Z</time></trkpt><trkpt lat="45.365905867898206" lon="10.589474903895631"><ele>143.66666666666666</ele><time>2026-03-29T08:43:28Z</time></trkpt><trkpt lat="45.36586569496449" lon="10.589720082297056"><ele>144.0</ele><time>2026-03-29T08:43:29Z</time></trkpt><trkpt lat="45.365827150295196" lon="10.589981071757657"><ele>144.0</ele><time>2026-03-29T08:43:30Z</time></trkpt><trkpt lat="45.36578918707668" lon="10.5902251349528"><ele>144.0</ele><time>2026-03-29T08:43:31Z</time></trkpt><trkpt lat="45.365764772079295" lon="10.59045217420289"><ele>144.0</ele><time>2026-03-29T08:43:32Z</time></trkpt><trkpt lat="45.365739144013965" lon="10.590681435284564"><ele>144.0</ele><time>2026-03-29T08:43:33Z</time></trkpt><trkpt lat="45.36571425549147" lon="10.590893247918324"><ele>144.0</ele><time>2026-03-29T08:43:34Z</time></trkpt><trkpt lat="45.36568672375304" lon="10.591090906505343"><ele>144.0</ele><time>2026-03-29T08:43:35Z</time></trkpt><trkpt lat="45.36566233041014" lon="10.591267814165015"><ele>144.0</ele><time>2026-03-29T08:43:36Z</time></trkpt><trkpt lat="45.36563300810997" lon="10.591416332060943"><ele>144.0</ele><time>2026-03-29T08:43:37Z</time></trkpt><trkpt lat="45.365599511812775" lon="10.591556235152042"><ele>144.0</ele><time>2026-03-29T08:43:38Z</time></trkpt><trkpt lat="45.36557067134477" lon="10.591697051471852"><ele>144.0</ele><time>2026-03-29T08:43:39Z</time></trkpt><trkpt lat="45.365547058096425" lon="10.5918602375364"><ele>144.0</ele><time>2026-03-29T08:43:40Z</time></trkpt><trkpt lat="45.36553460651088" lon="10.592038723218442"><ele>144.0</ele><time>2026-03-29T08:43:41Z</time></trkpt><trkpt lat="45.365536959530004" lon="10.592208554957699"><ele>144.0</ele><time>2026-03-29T08:43:42Z</time></trkpt><trkpt lat="45.36566441272907" lon="10.592399095783191"><ele>144.0</ele><time>2026-03-29T08:43:43Z</time></trkpt><trkpt lat="45.36564329550233" lon="10.592553446310266"><ele>144.0</ele><time>2026-03-29T08:43:44Z</time></trkpt><trkpt lat="45.36562465710888" lon="10.592689776674273"><ele>144.0</ele><time>2026-03-29T08:43:45Z</time></trkpt><trkpt lat="45.36560904522535" lon="10.592803969349585"><ele>144.0</ele><time>2026-03-29T08:43:46Z</time></trkpt><trkpt lat="45.36559671500742" lon="10.592894158495557"><ele>144.0</ele><time>2026-03-29T08:43:47Z</time></trkpt><trkpt lat="45.365582457753455" lon="10.592998443392133"><ele>144.0</ele><time>2026-03-29T08:43:49Z</time></trkpt><trkpt lat="45.36564775646326" lon="10.592954893304995"><ele>144.0</ele><time>2026-03-29T08:43:52Z</time></trkpt><trkpt lat="45.36566308481328" lon="10.592842776982355"><ele>144.0</ele><time>2026-03-29T08:43:53Z</time></trkpt><trkpt lat="45.36568306998553" lon="10.592696598186993"><ele>144.0</ele><time>2026-03-29T08:43:54Z</time></trkpt><trkpt lat="45.36570765710571" lon="10.592516759894385"><ele>144.0</ele><time>2026-03-29T08:43:55Z</time></trkpt><trkpt lat="45.36575258665731" lon="10.592330945383111"><ele>144.0</ele><time>2026-03-29T08:43:56Z</time></trkpt><trkpt lat="45.36578301474238" lon="10.592129117850208"><ele>144.0</ele><time>2026-03-29T08:43:57Z</time></trkpt><trkpt lat="45.36581769029775" lon="10.591903891386439"><ele>144.0</ele><time>2026-03-29T08:43:58Z</time></trkpt><trkpt lat="45.36585542348749" lon="10.591648645815523"><ele>144.0</ele><time>2026-03-29T08:43:59Z</time></trkpt><trkpt lat="45.36588810423174" lon="10.591398444210208"><ele>144.0</ele><time>2026-03-29T08:44:00Z</time></trkpt><trkpt lat="45.365921434393826" lon="10.591161079079551"><ele>144.0</ele><time>2026-03-29T08:44:01Z</time></trkpt><trkpt lat="45.365950290859665" lon="10.590950614489229"><ele>144.0</ele><time>2026-03-29T08:44:02Z</time></trkpt><trkpt lat="45.36597308264304" lon="10.59077238409085"><ele>144.0</ele><time>2026-03-29T08:44:03Z</time></trkpt><trkpt lat="45.36599536000926" lon="10.590611803369308"><ele>144.0</ele><time>2026-03-29T08:44:04Z</time></trkpt><trkpt lat="45.3660206193403" lon="10.590486230017087"><ele>144.0</ele><time>2026-03-29T08:44:05Z</time></trkpt><trkpt lat="45.36605064479787" lon="10.590395050693806"><ele>144.0</ele><time>2026-03-29T08:44:06Z</time></trkpt><trkpt lat="45.36611138062431" lon="10.590275194147152"><ele>144.0</ele><time>2026-03-29T08:44:08Z</time></trkpt><trkpt lat="45.36612672436148" lon="10.590165239664824"><ele>144.0</ele><time>2026-03-29T08:44:10Z</time></trkpt><trkpt lat="45.366149772406516" lon="10.59000007489285"><ele>144.0</ele><time>2026-03-29T08:44:12Z</time></trkpt><trkpt lat="45.366167727933636" lon="10.589875028257541"><ele>144.75</ele><time>2026-03-29T08:44:14Z</time></trkpt><trkpt lat="45.366370399436555" lon="10.58993039628181"><ele>145.5</ele><time>2026-03-29T08:44:15Z</time></trkpt><trkpt lat="45.366454194912976" lon="10.58994782665162"><ele>146.25</ele><time>2026-03-29T08:44:16Z</time></trkpt><trkpt lat="45.36655019558528" lon="10.589962872784024"><ele>147.0</ele><time>2026-03-29T08:44:17Z</time></trkpt><trkpt lat="45.36666695691816" lon="10.589981705630374"><ele>147.0</ele><time>2026-03-29T08:44:18Z</time></trkpt><trkpt lat="45.36678234838541" lon="10.590007557450766"><ele>147.0</ele><time>2026-03-29T08:44:19Z</time></trkpt><trkpt lat="45.366900164511144" lon="10.59003675639536"><ele>147.0</ele><time>2026-03-29T08:44:20Z</time></trkpt><trkpt lat="45.36701799492118" lon="10.590074824321638"><ele>147.0</ele><time>2026-03-29T08:44:21Z</time></trkpt><trkpt lat="45.36712626616476" lon="10.59010736012104"><ele>147.4</ele><time>2026-03-29T08:44:22Z</time></trkpt><trkpt lat="45.367248373534835" lon="10.59013918039691"><ele>147.79999999999998</ele><time>2026-03-29T08:44:23Z</time></trkpt><trkpt lat="45.36735153715138" lon="10.590153415117488"><ele>148.2</ele><time>2026-03-29T08:44:24Z</time></trkpt><trkpt lat="45.367436314953295" lon="10.59016642404865"><ele>148.6</ele><time>2026-03-29T08:44:25Z</time></trkpt><trkpt lat="45.367507880902984" lon="10.590178885195899"><ele>149.0</ele><time>2026-03-29T08:44:26Z</time></trkpt><trkpt lat="45.367623802212925" lon="10.590246362485244"><ele>149.0</ele><time>2026-03-29T08:44:28Z</time></trkpt><trkpt lat="45.3676732269564" lon="10.590320098656"><ele>149.0</ele><time>2026-03-29T08:44:29Z</time></trkpt><trkpt lat="45.36770148076404" lon="10.590405833275359"><ele>149.0</ele><time>2026-03-29T08:44:30Z</time></trkpt><trkpt lat="45.3677524696727" lon="10.590477332384799"><ele>149.0</ele><time>2026-03-29T08:44:31Z</time></trkpt><trkpt lat="45.3678127512187" lon="10.590512106935007"><ele>149.0</ele><time>2026-03-29T08:44:32Z</time></trkpt><trkpt lat="45.36787945793547" lon="10.590504318052913"><ele>149.0</ele><time>2026-03-29T08:44:33Z</time></trkpt><trkpt lat="45.36795481338523" lon="10.59046684734892"><ele>149.0</ele><time>2026-03-29T08:44:34Z</time></trkpt><trkpt lat="45.368048884722675" lon="10.590434487441922"><ele>148.5</ele><time>2026-03-29T08:44:35Z</time></trkpt><trkpt lat="45.36815832749083" lon="10.59042741928344"><ele>148.0</ele><time>2026-03-29T08:44:36Z</time></trkpt><trkpt lat="45.36824440795672" lon="10.590459929137682"><ele>147.5</ele><time>2026-03-29T08:44:37Z</time></trkpt><trkpt lat="45.36831062702701" lon="10.59048256907322"><ele>147.0</ele><time>2026-03-29T08:44:38Z</time></trkpt><trkpt lat="45.36837386372892" lon="10.59049136896031"><ele>146.5</ele><time>2026-03-29T08:44:39Z</time></trkpt><trkpt lat="45.36842787073391" lon="10.590553279188182"><ele>146.0</ele><time>2026-03-29T08:44:41Z</time></trkpt><trkpt lat="45.36839873352701" lon="10.590644761544226"><ele>146.0</ele><time>2026-03-29T08:44:43Z</time></trkpt><trkpt lat="45.368367194432835" lon="10.590769666492816"><ele>146.0</ele><time>2026-03-29T08:44:44Z</time></trkpt><trkpt lat="45.36834539549291" lon="10.590908579885207"><ele>146.0</ele><time>2026-03-29T08:44:45Z</time></trkpt><trkpt lat="45.36833042540365" lon="10.591064919705719"><ele>146.0</ele><time>2026-03-29T08:44:46Z</time></trkpt><trkpt lat="45.36831302135752" lon="10.591232642369297"><ele>146.0</ele><time>2026-03-29T08:44:47Z</time></trkpt><trkpt lat="45.36829064542367" lon="10.59139146011075"><ele>146.25</ele><time>2026-03-29T08:44:48Z</time></trkpt><trkpt lat="45.36825306724255" lon="10.59155402958193"><ele>146.5</ele><time>2026-03-29T08:44:49Z</time></trkpt><trkpt lat="45.36822834833222" lon="10.591725789791465"><ele>146.75</ele><time>2026-03-29T08:44:50Z</time></trkpt><trkpt lat="45.36821139452359" lon="10.591911958087296"><ele>147.0</ele><time>2026-03-29T08:44:51Z</time></trkpt><trkpt lat="45.36818921498857" lon="10.592104133577351"><ele>147.5</ele><time>2026-03-29T08:44:52Z</time></trkpt><trkpt lat="45.36816016773045" lon="10.592296499664101"><ele>148.0</ele><time>2026-03-29T08:44:53Z</time></trkpt><trkpt lat="45.368130591511864" lon="10.59247101121869"><ele>148.5</ele><time>2026-03-29T08:44:54Z</time></trkpt><trkpt lat="45.3681058988215" lon="10.592615533050175"><ele>149.0</ele><time>2026-03-29T08:44:55Z</time></trkpt><trkpt lat="45.368095144379076" lon="10.592776531810234"><ele>148.6</ele><time>2026-03-29T08:44:56Z</time></trkpt><trkpt lat="45.36809561007192" lon="10.592927763418388"><ele>148.2</ele><time>2026-03-29T08:44:57Z</time></trkpt><trkpt lat="45.36809855623927" lon="10.593048320639454"><ele>147.79999999999998</ele><time>2026-03-29T08:44:58Z</time></trkpt><trkpt lat="45.36812616243094" lon="10.593183990436062"><ele>147.4</ele><time>2026-03-29T08:45:00Z</time></trkpt><trkpt lat="45.36824280420852" lon="10.593237268028975"><ele>147.0</ele><time>2026-03-29T08:45:02Z</time></trkpt><trkpt lat="45.368318088006745" lon="10.593241345380678"><ele>147.0</ele><time>2026-03-29T08:45:03Z</time></trkpt><trkpt lat="45.368388832319376" lon="10.593234962037196"><ele>147.0</ele><time>2026-03-29T08:45:04Z</time></trkpt><trkpt lat="45.36845624354083" lon="10.593237190443334"><ele>147.0</ele><time>2026-03-29T08:45:05Z</time></trkpt><trkpt lat="45.368522891527995" lon="10.593247648800164"><ele>147.0</ele><time>2026-03-29T08:45:06Z</time></trkpt><trkpt lat="45.368585859074614" lon="10.593292212690235"><ele>147.0</ele><time>2026-03-29T08:45:07Z</time></trkpt><trkpt lat="45.36863339345381" lon="10.593357445590636"><ele>147.0</ele><time>2026-03-29T08:45:08Z</time></trkpt><trkpt lat="45.36866455521987" lon="10.593457529799675"><ele>147.0</ele><time>2026-03-29T08:45:09Z</time></trkpt><trkpt lat="45.36870068672368" lon="10.593579666187"><ele>147.5</ele><time>2026-03-29T08:45:10Z</time></trkpt><trkpt lat="45.36876229185837" lon="10.593727770018253"><ele>148.0</ele><time>2026-03-29T08:45:11Z</time></trkpt><trkpt lat="45.36883310773592" lon="10.593877795447199"><ele>148.5</ele><time>2026-03-29T08:45:12Z</time></trkpt><trkpt lat="45.368916742227846" lon="10.594021931257831"><ele>149.0</ele><time>2026-03-29T08:45:13Z</time></trkpt><trkpt lat="45.36897525781778" lon="10.594152464718121"><ele>146.0</ele><time>2026-03-29T08:45:14Z</time></trkpt><trkpt lat="45.36901416974937" lon="10.594273769109508"><ele>143.0</ele><time>2026-03-29T08:45:15Z</time></trkpt><trkpt lat="45.36901590747264" lon="10.594389050787989"><ele>140.0</ele><time>2026-03-29T08:45:16Z</time></trkpt><trkpt lat="45.36901437335478" lon="10.59453594419159"><ele>137.0</ele><time>2026-03-29T08:45:17Z</time></trkpt><trkpt lat="45.368997272648016" lon="10.594724355281656"><ele>134.0</ele><time>2026-03-29T08:45:18Z</time></trkpt><trkpt lat="45.36897287016137" lon="10.594917581279278"><ele>133.6</ele><time>2026-03-29T08:45:19Z</time></trkpt><trkpt lat="45.36894854958998" lon="10.595101245532389"><ele>133.2</ele><time>2026-03-29T08:45:20Z</time></trkpt><trkpt lat="45.36893933687254" lon="10.595258331833337"><ele>132.79999999999998</ele><time>2026-03-29T08:45:21Z</time></trkpt><trkpt lat="45.36894662297469" lon="10.595403243958584"><ele>132.4</ele><time>2026-03-29T08:45:22Z</time></trkpt><trkpt lat="45.36897288897168" lon="10.59552060889812"><ele>132.0</ele><time>2026-03-29T08:45:23Z</time></trkpt><trkpt lat="45.36901623348225" lon="10.595651755632023"><ele>132.0</ele><time>2026-03-29T08:45:24Z</time></trkpt><trkpt lat="45.36907604765721" lon="10.595793195007232"><ele>132.0</ele><time>2026-03-29T08:45:25Z</time></trkpt><trkpt lat="45.369139743023766" lon="10.595940944823786"><ele>132.0</ele><time>2026-03-29T08:45:26Z</time></trkpt><trkpt lat="45.36919543348569" lon="10.596075900917757"><ele>132.0</ele><time>2026-03-29T08:45:27Z</time></trkpt><trkpt lat="45.36923274198746" lon="10.596195040305368"><ele>132.0</ele><time>2026-03-29T08:45:28Z</time></trkpt><trkpt lat="45.36926505682479" lon="10.59629162905051"><ele>131.2</ele><time>2026-03-29T08:45:29Z</time></trkpt><trkpt lat="45.369291244504716" lon="10.596408867559836"><ele>130.39999999999998</ele><time>2026-03-29T08:45:31Z</time></trkpt><trkpt lat="45.36922820555508" lon="10.596544901084455"><ele>129.60000000000002</ele><time>2026-03-29T08:45:34Z</time></trkpt><trkpt lat="45.36914874622689" lon="10.596578549300478"><ele>128.8</ele><time>2026-03-29T08:45:35Z</time></trkpt><trkpt lat="45.36905395856831" lon="10.596627717417459"><ele>128.0</ele><time>2026-03-29T08:45:36Z</time></trkpt><trkpt lat="45.36895747573663" lon="10.596720374348848"><ele>131.25</ele><time>2026-03-29T08:45:37Z</time></trkpt><trkpt lat="45.36885752686365" lon="10.596832924046018"><ele>134.5</ele><time>2026-03-29T08:45:38Z</time></trkpt><trkpt lat="45.36873392464043" lon="10.596955229788387"><ele>137.75</ele><time>2026-03-29T08:45:39Z</time></trkpt><trkpt lat="45.36862654736699" lon="10.597040188498507"><ele>141.0</ele><time>2026-03-29T08:45:40Z</time></trkpt><trkpt lat="45.36851454188912" lon="10.597058957713532"><ele>141.0</ele><time>2026-03-29T08:45:41Z</time></trkpt><trkpt lat="45.36839932083102" lon="10.596970770456547"><ele>141.0</ele><time>2026-03-29T08:45:42Z</time></trkpt><trkpt lat="45.36826905736557" lon="10.59687258293384"><ele>141.0</ele><time>2026-03-29T08:45:43Z</time></trkpt><trkpt lat="45.36814004000327" lon="10.596731783321676"><ele>141.0</ele><time>2026-03-29T08:45:44Z</time></trkpt><trkpt lat="45.367999465018876" lon="10.596615746064847"><ele>144.0</ele><time>2026-03-29T08:45:45Z</time></trkpt><trkpt lat="45.36785969847804" lon="10.596537213339047"><ele>147.0</ele><time>2026-03-29T08:45:46Z</time></trkpt><trkpt lat="45.36772460469993" lon="10.596488003164668"><ele>150.0</ele><time>2026-03-29T08:45:47Z</time></trkpt><trkpt lat="45.36759815569847" lon="10.596479970118171"><ele>153.0</ele><time>2026-03-29T08:45:48Z</time></trkpt><trkpt lat="45.36746782989781" lon="10.596522680975141"><ele>153.0</ele><time>2026-03-29T08:45:49Z</time></trkpt><trkpt lat="45.36732887031266" lon="10.596629069041398"><ele>153.0</ele><time>2026-03-29T08:45:50Z</time></trkpt><trkpt lat="45.367186795751735" lon="10.596750884142642"><ele>153.0</ele><time>2026-03-29T08:45:51Z</time></trkpt><trkpt lat="45.36703280751186" lon="10.596897245598845"><ele>152.0</ele><time>2026-03-29T08:45:52Z</time></trkpt><trkpt lat="45.3668612384777" lon="10.597037778619459"><ele>151.0</ele><time>2026-03-29T08:45:53Z</time></trkpt><trkpt lat="45.36669380216218" lon="10.597184043068275"><ele>150.0</ele><time>2026-03-29T08:45:54Z</time></trkpt><trkpt lat="45.36651262642639" lon="10.597341251556045"><ele>147.66666666666666</ele><time>2026-03-29T08:45:55Z</time></trkpt><trkpt lat="45.36634132778693" lon="10.59749267552198"><ele>145.33333333333331</ele><time>2026-03-29T08:45:56Z</time></trkpt><trkpt lat="45.36618024794156" lon="10.597632950494841"><ele>143.0</ele><time>2026-03-29T08:45:57Z</time></trkpt><trkpt lat="45.36602567535672" lon="10.597760397294007"><ele>144.66666666666666</ele><time>2026-03-29T08:45:58Z</time></trkpt><trkpt lat="45.36587472550293" lon="10.597877741405688"><ele>146.33333333333334</ele><time>2026-03-29T08:45:59Z</time></trkpt><trkpt lat="45.3657303234861" lon="10.597965477300264"><ele>148.0</ele><time>2026-03-29T08:46:00Z</time></trkpt><trkpt lat="45.365585609779515" lon="10.59801005158724"><ele>147.0</ele><time>2026-03-29T08:46:01Z</time></trkpt><trkpt lat="45.36544050673403" lon="10.59802636614701"><ele>146.0</ele><time>2026-03-29T08:46:02Z</time></trkpt><trkpt lat="45.36531557214218" lon="10.598031385292606"><ele>145.0</ele><time>2026-03-29T08:46:03Z</time></trkpt><trkpt lat="45.36520867989793" lon="10.598036791961594"><ele>144.0</ele><time>2026-03-29T08:46:04Z</time></trkpt><trkpt lat="45.36511153637582" lon="10.598031603497294"><ele>144.0</ele><time>2026-03-29T08:46:05Z</time></trkpt><trkpt lat="45.365025943212174" lon="10.59799690428304"><ele>144.0</ele><time>2026-03-29T08:46:06Z</time></trkpt><trkpt lat="45.3649485229737" lon="10.59792113516604"><ele>144.0</ele><time>2026-03-29T08:46:07Z</time></trkpt><trkpt lat="45.364867986367386" lon="10.597844585198368"><ele>144.0</ele><time>2026-03-29T08:46:08Z</time></trkpt><trkpt lat="45.364776717824114" lon="10.59782763167659"><ele>144.0</ele><time>2026-03-29T08:46:09Z</time></trkpt><trkpt lat="45.3646885405283" lon="10.597870280117824"><ele>143.0</ele><time>2026-03-29T08:46:10Z</time></trkpt><trkpt lat="45.36461633111486" lon="10.59796610495266"><ele>142.0</ele><time>2026-03-29T08:46:11Z</time></trkpt><trkpt lat="45.36459076548209" lon="10.59810638089246"><ele>141.0</ele><time>2026-03-29T08:46:12Z</time></trkpt><trkpt lat="45.364601053492514" lon="10.598265000043808"><ele>140.0</ele><time>2026-03-29T08:46:13Z</time></trkpt><trkpt lat="45.364662758498596" lon="10.598414532460849"><ele>139.0</ele><time>2026-03-29T08:46:14Z</time></trkpt><trkpt lat="45.364609755854026" lon="10.59862026729789"><ele>140.0</ele><time>2026-03-29T08:46:15Z</time></trkpt><trkpt lat="45.364536347847945" lon="10.598795604249538"><ele>141.0</ele><time>2026-03-29T08:46:16Z</time></trkpt><trkpt lat="45.364434149912476" lon="10.59899089182599"><ele>142.0</ele><time>2026-03-29T08:46:17Z</time></trkpt><trkpt lat="45.36432666030009" lon="10.599204221243179"><ele>142.0</ele><time>2026-03-29T08:46:18Z</time></trkpt><trkpt lat="45.36422397351329" lon="10.59943927355437"><ele>142.0</ele><time>2026-03-29T08:46:19Z</time></trkpt><trkpt lat="45.364118356627735" lon="10.599689063127455"><ele>142.0</ele><time>2026-03-29T08:46:20Z</time></trkpt><trkpt lat="45.364014303603895" lon="10.599942165884089"><ele>142.33333333333334</ele><time>2026-03-29T08:46:21Z</time></trkpt><trkpt lat="45.363903203884995" lon="10.60020816009274"><ele>142.66666666666666</ele><time>2026-03-29T08:46:22Z</time></trkpt><trkpt lat="45.363786745021116" lon="10.600481951461498"><ele>143.0</ele><time>2026-03-29T08:46:23Z</time></trkpt><trkpt lat="45.36367276542809" lon="10.600754745235987"><ele>143.0</ele><time>2026-03-29T08:46:24Z</time></trkpt><trkpt lat="45.363561348464735" lon="10.601038230329705"><ele>143.0</ele><time>2026-03-29T08:46:25Z</time></trkpt><trkpt lat="45.363443623746306" lon="10.601316749208104"><ele>145.0</ele><time>2026-03-29T08:46:26Z</time></trkpt><trkpt lat="45.36333271101964" lon="10.601597390375003"><ele>147.0</ele><time>2026-03-29T08:46:27Z</time></trkpt><trkpt lat="45.363223717665925" lon="10.601883213225324"><ele>148.66666666666666</ele><time>2026-03-29T08:46:28Z</time></trkpt><trkpt lat="45.363127460595585" lon="10.602169175717952"><ele>150.33333333333331</ele><time>2026-03-29T08:46:29Z</time></trkpt><trkpt lat="45.36303618578079" lon="10.602455672491267"><ele>152.0</ele><time>2026-03-29T08:46:30Z</time></trkpt><trkpt lat="45.3629416662207" lon="10.602741652920727"><ele>148.66666666666666</ele><time>2026-03-29T08:46:31Z</time></trkpt><trkpt lat="45.362848902335855" lon="10.603010901647217"><ele>145.33333333333334</ele><time>2026-03-29T08:46:32Z</time></trkpt><trkpt lat="45.36275902046317" lon="10.603272992080635"><ele>142.0</ele><time>2026-03-29T08:46:33Z</time></trkpt><trkpt lat="45.362669816081045" lon="10.60352466416063"><ele>144.0</ele><time>2026-03-29T08:46:34Z</time></trkpt><trkpt lat="45.36258321270212" lon="10.603741837461712"><ele>146.0</ele><time>2026-03-29T08:46:35Z</time></trkpt><trkpt lat="45.362497896027" lon="10.603939654872617"><ele>148.0</ele><time>2026-03-29T08:46:36Z</time></trkpt><trkpt lat="45.36241643096414" lon="10.60410835006145"><ele>148.0</ele><time>2026-03-29T08:46:37Z</time></trkpt><trkpt lat="45.36234068852894" lon="10.604250239999892"><ele>148.0</ele><time>2026-03-29T08:46:38Z</time></trkpt><trkpt lat="45.362275379428226" lon="10.604349631684407"><ele>148.0</ele><time>2026-03-29T08:46:39Z</time></trkpt><trkpt lat="45.362218406579494" lon="10.604409372561156"><ele>148.0</ele><time>2026-03-29T08:46:40Z</time></trkpt><trkpt lat="45.3620784657497" lon="10.604360883477497"><ele>148.0</ele><time>2026-03-29T08:46:42Z</time></trkpt><trkpt lat="45.361975230264854" lon="10.604350323884045"><ele>146.25</ele><time>2026-03-29T08:46:43Z</time></trkpt><trkpt lat="45.36184220911909" lon="10.604334823676998"><ele>144.5</ele><time>2026-03-29T08:46:44Z</time></trkpt><trkpt lat="45.36171434870479" lon="10.604316594261416"><ele>142.75</ele><time>2026-03-29T08:46:45Z</time></trkpt><trkpt lat="45.36161032779681" lon="10.604241058335466"><ele>141.0</ele><time>2026-03-29T08:46:46Z</time></trkpt><trkpt lat="45.36149765530072" lon="10.60419096273636"><ele>141.0</ele><time>2026-03-29T08:46:47Z</time></trkpt><trkpt lat="45.36139622233877" lon="10.604082521900532"><ele>141.0</ele><time>2026-03-29T08:46:48Z</time></trkpt><trkpt lat="45.36127323491328" lon="10.603998069739191"><ele>141.0</ele><time>2026-03-29T08:46:49Z</time></trkpt><trkpt lat="45.36115373264233" lon="10.603878497362839"><ele>141.0</ele><time>2026-03-29T08:46:50Z</time></trkpt><trkpt lat="45.36104853166941" lon="10.60375387472797"><ele>140.0</ele><time>2026-03-29T08:46:51Z</time></trkpt><trkpt lat="45.36095759697832" lon="10.603605543438055"><ele>139.0</ele><time>2026-03-29T08:46:52Z</time></trkpt><trkpt lat="45.36085306507793" lon="10.60344484922822"><ele>138.0</ele><time>2026-03-29T08:46:53Z</time></trkpt><trkpt lat="45.3607404027348" lon="10.603289073719317"><ele>137.0</ele><time>2026-03-29T08:46:54Z</time></trkpt><trkpt lat="45.36065641600045" lon="10.603119582282531"><ele>137.0</ele><time>2026-03-29T08:46:55Z</time></trkpt><trkpt lat="45.360558518058085" lon="10.602920645639243"><ele>137.0</ele><time>2026-03-29T08:46:56Z</time></trkpt><trkpt lat="45.360457135128605" lon="10.602713491880344"><ele>137.0</ele><time>2026-03-29T08:46:57Z</time></trkpt><trkpt lat="45.36036416741638" lon="10.602533109052164"><ele>137.0</ele><time>2026-03-29T08:46:58Z</time></trkpt><trkpt lat="45.36030729969543" lon="10.602346933107263"><ele>137.0</ele><time>2026-03-29T08:46:59Z</time></trkpt><trkpt lat="45.36025527859992" lon="10.60215949817393"><ele>137.0</ele><time>2026-03-29T08:47:00Z</time></trkpt><trkpt lat="45.360201296476625" lon="10.601944506101148"><ele>137.0</ele><time>2026-03-29T08:47:01Z</time></trkpt><trkpt lat="45.36013898444302" lon="10.601749154745088"><ele>137.0</ele><time>2026-03-29T08:47:02Z</time></trkpt><trkpt lat="45.360100842163064" lon="10.601593897293695"><ele>137.0</ele><time>2026-03-29T08:47:03Z</time></trkpt><trkpt lat="45.360066528518885" lon="10.60146221900552"><ele>137.0</ele><time>2026-03-29T08:47:04Z</time></trkpt><trkpt lat="45.36002700070381" lon="10.601340310386304"><ele>137.0</ele><time>2026-03-29T08:47:05Z</time></trkpt><trkpt lat="45.35999370890675" lon="10.601222006136343"><ele>137.0</ele><time>2026-03-29T08:47:06Z</time></trkpt><trkpt lat="45.35992322926716" lon="10.601126064289614"><ele>137.0</ele><time>2026-03-29T08:47:07Z</time></trkpt><trkpt lat="45.35984343405674" lon="10.60101340535869"><ele>137.0</ele><time>2026-03-29T08:47:08Z</time></trkpt><trkpt lat="45.35975526923789" lon="10.600898288427253"><ele>137.0</ele><time>2026-03-29T08:47:09Z</time></trkpt><trkpt lat="45.35965636571035" lon="10.60076134083269"><ele>137.0</ele><time>2026-03-29T08:47:10Z</time></trkpt><trkpt lat="45.3595522479545" lon="10.600577428941815"><ele>137.0</ele><time>2026-03-29T08:47:11Z</time></trkpt><trkpt lat="45.359457769572664" lon="10.600414377471942"><ele>137.0</ele><time>2026-03-29T08:47:12Z</time></trkpt><trkpt lat="45.35936806247155" lon="10.600249440156157"><ele>137.0</ele><time>2026-03-29T08:47:13Z</time></trkpt><trkpt lat="45.35929697396841" lon="10.600106839386934"><ele>137.0</ele><time>2026-03-29T08:47:14Z</time></trkpt><trkpt lat="45.359237620754726" lon="10.599948391138103"><ele>136.0</ele><time>2026-03-29T08:47:15Z</time></trkpt><trkpt lat="45.35920511302721" lon="10.599790387506545"><ele>135.0</ele><time>2026-03-29T08:47:16Z</time></trkpt><trkpt lat="45.35915503966864" lon="10.599639385883483"><ele>134.0</ele><time>2026-03-29T08:47:17Z</time></trkpt><trkpt lat="45.359123575653484" lon="10.599503041937359"><ele>133.0</ele><time>2026-03-29T08:47:18Z</time></trkpt><trkpt lat="45.35906223402961" lon="10.59940386405894"><ele>132.0</ele><time>2026-03-29T08:47:19Z</time></trkpt><trkpt lat="45.3589666790566" lon="10.599298033083366"><ele>132.25</ele><time>2026-03-29T08:47:20Z</time></trkpt><trkpt lat="45.358837426279905" lon="10.59919512326706"><ele>132.5</ele><time>2026-03-29T08:47:21Z</time></trkpt><trkpt lat="45.35870001447174" lon="10.599077546503933"><ele>132.75</ele><time>2026-03-29T08:47:22Z</time></trkpt><trkpt lat="45.35860032535674" lon="10.598948401182506"><ele>133.0</ele><time>2026-03-29T08:47:23Z</time></trkpt><trkpt lat="45.358481362184186" lon="10.598823681204317"><ele>133.0</ele><time>2026-03-29T08:47:24Z</time></trkpt><trkpt lat="45.35837098913502" lon="10.598670040237796"><ele>133.0</ele><time>2026-03-29T08:47:25Z</time></trkpt><trkpt lat="45.35825686857211" lon="10.598499982539217"><ele>133.0</ele><time>2026-03-29T08:47:26Z</time></trkpt><trkpt lat="45.358160021528526" lon="10.59833920265454"><ele>133.20000000000002</ele><time>2026-03-29T08:47:27Z</time></trkpt><trkpt lat="45.35809656095611" lon="10.598174512355358"><ele>133.4</ele><time>2026-03-29T08:47:28Z</time></trkpt><trkpt lat="45.35804023458992" lon="10.59808541754992"><ele>133.60000000000002</ele><time>2026-03-29T08:47:29Z</time></trkpt><trkpt lat="45.35802905973588" lon="10.597986885447133"><ele>133.8</ele><time>2026-03-29T08:47:30Z</time></trkpt><trkpt lat="45.358009698324544" lon="10.59789398121551"><ele>134.0</ele><time>2026-03-29T08:47:32Z</time></trkpt><trkpt lat="45.35788791167535" lon="10.597900478320275"><ele>133.8</ele><time>2026-03-29T08:47:33Z</time></trkpt><trkpt lat="45.35779844837836" lon="10.597893299166673"><ele>133.60000000000002</ele><time>2026-03-29T08:47:34Z</time></trkpt><trkpt lat="45.35769084378366" lon="10.597870643633875"><ele>133.4</ele><time>2026-03-29T08:47:35Z</time></trkpt><trkpt lat="45.357577033869305" lon="10.597836177706327"><ele>133.20000000000002</ele><time>2026-03-29T08:47:36Z</time></trkpt><trkpt lat="45.35744905633434" lon="10.597790621712237"><ele>133.0</ele><time>2026-03-29T08:47:37Z</time></trkpt><trkpt lat="45.357312460326945" lon="10.597744027400683"><ele>132.5</ele><time>2026-03-29T08:47:38Z</time></trkpt><trkpt lat="45.35717153662415" lon="10.597701582049911"><ele>132.0</ele><time>2026-03-29T08:47:39Z</time></trkpt><trkpt lat="45.357042349507914" lon="10.597664260475275"><ele>131.5</ele><time>2026-03-29T08:47:40Z</time></trkpt><trkpt lat="45.356920835474085" lon="10.59762861183718"><ele>131.0</ele><time>2026-03-29T08:47:41Z</time></trkpt><trkpt lat="45.35679448606444" lon="10.597606136354218"><ele>131.0</ele><time>2026-03-29T08:47:42Z</time></trkpt><trkpt lat="45.356658857691315" lon="10.59760981932243"><ele>131.0</ele><time>2026-03-29T08:47:43Z</time></trkpt><trkpt lat="45.35651558199407" lon="10.597628454268422"><ele>131.0</ele><time>2026-03-29T08:47:44Z</time></trkpt><trkpt lat="45.35635652272397" lon="10.597658305514567"><ele>131.0</ele><time>2026-03-29T08:47:45Z</time></trkpt><trkpt lat="45.35620336173802" lon="10.597687490374518"><ele>130.75</ele><time>2026-03-29T08:47:46Z</time></trkpt><trkpt lat="45.35606431331471" lon="10.597708195826154"><ele>130.5</ele><time>2026-03-29T08:47:47Z</time></trkpt><trkpt lat="45.3559376234606" lon="10.597717399494927"><ele>130.25</ele><time>2026-03-29T08:47:48Z</time></trkpt><trkpt lat="45.35581800376403" lon="10.597713826783197"><ele>130.0</ele><time>2026-03-29T08:47:49Z</time></trkpt><trkpt lat="45.355701564298336" lon="10.597693871993632"><ele>130.0</ele><time>2026-03-29T08:47:50Z</time></trkpt><trkpt lat="45.3555784583071" lon="10.597646338527793"><ele>130.0</ele><time>2026-03-29T08:47:51Z</time></trkpt><trkpt lat="45.35545289865978" lon="10.597578417431958"><ele>130.0</ele><time>2026-03-29T08:47:52Z</time></trkpt><trkpt lat="45.355349279712875" lon="10.597507239409744"><ele>130.0</ele><time>2026-03-29T08:47:53Z</time></trkpt><trkpt lat="45.35524452407347" lon="10.597454359886468"><ele>130.5</ele><time>2026-03-29T08:47:54Z</time></trkpt><trkpt lat="45.35513115998973" lon="10.597398723084888"><ele>131.0</ele><time>2026-03-29T08:47:55Z</time></trkpt><trkpt lat="45.35499502451912" lon="10.597342792575846"><ele>131.5</ele><time>2026-03-29T08:47:56Z</time></trkpt><trkpt lat="45.35483605487877" lon="10.597343208485304"><ele>132.0</ele><time>2026-03-29T08:47:57Z</time></trkpt><trkpt lat="45.35465146927838" lon="10.597375845958053"><ele>132.0</ele><time>2026-03-29T08:47:58Z</time></trkpt><trkpt lat="45.354461863553986" lon="10.597429147938103"><ele>132.0</ele><time>2026-03-29T08:47:59Z</time></trkpt><trkpt lat="45.35428839530621" lon="10.597487226078036"><ele>132.0</ele><time>2026-03-29T08:48:00Z</time></trkpt><trkpt lat="45.35412939273881" lon="10.597554888921659"><ele>132.0</ele><time>2026-03-29T08:48:01Z</time></trkpt><trkpt lat="45.353979229772186" lon="10.597635633956262"><ele>132.0</ele><time>2026-03-29T08:48:02Z</time></trkpt><trkpt lat="45.35384478588017" lon="10.597720926800244"><ele>132.0</ele><time>2026-03-29T08:48:03Z</time></trkpt><trkpt lat="45.35373365002121" lon="10.597804982631576"><ele>132.0</ele><time>2026-03-29T08:48:04Z</time></trkpt><trkpt lat="45.35363963634445" lon="10.597913377758616"><ele>135.0</ele><time>2026-03-29T08:48:05Z</time></trkpt><trkpt lat="45.35357567086691" lon="10.598098190052529"><ele>138.0</ele><time>2026-03-29T08:48:06Z</time></trkpt><trkpt lat="45.3535160476117" lon="10.598330915969848"><ele>141.0</ele><time>2026-03-29T08:48:07Z</time></trkpt><trkpt lat="45.353449271693194" lon="10.598579707438402"><ele>140.66666666666666</ele><time>2026-03-29T08:48:08Z</time></trkpt><trkpt lat="45.35337397754168" lon="10.59883802552446"><ele>140.33333333333331</ele><time>2026-03-29T08:48:09Z</time></trkpt><trkpt lat="45.353301359014495" lon="10.599083408987283"><ele>140.0</ele><time>2026-03-29T08:48:10Z</time></trkpt><trkpt lat="45.35321790335382" lon="10.59934107926015"><ele>139.33333333333331</ele><time>2026-03-29T08:48:11Z</time></trkpt><trkpt lat="45.353112509921345" lon="10.599589283341365"><ele>138.66666666666666</ele><time>2026-03-29T08:48:12Z</time></trkpt><trkpt lat="45.35300480445048" lon="10.599824204513519"><ele>138.0</ele><time>2026-03-29T08:48:13Z</time></trkpt><trkpt lat="45.35291004597147" lon="10.600040488335935"><ele>141.66666666666666</ele><time>2026-03-29T08:48:14Z</time></trkpt><trkpt lat="45.35282160685845" lon="10.600229292130471"><ele>145.33333333333331</ele><time>2026-03-29T08:48:15Z</time></trkpt><trkpt lat="45.352749830972975" lon="10.60040635709248"><ele>149.0</ele><time>2026-03-29T08:48:16Z</time></trkpt><trkpt lat="45.35266697285808" lon="10.600585742655822"><ele>149.0</ele><time>2026-03-29T08:48:17Z</time></trkpt><trkpt lat="45.352572668041795" lon="10.600745799414621"><ele>149.0</ele><time>2026-03-29T08:48:18Z</time></trkpt><trkpt lat="45.35245522176639" lon="10.60087894663512"><ele>149.0</ele><time>2026-03-29T08:48:19Z</time></trkpt><trkpt lat="45.35233423942471" lon="10.600976865208034"><ele>149.0</ele><time>2026-03-29T08:48:20Z</time></trkpt><trkpt lat="45.35222722289448" lon="10.601040485934451"><ele>149.2</ele><time>2026-03-29T08:48:21Z</time></trkpt><trkpt lat="45.35214985476448" lon="10.601084939043844"><ele>149.4</ele><time>2026-03-29T08:48:22Z</time></trkpt><trkpt lat="45.35207189879664" lon="10.601124811278256"><ele>149.6</ele><time>2026-03-29T08:48:24Z</time></trkpt><trkpt lat="45.352068228562835" lon="10.60127291464714"><ele>149.8</ele><time>2026-03-29T08:48:27Z</time></trkpt><trkpt lat="45.352106173649034" lon="10.601378711243552"><ele>150.0</ele><time>2026-03-29T08:48:28Z</time></trkpt><trkpt lat="45.35215964746839" lon="10.60150425922715"><ele>150.0</ele><time>2026-03-29T08:48:29Z</time></trkpt><trkpt lat="45.35218636518428" lon="10.601620277316476"><ele>150.0</ele><time>2026-03-29T08:48:30Z</time></trkpt><trkpt lat="45.35218515945632" lon="10.601718836185476"><ele>150.0</ele><time>2026-03-29T08:48:31Z</time></trkpt><trkpt lat="45.35219003144424" lon="10.601814179666345"><ele>150.0</ele><time>2026-03-29T08:48:32Z</time></trkpt><trkpt lat="45.352122885928146" lon="10.601927633186278"><ele>150.0</ele><time>2026-03-29T08:48:33Z</time></trkpt><trkpt lat="45.352079324043494" lon="10.602105866477684"><ele>149.0</ele><time>2026-03-29T08:48:34Z</time></trkpt><trkpt lat="45.35203284455066" lon="10.602284624296855"><ele>148.0</ele><time>2026-03-29T08:48:35Z</time></trkpt><trkpt lat="45.35199068420259" lon="10.602484975738763"><ele>147.0</ele><time>2026-03-29T08:48:36Z</time></trkpt><trkpt lat="45.351943463253704" lon="10.602689137820565"><ele>146.0</ele><time>2026-03-29T08:48:37Z</time></trkpt><trkpt lat="45.351896246406014" lon="10.602885411958171"><ele>146.0</ele><time>2026-03-29T08:48:38Z</time></trkpt><trkpt lat="45.35185592686029" lon="10.603092225832217"><ele>146.0</ele><time>2026-03-29T08:48:39Z</time></trkpt><trkpt lat="45.351839516797874" lon="10.603319755795837"><ele>146.0</ele><time>2026-03-29T08:48:40Z</time></trkpt><trkpt lat="45.35181843171677" lon="10.60356806813179"><ele>146.0</ele><time>2026-03-29T08:48:41Z</time></trkpt><trkpt lat="45.351796887119" lon="10.603797797069012"><ele>146.0</ele><time>2026-03-29T08:48:42Z</time></trkpt><trkpt lat="45.351780870575865" lon="10.604002367052306"><ele>146.0</ele><time>2026-03-29T08:48:43Z</time></trkpt><trkpt lat="45.35177756230982" lon="10.604189240639705"><ele>146.0</ele><time>2026-03-29T08:48:44Z</time></trkpt><trkpt lat="45.35178164844083" lon="10.604362568512295"><ele>146.25</ele><time>2026-03-29T08:48:45Z</time></trkpt><trkpt lat="45.35179639843861" lon="10.604508233333096"><ele>146.5</ele><time>2026-03-29T08:48:46Z</time></trkpt><trkpt lat="45.35179187613425" lon="10.60464987008506"><ele>146.75</ele><time>2026-03-29T08:48:47Z</time></trkpt><trkpt lat="45.35191202479608" lon="10.604789202493217"><ele>147.0</ele><time>2026-03-29T08:48:48Z</time></trkpt><trkpt lat="45.35198877016959" lon="10.60497641270629"><ele>147.0</ele><time>2026-03-29T08:48:49Z</time></trkpt><trkpt lat="45.35208092855808" lon="10.605154448813337"><ele>147.0</ele><time>2026-03-29T08:48:50Z</time></trkpt><trkpt lat="45.35217337422755" lon="10.605322032594689"><ele>147.0</ele><time>2026-03-29T08:48:51Z</time></trkpt><trkpt lat="45.352256923875615" lon="10.605471558039783"><ele>147.0</ele><time>2026-03-29T08:48:52Z</time></trkpt><trkpt lat="45.3523462174057" lon="10.605631363029337"><ele>142.66666666666666</ele><time>2026-03-29T08:48:53Z</time></trkpt><trkpt lat="45.35243153310993" lon="10.605787133272477"><ele>138.33333333333331</ele><time>2026-03-29T08:48:54Z</time></trkpt><trkpt lat="45.352526845496826" lon="10.605961729378008"><ele>134.0</ele><time>2026-03-29T08:48:55Z</time></trkpt><trkpt lat="45.35261982102854" lon="10.606139927099795"><ele>134.5</ele><time>2026-03-29T08:48:56Z</time></trkpt><trkpt lat="45.35269288948412" lon="10.606323392716325"><ele>135.0</ele><time>2026-03-29T08:48:57Z</time></trkpt><trkpt lat="45.35274458646313" lon="10.606495258727403"><ele>135.5</ele><time>2026-03-29T08:48:58Z</time></trkpt><trkpt lat="45.35277755893101" lon="10.60665223563093"><ele>136.0</ele><time>2026-03-29T08:48:59Z</time></trkpt><trkpt lat="45.35280224623203" lon="10.60678963861983"><ele>136.0</ele><time>2026-03-29T08:49:00Z</time></trkpt><trkpt lat="45.35283954347946" lon="10.60691553241461"><ele>136.0</ele><time>2026-03-29T08:49:01Z</time></trkpt><trkpt lat="45.35284868615119" lon="10.607048013210083"><ele>136.0</ele><time>2026-03-29T08:49:02Z</time></trkpt><trkpt lat="45.35287267479922" lon="10.607173960479304"><ele>136.0</ele><time>2026-03-29T08:49:03Z</time></trkpt><trkpt lat="45.35289270196639" lon="10.607302573547729"><ele>136.0</ele><time>2026-03-29T08:49:04Z</time></trkpt><trkpt lat="45.35292519927056" lon="10.607456427504601"><ele>136.0</ele><time>2026-03-29T08:49:05Z</time></trkpt><trkpt lat="45.35299033791749" lon="10.60762868810301"><ele>136.0</ele><time>2026-03-29T08:49:06Z</time></trkpt><trkpt lat="45.35297873779951" lon="10.607837009611025"><ele>136.0</ele><time>2026-03-29T08:49:07Z</time></trkpt><trkpt lat="45.35299270973419" lon="10.608066018728145"><ele>136.0</ele><time>2026-03-29T08:49:08Z</time></trkpt><trkpt lat="45.352979952542135" lon="10.608309404007818"><ele>136.0</ele><time>2026-03-29T08:49:09Z</time></trkpt><trkpt lat="45.35296095617661" lon="10.608580556482964"><ele>136.0</ele><time>2026-03-29T08:49:10Z</time></trkpt><trkpt lat="45.352904183366505" lon="10.608859565456955"><ele>136.0</ele><time>2026-03-29T08:49:11Z</time></trkpt><trkpt lat="45.35284628957958" lon="10.609138498408742"><ele>136.33333333333334</ele><time>2026-03-29T08:49:12Z</time></trkpt><trkpt lat="45.35279982054119" lon="10.609423255255118"><ele>136.66666666666666</ele><time>2026-03-29T08:49:13Z</time></trkpt><trkpt lat="45.352761985481855" lon="10.609739496600222"><ele>137.0</ele><time>2026-03-29T08:49:14Z</time></trkpt><trkpt lat="45.35276208747269" lon="10.610071736130726"><ele>139.5</ele><time>2026-03-29T08:49:15Z</time></trkpt><trkpt lat="45.35279474631562" lon="10.610390310758183"><ele>142.0</ele><time>2026-03-29T08:49:16Z</time></trkpt><trkpt lat="45.35286075505033" lon="10.610701993084286"><ele>142.0</ele><time>2026-03-29T08:49:17Z</time></trkpt><trkpt lat="45.35294487207405" lon="10.610997638298452"><ele>142.0</ele><time>2026-03-29T08:49:18Z</time></trkpt><trkpt lat="45.353036482127116" lon="10.611250379566874"><ele>142.0</ele><time>2026-03-29T08:49:19Z</time></trkpt><trkpt lat="45.353118960484004" lon="10.611485563481429"><ele>137.66666666666669</ele><time>2026-03-29T08:49:20Z</time></trkpt><trkpt lat="45.353136459649505" lon="10.611735448274251"><ele>133.33333333333334</ele><time>2026-03-29T08:49:21Z</time></trkpt><trkpt lat="45.35314824284559" lon="10.612001606291889"><ele>129.0</ele><time>2026-03-29T08:49:22Z</time></trkpt><trkpt lat="45.353151187332024" lon="10.612287312990555"><ele>129.0</ele><time>2026-03-29T08:49:23Z</time></trkpt><trkpt lat="45.35314655447642" lon="10.612586379134859"><ele>129.0</ele><time>2026-03-29T08:49:24Z</time></trkpt><trkpt lat="45.35318420930929" lon="10.612891580734212"><ele>129.0</ele><time>2026-03-29T08:49:25Z</time></trkpt><trkpt lat="45.3532386425891" lon="10.613195178493795"><ele>129.33333333333334</ele><time>2026-03-29T08:49:26Z</time></trkpt><trkpt lat="45.353304305957096" lon="10.6134857202637"><ele>129.66666666666669</ele><time>2026-03-29T08:49:27Z</time></trkpt><trkpt lat="45.353351033571755" lon="10.613751769329628"><ele>130.0</ele><time>2026-03-29T08:49:28Z</time></trkpt><trkpt lat="45.35337264582593" lon="10.61402078961439"><ele>131.0</ele><time>2026-03-29T08:49:29Z</time></trkpt><trkpt lat="45.35335152466828" lon="10.614286703142598"><ele>132.0</ele><time>2026-03-29T08:49:30Z</time></trkpt><trkpt lat="45.35335917533139" lon="10.614551120043345"><ele>133.0</ele><time>2026-03-29T08:49:31Z</time></trkpt><trkpt lat="45.35333894805502" lon="10.614820854211121"><ele>133.0</ele><time>2026-03-29T08:49:32Z</time></trkpt><trkpt lat="45.35331338134592" lon="10.615106495035514"><ele>133.0</ele><time>2026-03-29T08:49:33Z</time></trkpt><trkpt lat="45.3532796898187" lon="10.615391356486798"><ele>133.0</ele><time>2026-03-29T08:49:34Z</time></trkpt><trkpt lat="45.35323961019422" lon="10.615674555815172"><ele>132.66666666666669</ele><time>2026-03-29T08:49:35Z</time></trkpt><trkpt lat="45.3531901013163" lon="10.615953068993493"><ele>132.33333333333334</ele><time>2026-03-29T08:49:36Z</time></trkpt><trkpt lat="45.35314800517756" lon="10.616224739492917"><ele>132.0</ele><time>2026-03-29T08:49:37Z</time></trkpt><trkpt lat="45.353117349240655" lon="10.616517049688497"><ele>132.0</ele><time>2026-03-29T08:49:38Z</time></trkpt><trkpt lat="45.353109672111906" lon="10.616797693724246"><ele>132.0</ele><time>2026-03-29T08:49:39Z</time></trkpt><trkpt lat="45.35311153235386" lon="10.617098485276538"><ele>132.0</ele><time>2026-03-29T08:49:40Z</time></trkpt><trkpt lat="45.353116693213565" lon="10.617394419480053"><ele>132.33333333333334</ele><time>2026-03-29T08:49:41Z</time></trkpt><trkpt lat="45.35312457338257" lon="10.61770072798087"><ele>132.66666666666669</ele><time>2026-03-29T08:49:42Z</time></trkpt><trkpt lat="45.353129885553145" lon="10.61800426315051"><ele>133.0</ele><time>2026-03-29T08:49:43Z</time></trkpt><trkpt lat="45.35313985774541" lon="10.618301082427758"><ele>133.33333333333334</ele><time>2026-03-29T08:49:44Z</time></trkpt><trkpt lat="45.353160046585025" lon="10.618607867196417"><ele>133.66666666666666</ele><time>2026-03-29T08:49:45Z</time></trkpt><trkpt lat="45.35318141837654" lon="10.618884576182696"><ele>134.0</ele><time>2026-03-29T08:49:46Z</time></trkpt><trkpt lat="45.35320694758981" lon="10.619139221650197"><ele>134.33333333333331</ele><time>2026-03-29T08:49:47Z</time></trkpt><trkpt lat="45.35324025796743" lon="10.619386552916989"><ele>134.66666666666666</ele><time>2026-03-29T08:49:48Z</time></trkpt><trkpt lat="45.35329539932392" lon="10.619645987703564"><ele>135.0</ele><time>2026-03-29T08:49:49Z</time></trkpt><trkpt lat="45.3533639857084" lon="10.619886428162"><ele>135.0</ele><time>2026-03-29T08:49:50Z</time></trkpt><trkpt lat="45.35345510132583" lon="10.620121553108262"><ele>135.0</ele><time>2026-03-29T08:49:51Z</time></trkpt><trkpt lat="45.35356658968863" lon="10.62033358342536"><ele>135.0</ele><time>2026-03-29T08:49:52Z</time></trkpt><trkpt lat="45.353690755191614" lon="10.620567664663563"><ele>135.0</ele><time>2026-03-29T08:49:53Z</time></trkpt><trkpt lat="45.3538277368193" lon="10.620776092607493"><ele>135.0</ele><time>2026-03-29T08:49:54Z</time></trkpt><trkpt lat="45.35397787469995" lon="10.620952700135492"><ele>135.0</ele><time>2026-03-29T08:49:55Z</time></trkpt><trkpt lat="45.35415600678383" lon="10.621086024257647"><ele>137.66666666666666</ele><time>2026-03-29T08:49:56Z</time></trkpt><trkpt lat="45.354330922209556" lon="10.621235040226908"><ele>140.33333333333331</ele><time>2026-03-29T08:49:57Z</time></trkpt><trkpt lat="45.354499907526154" lon="10.62140241522704"><ele>143.0</ele><time>2026-03-29T08:49:58Z</time></trkpt><trkpt lat="45.35467919985324" lon="10.621555944402907"><ele>142.66666666666666</ele><time>2026-03-29T08:49:59Z</time></trkpt><trkpt lat="45.3548620781577" lon="10.621714448688586"><ele>142.33333333333334</ele><time>2026-03-29T08:50:00Z</time></trkpt><trkpt lat="45.355054013142194" lon="10.621856902123533"><ele>142.0</ele><time>2026-03-29T08:50:01Z</time></trkpt><trkpt lat="45.35522354155376" lon="10.622035828135829"><ele>143.33333333333334</ele><time>2026-03-29T08:50:02Z</time></trkpt><trkpt lat="45.35539414153584" lon="10.622203334781931"><ele>144.66666666666666</ele><time>2026-03-29T08:50:03Z</time></trkpt><trkpt lat="45.35556024580876" lon="10.622379663561397"><ele>146.0</ele><time>2026-03-29T08:50:04Z</time></trkpt><trkpt lat="45.35572284089944" lon="10.622556280936545"><ele>146.0</ele><time>2026-03-29T08:50:05Z</time></trkpt><trkpt lat="45.35590676693137" lon="10.622710574523712"><ele>146.0</ele><time>2026-03-29T08:50:06Z</time></trkpt><trkpt lat="45.35608306169021" lon="10.622871991987838"><ele>146.0</ele><time>2026-03-29T08:50:07Z</time></trkpt><trkpt lat="45.35626431484441" lon="10.623041452755384"><ele>149.0</ele><time>2026-03-29T08:50:08Z</time></trkpt><trkpt lat="45.35644807300111" lon="10.623178752993553"><ele>152.0</ele><time>2026-03-29T08:50:09Z</time></trkpt><trkpt lat="45.35662904598499" lon="10.623311852197972"><ele>155.0</ele><time>2026-03-29T08:50:10Z</time></trkpt><trkpt lat="45.356801937314565" lon="10.623443959957584"><ele>155.0</ele><time>2026-03-29T08:50:11Z</time></trkpt><trkpt lat="45.35695655414995" lon="10.623570078893348"><ele>155.0</ele><time>2026-03-29T08:50:12Z</time></trkpt><trkpt lat="45.35708560414075" lon="10.623700343263055"><ele>155.0</ele><time>2026-03-29T08:50:13Z</time></trkpt><trkpt lat="45.35718796944672" lon="10.623848841773794"><ele>156.25</ele><time>2026-03-29T08:50:14Z</time></trkpt><trkpt lat="45.3572750605172" lon="10.62402118014581"><ele>157.5</ele><time>2026-03-29T08:50:15Z</time></trkpt><trkpt lat="45.357329443276036" lon="10.624210441346497"><ele>158.75</ele><time>2026-03-29T08:50:16Z</time></trkpt><trkpt lat="45.35736470586385" lon="10.62441896620556"><ele>160.0</ele><time>2026-03-29T08:50:17Z</time></trkpt><trkpt lat="45.35737691957924" lon="10.624633681161896"><ele>160.33333333333334</ele><time>2026-03-29T08:50:18Z</time></trkpt><trkpt lat="45.357377402220486" lon="10.624846596624945"><ele>160.66666666666666</ele><time>2026-03-29T08:50:19Z</time></trkpt><trkpt lat="45.35735894631618" lon="10.625088677406618"><ele>161.0</ele><time>2026-03-29T08:50:20Z</time></trkpt><trkpt lat="45.3573284873488" lon="10.625330725307528"><ele>161.0</ele><time>2026-03-29T08:50:21Z</time></trkpt><trkpt lat="45.3572977676518" lon="10.625623429034833"><ele>161.0</ele><time>2026-03-29T08:50:22Z</time></trkpt><trkpt lat="45.357255580255604" lon="10.62588796506068"><ele>161.0</ele><time>2026-03-29T08:50:23Z</time></trkpt><trkpt lat="45.357199290021775" lon="10.626148272901055"><ele>161.0</ele><time>2026-03-29T08:50:24Z</time></trkpt><trkpt lat="45.357134868613365" lon="10.626398396208332"><ele>161.0</ele><time>2026-03-29T08:50:25Z</time></trkpt><trkpt lat="45.35707273908802" lon="10.626611422706846"><ele>161.0</ele><time>2026-03-29T08:50:26Z</time></trkpt><trkpt lat="45.357020480659465" lon="10.626815962521663"><ele>161.0</ele><time>2026-03-29T08:50:27Z</time></trkpt><trkpt lat="45.356972946003545" lon="10.62697447525597"><ele>161.0</ele><time>2026-03-29T08:50:28Z</time></trkpt><trkpt lat="45.35690846320167" lon="10.627093687286605"><ele>161.0</ele><time>2026-03-29T08:50:29Z</time></trkpt><trkpt lat="45.35686049167618" lon="10.627198384659579"><ele>161.0</ele><time>2026-03-29T08:50:30Z</time></trkpt><trkpt lat="45.356851900597654" lon="10.627313218692535"><ele>161.0</ele><time>2026-03-29T08:50:31Z</time></trkpt><trkpt lat="45.35686000652024" lon="10.62741928798442"><ele>159.5</ele><time>2026-03-29T08:50:32Z</time></trkpt><trkpt lat="45.356855727324415" lon="10.627542834110702"><ele>158.0</ele><time>2026-03-29T08:50:33Z</time></trkpt><trkpt lat="45.3568009632028" lon="10.627694793186315"><ele>156.5</ele><time>2026-03-29T08:50:34Z</time></trkpt><trkpt lat="45.35672938037566" lon="10.627884898521748"><ele>155.0</ele><time>2026-03-29T08:50:35Z</time></trkpt><trkpt lat="45.35667093121933" lon="10.628080300120232"><ele>154.0</ele><time>2026-03-29T08:50:36Z</time></trkpt><trkpt lat="45.35663891022275" lon="10.62820772167339"><ele>153.0</ele><time>2026-03-29T08:50:37Z</time></trkpt><trkpt lat="45.35667670971569" lon="10.628344520456587"><ele>152.0</ele><time>2026-03-29T08:50:39Z</time></trkpt><trkpt lat="45.356796506072705" lon="10.628391551559053"><ele>151.0</ele><time>2026-03-29T08:50:41Z</time></trkpt><trkpt lat="45.3568901141647" lon="10.628339636025395"><ele>150.0</ele><time>2026-03-29T08:50:42Z</time></trkpt><trkpt lat="45.35701202250176" lon="10.62829292441683"><ele>150.0</ele><time>2026-03-29T08:50:43Z</time></trkpt><trkpt lat="45.35716105024661" lon="10.628329649289372"><ele>150.0</ele><time>2026-03-29T08:50:44Z</time></trkpt><trkpt lat="45.35729744091255" lon="10.628324124726458"><ele>150.0</ele><time>2026-03-29T08:50:45Z</time></trkpt><trkpt lat="45.35740988281449" lon="10.62832478060189"><ele>150.0</ele><time>2026-03-29T08:50:46Z</time></trkpt><trkpt lat="45.357514894743346" lon="10.628301284805325"><ele>150.5</ele><time>2026-03-29T08:50:47Z</time></trkpt><trkpt lat="45.357614045047235" lon="10.628231695485647"><ele>151.0</ele><time>2026-03-29T08:50:48Z</time></trkpt><trkpt lat="45.35772702201123" lon="10.628129041696372"><ele>151.5</ele><time>2026-03-29T08:50:49Z</time></trkpt><trkpt lat="45.35784054213556" lon="10.627991570832371"><ele>152.0</ele><time>2026-03-29T08:50:50Z</time></trkpt><trkpt lat="45.35793856184471" lon="10.627849307472957"><ele>152.0</ele><time>2026-03-29T08:50:51Z</time></trkpt><trkpt lat="45.35802355674277" lon="10.627721843069253"><ele>152.0</ele><time>2026-03-29T08:50:52Z</time></trkpt><trkpt lat="45.35812969828282" lon="10.62763735650316"><ele>152.0</ele><time>2026-03-29T08:50:53Z</time></trkpt><trkpt lat="45.358248298791935" lon="10.627604743071723"><ele>152.0</ele><time>2026-03-29T08:50:54Z</time></trkpt><trkpt lat="45.3583575179069" lon="10.627542496139972"><ele>152.0</ele><time>2026-03-29T08:50:55Z</time></trkpt><trkpt lat="45.35845935259375" lon="10.627451557031971"><ele>152.0</ele><time>2026-03-29T08:50:56Z</time></trkpt><trkpt lat="45.358556823285376" lon="10.627354099388956"><ele>152.0</ele><time>2026-03-29T08:50:57Z</time></trkpt><trkpt lat="45.35864215737088" lon="10.627237063106188"><ele>152.0</ele><time>2026-03-29T08:50:58Z</time></trkpt><trkpt lat="45.358705881481995" lon="10.62709815163245"><ele>153.75</ele><time>2026-03-29T08:50:59Z</time></trkpt><trkpt lat="45.358748162833926" lon="10.626931305563078"><ele>155.5</ele><time>2026-03-29T08:51:00Z</time></trkpt><trkpt lat="45.358770776864795" lon="10.626731584274909"><ele>157.25</ele><time>2026-03-29T08:51:01Z</time></trkpt><trkpt lat="45.35878961097986" lon="10.626530182389116"><ele>159.0</ele><time>2026-03-29T08:51:02Z</time></trkpt><trkpt lat="45.35883403421699" lon="10.626331308542143"><ele>156.8</ele><time>2026-03-29T08:51:03Z</time></trkpt><trkpt lat="45.35887387273235" lon="10.626162469992817"><ele>154.60000000000002</ele><time>2026-03-29T08:51:04Z</time></trkpt><trkpt lat="45.358929034102424" lon="10.626022421163295"><ele>152.4</ele><time>2026-03-29T08:51:05Z</time></trkpt><trkpt lat="45.358994954847816" lon="10.62590944022272"><ele>150.20000000000002</ele><time>2026-03-29T08:51:06Z</time></trkpt><trkpt lat="45.35906772039208" lon="10.625814806988748"><ele>148.0</ele><time>2026-03-29T08:51:07Z</time></trkpt><trkpt lat="45.359138052140025" lon="10.62573705572813"><ele>148.0</ele><time>2026-03-29T08:51:08Z</time></trkpt><trkpt lat="45.35920359493057" lon="10.625666574687852"><ele>148.0</ele><time>2026-03-29T08:51:09Z</time></trkpt><trkpt lat="45.35925657700739" lon="10.62561375746578"><ele>148.0</ele><time>2026-03-29T08:51:10Z</time></trkpt><trkpt lat="45.359341817140155" lon="10.625525152270544"><ele>148.0</ele><time>2026-03-29T08:51:12Z</time></trkpt><trkpt lat="45.359405392367535" lon="10.625513246232762"><ele>148.0</ele><time>2026-03-29T08:51:14Z</time></trkpt><trkpt lat="45.359491445049755" lon="10.625521148914638"><ele>148.0</ele><time>2026-03-29T08:51:21Z</time></trkpt><trkpt lat="45.35958477670639" lon="10.625554099998409"><ele>148.0</ele><time>2026-03-29T08:51:22Z</time></trkpt><trkpt lat="45.35967826827508" lon="10.625612488350031"><ele>148.0</ele><time>2026-03-29T08:51:23Z</time></trkpt><trkpt lat="45.3597888461559" lon="10.625674066878611"><ele>148.0</ele><time>2026-03-29T08:51:24Z</time></trkpt><trkpt lat="45.35991759737334" lon="10.625745246559365"><ele>148.0</ele><time>2026-03-29T08:51:25Z</time></trkpt><trkpt lat="45.3600574594659" lon="10.625801188585566"><ele>148.25</ele><time>2026-03-29T08:51:26Z</time></trkpt><trkpt lat="45.36016959781516" lon="10.625885801384442"><ele>148.5</ele><time>2026-03-29T08:51:27Z</time></trkpt><trkpt lat="45.360264248231275" lon="10.62595250261718"><ele>148.75</ele><time>2026-03-29T08:51:28Z</time></trkpt><trkpt lat="45.36036863027292" lon="10.626032038898233"><ele>149.0</ele><time>2026-03-29T08:51:29Z</time></trkpt><trkpt lat="45.36046675728349" lon="10.62613460301436"><ele>150.33333333333331</ele><time>2026-03-29T08:51:30Z</time></trkpt><trkpt lat="45.360575660954225" lon="10.626254488706286"><ele>151.66666666666666</ele><time>2026-03-29T08:51:31Z</time></trkpt><trkpt lat="45.360711645018306" lon="10.626371238562246"><ele>153.0</ele><time>2026-03-29T08:51:32Z</time></trkpt><trkpt lat="45.360845686322456" lon="10.62649547631087"><ele>153.0</ele><time>2026-03-29T08:51:33Z</time></trkpt><trkpt lat="45.360970048152446" lon="10.626618654907027"><ele>153.0</ele><time>2026-03-29T08:51:34Z</time></trkpt><trkpt lat="45.36109338638805" lon="10.626740091147443"><ele>153.0</ele><time>2026-03-29T08:51:35Z</time></trkpt><trkpt lat="45.36119658298585" lon="10.626850874984568"><ele>153.0</ele><time>2026-03-29T08:51:36Z</time></trkpt><trkpt lat="45.36129412648939" lon="10.62694763329742"><ele>153.0</ele><time>2026-03-29T08:51:37Z</time></trkpt><trkpt lat="45.36143417983313" lon="10.626972391955352"><ele>153.0</ele><time>2026-03-29T08:51:38Z</time></trkpt><trkpt lat="45.361590937208504" lon="10.627046350840242"><ele>153.0</ele><time>2026-03-29T08:51:39Z</time></trkpt><trkpt lat="45.36170793954369" lon="10.627279928983173"><ele>153.0</ele><time>2026-03-29T08:51:40Z</time></trkpt><trkpt lat="45.36183426790734" lon="10.627367940342594"><ele>153.0</ele><time>2026-03-29T08:51:41Z</time></trkpt><trkpt lat="45.36194649465023" lon="10.627443961993887"><ele>153.0</ele><time>2026-03-29T08:51:42Z</time></trkpt><trkpt lat="45.36206078440507" lon="10.627507754189734"><ele>153.0</ele><time>2026-03-29T08:51:43Z</time></trkpt><trkpt lat="45.36216928876135" lon="10.6275509065579"><ele>153.0</ele><time>2026-03-29T08:51:44Z</time></trkpt><trkpt lat="45.362266471214156" lon="10.627574362823923"><ele>153.0</ele><time>2026-03-29T08:51:45Z</time></trkpt><trkpt lat="45.36234288919384" lon="10.627591614857055"><ele>153.0</ele><time>2026-03-29T08:51:46Z</time></trkpt><trkpt lat="45.36240803580027" lon="10.62762459805772"><ele>153.0</ele><time>2026-03-29T08:51:47Z</time></trkpt><trkpt lat="45.362466709468436" lon="10.627663599740792"><ele>153.0</ele><time>2026-03-29T08:51:48Z</time></trkpt><trkpt lat="45.362575298802454" lon="10.627624995585768"><ele>153.0</ele><time>2026-03-29T08:51:50Z</time></trkpt><trkpt lat="45.36267566645032" lon="10.627475196156363"><ele>153.0</ele><time>2026-03-29T08:51:52Z</time></trkpt><trkpt lat="45.362758615515524" lon="10.627387154894885"><ele>153.0</ele><time>2026-03-29T08:51:53Z</time></trkpt><trkpt lat="45.362866386686754" lon="10.627308645642971"><ele>153.0</ele><time>2026-03-29T08:51:54Z</time></trkpt><trkpt lat="45.362968916297994" lon="10.627256066963545"><ele>153.0</ele><time>2026-03-29T08:51:55Z</time></trkpt><trkpt lat="45.36304859578994" lon="10.627211258015164"><ele>153.0</ele><time>2026-03-29T08:51:56Z</time></trkpt><trkpt lat="45.36310446583977" lon="10.627167414441416"><ele>152.75</ele><time>2026-03-29T08:51:57Z</time></trkpt><trkpt lat="45.363147186229284" lon="10.627031680799469"><ele>152.5</ele><time>2026-03-29T08:51:59Z</time></trkpt><trkpt lat="45.36312511582024" lon="10.62684356456164"><ele>152.25</ele><time>2026-03-29T08:52:01Z</time></trkpt><trkpt lat="45.36310111105118" lon="10.626701074558396"><ele>152.0</ele><time>2026-03-29T08:52:02Z</time></trkpt><trkpt lat="45.36309333934065" lon="10.626542477107694"><ele>152.0</ele><time>2026-03-29T08:52:03Z</time></trkpt><trkpt lat="45.36308956747506" lon="10.626376134455798"><ele>152.0</ele><time>2026-03-29T08:52:04Z</time></trkpt><trkpt lat="45.363085682645625" lon="10.626200577942965"><ele>152.0</ele><time>2026-03-29T08:52:05Z</time></trkpt><trkpt lat="45.36307977776565" lon="10.626043428286716"><ele>152.0</ele><time>2026-03-29T08:52:06Z</time></trkpt><trkpt lat="45.363071391120215" lon="10.625911067476313"><ele>152.0</ele><time>2026-03-29T08:52:07Z</time></trkpt><trkpt lat="45.36307428670384" lon="10.625780476854834"><ele>151.6</ele><time>2026-03-29T08:52:08Z</time></trkpt><trkpt lat="45.36309208056122" lon="10.625646483445145"><ele>151.2</ele><time>2026-03-29T08:52:09Z</time></trkpt><trkpt lat="45.36313216682814" lon="10.62552577831424"><ele>150.8</ele><time>2026-03-29T08:52:10Z</time></trkpt><trkpt lat="45.363187537402176" lon="10.625416214952859"><ele>150.4</ele><time>2026-03-29T08:52:11Z</time></trkpt><trkpt lat="45.363268055054945" lon="10.625277654235859"><ele>150.0</ele><time>2026-03-29T08:52:12Z</time></trkpt><trkpt lat="45.36335726363965" lon="10.62512514022127"><ele>150.0</ele><time>2026-03-29T08:52:13Z</time></trkpt><trkpt lat="45.363437426182834" lon="10.624971810910166"><ele>150.0</ele><time>2026-03-29T08:52:14Z</time></trkpt><trkpt lat="45.36351419070048" lon="10.624800970776025"><ele>150.0</ele><time>2026-03-29T08:52:15Z</time></trkpt><trkpt lat="45.36359006602354" lon="10.62461224266089"><ele>150.0</ele><time>2026-03-29T08:52:16Z</time></trkpt><trkpt lat="45.36365672620922" lon="10.62443575866289"><ele>149.25</ele><time>2026-03-29T08:52:17Z</time></trkpt><trkpt lat="45.36369912688887" lon="10.62430573956402"><ele>148.5</ele><time>2026-03-29T08:52:18Z</time></trkpt><trkpt lat="45.363754276527594" lon="10.624172612913924"><ele>147.75</ele><time>2026-03-29T08:52:19Z</time></trkpt><trkpt lat="45.3638348172854" lon="10.624015602776193"><ele>147.0</ele><time>2026-03-29T08:52:20Z</time></trkpt><trkpt lat="45.36392960398053" lon="10.623844508390462"><ele>147.0</ele><time>2026-03-29T08:52:21Z</time></trkpt><trkpt lat="45.36402330116343" lon="10.623690551196637"><ele>147.0</ele><time>2026-03-29T08:52:22Z</time></trkpt><trkpt lat="45.364110284534554" lon="10.62356371048972"><ele>147.0</ele><time>2026-03-29T08:52:23Z</time></trkpt><trkpt lat="45.36419379263275" lon="10.623431248825643"><ele>147.0</ele><time>2026-03-29T08:52:24Z</time></trkpt><trkpt lat="45.364268668136475" lon="10.623322521496783"><ele>147.25</ele><time>2026-03-29T08:52:25Z</time></trkpt><trkpt lat="45.364287369246384" lon="10.623184853262913"><ele>147.5</ele><time>2026-03-29T08:52:27Z</time></trkpt><trkpt lat="45.36421424630145" lon="10.623022707854838"><ele>147.75</ele><time>2026-03-29T08:52:29Z</time></trkpt><trkpt lat="45.36415027910429" lon="10.622879578720394"><ele>148.0</ele><time>2026-03-29T08:52:30Z</time></trkpt><trkpt lat="45.3640809288906" lon="10.622721382262156"><ele>147.25</ele><time>2026-03-29T08:52:31Z</time></trkpt><trkpt lat="45.364010269480055" lon="10.622551962250764"><ele>146.5</ele><time>2026-03-29T08:52:32Z</time></trkpt><trkpt lat="45.36395587845831" lon="10.622416952680702"><ele>145.75</ele><time>2026-03-29T08:52:33Z</time></trkpt><trkpt lat="45.36390622583916" lon="10.622266325838046"><ele>145.0</ele><time>2026-03-29T08:52:34Z</time></trkpt><trkpt lat="45.36389613741507" lon="10.622111145063"><ele>144.75</ele><time>2026-03-29T08:52:35Z</time></trkpt><trkpt lat="45.363896875267514" lon="10.621930619602024"><ele>144.5</ele><time>2026-03-29T08:52:36Z</time></trkpt><trkpt lat="45.36391017937391" lon="10.621741676553658"><ele>144.25</ele><time>2026-03-29T08:52:37Z</time></trkpt><trkpt lat="45.363941032638465" lon="10.621568230383392"><ele>144.0</ele><time>2026-03-29T08:52:38Z</time></trkpt><trkpt lat="45.36398260380772" lon="10.621420070886781"><ele>144.0</ele><time>2026-03-29T08:52:39Z</time></trkpt><trkpt lat="45.36400116890394" lon="10.621241069289363"><ele>144.0</ele><time>2026-03-29T08:52:40Z</time></trkpt><trkpt lat="45.36399675719936" lon="10.621063729957564"><ele>144.0</ele><time>2026-03-29T08:52:41Z</time></trkpt><trkpt lat="45.363972289451276" lon="10.620889119442282"><ele>144.0</ele><time>2026-03-29T08:52:42Z</time></trkpt><trkpt lat="45.363940631586004" lon="10.620745558695237"><ele>144.2</ele><time>2026-03-29T08:52:43Z</time></trkpt><trkpt lat="45.363922505531455" lon="10.620618773774273"><ele>144.4</ele><time>2026-03-29T08:52:44Z</time></trkpt><trkpt lat="45.36388976404477" lon="10.62052015096867"><ele>144.6</ele><time>2026-03-29T08:52:45Z</time></trkpt><trkpt lat="45.36382643534362" lon="10.620405644568292"><ele>144.8</ele><time>2026-03-29T08:52:46Z</time></trkpt><trkpt lat="45.36374726171198" lon="10.620314532752005"><ele>145.0</ele><time>2026-03-29T08:52:47Z</time></trkpt><trkpt lat="45.36369446349459" lon="10.620224162915033"><ele>146.75</ele><time>2026-03-29T08:52:48Z</time></trkpt><trkpt lat="45.36366033122394" lon="10.620082786846853"><ele>148.5</ele><time>2026-03-29T08:52:49Z</time></trkpt><trkpt lat="45.36365718796551" lon="10.619915454891878"><ele>150.25</ele><time>2026-03-29T08:52:50Z</time></trkpt><trkpt lat="45.36366281703787" lon="10.619714498763937"><ele>152.0</ele><time>2026-03-29T08:52:51Z</time></trkpt><trkpt lat="45.363651371321545" lon="10.619511141273804"><ele>152.2</ele><time>2026-03-29T08:52:52Z</time></trkpt><trkpt lat="45.36362759789981" lon="10.619365082024991"><ele>152.39999999999998</ele><time>2026-03-29T08:52:53Z</time></trkpt><trkpt lat="45.36361904989114" lon="10.619254492911459"><ele>152.60000000000002</ele><time>2026-03-29T08:52:54Z</time></trkpt><trkpt lat="45.3636391285131" lon="10.619162363130139"><ele>152.8</ele><time>2026-03-29T08:52:55Z</time></trkpt><trkpt lat="45.36367955086666" lon="10.619061013076196"><ele>153.0</ele><time>2026-03-29T08:52:56Z</time></trkpt><trkpt lat="45.36373300573091" lon="10.618907698489577"><ele>153.0</ele><time>2026-03-29T08:52:57Z</time></trkpt><trkpt lat="45.363798536921" lon="10.618729017636994"><ele>153.0</ele><time>2026-03-29T08:52:58Z</time></trkpt><trkpt lat="45.36386904838824" lon="10.61853563448134"><ele>153.0</ele><time>2026-03-29T08:52:59Z</time></trkpt><trkpt lat="45.363938357713565" lon="10.618330281982905"><ele>151.0</ele><time>2026-03-29T08:53:00Z</time></trkpt><trkpt lat="45.36401202273181" lon="10.618135515747234"><ele>149.0</ele><time>2026-03-29T08:53:01Z</time></trkpt><trkpt lat="45.364094354926735" lon="10.61791352491983"><ele>147.0</ele><time>2026-03-29T08:53:02Z</time></trkpt><trkpt lat="45.36416726776363" lon="10.617689668419889"><ele>147.0</ele><time>2026-03-29T08:53:03Z</time></trkpt><trkpt lat="45.364232525978466" lon="10.617475704254936"><ele>147.0</ele><time>2026-03-29T08:53:04Z</time></trkpt><trkpt lat="45.36429507010028" lon="10.617272191282446"><ele>147.0</ele><time>2026-03-29T08:53:05Z</time></trkpt><trkpt lat="45.3643574215784" lon="10.617089709769358"><ele>146.6</ele><time>2026-03-29T08:53:06Z</time></trkpt><trkpt lat="45.364412827503934" lon="10.616935936385573"><ele>146.2</ele><time>2026-03-29T08:53:07Z</time></trkpt><trkpt lat="45.36445505048258" lon="10.616812665763113"><ele>145.8</ele><time>2026-03-29T08:53:08Z</time></trkpt><trkpt lat="45.364493462614234" lon="10.616714791016213"><ele>145.4</ele><time>2026-03-29T08:53:09Z</time></trkpt><trkpt lat="45.364594155216444" lon="10.616653043501097"><ele>145.0</ele><time>2026-03-29T08:53:11Z</time></trkpt><trkpt lat="45.36465846828707" lon="10.616685632521824"><ele>144.33333333333334</ele><time>2026-03-29T08:53:12Z</time></trkpt><trkpt lat="45.364741738543934" lon="10.616703029000355"><ele>143.66666666666669</ele><time>2026-03-29T08:53:13Z</time></trkpt><trkpt lat="45.364817494019015" lon="10.61668312364848"><ele>143.0</ele><time>2026-03-29T08:53:14Z</time></trkpt><trkpt lat="45.36488116483878" lon="10.616639615586893"><ele>142.33333333333334</ele><time>2026-03-29T08:53:15Z</time></trkpt><trkpt lat="45.364960787267144" lon="10.616514690792261"><ele>141.66666666666666</ele><time>2026-03-29T08:53:17Z</time></trkpt><trkpt lat="45.364960287929755" lon="10.616424926981612"><ele>141.0</ele><time>2026-03-29T08:53:18Z</time></trkpt><trkpt lat="45.36494351584805" lon="10.616312408456784"><ele>141.0</ele><time>2026-03-29T08:53:19Z</time></trkpt><trkpt lat="45.36492082866643" lon="10.616199724969348"><ele>141.0</ele><time>2026-03-29T08:53:20Z</time></trkpt><trkpt lat="45.36492762694108" lon="10.61609173675105"><ele>141.0</ele><time>2026-03-29T08:53:21Z</time></trkpt><trkpt lat="45.364968847080846" lon="10.616001400607509"><ele>141.0</ele><time>2026-03-29T08:53:22Z</time></trkpt><trkpt lat="45.36502902300302" lon="10.61592419173578"><ele>141.0</ele><time>2026-03-29T08:53:23Z</time></trkpt><trkpt lat="45.36508800056365" lon="10.615859760754534"><ele>141.0</ele><time>2026-03-29T08:53:24Z</time></trkpt><trkpt lat="45.36511226317102" lon="10.615730899565737"><ele>140.6</ele><time>2026-03-29T08:53:26Z</time></trkpt><trkpt lat="45.365094516996535" lon="10.615635808560555"><ele>140.2</ele><time>2026-03-29T08:53:27Z</time></trkpt><trkpt lat="45.36506765233837" lon="10.615470299406267"><ele>139.8</ele><time>2026-03-29T08:53:28Z</time></trkpt><trkpt lat="45.36504469157502" lon="10.615293513499429"><ele>139.4</ele><time>2026-03-29T08:53:29Z</time></trkpt><trkpt lat="45.36502826361949" lon="10.615111629976667"><ele>139.0</ele><time>2026-03-29T08:53:30Z</time></trkpt><trkpt lat="45.365023407365754" lon="10.614939618867856"><ele>139.0</ele><time>2026-03-29T08:53:31Z</time></trkpt><trkpt lat="45.365025349627466" lon="10.61476472489298"><ele>139.0</ele><time>2026-03-29T08:53:32Z</time></trkpt><trkpt lat="45.36503162857858" lon="10.614587341755104"><ele>139.0</ele><time>2026-03-29T08:53:33Z</time></trkpt><trkpt lat="45.36503318123625" lon="10.6144273657098"><ele>139.0</ele><time>2026-03-29T08:53:34Z</time></trkpt><trkpt lat="45.365043291613766" lon="10.614263984175459"><ele>138.8</ele><time>2026-03-29T08:53:35Z</time></trkpt><trkpt lat="45.36503856389428" lon="10.614094116644338"><ele>138.60000000000002</ele><time>2026-03-29T08:53:36Z</time></trkpt><trkpt lat="45.36504017472414" lon="10.613933387262916"><ele>138.4</ele><time>2026-03-29T08:53:37Z</time></trkpt><trkpt lat="45.36504422221404" lon="10.613817880836171"><ele>138.20000000000002</ele><time>2026-03-29T08:53:38Z</time></trkpt><trkpt lat="45.365045628609565" lon="10.613683117428042"><ele>138.0</ele><time>2026-03-29T08:53:39Z</time></trkpt><trkpt lat="45.36507311218958" lon="10.613544096233536"><ele>138.4</ele><time>2026-03-29T08:53:40Z</time></trkpt><trkpt lat="45.3651047368998" lon="10.613390521881096"><ele>138.8</ele><time>2026-03-29T08:53:41Z</time></trkpt><trkpt lat="45.36508981649209" lon="10.61325176727012"><ele>139.2</ele><time>2026-03-29T08:53:42Z</time></trkpt><trkpt lat="45.365074544072066" lon="10.61314120851527"><ele>139.6</ele><time>2026-03-29T08:53:43Z</time></trkpt><trkpt lat="45.36503843572643" lon="10.612986167404983"><ele>140.0</ele><time>2026-03-29T08:53:44Z</time></trkpt><trkpt lat="45.36498689730958" lon="10.612826797945615"><ele>140.0</ele><time>2026-03-29T08:53:45Z</time></trkpt><trkpt lat="45.36491401245281" lon="10.612648777749305"><ele>140.0</ele><time>2026-03-29T08:53:46Z</time></trkpt><trkpt lat="45.364829001216044" lon="10.612470946588012"><ele>140.0</ele><time>2026-03-29T08:53:47Z</time></trkpt><trkpt lat="45.3647449514174" lon="10.612306427055788"><ele>140.0</ele><time>2026-03-29T08:53:48Z</time></trkpt><trkpt lat="45.36468586345562" lon="10.612150724436207"><ele>141.0</ele><time>2026-03-29T08:53:49Z</time></trkpt><trkpt lat="45.36466549025362" lon="10.611970808248943"><ele>142.0</ele><time>2026-03-29T08:53:50Z</time></trkpt><trkpt lat="45.36464114222693" lon="10.611756935706497"><ele>143.0</ele><time>2026-03-29T08:53:51Z</time></trkpt><trkpt lat="45.36461412274263" lon="10.611526007026253"><ele>144.0</ele><time>2026-03-29T08:53:52Z</time></trkpt><trkpt lat="45.36456292179335" lon="10.61128276972648"><ele>142.5</ele><time>2026-03-29T08:53:53Z</time></trkpt><trkpt lat="45.36454441723394" lon="10.611069281595594"><ele>141.0</ele><time>2026-03-29T08:53:54Z</time></trkpt><trkpt lat="45.364515620909245" lon="10.610887311058217"><ele>139.5</ele><time>2026-03-29T08:53:55Z</time></trkpt><trkpt lat="45.364494660385134" lon="10.610754856151182"><ele>138.0</ele><time>2026-03-29T08:53:56Z</time></trkpt><trkpt lat="45.36446244797387" lon="10.610658802473711"><ele>138.0</ele><time>2026-03-29T08:53:57Z</time></trkpt><trkpt lat="45.364463185005306" lon="10.61056403833019"><ele>138.0</ele><time>2026-03-29T08:53:59Z</time></trkpt><trkpt lat="45.364570925245204" lon="10.6105729439195"><ele>138.0</ele><time>2026-03-29T08:54:01Z</time></trkpt><trkpt lat="45.36467838569856" lon="10.610611627525671"><ele>138.0</ele><time>2026-03-29T08:54:02Z</time></trkpt><trkpt lat="45.36479235315263" lon="10.610626508126503"><ele>138.0</ele><time>2026-03-29T08:54:03Z</time></trkpt><trkpt lat="45.364920951275074" lon="10.610663086954508"><ele>137.0</ele><time>2026-03-29T08:54:04Z</time></trkpt><trkpt lat="45.36506030913539" lon="10.61068848393422"><ele>136.0</ele><time>2026-03-29T08:54:05Z</time></trkpt><trkpt lat="45.3652157512828" lon="10.610716282414215"><ele>135.0</ele><time>2026-03-29T08:54:06Z</time></trkpt><trkpt lat="45.36538354390099" lon="10.61074635692372"><ele>136.33333333333334</ele><time>2026-03-29T08:54:07Z</time></trkpt><trkpt lat="45.36556207832036" lon="10.610782040637947"><ele>137.66666666666669</ele><time>2026-03-29T08:54:08Z</time></trkpt><trkpt lat="45.36575112110709" lon="10.610815164593046"><ele>139.0</ele><time>2026-03-29T08:54:09Z</time></trkpt><trkpt lat="45.36594217284244" lon="10.610837828007181"><ele>139.0</ele><time>2026-03-29T08:54:10Z</time></trkpt><trkpt lat="45.3661437044255" lon="10.6108533091049"><ele>139.0</ele><time>2026-03-29T08:54:11Z</time></trkpt><trkpt lat="45.3663287596339" lon="10.610859322945243"><ele>139.0</ele><time>2026-03-29T08:54:12Z</time></trkpt><trkpt lat="45.36647824575287" lon="10.610863795777624"><ele>139.2</ele><time>2026-03-29T08:54:13Z</time></trkpt><trkpt lat="45.366612095803646" lon="10.610866934505564"><ele>139.4</ele><time>2026-03-29T08:54:14Z</time></trkpt><trkpt lat="45.3667083271223" lon="10.610870471121004"><ele>139.6</ele><time>2026-03-29T08:54:15Z</time></trkpt><trkpt lat="45.36678627007775" lon="10.6108630078286"><ele>139.8</ele><time>2026-03-29T08:54:16Z</time></trkpt><trkpt lat="45.36688075383165" lon="10.610729613516932"><ele>140.0</ele><time>2026-03-29T08:54:18Z</time></trkpt><trkpt lat="45.36690772864199" lon="10.610596879319642"><ele>140.0</ele><time>2026-03-29T08:54:19Z</time></trkpt><trkpt lat="45.36693498086898" lon="10.610426642548077"><ele>140.0</ele><time>2026-03-29T08:54:20Z</time></trkpt><trkpt lat="45.366989955672445" lon="10.610213794577852"><ele>140.0</ele><time>2026-03-29T08:54:21Z</time></trkpt><trkpt lat="45.3670300738197" lon="10.609972872497444"><ele>139.66666666666666</ele><time>2026-03-29T08:54:22Z</time></trkpt><trkpt lat="45.3670796291831" lon="10.609735646690135"><ele>139.33333333333334</ele><time>2026-03-29T08:54:23Z</time></trkpt><trkpt lat="45.3671352994898" lon="10.609471105323038"><ele>139.0</ele><time>2026-03-29T08:54:24Z</time></trkpt><trkpt lat="45.367187288061544" lon="10.609204348370897"><ele>139.66666666666669</ele><time>2026-03-29T08:54:25Z</time></trkpt><trkpt lat="45.367241952201525" lon="10.60892479846392"><ele>140.33333333333334</ele><time>2026-03-29T08:54:26Z</time></trkpt><trkpt lat="45.36729365236033" lon="10.608659107168894"><ele>141.0</ele><time>2026-03-29T08:54:27Z</time></trkpt><trkpt lat="45.3673424346411" lon="10.608419791002019"><ele>141.0</ele><time>2026-03-29T08:54:28Z</time></trkpt><trkpt lat="45.367396449454844" lon="10.608212869713196"><ele>141.0</ele><time>2026-03-29T08:54:29Z</time></trkpt><trkpt lat="45.36743536017812" lon="10.608020696095753"><ele>141.0</ele><time>2026-03-29T08:54:30Z</time></trkpt><trkpt lat="45.36745675886927" lon="10.607858538591499"><ele>141.0</ele><time>2026-03-29T08:54:31Z</time></trkpt><trkpt lat="45.36749332602321" lon="10.60771781444259"><ele>141.0</ele><time>2026-03-29T08:54:32Z</time></trkpt><trkpt lat="45.36752779481445" lon="10.607606432432902"><ele>141.0</ele><time>2026-03-29T08:54:33Z</time></trkpt><trkpt lat="45.36755640633818" lon="10.607522870888227"><ele>141.0</ele><time>2026-03-29T08:54:34Z</time></trkpt><trkpt lat="45.367637013796525" lon="10.607426023619588"><ele>141.0</ele><time>2026-03-29T08:54:36Z</time></trkpt><trkpt lat="45.3676956268784" lon="10.607478162111715"><ele>141.0</ele><time>2026-03-29T08:54:37Z</time></trkpt><trkpt lat="45.367783304112585" lon="10.607531465428904"><ele>141.0</ele><time>2026-03-29T08:54:38Z</time></trkpt><trkpt lat="45.367892187996915" lon="10.607594535048692"><ele>141.0</ele><time>2026-03-29T08:54:39Z</time></trkpt><trkpt lat="45.36800135168133" lon="10.60764737610228"><ele>141.0</ele><time>2026-03-29T08:54:40Z</time></trkpt><trkpt lat="45.368100530090096" lon="10.60769618584794"><ele>141.0</ele><time>2026-03-29T08:54:41Z</time></trkpt><trkpt lat="45.368181465684394" lon="10.607754194209928"><ele>141.0</ele><time>2026-03-29T08:54:42Z</time></trkpt><trkpt lat="45.36824776603146" lon="10.607766912565609"><ele>141.0</ele><time>2026-03-29T08:54:43Z</time></trkpt><trkpt lat="45.36831230837308" lon="10.607756013120007"><ele>141.0</ele><time>2026-03-29T08:54:44Z</time></trkpt><trkpt lat="45.36837817126811" lon="10.607652548566042"><ele>139.25</ele><time>2026-03-29T08:54:45Z</time></trkpt><trkpt lat="45.368442937555145" lon="10.607560959357325"><ele>137.5</ele><time>2026-03-29T08:54:46Z</time></trkpt><trkpt lat="45.368517304767835" lon="10.607443008823417"><ele>135.75</ele><time>2026-03-29T08:54:47Z</time></trkpt><trkpt lat="45.3685999085983" lon="10.6073051612975"><ele>134.0</ele><time>2026-03-29T08:54:48Z</time></trkpt><trkpt lat="45.36866576372213" lon="10.607161967074118"><ele>134.0</ele><time>2026-03-29T08:54:49Z</time></trkpt><trkpt lat="45.36873175417191" lon="10.607030477521356"><ele>134.0</ele><time>2026-03-29T08:54:50Z</time></trkpt><trkpt lat="45.368778047094615" lon="10.606921879762682"><ele>134.0</ele><time>2026-03-29T08:54:51Z</time></trkpt><trkpt lat="45.3688394318782" lon="10.606882610776184"><ele>134.0</ele><time>2026-03-29T08:54:52Z</time></trkpt><trkpt lat="45.36889419787254" lon="10.606800189222566"><ele>134.0</ele><time>2026-03-29T08:54:54Z</time></trkpt><trkpt lat="45.36895582494065" lon="10.606750024000466"><ele>134.0</ele><time>2026-03-29T08:54:56Z</time></trkpt><trkpt lat="45.36913866838263" lon="10.606889894412923"><ele>131.6</ele><time>2026-03-29T08:54:58Z</time></trkpt><trkpt lat="45.369231079479796" lon="10.606968699590297"><ele>129.2</ele><time>2026-03-29T08:54:59Z</time></trkpt><trkpt lat="45.36931445138204" lon="10.6070541981035"><ele>126.79999999999998</ele><time>2026-03-29T08:55:00Z</time></trkpt><trkpt lat="45.369403966974005" lon="10.60713546258204"><ele>124.39999999999999</ele><time>2026-03-29T08:55:01Z</time></trkpt><trkpt lat="45.369469030081774" lon="10.607184428605077"><ele>122.0</ele><time>2026-03-29T08:55:02Z</time></trkpt><trkpt lat="45.36955908509897" lon="10.60719753023009"><ele>122.0</ele><time>2026-03-29T08:55:03Z</time></trkpt><trkpt lat="45.369636045184436" lon="10.607210274506844"><ele>121.99999999999999</ele><time>2026-03-29T08:55:04Z</time></trkpt><trkpt lat="45.3697060406466" lon="10.607307547617408"><ele>121.99999999999999</ele><time>2026-03-29T08:55:06Z</time></trkpt><trkpt lat="45.36969412990952" lon="10.607484145997743"><ele>122.0</ele><time>2026-03-29T08:55:08Z</time></trkpt><trkpt lat="45.36969856615573" lon="10.607603517234937"><ele>122.0</ele><time>2026-03-29T08:55:09Z</time></trkpt><trkpt lat="45.369704931884804" lon="10.607765073230254"><ele>121.0</ele><time>2026-03-29T08:55:10Z</time></trkpt><trkpt lat="45.369714013107796" lon="10.607930109053857"><ele>119.99999999999999</ele><time>2026-03-29T08:55:11Z</time></trkpt><trkpt lat="45.36974929305533" lon="10.608057080073424"><ele>118.99999999999999</ele><time>2026-03-29T08:55:12Z</time></trkpt><trkpt lat="45.369796477781996" lon="10.608186598993795"><ele>118.0</ele><time>2026-03-29T08:55:13Z</time></trkpt><trkpt lat="45.369851725522004" lon="10.608333793618733"><ele>117.0</ele><time>2026-03-29T08:55:14Z</time></trkpt><trkpt lat="45.36988730046257" lon="10.608472990403873"><ele>117.0</ele><time>2026-03-29T08:55:15Z</time></trkpt><trkpt lat="45.369887379153" lon="10.608622179514878"><ele>117.0</ele><time>2026-03-29T08:55:16Z</time></trkpt><trkpt lat="45.369898944587476" lon="10.608804967540655"><ele>117.0</ele><time>2026-03-29T08:55:17Z</time></trkpt><trkpt lat="45.36990669465836" lon="10.609008424935944"><ele>117.0</ele><time>2026-03-29T08:55:18Z</time></trkpt><trkpt lat="45.36992217851667" lon="10.609210791053663"><ele>119.33333333333334</ele><time>2026-03-29T08:55:19Z</time></trkpt><trkpt lat="45.36995908749333" lon="10.609426659046774"><ele>121.66666666666667</ele><time>2026-03-29T08:55:20Z</time></trkpt><trkpt lat="45.37001492776673" lon="10.60964363956279"><ele>124.0</ele><time>2026-03-29T08:55:21Z</time></trkpt><trkpt lat="45.37007499260394" lon="10.609825261891995"><ele>124.75</ele><time>2026-03-29T08:55:22Z</time></trkpt><trkpt lat="45.37011477887856" lon="10.609994438245904"><ele>125.5</ele><time>2026-03-29T08:55:23Z</time></trkpt><trkpt lat="45.37014854290315" lon="10.610143601975414"><ele>126.25</ele><time>2026-03-29T08:55:24Z</time></trkpt><trkpt lat="45.37016076085171" lon="10.61028974924418"><ele>127.0</ele><time>2026-03-29T08:55:25Z</time></trkpt><trkpt lat="45.37019945360851" lon="10.610467813812434"><ele>127.33333333333334</ele><time>2026-03-29T08:55:26Z</time></trkpt><trkpt lat="45.37024873758285" lon="10.610655555187318"><ele>127.66666666666666</ele><time>2026-03-29T08:55:27Z</time></trkpt><trkpt lat="45.370326042893254" lon="10.6108771635663"><ele>128.0</ele><time>2026-03-29T08:55:28Z</time></trkpt><trkpt lat="45.370370512620326" lon="10.611134587776558"><ele>130.0</ele><time>2026-03-29T08:55:29Z</time></trkpt><trkpt lat="45.37044115283583" lon="10.611363650305995"><ele>132.0</ele><time>2026-03-29T08:55:30Z</time></trkpt><trkpt lat="45.370475821363094" lon="10.611594252456914"><ele>134.0</ele><time>2026-03-29T08:55:31Z</time></trkpt><trkpt lat="45.37051282937305" lon="10.611759724569348"><ele>132.6</ele><time>2026-03-29T08:55:32Z</time></trkpt><trkpt lat="45.37053361054945" lon="10.611869460439198"><ele>131.2</ele><time>2026-03-29T08:55:33Z</time></trkpt><trkpt lat="45.37053605836491" lon="10.61196217392069"><ele>129.79999999999998</ele><time>2026-03-29T08:55:34Z</time></trkpt><trkpt lat="45.370580732602996" lon="10.612087023711616"><ele>128.4</ele><time>2026-03-29T08:55:35Z</time></trkpt><trkpt lat="45.37057366975114" lon="10.612263586338306"><ele>127.0</ele><time>2026-03-29T08:55:36Z</time></trkpt><trkpt lat="45.37055487437032" lon="10.612449079022497"><ele>125.6</ele><time>2026-03-29T08:55:37Z</time></trkpt><trkpt lat="45.37054949895992" lon="10.612620764727529"><ele>124.19999999999999</ele><time>2026-03-29T08:55:38Z</time></trkpt><trkpt lat="45.370570553926925" lon="10.612757948971389"><ele>122.8</ele><time>2026-03-29T08:55:39Z</time></trkpt><trkpt lat="45.370570572183105" lon="10.6128763372846"><ele>121.4</ele><time>2026-03-29T08:55:40Z</time></trkpt><trkpt lat="45.37058562580233" lon="10.612997253469048"><ele>120.0</ele><time>2026-03-29T08:55:41Z</time></trkpt><trkpt lat="45.37073873366964" lon="10.613085042663231"><ele>118.33333333333334</ele><time>2026-03-29T08:55:42Z</time></trkpt><trkpt lat="45.37086913787307" lon="10.613189871206037"><ele>116.66666666666667</ele><time>2026-03-29T08:55:43Z</time></trkpt><trkpt lat="45.371026788075724" lon="10.613314839633137"><ele>115.0</ele><time>2026-03-29T08:55:44Z</time></trkpt><trkpt lat="45.371195517293906" lon="10.613439672534792"><ele>114.66666666666667</ele><time>2026-03-29T08:55:45Z</time></trkpt><trkpt lat="45.37137843413726" lon="10.613586917500724"><ele>114.33333333333334</ele><time>2026-03-29T08:55:46Z</time></trkpt><trkpt lat="45.371557394253706" lon="10.61373477532054"><ele>114.0</ele><time>2026-03-29T08:55:47Z</time></trkpt><trkpt lat="45.37174511100974" lon="10.613887330500944"><ele>114.0</ele><time>2026-03-29T08:55:48Z</time></trkpt><trkpt lat="45.371916114573544" lon="10.61402646822698"><ele>114.0</ele><time>2026-03-29T08:55:49Z</time></trkpt><trkpt lat="45.37206561483367" lon="10.614150315573193"><ele>114.0</ele><time>2026-03-29T08:55:50Z</time></trkpt><trkpt lat="45.37220182655723" lon="10.614261308169718"><ele>113.66666666666666</ele><time>2026-03-29T08:55:51Z</time></trkpt><trkpt lat="45.372340879212224" lon="10.614353810553558"><ele>113.33333333333333</ele><time>2026-03-29T08:55:52Z</time></trkpt><trkpt lat="45.37249380251976" lon="10.614404735332364"><ele>113.0</ele><time>2026-03-29T08:55:53Z</time></trkpt><trkpt lat="45.37266458026838" lon="10.614411140005338"><ele>113.0</ele><time>2026-03-29T08:55:54Z</time></trkpt><trkpt lat="45.37285504922449" lon="10.614390231027397"><ele>113.0</ele><time>2026-03-29T08:55:55Z</time></trkpt><trkpt lat="45.373063406126654" lon="10.614365044860033"><ele>113.0</ele><time>2026-03-29T08:55:56Z</time></trkpt><trkpt lat="45.373269056907404" lon="10.61441015277506"><ele>113.0</ele><time>2026-03-29T08:55:57Z</time></trkpt><trkpt lat="45.37347225899136" lon="10.614477413389354"><ele>113.0</ele><time>2026-03-29T08:55:58Z</time></trkpt><trkpt lat="45.37366856294121" lon="10.614576266909523"><ele>113.0</ele><time>2026-03-29T08:55:59Z</time></trkpt><trkpt lat="45.373862256487854" lon="10.614715724166985"><ele>113.5</ele><time>2026-03-29T08:56:00Z</time></trkpt><trkpt lat="45.374059877295835" lon="10.614881732376787"><ele>114.0</ele><time>2026-03-29T08:56:01Z</time></trkpt><trkpt lat="45.374271165145004" lon="10.615035235130453"><ele>114.0</ele><time>2026-03-29T08:56:02Z</time></trkpt><trkpt lat="45.37444525356239" lon="10.615190808709732"><ele>114.0</ele><time>2026-03-29T08:56:03Z</time></trkpt><trkpt lat="45.37463093514811" lon="10.615349804136132"><ele>114.0</ele><time>2026-03-29T08:56:04Z</time></trkpt><trkpt lat="45.374816731436326" lon="10.615504071107308"><ele>114.33333333333334</ele><time>2026-03-29T08:56:05Z</time></trkpt><trkpt lat="45.37499358863198" lon="10.615653976899685"><ele>114.66666666666667</ele><time>2026-03-29T08:56:06Z</time></trkpt><trkpt lat="45.37516439143257" lon="10.61579882286519"><ele>115.0</ele><time>2026-03-29T08:56:07Z</time></trkpt><trkpt lat="45.3753159629941" lon="10.615926728339012"><ele>115.0</ele><time>2026-03-29T08:56:08Z</time></trkpt><trkpt lat="45.37545797007416" lon="10.61604693112036"><ele>115.0</ele><time>2026-03-29T08:56:09Z</time></trkpt><trkpt lat="45.37558207703272" lon="10.616150854622232"><ele>115.0</ele><time>2026-03-29T08:56:10Z</time></trkpt><trkpt lat="45.375682571777546" lon="10.616232480586534"><ele>115.0</ele><time>2026-03-29T08:56:11Z</time></trkpt><trkpt lat="45.375769709399066" lon="10.616305358415367"><ele>115.5</ele><time>2026-03-29T08:56:12Z</time></trkpt><trkpt lat="45.375827570605814" lon="10.616368673183162"><ele>116.0</ele><time>2026-03-29T08:56:13Z</time></trkpt><trkpt lat="45.375889295870415" lon="10.616500398624941"><ele>116.5</ele><time>2026-03-29T08:56:15Z</time></trkpt><trkpt lat="45.37608973669675" lon="10.616438684846912"><ele>117.0</ele><time>2026-03-29T08:56:17Z</time></trkpt><trkpt lat="45.37622381775256" lon="10.616377574521985"><ele>117.5</ele><time>2026-03-29T08:56:18Z</time></trkpt><trkpt lat="45.376367102946254" lon="10.616305880209737"><ele>118.0</ele><time>2026-03-29T08:56:19Z</time></trkpt><trkpt lat="45.37650512180962" lon="10.616267285042897"><ele>118.5</ele><time>2026-03-29T08:56:20Z</time></trkpt><trkpt lat="45.37662566177156" lon="10.616205273249143"><ele>119.0</ele><time>2026-03-29T08:56:21Z</time></trkpt><trkpt lat="45.376748141039634" lon="10.616182484031544"><ele>119.0</ele><time>2026-03-29T08:56:22Z</time></trkpt><trkpt lat="45.3768869579105" lon="10.616222245057541"><ele>119.0</ele><time>2026-03-29T08:56:23Z</time></trkpt><trkpt lat="45.37704738186211" lon="10.616261161174075"><ele>119.0</ele><time>2026-03-29T08:56:24Z</time></trkpt><trkpt lat="45.377225598177745" lon="10.616294574997568"><ele>119.0</ele><time>2026-03-29T08:56:25Z</time></trkpt><trkpt lat="45.37741161764553" lon="10.616363993196996"><ele>119.0</ele><time>2026-03-29T08:56:26Z</time></trkpt><trkpt lat="45.377576740953714" lon="10.616430724682068"><ele>119.0</ele><time>2026-03-29T08:56:27Z</time></trkpt><trkpt lat="45.37772581709131" lon="10.61649344388171"><ele>119.0</ele><time>2026-03-29T08:56:28Z</time></trkpt><trkpt lat="45.377859637996345" lon="10.616539143796112"><ele>119.0</ele><time>2026-03-29T08:56:29Z</time></trkpt><trkpt lat="45.37798507229007" lon="10.616553436464738"><ele>119.0</ele><time>2026-03-29T08:56:30Z</time></trkpt><trkpt lat="45.37810168116875" lon="10.616491238236502"><ele>119.0</ele><time>2026-03-29T08:56:31Z</time></trkpt><trkpt lat="45.3782177337469" lon="10.616359572840848"><ele>118.0</ele><time>2026-03-29T08:56:32Z</time></trkpt><trkpt lat="45.37833426417441" lon="10.616171612703553"><ele>117.0</ele><time>2026-03-29T08:56:33Z</time></trkpt><trkpt lat="45.37846043223473" lon="10.615963326246128"><ele>116.0</ele><time>2026-03-29T08:56:34Z</time></trkpt><trkpt lat="45.378582287137114" lon="10.615762295891948"><ele>115.19999999999999</ele><time>2026-03-29T08:56:35Z</time></trkpt><trkpt lat="45.37868380935819" lon="10.615614316304589"><ele>114.39999999999999</ele><time>2026-03-29T08:56:36Z</time></trkpt><trkpt lat="45.37876543353743" lon="10.615513055457914"><ele>113.6</ele><time>2026-03-29T08:56:37Z</time></trkpt><trkpt lat="45.37884461748091" lon="10.615442481181084"><ele>112.8</ele><time>2026-03-29T08:56:38Z</time></trkpt><trkpt lat="45.378933374491545" lon="10.615433105536885"><ele>112.0</ele><time>2026-03-29T08:56:39Z</time></trkpt><trkpt lat="45.37903608067757" lon="10.615493972006876"><ele>111.75</ele><time>2026-03-29T08:56:40Z</time></trkpt><trkpt lat="45.3791331473921" lon="10.615575379329627"><ele>111.5</ele><time>2026-03-29T08:56:41Z</time></trkpt><trkpt lat="45.37923997499107" lon="10.615700453886998"><ele>111.25</ele><time>2026-03-29T08:56:42Z</time></trkpt><trkpt lat="45.379338027996496" lon="10.615798423529316"><ele>111.0</ele><time>2026-03-29T08:56:43Z</time></trkpt><trkpt lat="45.37941407722248" lon="10.615859554025812"><ele>111.0</ele><time>2026-03-29T08:56:44Z</time></trkpt><trkpt lat="45.37949129828693" lon="10.615873094436694"><ele>111.0</ele><time>2026-03-29T08:56:45Z</time></trkpt><trkpt lat="45.3795822825723" lon="10.615836588750504"><ele>111.0</ele><time>2026-03-29T08:56:46Z</time></trkpt><trkpt lat="45.3796809580031" lon="10.615743869595978"><ele>111.0</ele><time>2026-03-29T08:56:47Z</time></trkpt><trkpt lat="45.37978719748866" lon="10.615606354038457"><ele>111.0</ele><time>2026-03-29T08:56:48Z</time></trkpt><trkpt lat="45.379887048906845" lon="10.61549652790663"><ele>109.5</ele><time>2026-03-29T08:56:49Z</time></trkpt><trkpt lat="45.379983943190425" lon="10.615440108467904"><ele>108.0</ele><time>2026-03-29T08:56:50Z</time></trkpt><trkpt lat="45.38009076971333" lon="10.61542287735343"><ele>106.5</ele><time>2026-03-29T08:56:51Z</time></trkpt><trkpt lat="45.38019775577571" lon="10.61551672778425"><ele>105.0</ele><time>2026-03-29T08:56:52Z</time></trkpt><trkpt lat="45.38033405999308" lon="10.615561215875077"><ele>105.0</ele><time>2026-03-29T08:56:53Z</time></trkpt><trkpt lat="45.380461354810265" lon="10.61561180900162"><ele>105.0</ele><time>2026-03-29T08:56:54Z</time></trkpt><trkpt lat="45.38059745086343" lon="10.615618658718168"><ele>105.0</ele><time>2026-03-29T08:56:55Z</time></trkpt><trkpt lat="45.38075087024876" lon="10.615582596614004"><ele>105.0</ele><time>2026-03-29T08:56:56Z</time></trkpt><trkpt lat="45.38090832791163" lon="10.615503769587212"><ele>105.33333333333334</ele><time>2026-03-29T08:56:57Z</time></trkpt><trkpt lat="45.38107698753125" lon="10.615396896308862"><ele>105.66666666666667</ele><time>2026-03-29T08:56:58Z</time></trkpt><trkpt lat="45.38124162628441" lon="10.615289355584569"><ele>106.0</ele><time>2026-03-29T08:56:59Z</time></trkpt><trkpt lat="45.38136921176062" lon="10.6151860939483"><ele>105.25</ele><time>2026-03-29T08:57:00Z</time></trkpt><trkpt lat="45.381481667677505" lon="10.61506606490125"><ele>104.5</ele><time>2026-03-29T08:57:01Z</time></trkpt><trkpt lat="45.38157254728239" lon="10.614940983808523"><ele>103.75</ele><time>2026-03-29T08:57:02Z</time></trkpt><trkpt lat="45.38165808247236" lon="10.614818603010542"><ele>103.0</ele><time>2026-03-29T08:57:03Z</time></trkpt><trkpt lat="45.38173911491592" lon="10.61470257749591"><ele>103.0</ele><time>2026-03-29T08:57:04Z</time></trkpt><trkpt lat="45.38181111979648" lon="10.61463868058224"><ele>103.0</ele><time>2026-03-29T08:57:05Z</time></trkpt><trkpt lat="45.38188581909755" lon="10.614563097301277"><ele>103.0</ele><time>2026-03-29T08:57:07Z</time></trkpt><trkpt lat="45.38200194586497" lon="10.614777768668045"><ele>103.0</ele><time>2026-03-29T08:57:09Z</time></trkpt><trkpt lat="45.38200124265591" lon="10.614871684608678"><ele>103.0</ele><time>2026-03-29T08:57:10Z</time></trkpt><trkpt lat="45.381994785280675" lon="10.6149827108978"><ele>103.0</ele><time>2026-03-29T08:57:11Z</time></trkpt><trkpt lat="45.38197824582578" lon="10.61511753545471"><ele>103.0</ele><time>2026-03-29T08:57:12Z</time></trkpt><trkpt lat="45.381962870656096" lon="10.615307446645957"><ele>103.0</ele><time>2026-03-29T08:57:13Z</time></trkpt><trkpt lat="45.381955857426384" lon="10.6155336316863"><ele>103.0</ele><time>2026-03-29T08:57:14Z</time></trkpt><trkpt lat="45.38195263721246" lon="10.615780286382952"><ele>103.0</ele><time>2026-03-29T08:57:15Z</time></trkpt><trkpt lat="45.38194818323676" lon="10.616019267766323"><ele>103.0</ele><time>2026-03-29T08:57:16Z</time></trkpt><trkpt lat="45.38193848799044" lon="10.616260473041146"><ele>103.0</ele><time>2026-03-29T08:57:17Z</time></trkpt><trkpt lat="45.38193107247248" lon="10.616506692030903"><ele>103.0</ele><time>2026-03-29T08:57:18Z</time></trkpt><trkpt lat="45.38192615469812" lon="10.61674244622564"><ele>103.0</ele><time>2026-03-29T08:57:19Z</time></trkpt><trkpt lat="45.381918483503924" lon="10.616964603388235"><ele>103.0</ele><time>2026-03-29T08:57:20Z</time></trkpt><trkpt lat="45.381913567541616" lon="10.61715977888182"><ele>102.75</ele><time>2026-03-29T08:57:21Z</time></trkpt><trkpt lat="45.38191467285063" lon="10.617347009694376"><ele>102.5</ele><time>2026-03-29T08:57:22Z</time></trkpt><trkpt lat="45.38191663795238" lon="10.617536267590308"><ele>102.25</ele><time>2026-03-29T08:57:23Z</time></trkpt><trkpt lat="45.38192523054539" lon="10.617750088389917"><ele>102.0</ele><time>2026-03-29T08:57:24Z</time></trkpt><trkpt lat="45.38194636215834" lon="10.617953845220548"><ele>102.0</ele><time>2026-03-29T08:57:25Z</time></trkpt><trkpt lat="45.38198491028629" lon="10.618133922149948"><ele>102.0</ele><time>2026-03-29T08:57:26Z</time></trkpt><trkpt lat="45.38201577030474" lon="10.618322487974297"><ele>102.0</ele><time>2026-03-29T08:57:27Z</time></trkpt><trkpt lat="45.38202244322758" lon="10.618507666240749"><ele>102.0</ele><time>2026-03-29T08:57:28Z</time></trkpt><trkpt lat="45.3820350715133" lon="10.61868595600027"><ele>102.75</ele><time>2026-03-29T08:57:29Z</time></trkpt><trkpt lat="45.382075555242174" lon="10.618865812516196"><ele>103.5</ele><time>2026-03-29T08:57:30Z</time></trkpt><trkpt lat="45.38211331377136" lon="10.619062245101727"><ele>104.25</ele><time>2026-03-29T08:57:31Z</time></trkpt><trkpt lat="45.38213603776515" lon="10.619225292749032"><ele>105.0</ele><time>2026-03-29T08:57:32Z</time></trkpt><trkpt lat="45.38213051158457" lon="10.619380564506605"><ele>104.75</ele><time>2026-03-29T08:57:33Z</time></trkpt><trkpt lat="45.38209701462788" lon="10.619532617597493"><ele>104.5</ele><time>2026-03-29T08:57:34Z</time></trkpt><trkpt lat="45.382041704655585" lon="10.619716196971357"><ele>104.25</ele><time>2026-03-29T08:57:35Z</time></trkpt><trkpt lat="45.3819813942276" lon="10.619930907589538"><ele>104.0</ele><time>2026-03-29T08:57:36Z</time></trkpt><trkpt lat="45.3819199654009" lon="10.620125515500373"><ele>104.0</ele><time>2026-03-29T08:57:37Z</time></trkpt><trkpt lat="45.38185947935988" lon="10.620292985758192"><ele>104.0</ele><time>2026-03-29T08:57:38Z</time></trkpt><trkpt lat="45.38181093842422" lon="10.620431497432293"><ele>104.0</ele><time>2026-03-29T08:57:39Z</time></trkpt><trkpt lat="45.38177377321273" lon="10.62057064030043"><ele>104.0</ele><time>2026-03-29T08:57:40Z</time></trkpt><trkpt lat="45.381749949203815" lon="10.620711657936392"><ele>104.0</ele><time>2026-03-29T08:57:41Z</time></trkpt><trkpt lat="45.38175215535809" lon="10.620851576923979"><ele>103.0</ele><time>2026-03-29T08:57:42Z</time></trkpt><trkpt lat="45.38175299250553" lon="10.621054154380076"><ele>102.0</ele><time>2026-03-29T08:57:43Z</time></trkpt><trkpt lat="45.3817494343168" lon="10.621292504458912"><ele>101.0</ele><time>2026-03-29T08:57:44Z</time></trkpt><trkpt lat="45.38175149707728" lon="10.621527120178913"><ele>100.66666666666666</ele><time>2026-03-29T08:57:45Z</time></trkpt><trkpt lat="45.38175185631533" lon="10.621765798480117"><ele>100.33333333333334</ele><time>2026-03-29T08:57:46Z</time></trkpt><trkpt lat="45.38174166989382" lon="10.62201204021791"><ele>100.0</ele><time>2026-03-29T08:57:47Z</time></trkpt><trkpt lat="45.38172384014129" lon="10.622243764363319"><ele>100.0</ele><time>2026-03-29T08:57:48Z</time></trkpt><trkpt lat="45.381711318554224" lon="10.622484373748252"><ele>100.0</ele><time>2026-03-29T08:57:49Z</time></trkpt><trkpt lat="45.381703938432445" lon="10.622683920572422"><ele>100.0</ele><time>2026-03-29T08:57:50Z</time></trkpt><trkpt lat="45.38167496994563" lon="10.622887852492074"><ele>100.0</ele><time>2026-03-29T08:57:51Z</time></trkpt><trkpt lat="45.38165557238513" lon="10.623068448749518"><ele>100.0</ele><time>2026-03-29T08:57:52Z</time></trkpt><trkpt lat="45.38165800411294" lon="10.623237378968234"><ele>100.0</ele><time>2026-03-29T08:57:53Z</time></trkpt><trkpt lat="45.381680688916674" lon="10.62340528378501"><ele>100.0</ele><time>2026-03-29T08:57:54Z</time></trkpt><trkpt lat="45.381681748784516" lon="10.623588358329805"><ele>100.33333333333334</ele><time>2026-03-29T08:57:55Z</time></trkpt><trkpt lat="45.38166703390423" lon="10.623796707597293"><ele>100.66666666666666</ele><time>2026-03-29T08:57:56Z</time></trkpt><trkpt lat="45.381657498643996" lon="10.62406529295777"><ele>101.0</ele><time>2026-03-29T08:57:57Z</time></trkpt><trkpt lat="45.38163165479796" lon="10.624341512811302"><ele>100.33333333333333</ele><time>2026-03-29T08:57:58Z</time></trkpt><trkpt lat="45.38161610944075" lon="10.624630011693041"><ele>99.66666666666666</ele><time>2026-03-29T08:57:59Z</time></trkpt><trkpt lat="45.381613791376836" lon="10.624894219665288"><ele>99.0</ele><time>2026-03-29T08:58:00Z</time></trkpt><trkpt lat="45.381578063403666" lon="10.625177640819025"><ele>99.33333333333334</ele><time>2026-03-29T08:58:01Z</time></trkpt><trkpt lat="45.381543226234115" lon="10.625481856661118"><ele>99.66666666666667</ele><time>2026-03-29T08:58:02Z</time></trkpt><trkpt lat="45.38150670949567" lon="10.625777208043667"><ele>100.0</ele><time>2026-03-29T08:58:03Z</time></trkpt><trkpt lat="45.381463347274924" lon="10.626079889105736"><ele>100.33333333333334</ele><time>2026-03-29T08:58:04Z</time></trkpt><trkpt lat="45.381420278424045" lon="10.626361638384987"><ele>100.66666666666666</ele><time>2026-03-29T08:58:05Z</time></trkpt><trkpt lat="45.38138312304981" lon="10.626605587387376"><ele>101.0</ele><time>2026-03-29T08:58:06Z</time></trkpt><trkpt lat="45.38135086703395" lon="10.626829065470067"><ele>102.5</ele><time>2026-03-29T08:58:07Z</time></trkpt><trkpt lat="45.38132102268086" lon="10.627035835113652"><ele>104.0</ele><time>2026-03-29T08:58:08Z</time></trkpt><trkpt lat="45.381312283842306" lon="10.627233574662728"><ele>105.5</ele><time>2026-03-29T08:58:09Z</time></trkpt><trkpt lat="45.38129417143069" lon="10.627398182193154"><ele>107.0</ele><time>2026-03-29T08:58:10Z</time></trkpt><trkpt lat="45.381259073960486" lon="10.627541181903311"><ele>107.0</ele><time>2026-03-29T08:58:11Z</time></trkpt><trkpt lat="45.38123326327343" lon="10.627654945655548"><ele>106.99999999999999</ele><time>2026-03-29T08:58:12Z</time></trkpt><trkpt lat="45.38119782391534" lon="10.627733269164397"><ele>106.99999999999999</ele><time>2026-03-29T08:58:13Z</time></trkpt><trkpt lat="45.38111766303787" lon="10.627831787902375"><ele>107.0</ele><time>2026-03-29T08:58:15Z</time></trkpt><trkpt lat="45.38097222878378" lon="10.627919594689773"><ele>107.0</ele><time>2026-03-29T08:58:17Z</time></trkpt><trkpt lat="45.380845261911865" lon="10.627967391623116"><ele>107.33333333333333</ele><time>2026-03-29T08:58:18Z</time></trkpt><trkpt lat="45.38069202391776" lon="10.628004184265782"><ele>107.66666666666666</ele><time>2026-03-29T08:58:19Z</time></trkpt><trkpt lat="45.38053780763341" lon="10.628093534605608"><ele>108.0</ele><time>2026-03-29T08:58:20Z</time></trkpt><trkpt lat="45.38039641312372" lon="10.628182229596824"><ele>108.0</ele><time>2026-03-29T08:58:21Z</time></trkpt><trkpt lat="45.38027870647297" lon="10.628280987839853"><ele>108.00000000000001</ele><time>2026-03-29T08:58:22Z</time></trkpt><trkpt lat="45.380185810244534" lon="10.628349983070457"><ele>108.00000000000001</ele><time>2026-03-29T08:58:23Z</time></trkpt><trkpt lat="45.380097948952084" lon="10.628402992504661"><ele>108.0</ele><time>2026-03-29T08:58:24Z</time></trkpt><trkpt lat="45.380023657620484" lon="10.628459723920981"><ele>108.0</ele><time>2026-03-29T08:58:25Z</time></trkpt><trkpt lat="45.37994740965604" lon="10.628525044182808"><ele>108.0</ele><time>2026-03-29T08:58:26Z</time></trkpt><trkpt lat="45.37985470490794" lon="10.628513305594154"><ele>108.0</ele><time>2026-03-29T08:58:27Z</time></trkpt><trkpt lat="45.37977616083088" lon="10.628490108419696"><ele>108.0</ele><time>2026-03-29T08:58:28Z</time></trkpt><trkpt lat="45.3797133063934" lon="10.62848478346482"><ele>108.0</ele><time>2026-03-29T08:58:29Z</time></trkpt><trkpt lat="45.379648979493055" lon="10.628462202791784"><ele>108.0</ele><time>2026-03-29T08:58:31Z</time></trkpt><trkpt lat="45.3797141495531" lon="10.628406566551778"><ele>108.0</ele><time>2026-03-29T08:58:36Z</time></trkpt><trkpt lat="45.37977654662054" lon="10.628378491132988"><ele>108.0</ele><time>2026-03-29T08:58:37Z</time></trkpt><trkpt lat="45.37994082721072" lon="10.628554486998404"><ele>108.0</ele><time>2026-03-29T08:58:38Z</time></trkpt><trkpt lat="45.3800140592402" lon="10.628622784989096"><ele>108.0</ele><time>2026-03-29T08:58:39Z</time></trkpt><trkpt lat="45.38007207670252" lon="10.628665127449057"><ele>108.0</ele><time>2026-03-29T08:58:40Z</time></trkpt><trkpt lat="45.3801723971072" lon="10.628739104179122"><ele>108.0</ele><time>2026-03-29T08:58:42Z</time></trkpt><trkpt lat="45.38022717443343" lon="10.628786696165813"><ele>108.0</ele><time>2026-03-29T08:58:44Z</time></trkpt><trkpt lat="45.38028473616134" lon="10.628857602259824"><ele>108.0</ele><time>2026-03-29T08:58:47Z</time></trkpt><trkpt lat="45.380070179343996" lon="10.629323404585453"><ele>106.5</ele><time>2026-03-29T08:58:48Z</time></trkpt><trkpt lat="45.379996428418075" lon="10.629383996290487"><ele>105.0</ele><time>2026-03-29T08:58:51Z</time></trkpt><trkpt lat="45.37993451928258" lon="10.62943340335313"><ele>103.5</ele><time>2026-03-29T08:58:54Z</time></trkpt><trkpt lat="45.380006044291534" lon="10.629432884816305"><ele>102.0</ele><time>2026-03-29T08:59:00Z</time></trkpt><trkpt lat="45.38007931569253" lon="10.629306916896939"><ele>100.5</ele><time>2026-03-29T08:59:02Z</time></trkpt><trkpt lat="45.380153619355816" lon="10.629231147162809"><ele>99.0</ele><time>2026-03-29T08:59:04Z</time></trkpt><trkpt lat="45.38020540499603" lon="10.629135362525751"><ele>99.0</ele><time>2026-03-29T08:59:05Z</time></trkpt><trkpt lat="45.3802791910586" lon="10.629053605870824"><ele>99.0</ele><time>2026-03-29T08:59:07Z</time></trkpt><trkpt lat="45.38035456437017" lon="10.62898049704785"><ele>99.0</ele><time>2026-03-29T08:59:09Z</time></trkpt><trkpt lat="45.38045218467966" lon="10.628981863699266"><ele>99.0</ele><time>2026-03-29T08:59:11Z</time></trkpt><trkpt lat="45.38052259655463" lon="10.629007899276045"><ele>99.0</ele><time>2026-03-29T08:59:12Z</time></trkpt><trkpt lat="45.3805906506244" lon="10.629071322938847"><ele>99.0</ele><time>2026-03-29T08:59:13Z</time></trkpt><trkpt lat="45.380651525979886" lon="10.629173895386819"><ele>98.75</ele><time>2026-03-29T08:59:14Z</time></trkpt><trkpt lat="45.38075200588265" lon="10.62926350852585"><ele>98.5</ele><time>2026-03-29T08:59:15Z</time></trkpt><trkpt lat="45.3808613620408" lon="10.62936103791245"><ele>98.25</ele><time>2026-03-29T08:59:16Z</time></trkpt><trkpt lat="45.380973332448505" lon="10.62946089891656"><ele>98.0</ele><time>2026-03-29T08:59:17Z</time></trkpt><trkpt lat="45.38109314688056" lon="10.62954079496886"><ele>97.66666666666666</ele><time>2026-03-29T08:59:18Z</time></trkpt><trkpt lat="45.38120705288901" lon="10.629669342773921"><ele>97.33333333333334</ele><time>2026-03-29T08:59:19Z</time></trkpt><trkpt lat="45.381340912686554" lon="10.6297898645058"><ele>97.0</ele><time>2026-03-29T08:59:20Z</time></trkpt><trkpt lat="45.38146503023055" lon="10.62990167092525"><ele>98.33333333333334</ele><time>2026-03-29T08:59:21Z</time></trkpt><trkpt lat="45.3816038899525" lon="10.630029176913302"><ele>99.66666666666666</ele><time>2026-03-29T08:59:22Z</time></trkpt><trkpt lat="45.381746085185696" lon="10.6301380199803"><ele>101.0</ele><time>2026-03-29T08:59:23Z</time></trkpt><trkpt lat="45.3818687212994" lon="10.630256075508429"><ele>100.75</ele><time>2026-03-29T08:59:24Z</time></trkpt><trkpt lat="45.38197401336859" lon="10.630372336857404"><ele>100.5</ele><time>2026-03-29T08:59:25Z</time></trkpt><trkpt lat="45.382086425809455" lon="10.63047251658774"><ele>100.25</ele><time>2026-03-29T08:59:26Z</time></trkpt><trkpt lat="45.38220402880494" lon="10.6305764399624"><ele>100.0</ele><time>2026-03-29T08:59:27Z</time></trkpt><trkpt lat="45.38230300800157" lon="10.630638155199085"><ele>100.8</ele><time>2026-03-29T08:59:28Z</time></trkpt><trkpt lat="45.38238431418146" lon="10.630708241529511"><ele>101.6</ele><time>2026-03-29T08:59:29Z</time></trkpt><trkpt lat="45.38244830291576" lon="10.630801126605245"><ele>102.4</ele><time>2026-03-29T08:59:30Z</time></trkpt><trkpt lat="45.38249578567272" lon="10.630880843322439"><ele>103.2</ele><time>2026-03-29T08:59:31Z</time></trkpt><trkpt lat="45.38254506728964" lon="10.631053206493524"><ele>104.0</ele><time>2026-03-29T08:59:33Z</time></trkpt><trkpt lat="45.38259445662797" lon="10.631212328674275"><ele>104.0</ele><time>2026-03-29T08:59:35Z</time></trkpt><trkpt lat="45.382618793984015" lon="10.631310739007457"><ele>104.0</ele><time>2026-03-29T08:59:36Z</time></trkpt><trkpt lat="45.38233754992397" lon="10.631648444683401"><ele>104.0</ele><time>2026-03-29T08:59:37Z</time></trkpt><trkpt lat="45.38226638543879" lon="10.631847288891713"><ele>103.0</ele><time>2026-03-29T08:59:38Z</time></trkpt><trkpt lat="45.38219977999821" lon="10.63204830990248"><ele>102.0</ele><time>2026-03-29T08:59:39Z</time></trkpt><trkpt lat="45.3821340684586" lon="10.632248294743947"><ele>101.0</ele><time>2026-03-29T08:59:40Z</time></trkpt><trkpt lat="45.38206953975524" lon="10.63242827089783"><ele>100.5</ele><time>2026-03-29T08:59:41Z</time></trkpt><trkpt lat="45.382003570133854" lon="10.632630667218036"><ele>100.0</ele><time>2026-03-29T08:59:42Z</time></trkpt><trkpt lat="45.381934555773704" lon="10.632826911287683"><ele>99.5</ele><time>2026-03-29T08:59:43Z</time></trkpt><trkpt lat="45.381869682711645" lon="10.632998296884095"><ele>99.0</ele><time>2026-03-29T08:59:44Z</time></trkpt><trkpt lat="45.381806128794274" lon="10.633180108609647"><ele>99.0</ele><time>2026-03-29T08:59:45Z</time></trkpt><trkpt lat="45.38174609701281" lon="10.633350453245459"><ele>99.0</ele><time>2026-03-29T08:59:46Z</time></trkpt><trkpt lat="45.381683245978095" lon="10.63352349014331"><ele>99.0</ele><time>2026-03-29T08:59:47Z</time></trkpt><trkpt lat="45.381622306098144" lon="10.633686452646996"><ele>99.0</ele><time>2026-03-29T08:59:48Z</time></trkpt><trkpt lat="45.38156987224717" lon="10.633836777255697"><ele>98.5</ele><time>2026-03-29T08:59:49Z</time></trkpt><trkpt lat="45.38151693469289" lon="10.633994087827158"><ele>98.0</ele><time>2026-03-29T08:59:50Z</time></trkpt><trkpt lat="45.38145501428304" lon="10.634169854508043"><ele>97.5</ele><time>2026-03-29T08:59:51Z</time></trkpt><trkpt lat="45.38139236311062" lon="10.634317164324695"><ele>97.0</ele><time>2026-03-29T08:59:52Z</time></trkpt><trkpt lat="45.38132503589065" lon="10.634470344800935"><ele>97.75</ele><time>2026-03-29T08:59:53Z</time></trkpt><trkpt lat="45.381240942611434" lon="10.634621370530581"><ele>98.5</ele><time>2026-03-29T08:59:54Z</time></trkpt><trkpt lat="45.3811342354295" lon="10.634758634265667"><ele>99.25</ele><time>2026-03-29T08:59:55Z</time></trkpt><trkpt lat="45.3810384646765" lon="10.634885165758382"><ele>100.0</ele><time>2026-03-29T08:59:56Z</time></trkpt><trkpt lat="45.38094099330295" lon="10.635008350107725"><ele>100.0</ele><time>2026-03-29T08:59:57Z</time></trkpt><trkpt lat="45.380847444117414" lon="10.635140841086915"><ele>100.0</ele><time>2026-03-29T08:59:58Z</time></trkpt><trkpt lat="45.3807585703367" lon="10.635282203231993"><ele>100.0</ele><time>2026-03-29T08:59:59Z</time></trkpt><trkpt lat="45.38068931964531" lon="10.635421318031838"><ele>100.0</ele><time>2026-03-29T09:00:00Z</time></trkpt><trkpt lat="45.380623059502916" lon="10.6355940959556"><ele>100.75</ele><time>2026-03-29T09:00:01Z</time></trkpt><trkpt lat="45.38055365853851" lon="10.635775361310323"><ele>101.5</ele><time>2026-03-29T09:00:02Z</time></trkpt><trkpt lat="45.3805024878009" lon="10.63593356080719"><ele>102.25</ele><time>2026-03-29T09:00:03Z</time></trkpt><trkpt lat="45.380462641787425" lon="10.636098576092591"><ele>103.0</ele><time>2026-03-29T09:00:04Z</time></trkpt><trkpt lat="45.38043897900424" lon="10.63624452758644"><ele>103.0</ele><time>2026-03-29T09:00:05Z</time></trkpt><trkpt lat="45.38043878071534" lon="10.636392576495327"><ele>103.0</ele><time>2026-03-29T09:00:06Z</time></trkpt><trkpt lat="45.38045526350815" lon="10.63655697256542"><ele>103.0</ele><time>2026-03-29T09:00:07Z</time></trkpt><trkpt lat="45.38048369640892" lon="10.636705801468217"><ele>103.0</ele><time>2026-03-29T09:00:08Z</time></trkpt><trkpt lat="45.38052558131073" lon="10.636875649536895"><ele>103.0</ele><time>2026-03-29T09:00:09Z</time></trkpt><trkpt lat="45.38057970755323" lon="10.637054590930328"><ele>103.0</ele><time>2026-03-29T09:00:10Z</time></trkpt><trkpt lat="45.380633376774725" lon="10.637219188717776"><ele>103.0</ele><time>2026-03-29T09:00:11Z</time></trkpt><trkpt lat="45.38066751939181" lon="10.637344571372452"><ele>103.0</ele><time>2026-03-29T09:00:12Z</time></trkpt><trkpt lat="45.38069681977189" lon="10.637449156037285"><ele>103.0</ele><time>2026-03-29T09:00:13Z</time></trkpt><trkpt lat="45.380691180498616" lon="10.637582498911362"><ele>103.0</ele><time>2026-03-29T09:00:15Z</time></trkpt><trkpt lat="45.38078048416727" lon="10.637677007863537"><ele>103.0</ele><time>2026-03-29T09:00:18Z</time></trkpt><trkpt lat="45.380856187605886" lon="10.637704927236742"><ele>103.0</ele><time>2026-03-29T09:00:19Z</time></trkpt><trkpt lat="45.38095106874588" lon="10.63775740099772"><ele>103.0</ele><time>2026-03-29T09:00:20Z</time></trkpt><trkpt lat="45.38103186865526" lon="10.637870107174606"><ele>103.0</ele><time>2026-03-29T09:00:21Z</time></trkpt><trkpt lat="45.38113017017852" lon="10.637993053781171"><ele>103.33333333333334</ele><time>2026-03-29T09:00:22Z</time></trkpt><trkpt lat="45.381244263397406" lon="10.63810951961651"><ele>103.66666666666666</ele><time>2026-03-29T09:00:23Z</time></trkpt><trkpt lat="45.38135911752132" lon="10.638264497393372"><ele>104.0</ele><time>2026-03-29T09:00:24Z</time></trkpt><trkpt lat="45.38147711415293" lon="10.638430868175138"><ele>104.0</ele><time>2026-03-29T09:00:25Z</time></trkpt><trkpt lat="45.38160664753249" lon="10.638598171684741"><ele>104.0</ele><time>2026-03-29T09:00:26Z</time></trkpt><trkpt lat="45.38174201443832" lon="10.638801068733741"><ele>104.0</ele><time>2026-03-29T09:00:27Z</time></trkpt><trkpt lat="45.38187201285476" lon="10.639017277221626"><ele>104.33333333333333</ele><time>2026-03-29T09:00:28Z</time></trkpt><trkpt lat="45.3819974616755" lon="10.639241479588526"><ele>104.66666666666666</ele><time>2026-03-29T09:00:29Z</time></trkpt><trkpt lat="45.382128174933115" lon="10.63946157171886"><ele>105.0</ele><time>2026-03-29T09:00:30Z</time></trkpt><trkpt lat="45.382276009457165" lon="10.639677778148632"><ele>105.0</ele><time>2026-03-29T09:00:31Z</time></trkpt><trkpt lat="45.38243778713252" lon="10.639880688266581"><ele>105.0</ele><time>2026-03-29T09:00:32Z</time></trkpt><trkpt lat="45.382613022206506" lon="10.640069656298339"><ele>105.0</ele><time>2026-03-29T09:00:33Z</time></trkpt><trkpt lat="45.3828048990932" lon="10.64023983360603"><ele>106.0</ele><time>2026-03-29T09:00:34Z</time></trkpt><trkpt lat="45.3830083795927" lon="10.640383465325954"><ele>107.0</ele><time>2026-03-29T09:00:35Z</time></trkpt><trkpt lat="45.3832124453024" lon="10.640523669432222"><ele>107.0</ele><time>2026-03-29T09:00:36Z</time></trkpt><trkpt lat="45.383415975296046" lon="10.64066615765514"><ele>107.0</ele><time>2026-03-29T09:00:37Z</time></trkpt><trkpt lat="45.38362324643566" lon="10.64082053935807"><ele>107.0</ele><time>2026-03-29T09:00:38Z</time></trkpt><trkpt lat="45.38382815804062" lon="10.640969526210924"><ele>107.0</ele><time>2026-03-29T09:00:39Z</time></trkpt><trkpt lat="45.384028795002955" lon="10.641097319287958"><ele>106.0</ele><time>2026-03-29T09:00:40Z</time></trkpt><trkpt lat="45.3842463042615" lon="10.641210086627824"><ele>105.0</ele><time>2026-03-29T09:00:41Z</time></trkpt><trkpt lat="45.384457889523844" lon="10.641336327284659"><ele>105.0</ele><time>2026-03-29T09:00:42Z</time></trkpt><trkpt lat="45.384665103485055" lon="10.641434245821156"><ele>105.0</ele><time>2026-03-29T09:00:43Z</time></trkpt><trkpt lat="45.384885272833216" lon="10.641551945882373"><ele>106.5</ele><time>2026-03-29T09:00:44Z</time></trkpt><trkpt lat="45.38510035831917" lon="10.641663737227866"><ele>108.0</ele><time>2026-03-29T09:00:45Z</time></trkpt><trkpt lat="45.3853195532377" lon="10.641777939090536"><ele>107.5</ele><time>2026-03-29T09:00:46Z</time></trkpt><trkpt lat="45.38554425522928" lon="10.641891314148879"><ele>107.0</ele><time>2026-03-29T09:00:47Z</time></trkpt><trkpt lat="45.3857606424835" lon="10.64200964336663"><ele>106.0</ele><time>2026-03-29T09:00:48Z</time></trkpt><trkpt lat="45.38597421200795" lon="10.642129055588303"><ele>105.0</ele><time>2026-03-29T09:00:49Z</time></trkpt><trkpt lat="45.386186271416825" lon="10.642243797555984"><ele>105.33333333333334</ele><time>2026-03-29T09:00:50Z</time></trkpt><trkpt lat="45.38639840232644" lon="10.642351264148166"><ele>105.66666666666667</ele><time>2026-03-29T09:00:51Z</time></trkpt><trkpt lat="45.38660895898083" lon="10.642461225813586"><ele>106.0</ele><time>2026-03-29T09:00:52Z</time></trkpt><trkpt lat="45.386818441356084" lon="10.64257342176958"><ele>106.0</ele><time>2026-03-29T09:00:53Z</time></trkpt><trkpt lat="45.38701355798766" lon="10.64267573132651"><ele>106.0</ele><time>2026-03-29T09:00:54Z</time></trkpt><trkpt lat="45.38720197839816" lon="10.6427793205547"><ele>106.0</ele><time>2026-03-29T09:00:55Z</time></trkpt><trkpt lat="45.38738104144268" lon="10.642872192787355"><ele>105.0</ele><time>2026-03-29T09:00:56Z</time></trkpt><trkpt lat="45.38755769004263" lon="10.642956663547297"><ele>104.0</ele><time>2026-03-29T09:00:57Z</time></trkpt><trkpt lat="45.38773773186079" lon="10.643043269112189"><ele>103.0</ele><time>2026-03-29T09:00:58Z</time></trkpt><trkpt lat="45.38792797614492" lon="10.643142391040005"><ele>104.0</ele><time>2026-03-29T09:00:59Z</time></trkpt><trkpt lat="45.38813381172507" lon="10.643241426180484"><ele>105.0</ele><time>2026-03-29T09:01:00Z</time></trkpt><trkpt lat="45.38833968103103" lon="10.643339558110274"><ele>106.0</ele><time>2026-03-29T09:01:01Z</time></trkpt><trkpt lat="45.38854601723209" lon="10.643427240565812"><ele>106.0</ele><time>2026-03-29T09:01:02Z</time></trkpt><trkpt lat="45.388744560807076" lon="10.643508085109378"><ele>106.0</ele><time>2026-03-29T09:01:03Z</time></trkpt><trkpt lat="45.38894044377964" lon="10.643579341556887"><ele>106.0</ele><time>2026-03-29T09:01:04Z</time></trkpt><trkpt lat="45.38912573844767" lon="10.643651848714796"><ele>105.33333333333334</ele><time>2026-03-29T09:01:05Z</time></trkpt><trkpt lat="45.38930776835196" lon="10.643718045926798"><ele>104.66666666666666</ele><time>2026-03-29T09:01:06Z</time></trkpt><trkpt lat="45.38948428213339" lon="10.643781272417105"><ele>104.0</ele><time>2026-03-29T09:01:07Z</time></trkpt><trkpt lat="45.38966136768618" lon="10.64384348223675"><ele>104.0</ele><time>2026-03-29T09:01:08Z</time></trkpt><trkpt lat="45.3898138470519" lon="10.643893288308009"><ele>104.0</ele><time>2026-03-29T09:01:09Z</time></trkpt><trkpt lat="45.389960262042926" lon="10.64395299320223"><ele>104.0</ele><time>2026-03-29T09:01:10Z</time></trkpt><trkpt lat="45.3900932586625" lon="10.643933380790696"><ele>104.0</ele><time>2026-03-29T09:01:11Z</time></trkpt><trkpt lat="45.39020075226428" lon="10.643860884056025"><ele>104.0</ele><time>2026-03-29T09:01:12Z</time></trkpt><trkpt lat="45.390307390363525" lon="10.643729650540822"><ele>104.0</ele><time>2026-03-29T09:01:13Z</time></trkpt><trkpt lat="45.390393077041175" lon="10.643547270457383"><ele>104.0</ele><time>2026-03-29T09:01:14Z</time></trkpt><trkpt lat="45.3904677598552" lon="10.643310551856707"><ele>108.0</ele><time>2026-03-29T09:01:15Z</time></trkpt><trkpt lat="45.39055375265789" lon="10.643065109085445"><ele>112.0</ele><time>2026-03-29T09:01:16Z</time></trkpt><trkpt lat="45.390641150523905" lon="10.642823418818763"><ele>116.0</ele><time>2026-03-29T09:01:17Z</time></trkpt><trkpt lat="45.3907161748644" lon="10.642628048106477"><ele>116.0</ele><time>2026-03-29T09:01:18Z</time></trkpt><trkpt lat="45.39078335987822" lon="10.642476648240008"><ele>116.0</ele><time>2026-03-29T09:01:19Z</time></trkpt><trkpt lat="45.39084760874796" lon="10.642354251615481"><ele>116.0</ele><time>2026-03-29T09:01:20Z</time></trkpt><trkpt lat="45.39092948681561" lon="10.642256017433025"><ele>116.0</ele><time>2026-03-29T09:01:21Z</time></trkpt><trkpt lat="45.3909921230233" lon="10.642136467210168"><ele>116.0</ele><time>2026-03-29T09:01:22Z</time></trkpt><trkpt lat="45.39120813796016" lon="10.642164357838514"><ele>115.66666666666666</ele><time>2026-03-29T09:01:23Z</time></trkpt><trkpt lat="45.39138377042152" lon="10.642190171213047"><ele>115.33333333333334</ele><time>2026-03-29T09:01:24Z</time></trkpt><trkpt lat="45.391556864965395" lon="10.642209086105186"><ele>115.0</ele><time>2026-03-29T09:01:25Z</time></trkpt><trkpt lat="45.39171152090904" lon="10.642190488601507"><ele>115.0</ele><time>2026-03-29T09:01:26Z</time></trkpt><trkpt lat="45.39186711302334" lon="10.642122082225406"><ele>115.0</ele><time>2026-03-29T09:01:27Z</time></trkpt><trkpt lat="45.39203482350408" lon="10.641999093262163"><ele>115.0</ele><time>2026-03-29T09:01:28Z</time></trkpt><trkpt lat="45.392205863247476" lon="10.641878778920159"><ele>111.66666666666667</ele><time>2026-03-29T09:01:29Z</time></trkpt><trkpt lat="45.39238670889105" lon="10.641763264559325"><ele>108.33333333333334</ele><time>2026-03-29T09:01:30Z</time></trkpt><trkpt lat="45.392547538203466" lon="10.64167370934413"><ele>105.0</ele><time>2026-03-29T09:01:31Z</time></trkpt><trkpt lat="45.39268994374877" lon="10.641584097737859"><ele>105.0</ele><time>2026-03-29T09:01:32Z</time></trkpt><trkpt lat="45.39282344353239" lon="10.64151211101473"><ele>105.0</ele><time>2026-03-29T09:01:33Z</time></trkpt><trkpt lat="45.3929659862767" lon="10.64147093611369"><ele>105.0</ele><time>2026-03-29T09:01:34Z</time></trkpt><trkpt lat="45.39310922744076" lon="10.641479744643473"><ele>105.0</ele><time>2026-03-29T09:01:35Z</time></trkpt><trkpt lat="45.39325364748228" lon="10.641548957140833"><ele>104.33333333333334</ele><time>2026-03-29T09:01:36Z</time></trkpt><trkpt lat="45.39340582783647" lon="10.641649901861618"><ele>103.66666666666667</ele><time>2026-03-29T09:01:37Z</time></trkpt><trkpt lat="45.39357487591319" lon="10.641753405285373"><ele>103.0</ele><time>2026-03-29T09:01:38Z</time></trkpt><trkpt lat="45.3937585396484" lon="10.64185811725975"><ele>104.66666666666667</ele><time>2026-03-29T09:01:39Z</time></trkpt><trkpt lat="45.393940560602815" lon="10.641955847481368"><ele>106.33333333333334</ele><time>2026-03-29T09:01:40Z</time></trkpt><trkpt lat="45.394109873426856" lon="10.642046614780835"><ele>108.0</ele><time>2026-03-29T09:01:41Z</time></trkpt><trkpt lat="45.39428644059111" lon="10.642140998492767"><ele>108.0</ele><time>2026-03-29T09:01:42Z</time></trkpt><trkpt lat="45.394451942356596" lon="10.642231477848876"><ele>108.0</ele><time>2026-03-29T09:01:43Z</time></trkpt><trkpt lat="45.394631054718616" lon="10.6423321045436"><ele>108.0</ele><time>2026-03-29T09:01:44Z</time></trkpt><trkpt lat="45.39481321159381" lon="10.642428265930546"><ele>104.33333333333334</ele><time>2026-03-29T09:01:45Z</time></trkpt><trkpt lat="45.39498202112049" lon="10.642517078337018"><ele>100.66666666666667</ele><time>2026-03-29T09:01:46Z</time></trkpt><trkpt lat="45.39516320662115" lon="10.642607791816285"><ele>97.0</ele><time>2026-03-29T09:01:47Z</time></trkpt><trkpt lat="45.39532569525513" lon="10.642689206158227"><ele>97.66666666666667</ele><time>2026-03-29T09:01:48Z</time></trkpt><trkpt lat="45.39550772729881" lon="10.642771060509038"><ele>98.33333333333334</ele><time>2026-03-29T09:01:49Z</time></trkpt><trkpt lat="45.395665170751" lon="10.642850536589902"><ele>99.0</ele><time>2026-03-29T09:01:50Z</time></trkpt><trkpt lat="45.39584211860016" lon="10.64293017472759"><ele>99.0</ele><time>2026-03-29T09:01:51Z</time></trkpt><trkpt lat="45.396026054346464" lon="10.643018213536125"><ele>99.0</ele><time>2026-03-29T09:01:52Z</time></trkpt><trkpt lat="45.3962001743591" lon="10.643107941186628"><ele>99.0</ele><time>2026-03-29T09:01:53Z</time></trkpt><trkpt lat="45.39638957748414" lon="10.643196458355028"><ele>97.0</ele><time>2026-03-29T09:01:54Z</time></trkpt><trkpt lat="45.39655317282335" lon="10.643272069925944"><ele>95.0</ele><time>2026-03-29T09:01:55Z</time></trkpt><trkpt lat="45.39671363310729" lon="10.643349009526242"><ele>93.0</ele><time>2026-03-29T09:01:56Z</time></trkpt><trkpt lat="45.39685911759147" lon="10.643420539641438"><ele>93.0</ele><time>2026-03-29T09:01:57Z</time></trkpt><trkpt lat="45.397006227294526" lon="10.643487844363065"><ele>93.0</ele><time>2026-03-29T09:01:58Z</time></trkpt><trkpt lat="45.39714057503925" lon="10.643543482666672"><ele>93.0</ele><time>2026-03-29T09:01:59Z</time></trkpt><trkpt lat="45.39727411082339" lon="10.643579101294916"><ele>93.0</ele><time>2026-03-29T09:02:00Z</time></trkpt><trkpt lat="45.39739304540309" lon="10.643585017991633"><ele>92.5</ele><time>2026-03-29T09:02:01Z</time></trkpt><trkpt lat="45.39751328138514" lon="10.643548076349418"><ele>92.0</ele><time>2026-03-29T09:02:02Z</time></trkpt><trkpt lat="45.397624935934324" lon="10.643458226199531"><ele>91.5</ele><time>2026-03-29T09:02:03Z</time></trkpt><trkpt lat="45.397734007295966" lon="10.643309336726919"><ele>91.0</ele><time>2026-03-29T09:02:04Z</time></trkpt><trkpt lat="45.397842981180936" lon="10.643146492948418"><ele>91.0</ele><time>2026-03-29T09:02:05Z</time></trkpt><trkpt lat="45.39796844155872" lon="10.642975293843913"><ele>91.0</ele><time>2026-03-29T09:02:06Z</time></trkpt><trkpt lat="45.398108075335614" lon="10.642805506895835"><ele>91.0</ele><time>2026-03-29T09:02:07Z</time></trkpt><trkpt lat="45.39825185535655" lon="10.642632244570128"><ele>90.0</ele><time>2026-03-29T09:02:08Z</time></trkpt><trkpt lat="45.39837415014513" lon="10.642464209921275"><ele>89.0</ele><time>2026-03-29T09:02:09Z</time></trkpt><trkpt lat="45.39848815173265" lon="10.642294862121203"><ele>88.0</ele><time>2026-03-29T09:02:10Z</time></trkpt><trkpt lat="45.39858710874525" lon="10.642099256309843"><ele>88.33333333333333</ele><time>2026-03-29T09:02:11Z</time></trkpt><trkpt lat="45.39865948913761" lon="10.641875089739186"><ele>88.66666666666667</ele><time>2026-03-29T09:02:12Z</time></trkpt><trkpt lat="45.3987116531136" lon="10.641622091932016"><ele>89.0</ele><time>2026-03-29T09:02:13Z</time></trkpt><trkpt lat="45.39873954294116" lon="10.641393201601833"><ele>89.0</ele><time>2026-03-29T09:02:14Z</time></trkpt><trkpt lat="45.398752958891954" lon="10.641165057858876"><ele>89.0</ele><time>2026-03-29T09:02:15Z</time></trkpt><trkpt lat="45.39875948641906" lon="10.640942552486154"><ele>89.0</ele><time>2026-03-29T09:02:16Z</time></trkpt><trkpt lat="45.398751552802345" lon="10.64072377418111"><ele>89.66666666666667</ele><time>2026-03-29T09:02:17Z</time></trkpt><trkpt lat="45.39873565847923" lon="10.640503513991312"><ele>90.33333333333333</ele><time>2026-03-29T09:02:18Z</time></trkpt><trkpt lat="45.39871857865639" lon="10.640268644061688"><ele>91.0</ele><time>2026-03-29T09:02:19Z</time></trkpt><trkpt lat="45.398701914938464" lon="10.64002036496899"><ele>91.33333333333333</ele><time>2026-03-29T09:02:20Z</time></trkpt><trkpt lat="45.398688636897035" lon="10.639773350759608"><ele>91.66666666666667</ele><time>2026-03-29T09:02:21Z</time></trkpt><trkpt lat="45.398691591807854" lon="10.639513176801897"><ele>92.0</ele><time>2026-03-29T09:02:22Z</time></trkpt><trkpt lat="45.398681772392635" lon="10.639263763677992"><ele>92.0</ele><time>2026-03-29T09:02:23Z</time></trkpt><trkpt lat="45.39867144804095" lon="10.639001525171873"><ele>92.0</ele><time>2026-03-29T09:02:24Z</time></trkpt><trkpt lat="45.39864874134506" lon="10.638746918003685"><ele>92.0</ele><time>2026-03-29T09:02:25Z</time></trkpt><trkpt lat="45.39864065137489" lon="10.6385087886533"><ele>91.66666666666667</ele><time>2026-03-29T09:02:26Z</time></trkpt><trkpt lat="45.398633897585405" lon="10.638267544635871"><ele>91.33333333333333</ele><time>2026-03-29T09:02:27Z</time></trkpt><trkpt lat="45.39863169671299" lon="10.638037768577094"><ele>91.0</ele><time>2026-03-29T09:02:28Z</time></trkpt><trkpt lat="45.39862608292503" lon="10.63779893679022"><ele>90.66666666666666</ele><time>2026-03-29T09:02:29Z</time></trkpt><trkpt lat="45.39862381196183" lon="10.637576136628196"><ele>90.33333333333333</ele><time>2026-03-29T09:02:30Z</time></trkpt><trkpt lat="45.398618847675245" lon="10.637343366359387"><ele>90.0</ele><time>2026-03-29T09:02:31Z</time></trkpt><trkpt lat="45.39862767377689" lon="10.637120987830391"><ele>90.33333333333333</ele><time>2026-03-29T09:02:32Z</time></trkpt><trkpt lat="45.39865303122666" lon="10.636896980006519"><ele>90.66666666666666</ele><time>2026-03-29T09:02:33Z</time></trkpt><trkpt lat="45.39869402043942" lon="10.636665771469827"><ele>91.0</ele><time>2026-03-29T09:02:34Z</time></trkpt><trkpt lat="45.39876106065885" lon="10.636429303978856"><ele>91.0</ele><time>2026-03-29T09:02:35Z</time></trkpt><trkpt lat="45.39883668133039" lon="10.636205303086083"><ele>91.0</ele><time>2026-03-29T09:02:36Z</time></trkpt><trkpt lat="45.39891804557657" lon="10.635974477467515"><ele>91.0</ele><time>2026-03-29T09:02:37Z</time></trkpt><trkpt lat="45.39899968522046" lon="10.635773415726408"><ele>91.0</ele><time>2026-03-29T09:02:38Z</time></trkpt><trkpt lat="45.39908438013953" lon="10.635581980073484"><ele>91.0</ele><time>2026-03-29T09:02:39Z</time></trkpt><trkpt lat="45.39917079765129" lon="10.635394814340136"><ele>91.0</ele><time>2026-03-29T09:02:40Z</time></trkpt><trkpt lat="45.39925813112768" lon="10.635228872820868"><ele>91.5</ele><time>2026-03-29T09:02:41Z</time></trkpt><trkpt lat="45.39933162154953" lon="10.6350798818103"><ele>92.0</ele><time>2026-03-29T09:02:42Z</time></trkpt><trkpt lat="45.39939826908196" lon="10.634951368040404"><ele>92.5</ele><time>2026-03-29T09:02:43Z</time></trkpt><trkpt lat="45.39947371859762" lon="10.634845925759777"><ele>93.0</ele><time>2026-03-29T09:02:44Z</time></trkpt><trkpt lat="45.39957222686107" lon="10.634772115855434"><ele>92.25</ele><time>2026-03-29T09:02:45Z</time></trkpt><trkpt lat="45.39968587944015" lon="10.634730774368064"><ele>91.5</ele><time>2026-03-29T09:02:46Z</time></trkpt><trkpt lat="45.399761396482155" lon="10.63464519823377"><ele>90.75</ele><time>2026-03-29T09:02:47Z</time></trkpt><trkpt lat="45.39991858814836" lon="10.634795604650435"><ele>90.0</ele><time>2026-03-29T09:02:48Z</time></trkpt><trkpt lat="45.40003378920869" lon="10.634912856864975"><ele>90.0</ele><time>2026-03-29T09:02:49Z</time></trkpt><trkpt lat="45.400164392309584" lon="10.635042896213475"><ele>90.0</ele><time>2026-03-29T09:02:50Z</time></trkpt><trkpt lat="45.4003286547847" lon="10.635191277595942"><ele>90.0</ele><time>2026-03-29T09:02:51Z</time></trkpt><trkpt lat="45.400499519709484" lon="10.635337710407933"><ele>89.33333333333333</ele><time>2026-03-29T09:02:52Z</time></trkpt><trkpt lat="45.40067007873376" lon="10.635487622708846"><ele>88.66666666666666</ele><time>2026-03-29T09:02:53Z</time></trkpt><trkpt lat="45.4008516874334" lon="10.635648845253893"><ele>88.0</ele><time>2026-03-29T09:02:54Z</time></trkpt><trkpt lat="45.40103614949723" lon="10.635807641444922"><ele>88.0</ele><time>2026-03-29T09:02:55Z</time></trkpt><trkpt lat="45.40122252773771" lon="10.635964745039859"><ele>88.0</ele><time>2026-03-29T09:02:56Z</time></trkpt><trkpt lat="45.4014161341962" lon="10.636135696036726"><ele>88.0</ele><time>2026-03-29T09:02:57Z</time></trkpt><trkpt lat="45.401606266564244" lon="10.636295576613799"><ele>87.5</ele><time>2026-03-29T09:02:58Z</time></trkpt><trkpt lat="45.40180179380392" lon="10.636458619711554"><ele>87.0</ele><time>2026-03-29T09:02:59Z</time></trkpt><trkpt lat="45.40199505154815" lon="10.636623180296823"><ele>87.5</ele><time>2026-03-29T09:03:00Z</time></trkpt><trkpt lat="45.40218643480254" lon="10.636787638578392"><ele>88.0</ele><time>2026-03-29T09:03:01Z</time></trkpt><trkpt lat="45.40238370209641" lon="10.63695336125086"><ele>87.33333333333333</ele><time>2026-03-29T09:03:02Z</time></trkpt><trkpt lat="45.40257066017228" lon="10.63711082809996"><ele>86.66666666666667</ele><time>2026-03-29T09:03:03Z</time></trkpt><trkpt lat="45.40276369953559" lon="10.637273663345603"><ele>86.0</ele><time>2026-03-29T09:03:04Z</time></trkpt><trkpt lat="45.402950205976914" lon="10.637436260221042"><ele>87.0</ele><time>2026-03-29T09:03:05Z</time></trkpt><trkpt lat="45.40313932249334" lon="10.637599313767979"><ele>88.0</ele><time>2026-03-29T09:03:06Z</time></trkpt><trkpt lat="45.403321680108604" lon="10.637759876586236"><ele>89.0</ele><time>2026-03-29T09:03:07Z</time></trkpt><trkpt lat="45.40349815619137" lon="10.637911141878902"><ele>89.0</ele><time>2026-03-29T09:03:08Z</time></trkpt><trkpt lat="45.40368181961631" lon="10.638073846792768"><ele>89.0</ele><time>2026-03-29T09:03:09Z</time></trkpt><trkpt lat="45.403865032531655" lon="10.638230258200739"><ele>89.0</ele><time>2026-03-29T09:03:10Z</time></trkpt><trkpt lat="45.40405070647648" lon="10.638386775497585"><ele>89.33333333333334</ele><time>2026-03-29T09:03:11Z</time></trkpt><trkpt lat="45.40422507015692" lon="10.63854107856505"><ele>89.66666666666667</ele><time>2026-03-29T09:03:12Z</time></trkpt><trkpt lat="45.40440017716207" lon="10.638691598664163"><ele>90.0</ele><time>2026-03-29T09:03:13Z</time></trkpt><trkpt lat="45.40458244193715" lon="10.638847276899325"><ele>90.66666666666667</ele><time>2026-03-29T09:03:14Z</time></trkpt><trkpt lat="45.404750815443926" lon="10.63899031431707"><ele>91.33333333333334</ele><time>2026-03-29T09:03:15Z</time></trkpt><trkpt lat="45.404916519591914" lon="10.639130513255528"><ele>92.0</ele><time>2026-03-29T09:03:16Z</time></trkpt><trkpt lat="45.405075360405064" lon="10.639265775112532"><ele>92.0</ele><time>2026-03-29T09:03:17Z</time></trkpt><trkpt lat="45.40521028789848" lon="10.639375514523532"><ele>92.0</ele><time>2026-03-29T09:03:18Z</time></trkpt><trkpt lat="45.40532296809123" lon="10.639458983617114"><ele>92.0</ele><time>2026-03-29T09:03:19Z</time></trkpt><trkpt lat="45.40540715551131" lon="10.639515415940423"><ele>92.0</ele><time>2026-03-29T09:03:20Z</time></trkpt><trkpt lat="45.40547453802823" lon="10.639558256497278"><ele>92.0</ele><time>2026-03-29T09:03:21Z</time></trkpt><trkpt lat="45.405560667229885" lon="10.639625463374822"><ele>91.19999999999999</ele><time>2026-03-29T09:03:23Z</time></trkpt><trkpt lat="45.40551541915449" lon="10.639808014087208"><ele>90.4</ele><time>2026-03-29T09:03:26Z</time></trkpt><trkpt lat="45.40546321638018" lon="10.639887922061558"><ele>89.6</ele><time>2026-03-29T09:03:27Z</time></trkpt><trkpt lat="45.40542546870237" lon="10.639968162194274"><ele>88.80000000000001</ele><time>2026-03-29T09:03:28Z</time></trkpt><trkpt lat="45.405390753984776" lon="10.640102175911737"><ele>88.0</ele><time>2026-03-29T09:03:30Z</time></trkpt><trkpt lat="45.40544383629419" lon="10.640228992423966"><ele>88.0</ele><time>2026-03-29T09:03:32Z</time></trkpt><trkpt lat="45.40550582108324" lon="10.640287270803016"><ele>88.0</ele><time>2026-03-29T09:03:33Z</time></trkpt><trkpt lat="45.405595565874094" lon="10.640366945607958"><ele>88.0</ele><time>2026-03-29T09:03:34Z</time></trkpt><trkpt lat="45.40570245064775" lon="10.640436659922814"><ele>88.0</ele><time>2026-03-29T09:03:35Z</time></trkpt><trkpt lat="45.40582258609586" lon="10.6405015412409"><ele>88.0</ele><time>2026-03-29T09:03:36Z</time></trkpt><trkpt lat="45.40595453385634" lon="10.640558672489696"><ele>87.75</ele><time>2026-03-29T09:03:37Z</time></trkpt><trkpt lat="45.406087231832494" lon="10.64062447840106"><ele>87.5</ele><time>2026-03-29T09:03:38Z</time></trkpt><trkpt lat="45.40619898969791" lon="10.640700053523341"><ele>87.25</ele><time>2026-03-29T09:03:39Z</time></trkpt><trkpt lat="45.40630291921448" lon="10.640779244403673"><ele>87.0</ele><time>2026-03-29T09:03:40Z</time></trkpt><trkpt lat="45.406417457791186" lon="10.640855457276471"><ele>87.0</ele><time>2026-03-29T09:03:41Z</time></trkpt><trkpt lat="45.406525547272686" lon="10.640911748815185"><ele>87.0</ele><time>2026-03-29T09:03:42Z</time></trkpt><trkpt lat="45.40665176869798" lon="10.640937566793953"><ele>87.0</ele><time>2026-03-29T09:03:43Z</time></trkpt><trkpt lat="45.406786554666375" lon="10.640959468801272"><ele>87.0</ele><time>2026-03-29T09:03:44Z</time></trkpt><trkpt lat="45.40690903728298" lon="10.640990215118864"><ele>87.0</ele><time>2026-03-29T09:03:45Z</time></trkpt><trkpt lat="45.407023411652716" lon="10.641000648085996"><ele>87.0</ele><time>2026-03-29T09:03:46Z</time></trkpt><trkpt lat="45.40714551502317" lon="10.640997883845957"><ele>87.0</ele><time>2026-03-29T09:03:47Z</time></trkpt><trkpt lat="45.407282254019144" lon="10.640976284794442"><ele>87.0</ele><time>2026-03-29T09:03:48Z</time></trkpt><trkpt lat="45.40740658877013" lon="10.640955996580068"><ele>87.19999999999999</ele><time>2026-03-29T09:03:49Z</time></trkpt><trkpt lat="45.40750955012111" lon="10.640963988761762"><ele>87.4</ele><time>2026-03-29T09:03:50Z</time></trkpt><trkpt lat="45.40761452729172" lon="10.640984481442363"><ele>87.6</ele><time>2026-03-29T09:03:51Z</time></trkpt><trkpt lat="45.40772193015484" lon="10.6410091398012"><ele>87.80000000000001</ele><time>2026-03-29T09:03:52Z</time></trkpt><trkpt lat="45.40781584897598" lon="10.64103103426888"><ele>88.0</ele><time>2026-03-29T09:03:53Z</time></trkpt><trkpt lat="45.407908242297616" lon="10.641060618568773"><ele>88.4</ele><time>2026-03-29T09:03:54Z</time></trkpt><trkpt lat="45.40799571598577" lon="10.641098223835968"><ele>88.80000000000001</ele><time>2026-03-29T09:03:55Z</time></trkpt><trkpt lat="45.408065089653086" lon="10.641165409988458"><ele>89.2</ele><time>2026-03-29T09:03:56Z</time></trkpt><trkpt lat="45.40819248150556" lon="10.641153154275427"><ele>89.6</ele><time>2026-03-29T09:03:57Z</time></trkpt><trkpt lat="45.40828170661777" lon="10.641238488310911"><ele>90.0</ele><time>2026-03-29T09:03:58Z</time></trkpt><trkpt lat="45.40838260832761" lon="10.641336527989557"><ele>89.16666666666667</ele><time>2026-03-29T09:03:59Z</time></trkpt><trkpt lat="45.40846233046543" lon="10.641413156779544"><ele>88.33333333333333</ele><time>2026-03-29T09:04:00Z</time></trkpt><trkpt lat="45.40853391184023" lon="10.641481688205543"><ele>87.5</ele><time>2026-03-29T09:04:01Z</time></trkpt><trkpt lat="45.40860212767742" lon="10.641547328622506"><ele>86.66666666666666</ele><time>2026-03-29T09:04:02Z</time></trkpt><trkpt lat="45.4086683464038" lon="10.641624643350589"><ele>85.83333333333333</ele><time>2026-03-29T09:04:03Z</time></trkpt><trkpt lat="45.40871628035601" lon="10.641690828375559"><ele>85.0</ele><time>2026-03-29T09:04:04Z</time></trkpt><trkpt lat="45.40877235284296" lon="10.64177418784764"><ele>85.0</ele><time>2026-03-29T09:04:05Z</time></trkpt><trkpt lat="45.40853121600831" lon="10.642541418665473"><ele>85.0</ele><time>2026-03-29T09:04:06Z</time></trkpt><trkpt lat="45.40855175239354" lon="10.64277721216075"><ele>85.0</ele><time>2026-03-29T09:04:07Z</time></trkpt><trkpt lat="45.40856847953707" lon="10.64298734141554"><ele>85.0</ele><time>2026-03-29T09:04:08Z</time></trkpt><trkpt lat="45.408600023778" lon="10.643172830306083"><ele>85.0</ele><time>2026-03-29T09:04:09Z</time></trkpt><trkpt lat="45.40864279626425" lon="10.643355333440526"><ele>85.66666666666666</ele><time>2026-03-29T09:04:10Z</time></trkpt><trkpt lat="45.40868532146038" lon="10.64354609323027"><ele>86.33333333333333</ele><time>2026-03-29T09:04:11Z</time></trkpt><trkpt lat="45.408730922803784" lon="10.643756589094076"><ele>87.0</ele><time>2026-03-29T09:04:12Z</time></trkpt><trkpt lat="45.40878403019779" lon="10.643964083773435"><ele>87.0</ele><time>2026-03-29T09:04:13Z</time></trkpt><trkpt lat="45.4088384652916" lon="10.644155111810019"><ele>87.0</ele><time>2026-03-29T09:04:14Z</time></trkpt><trkpt lat="45.40888210380374" lon="10.644337500390364"><ele>87.0</ele><time>2026-03-29T09:04:15Z</time></trkpt><trkpt lat="45.408913815891594" lon="10.644491625675377"><ele>87.0</ele><time>2026-03-29T09:04:16Z</time></trkpt><trkpt lat="45.40894033249081" lon="10.644649641744518"><ele>87.0</ele><time>2026-03-29T09:04:17Z</time></trkpt><trkpt lat="45.40896797615472" lon="10.644778127014636"><ele>87.0</ele><time>2026-03-29T09:04:18Z</time></trkpt><trkpt lat="45.409001712130134" lon="10.644886701229627"><ele>87.0</ele><time>2026-03-29T09:04:19Z</time></trkpt><trkpt lat="45.40904420430303" lon="10.644986586360666"><ele>87.0</ele><time>2026-03-29T09:04:20Z</time></trkpt><trkpt lat="45.40910252634204" lon="10.645070350253174"><ele>87.0</ele><time>2026-03-29T09:04:21Z</time></trkpt><trkpt lat="45.40917614549481" lon="10.645180122941396"><ele>87.0</ele><time>2026-03-29T09:04:22Z</time></trkpt><trkpt lat="45.40927401482719" lon="10.645285787442749"><ele>87.0</ele><time>2026-03-29T09:04:23Z</time></trkpt><trkpt lat="45.4093793796855" lon="10.64539536605394"><ele>87.0</ele><time>2026-03-29T09:04:24Z</time></trkpt><trkpt lat="45.40947883232998" lon="10.645514093590984"><ele>87.0</ele><time>2026-03-29T09:04:25Z</time></trkpt><trkpt lat="45.40955894700925" lon="10.645618947106401"><ele>87.0</ele><time>2026-03-29T09:04:26Z</time></trkpt><trkpt lat="45.40964833966672" lon="10.645729378297801"><ele>87.19999999999999</ele><time>2026-03-29T09:04:27Z</time></trkpt><trkpt lat="45.409735742339244" lon="10.645819741299446"><ele>87.4</ele><time>2026-03-29T09:04:28Z</time></trkpt><trkpt lat="45.409827583856966" lon="10.64588740827604"><ele>87.6</ele><time>2026-03-29T09:04:29Z</time></trkpt><trkpt lat="45.40989941078407" lon="10.64597070007851"><ele>87.80000000000001</ele><time>2026-03-29T09:04:30Z</time></trkpt><trkpt lat="45.40997211665093" lon="10.646099301352514"><ele>88.0</ele><time>2026-03-29T09:04:31Z</time></trkpt><trkpt lat="45.41003444146486" lon="10.646272331148284"><ele>88.25</ele><time>2026-03-29T09:04:32Z</time></trkpt><trkpt lat="45.410116907073586" lon="10.64644402445502"><ele>88.5</ele><time>2026-03-29T09:04:33Z</time></trkpt><trkpt lat="45.41021456331974" lon="10.64660295964113"><ele>88.75</ele><time>2026-03-29T09:04:34Z</time></trkpt><trkpt lat="45.41030481356006" lon="10.646737747349436"><ele>89.0</ele><time>2026-03-29T09:04:35Z</time></trkpt><trkpt lat="45.41038872570823" lon="10.646863193987842"><ele>88.5</ele><time>2026-03-29T09:04:36Z</time></trkpt><trkpt lat="45.41047980816457" lon="10.646986556559485"><ele>88.0</ele><time>2026-03-29T09:04:37Z</time></trkpt><trkpt lat="45.41057758976397" lon="10.647102335676909"><ele>87.5</ele><time>2026-03-29T09:04:38Z</time></trkpt><trkpt lat="45.41066829090644" lon="10.647198570236412"><ele>87.0</ele><time>2026-03-29T09:04:39Z</time></trkpt><trkpt lat="45.41073671279879" lon="10.64733084100762"><ele>86.75</ele><time>2026-03-29T09:04:40Z</time></trkpt><trkpt lat="45.41077968616843" lon="10.647493729291305"><ele>86.5</ele><time>2026-03-29T09:04:41Z</time></trkpt><trkpt lat="45.41081733410935" lon="10.647686925160537"><ele>86.25</ele><time>2026-03-29T09:04:42Z</time></trkpt><trkpt lat="45.41085388361786" lon="10.647872606226617"><ele>86.0</ele><time>2026-03-29T09:04:43Z</time></trkpt><trkpt lat="45.41088241473881" lon="10.648011363065567"><ele>86.33333333333334</ele><time>2026-03-29T09:04:44Z</time></trkpt><trkpt lat="45.410899032638625" lon="10.648130048353574"><ele>86.66666666666667</ele><time>2026-03-29T09:04:45Z</time></trkpt><trkpt lat="45.41091740967318" lon="10.648222347836152"><ele>87.0</ele><time>2026-03-29T09:04:46Z</time></trkpt><trkpt lat="45.41100059870974" lon="10.648304890958098"><ele>87.33333333333333</ele><time>2026-03-29T09:04:48Z</time></trkpt><trkpt lat="45.411075356261705" lon="10.648283023815063"><ele>87.66666666666666</ele><time>2026-03-29T09:04:49Z</time></trkpt><trkpt lat="45.4111692373671" lon="10.648250331372234"><ele>88.0</ele><time>2026-03-29T09:04:50Z</time></trkpt><trkpt lat="45.411297436795856" lon="10.648222403669628"><ele>89.25</ele><time>2026-03-29T09:04:51Z</time></trkpt><trkpt lat="45.4114358097718" lon="10.648194788409185"><ele>90.5</ele><time>2026-03-29T09:04:52Z</time></trkpt><trkpt lat="45.41157749162654" lon="10.648175388466054"><ele>91.75</ele><time>2026-03-29T09:04:53Z</time></trkpt><trkpt lat="45.41168765935221" lon="10.648153762596031"><ele>93.0</ele><time>2026-03-29T09:04:54Z</time></trkpt><trkpt lat="45.41177673734766" lon="10.648132655256294"><ele>93.0</ele><time>2026-03-29T09:04:55Z</time></trkpt><trkpt lat="45.411839872631" lon="10.648122056228791"><ele>93.0</ele><time>2026-03-29T09:04:56Z</time></trkpt><trkpt lat="45.41190990673113" lon="10.648087475650776"><ele>93.0</ele><time>2026-03-29T09:04:58Z</time></trkpt><trkpt lat="45.41192669541171" lon="10.647873298484795"><ele>93.0</ele><time>2026-03-29T09:05:00Z</time></trkpt><trkpt lat="45.411923187278" lon="10.647707482757317"><ele>93.0</ele><time>2026-03-29T09:05:01Z</time></trkpt><trkpt lat="45.41192172523478" lon="10.64750481248455"><ele>93.0</ele><time>2026-03-29T09:05:02Z</time></trkpt><trkpt lat="45.41191788617261" lon="10.647261190619927"><ele>93.0</ele><time>2026-03-29T09:05:03Z</time></trkpt><trkpt lat="45.41191224012363" lon="10.64700797990664"><ele>93.0</ele><time>2026-03-29T09:05:04Z</time></trkpt><trkpt lat="45.41190227461616" lon="10.646742270606644"><ele>93.0</ele><time>2026-03-29T09:05:05Z</time></trkpt><trkpt lat="45.41187599104253" lon="10.646446548655925"><ele>93.0</ele><time>2026-03-29T09:05:06Z</time></trkpt><trkpt lat="45.41183389597986" lon="10.646155271645807"><ele>93.0</ele><time>2026-03-29T09:05:07Z</time></trkpt><trkpt lat="45.4117766727834" lon="10.645846644729748"><ele>94.5</ele><time>2026-03-29T09:05:08Z</time></trkpt><trkpt lat="45.41171199321369" lon="10.645523943129195"><ele>96.0</ele><time>2026-03-29T09:05:09Z</time></trkpt><trkpt lat="45.411647584414084" lon="10.645204326782524"><ele>96.5</ele><time>2026-03-29T09:05:10Z</time></trkpt><trkpt lat="45.41158487825759" lon="10.64487117448376"><ele>97.0</ele><time>2026-03-29T09:05:11Z</time></trkpt><trkpt lat="45.41151970323293" lon="10.644544939610988"><ele>98.0</ele><time>2026-03-29T09:05:12Z</time></trkpt><trkpt lat="45.41145290302724" lon="10.644218881036364"><ele>99.0</ele><time>2026-03-29T09:05:13Z</time></trkpt><trkpt lat="45.411385160661766" lon="10.643899518215003"><ele>97.5</ele><time>2026-03-29T09:05:14Z</time></trkpt><trkpt lat="45.41131681457283" lon="10.643570944879247"><ele>96.0</ele><time>2026-03-29T09:05:15Z</time></trkpt><trkpt lat="45.41125310416387" lon="10.643257758366163"><ele>96.0</ele><time>2026-03-29T09:05:16Z</time></trkpt><trkpt lat="45.411192144082705" lon="10.642941030468378"><ele>96.0</ele><time>2026-03-29T09:05:17Z</time></trkpt><trkpt lat="45.4111212475499" lon="10.642619361352828"><ele>95.66666666666667</ele><time>2026-03-29T09:05:18Z</time></trkpt><trkpt lat="45.4110595162422" lon="10.642340013758272"><ele>95.33333333333334</ele><time>2026-03-29T09:05:19Z</time></trkpt><trkpt lat="45.411007618944225" lon="10.642078584793929"><ele>95.0</ele><time>2026-03-29T09:05:20Z</time></trkpt><trkpt lat="45.41096762347373" lon="10.64187014870037"><ele>96.2</ele><time>2026-03-29T09:05:21Z</time></trkpt><trkpt lat="45.41092412595691" lon="10.641682262985917"><ele>97.4</ele><time>2026-03-29T09:05:22Z</time></trkpt><trkpt lat="45.41088336505813" lon="10.641528692245203"><ele>98.6</ele><time>2026-03-29T09:05:23Z</time></trkpt><trkpt lat="45.41085787635098" lon="10.641394072984312"><ele>99.8</ele><time>2026-03-29T09:05:24Z</time></trkpt><trkpt lat="45.410858388647625" lon="10.641280013890288"><ele>101.0</ele><time>2026-03-29T09:05:25Z</time></trkpt><trkpt lat="45.41089137964489" lon="10.641178982004442"><ele>101.19999999999999</ele><time>2026-03-29T09:05:26Z</time></trkpt><trkpt lat="45.41093899289826" lon="10.641062969947619"><ele>101.39999999999999</ele><time>2026-03-29T09:05:27Z</time></trkpt><trkpt lat="45.41095621005614" lon="10.640937161814083"><ele>101.6</ele><time>2026-03-29T09:05:28Z</time></trkpt><trkpt lat="45.410924995175286" lon="10.640828127736455"><ele>101.8</ele><time>2026-03-29T09:05:29Z</time></trkpt><trkpt lat="45.41084562389157" lon="10.640738356172387"><ele>102.0</ele><time>2026-03-29T09:05:30Z</time></trkpt><trkpt lat="45.41072829416446" lon="10.64069886162476"><ele>102.0</ele><time>2026-03-29T09:05:31Z</time></trkpt><trkpt lat="45.41061170445903" lon="10.64059537321059"><ele>102.0</ele><time>2026-03-29T09:05:32Z</time></trkpt><trkpt lat="45.41050307927004" lon="10.640522309657742"><ele>102.0</ele><time>2026-03-29T09:05:33Z</time></trkpt><trkpt lat="45.41048352605603" lon="10.640259661754934"><ele>102.0</ele><time>2026-03-29T09:05:34Z</time></trkpt><trkpt lat="45.410456054994405" lon="10.6400314861025"><ele>101.66666666666666</ele><time>2026-03-29T09:05:35Z</time></trkpt><trkpt lat="45.4104340994669" lon="10.639780572304845"><ele>101.33333333333333</ele><time>2026-03-29T09:05:36Z</time></trkpt><trkpt lat="45.41039827761531" lon="10.639515237050324"><ele>101.0</ele><time>2026-03-29T09:05:37Z</time></trkpt><trkpt lat="45.41034442660161" lon="10.639234456646898"><ele>101.66666666666666</ele><time>2026-03-29T09:05:38Z</time></trkpt><trkpt lat="45.41026497828057" lon="10.638958239114158"><ele>102.33333333333334</ele><time>2026-03-29T09:05:39Z</time></trkpt><trkpt lat="45.41016617116037" lon="10.63867312412444"><ele>103.0</ele><time>2026-03-29T09:05:40Z</time></trkpt><trkpt lat="45.4100502139429" lon="10.638385245016043"><ele>103.0</ele><time>2026-03-29T09:05:41Z</time></trkpt><trkpt lat="45.409934794712136" lon="10.638094127342413"><ele>103.0</ele><time>2026-03-29T09:05:42Z</time></trkpt><trkpt lat="45.40982412533463" lon="10.63781533538137"><ele>103.0</ele><time>2026-03-29T09:05:43Z</time></trkpt><trkpt lat="45.40971650401663" lon="10.637542452040776"><ele>103.0</ele><time>2026-03-29T09:05:44Z</time></trkpt><trkpt lat="45.40961146138413" lon="10.637277978291012"><ele>103.0</ele><time>2026-03-29T09:05:45Z</time></trkpt><trkpt lat="45.40950689556653" lon="10.637017300863741"><ele>104.66666666666667</ele><time>2026-03-29T09:05:46Z</time></trkpt><trkpt lat="45.40939670691916" lon="10.63677425133863"><ele>106.33333333333334</ele><time>2026-03-29T09:05:47Z</time></trkpt><trkpt lat="45.40927476262597" lon="10.63653919445689"><ele>108.0</ele><time>2026-03-29T09:05:48Z</time></trkpt><trkpt lat="45.409152792445866" lon="10.636312706693564"><ele>107.66666666666666</ele><time>2026-03-29T09:05:49Z</time></trkpt><trkpt lat="45.40903546496529" lon="10.636096241240246"><ele>107.33333333333333</ele><time>2026-03-29T09:05:50Z</time></trkpt><trkpt lat="45.40891883929545" lon="10.635886768791671"><ele>107.0</ele><time>2026-03-29T09:05:51Z</time></trkpt><trkpt lat="45.40879422187591" lon="10.635671376736097"><ele>107.0</ele><time>2026-03-29T09:05:52Z</time></trkpt><trkpt lat="45.4086668864215" lon="10.635468635171367"><ele>107.0</ele><time>2026-03-29T09:05:53Z</time></trkpt><trkpt lat="45.408533321264585" lon="10.635279529171768"><ele>107.0</ele><time>2026-03-29T09:05:54Z</time></trkpt><trkpt lat="45.4083904803696" lon="10.635114085214546"><ele>108.0</ele><time>2026-03-29T09:05:55Z</time></trkpt><trkpt lat="45.408247967025424" lon="10.634969734316563"><ele>109.0</ele><time>2026-03-29T09:05:56Z</time></trkpt><trkpt lat="45.4081188393751" lon="10.63483559794081"><ele>110.0</ele><time>2026-03-29T09:05:57Z</time></trkpt><trkpt lat="45.4079958899577" lon="10.63469785587685"><ele>110.0</ele><time>2026-03-29T09:05:58Z</time></trkpt><trkpt lat="45.40789038966427" lon="10.63459832015238"><ele>110.0</ele><time>2026-03-29T09:05:59Z</time></trkpt><trkpt lat="45.40779966960614" lon="10.634511042431852"><ele>110.0</ele><time>2026-03-29T09:06:00Z</time></trkpt><trkpt lat="45.40772870389146" lon="10.63442914031255"><ele>110.0</ele><time>2026-03-29T09:06:01Z</time></trkpt><trkpt lat="45.407705320415346" lon="10.634330390750728"><ele>110.0</ele><time>2026-03-29T09:06:02Z</time></trkpt><trkpt lat="45.407721465157664" lon="10.634218606497955"><ele>110.0</ele><time>2026-03-29T09:06:03Z</time></trkpt><trkpt lat="45.40777064760058" lon="10.63412254962101"><ele>110.0</ele><time>2026-03-29T09:06:04Z</time></trkpt><trkpt lat="45.4078537047468" lon="10.634040883194041"><ele>110.0</ele><time>2026-03-29T09:06:05Z</time></trkpt><trkpt lat="45.40797586240168" lon="10.634020757925576"><ele>110.0</ele><time>2026-03-29T09:06:06Z</time></trkpt><trkpt lat="45.40812417774806" lon="10.633934807267906"><ele>110.33333333333333</ele><time>2026-03-29T09:06:07Z</time></trkpt><trkpt lat="45.40828605363364" lon="10.633874373168043"><ele>110.66666666666666</ele><time>2026-03-29T09:06:08Z</time></trkpt><trkpt lat="45.4084457727628" lon="10.633795158387802"><ele>111.0</ele><time>2026-03-29T09:06:09Z</time></trkpt><trkpt lat="45.40861442025798" lon="10.63367939285767"><ele>111.66666666666666</ele><time>2026-03-29T09:06:10Z</time></trkpt><trkpt lat="45.40876764574732" lon="10.633551305998349"><ele>112.33333333333333</ele><time>2026-03-29T09:06:11Z</time></trkpt><trkpt lat="45.40891003401897" lon="10.633422845731534"><ele>113.0</ele><time>2026-03-29T09:06:12Z</time></trkpt><trkpt lat="45.40904153246521" lon="10.633298056249599"><ele>113.25</ele><time>2026-03-29T09:06:13Z</time></trkpt><trkpt lat="45.40917048743982" lon="10.633178734341621"><ele>113.5</ele><time>2026-03-29T09:06:14Z</time></trkpt><trkpt lat="45.40929123687847" lon="10.633066152795926"><ele>113.75</ele><time>2026-03-29T09:06:15Z</time></trkpt><trkpt lat="45.40941152565747" lon="10.63294457444644"><ele>114.0</ele><time>2026-03-29T09:06:16Z</time></trkpt><trkpt lat="45.409525724278744" lon="10.63282511873231"><ele>113.25</ele><time>2026-03-29T09:06:17Z</time></trkpt><trkpt lat="45.40963978239623" lon="10.632695301565796"><ele>112.5</ele><time>2026-03-29T09:06:18Z</time></trkpt><trkpt lat="45.40975281094194" lon="10.63255422435438"><ele>111.75</ele><time>2026-03-29T09:06:19Z</time></trkpt><trkpt lat="45.409854489220386" lon="10.632406276534391"><ele>111.0</ele><time>2026-03-29T09:06:20Z</time></trkpt><trkpt lat="45.40996062999868" lon="10.632254709514315"><ele>111.0</ele><time>2026-03-29T09:06:21Z</time></trkpt><trkpt lat="45.41009505631808" lon="10.632118827651508"><ele>111.0</ele><time>2026-03-29T09:06:22Z</time></trkpt><trkpt lat="45.410245894978814" lon="10.632017966596827"><ele>111.0</ele><time>2026-03-29T09:06:23Z</time></trkpt><trkpt lat="45.41039035650617" lon="10.631927995929413"><ele>109.5</ele><time>2026-03-29T09:06:24Z</time></trkpt><trkpt lat="45.410525863194195" lon="10.631854699480368"><ele>108.0</ele><time>2026-03-29T09:06:25Z</time></trkpt><trkpt lat="45.41063869584021" lon="10.631805062163558"><ele>106.5</ele><time>2026-03-29T09:06:26Z</time></trkpt><trkpt lat="45.41073843347969" lon="10.631765044900586"><ele>105.0</ele><time>2026-03-29T09:06:27Z</time></trkpt><trkpt lat="45.410824182156624" lon="10.631747537710963"><ele>105.0</ele><time>2026-03-29T09:06:28Z</time></trkpt><trkpt lat="45.41090579587931" lon="10.631739535108661"><ele>105.0</ele><time>2026-03-29T09:06:29Z</time></trkpt><trkpt lat="45.41098765298949" lon="10.631770204281949"><ele>105.0</ele><time>2026-03-29T09:06:30Z</time></trkpt><trkpt lat="45.41106141829893" lon="10.631843064092475"><ele>105.0</ele><time>2026-03-29T09:06:31Z</time></trkpt><trkpt lat="45.411132290273216" lon="10.631904304100534"><ele>105.0</ele><time>2026-03-29T09:06:32Z</time></trkpt><trkpt lat="45.41120831846194" lon="10.631901474761824"><ele>105.0</ele><time>2026-03-29T09:06:33Z</time></trkpt><trkpt lat="45.411281583196256" lon="10.631852568735479"><ele>104.8</ele><time>2026-03-29T09:06:34Z</time></trkpt><trkpt lat="45.41133157092968" lon="10.631766703524637"><ele>104.6</ele><time>2026-03-29T09:06:35Z</time></trkpt><trkpt lat="45.411355780416265" lon="10.631643815661048"><ele>104.4</ele><time>2026-03-29T09:06:36Z</time></trkpt><trkpt lat="45.41135525579883" lon="10.63149040770469"><ele>104.2</ele><time>2026-03-29T09:06:37Z</time></trkpt><trkpt lat="45.41134006802665" lon="10.631298637414348"><ele>104.0</ele><time>2026-03-29T09:06:38Z</time></trkpt><trkpt lat="45.41133085483051" lon="10.631057636737502"><ele>102.33333333333333</ele><time>2026-03-29T09:06:39Z</time></trkpt><trkpt lat="45.41133606936097" lon="10.630817208018506"><ele>100.66666666666666</ele><time>2026-03-29T09:06:40Z</time></trkpt><trkpt lat="45.41134518894495" lon="10.63056112234009"><ele>99.0</ele><time>2026-03-29T09:06:41Z</time></trkpt><trkpt lat="45.411352158668436" lon="10.630277814029855"><ele>99.0</ele><time>2026-03-29T09:06:42Z</time></trkpt><trkpt lat="45.41135403164811" lon="10.629987256427889"><ele>99.0</ele><time>2026-03-29T09:06:43Z</time></trkpt><trkpt lat="45.41135788192501" lon="10.629696375923888"><ele>99.0</ele><time>2026-03-29T09:06:44Z</time></trkpt><trkpt lat="45.41136281312278" lon="10.629427643639193"><ele>99.0</ele><time>2026-03-29T09:06:45Z</time></trkpt><trkpt lat="45.41136894496757" lon="10.629163898151475"><ele>99.0</ele><time>2026-03-29T09:06:46Z</time></trkpt><trkpt lat="45.411374120980966" lon="10.628886586708942"><ele>99.0</ele><time>2026-03-29T09:06:47Z</time></trkpt><trkpt lat="45.411380224327864" lon="10.628615639162799"><ele>99.33333333333334</ele><time>2026-03-29T09:06:48Z</time></trkpt><trkpt lat="45.411381367876125" lon="10.628350798851882"><ele>99.66666666666667</ele><time>2026-03-29T09:06:49Z</time></trkpt><trkpt lat="45.411375430057404" lon="10.628094772808582"><ele>100.0</ele><time>2026-03-29T09:06:50Z</time></trkpt><trkpt lat="45.41136022362428" lon="10.627865028460095"><ele>100.33333333333334</ele><time>2026-03-29T09:06:51Z</time></trkpt><trkpt lat="45.41133201055269" lon="10.627645602787142"><ele>100.66666666666666</ele><time>2026-03-29T09:06:52Z</time></trkpt><trkpt lat="45.41128953379546" lon="10.627442751036002"><ele>101.0</ele><time>2026-03-29T09:06:53Z</time></trkpt><trkpt lat="45.41123663379016" lon="10.627236412246175"><ele>101.0</ele><time>2026-03-29T09:06:54Z</time></trkpt><trkpt lat="45.4111789449606" lon="10.627034603135987"><ele>101.0</ele><time>2026-03-29T09:06:55Z</time></trkpt><trkpt lat="45.41111834410148" lon="10.626854567441361"><ele>101.0</ele><time>2026-03-29T09:06:56Z</time></trkpt><trkpt lat="45.41104872262765" lon="10.626687053365256"><ele>101.0</ele><time>2026-03-29T09:06:57Z</time></trkpt><trkpt lat="45.41097320525753" lon="10.62652724860631"><ele>101.25</ele><time>2026-03-29T09:06:58Z</time></trkpt><trkpt lat="45.41090488198131" lon="10.626388076237555"><ele>101.5</ele><time>2026-03-29T09:06:59Z</time></trkpt><trkpt lat="45.41084085148975" lon="10.626264658116861"><ele>101.75</ele><time>2026-03-29T09:07:00Z</time></trkpt><trkpt lat="45.410767740446445" lon="10.626141657076106"><ele>102.0</ele><time>2026-03-29T09:07:01Z</time></trkpt><trkpt lat="45.41069156453687" lon="10.626010258453904"><ele>101.16666666666667</ele><time>2026-03-29T09:07:02Z</time></trkpt><trkpt lat="45.410613086401824" lon="10.625878946058815"><ele>100.33333333333334</ele><time>2026-03-29T09:07:03Z</time></trkpt><trkpt lat="45.41055188752357" lon="10.62577476641381"><ele>99.5</ele><time>2026-03-29T09:07:04Z</time></trkpt><trkpt lat="45.4105076535501" lon="10.625692641460965"><ele>98.66666666666667</ele><time>2026-03-29T09:07:05Z</time></trkpt><trkpt lat="45.410456561385566" lon="10.625601098865332"><ele>97.83333333333334</ele><time>2026-03-29T09:07:07Z</time></trkpt><trkpt lat="45.41040898905953" lon="10.625536124921345"><ele>97.0</ele><time>2026-03-29T09:07:10Z</time></trkpt><trkpt lat="45.41033738770294" lon="10.625504138577421"><ele>97.0</ele><time>2026-03-29T09:07:13Z</time></trkpt><trkpt lat="45.41021462932236" lon="10.625610477679887"><ele>97.0</ele><time>2026-03-29T09:07:15Z</time></trkpt><trkpt lat="45.41013599956036" lon="10.625712944840886"><ele>97.0</ele><time>2026-03-29T09:07:16Z</time></trkpt><trkpt lat="45.41003932133852" lon="10.625826730490243"><ele>97.0</ele><time>2026-03-29T09:07:17Z</time></trkpt><trkpt lat="45.40991805468667" lon="10.625943690531662"><ele>97.0</ele><time>2026-03-29T09:07:18Z</time></trkpt><trkpt lat="45.40981365982153" lon="10.62604684284143"><ele>97.0</ele><time>2026-03-29T09:07:19Z</time></trkpt><trkpt lat="45.40965831281406" lon="10.626167314195728"><ele>97.0</ele><time>2026-03-29T09:07:20Z</time></trkpt><trkpt lat="45.40950732989986" lon="10.6262945146966"><ele>96.33333333333334</ele><time>2026-03-29T09:07:21Z</time></trkpt><trkpt lat="45.40936291835663" lon="10.626417783716258"><ele>95.66666666666667</ele><time>2026-03-29T09:07:22Z</time></trkpt><trkpt lat="45.40921973530542" lon="10.62653459521934"><ele>95.0</ele><time>2026-03-29T09:07:23Z</time></trkpt><trkpt lat="45.409090204286585" lon="10.626638545442365"><ele>95.0</ele><time>2026-03-29T09:07:24Z</time></trkpt><trkpt lat="45.408968670476064" lon="10.626732271418852"><ele>95.0</ele><time>2026-03-29T09:07:25Z</time></trkpt><trkpt lat="45.40884208718687" lon="10.62680909454253"><ele>95.0</ele><time>2026-03-29T09:07:26Z</time></trkpt><trkpt lat="45.408736738423364" lon="10.626892776765112"><ele>95.0</ele><time>2026-03-29T09:07:27Z</time></trkpt><trkpt lat="45.408634232793055" lon="10.62697326325318"><ele>96.25</ele><time>2026-03-29T09:07:28Z</time></trkpt><trkpt lat="45.408530806769626" lon="10.627052078202047"><ele>97.5</ele><time>2026-03-29T09:07:29Z</time></trkpt><trkpt lat="45.40842380322645" lon="10.62713087772342"><ele>98.75</ele><time>2026-03-29T09:07:30Z</time></trkpt><trkpt lat="45.4083204695095" lon="10.627191012662816"><ele>100.0</ele><time>2026-03-29T09:07:31Z</time></trkpt><trkpt lat="45.40821599455818" lon="10.627258142361358"><ele>100.0</ele><time>2026-03-29T09:07:32Z</time></trkpt><trkpt lat="45.408092515540396" lon="10.627293357772102"><ele>100.0</ele><time>2026-03-29T09:07:33Z</time></trkpt><trkpt lat="45.407963402921794" lon="10.627331667351855"><ele>100.0</ele><time>2026-03-29T09:07:34Z</time></trkpt><trkpt lat="45.40784994327437" lon="10.627365927179914"><ele>100.0</ele><time>2026-03-29T09:07:35Z</time></trkpt><trkpt lat="45.40774806275486" lon="10.62740804536868"><ele>100.16666666666667</ele><time>2026-03-29T09:07:36Z</time></trkpt><trkpt lat="45.40766854649611" lon="10.627471515308205"><ele>100.33333333333334</ele><time>2026-03-29T09:07:37Z</time></trkpt><trkpt lat="45.40759858758593" lon="10.627534937014065"><ele>100.5</ele><time>2026-03-29T09:07:38Z</time></trkpt><trkpt lat="45.40752244786319" lon="10.627567431831977"><ele>100.66666666666666</ele><time>2026-03-29T09:07:39Z</time></trkpt><trkpt lat="45.40742717191874" lon="10.627570465535875"><ele>100.83333333333333</ele><time>2026-03-29T09:07:40Z</time></trkpt><trkpt lat="45.40732852626401" lon="10.627598380805846"><ele>101.0</ele><time>2026-03-29T09:07:41Z</time></trkpt><trkpt lat="45.4072289445959" lon="10.627671826156966"><ele>100.75</ele><time>2026-03-29T09:07:42Z</time></trkpt><trkpt lat="45.407112610581976" lon="10.627699115389222"><ele>100.5</ele><time>2026-03-29T09:07:43Z</time></trkpt><trkpt lat="45.40697922841362" lon="10.627676811881125"><ele>100.25</ele><time>2026-03-29T09:07:44Z</time></trkpt><trkpt lat="45.40682883653886" lon="10.627643532840713"><ele>100.0</ele><time>2026-03-29T09:07:45Z</time></trkpt><trkpt lat="45.40666429446671" lon="10.627608348879283"><ele>100.0</ele><time>2026-03-29T09:07:46Z</time></trkpt><trkpt lat="45.40649866084404" lon="10.627573480160372"><ele>100.0</ele><time>2026-03-29T09:07:47Z</time></trkpt><trkpt lat="45.406320595576965" lon="10.627531317894004"><ele>100.0</ele><time>2026-03-29T09:07:48Z</time></trkpt><trkpt lat="45.406135626050855" lon="10.62748251912454"><ele>100.33333333333334</ele><time>2026-03-29T09:07:49Z</time></trkpt><trkpt lat="45.405952814661575" lon="10.627430898747349"><ele>100.66666666666666</ele><time>2026-03-29T09:07:50Z</time></trkpt><trkpt lat="45.405775189551896" lon="10.627375821829464"><ele>101.0</ele><time>2026-03-29T09:07:51Z</time></trkpt><trkpt lat="45.40560048219379" lon="10.627314012091635"><ele>103.0</ele><time>2026-03-29T09:07:52Z</time></trkpt><trkpt lat="45.40542423136952" lon="10.627239944894916"><ele>105.0</ele><time>2026-03-29T09:07:53Z</time></trkpt><trkpt lat="45.405272689654474" lon="10.627161125141441"><ele>107.0</ele><time>2026-03-29T09:07:54Z</time></trkpt><trkpt lat="45.40512927340038" lon="10.627070624785478"><ele>107.0</ele><time>2026-03-29T09:07:55Z</time></trkpt><trkpt lat="45.40498242262554" lon="10.626999290540368"><ele>107.0</ele><time>2026-03-29T09:07:56Z</time></trkpt><trkpt lat="45.4048251572968" lon="10.626939333026563"><ele>107.0</ele><time>2026-03-29T09:07:57Z</time></trkpt><trkpt lat="45.4046658506044" lon="10.626893259415727"><ele>112.33333333333333</ele><time>2026-03-29T09:07:58Z</time></trkpt><trkpt lat="45.404517787052384" lon="10.626849219223153"><ele>117.66666666666666</ele><time>2026-03-29T09:07:59Z</time></trkpt><trkpt lat="45.404367720548045" lon="10.626802926758218"><ele>123.0</ele><time>2026-03-29T09:08:00Z</time></trkpt><trkpt lat="45.404206452326655" lon="10.626770836884061"><ele>123.0</ele><time>2026-03-29T09:08:01Z</time></trkpt><trkpt lat="45.40404172125156" lon="10.626771598588386"><ele>123.0</ele><time>2026-03-29T09:08:02Z</time></trkpt><trkpt lat="45.40389999839098" lon="10.626797555972917"><ele>123.0</ele><time>2026-03-29T09:08:03Z</time></trkpt><trkpt lat="45.40378124714417" lon="10.626823661791198"><ele>123.0</ele><time>2026-03-29T09:08:04Z</time></trkpt><trkpt lat="45.40368096872893" lon="10.626837883553929"><ele>123.2</ele><time>2026-03-29T09:08:05Z</time></trkpt><trkpt lat="45.4036072650909" lon="10.626832903960038"><ele>123.4</ele><time>2026-03-29T09:08:06Z</time></trkpt><trkpt lat="45.403543103671524" lon="10.626815142089097"><ele>123.60000000000001</ele><time>2026-03-29T09:08:07Z</time></trkpt><trkpt lat="45.403452851862895" lon="10.626771094142624"><ele>123.80000000000001</ele><time>2026-03-29T09:08:09Z</time></trkpt><trkpt lat="45.40336536364995" lon="10.62667872639226"><ele>124.0</ele><time>2026-03-29T09:08:12Z</time></trkpt><trkpt lat="45.40336222647887" lon="10.626522761898714"><ele>124.00000000000001</ele><time>2026-03-29T09:08:14Z</time></trkpt><trkpt lat="45.403399877310264" lon="10.62642757798917"><ele>124.0</ele><time>2026-03-29T09:08:15Z</time></trkpt><trkpt lat="45.403443219100474" lon="10.6263083560847"><ele>124.0</ele><time>2026-03-29T09:08:16Z</time></trkpt><trkpt lat="45.40348010108326" lon="10.626211476896327"><ele>124.0</ele><time>2026-03-29T09:08:17Z</time></trkpt><trkpt lat="45.403482024531776" lon="10.626110881764163"><ele>124.00000000000001</ele><time>2026-03-29T09:08:18Z</time></trkpt><trkpt lat="45.403481688650366" lon="10.626018527112748"><ele>124.0</ele><time>2026-03-29T09:08:19Z</time></trkpt><trkpt lat="45.403473662388855" lon="10.6259100199765"><ele>124.00000000000001</ele><time>2026-03-29T09:08:20Z</time></trkpt><trkpt lat="45.403464200088536" lon="10.625784715241851"><ele>124.0</ele><time>2026-03-29T09:08:21Z</time></trkpt><trkpt lat="45.403458490135165" lon="10.625666333801876"><ele>124.0</ele><time>2026-03-29T09:08:22Z</time></trkpt><trkpt lat="45.40345627443384" lon="10.625555874175028"><ele>124.0</ele><time>2026-03-29T09:08:23Z</time></trkpt><trkpt lat="45.403472467989616" lon="10.625447224868399"><ele>124.00000000000001</ele><time>2026-03-29T09:08:24Z</time></trkpt><trkpt lat="45.40350027547523" lon="10.625346563985952"><ele>124.0</ele><time>2026-03-29T09:08:25Z</time></trkpt><trkpt lat="45.40353536260999" lon="10.625263688738542"><ele>123.33333333333334</ele><time>2026-03-29T09:08:26Z</time></trkpt><trkpt lat="45.40358230329814" lon="10.625201192702962"><ele>122.66666666666667</ele><time>2026-03-29T09:08:27Z</time></trkpt><trkpt lat="45.403644256234465" lon="10.625142517814076"><ele>122.0</ele><time>2026-03-29T09:08:28Z</time></trkpt><trkpt lat="45.40372666695233" lon="10.625061594424022"><ele>121.33333333333334</ele><time>2026-03-29T09:08:29Z</time></trkpt><trkpt lat="45.403808609577155" lon="10.624964323704804"><ele>120.66666666666667</ele><time>2026-03-29T09:08:30Z</time></trkpt><trkpt lat="45.40388101117011" lon="10.62486940327108"><ele>120.0</ele><time>2026-03-29T09:08:31Z</time></trkpt><trkpt lat="45.40394334372585" lon="10.62477980348962"><ele>119.4</ele><time>2026-03-29T09:08:32Z</time></trkpt><trkpt lat="45.40398710223493" lon="10.62470061100842"><ele>118.8</ele><time>2026-03-29T09:08:33Z</time></trkpt><trkpt lat="45.40401844495455" lon="10.624618598810219"><ele>118.19999999999999</ele><time>2026-03-29T09:08:34Z</time></trkpt><trkpt lat="45.403974566182875" lon="10.624480206000358"><ele>117.6</ele><time>2026-03-29T09:08:35Z</time></trkpt><trkpt lat="45.40391753282776" lon="10.624335379943552"><ele>117.0</ele><time>2026-03-29T09:08:36Z</time></trkpt><trkpt lat="45.40384762996345" lon="10.624157364309136"><ele>116.0</ele><time>2026-03-29T09:08:37Z</time></trkpt><trkpt lat="45.40378225517553" lon="10.623997068041225"><ele>115.0</ele><time>2026-03-29T09:08:38Z</time></trkpt><trkpt lat="45.40369941127562" lon="10.623841660304508"><ele>114.0</ele><time>2026-03-29T09:08:39Z</time></trkpt><trkpt lat="45.40361006815314" lon="10.62368794728401"><ele>113.0</ele><time>2026-03-29T09:08:40Z</time></trkpt><trkpt lat="45.403531475777186" lon="10.623537755291004"><ele>111.80000000000001</ele><time>2026-03-29T09:08:41Z</time></trkpt><trkpt lat="45.40346924115012" lon="10.623413576813729"><ele>110.60000000000001</ele><time>2026-03-29T09:08:42Z</time></trkpt><trkpt lat="45.403424171951215" lon="10.623292850982663"><ele>109.39999999999999</ele><time>2026-03-29T09:08:43Z</time></trkpt><trkpt lat="45.403395487417136" lon="10.623163921406684"><ele>108.19999999999999</ele><time>2026-03-29T09:08:44Z</time></trkpt><trkpt lat="45.40344521735911" lon="10.623005397895367"><ele>107.0</ele><time>2026-03-29T09:08:45Z</time></trkpt><trkpt lat="45.403526505434925" lon="10.622842917345752"><ele>105.33333333333333</ele><time>2026-03-29T09:08:46Z</time></trkpt><trkpt lat="45.40359971619355" lon="10.622644758130585"><ele>103.66666666666666</ele><time>2026-03-29T09:08:47Z</time></trkpt><trkpt lat="45.40365501653058" lon="10.622437579285204"><ele>102.0</ele><time>2026-03-29T09:08:48Z</time></trkpt><trkpt lat="45.40367447096261" lon="10.622228668887358"><ele>102.0</ele><time>2026-03-29T09:08:49Z</time></trkpt><trkpt lat="45.40369553325308" lon="10.622003003174562"><ele>102.0</ele><time>2026-03-29T09:08:50Z</time></trkpt><trkpt lat="45.40372337647236" lon="10.621767336087812"><ele>102.0</ele><time>2026-03-29T09:08:51Z</time></trkpt><trkpt lat="45.40374829607157" lon="10.621553922121697"><ele>100.5</ele><time>2026-03-29T09:08:52Z</time></trkpt><trkpt lat="45.40377816764826" lon="10.621349930028728"><ele>99.0</ele><time>2026-03-29T09:08:53Z</time></trkpt><trkpt lat="45.403803936700406" lon="10.621167257838263"><ele>97.5</ele><time>2026-03-29T09:08:54Z</time></trkpt><trkpt lat="45.403824995383175" lon="10.62100568246535"><ele>96.0</ele><time>2026-03-29T09:08:55Z</time></trkpt><trkpt lat="45.403850871830194" lon="10.620851551078077"><ele>95.25</ele><time>2026-03-29T09:08:56Z</time></trkpt><trkpt lat="45.40390894776399" lon="10.620717290521707"><ele>94.5</ele><time>2026-03-29T09:08:57Z</time></trkpt><trkpt lat="45.40397335463224" lon="10.620561503699982"><ele>93.75</ele><time>2026-03-29T09:08:58Z</time></trkpt><trkpt lat="45.404053624978125" lon="10.620416633900412"><ele>93.0</ele><time>2026-03-29T09:08:59Z</time></trkpt><trkpt lat="45.40414932096336" lon="10.62028189378147"><ele>93.0</ele><time>2026-03-29T09:09:00Z</time></trkpt><trkpt lat="45.40423509635792" lon="10.620167386522457"><ele>93.0</ele><time>2026-03-29T09:09:01Z</time></trkpt><trkpt lat="45.40430659873766" lon="10.620075584279967"><ele>93.0</ele><time>2026-03-29T09:09:02Z</time></trkpt><trkpt lat="45.40437049176412" lon="10.619997865423455"><ele>93.0</ele><time>2026-03-29T09:09:03Z</time></trkpt><trkpt lat="45.40443907197082" lon="10.619918961627766"><ele>93.0</ele><time>2026-03-29T09:09:04Z</time></trkpt><trkpt lat="45.404513759952984" lon="10.61983658767376"><ele>93.0</ele><time>2026-03-29T09:09:05Z</time></trkpt><trkpt lat="45.404587354416144" lon="10.619761473793483"><ele>93.0</ele><time>2026-03-29T09:09:06Z</time></trkpt><trkpt lat="45.404674107249406" lon="10.619679724486986"><ele>93.0</ele><time>2026-03-29T09:09:07Z</time></trkpt><trkpt lat="45.40476669002285" lon="10.61959837916206"><ele>93.0</ele><time>2026-03-29T09:09:08Z</time></trkpt><trkpt lat="45.40487219184064" lon="10.619514234485905"><ele>93.0</ele><time>2026-03-29T09:09:09Z</time></trkpt><trkpt lat="45.40497428810418" lon="10.619427873806705"><ele>92.4</ele><time>2026-03-29T09:09:10Z</time></trkpt><trkpt lat="45.40506732695081" lon="10.619348155312784"><ele>91.80000000000001</ele><time>2026-03-29T09:09:11Z</time></trkpt><trkpt lat="45.40515849701287" lon="10.619274725211078"><ele>91.2</ele><time>2026-03-29T09:09:12Z</time></trkpt><trkpt lat="45.405250019882956" lon="10.619217355724013"><ele>90.6</ele><time>2026-03-29T09:09:13Z</time></trkpt><trkpt lat="45.405338822909556" lon="10.619169303527013"><ele>90.0</ele><time>2026-03-29T09:09:14Z</time></trkpt><trkpt lat="45.40543319809561" lon="10.619147107086933"><ele>90.2</ele><time>2026-03-29T09:09:15Z</time></trkpt><trkpt lat="45.40552541911261" lon="10.619161453204995"><ele>90.4</ele><time>2026-03-29T09:09:16Z</time></trkpt><trkpt lat="45.40562779086704" lon="10.619193593928069"><ele>90.6</ele><time>2026-03-29T09:09:17Z</time></trkpt><trkpt lat="45.405741461377865" lon="10.619241610017971"><ele>90.8</ele><time>2026-03-29T09:09:18Z</time></trkpt><trkpt lat="45.40586626340634" lon="10.619303020621688"><ele>91.0</ele><time>2026-03-29T09:09:19Z</time></trkpt><trkpt lat="45.40599223893553" lon="10.619377717611577"><ele>91.0</ele><time>2026-03-29T09:09:20Z</time></trkpt><trkpt lat="45.406103842453476" lon="10.619447927883614"><ele>91.0</ele><time>2026-03-29T09:09:21Z</time></trkpt><trkpt lat="45.40620292112875" lon="10.619490649787155"><ele>91.0</ele><time>2026-03-29T09:09:22Z</time></trkpt><trkpt lat="45.406297971616944" lon="10.619502034605581"><ele>91.0</ele><time>2026-03-29T09:09:23Z</time></trkpt><trkpt lat="45.40639461389953" lon="10.619503136188602"><ele>91.0</ele><time>2026-03-29T09:09:24Z</time></trkpt><trkpt lat="45.406488965194725" lon="10.619480383306051"><ele>91.0</ele><time>2026-03-29T09:09:25Z</time></trkpt><trkpt lat="45.40657130666687" lon="10.619426551417972"><ele>91.0</ele><time>2026-03-29T09:09:26Z</time></trkpt><trkpt lat="45.406640430246945" lon="10.619341519127685"><ele>91.0</ele><time>2026-03-29T09:09:27Z</time></trkpt><trkpt lat="45.40670103848915" lon="10.61924193024207"><ele>91.0</ele><time>2026-03-29T09:09:28Z</time></trkpt><trkpt lat="45.40670937216035" lon="10.619086284742218"><ele>91.0</ele><time>2026-03-29T09:09:29Z</time></trkpt><trkpt lat="45.4067171454757" lon="10.618946714075738"><ele>91.0</ele><time>2026-03-29T09:09:30Z</time></trkpt><trkpt lat="45.40665857976628" lon="10.618797931989596"><ele>91.0</ele><time>2026-03-29T09:09:31Z</time></trkpt><trkpt lat="45.406605479171226" lon="10.61866057898173"><ele>91.0</ele><time>2026-03-29T09:09:32Z</time></trkpt><trkpt lat="45.406484394340936" lon="10.618557298613458"><ele>91.0</ele><time>2026-03-29T09:09:33Z</time></trkpt><trkpt lat="45.40637584046368" lon="10.618450160371998"><ele>91.0</ele><time>2026-03-29T09:09:34Z</time></trkpt><trkpt lat="45.40626879639675" lon="10.618304994926046"><ele>91.0</ele><time>2026-03-29T09:09:35Z</time></trkpt><trkpt lat="45.406151932554444" lon="10.618172617830655"><ele>91.0</ele><time>2026-03-29T09:09:36Z</time></trkpt><trkpt lat="45.40606608378455" lon="10.61802386230861"><ele>91.0</ele><time>2026-03-29T09:09:37Z</time></trkpt><trkpt lat="45.405938297728305" lon="10.617918499950559"><ele>92.25</ele><time>2026-03-29T09:09:38Z</time></trkpt><trkpt lat="45.405816513490414" lon="10.617815613523252"><ele>93.5</ele><time>2026-03-29T09:09:39Z</time></trkpt><trkpt lat="45.40570245720061" lon="10.617731439075298"><ele>94.75</ele><time>2026-03-29T09:09:40Z</time></trkpt><trkpt lat="45.40560947489489" lon="10.617623672570328"><ele>96.0</ele><time>2026-03-29T09:09:41Z</time></trkpt><trkpt lat="45.40553649171672" lon="10.617526434868973"><ele>96.0</ele><time>2026-03-29T09:09:42Z</time></trkpt><trkpt lat="45.40548250768395" lon="10.61743002158318"><ele>96.0</ele><time>2026-03-29T09:09:43Z</time></trkpt><trkpt lat="45.40549292693582" lon="10.617290428850124"><ele>96.0</ele><time>2026-03-29T09:09:44Z</time></trkpt><trkpt lat="45.405498635222926" lon="10.61716058391024"><ele>96.0</ele><time>2026-03-29T09:09:45Z</time></trkpt><trkpt lat="45.405488701997214" lon="10.61700609035619"><ele>96.0</ele><time>2026-03-29T09:09:46Z</time></trkpt><trkpt lat="45.405454744544585" lon="10.616855580184296"><ele>95.4</ele><time>2026-03-29T09:09:47Z</time></trkpt><trkpt lat="45.40544005627674" lon="10.616719542891358"><ele>94.8</ele><time>2026-03-29T09:09:48Z</time></trkpt><trkpt lat="45.40542122037866" lon="10.616565268943305"><ele>94.2</ele><time>2026-03-29T09:09:49Z</time></trkpt><trkpt lat="45.405411668175624" lon="10.616424813924047"><ele>93.60000000000001</ele><time>2026-03-29T09:09:50Z</time></trkpt><trkpt lat="45.40540783847569" lon="10.616271167235611"><ele>93.0</ele><time>2026-03-29T09:09:51Z</time></trkpt><trkpt lat="45.40541699424528" lon="10.61611724318979"><ele>93.0</ele><time>2026-03-29T09:09:52Z</time></trkpt><trkpt lat="45.40542124918631" lon="10.61597526023108"><ele>93.0</ele><time>2026-03-29T09:09:53Z</time></trkpt><trkpt lat="45.405424253846824" lon="10.615822197923817"><ele>93.0</ele><time>2026-03-29T09:09:54Z</time></trkpt><trkpt lat="45.40542577790978" lon="10.615676799915706"><ele>93.0</ele><time>2026-03-29T09:09:55Z</time></trkpt><trkpt lat="45.40542646959427" lon="10.615514480013516"><ele>93.0</ele><time>2026-03-29T09:09:56Z</time></trkpt><trkpt lat="45.40542420612401" lon="10.615344811305777"><ele>93.0</ele><time>2026-03-29T09:09:57Z</time></trkpt><trkpt lat="45.40542326501502" lon="10.615177275243528"><ele>93.0</ele><time>2026-03-29T09:09:58Z</time></trkpt><trkpt lat="45.40543075324399" lon="10.615024096322452"><ele>93.0</ele><time>2026-03-29T09:09:59Z</time></trkpt><trkpt lat="45.40544906692695" lon="10.614865737205283"><ele>93.0</ele><time>2026-03-29T09:10:00Z</time></trkpt><trkpt lat="45.40547636546001" lon="10.614708351926794"><ele>94.75</ele><time>2026-03-29T09:10:01Z</time></trkpt><trkpt lat="45.40550256399558" lon="10.614540851892277"><ele>96.5</ele><time>2026-03-29T09:10:02Z</time></trkpt><trkpt lat="45.405527645841545" lon="10.614368185448807"><ele>98.25</ele><time>2026-03-29T09:10:03Z</time></trkpt><trkpt lat="45.40554432904126" lon="10.614182336469565"><ele>100.0</ele><time>2026-03-29T09:10:04Z</time></trkpt><trkpt lat="45.40554831397632" lon="10.613991231186374"><ele>100.0</ele><time>2026-03-29T09:10:05Z</time></trkpt><trkpt lat="45.40554065337987" lon="10.613786049835838"><ele>100.0</ele><time>2026-03-29T09:10:06Z</time></trkpt><trkpt lat="45.40552889612778" lon="10.61357744066369"><ele>100.0</ele><time>2026-03-29T09:10:07Z</time></trkpt><trkpt lat="45.40552121243712" lon="10.613369780646066"><ele>100.0</ele><time>2026-03-29T09:10:08Z</time></trkpt><trkpt lat="45.405503331538135" lon="10.613187487427123"><ele>100.0</ele><time>2026-03-29T09:10:09Z</time></trkpt><trkpt lat="45.4054991616214" lon="10.613023958578188"><ele>100.0</ele><time>2026-03-29T09:10:10Z</time></trkpt><trkpt lat="45.40551053751933" lon="10.61287258425144"><ele>100.0</ele><time>2026-03-29T09:10:11Z</time></trkpt><trkpt lat="45.40553468914951" lon="10.612726246307668"><ele>100.0</ele><time>2026-03-29T09:10:12Z</time></trkpt><trkpt lat="45.40554680548009" lon="10.612603781325587"><ele>100.0</ele><time>2026-03-29T09:10:13Z</time></trkpt><trkpt lat="45.40553966224054" lon="10.61248622247187"><ele>99.0</ele><time>2026-03-29T09:10:14Z</time></trkpt><trkpt lat="45.40546810643828" lon="10.612269959119912"><ele>98.0</ele><time>2026-03-29T09:10:16Z</time></trkpt><trkpt lat="45.4053934439335" lon="10.612176139630817"><ele>97.0</ele><time>2026-03-29T09:10:17Z</time></trkpt><trkpt lat="45.40530040037036" lon="10.612086197597481"><ele>96.0</ele><time>2026-03-29T09:10:18Z</time></trkpt><trkpt lat="45.405183173590245" lon="10.61199738766862"><ele>96.4</ele><time>2026-03-29T09:10:19Z</time></trkpt><trkpt lat="45.40506815371032" lon="10.61191503239554"><ele>96.8</ele><time>2026-03-29T09:10:20Z</time></trkpt><trkpt lat="45.40498318366228" lon="10.611837916205632"><ele>97.2</ele><time>2026-03-29T09:10:21Z</time></trkpt><trkpt lat="45.404927222970215" lon="10.611752214694777"><ele>97.60000000000001</ele><time>2026-03-29T09:10:22Z</time></trkpt><trkpt lat="45.40492503432154" lon="10.611625278916554"><ele>98.0</ele><time>2026-03-29T09:10:23Z</time></trkpt><trkpt lat="45.40492279338593" lon="10.611489258523976"><ele>98.0</ele><time>2026-03-29T09:10:24Z</time></trkpt><trkpt lat="45.40490323693419" lon="10.61130461217032"><ele>98.0</ele><time>2026-03-29T09:10:25Z</time></trkpt><trkpt lat="45.40488077041018" lon="10.611097167223067"><ele>98.0</ele><time>2026-03-29T09:10:26Z</time></trkpt><trkpt lat="45.40486545505584" lon="10.610874125372089"><ele>98.0</ele><time>2026-03-29T09:10:27Z</time></trkpt><trkpt lat="45.40486237899021" lon="10.61064033390086"><ele>98.33333333333333</ele><time>2026-03-29T09:10:28Z</time></trkpt><trkpt lat="45.404865919707035" lon="10.610423042431936"><ele>98.66666666666666</ele><time>2026-03-29T09:10:29Z</time></trkpt><trkpt lat="45.40487380160124" lon="10.610196679866645"><ele>99.0</ele><time>2026-03-29T09:10:30Z</time></trkpt><trkpt lat="45.40487014791602" lon="10.609981718523008"><ele>99.0</ele><time>2026-03-29T09:10:31Z</time></trkpt><trkpt lat="45.404889487684784" lon="10.609780208620954"><ele>99.0</ele><time>2026-03-29T09:10:32Z</time></trkpt><trkpt lat="45.40491158130572" lon="10.609588046585838"><ele>99.0</ele><time>2026-03-29T09:10:33Z</time></trkpt><trkpt lat="45.404928233861646" lon="10.60940202099388"><ele>99.0</ele><time>2026-03-29T09:10:34Z</time></trkpt><trkpt lat="45.40494641078811" lon="10.60921265433196"><ele>99.5</ele><time>2026-03-29T09:10:35Z</time></trkpt><trkpt lat="45.40496528977081" lon="10.609009744684814"><ele>100.0</ele><time>2026-03-29T09:10:36Z</time></trkpt><trkpt lat="45.404982163457994" lon="10.6088130515256"><ele>100.5</ele><time>2026-03-29T09:10:37Z</time></trkpt><trkpt lat="45.404997514384796" lon="10.608634451250602"><ele>101.0</ele><time>2026-03-29T09:10:38Z</time></trkpt><trkpt lat="45.405012512039654" lon="10.608455794102735"><ele>101.0</ele><time>2026-03-29T09:10:39Z</time></trkpt><trkpt lat="45.40501841711882" lon="10.608258643618539"><ele>101.0</ele><time>2026-03-29T09:10:40Z</time></trkpt><trkpt lat="45.40502284001138" lon="10.608061026047858"><ele>101.0</ele><time>2026-03-29T09:10:41Z</time></trkpt><trkpt lat="45.40502663071129" lon="10.60788175603883"><ele>101.0</ele><time>2026-03-29T09:10:42Z</time></trkpt><trkpt lat="45.4050304767541" lon="10.607712193373349"><ele>100.6</ele><time>2026-03-29T09:10:43Z</time></trkpt><trkpt lat="45.40503052235452" lon="10.607552744475006"><ele>100.19999999999999</ele><time>2026-03-29T09:10:44Z</time></trkpt><trkpt lat="45.4050359240702" lon="10.607411463574241"><ele>99.80000000000001</ele><time>2026-03-29T09:10:45Z</time></trkpt><trkpt lat="45.4050361809487" lon="10.607283932671324"><ele>99.4</ele><time>2026-03-29T09:10:46Z</time></trkpt><trkpt lat="45.40503966777963" lon="10.607162491706182"><ele>99.0</ele><time>2026-03-29T09:10:47Z</time></trkpt><trkpt lat="45.405038457844384" lon="10.607042769052098"><ele>98.6</ele><time>2026-03-29T09:10:48Z</time></trkpt><trkpt lat="45.40505345181652" lon="10.606937250967418"><ele>98.2</ele><time>2026-03-29T09:10:49Z</time></trkpt><trkpt lat="45.40506852830131" lon="10.60683209271429"><ele>97.8</ele><time>2026-03-29T09:10:50Z</time></trkpt><trkpt lat="45.405089510131695" lon="10.606693718102537"><ele>97.39999999999999</ele><time>2026-03-29T09:10:51Z</time></trkpt><trkpt lat="45.40510950557915" lon="10.606546053557762"><ele>97.0</ele><time>2026-03-29T09:10:52Z</time></trkpt><trkpt lat="45.405127328339184" lon="10.606395383475185"><ele>97.0</ele><time>2026-03-29T09:10:53Z</time></trkpt><trkpt lat="45.40515002763645" lon="10.606240205400455"><ele>97.0</ele><time>2026-03-29T09:10:54Z</time></trkpt><trkpt lat="45.405195447533096" lon="10.606091501203329"><ele>97.0</ele><time>2026-03-29T09:10:55Z</time></trkpt><trkpt lat="45.40519856275312" lon="10.605928947421143"><ele>97.0</ele><time>2026-03-29T09:10:56Z</time></trkpt><trkpt lat="45.405218625176815" lon="10.605761582823737"><ele>97.25</ele><time>2026-03-29T09:10:57Z</time></trkpt><trkpt lat="45.40523582504766" lon="10.605587892826057"><ele>97.5</ele><time>2026-03-29T09:10:58Z</time></trkpt><trkpt lat="45.405242624408665" lon="10.605405394389754"><ele>97.75</ele><time>2026-03-29T09:10:59Z</time></trkpt><trkpt lat="45.40524587961445" lon="10.605238379206158"><ele>98.0</ele><time>2026-03-29T09:11:00Z</time></trkpt><trkpt lat="45.40523987788117" lon="10.605095295633017"><ele>98.0</ele><time>2026-03-29T09:11:01Z</time></trkpt><trkpt lat="45.40522747688654" lon="10.60498124296028"><ele>98.0</ele><time>2026-03-29T09:11:02Z</time></trkpt><trkpt lat="45.40518295650628" lon="10.604869927538711"><ele>98.0</ele><time>2026-03-29T09:11:03Z</time></trkpt><trkpt lat="45.405093878465394" lon="10.604743793671853"><ele>98.0</ele><time>2026-03-29T09:11:04Z</time></trkpt><trkpt lat="45.40502987239256" lon="10.6045896138967"><ele>98.0</ele><time>2026-03-29T09:11:05Z</time></trkpt><trkpt lat="45.40496334936823" lon="10.604458694857597"><ele>97.66666666666666</ele><time>2026-03-29T09:11:06Z</time></trkpt><trkpt lat="45.40490798445892" lon="10.604356070474603"><ele>97.33333333333333</ele><time>2026-03-29T09:11:07Z</time></trkpt><trkpt lat="45.4048455863256" lon="10.60425940272905"><ele>97.0</ele><time>2026-03-29T09:11:08Z</time></trkpt><trkpt lat="45.404765151248455" lon="10.60420876470536"><ele>96.66666666666666</ele><time>2026-03-29T09:11:09Z</time></trkpt><trkpt lat="45.40470112175492" lon="10.604186678917202"><ele>96.33333333333333</ele><time>2026-03-29T09:11:10Z</time></trkpt><trkpt lat="45.40463339021276" lon="10.604191287413496"><ele>96.0</ele><time>2026-03-29T09:11:11Z</time></trkpt><trkpt lat="45.40456700258775" lon="10.604226514358174"><ele>95.5</ele><time>2026-03-29T09:11:12Z</time></trkpt><trkpt lat="45.40450505423266" lon="10.604260123687098"><ele>95.0</ele><time>2026-03-29T09:11:13Z</time></trkpt><trkpt lat="45.4044265393387" lon="10.604221345759912"><ele>94.5</ele><time>2026-03-29T09:11:14Z</time></trkpt><trkpt lat="45.4043740494659" lon="10.604161213110709"><ele>94.0</ele><time>2026-03-29T09:11:15Z</time></trkpt><trkpt lat="45.40424630315746" lon="10.604071225506479"><ele>93.5</ele><time>2026-03-29T09:11:17Z</time></trkpt><trkpt lat="45.404185019212235" lon="10.604027684070987"><ele>93.0</ele><time>2026-03-29T09:11:18Z</time></trkpt><trkpt lat="45.404126111371404" lon="10.603983917827035"><ele>93.0</ele><time>2026-03-29T09:11:19Z</time></trkpt><trkpt lat="45.40405929013319" lon="10.603934082618176"><ele>93.0</ele><time>2026-03-29T09:11:20Z</time></trkpt><trkpt lat="45.403943646762286" lon="10.603863790723146"><ele>93.0</ele><time>2026-03-29T09:11:22Z</time></trkpt><trkpt lat="45.40389339501464" lon="10.603784551948063"><ele>93.0</ele><time>2026-03-29T09:11:23Z</time></trkpt><trkpt lat="45.40389512301612" lon="10.603683473918057"><ele>93.0</ele><time>2026-03-29T09:11:24Z</time></trkpt><trkpt lat="45.40392124547796" lon="10.603601129786279"><ele>93.0</ele><time>2026-03-29T09:11:25Z</time></trkpt><trkpt lat="45.40396408518434" lon="10.60353012737714"><ele>93.0</ele><time>2026-03-29T09:11:26Z</time></trkpt><trkpt lat="45.40400054163561" lon="10.603409333715547"><ele>93.0</ele><time>2026-03-29T09:11:27Z</time></trkpt><trkpt lat="45.40401645336859" lon="10.603288244518446"><ele>93.0</ele><time>2026-03-29T09:11:28Z</time></trkpt><trkpt lat="45.40404974830286" lon="10.603156976633972"><ele>93.0</ele><time>2026-03-29T09:11:30Z</time></trkpt><trkpt lat="45.40394594997208" lon="10.603065459171038"><ele>93.0</ele><time>2026-03-29T09:11:32Z</time></trkpt><trkpt lat="45.40381929831398" lon="10.60308538785913"><ele>93.33333333333333</ele><time>2026-03-29T09:11:34Z</time></trkpt><trkpt lat="45.403741073231956" lon="10.603105814480962"><ele>93.66666666666667</ele><time>2026-03-29T09:11:35Z</time></trkpt><trkpt lat="45.403672280963306" lon="10.60307505144533"><ele>94.0</ele><time>2026-03-29T09:11:36Z</time></trkpt><trkpt lat="45.40359997389827" lon="10.60304154034148"><ele>94.33333333333334</ele><time>2026-03-29T09:11:37Z</time></trkpt><trkpt lat="45.40353376857499" lon="10.603039394741327"><ele>94.66666666666667</ele><time>2026-03-29T09:11:38Z</time></trkpt><trkpt lat="45.40344782004492" lon="10.603004163619579"><ele>95.0</ele><time>2026-03-29T09:11:39Z</time></trkpt><trkpt lat="45.403364522388465" lon="10.602989396511678"><ele>95.0</ele><time>2026-03-29T09:11:40Z</time></trkpt><trkpt lat="45.40327465521557" lon="10.602984623463794"><ele>95.0</ele><time>2026-03-29T09:11:41Z</time></trkpt><trkpt lat="45.403200404398675" lon="10.602917527323681"><ele>95.0</ele><time>2026-03-29T09:11:42Z</time></trkpt><trkpt lat="45.40312483591527" lon="10.60287677888109"><ele>95.0</ele><time>2026-03-29T09:11:43Z</time></trkpt><trkpt lat="45.40305168430593" lon="10.602861670891047"><ele>95.0</ele><time>2026-03-29T09:11:44Z</time></trkpt><trkpt lat="45.402976188244025" lon="10.602767371947248"><ele>95.0</ele><time>2026-03-29T09:11:46Z</time></trkpt><trkpt lat="45.4029797649092" lon="10.602591265311531"><ele>95.2</ele><time>2026-03-29T09:11:48Z</time></trkpt><trkpt lat="45.4030147671289" lon="10.602454127462163"><ele>95.4</ele><time>2026-03-29T09:11:49Z</time></trkpt><trkpt lat="45.40302965606416" lon="10.602298598341939"><ele>95.6</ele><time>2026-03-29T09:11:50Z</time></trkpt><trkpt lat="45.403027923245524" lon="10.602135629835473"><ele>95.8</ele><time>2026-03-29T09:11:51Z</time></trkpt><trkpt lat="45.403023209941935" lon="10.601975317382811"><ele>96.0</ele><time>2026-03-29T09:11:52Z</time></trkpt><trkpt lat="45.403017932710114" lon="10.601780133128099"><ele>96.0</ele><time>2026-03-29T09:11:53Z</time></trkpt><trkpt lat="45.40302050017712" lon="10.601584866004979"><ele>96.0</ele><time>2026-03-29T09:11:54Z</time></trkpt><trkpt lat="45.403030336826504" lon="10.601378491845475"><ele>96.0</ele><time>2026-03-29T09:11:55Z</time></trkpt><trkpt lat="45.403049555273256" lon="10.601169528426965"><ele>96.0</ele><time>2026-03-29T09:11:56Z</time></trkpt><trkpt lat="45.40305580588076" lon="10.60099707196671"><ele>96.0</ele><time>2026-03-29T09:11:57Z</time></trkpt><trkpt lat="45.40306370231867" lon="10.600811860293433"><ele>96.0</ele><time>2026-03-29T09:11:58Z</time></trkpt><trkpt lat="45.40307320745664" lon="10.600620084531263"><ele>96.0</ele><time>2026-03-29T09:11:59Z</time></trkpt><trkpt lat="45.40307060500591" lon="10.60041418268577"><ele>96.0</ele><time>2026-03-29T09:12:00Z</time></trkpt><trkpt lat="45.403055115114306" lon="10.600201423783965"><ele>96.25</ele><time>2026-03-29T09:12:01Z</time></trkpt><trkpt lat="45.403032283515174" lon="10.600003800879547"><ele>96.5</ele><time>2026-03-29T09:12:02Z</time></trkpt><trkpt lat="45.403008110028594" lon="10.599821718276614"><ele>96.75</ele><time>2026-03-29T09:12:03Z</time></trkpt><trkpt lat="45.40299990396488" lon="10.599651176827408"><ele>97.0</ele><time>2026-03-29T09:12:04Z</time></trkpt><trkpt lat="45.403010450334264" lon="10.599478735064348"><ele>97.0</ele><time>2026-03-29T09:12:05Z</time></trkpt><trkpt lat="45.40303907603031" lon="10.599342692148655"><ele>97.0</ele><time>2026-03-29T09:12:06Z</time></trkpt><trkpt lat="45.40304894933452" lon="10.599148151042801"><ele>97.0</ele><time>2026-03-29T09:12:07Z</time></trkpt><trkpt lat="45.403036237108225" lon="10.598953049066335"><ele>97.0</ele><time>2026-03-29T09:12:08Z</time></trkpt><trkpt lat="45.40302577618197" lon="10.59876916683029"><ele>96.8</ele><time>2026-03-29T09:12:09Z</time></trkpt><trkpt lat="45.40303447051621" lon="10.598610488293238"><ele>96.6</ele><time>2026-03-29T09:12:10Z</time></trkpt><trkpt lat="45.40303934560387" lon="10.598480692321726"><ele>96.39999999999999</ele><time>2026-03-29T09:12:11Z</time></trkpt><trkpt lat="45.40304877524704" lon="10.598342757066174"><ele>96.19999999999999</ele><time>2026-03-29T09:12:12Z</time></trkpt><trkpt lat="45.403054462461675" lon="10.598192362825746"><ele>96.0</ele><time>2026-03-29T09:12:13Z</time></trkpt><trkpt lat="45.40305741147537" lon="10.598040192334189"><ele>96.0</ele><time>2026-03-29T09:12:14Z</time></trkpt><trkpt lat="45.403054765984486" lon="10.597890819914095"><ele>96.0</ele><time>2026-03-29T09:12:15Z</time></trkpt><trkpt lat="45.403046804131485" lon="10.597771843809408"><ele>96.0</ele><time>2026-03-29T09:12:16Z</time></trkpt><trkpt lat="45.40304141468617" lon="10.597655968339959"><ele>96.0</ele><time>2026-03-29T09:12:17Z</time></trkpt><trkpt lat="45.40307386543087" lon="10.597497845059092"><ele>96.0</ele><time>2026-03-29T09:12:19Z</time></trkpt><trkpt lat="45.403189574572515" lon="10.597516522332633"><ele>95.8</ele><time>2026-03-29T09:12:21Z</time></trkpt><trkpt lat="45.40325908144964" lon="10.59755332481497"><ele>95.6</ele><time>2026-03-29T09:12:22Z</time></trkpt><trkpt lat="45.403351434115656" lon="10.597528505428926"><ele>95.4</ele><time>2026-03-29T09:12:24Z</time></trkpt><trkpt lat="45.403386829441956" lon="10.597387702075718"><ele>95.2</ele><time>2026-03-29T09:12:26Z</time></trkpt><trkpt lat="45.40337980972038" lon="10.59725038114246"><ele>95.0</ele><time>2026-03-29T09:12:27Z</time></trkpt><trkpt lat="45.403381714569825" lon="10.597101900834662"><ele>95.2</ele><time>2026-03-29T09:12:28Z</time></trkpt><trkpt lat="45.40338617387901" lon="10.596997199005504"><ele>95.4</ele><time>2026-03-29T09:12:29Z</time></trkpt><trkpt lat="45.4033547263781" lon="10.596906967184504"><ele>95.6</ele><time>2026-03-29T09:12:31Z</time></trkpt><trkpt lat="45.40323613953565" lon="10.59687721122857"><ele>95.8</ele><time>2026-03-29T09:12:33Z</time></trkpt><trkpt lat="45.40315076409681" lon="10.59688047107383"><ele>96.0</ele><time>2026-03-29T09:12:34Z</time></trkpt><trkpt lat="45.403051050661915" lon="10.596904327881813"><ele>97.5</ele><time>2026-03-29T09:12:35Z</time></trkpt><trkpt lat="45.40294414520275" lon="10.596925284910386"><ele>99.0</ele><time>2026-03-29T09:12:36Z</time></trkpt><trkpt lat="45.402822149728365" lon="10.596911066180072"><ele>100.5</ele><time>2026-03-29T09:12:37Z</time></trkpt><trkpt lat="45.40269989401223" lon="10.596901603424252"><ele>102.0</ele><time>2026-03-29T09:12:38Z</time></trkpt><trkpt lat="45.402579616688755" lon="10.596883751360249"><ele>102.0</ele><time>2026-03-29T09:12:39Z</time></trkpt><trkpt lat="45.4024519147422" lon="10.596854090527414"><ele>102.0</ele><time>2026-03-29T09:12:40Z</time></trkpt><trkpt lat="45.40231858968603" lon="10.596819080269933"><ele>102.0</ele><time>2026-03-29T09:12:41Z</time></trkpt><trkpt lat="45.40218445730241" lon="10.596789470321374"><ele>102.0</ele><time>2026-03-29T09:12:42Z</time></trkpt><trkpt lat="45.40206942137661" lon="10.596766337397305"><ele>103.39999999999999</ele><time>2026-03-29T09:12:43Z</time></trkpt><trkpt lat="45.401968395671936" lon="10.596740976648716"><ele>104.8</ele><time>2026-03-29T09:12:44Z</time></trkpt><trkpt lat="45.401889872340185" lon="10.596724326469904"><ele>106.2</ele><time>2026-03-29T09:12:45Z</time></trkpt><trkpt lat="45.40180833338344" lon="10.596719774402262"><ele>107.6</ele><time>2026-03-29T09:12:46Z</time></trkpt><trkpt lat="45.4017075276344" lon="10.596772408180195"><ele>109.0</ele><time>2026-03-29T09:12:48Z</time></trkpt><trkpt lat="45.4016373497767" lon="10.596908725449929"><ele>109.80000000000001</ele><time>2026-03-29T09:12:50Z</time></trkpt><trkpt lat="45.401610782085584" lon="10.597008330954894"><ele>110.60000000000001</ele><time>2026-03-29T09:12:51Z</time></trkpt><trkpt lat="45.40153335470634" lon="10.597120092214961"><ele>111.4</ele><time>2026-03-29T09:12:53Z</time></trkpt><trkpt lat="45.401419560804364" lon="10.597073942747002"><ele>112.2</ele><time>2026-03-29T09:12:55Z</time></trkpt><trkpt lat="45.40134934827356" lon="10.597054523756574"><ele>113.0</ele><time>2026-03-29T09:12:56Z</time></trkpt><trkpt lat="45.40127072399408" lon="10.597063705617563"><ele>114.33333333333333</ele><time>2026-03-29T09:12:57Z</time></trkpt><trkpt lat="45.4011915494221" lon="10.597070071508522"><ele>115.66666666666666</ele><time>2026-03-29T09:12:58Z</time></trkpt><trkpt lat="45.40111193172361" lon="10.597078632238922"><ele>117.0</ele><time>2026-03-29T09:12:59Z</time></trkpt><trkpt lat="45.40105505068067" lon="10.597119636452641"><ele>118.33333333333334</ele><time>2026-03-29T09:13:00Z</time></trkpt><trkpt lat="45.400989074582284" lon="10.59720361476475"><ele>119.66666666666667</ele><time>2026-03-29T09:13:01Z</time></trkpt><trkpt lat="45.400925006326354" lon="10.597306143820962"><ele>121.0</ele><time>2026-03-29T09:13:02Z</time></trkpt><trkpt lat="45.4008592261072" lon="10.597392439562215"><ele>121.0</ele><time>2026-03-29T09:13:03Z</time></trkpt><trkpt lat="45.400784776787106" lon="10.597437148209266"><ele>121.0</ele><time>2026-03-29T09:13:04Z</time></trkpt><trkpt lat="45.40066861519534" lon="10.597502648935654"><ele>121.0</ele><time>2026-03-29T09:13:05Z</time></trkpt><trkpt lat="45.40057346816724" lon="10.597541131589205"><ele>121.0</ele><time>2026-03-29T09:13:06Z</time></trkpt><trkpt lat="45.40047614917991" lon="10.597558342606227"><ele>121.0</ele><time>2026-03-29T09:13:07Z</time></trkpt><trkpt lat="45.40039334115686" lon="10.597586274257448"><ele>120.0</ele><time>2026-03-29T09:13:08Z</time></trkpt><trkpt lat="45.40032923593585" lon="10.59761608251311"><ele>119.0</ele><time>2026-03-29T09:13:09Z</time></trkpt><trkpt lat="45.400228822081935" lon="10.59762619272687"><ele>118.0</ele><time>2026-03-29T09:13:11Z</time></trkpt><trkpt lat="45.40016721416994" lon="10.597484186822907"><ele>117.0</ele><time>2026-03-29T09:13:13Z</time></trkpt><trkpt lat="45.400146539501364" lon="10.597334691070788"><ele>116.0</ele><time>2026-03-29T09:13:14Z</time></trkpt><trkpt lat="45.4001296373584" lon="10.597147273520761"><ele>117.0</ele><time>2026-03-29T09:13:15Z</time></trkpt><trkpt lat="45.40011474962888" lon="10.596943210998674"><ele>118.0</ele><time>2026-03-29T09:13:16Z</time></trkpt><trkpt lat="45.40009577649895" lon="10.596709629311277"><ele>119.0</ele><time>2026-03-29T09:13:17Z</time></trkpt><trkpt lat="45.40008099610618" lon="10.59647336988113"><ele>119.0</ele><time>2026-03-29T09:13:18Z</time></trkpt><trkpt lat="45.40007863537116" lon="10.596232977338627"><ele>119.0</ele><time>2026-03-29T09:13:19Z</time></trkpt><trkpt lat="45.40009033599704" lon="10.595994054622622"><ele>119.0</ele><time>2026-03-29T09:13:20Z</time></trkpt><trkpt lat="45.400095597126395" lon="10.595746043515717"><ele>118.33333333333333</ele><time>2026-03-29T09:13:21Z</time></trkpt><trkpt lat="45.40007922548569" lon="10.59549189852773"><ele>117.66666666666666</ele><time>2026-03-29T09:13:22Z</time></trkpt><trkpt lat="45.4000362127838" lon="10.595226175710131"><ele>117.0</ele><time>2026-03-29T09:13:23Z</time></trkpt><trkpt lat="45.39996763420055" lon="10.594968738106079"><ele>116.66666666666666</ele><time>2026-03-29T09:13:24Z</time></trkpt><trkpt lat="45.39986594671999" lon="10.594700187018642"><ele>116.33333333333333</ele><time>2026-03-29T09:13:25Z</time></trkpt><trkpt lat="45.39975693668372" lon="10.594441533558687"><ele>116.0</ele><time>2026-03-29T09:13:26Z</time></trkpt><trkpt lat="45.399643146233956" lon="10.594195905646005"><ele>115.66666666666666</ele><time>2026-03-29T09:13:27Z</time></trkpt><trkpt lat="45.39954617802165" lon="10.593979863559102"><ele>115.33333333333334</ele><time>2026-03-29T09:13:28Z</time></trkpt><trkpt lat="45.39946138286521" lon="10.593747466212424"><ele>115.0</ele><time>2026-03-29T09:13:29Z</time></trkpt><trkpt lat="45.3994176726785" lon="10.59346938736951"><ele>115.0</ele><time>2026-03-29T09:13:30Z</time></trkpt><trkpt lat="45.3993996554957" lon="10.593192177588202"><ele>115.0</ele><time>2026-03-29T09:13:31Z</time></trkpt><trkpt lat="45.39941776488823" lon="10.59290300809781"><ele>115.0</ele><time>2026-03-29T09:13:32Z</time></trkpt><trkpt lat="45.39943120453205" lon="10.592615664238535"><ele>115.33333333333334</ele><time>2026-03-29T09:13:33Z</time></trkpt><trkpt lat="45.39941710674796" lon="10.592320821124702"><ele>115.66666666666666</ele><time>2026-03-29T09:13:34Z</time></trkpt><trkpt lat="45.3993985179118" lon="10.592012542957313"><ele>116.0</ele><time>2026-03-29T09:13:35Z</time></trkpt><trkpt lat="45.39936219353787" lon="10.59169879934267"><ele>115.0</ele><time>2026-03-29T09:13:36Z</time></trkpt><trkpt lat="45.399321579087925" lon="10.59136781067876"><ele>114.0</ele><time>2026-03-29T09:13:37Z</time></trkpt><trkpt lat="45.399280910690194" lon="10.59104747896934"><ele>112.0</ele><time>2026-03-29T09:13:38Z</time></trkpt><trkpt lat="45.39923805496788" lon="10.590730385509818"><ele>110.0</ele><time>2026-03-29T09:13:39Z</time></trkpt><trkpt lat="45.39919572055677" lon="10.590416315320416"><ele>110.0</ele><time>2026-03-29T09:13:40Z</time></trkpt><trkpt lat="45.39917175556679" lon="10.590081304046015"><ele>110.0</ele><time>2026-03-29T09:13:41Z</time></trkpt><trkpt lat="45.39910725102744" lon="10.589754249743784"><ele>109.0</ele><time>2026-03-29T09:13:42Z</time></trkpt><trkpt lat="45.3990634780605" lon="10.589428507537901"><ele>108.0</ele><time>2026-03-29T09:13:43Z</time></trkpt><trkpt lat="45.39899438865937" lon="10.589101710580906"><ele>108.0</ele><time>2026-03-29T09:13:44Z</time></trkpt><trkpt lat="45.39891860102308" lon="10.58877283178988"><ele>108.0</ele><time>2026-03-29T09:13:45Z</time></trkpt><trkpt lat="45.398839562564795" lon="10.588420325833177"><ele>108.0</ele><time>2026-03-29T09:13:46Z</time></trkpt><trkpt lat="45.39875561818573" lon="10.588073925527057"><ele>108.0</ele><time>2026-03-29T09:13:47Z</time></trkpt><trkpt lat="45.3986775363825" lon="10.587746495406638"><ele>107.0</ele><time>2026-03-29T09:13:48Z</time></trkpt><trkpt lat="45.39858699766357" lon="10.58742734937915"><ele>106.0</ele><time>2026-03-29T09:13:49Z</time></trkpt><trkpt lat="45.398517253561636" lon="10.587117268105075"><ele>106.0</ele><time>2026-03-29T09:13:50Z</time></trkpt><trkpt lat="45.39844950177802" lon="10.586821945603148"><ele>106.0</ele><time>2026-03-29T09:13:51Z</time></trkpt><trkpt lat="45.398388676577774" lon="10.58652263046544"><ele>106.0</ele><time>2026-03-29T09:13:52Z</time></trkpt><trkpt lat="45.39831610918211" lon="10.586259073759544"><ele>105.66666666666667</ele><time>2026-03-29T09:13:53Z</time></trkpt><trkpt lat="45.398248191391986" lon="10.586014015406178"><ele>105.33333333333334</ele><time>2026-03-29T09:13:54Z</time></trkpt><trkpt lat="45.39817946209369" lon="10.585778960736533"><ele>105.0</ele><time>2026-03-29T09:13:55Z</time></trkpt><trkpt lat="45.39811789870832" lon="10.585570822449247"><ele>105.0</ele><time>2026-03-29T09:13:56Z</time></trkpt><trkpt lat="45.39806159237726" lon="10.585383714890929"><ele>105.0</ele><time>2026-03-29T09:13:57Z</time></trkpt><trkpt lat="45.398012699003" lon="10.58522124079439"><ele>105.0</ele><time>2026-03-29T09:13:58Z</time></trkpt><trkpt lat="45.397967314340335" lon="10.585070426259168"><ele>105.0</ele><time>2026-03-29T09:13:59Z</time></trkpt><trkpt lat="45.39793155408945" lon="10.584951593918454"><ele>104.6</ele><time>2026-03-29T09:14:00Z</time></trkpt><trkpt lat="45.397901718074884" lon="10.584837319645088"><ele>104.2</ele><time>2026-03-29T09:14:02Z</time></trkpt><trkpt lat="45.39801098445254" lon="10.584865984928612"><ele>103.80000000000001</ele><time>2026-03-29T09:14:04Z</time></trkpt><trkpt lat="45.39812201452393" lon="10.58485684827639"><ele>103.4</ele><time>2026-03-29T09:14:05Z</time></trkpt><trkpt lat="45.398232017136785" lon="10.58485038875114"><ele>103.0</ele><time>2026-03-29T09:14:06Z</time></trkpt><trkpt lat="45.398374080831125" lon="10.584820804534534"><ele>103.0</ele><time>2026-03-29T09:14:07Z</time></trkpt><trkpt lat="45.39854705750122" lon="10.584821685324176"><ele>103.0</ele><time>2026-03-29T09:14:08Z</time></trkpt><trkpt lat="45.39872254581236" lon="10.584850981459008"><ele>103.0</ele><time>2026-03-29T09:14:09Z</time></trkpt><trkpt lat="45.398906794868026" lon="10.584848568359888"><ele>102.0</ele><time>2026-03-29T09:14:10Z</time></trkpt><trkpt lat="45.39910296824174" lon="10.584878992233765"><ele>101.0</ele><time>2026-03-29T09:14:11Z</time></trkpt><trkpt lat="45.39930352067675" lon="10.584899061960217"><ele>100.0</ele><time>2026-03-29T09:14:12Z</time></trkpt><trkpt lat="45.39951149570109" lon="10.584905693347666"><ele>99.33333333333334</ele><time>2026-03-29T09:14:13Z</time></trkpt><trkpt lat="45.39971833751381" lon="10.58490801192249"><ele>98.66666666666666</ele><time>2026-03-29T09:14:14Z</time></trkpt><trkpt lat="45.399908512420566" lon="10.584905317057341"><ele>98.0</ele><time>2026-03-29T09:14:15Z</time></trkpt><trkpt lat="45.40010577066354" lon="10.584899720643584"><ele>98.0</ele><time>2026-03-29T09:14:16Z</time></trkpt><trkpt lat="45.400290972366705" lon="10.5848865318894"><ele>98.0</ele><time>2026-03-29T09:14:17Z</time></trkpt><trkpt lat="45.40044790759915" lon="10.584865361089962"><ele>98.0</ele><time>2026-03-29T09:14:18Z</time></trkpt><trkpt lat="45.40059403688877" lon="10.584846270802037"><ele>98.75</ele><time>2026-03-29T09:14:19Z</time></trkpt><trkpt lat="45.40072272932311" lon="10.584826198945109"><ele>99.5</ele><time>2026-03-29T09:14:20Z</time></trkpt><trkpt lat="45.40085491900969" lon="10.584799546202937"><ele>100.25</ele><time>2026-03-29T09:14:21Z</time></trkpt><trkpt lat="45.40099374390967" lon="10.584786604827718"><ele>101.0</ele><time>2026-03-29T09:14:22Z</time></trkpt><trkpt lat="45.401126786584385" lon="10.584807879102524"><ele>101.0</ele><time>2026-03-29T09:14:23Z</time></trkpt><trkpt lat="45.401246341337675" lon="10.584816451607315"><ele>101.0</ele><time>2026-03-29T09:14:24Z</time></trkpt><trkpt lat="45.40137809466254" lon="10.584806902909337"><ele>101.0</ele><time>2026-03-29T09:14:25Z</time></trkpt><trkpt lat="45.40152916116007" lon="10.584849775731804"><ele>101.0</ele><time>2026-03-29T09:14:26Z</time></trkpt><trkpt lat="45.40167708529229" lon="10.58487567766261"><ele>100.25</ele><time>2026-03-29T09:14:27Z</time></trkpt><trkpt lat="45.401819228520736" lon="10.584920852499412"><ele>99.5</ele><time>2026-03-29T09:14:28Z</time></trkpt><trkpt lat="45.40194161165275" lon="10.5849586522088"><ele>98.75</ele><time>2026-03-29T09:14:29Z</time></trkpt><trkpt lat="45.40205432106453" lon="10.584990494927506"><ele>98.0</ele><time>2026-03-29T09:14:30Z</time></trkpt><trkpt lat="45.40214459365096" lon="10.585010402224226"><ele>97.4</ele><time>2026-03-29T09:14:31Z</time></trkpt><trkpt lat="45.402209834933316" lon="10.585029409512112"><ele>96.80000000000001</ele><time>2026-03-29T09:14:32Z</time></trkpt><trkpt lat="45.4023228389424" lon="10.585008091401571"><ele>96.2</ele><time>2026-03-29T09:14:34Z</time></trkpt><trkpt lat="45.4023793998953" lon="10.584899382522007"><ele>95.6</ele><time>2026-03-29T09:14:35Z</time></trkpt><trkpt lat="45.402378781075065" lon="10.58473320291872"><ele>95.0</ele><time>2026-03-29T09:14:36Z</time></trkpt><trkpt lat="45.40242934614497" lon="10.584572272002214"><ele>95.66666666666667</ele><time>2026-03-29T09:14:37Z</time></trkpt><trkpt lat="45.402478816443455" lon="10.584373225682777"><ele>96.33333333333334</ele><time>2026-03-29T09:14:38Z</time></trkpt><trkpt lat="45.40253540297306" lon="10.584150384903651"><ele>97.0</ele><time>2026-03-29T09:14:39Z</time></trkpt><trkpt lat="45.40260108319013" lon="10.583938220180796"><ele>97.0</ele><time>2026-03-29T09:14:40Z</time></trkpt><trkpt lat="45.40268021879117" lon="10.583722531727304"><ele>97.0</ele><time>2026-03-29T09:14:41Z</time></trkpt><trkpt lat="45.40276196237954" lon="10.583507098643752"><ele>97.0</ele><time>2026-03-29T09:14:42Z</time></trkpt><trkpt lat="45.40284505167963" lon="10.583293576646458"><ele>97.33333333333334</ele><time>2026-03-29T09:14:43Z</time></trkpt><trkpt lat="45.402929215139885" lon="10.583084884032305"><ele>97.66666666666666</ele><time>2026-03-29T09:14:44Z</time></trkpt><trkpt lat="45.40300914653457" lon="10.58289676745953"><ele>98.0</ele><time>2026-03-29T09:14:45Z</time></trkpt><trkpt lat="45.40307696716685" lon="10.582694952401487"><ele>97.0</ele><time>2026-03-29T09:14:46Z</time></trkpt><trkpt lat="45.40317746816975" lon="10.582519504532279"><ele>96.0</ele><time>2026-03-29T09:14:47Z</time></trkpt><trkpt lat="45.40327580132251" lon="10.582324312125563"><ele>95.0</ele><time>2026-03-29T09:14:48Z</time></trkpt><trkpt lat="45.40336757452429" lon="10.582120562116335"><ele>95.0</ele><time>2026-03-29T09:14:49Z</time></trkpt><trkpt lat="45.40345115206268" lon="10.581890057997693"><ele>95.0</ele><time>2026-03-29T09:14:50Z</time></trkpt><trkpt lat="45.4035270765824" lon="10.581677839815697"><ele>95.0</ele><time>2026-03-29T09:14:51Z</time></trkpt><trkpt lat="45.40357912282421" lon="10.58148075956191"><ele>95.0</ele><time>2026-03-29T09:14:52Z</time></trkpt><trkpt lat="45.40364325928267" lon="10.58131928735747"><ele>95.0</ele><time>2026-03-29T09:14:53Z</time></trkpt><trkpt lat="45.40370839231905" lon="10.581187717267206"><ele>95.0</ele><time>2026-03-29T09:14:54Z</time></trkpt><trkpt lat="45.40374479091499" lon="10.58106150608227"><ele>95.0</ele><time>2026-03-29T09:14:55Z</time></trkpt><trkpt lat="45.4037924838469" lon="10.580959192289603"><ele>95.0</ele><time>2026-03-29T09:14:56Z</time></trkpt><trkpt lat="45.403852056849935" lon="10.58082826555245"><ele>94.75</ele><time>2026-03-29T09:14:57Z</time></trkpt><trkpt lat="45.403912002667546" lon="10.580674955745852"><ele>94.5</ele><time>2026-03-29T09:14:58Z</time></trkpt><trkpt lat="45.403967499718576" lon="10.580495625673189"><ele>94.25</ele><time>2026-03-29T09:14:59Z</time></trkpt><trkpt lat="45.404028119940854" lon="10.580303180880637"><ele>94.0</ele><time>2026-03-29T09:15:00Z</time></trkpt><trkpt lat="45.40409709116246" lon="10.580094006203277"><ele>94.66666666666666</ele><time>2026-03-29T09:15:01Z</time></trkpt><trkpt lat="45.40418540668546" lon="10.579899694832196"><ele>95.33333333333333</ele><time>2026-03-29T09:15:02Z</time></trkpt><trkpt lat="45.40426101054304" lon="10.579698718546872"><ele>96.0</ele><time>2026-03-29T09:15:03Z</time></trkpt><trkpt lat="45.4043411075117" lon="10.579497790357973"><ele>96.25</ele><time>2026-03-29T09:15:04Z</time></trkpt><trkpt lat="45.4044213618354" lon="10.579307540289625"><ele>96.5</ele><time>2026-03-29T09:15:05Z</time></trkpt><trkpt lat="45.404496816807196" lon="10.579134148396207"><ele>96.75</ele><time>2026-03-29T09:15:06Z</time></trkpt><trkpt lat="45.404573416962734" lon="10.578959882330311"><ele>97.0</ele><time>2026-03-29T09:15:07Z</time></trkpt><trkpt lat="45.40465531847024" lon="10.578777839508803"><ele>96.0</ele><time>2026-03-29T09:15:08Z</time></trkpt><trkpt lat="45.40473545442419" lon="10.57859127898895"><ele>95.0</ele><time>2026-03-29T09:15:09Z</time></trkpt><trkpt lat="45.404818731477" lon="10.578402865420733"><ele>94.0</ele><time>2026-03-29T09:15:10Z</time></trkpt><trkpt lat="45.40490483954013" lon="10.578213830510908"><ele>94.0</ele><time>2026-03-29T09:15:11Z</time></trkpt><trkpt lat="45.404991455604204" lon="10.578020169735156"><ele>94.0</ele><time>2026-03-29T09:15:12Z</time></trkpt><trkpt lat="45.40506971388047" lon="10.577841664221861"><ele>94.0</ele><time>2026-03-29T09:15:13Z</time></trkpt><trkpt lat="45.40514764446788" lon="10.577650504592924"><ele>94.33333333333333</ele><time>2026-03-29T09:15:14Z</time></trkpt><trkpt lat="45.4052166262096" lon="10.577437946642531"><ele>94.66666666666667</ele><time>2026-03-29T09:15:15Z</time></trkpt><trkpt lat="45.40527700849323" lon="10.577239730320777"><ele>95.0</ele><time>2026-03-29T09:15:16Z</time></trkpt><trkpt lat="45.405330854494686" lon="10.577059491589766"><ele>95.16666666666667</ele><time>2026-03-29T09:15:17Z</time></trkpt><trkpt lat="45.40537806315951" lon="10.57689848712122"><ele>95.33333333333334</ele><time>2026-03-29T09:15:18Z</time></trkpt><trkpt lat="45.405397623351675" lon="10.576769522412341"><ele>95.5</ele><time>2026-03-29T09:15:19Z</time></trkpt><trkpt lat="45.40543327206221" lon="10.57668103588564"><ele>95.66666666666667</ele><time>2026-03-29T09:15:20Z</time></trkpt><trkpt lat="45.405445150308786" lon="10.576592065019067"><ele>95.83333333333333</ele><time>2026-03-29T09:15:21Z</time></trkpt><trkpt lat="45.40544113412084" lon="10.576493786131088"><ele>96.0</ele><time>2026-03-29T09:15:22Z</time></trkpt><trkpt lat="45.40528669071599" lon="10.576430363281572"><ele>96.0</ele><time>2026-03-29T09:15:23Z</time></trkpt><trkpt lat="45.405178090795076" lon="10.576366528435502"><ele>96.0</ele><time>2026-03-29T09:15:24Z</time></trkpt><trkpt lat="45.40504182137321" lon="10.576294184089514"><ele>96.0</ele><time>2026-03-29T09:15:25Z</time></trkpt><trkpt lat="45.40488466403448" lon="10.576195025422649"><ele>96.0</ele><time>2026-03-29T09:15:26Z</time></trkpt><trkpt lat="45.40472998971932" lon="10.576106363682499"><ele>96.33333333333334</ele><time>2026-03-29T09:15:27Z</time></trkpt><trkpt lat="45.404578605926496" lon="10.576008584189521"><ele>96.66666666666667</ele><time>2026-03-29T09:15:28Z</time></trkpt><trkpt lat="45.40442854739287" lon="10.575916972026516"><ele>97.0</ele><time>2026-03-29T09:15:29Z</time></trkpt><trkpt lat="45.404269698972094" lon="10.575808128124807"><ele>97.0</ele><time>2026-03-29T09:15:30Z</time></trkpt><trkpt lat="45.40409906290079" lon="10.575719202091864"><ele>97.0</ele><time>2026-03-29T09:15:31Z</time></trkpt><trkpt lat="45.403937676887665" lon="10.575618617503695"><ele>97.0</ele><time>2026-03-29T09:15:32Z</time></trkpt><trkpt lat="45.40377818121477" lon="10.575517463210103"><ele>97.33333333333334</ele><time>2026-03-29T09:15:33Z</time></trkpt><trkpt lat="45.403642547726584" lon="10.57543235418595"><ele>97.66666666666666</ele><time>2026-03-29T09:15:34Z</time></trkpt><trkpt lat="45.40349777456523" lon="10.575343219784589"><ele>98.0</ele><time>2026-03-29T09:15:35Z</time></trkpt><trkpt lat="45.403365256459395" lon="10.575262131694151"><ele>98.0</ele><time>2026-03-29T09:15:36Z</time></trkpt><trkpt lat="45.40323044353492" lon="10.575181847754788"><ele>98.0</ele><time>2026-03-29T09:15:37Z</time></trkpt><trkpt lat="45.403098742936585" lon="10.575105523495207"><ele>98.0</ele><time>2026-03-29T09:15:38Z</time></trkpt><trkpt lat="45.40297496006144" lon="10.575042562433303"><ele>98.0</ele><time>2026-03-29T09:15:39Z</time></trkpt><trkpt lat="45.40285165367371" lon="10.574994624479208"><ele>98.0</ele><time>2026-03-29T09:15:40Z</time></trkpt><trkpt lat="45.40273525811988" lon="10.574961205716487"><ele>98.0</ele><time>2026-03-29T09:15:41Z</time></trkpt><trkpt lat="45.40261954324611" lon="10.574934729451979"><ele>98.0</ele><time>2026-03-29T09:15:42Z</time></trkpt><trkpt lat="45.4025052504368" lon="10.574887496280475"><ele>98.0</ele><time>2026-03-29T09:15:43Z</time></trkpt><trkpt lat="45.40239467966983" lon="10.574801752923738"><ele>98.0</ele><time>2026-03-29T09:15:44Z</time></trkpt><trkpt lat="45.402307984097185" lon="10.574661417349487"><ele>98.0</ele><time>2026-03-29T09:15:45Z</time></trkpt><trkpt lat="45.402199602830585" lon="10.574531094294464"><ele>98.0</ele><time>2026-03-29T09:15:46Z</time></trkpt><trkpt lat="45.402096605494656" lon="10.574377151016426"><ele>98.0</ele><time>2026-03-29T09:15:47Z</time></trkpt><trkpt lat="45.40197565905067" lon="10.574211849739648"><ele>98.0</ele><time>2026-03-29T09:15:48Z</time></trkpt><trkpt lat="45.40185815318814" lon="10.5740395737734"><ele>98.0</ele><time>2026-03-29T09:15:49Z</time></trkpt><trkpt lat="45.40173992894616" lon="10.573867262639851"><ele>98.0</ele><time>2026-03-29T09:15:50Z</time></trkpt><trkpt lat="45.40162030729022" lon="10.573693626583475"><ele>97.66666666666666</ele><time>2026-03-29T09:15:51Z</time></trkpt><trkpt lat="45.40151274105665" lon="10.573538834015814"><ele>97.33333333333334</ele><time>2026-03-29T09:15:52Z</time></trkpt><trkpt lat="45.401404417960336" lon="10.573385125586961"><ele>97.0</ele><time>2026-03-29T09:15:53Z</time></trkpt><trkpt lat="45.40129207519392" lon="10.573227279494414"><ele>97.0</ele><time>2026-03-29T09:15:54Z</time></trkpt><trkpt lat="45.40118991987188" lon="10.573079761416185"><ele>97.0</ele><time>2026-03-29T09:15:55Z</time></trkpt><trkpt lat="45.4011064952939" lon="10.572953572088439"><ele>97.0</ele><time>2026-03-29T09:15:56Z</time></trkpt><trkpt lat="45.401039428380166" lon="10.572849754420378"><ele>97.0</ele><time>2026-03-29T09:15:57Z</time></trkpt><trkpt lat="45.40097895344876" lon="10.572759309800714"><ele>97.50000000000001</ele><time>2026-03-29T09:15:58Z</time></trkpt><trkpt lat="45.40092417733424" lon="10.572678216344325"><ele>98.0</ele><time>2026-03-29T09:15:59Z</time></trkpt><trkpt lat="45.40087808635296" lon="10.572594056709738"><ele>98.5</ele><time>2026-03-29T09:16:00Z</time></trkpt><trkpt lat="45.40084372146853" lon="10.57250934108953"><ele>99.0</ele><time>2026-03-29T09:16:01Z</time></trkpt><trkpt lat="45.400851980783386" lon="10.57241668700507"><ele>99.50000000000001</ele><time>2026-03-29T09:16:02Z</time></trkpt><trkpt lat="45.4008719211556" lon="10.572287725341383"><ele>100.0</ele><time>2026-03-29T09:16:04Z</time></trkpt><trkpt lat="45.40098455302095" lon="10.572219837418796"><ele>100.0</ele><time>2026-03-29T09:16:06Z</time></trkpt><trkpt lat="45.40106049284943" lon="10.572144642690136"><ele>100.0</ele><time>2026-03-29T09:16:07Z</time></trkpt><trkpt lat="45.401143011986605" lon="10.572055780417251"><ele>100.0</ele><time>2026-03-29T09:16:08Z</time></trkpt><trkpt lat="45.40123609231437" lon="10.571960846309807"><ele>100.0</ele><time>2026-03-29T09:16:09Z</time></trkpt><trkpt lat="45.40133420058801" lon="10.571860294876066"><ele>100.0</ele><time>2026-03-29T09:16:10Z</time></trkpt><trkpt lat="45.401438032223346" lon="10.571759463221621"><ele>100.25</ele><time>2026-03-29T09:16:11Z</time></trkpt><trkpt lat="45.401516275299194" lon="10.571622167753683"><ele>100.5</ele><time>2026-03-29T09:16:12Z</time></trkpt><trkpt lat="45.40160943772334" lon="10.571530766133446"><ele>100.75</ele><time>2026-03-29T09:16:13Z</time></trkpt><trkpt lat="45.401650072502655" lon="10.571341341182316"><ele>101.0</ele><time>2026-03-29T09:16:14Z</time></trkpt><trkpt lat="45.40173131350318" lon="10.571146945379883"><ele>101.33333333333333</ele><time>2026-03-29T09:16:15Z</time></trkpt><trkpt lat="45.4019852078529" lon="10.571101227423478"><ele>101.66666666666666</ele><time>2026-03-29T09:16:16Z</time></trkpt><trkpt lat="45.4021055966757" lon="10.570955427874106"><ele>102.0</ele><time>2026-03-29T09:16:17Z</time></trkpt><trkpt lat="45.402241647095984" lon="10.570787620472966"><ele>101.33333333333334</ele><time>2026-03-29T09:16:18Z</time></trkpt><trkpt lat="45.402389043794294" lon="10.570596000206221"><ele>100.66666666666667</ele><time>2026-03-29T09:16:19Z</time></trkpt><trkpt lat="45.402545438484076" lon="10.570408386923223"><ele>100.0</ele><time>2026-03-29T09:16:20Z</time></trkpt><trkpt lat="45.40268486407296" lon="10.57024213085333"><ele>100.0</ele><time>2026-03-29T09:16:21Z</time></trkpt><trkpt lat="45.40284401188514" lon="10.570069850824988"><ele>100.0</ele><time>2026-03-29T09:16:22Z</time></trkpt><trkpt lat="45.40297795464954" lon="10.569901911874975"><ele>100.0</ele><time>2026-03-29T09:16:23Z</time></trkpt><trkpt lat="45.403118801166926" lon="10.569742214590859"><ele>99.0</ele><time>2026-03-29T09:16:24Z</time></trkpt><trkpt lat="45.40324488682722" lon="10.569590703274834"><ele>98.0</ele><time>2026-03-29T09:16:25Z</time></trkpt><trkpt lat="45.40337957120371" lon="10.569433719152274"><ele>97.0</ele><time>2026-03-29T09:16:26Z</time></trkpt><trkpt lat="45.40351096252488" lon="10.569286438336352"><ele>97.0</ele><time>2026-03-29T09:16:27Z</time></trkpt><trkpt lat="45.403640985523" lon="10.569141444484014"><ele>97.0</ele><time>2026-03-29T09:16:28Z</time></trkpt><trkpt lat="45.403774119334436" lon="10.568988074426303"><ele>97.0</ele><time>2026-03-29T09:16:29Z</time></trkpt><trkpt lat="45.4039077895033" lon="10.56883328044162"><ele>97.33333333333334</ele><time>2026-03-29T09:16:30Z</time></trkpt><trkpt lat="45.40403848314113" lon="10.568682562304813"><ele>97.66666666666666</ele><time>2026-03-29T09:16:31Z</time></trkpt><trkpt lat="45.40415224244326" lon="10.568544534291508"><ele>98.0</ele><time>2026-03-29T09:16:32Z</time></trkpt><trkpt lat="45.404268875407304" lon="10.568402674342746"><ele>98.0</ele><time>2026-03-29T09:16:33Z</time></trkpt><trkpt lat="45.404386661099466" lon="10.568230775116147"><ele>98.0</ele><time>2026-03-29T09:16:34Z</time></trkpt><trkpt lat="45.40449729064226" lon="10.568067269409593"><ele>98.0</ele><time>2026-03-29T09:16:35Z</time></trkpt><trkpt lat="45.4046215188721" lon="10.567882419932255"><ele>97.0</ele><time>2026-03-29T09:16:36Z</time></trkpt><trkpt lat="45.4047284178026" lon="10.567710543118032"><ele>96.0</ele><time>2026-03-29T09:16:37Z</time></trkpt><trkpt lat="45.404835214196765" lon="10.567518996179933"><ele>95.0</ele><time>2026-03-29T09:16:38Z</time></trkpt><trkpt lat="45.40494096881443" lon="10.567324296347083"><ele>95.0</ele><time>2026-03-29T09:16:39Z</time></trkpt><trkpt lat="45.40504349447303" lon="10.56714777926757"><ele>95.0</ele><time>2026-03-29T09:16:40Z</time></trkpt><trkpt lat="45.40515371792936" lon="10.566951371530827"><ele>95.0</ele><time>2026-03-29T09:16:41Z</time></trkpt><trkpt lat="45.405254509181134" lon="10.566784414583164"><ele>95.33333333333334</ele><time>2026-03-29T09:16:42Z</time></trkpt><trkpt lat="45.40536201520498" lon="10.566586551311664"><ele>95.66666666666667</ele><time>2026-03-29T09:16:43Z</time></trkpt><trkpt lat="45.405475709177786" lon="10.566387135773208"><ele>96.0</ele><time>2026-03-29T09:16:44Z</time></trkpt><trkpt lat="45.4055772374125" lon="10.5662069714319"><ele>96.0</ele><time>2026-03-29T09:16:45Z</time></trkpt><trkpt lat="45.405676150427595" lon="10.566030595868856"><ele>96.0</ele><time>2026-03-29T09:16:46Z</time></trkpt><trkpt lat="45.405773687271214" lon="10.565872520386337"><ele>96.0</ele><time>2026-03-29T09:16:47Z</time></trkpt><trkpt lat="45.40586044540589" lon="10.565746852138826"><ele>96.0</ele><time>2026-03-29T09:16:48Z</time></trkpt><trkpt lat="45.40594171000728" lon="10.565617343663419"><ele>96.0</ele><time>2026-03-29T09:16:49Z</time></trkpt><trkpt lat="45.40601427348743" lon="10.56550421354906"><ele>96.0</ele><time>2026-03-29T09:16:50Z</time></trkpt><trkpt lat="45.40607805859612" lon="10.565403143701271"><ele>96.0</ele><time>2026-03-29T09:16:51Z</time></trkpt><trkpt lat="45.40612277508685" lon="10.565316766969884"><ele>96.0</ele><time>2026-03-29T09:16:52Z</time></trkpt><trkpt lat="45.40614055404731" lon="10.565227979388151"><ele>96.0</ele><time>2026-03-29T09:16:53Z</time></trkpt><trkpt lat="45.4061242842031" lon="10.56513051927554"><ele>96.0</ele><time>2026-03-29T09:16:54Z</time></trkpt><trkpt lat="45.40608288511148" lon="10.565017014739256"><ele>96.19999999999999</ele><time>2026-03-29T09:16:55Z</time></trkpt><trkpt lat="45.40601673388425" lon="10.564899291421511"><ele>96.39999999999999</ele><time>2026-03-29T09:16:56Z</time></trkpt><trkpt lat="45.40597771329622" lon="10.564766305817473"><ele>96.6</ele><time>2026-03-29T09:16:57Z</time></trkpt><trkpt lat="45.40598690667059" lon="10.564662025436846"><ele>96.8</ele><time>2026-03-29T09:16:58Z</time></trkpt><trkpt lat="45.40602623347883" lon="10.564544818824144"><ele>97.0</ele><time>2026-03-29T09:16:59Z</time></trkpt><trkpt lat="45.40611022999665" lon="10.564490409249471"><ele>97.0</ele><time>2026-03-29T09:17:00Z</time></trkpt><trkpt lat="45.40621323960834" lon="10.56444079159482"><ele>97.0</ele><time>2026-03-29T09:17:01Z</time></trkpt><trkpt lat="45.40633684009957" lon="10.56434536634601"><ele>97.0</ele><time>2026-03-29T09:17:02Z</time></trkpt><trkpt lat="45.406474471279715" lon="10.56423565938673"><ele>97.0</ele><time>2026-03-29T09:17:03Z</time></trkpt><trkpt lat="45.406609242369356" lon="10.56412465640119"><ele>97.0</ele><time>2026-03-29T09:17:04Z</time></trkpt><trkpt lat="45.406764479104496" lon="10.56400470230286"><ele>97.0</ele><time>2026-03-29T09:17:05Z</time></trkpt><trkpt lat="45.4069361815634" lon="10.563879749352303"><ele>97.0</ele><time>2026-03-29T09:17:06Z</time></trkpt><trkpt lat="45.407087212320725" lon="10.563766288350704"><ele>97.33333333333334</ele><time>2026-03-29T09:17:07Z</time></trkpt><trkpt lat="45.407254121570084" lon="10.56365271270044"><ele>97.66666666666666</ele><time>2026-03-29T09:17:08Z</time></trkpt><trkpt lat="45.407426910497264" lon="10.56353636637982"><ele>98.0</ele><time>2026-03-29T09:17:09Z</time></trkpt><trkpt lat="45.407603504253366" lon="10.56341388518912"><ele>98.0</ele><time>2026-03-29T09:17:10Z</time></trkpt><trkpt lat="45.40776953973568" lon="10.563306521482643"><ele>98.0</ele><time>2026-03-29T09:17:11Z</time></trkpt><trkpt lat="45.40794275869565" lon="10.563218653104153"><ele>98.0</ele><time>2026-03-29T09:17:12Z</time></trkpt><trkpt lat="45.40811151892284" lon="10.563139023256058"><ele>97.66666666666666</ele><time>2026-03-29T09:17:13Z</time></trkpt><trkpt lat="45.40829756938933" lon="10.563055221913656"><ele>97.33333333333334</ele><time>2026-03-29T09:17:14Z</time></trkpt><trkpt lat="45.40847287587062" lon="10.562975684486917"><ele>97.0</ele><time>2026-03-29T09:17:15Z</time></trkpt><trkpt lat="45.408652662765114" lon="10.562900696666528"><ele>96.66666666666667</ele><time>2026-03-29T09:17:16Z</time></trkpt><trkpt lat="45.408838367129476" lon="10.562823796198236"><ele>96.33333333333334</ele><time>2026-03-29T09:17:17Z</time></trkpt><trkpt lat="45.40903077516736" lon="10.562751127617767"><ele>96.0</ele><time>2026-03-29T09:17:18Z</time></trkpt><trkpt lat="45.40921337337125" lon="10.562683725693079"><ele>96.0</ele><time>2026-03-29T09:17:19Z</time></trkpt><trkpt lat="45.409390122520065" lon="10.562605734620728"><ele>96.0</ele><time>2026-03-29T09:17:20Z</time></trkpt><trkpt lat="45.4095570002712" lon="10.562533712706857"><ele>96.0</ele><time>2026-03-29T09:17:21Z</time></trkpt><trkpt lat="45.40970862160488" lon="10.562466231330822"><ele>96.0</ele><time>2026-03-29T09:17:22Z</time></trkpt><trkpt lat="45.409852372861465" lon="10.562396070557366"><ele>96.0</ele><time>2026-03-29T09:17:23Z</time></trkpt><trkpt lat="45.40997729643984" lon="10.562337641468156"><ele>96.0</ele><time>2026-03-29T09:17:24Z</time></trkpt><trkpt lat="45.41010598456393" lon="10.562331483835296"><ele>96.0</ele><time>2026-03-29T09:17:25Z</time></trkpt><trkpt lat="45.4102316603548" lon="10.56229981186641"><ele>96.0</ele><time>2026-03-29T09:17:26Z</time></trkpt><trkpt lat="45.410356262085756" lon="10.56230082226342"><ele>96.0</ele><time>2026-03-29T09:17:27Z</time></trkpt><trkpt lat="45.4104824838185" lon="10.562321848937339"><ele>96.0</ele><time>2026-03-29T09:17:28Z</time></trkpt><trkpt lat="45.410625793020344" lon="10.562343141633969"><ele>96.0</ele><time>2026-03-29T09:17:29Z</time></trkpt><trkpt lat="45.41078255431028" lon="10.562400234837368"><ele>97.0</ele><time>2026-03-29T09:17:30Z</time></trkpt><trkpt lat="45.410955903277376" lon="10.562454484906866"><ele>98.0</ele><time>2026-03-29T09:17:31Z</time></trkpt><trkpt lat="45.411106767539216" lon="10.562545550240939"><ele>99.0</ele><time>2026-03-29T09:17:32Z</time></trkpt><trkpt lat="45.411246560547326" lon="10.562635391698858"><ele>98.75</ele><time>2026-03-29T09:17:33Z</time></trkpt><trkpt lat="45.411375175508205" lon="10.562725391910622"><ele>98.5</ele><time>2026-03-29T09:17:34Z</time></trkpt><trkpt lat="45.411491820179506" lon="10.562815229837963"><ele>98.25</ele><time>2026-03-29T09:17:35Z</time></trkpt><trkpt lat="45.411616114352036" lon="10.56292146861655"><ele>98.0</ele><time>2026-03-29T09:17:36Z</time></trkpt><trkpt lat="45.41174724288408" lon="10.563039023424864"><ele>98.0</ele><time>2026-03-29T09:17:37Z</time></trkpt><trkpt lat="45.41189311821042" lon="10.563165257802941"><ele>98.0</ele><time>2026-03-29T09:17:38Z</time></trkpt><trkpt lat="45.4120322063336" lon="10.563281943632079"><ele>98.0</ele><time>2026-03-29T09:17:39Z</time></trkpt><trkpt lat="45.41217372113295" lon="10.563407770212464"><ele>97.66666666666666</ele><time>2026-03-29T09:17:40Z</time></trkpt><trkpt lat="45.41230889049237" lon="10.563533600228741"><ele>97.33333333333334</ele><time>2026-03-29T09:17:41Z</time></trkpt><trkpt lat="45.412450210217585" lon="10.56367159600058"><ele>97.0</ele><time>2026-03-29T09:17:42Z</time></trkpt><trkpt lat="45.41259130763713" lon="10.563801665347643"><ele>97.0</ele><time>2026-03-29T09:17:43Z</time></trkpt><trkpt lat="45.41270416858621" lon="10.563950590680532"><ele>97.0</ele><time>2026-03-29T09:17:44Z</time></trkpt><trkpt lat="45.41281578887917" lon="10.56409590793128"><ele>97.0</ele><time>2026-03-29T09:17:45Z</time></trkpt><trkpt lat="45.412926379581045" lon="10.56426227594479"><ele>97.0</ele><time>2026-03-29T09:17:46Z</time></trkpt><trkpt lat="45.413064491214364" lon="10.564379825232672"><ele>97.0</ele><time>2026-03-29T09:17:47Z</time></trkpt><trkpt lat="45.41319357770794" lon="10.564466186136661"><ele>97.0</ele><time>2026-03-29T09:17:48Z</time></trkpt><trkpt lat="45.41332545965223" lon="10.564557664977253"><ele>97.19999999999999</ele><time>2026-03-29T09:17:49Z</time></trkpt><trkpt lat="45.4134434597389" lon="10.56462951559579"><ele>97.4</ele><time>2026-03-29T09:17:50Z</time></trkpt><trkpt lat="45.41355259219254" lon="10.564674985735069"><ele>97.6</ele><time>2026-03-29T09:17:51Z</time></trkpt><trkpt lat="45.41364180035759" lon="10.564698682859285"><ele>97.80000000000001</ele><time>2026-03-29T09:17:52Z</time></trkpt><trkpt lat="45.413729135244445" lon="10.564764717794642"><ele>98.0</ele><time>2026-03-29T09:17:53Z</time></trkpt><trkpt lat="45.41381080833042" lon="10.564806286461945"><ele>98.66666666666666</ele><time>2026-03-29T09:17:54Z</time></trkpt><trkpt lat="45.41393387226702" lon="10.56464569042542"><ele>99.33333333333334</ele><time>2026-03-29T09:17:55Z</time></trkpt><trkpt lat="45.414057950974644" lon="10.56454930677615"><ele>100.0</ele><time>2026-03-29T09:17:56Z</time></trkpt><trkpt lat="45.41418197701788" lon="10.564448184683135"><ele>100.0</ele><time>2026-03-29T09:17:57Z</time></trkpt><trkpt lat="45.414355859068415" lon="10.564334022434666"><ele>100.0</ele><time>2026-03-29T09:17:58Z</time></trkpt><trkpt lat="45.41454818044296" lon="10.564234019351705"><ele>100.0</ele><time>2026-03-29T09:17:59Z</time></trkpt><trkpt lat="45.41474263656309" lon="10.564119804003644"><ele>101.66666666666667</ele><time>2026-03-29T09:18:00Z</time></trkpt><trkpt lat="45.414943917318" lon="10.564018178551654"><ele>103.33333333333334</ele><time>2026-03-29T09:18:01Z</time></trkpt><trkpt lat="45.41513704072935" lon="10.564002145838105"><ele>105.0</ele><time>2026-03-29T09:18:02Z</time></trkpt><trkpt lat="45.415323918211726" lon="10.563977421208925"><ele>105.66666666666666</ele><time>2026-03-29T09:18:03Z</time></trkpt><trkpt lat="45.41552128787198" lon="10.563995909241491"><ele>106.33333333333333</ele><time>2026-03-29T09:18:04Z</time></trkpt><trkpt lat="45.41571206555851" lon="10.5639301558962"><ele>107.0</ele><time>2026-03-29T09:18:05Z</time></trkpt><trkpt lat="45.415889927389635" lon="10.56382574450456"><ele>107.0</ele><time>2026-03-29T09:18:06Z</time></trkpt><trkpt lat="45.416065366134184" lon="10.563716051725732"><ele>107.0</ele><time>2026-03-29T09:18:07Z</time></trkpt><trkpt lat="45.41622436750497" lon="10.563625350239029"><ele>107.0</ele><time>2026-03-29T09:18:08Z</time></trkpt><trkpt lat="45.41633656921817" lon="10.56356990794791"><ele>107.19999999999999</ele><time>2026-03-29T09:18:09Z</time></trkpt><trkpt lat="45.41642953274765" lon="10.563519688082831"><ele>107.39999999999999</ele><time>2026-03-29T09:18:10Z</time></trkpt><trkpt lat="45.416502755420694" lon="10.563489226494113"><ele>107.60000000000001</ele><time>2026-03-29T09:18:11Z</time></trkpt><trkpt lat="45.416604254863756" lon="10.563493632242228"><ele>107.80000000000001</ele><time>2026-03-29T09:18:16Z</time></trkpt><trkpt lat="45.41665734360129" lon="10.563330251785432"><ele>108.0</ele><time>2026-03-29T09:18:17Z</time></trkpt><trkpt lat="45.416736827125554" lon="10.563243234024585"><ele>108.0</ele><time>2026-03-29T09:18:18Z</time></trkpt><trkpt lat="45.41682446286835" lon="10.563156545126525"><ele>108.0</ele><time>2026-03-29T09:18:19Z</time></trkpt><trkpt lat="45.41692830902959" lon="10.563049823940636"><ele>108.0</ele><time>2026-03-29T09:18:20Z</time></trkpt><trkpt lat="45.41705977388017" lon="10.56297750677657"><ele>108.0</ele><time>2026-03-29T09:18:21Z</time></trkpt><trkpt lat="45.41722084086164" lon="10.562928583574433"><ele>108.0</ele><time>2026-03-29T09:18:22Z</time></trkpt><trkpt lat="45.41736310390561" lon="10.56285401626612"><ele>108.0</ele><time>2026-03-29T09:18:23Z</time></trkpt><trkpt lat="45.41751266158885" lon="10.562790434406974"><ele>108.0</ele><time>2026-03-29T09:18:24Z</time></trkpt><trkpt lat="45.41762523655415" lon="10.562713522708789"><ele>108.0</ele><time>2026-03-29T09:18:25Z</time></trkpt><trkpt lat="45.417741622743016" lon="10.562617466102278"><ele>108.0</ele><time>2026-03-29T09:18:26Z</time></trkpt><trkpt lat="45.41785337884668" lon="10.56242744787138"><ele>108.0</ele><time>2026-03-29T09:18:27Z</time></trkpt><trkpt lat="45.41797630302963" lon="10.56222100204384"><ele>108.0</ele><time>2026-03-29T09:18:28Z</time></trkpt><trkpt lat="45.41811562423954" lon="10.562021302260025"><ele>108.0</ele><time>2026-03-29T09:18:29Z</time></trkpt><trkpt lat="45.418242677196375" lon="10.561823132404163"><ele>108.0</ele><time>2026-03-29T09:18:30Z</time></trkpt><trkpt lat="45.41838864803453" lon="10.561613851664939"><ele>108.0</ele><time>2026-03-29T09:18:31Z</time></trkpt><trkpt lat="45.418531762936496" lon="10.56141808863832"><ele>108.0</ele><time>2026-03-29T09:18:32Z</time></trkpt><trkpt lat="45.41867205557913" lon="10.56122618621432"><ele>108.0</ele><time>2026-03-29T09:18:33Z</time></trkpt><trkpt lat="45.418806525549655" lon="10.561023259905205"><ele>108.0</ele><time>2026-03-29T09:18:34Z</time></trkpt><trkpt lat="45.418945738321675" lon="10.560890297336782"><ele>109.66666666666666</ele><time>2026-03-29T09:18:35Z</time></trkpt><trkpt lat="45.41907075985748" lon="10.560735458123812"><ele>111.33333333333333</ele><time>2026-03-29T09:18:36Z</time></trkpt><trkpt lat="45.41923159445177" lon="10.560619098274302"><ele>113.0</ele><time>2026-03-29T09:18:37Z</time></trkpt><trkpt lat="45.41939827261801" lon="10.560491362096563"><ele>112.33333333333333</ele><time>2026-03-29T09:18:38Z</time></trkpt><trkpt lat="45.41955985070552" lon="10.560345898806855"><ele>111.66666666666666</ele><time>2026-03-29T09:18:39Z</time></trkpt><trkpt lat="45.41971848301406" lon="10.560225314947663"><ele>111.0</ele><time>2026-03-29T09:18:40Z</time></trkpt><trkpt lat="45.41985151518252" lon="10.56012982545906"><ele>112.0</ele><time>2026-03-29T09:18:41Z</time></trkpt><trkpt lat="45.41998596937416" lon="10.560075855954139"><ele>113.0</ele><time>2026-03-29T09:18:42Z</time></trkpt><trkpt lat="45.42009066753413" lon="10.560013340170334"><ele>114.0</ele><time>2026-03-29T09:18:43Z</time></trkpt><trkpt lat="45.420196948446616" lon="10.559953413743763"><ele>115.0</ele><time>2026-03-29T09:18:44Z</time></trkpt><trkpt lat="45.420299505591395" lon="10.55986231976096"><ele>115.0</ele><time>2026-03-29T09:18:45Z</time></trkpt><trkpt lat="45.42039627477564" lon="10.559727349435306"><ele>115.0</ele><time>2026-03-29T09:18:46Z</time></trkpt><trkpt lat="45.42050756892631" lon="10.559548793321992"><ele>115.0</ele><time>2026-03-29T09:18:47Z</time></trkpt><trkpt lat="45.420626395412455" lon="10.559381992242182"><ele>115.0</ele><time>2026-03-29T09:18:48Z</time></trkpt><trkpt lat="45.42073641406066" lon="10.559183707938706"><ele>115.0</ele><time>2026-03-29T09:18:49Z</time></trkpt><trkpt lat="45.4208587433095" lon="10.558953310985977"><ele>115.0</ele><time>2026-03-29T09:18:50Z</time></trkpt><trkpt lat="45.420977345548486" lon="10.55874839537429"><ele>114.66666666666667</ele><time>2026-03-29T09:18:51Z</time></trkpt><trkpt lat="45.42109955281323" lon="10.558575913957773"><ele>114.33333333333334</ele><time>2026-03-29T09:18:52Z</time></trkpt><trkpt lat="45.421231208065166" lon="10.558412153318736"><ele>114.0</ele><time>2026-03-29T09:18:53Z</time></trkpt><trkpt lat="45.42133406874141" lon="10.558201972241907"><ele>114.0</ele><time>2026-03-29T09:18:54Z</time></trkpt><trkpt lat="45.42144660288539" lon="10.557985131510751"><ele>114.0</ele><time>2026-03-29T09:18:55Z</time></trkpt><trkpt lat="45.4215599245425" lon="10.557784662815372"><ele>114.0</ele><time>2026-03-29T09:18:56Z</time></trkpt><trkpt lat="45.42164959962553" lon="10.557581644352062"><ele>114.0</ele><time>2026-03-29T09:18:57Z</time></trkpt><trkpt lat="45.421716221779754" lon="10.557351594356712"><ele>114.0</ele><time>2026-03-29T09:18:58Z</time></trkpt><trkpt lat="45.42181199104705" lon="10.557122533115933"><ele>114.0</ele><time>2026-03-29T09:18:59Z</time></trkpt><trkpt lat="45.421884059156575" lon="10.55688582507346"><ele>113.33333333333334</ele><time>2026-03-29T09:19:00Z</time></trkpt><trkpt lat="45.42194294727214" lon="10.55666289396251"><ele>112.66666666666667</ele><time>2026-03-29T09:19:01Z</time></trkpt><trkpt lat="45.42198810795832" lon="10.556439716038653"><ele>112.0</ele><time>2026-03-29T09:19:02Z</time></trkpt><trkpt lat="45.42199179633485" lon="10.556199643170407"><ele>111.5</ele><time>2026-03-29T09:19:03Z</time></trkpt><trkpt lat="45.42200091108745" lon="10.555967304690663"><ele>111.0</ele><time>2026-03-29T09:19:04Z</time></trkpt><trkpt lat="45.4220380224179" lon="10.555754585999464"><ele>110.5</ele><time>2026-03-29T09:19:05Z</time></trkpt><trkpt lat="45.42208027776993" lon="10.555592066893643"><ele>110.0</ele><time>2026-03-29T09:19:06Z</time></trkpt><trkpt lat="45.4221511182074" lon="10.555436172157785"><ele>110.8</ele><time>2026-03-29T09:19:07Z</time></trkpt><trkpt lat="45.42223010783228" lon="10.55529142717968"><ele>111.6</ele><time>2026-03-29T09:19:08Z</time></trkpt><trkpt lat="45.42229224572333" lon="10.5551752125206"><ele>112.4</ele><time>2026-03-29T09:19:09Z</time></trkpt><trkpt lat="45.422332079889124" lon="10.555068538750932"><ele>113.2</ele><time>2026-03-29T09:19:10Z</time></trkpt><trkpt lat="45.422365293329364" lon="10.554925720930736"><ele>114.0</ele><time>2026-03-29T09:19:12Z</time></trkpt><trkpt lat="45.42225823488969" lon="10.554830879728796"><ele>112.33333333333334</ele><time>2026-03-29T09:19:13Z</time></trkpt><trkpt lat="45.42213291529053" lon="10.554737540263346"><ele>110.66666666666667</ele><time>2026-03-29T09:19:14Z</time></trkpt><trkpt lat="45.42200935333534" lon="10.554592929116751"><ele>109.0</ele><time>2026-03-29T09:19:15Z</time></trkpt><trkpt lat="45.421897184843985" lon="10.554420001850488"><ele>108.5</ele><time>2026-03-29T09:19:16Z</time></trkpt><trkpt lat="45.4218022054924" lon="10.554244178205796"><ele>108.0</ele><time>2026-03-29T09:19:17Z</time></trkpt><trkpt lat="45.42169986053416" lon="10.554114607706783"><ele>107.5</ele><time>2026-03-29T09:19:18Z</time></trkpt><trkpt lat="45.42158107778085" lon="10.55399588128437"><ele>107.0</ele><time>2026-03-29T09:19:19Z</time></trkpt><trkpt lat="45.42143550717193" lon="10.553898677021378"><ele>105.66666666666666</ele><time>2026-03-29T09:19:20Z</time></trkpt><trkpt lat="45.42127316961694" lon="10.553790935617046"><ele>104.33333333333334</ele><time>2026-03-29T09:19:21Z</time></trkpt><trkpt lat="45.421127006345884" lon="10.553687519489191"><ele>103.0</ele><time>2026-03-29T09:19:22Z</time></trkpt><trkpt lat="45.42100370039464" lon="10.553606934593544"><ele>103.0</ele><time>2026-03-29T09:19:23Z</time></trkpt><trkpt lat="45.4208941107983" lon="10.553538213898518"><ele>103.0</ele><time>2026-03-29T09:19:24Z</time></trkpt><trkpt lat="45.42080618037009" lon="10.553482409704495"><ele>103.0</ele><time>2026-03-29T09:19:25Z</time></trkpt><trkpt lat="45.420737458893456" lon="10.553437465292415"><ele>103.0</ele><time>2026-03-29T09:19:26Z</time></trkpt><trkpt lat="45.420697115090135" lon="10.553316347768368"><ele>103.0</ele><time>2026-03-29T09:19:28Z</time></trkpt><trkpt lat="45.42072460180213" lon="10.553222383361986"><ele>103.0</ele><time>2026-03-29T09:19:29Z</time></trkpt><trkpt lat="45.420783063669276" lon="10.553118505138492"><ele>103.0</ele><time>2026-03-29T09:19:30Z</time></trkpt><trkpt lat="45.420824089105174" lon="10.55300650070705"><ele>103.0</ele><time>2026-03-29T09:19:31Z</time></trkpt><trkpt lat="45.42085161215283" lon="10.552902016296537"><ele>103.0</ele><time>2026-03-29T09:19:32Z</time></trkpt><trkpt lat="45.42089256615975" lon="10.552812679190534"><ele>103.0</ele><time>2026-03-29T09:19:34Z</time></trkpt><trkpt lat="45.42072532592307" lon="10.552702739186806"><ele>102.66666666666667</ele><time>2026-03-29T09:19:36Z</time></trkpt><trkpt lat="45.42060686719014" lon="10.552634726760008"><ele>102.33333333333334</ele><time>2026-03-29T09:19:37Z</time></trkpt><trkpt lat="45.42047735754733" lon="10.552561379929534"><ele>102.0</ele><time>2026-03-29T09:19:38Z</time></trkpt><trkpt lat="45.42031564329735" lon="10.552436535482318"><ele>101.33333333333334</ele><time>2026-03-29T09:19:39Z</time></trkpt><trkpt lat="45.42015306341626" lon="10.552296038436825"><ele>100.66666666666667</ele><time>2026-03-29T09:19:40Z</time></trkpt><trkpt lat="45.42000346303237" lon="10.552103105853861"><ele>100.0</ele><time>2026-03-29T09:19:41Z</time></trkpt><trkpt lat="45.419843300222986" lon="10.551925943543136"><ele>100.0</ele><time>2026-03-29T09:19:42Z</time></trkpt><trkpt lat="45.41970415337115" lon="10.551743258652605"><ele>100.0</ele><time>2026-03-29T09:19:43Z</time></trkpt><trkpt lat="45.41957256762406" lon="10.551568773687219"><ele>100.0</ele><time>2026-03-29T09:19:44Z</time></trkpt><trkpt lat="45.41947333699228" lon="10.551363356734567"><ele>100.33333333333334</ele><time>2026-03-29T09:19:45Z</time></trkpt><trkpt lat="45.41941073239135" lon="10.551151889353765"><ele>100.66666666666666</ele><time>2026-03-29T09:19:46Z</time></trkpt><trkpt lat="45.41936457952913" lon="10.550930154376825"><ele>101.0</ele><time>2026-03-29T09:19:47Z</time></trkpt><trkpt lat="45.4193132055481" lon="10.550702855101411"><ele>101.0</ele><time>2026-03-29T09:19:48Z</time></trkpt><trkpt lat="45.419244988589256" lon="10.550517346328341"><ele>101.0</ele><time>2026-03-29T09:19:49Z</time></trkpt><trkpt lat="45.41919923868239" lon="10.550341559516523"><ele>101.0</ele><time>2026-03-29T09:19:50Z</time></trkpt><trkpt lat="45.41914149698415" lon="10.550171259043209"><ele>101.0</ele><time>2026-03-29T09:19:51Z</time></trkpt><trkpt lat="45.41905708237836" lon="10.550000875221944"><ele>101.75</ele><time>2026-03-29T09:19:52Z</time></trkpt><trkpt lat="45.41896937588854" lon="10.549854008312796"><ele>102.5</ele><time>2026-03-29T09:19:53Z</time></trkpt><trkpt lat="45.41889088124207" lon="10.549692098743447"><ele>103.25</ele><time>2026-03-29T09:19:54Z</time></trkpt><trkpt lat="45.41879538700829" lon="10.54954208074398"><ele>104.0</ele><time>2026-03-29T09:19:55Z</time></trkpt><trkpt lat="45.41870605971518" lon="10.54939743840777"><ele>105.0</ele><time>2026-03-29T09:19:56Z</time></trkpt><trkpt lat="45.4186483759323" lon="10.549291406605036"><ele>106.0</ele><time>2026-03-29T09:19:57Z</time></trkpt><trkpt lat="45.418578280290305" lon="10.549209663507124"><ele>107.0</ele><time>2026-03-29T09:19:58Z</time></trkpt><trkpt lat="45.418510412576" lon="10.549141209806258"><ele>108.0</ele><time>2026-03-29T09:19:59Z</time></trkpt><trkpt lat="45.418396790636" lon="10.549130725752756"><ele>109.0</ele><time>2026-03-29T09:20:01Z</time></trkpt><trkpt lat="45.418321155982326" lon="10.54918025835581"><ele>109.0</ele><time>2026-03-29T09:20:02Z</time></trkpt><trkpt lat="45.418219987413174" lon="10.549260858468585"><ele>109.0</ele><time>2026-03-29T09:20:03Z</time></trkpt><trkpt lat="45.41811647127994" lon="10.549325492073473"><ele>109.0</ele><time>2026-03-29T09:20:04Z</time></trkpt><trkpt lat="45.41804361579798" lon="10.54936082862735"><ele>109.0</ele><time>2026-03-29T09:20:05Z</time></trkpt><trkpt lat="45.417969263791974" lon="10.549342307114282"><ele>109.0</ele><time>2026-03-29T09:20:06Z</time></trkpt><trkpt lat="45.417917091581835" lon="10.549257370831743"><ele>108.75</ele><time>2026-03-29T09:20:07Z</time></trkpt><trkpt lat="45.41790127768677" lon="10.549113736609847"><ele>108.5</ele><time>2026-03-29T09:20:08Z</time></trkpt><trkpt lat="45.417845554391825" lon="10.548967513534958"><ele>108.25</ele><time>2026-03-29T09:20:09Z</time></trkpt><trkpt lat="45.417768944111785" lon="10.548810695887186"><ele>108.0</ele><time>2026-03-29T09:20:10Z</time></trkpt><trkpt lat="45.41770320784764" lon="10.548615836521265"><ele>108.0</ele><time>2026-03-29T09:20:11Z</time></trkpt><trkpt lat="45.41761758858278" lon="10.548418392982153"><ele>108.0</ele><time>2026-03-29T09:20:12Z</time></trkpt><trkpt lat="45.41752516141276" lon="10.548211013604783"><ele>108.0</ele><time>2026-03-29T09:20:13Z</time></trkpt><trkpt lat="45.417424132944085" lon="10.547973113508258"><ele>107.66666666666666</ele><time>2026-03-29T09:20:14Z</time></trkpt><trkpt lat="45.4173489098731" lon="10.547713606161098"><ele>107.33333333333333</ele><time>2026-03-29T09:20:15Z</time></trkpt><trkpt lat="45.41725454247374" lon="10.547498823706938"><ele>107.0</ele><time>2026-03-29T09:20:16Z</time></trkpt><trkpt lat="45.41716440013025" lon="10.547270020259475"><ele>106.66666666666666</ele><time>2026-03-29T09:20:17Z</time></trkpt><trkpt lat="45.41705205720933" lon="10.547054110174608"><ele>106.33333333333334</ele><time>2026-03-29T09:20:18Z</time></trkpt><trkpt lat="45.41694301484499" lon="10.54682104249658"><ele>106.0</ele><time>2026-03-29T09:20:19Z</time></trkpt><trkpt lat="45.416830687388234" lon="10.5466104976531"><ele>106.0</ele><time>2026-03-29T09:20:20Z</time></trkpt><trkpt lat="45.41670012825579" lon="10.546406609433216"><ele>106.0</ele><time>2026-03-29T09:20:21Z</time></trkpt><trkpt lat="45.41654318010697" lon="10.546209008537053"><ele>106.0</ele><time>2026-03-29T09:20:22Z</time></trkpt><trkpt lat="45.416373551158884" lon="10.546016970755545"><ele>107.33333333333334</ele><time>2026-03-29T09:20:23Z</time></trkpt><trkpt lat="45.41621547208716" lon="10.545828331670371"><ele>108.66666666666666</ele><time>2026-03-29T09:20:24Z</time></trkpt><trkpt lat="45.4160647126057" lon="10.545639147988995"><ele>110.0</ele><time>2026-03-29T09:20:25Z</time></trkpt><trkpt lat="45.41595022266129" lon="10.5454369131396"><ele>110.66666666666666</ele><time>2026-03-29T09:20:26Z</time></trkpt><trkpt lat="45.41583361876737" lon="10.545247645536206"><ele>111.33333333333334</ele><time>2026-03-29T09:20:27Z</time></trkpt><trkpt lat="45.41573151760246" lon="10.545056597344422"><ele>112.0</ele><time>2026-03-29T09:20:28Z</time></trkpt><trkpt lat="45.41564218078693" lon="10.544890586144831"><ele>112.0</ele><time>2026-03-29T09:20:29Z</time></trkpt><trkpt lat="45.41555967192008" lon="10.544752592379394"><ele>111.99999999999999</ele><time>2026-03-29T09:20:30Z</time></trkpt><trkpt lat="45.415499702646585" lon="10.54464739584189"><ele>111.99999999999999</ele><time>2026-03-29T09:20:31Z</time></trkpt><trkpt lat="45.41544520883872" lon="10.544540794367467"><ele>112.0</ele><time>2026-03-29T09:20:32Z</time></trkpt><trkpt lat="45.41542031883216" lon="10.544451135923978"><ele>112.0</ele><time>2026-03-29T09:20:33Z</time></trkpt><trkpt lat="45.41539232950184" lon="10.544360919590659"><ele>112.5</ele><time>2026-03-29T09:20:35Z</time></trkpt><trkpt lat="45.41549713195154" lon="10.5443304394053"><ele>113.0</ele><time>2026-03-29T09:20:37Z</time></trkpt><trkpt lat="45.41558388840589" lon="10.544289786154291"><ele>113.5</ele><time>2026-03-29T09:20:38Z</time></trkpt><trkpt lat="45.41571807306395" lon="10.544260138968156"><ele>114.0</ele><time>2026-03-29T09:20:39Z</time></trkpt><trkpt lat="45.41585941992645" lon="10.54421475738175"><ele>114.0</ele><time>2026-03-29T09:20:40Z</time></trkpt><trkpt lat="45.41601996871988" lon="10.544198264170134"><ele>114.0</ele><time>2026-03-29T09:20:41Z</time></trkpt><trkpt lat="45.416194850193385" lon="10.544155211461563"><ele>114.0</ele><time>2026-03-29T09:20:42Z</time></trkpt><trkpt lat="45.41636077477464" lon="10.544117795062224"><ele>112.75</ele><time>2026-03-29T09:20:43Z</time></trkpt><trkpt lat="45.41651874059662" lon="10.544073200130262"><ele>111.5</ele><time>2026-03-29T09:20:44Z</time></trkpt><trkpt lat="45.41665449533696" lon="10.544015469274976"><ele>110.25</ele><time>2026-03-29T09:20:45Z</time></trkpt><trkpt lat="45.416788118720056" lon="10.54394633281295"><ele>109.0</ele><time>2026-03-29T09:20:46Z</time></trkpt><trkpt lat="45.41692450793069" lon="10.54382179141659"><ele>109.0</ele><time>2026-03-29T09:20:47Z</time></trkpt><trkpt lat="45.41705843442577" lon="10.543727142176012"><ele>109.0</ele><time>2026-03-29T09:20:48Z</time></trkpt><trkpt lat="45.417182903073886" lon="10.543585086422416"><ele>109.0</ele><time>2026-03-29T09:20:49Z</time></trkpt><trkpt lat="45.41726916184568" lon="10.543384806264473"><ele>109.0</ele><time>2026-03-29T09:20:50Z</time></trkpt><trkpt lat="45.41736068298226" lon="10.543191894237683"><ele>109.0</ele><time>2026-03-29T09:20:51Z</time></trkpt><trkpt lat="45.417479634294914" lon="10.54298243928867"><ele>109.0</ele><time>2026-03-29T09:20:52Z</time></trkpt><trkpt lat="45.417584632997084" lon="10.542766028478262"><ele>109.0</ele><time>2026-03-29T09:20:53Z</time></trkpt><trkpt lat="45.417689600210714" lon="10.542550134115796"><ele>109.0</ele><time>2026-03-29T09:20:54Z</time></trkpt><trkpt lat="45.41778925435082" lon="10.542343683116583"><ele>109.0</ele><time>2026-03-29T09:20:55Z</time></trkpt><trkpt lat="45.417895710809034" lon="10.542120337434453"><ele>109.0</ele><time>2026-03-29T09:20:56Z</time></trkpt><trkpt lat="45.41799476111749" lon="10.541912529737347"><ele>109.0</ele><time>2026-03-29T09:20:57Z</time></trkpt><trkpt lat="45.418082747078344" lon="10.541721317100626"><ele>109.0</ele><time>2026-03-29T09:20:58Z</time></trkpt><trkpt lat="45.418169672886506" lon="10.541546768157604"><ele>109.0</ele><time>2026-03-29T09:20:59Z</time></trkpt><trkpt lat="45.418274884540914" lon="10.54139138288599"><ele>109.0</ele><time>2026-03-29T09:21:00Z</time></trkpt><trkpt lat="45.41839444069448" lon="10.541261727228528"><ele>109.0</ele><time>2026-03-29T09:21:01Z</time></trkpt><trkpt lat="45.4185323618978" lon="10.541137984230309"><ele>110.33333333333334</ele><time>2026-03-29T09:21:02Z</time></trkpt><trkpt lat="45.41867959764705" lon="10.540995298990914"><ele>111.66666666666666</ele><time>2026-03-29T09:21:03Z</time></trkpt><trkpt lat="45.418824413782936" lon="10.540843440706496"><ele>113.0</ele><time>2026-03-29T09:21:04Z</time></trkpt><trkpt lat="45.41898184938616" lon="10.540695530392703"><ele>113.0</ele><time>2026-03-29T09:21:05Z</time></trkpt><trkpt lat="45.41913475421828" lon="10.540568789533086"><ele>113.0</ele><time>2026-03-29T09:21:06Z</time></trkpt><trkpt lat="45.41927998149712" lon="10.540472266943784"><ele>113.0</ele><time>2026-03-29T09:21:07Z</time></trkpt><trkpt lat="45.41944080603588" lon="10.540414417027602"><ele>113.66666666666666</ele><time>2026-03-29T09:21:08Z</time></trkpt><trkpt lat="45.41958993925767" lon="10.5403384646766"><ele>114.33333333333334</ele><time>2026-03-29T09:21:09Z</time></trkpt><trkpt lat="45.4197167736424" lon="10.54024151795129"><ele>115.0</ele><time>2026-03-29T09:21:10Z</time></trkpt><trkpt lat="45.41987737128134" lon="10.540166062967186"><ele>115.33333333333334</ele><time>2026-03-29T09:21:11Z</time></trkpt><trkpt lat="45.420037233956606" lon="10.540054281942819"><ele>115.66666666666666</ele><time>2026-03-29T09:21:12Z</time></trkpt><trkpt lat="45.42017539839797" lon="10.539935119759225"><ele>116.0</ele><time>2026-03-29T09:21:13Z</time></trkpt><trkpt lat="45.42028471650993" lon="10.539795621637671"><ele>116.0</ele><time>2026-03-29T09:21:14Z</time></trkpt><trkpt lat="45.420393916365036" lon="10.539672872633359"><ele>116.0</ele><time>2026-03-29T09:21:15Z</time></trkpt><trkpt lat="45.42051701512134" lon="10.539543028190621"><ele>116.0</ele><time>2026-03-29T09:21:16Z</time></trkpt><trkpt lat="45.42063074945774" lon="10.53942211469155"><ele>116.0</ele><time>2026-03-29T09:21:17Z</time></trkpt><trkpt lat="45.420739523473515" lon="10.53934816968302"><ele>117.66666666666666</ele><time>2026-03-29T09:21:18Z</time></trkpt><trkpt lat="45.42088637561083" lon="10.539280728447494"><ele>119.33333333333334</ele><time>2026-03-29T09:21:19Z</time></trkpt><trkpt lat="45.42105113977571" lon="10.539214777547368"><ele>121.0</ele><time>2026-03-29T09:21:20Z</time></trkpt><trkpt lat="45.42123291688952" lon="10.53914237588223"><ele>120.33333333333334</ele><time>2026-03-29T09:21:21Z</time></trkpt><trkpt lat="45.421407289337864" lon="10.539070277829342"><ele>119.66666666666666</ele><time>2026-03-29T09:21:22Z</time></trkpt><trkpt lat="45.421584759581464" lon="10.538996898964498"><ele>119.0</ele><time>2026-03-29T09:21:23Z</time></trkpt><trkpt lat="45.4217499881814" lon="10.538922738068909"><ele>119.0</ele><time>2026-03-29T09:21:24Z</time></trkpt><trkpt lat="45.42187908733941" lon="10.538847990587598"><ele>119.0</ele><time>2026-03-29T09:21:25Z</time></trkpt><trkpt lat="45.422006673179304" lon="10.538766459673443"><ele>119.0</ele><time>2026-03-29T09:21:26Z</time></trkpt><trkpt lat="45.42213600824511" lon="10.538692153462959"><ele>119.0</ele><time>2026-03-29T09:21:27Z</time></trkpt><trkpt lat="45.42227498534494" lon="10.538611014462038"><ele>120.66666666666666</ele><time>2026-03-29T09:21:28Z</time></trkpt><trkpt lat="45.42242727810974" lon="10.538520933392617"><ele>122.33333333333334</ele><time>2026-03-29T09:21:29Z</time></trkpt><trkpt lat="45.42258980241218" lon="10.538431590724425"><ele>124.0</ele><time>2026-03-29T09:21:30Z</time></trkpt><trkpt lat="45.42276558051537" lon="10.538364082749444"><ele>124.0</ele><time>2026-03-29T09:21:31Z</time></trkpt><trkpt lat="45.42295387110147" lon="10.538276257370471"><ele>124.0</ele><time>2026-03-29T09:21:32Z</time></trkpt><trkpt lat="45.42314727647046" lon="10.538215029509166"><ele>124.0</ele><time>2026-03-29T09:21:33Z</time></trkpt><trkpt lat="45.42334706142654" lon="10.538161906786543"><ele>124.0</ele><time>2026-03-29T09:21:34Z</time></trkpt><trkpt lat="45.42355036145555" lon="10.538060433802174"><ele>124.0</ele><time>2026-03-29T09:21:35Z</time></trkpt><trkpt lat="45.42374057298321" lon="10.538009287664265"><ele>124.0</ele><time>2026-03-29T09:21:36Z</time></trkpt><trkpt lat="45.42390184394215" lon="10.53797468125753"><ele>124.0</ele><time>2026-03-29T09:21:37Z</time></trkpt><trkpt lat="45.42405042967083" lon="10.537961482832689"><ele>124.0</ele><time>2026-03-29T09:21:38Z</time></trkpt><trkpt lat="45.424181509875645" lon="10.537958414697824"><ele>124.0</ele><time>2026-03-29T09:21:39Z</time></trkpt><trkpt lat="45.42429252590462" lon="10.537957736147128"><ele>124.0</ele><time>2026-03-29T09:21:40Z</time></trkpt><trkpt lat="45.42440332860008" lon="10.537969929456507"><ele>124.0</ele><time>2026-03-29T09:21:41Z</time></trkpt><trkpt lat="45.42453360954296" lon="10.53801138172209"><ele>124.0</ele><time>2026-03-29T09:21:42Z</time></trkpt><trkpt lat="45.424669868203246" lon="10.538100646574389"><ele>124.0</ele><time>2026-03-29T09:21:43Z</time></trkpt><trkpt lat="45.42479790091795" lon="10.538259203969703"><ele>122.66666666666667</ele><time>2026-03-29T09:21:44Z</time></trkpt><trkpt lat="45.424949783557345" lon="10.53841629697362"><ele>121.33333333333334</ele><time>2026-03-29T09:21:45Z</time></trkpt><trkpt lat="45.425110933474606" lon="10.538530775829196"><ele>120.0</ele><time>2026-03-29T09:21:46Z</time></trkpt><trkpt lat="45.42526208308864" lon="10.538619280019583"><ele>120.0</ele><time>2026-03-29T09:21:47Z</time></trkpt><trkpt lat="45.42541252852503" lon="10.538695934918662"><ele>120.0</ele><time>2026-03-29T09:21:48Z</time></trkpt><trkpt lat="45.425578919884224" lon="10.538760994537595"><ele>120.0</ele><time>2026-03-29T09:21:49Z</time></trkpt><trkpt lat="45.42574910300177" lon="10.538802023108287"><ele>117.66666666666666</ele><time>2026-03-29T09:21:50Z</time></trkpt><trkpt lat="45.42591228776541" lon="10.53882915559133"><ele>115.33333333333333</ele><time>2026-03-29T09:21:51Z</time></trkpt><trkpt lat="45.42606430430292" lon="10.538839372217707"><ele>113.0</ele><time>2026-03-29T09:21:52Z</time></trkpt><trkpt lat="45.42621856966461" lon="10.538828589388062"><ele>113.0</ele><time>2026-03-29T09:21:53Z</time></trkpt><trkpt lat="45.426407501769454" lon="10.538791350805484"><ele>113.0</ele><time>2026-03-29T09:21:54Z</time></trkpt><trkpt lat="45.42660010099972" lon="10.53879261498838"><ele>113.0</ele><time>2026-03-29T09:21:55Z</time></trkpt><trkpt lat="45.426800901036955" lon="10.53878327507576"><ele>113.0</ele><time>2026-03-29T09:21:56Z</time></trkpt><trkpt lat="45.42699018591074" lon="10.538775010710685"><ele>113.0</ele><time>2026-03-29T09:21:57Z</time></trkpt><trkpt lat="45.42713915921276" lon="10.538764945126967"><ele>113.0</ele><time>2026-03-29T09:21:58Z</time></trkpt><trkpt lat="45.42725154638609" lon="10.53872901556028"><ele>112.75</ele><time>2026-03-29T09:21:59Z</time></trkpt><trkpt lat="45.42733614662582" lon="10.538729399763056"><ele>112.5</ele><time>2026-03-29T09:22:00Z</time></trkpt><trkpt lat="45.427430624881765" lon="10.538733902129332"><ele>112.25</ele><time>2026-03-29T09:22:02Z</time></trkpt><trkpt lat="45.42753158703739" lon="10.538897662297"><ele>112.0</ele><time>2026-03-29T09:22:04Z</time></trkpt><trkpt lat="45.42762706412238" lon="10.539031359123442"><ele>112.0</ele><time>2026-03-29T09:22:05Z</time></trkpt><trkpt lat="45.42771707933017" lon="10.539218064661862"><ele>112.0</ele><time>2026-03-29T09:22:06Z</time></trkpt><trkpt lat="45.42781894057162" lon="10.539409324198386"><ele>112.0</ele><time>2026-03-29T09:22:07Z</time></trkpt><trkpt lat="45.42792214708984" lon="10.539590894303455"><ele>110.66666666666667</ele><time>2026-03-29T09:22:08Z</time></trkpt><trkpt lat="45.42804233037845" lon="10.539797039168244"><ele>109.33333333333334</ele><time>2026-03-29T09:22:09Z</time></trkpt><trkpt lat="45.428172245895844" lon="10.540027665843112"><ele>108.0</ele><time>2026-03-29T09:22:10Z</time></trkpt><trkpt lat="45.42830237894044" lon="10.540257146833522"><ele>106.66666666666666</ele><time>2026-03-29T09:22:11Z</time></trkpt><trkpt lat="45.428434953352344" lon="10.540484877686282"><ele>105.33333333333333</ele><time>2026-03-29T09:22:12Z</time></trkpt><trkpt lat="45.428572180188546" lon="10.540723562912055"><ele>104.0</ele><time>2026-03-29T09:22:13Z</time></trkpt><trkpt lat="45.42870738736915" lon="10.54096676214382"><ele>104.66666666666666</ele><time>2026-03-29T09:22:14Z</time></trkpt><trkpt lat="45.42883980660721" lon="10.541211185561549"><ele>105.33333333333334</ele><time>2026-03-29T09:22:15Z</time></trkpt><trkpt lat="45.428985706510566" lon="10.541469548732344"><ele>106.0</ele><time>2026-03-29T09:22:16Z</time></trkpt><trkpt lat="45.42911707310709" lon="10.54169750408596"><ele>106.0</ele><time>2026-03-29T09:22:17Z</time></trkpt><trkpt lat="45.42924703125378" lon="10.541924510148407"><ele>106.0</ele><time>2026-03-29T09:22:18Z</time></trkpt><trkpt lat="45.42936315660122" lon="10.542135188712555"><ele>106.0</ele><time>2026-03-29T09:22:19Z</time></trkpt><trkpt lat="45.42947485898293" lon="10.542332188468778"><ele>106.0</ele><time>2026-03-29T09:22:20Z</time></trkpt><trkpt lat="45.42956779270545" lon="10.542503110308603"><ele>106.0</ele><time>2026-03-29T09:22:21Z</time></trkpt><trkpt lat="45.42966738056597" lon="10.542684485591467"><ele>106.0</ele><time>2026-03-29T09:22:22Z</time></trkpt><trkpt lat="45.42975729584267" lon="10.542842267799987"><ele>105.8</ele><time>2026-03-29T09:22:23Z</time></trkpt><trkpt lat="45.42983666556913" lon="10.542983493952045"><ele>105.6</ele><time>2026-03-29T09:22:24Z</time></trkpt><trkpt lat="45.42990871901799" lon="10.543113081193182"><ele>105.4</ele><time>2026-03-29T09:22:25Z</time></trkpt><trkpt lat="45.429978374716214" lon="10.543234198217016"><ele>105.2</ele><time>2026-03-29T09:22:26Z</time></trkpt><trkpt lat="45.43003721152302" lon="10.543340213507946"><ele>105.0</ele><time>2026-03-29T09:22:27Z</time></trkpt><trkpt lat="45.4300979108129" lon="10.543446099894773"><ele>105.0</ele><time>2026-03-29T09:22:28Z</time></trkpt><trkpt lat="45.43015569946135" lon="10.543558168029037"><ele>105.0</ele><time>2026-03-29T09:22:29Z</time></trkpt><trkpt lat="45.43021793660048" lon="10.543680646204363"><ele>105.0</ele><time>2026-03-29T09:22:30Z</time></trkpt><trkpt lat="45.43029605477598" lon="10.543824333108505"><ele>105.0</ele><time>2026-03-29T09:22:31Z</time></trkpt><trkpt lat="45.43036765269491" lon="10.543956545019697"><ele>105.0</ele><time>2026-03-29T09:22:32Z</time></trkpt><trkpt lat="45.43043108743109" lon="10.544080573816077"><ele>105.0</ele><time>2026-03-29T09:22:33Z</time></trkpt><trkpt lat="45.43049538783036" lon="10.544198476417147"><ele>105.0</ele><time>2026-03-29T09:22:34Z</time></trkpt><trkpt lat="45.43056585914267" lon="10.544312622108896"><ele>105.0</ele><time>2026-03-29T09:22:35Z</time></trkpt><trkpt lat="45.43062764534748" lon="10.544452718512355"><ele>105.0</ele><time>2026-03-29T09:22:36Z</time></trkpt><trkpt lat="45.43071130440692" lon="10.544621253405312"><ele>105.0</ele><time>2026-03-29T09:22:37Z</time></trkpt><trkpt lat="45.430798021057335" lon="10.54481750586125"><ele>105.0</ele><time>2026-03-29T09:22:38Z</time></trkpt><trkpt lat="45.43089384290897" lon="10.545022155016657"><ele>105.0</ele><time>2026-03-29T09:22:39Z</time></trkpt><trkpt lat="45.43096663278774" lon="10.545245013128191"><ele>105.25</ele><time>2026-03-29T09:22:40Z</time></trkpt><trkpt lat="45.43103019634765" lon="10.545425559348107"><ele>105.5</ele><time>2026-03-29T09:22:41Z</time></trkpt><trkpt lat="45.43109476852032" lon="10.545592914882015"><ele>105.75</ele><time>2026-03-29T09:22:42Z</time></trkpt><trkpt lat="45.43115165737322" lon="10.545745092302662"><ele>106.0</ele><time>2026-03-29T09:22:43Z</time></trkpt><trkpt lat="45.431201255513535" lon="10.545880980405391"><ele>106.0</ele><time>2026-03-29T09:22:44Z</time></trkpt><trkpt lat="45.431239623638874" lon="10.545981825805297"><ele>106.0</ele><time>2026-03-29T09:22:45Z</time></trkpt><trkpt lat="45.4312712577545" lon="10.546072344945902"><ele>106.0</ele><time>2026-03-29T09:22:46Z</time></trkpt><trkpt lat="45.43131512609604" lon="10.546152143871307"><ele>106.0</ele><time>2026-03-29T09:22:47Z</time></trkpt><trkpt lat="45.43135249003708" lon="10.546306310909173"><ele>106.0</ele><time>2026-03-29T09:22:49Z</time></trkpt><trkpt lat="45.431287368145576" lon="10.546469696580164"><ele>106.0</ele><time>2026-03-29T09:22:51Z</time></trkpt><trkpt lat="45.43122238510537" lon="10.54658968957653"><ele>106.0</ele><time>2026-03-29T09:22:53Z</time></trkpt><trkpt lat="45.43129662093838" lon="10.546708279972442"><ele>106.0</ele><time>2026-03-29T09:22:54Z</time></trkpt><trkpt lat="45.43137407295123" lon="10.546794468334909"><ele>106.0</ele><time>2026-03-29T09:22:55Z</time></trkpt><trkpt lat="45.43143667328609" lon="10.546933336686942"><ele>106.0</ele><time>2026-03-29T09:22:56Z</time></trkpt><trkpt lat="45.43153488747576" lon="10.54706639603532"><ele>106.5</ele><time>2026-03-29T09:22:57Z</time></trkpt><trkpt lat="45.43162124391612" lon="10.54723019474006"><ele>107.0</ele><time>2026-03-29T09:22:58Z</time></trkpt><trkpt lat="45.431707377485004" lon="10.547368091494405"><ele>107.5</ele><time>2026-03-29T09:22:59Z</time></trkpt><trkpt lat="45.43179857083233" lon="10.547493473023174"><ele>108.0</ele><time>2026-03-29T09:23:00Z</time></trkpt><trkpt lat="45.43190380285444" lon="10.547628941455867"><ele>108.0</ele><time>2026-03-29T09:23:01Z</time></trkpt><trkpt lat="45.43200912150941" lon="10.54776285832299"><ele>108.0</ele><time>2026-03-29T09:23:02Z</time></trkpt><trkpt lat="45.43211190162316" lon="10.547891011294203"><ele>108.0</ele><time>2026-03-29T09:23:03Z</time></trkpt><trkpt lat="45.43220158280745" lon="10.548005106880765"><ele>108.0</ele><time>2026-03-29T09:23:04Z</time></trkpt><trkpt lat="45.43227962340163" lon="10.548112427734562"><ele>108.2</ele><time>2026-03-29T09:23:05Z</time></trkpt><trkpt lat="45.432358589474376" lon="10.54820644168562"><ele>108.4</ele><time>2026-03-29T09:23:06Z</time></trkpt><trkpt lat="45.43243002593536" lon="10.548299831579014"><ele>108.60000000000001</ele><time>2026-03-29T09:23:07Z</time></trkpt><trkpt lat="45.43249760462852" lon="10.548400709197349"><ele>108.80000000000001</ele><time>2026-03-29T09:23:08Z</time></trkpt><trkpt lat="45.432562449356325" lon="10.5484990644926"><ele>109.0</ele><time>2026-03-29T09:23:09Z</time></trkpt><trkpt lat="45.432620431963485" lon="10.54858413862292"><ele>109.0</ele><time>2026-03-29T09:23:10Z</time></trkpt><trkpt lat="45.432679901524274" lon="10.548666193959885"><ele>109.0</ele><time>2026-03-29T09:23:11Z</time></trkpt><trkpt lat="45.432739166163174" lon="10.548728003627705"><ele>109.0</ele><time>2026-03-29T09:23:12Z</time></trkpt><trkpt lat="45.43279676429697" lon="10.548781358592159"><ele>109.0</ele><time>2026-03-29T09:23:13Z</time></trkpt><trkpt lat="45.43285977614045" lon="10.548836334427332"><ele>109.0</ele><time>2026-03-29T09:23:14Z</time></trkpt><trkpt lat="45.4329199034644" lon="10.548881081564693"><ele>109.0</ele><time>2026-03-29T09:23:15Z</time></trkpt><trkpt lat="45.43298157999105" lon="10.548910614194966"><ele>109.0</ele><time>2026-03-29T09:23:16Z</time></trkpt><trkpt lat="45.433088848764946" lon="10.548970143910982"><ele>109.25</ele><time>2026-03-29T09:23:18Z</time></trkpt><trkpt lat="45.43317449370706" lon="10.549067923423857"><ele>109.5</ele><time>2026-03-29T09:23:20Z</time></trkpt><trkpt lat="45.43320885652879" lon="10.549243413014825"><ele>109.75</ele><time>2026-03-29T09:23:22Z</time></trkpt><trkpt lat="45.433263076858736" lon="10.54938424968701"><ele>110.0</ele><time>2026-03-29T09:23:24Z</time></trkpt><trkpt lat="45.433379953428826" lon="10.54930617714705"><ele>110.0</ele><time>2026-03-29T09:23:25Z</time></trkpt><trkpt lat="45.433473027899765" lon="10.549305798584465"><ele>110.0</ele><time>2026-03-29T09:23:27Z</time></trkpt><trkpt lat="45.433556310070664" lon="10.549235270511444"><ele>110.0</ele><time>2026-03-29T09:23:28Z</time></trkpt><trkpt lat="45.43365112665785" lon="10.549184903312039"><ele>110.0</ele><time>2026-03-29T09:23:29Z</time></trkpt><trkpt lat="45.43374409416071" lon="10.549136000059377"><ele>110.0</ele><time>2026-03-29T09:23:30Z</time></trkpt><trkpt lat="45.43384487752479" lon="10.549080755187903"><ele>110.6</ele><time>2026-03-29T09:23:31Z</time></trkpt><trkpt lat="45.43393594231485" lon="10.549013545522746"><ele>111.2</ele><time>2026-03-29T09:23:32Z</time></trkpt><trkpt lat="45.434022240032526" lon="10.548945682713637"><ele>111.80000000000001</ele><time>2026-03-29T09:23:33Z</time></trkpt><trkpt lat="45.43409862012834" lon="10.54889582393774"><ele>112.4</ele><time>2026-03-29T09:23:34Z</time></trkpt><trkpt lat="45.43417013005038" lon="10.548823503128617"><ele>113.0</ele><time>2026-03-29T09:23:35Z</time></trkpt><trkpt lat="45.434262380684245" lon="10.54875231523604"><ele>112.60000000000001</ele><time>2026-03-29T09:23:36Z</time></trkpt><trkpt lat="45.43435705984497" lon="10.548651340210377"><ele>112.20000000000002</ele><time>2026-03-29T09:23:37Z</time></trkpt><trkpt lat="45.43444551514856" lon="10.548557249410116"><ele>111.8</ele><time>2026-03-29T09:23:38Z</time></trkpt><trkpt lat="45.43451917670637" lon="10.548476867497033"><ele>111.4</ele><time>2026-03-29T09:23:39Z</time></trkpt><trkpt lat="45.434587551705974" lon="10.54840698749595"><ele>111.0</ele><time>2026-03-29T09:23:40Z</time></trkpt><trkpt lat="45.434652282067304" lon="10.548305115226947"><ele>111.0</ele><time>2026-03-29T09:23:41Z</time></trkpt><trkpt lat="45.434728093641304" lon="10.548213558807022"><ele>111.0</ele><time>2026-03-29T09:23:42Z</time></trkpt><trkpt lat="45.434789737965396" lon="10.54813650247309"><ele>111.0</ele><time>2026-03-29T09:23:43Z</time></trkpt><trkpt lat="45.43484309359477" lon="10.548062750228281"><ele>111.0</ele><time>2026-03-29T09:23:44Z</time></trkpt><trkpt lat="45.434895623915004" lon="10.548008745007245"><ele>111.0</ele><time>2026-03-29T09:23:45Z</time></trkpt><trkpt lat="45.43499794605307" lon="10.547921230155326"><ele>111.0</ele><time>2026-03-29T09:23:47Z</time></trkpt><trkpt lat="45.43506431643411" lon="10.54771046810677"><ele>110.6</ele><time>2026-03-29T09:23:49Z</time></trkpt><trkpt lat="45.43509066056278" lon="10.547593351551832"><ele>110.19999999999999</ele><time>2026-03-29T09:23:50Z</time></trkpt><trkpt lat="45.43513461106422" lon="10.547470489652902"><ele>109.80000000000001</ele><time>2026-03-29T09:23:51Z</time></trkpt><trkpt lat="45.435178424453" lon="10.547348797040842"><ele>109.4</ele><time>2026-03-29T09:23:52Z</time></trkpt><trkpt lat="45.4352247165631" lon="10.547214942509765"><ele>109.0</ele><time>2026-03-29T09:23:53Z</time></trkpt><trkpt lat="45.43528570535642" lon="10.547080178878417"><ele>109.25</ele><time>2026-03-29T09:23:54Z</time></trkpt><trkpt lat="45.435347345189015" lon="10.546932609010625"><ele>109.5</ele><time>2026-03-29T09:23:55Z</time></trkpt><trkpt lat="45.43542669983486" lon="10.54677849438821"><ele>109.75</ele><time>2026-03-29T09:23:56Z</time></trkpt><trkpt lat="45.43553153429576" lon="10.546635954894162"><ele>110.0</ele><time>2026-03-29T09:23:57Z</time></trkpt><trkpt lat="45.435616768655905" lon="10.546478728926223"><ele>109.0</ele><time>2026-03-29T09:23:58Z</time></trkpt><trkpt lat="45.435711456501366" lon="10.546326784327661"><ele>108.0</ele><time>2026-03-29T09:23:59Z</time></trkpt><trkpt lat="45.435815151883226" lon="10.546172414221559"><ele>107.0</ele><time>2026-03-29T09:24:00Z</time></trkpt><trkpt lat="45.43592854309987" lon="10.546011268384639"><ele>107.0</ele><time>2026-03-29T09:24:01Z</time></trkpt><trkpt lat="45.43605094060037" lon="10.545862180093268"><ele>107.0</ele><time>2026-03-29T09:24:02Z</time></trkpt><trkpt lat="45.43615839576703" lon="10.545675918843857"><ele>107.0</ele><time>2026-03-29T09:24:03Z</time></trkpt><trkpt lat="45.436283353738936" lon="10.5454941060825"><ele>107.0</ele><time>2026-03-29T09:24:04Z</time></trkpt><trkpt lat="45.43639819698276" lon="10.545327180740479"><ele>107.0</ele><time>2026-03-29T09:24:05Z</time></trkpt><trkpt lat="45.43650748136474" lon="10.545165638931243"><ele>107.0</ele><time>2026-03-29T09:24:06Z</time></trkpt><trkpt lat="45.43663665438887" lon="10.545013578845806"><ele>107.0</ele><time>2026-03-29T09:24:07Z</time></trkpt><trkpt lat="45.43673759276553" lon="10.54484002581489"><ele>107.0</ele><time>2026-03-29T09:24:08Z</time></trkpt><trkpt lat="45.436852377736784" lon="10.544669859459091"><ele>107.0</ele><time>2026-03-29T09:24:09Z</time></trkpt><trkpt lat="45.436983370408925" lon="10.54450910334662"><ele>106.33333333333333</ele><time>2026-03-29T09:24:10Z</time></trkpt><trkpt lat="45.43710204563592" lon="10.544344398216632"><ele>105.66666666666666</ele><time>2026-03-29T09:24:11Z</time></trkpt><trkpt lat="45.437231688991886" lon="10.544152025352364"><ele>105.0</ele><time>2026-03-29T09:24:12Z</time></trkpt><trkpt lat="45.43735888238699" lon="10.543928325708972"><ele>105.66666666666666</ele><time>2026-03-29T09:24:13Z</time></trkpt><trkpt lat="45.43747721232181" lon="10.543702706171919"><ele>106.33333333333333</ele><time>2026-03-29T09:24:14Z</time></trkpt><trkpt lat="45.4375994332068" lon="10.543464943534776"><ele>107.0</ele><time>2026-03-29T09:24:15Z</time></trkpt><trkpt lat="45.437717361015885" lon="10.54323247329891"><ele>107.0</ele><time>2026-03-29T09:24:16Z</time></trkpt><trkpt lat="45.43783178999843" lon="10.543009540124864"><ele>107.0</ele><time>2026-03-29T09:24:17Z</time></trkpt><trkpt lat="45.4379446083592" lon="10.542793034447106"><ele>107.0</ele><time>2026-03-29T09:24:18Z</time></trkpt><trkpt lat="45.43805360935189" lon="10.542582836504494"><ele>107.0</ele><time>2026-03-29T09:24:19Z</time></trkpt><trkpt lat="45.43816221903723" lon="10.542364895866505"><ele>107.0</ele><time>2026-03-29T09:24:20Z</time></trkpt><trkpt lat="45.438274183967586" lon="10.542140222388817"><ele>107.0</ele><time>2026-03-29T09:24:21Z</time></trkpt><trkpt lat="45.438386121854265" lon="10.54191991187037"><ele>106.66666666666666</ele><time>2026-03-29T09:24:22Z</time></trkpt><trkpt lat="45.4384969846901" lon="10.54170794997495"><ele>106.33333333333334</ele><time>2026-03-29T09:24:23Z</time></trkpt><trkpt lat="45.43861139426234" lon="10.541499090851403"><ele>106.0</ele><time>2026-03-29T09:24:24Z</time></trkpt><trkpt lat="45.43873983641614" lon="10.541283662354855"><ele>106.66666666666667</ele><time>2026-03-29T09:24:25Z</time></trkpt><trkpt lat="45.438871752188966" lon="10.541073663226696"><ele>107.33333333333334</ele><time>2026-03-29T09:24:26Z</time></trkpt><trkpt lat="45.43900666456907" lon="10.540872442534653"><ele>108.0</ele><time>2026-03-29T09:24:27Z</time></trkpt><trkpt lat="45.43913899864555" lon="10.540672545573138"><ele>108.0</ele><time>2026-03-29T09:24:28Z</time></trkpt><trkpt lat="45.43925070605481" lon="10.540479606997168"><ele>108.0</ele><time>2026-03-29T09:24:29Z</time></trkpt><trkpt lat="45.439362067853814" lon="10.540257585275544"><ele>108.0</ele><time>2026-03-29T09:24:30Z</time></trkpt><trkpt lat="45.43946090617477" lon="10.540024929165591"><ele>107.66666666666666</ele><time>2026-03-29T09:24:31Z</time></trkpt><trkpt lat="45.4395502788486" lon="10.539777626668052"><ele>107.33333333333333</ele><time>2026-03-29T09:24:32Z</time></trkpt><trkpt lat="45.43961920945856" lon="10.539519268152176"><ele>107.0</ele><time>2026-03-29T09:24:33Z</time></trkpt><trkpt lat="45.43968536740765" lon="10.539263157083981"><ele>106.66666666666666</ele><time>2026-03-29T09:24:34Z</time></trkpt><trkpt lat="45.4397624451529" lon="10.539030597877815"><ele>106.33333333333334</ele><time>2026-03-29T09:24:35Z</time></trkpt><trkpt lat="45.43986072234713" lon="10.538781696897114"><ele>106.0</ele><time>2026-03-29T09:24:36Z</time></trkpt><trkpt lat="45.439961993863925" lon="10.538514491783141"><ele>106.0</ele><time>2026-03-29T09:24:37Z</time></trkpt><trkpt lat="45.440052785670126" lon="10.53826952005529"><ele>106.0</ele><time>2026-03-29T09:24:38Z</time></trkpt><trkpt lat="45.440150254790275" lon="10.538012741105971"><ele>106.0</ele><time>2026-03-29T09:24:39Z</time></trkpt><trkpt lat="45.44025350945867" lon="10.53776610525221"><ele>106.0</ele><time>2026-03-29T09:24:40Z</time></trkpt><trkpt lat="45.44037405458684" lon="10.537513769418691"><ele>106.0</ele><time>2026-03-29T09:24:41Z</time></trkpt><trkpt lat="45.44049899263723" lon="10.537260723893507"><ele>106.0</ele><time>2026-03-29T09:24:42Z</time></trkpt><trkpt lat="45.44062908675395" lon="10.53699757060242"><ele>106.66666666666667</ele><time>2026-03-29T09:24:43Z</time></trkpt><trkpt lat="45.440758860720386" lon="10.536731896959365"><ele>107.33333333333334</ele><time>2026-03-29T09:24:44Z</time></trkpt><trkpt lat="45.440877865625005" lon="10.536488270255326"><ele>108.0</ele><time>2026-03-29T09:24:45Z</time></trkpt><trkpt lat="45.44099143875708" lon="10.536259618202902"><ele>108.33333333333334</ele><time>2026-03-29T09:24:46Z</time></trkpt><trkpt lat="45.441106717922665" lon="10.536034134606938"><ele>108.66666666666667</ele><time>2026-03-29T09:24:47Z</time></trkpt><trkpt lat="45.44121491992232" lon="10.535821947044193"><ele>109.0</ele><time>2026-03-29T09:24:48Z</time></trkpt><trkpt lat="45.441313372356944" lon="10.535631702717298"><ele>109.0</ele><time>2026-03-29T09:24:49Z</time></trkpt><trkpt lat="45.441422980216096" lon="10.535424134763145"><ele>109.0</ele><time>2026-03-29T09:24:50Z</time></trkpt><trkpt lat="45.44152867046407" lon="10.535223985941016"><ele>109.0</ele><time>2026-03-29T09:24:51Z</time></trkpt><trkpt lat="45.44162711100057" lon="10.53503836662087"><ele>109.0</ele><time>2026-03-29T09:24:52Z</time></trkpt><trkpt lat="45.44171261029052" lon="10.534878986091181"><ele>109.0</ele><time>2026-03-29T09:24:53Z</time></trkpt><trkpt lat="45.4417944410686" lon="10.534726558718445"><ele>109.0</ele><time>2026-03-29T09:24:54Z</time></trkpt><trkpt lat="45.44186823703414" lon="10.534589254284231"><ele>109.0</ele><time>2026-03-29T09:24:55Z</time></trkpt><trkpt lat="45.44192869783898" lon="10.53447452730967"><ele>109.0</ele><time>2026-03-29T09:24:56Z</time></trkpt><trkpt lat="45.44196936089311" lon="10.534375848784086"><ele>109.0</ele><time>2026-03-29T09:24:57Z</time></trkpt><trkpt lat="45.441973057181315" lon="10.534169613445865"><ele>109.0</ele><time>2026-03-29T09:24:59Z</time></trkpt><trkpt lat="45.44192704976925" lon="10.534051945201698"><ele>109.0</ele><time>2026-03-29T09:25:00Z</time></trkpt><trkpt lat="45.44183226237405" lon="10.533973592821395"><ele>109.0</ele><time>2026-03-29T09:25:01Z</time></trkpt><trkpt lat="45.44173032711068" lon="10.533856236346812"><ele>109.0</ele><time>2026-03-29T09:25:02Z</time></trkpt><trkpt lat="45.44161429703825" lon="10.533724825451568"><ele>109.0</ele><time>2026-03-29T09:25:03Z</time></trkpt><trkpt lat="45.441470876204605" lon="10.533575330933873"><ele>109.0</ele><time>2026-03-29T09:25:04Z</time></trkpt><trkpt lat="45.441320942878086" lon="10.533433449551907"><ele>108.33333333333334</ele><time>2026-03-29T09:25:05Z</time></trkpt><trkpt lat="45.44117637904359" lon="10.53328856771773"><ele>107.66666666666666</ele><time>2026-03-29T09:25:06Z</time></trkpt><trkpt lat="45.44105821088422" lon="10.533157358724313"><ele>107.0</ele><time>2026-03-29T09:25:07Z</time></trkpt><trkpt lat="45.4409501102294" lon="10.533037230025133"><ele>107.0</ele><time>2026-03-29T09:25:08Z</time></trkpt><trkpt lat="45.44084179388597" lon="10.532914647136254"><ele>107.0</ele><time>2026-03-29T09:25:09Z</time></trkpt><trkpt lat="45.44074270051166" lon="10.532799094237589"><ele>107.0</ele><time>2026-03-29T09:25:10Z</time></trkpt><trkpt lat="45.440640532877566" lon="10.532675618647568"><ele>107.0</ele><time>2026-03-29T09:25:11Z</time></trkpt><trkpt lat="45.440537772222" lon="10.532553807937093"><ele>107.25</ele><time>2026-03-29T09:25:12Z</time></trkpt><trkpt lat="45.44044440350347" lon="10.532449602571209"><ele>107.5</ele><time>2026-03-29T09:25:13Z</time></trkpt><trkpt lat="45.440359695259396" lon="10.532353783184382"><ele>107.75</ele><time>2026-03-29T09:25:14Z</time></trkpt><trkpt lat="45.44031123157627" lon="10.53226878495266"><ele>108.0</ele><time>2026-03-29T09:25:15Z</time></trkpt><trkpt lat="45.440151498872886" lon="10.532241977837893"><ele>108.0</ele><time>2026-03-29T09:25:17Z</time></trkpt><trkpt lat="45.440028836102094" lon="10.53226438823467"><ele>108.0</ele><time>2026-03-29T09:25:18Z</time></trkpt><trkpt lat="45.439868856933174" lon="10.53230948694179"><ele>108.0</ele><time>2026-03-29T09:25:19Z</time></trkpt><trkpt lat="45.43969839262839" lon="10.532356323635346"><ele>108.5</ele><time>2026-03-29T09:25:20Z</time></trkpt><trkpt lat="45.43954464692812" lon="10.532393188553295"><ele>109.0</ele><time>2026-03-29T09:25:21Z</time></trkpt><trkpt lat="45.439401853818616" lon="10.532433200947034"><ele>109.5</ele><time>2026-03-29T09:25:22Z</time></trkpt><trkpt lat="45.439261636339396" lon="10.532476687290472"><ele>110.0</ele><time>2026-03-29T09:25:23Z</time></trkpt><trkpt lat="45.43910407294623" lon="10.532515453677856"><ele>110.0</ele><time>2026-03-29T09:25:24Z</time></trkpt><trkpt lat="45.43891406881894" lon="10.53255174227253"><ele>110.0</ele><time>2026-03-29T09:25:25Z</time></trkpt><trkpt lat="45.43871205445586" lon="10.532592419006113"><ele>110.0</ele><time>2026-03-29T09:25:26Z</time></trkpt><trkpt lat="45.43848652655116" lon="10.53263719544387"><ele>110.0</ele><time>2026-03-29T09:25:27Z</time></trkpt><trkpt lat="45.43825894568022" lon="10.53267915217026"><ele>110.0</ele><time>2026-03-29T09:25:28Z</time></trkpt><trkpt lat="45.438050388270646" lon="10.532731909823362"><ele>110.0</ele><time>2026-03-29T09:25:29Z</time></trkpt><trkpt lat="45.43783267629904" lon="10.532784598094661"><ele>109.0</ele><time>2026-03-29T09:25:30Z</time></trkpt><trkpt lat="45.43761123093106" lon="10.532843479556558"><ele>108.0</ele><time>2026-03-29T09:25:31Z</time></trkpt><trkpt lat="45.437381128296025" lon="10.532901699169607"><ele>107.66666666666666</ele><time>2026-03-29T09:25:32Z</time></trkpt><trkpt lat="45.437160879778176" lon="10.53294981288192"><ele>107.33333333333333</ele><time>2026-03-29T09:25:33Z</time></trkpt><trkpt lat="45.43693734972624" lon="10.532996196547428"><ele>107.0</ele><time>2026-03-29T09:25:34Z</time></trkpt><trkpt lat="45.43673842467087" lon="10.533046381569815"><ele>107.0</ele><time>2026-03-29T09:25:35Z</time></trkpt><trkpt lat="45.4365526171261" lon="10.53309723166158"><ele>107.0</ele><time>2026-03-29T09:25:36Z</time></trkpt><trkpt lat="45.436397110583556" lon="10.533141230563277"><ele>107.0</ele><time>2026-03-29T09:25:37Z</time></trkpt><trkpt lat="45.4362646045615" lon="10.533180041409215"><ele>107.19999999999999</ele><time>2026-03-29T09:25:38Z</time></trkpt><trkpt lat="45.43615607043923" lon="10.533208574831841"><ele>107.39999999999999</ele><time>2026-03-29T09:25:39Z</time></trkpt><trkpt lat="45.43607510810615" lon="10.533239537524823"><ele>107.60000000000001</ele><time>2026-03-29T09:25:40Z</time></trkpt><trkpt lat="45.43600037682026" lon="10.533266836815661"><ele>107.80000000000001</ele><time>2026-03-29T09:25:41Z</time></trkpt><trkpt lat="45.435936235140886" lon="10.533252533548156"><ele>108.0</ele><time>2026-03-29T09:25:43Z</time></trkpt><trkpt lat="45.43599072920325" lon="10.533017131363945"><ele>107.75</ele><time>2026-03-29T09:25:46Z</time></trkpt><trkpt lat="45.436038385316635" lon="10.532868345252583"><ele>107.5</ele><time>2026-03-29T09:25:47Z</time></trkpt><trkpt lat="45.43610440647305" lon="10.53266943829803"><ele>107.25</ele><time>2026-03-29T09:25:48Z</time></trkpt><trkpt lat="45.43617028231671" lon="10.532470969771738"><ele>107.0</ele><time>2026-03-29T09:25:49Z</time></trkpt><trkpt lat="45.43624391826377" lon="10.532249121191297"><ele>106.33333333333333</ele><time>2026-03-29T09:25:50Z</time></trkpt><trkpt lat="45.43632207825567" lon="10.532013643893675"><ele>105.66666666666666</ele><time>2026-03-29T09:25:51Z</time></trkpt><trkpt lat="45.436407495875216" lon="10.531756299008647"><ele>105.0</ele><time>2026-03-29T09:25:52Z</time></trkpt><trkpt lat="45.43649285665359" lon="10.531499126696172"><ele>105.0</ele><time>2026-03-29T09:25:53Z</time></trkpt><trkpt lat="45.43657864088285" lon="10.531240678551926"><ele>105.0</ele><time>2026-03-29T09:25:54Z</time></trkpt><trkpt lat="45.436673516973975" lon="10.530953285606579"><ele>105.0</ele><time>2026-03-29T09:25:55Z</time></trkpt><trkpt lat="45.43675567234547" lon="10.530661791910852"><ele>107.33333333333334</ele><time>2026-03-29T09:25:56Z</time></trkpt><trkpt lat="45.436844669183564" lon="10.530413916083722"><ele>109.66666666666667</ele><time>2026-03-29T09:25:57Z</time></trkpt><trkpt lat="45.43692307104882" lon="10.530191212774572"><ele>112.0</ele><time>2026-03-29T09:25:58Z</time></trkpt><trkpt lat="45.43699077566138" lon="10.529993625973322"><ele>112.75</ele><time>2026-03-29T09:25:59Z</time></trkpt><trkpt lat="45.437041632151505" lon="10.529792117607782"><ele>113.5</ele><time>2026-03-29T09:26:00Z</time></trkpt><trkpt lat="45.437048708423376" lon="10.529591331650245"><ele>114.25</ele><time>2026-03-29T09:26:01Z</time></trkpt><trkpt lat="45.43702825768607" lon="10.529375124229498"><ele>115.0</ele><time>2026-03-29T09:26:02Z</time></trkpt><trkpt lat="45.43696521939633" lon="10.529160701644209"><ele>118.33333333333334</ele><time>2026-03-29T09:26:03Z</time></trkpt><trkpt lat="45.43688897578173" lon="10.528952224507382"><ele>121.66666666666666</ele><time>2026-03-29T09:26:04Z</time></trkpt><trkpt lat="45.43681623575016" lon="10.52872461737422"><ele>125.0</ele><time>2026-03-29T09:26:05Z</time></trkpt><trkpt lat="45.436754035710756" lon="10.528495431926657"><ele>127.0</ele><time>2026-03-29T09:26:06Z</time></trkpt><trkpt lat="45.436698517414484" lon="10.52825919745594"><ele>129.0</ele><time>2026-03-29T09:26:07Z</time></trkpt><trkpt lat="45.43665620106713" lon="10.528043663226114"><ele>131.0</ele><time>2026-03-29T09:26:08Z</time></trkpt><trkpt lat="45.436640285426385" lon="10.52787809732942"><ele>133.0</ele><time>2026-03-29T09:26:09Z</time></trkpt><trkpt lat="45.43667629917442" lon="10.527725052386772"><ele>134.33333333333334</ele><time>2026-03-29T09:26:10Z</time></trkpt><trkpt lat="45.43672788377123" lon="10.527557065915028"><ele>135.66666666666666</ele><time>2026-03-29T09:26:11Z</time></trkpt><trkpt lat="45.43676591635083" lon="10.5273626796809"><ele>137.0</ele><time>2026-03-29T09:26:12Z</time></trkpt><trkpt lat="45.43678612870279" lon="10.527107091468892"><ele>137.33333333333331</ele><time>2026-03-29T09:26:13Z</time></trkpt><trkpt lat="45.43681901779613" lon="10.52681670617501"><ele>137.66666666666666</ele><time>2026-03-29T09:26:14Z</time></trkpt><trkpt lat="45.43686425455422" lon="10.526522332695798"><ele>138.0</ele><time>2026-03-29T09:26:15Z</time></trkpt><trkpt lat="45.43691946315635" lon="10.526197911645209"><ele>138.33333333333334</ele><time>2026-03-29T09:26:16Z</time></trkpt><trkpt lat="45.43697753300284" lon="10.525879170869993"><ele>138.66666666666669</ele><time>2026-03-29T09:26:17Z</time></trkpt><trkpt lat="45.43702348472468" lon="10.525596461819601"><ele>139.0</ele><time>2026-03-29T09:26:18Z</time></trkpt><trkpt lat="45.437069011247786" lon="10.525316398524726"><ele>139.0</ele><time>2026-03-29T09:26:19Z</time></trkpt><trkpt lat="45.43711179886386" lon="10.525026039707695"><ele>139.0</ele><time>2026-03-29T09:26:20Z</time></trkpt><trkpt lat="45.43715259917233" lon="10.524735946589495"><ele>139.0</ele><time>2026-03-29T09:26:21Z</time></trkpt><trkpt lat="45.43718980279343" lon="10.524433360173655"><ele>138.5</ele><time>2026-03-29T09:26:22Z</time></trkpt><trkpt lat="45.43720905328392" lon="10.524109726063896"><ele>138.0</ele><time>2026-03-29T09:26:23Z</time></trkpt><trkpt lat="45.4372294256113" lon="10.523786878060172"><ele>133.0</ele><time>2026-03-29T09:26:24Z</time></trkpt><trkpt lat="45.43725336311288" lon="10.523442414953566"><ele>128.0</ele><time>2026-03-29T09:26:25Z</time></trkpt><trkpt lat="45.43726854796558" lon="10.52310915653018"><ele>126.0</ele><time>2026-03-29T09:26:26Z</time></trkpt><trkpt lat="45.43727136309406" lon="10.522773964355842"><ele>124.0</ele><time>2026-03-29T09:26:27Z</time></trkpt><trkpt lat="45.43727339333558" lon="10.522428593851368"><ele>124.0</ele><time>2026-03-29T09:26:28Z</time></trkpt><trkpt lat="45.43728170104117" lon="10.52209563823049"><ele>124.0</ele><time>2026-03-29T09:26:29Z</time></trkpt><trkpt lat="45.43729008629037" lon="10.52176630226806"><ele>124.0</ele><time>2026-03-29T09:26:30Z</time></trkpt><trkpt lat="45.43730556279774" lon="10.521436121774189"><ele>124.0</ele><time>2026-03-29T09:26:31Z</time></trkpt><trkpt lat="45.43729666788092" lon="10.521117161170944"><ele>122.66666666666667</ele><time>2026-03-29T09:26:32Z</time></trkpt><trkpt lat="45.437303435896865" lon="10.520802245663852"><ele>121.33333333333334</ele><time>2026-03-29T09:26:33Z</time></trkpt><trkpt lat="45.437309739256214" lon="10.520495280019007"><ele>120.0</ele><time>2026-03-29T09:26:34Z</time></trkpt><trkpt lat="45.437330037011215" lon="10.520197691160728"><ele>120.0</ele><time>2026-03-29T09:26:35Z</time></trkpt><trkpt lat="45.43733604146343" lon="10.519891448882563"><ele>120.0</ele><time>2026-03-29T09:26:36Z</time></trkpt><trkpt lat="45.43734185234851" lon="10.519595078980052"><ele>120.0</ele><time>2026-03-29T09:26:37Z</time></trkpt><trkpt lat="45.437346907309696" lon="10.519316159420946"><ele>120.75</ele><time>2026-03-29T09:26:38Z</time></trkpt><trkpt lat="45.43735055277654" lon="10.519058107137036"><ele>121.5</ele><time>2026-03-29T09:26:39Z</time></trkpt><trkpt lat="45.437352677286654" lon="10.518856411022378"><ele>122.25</ele><time>2026-03-29T09:26:40Z</time></trkpt><trkpt lat="45.43735425520794" lon="10.518706785346643"><ele>123.0</ele><time>2026-03-29T09:26:41Z</time></trkpt><trkpt lat="45.437343650527986" lon="10.518600124342536"><ele>124.0</ele><time>2026-03-29T09:26:42Z</time></trkpt><trkpt lat="45.43737327648228" lon="10.518481661292881"><ele>125.0</ele><time>2026-03-29T09:26:44Z</time></trkpt><trkpt lat="45.43752205598838" lon="10.518546055147695"><ele>126.0</ele><time>2026-03-29T09:26:45Z</time></trkpt><trkpt lat="45.43765376309092" lon="10.518545426097639"><ele>127.0</ele><time>2026-03-29T09:26:46Z</time></trkpt><trkpt lat="45.437804030616185" lon="10.518519421496634"><ele>127.0</ele><time>2026-03-29T09:26:47Z</time></trkpt><trkpt lat="45.43796145065699" lon="10.518459169688485"><ele>127.0</ele><time>2026-03-29T09:26:48Z</time></trkpt><trkpt lat="45.43813562241289" lon="10.518427042627133"><ele>127.0</ele><time>2026-03-29T09:26:49Z</time></trkpt><trkpt lat="45.43830757791823" lon="10.518429355755588"><ele>126.66666666666667</ele><time>2026-03-29T09:26:50Z</time></trkpt><trkpt lat="45.438502479470486" lon="10.518456682857488"><ele>126.33333333333334</ele><time>2026-03-29T09:26:51Z</time></trkpt><trkpt lat="45.438700242943575" lon="10.518480480043056"><ele>126.0</ele><time>2026-03-29T09:26:52Z</time></trkpt><trkpt lat="45.43889565309937" lon="10.518503416340724"><ele>126.0</ele><time>2026-03-29T09:26:53Z</time></trkpt><trkpt lat="45.43906739842935" lon="10.51853153409969"><ele>126.0</ele><time>2026-03-29T09:26:54Z</time></trkpt><trkpt lat="45.439245946974594" lon="10.518581469544214"><ele>126.0</ele><time>2026-03-29T09:26:55Z</time></trkpt><trkpt lat="45.439408896972104" lon="10.518649485547794"><ele>125.0</ele><time>2026-03-29T09:26:56Z</time></trkpt><trkpt lat="45.43956813851743" lon="10.51873881580378"><ele>124.0</ele><time>2026-03-29T09:26:57Z</time></trkpt><trkpt lat="45.43971600456803" lon="10.518845304010336"><ele>123.0</ele><time>2026-03-29T09:26:58Z</time></trkpt><trkpt lat="45.43985883890752" lon="10.518972472056253"><ele>125.33333333333334</ele><time>2026-03-29T09:26:59Z</time></trkpt><trkpt lat="45.439990932002964" lon="10.519118022970716"><ele>127.66666666666667</ele><time>2026-03-29T09:27:00Z</time></trkpt><trkpt lat="45.44010870606455" lon="10.519299164308439"><ele>130.0</ele><time>2026-03-29T09:27:01Z</time></trkpt><trkpt lat="45.44021898091973" lon="10.519507219142612"><ele>129.66666666666669</ele><time>2026-03-29T09:27:02Z</time></trkpt><trkpt lat="45.4403120050317" lon="10.519719650132428"><ele>129.33333333333334</ele><time>2026-03-29T09:27:03Z</time></trkpt><trkpt lat="45.440405871330135" lon="10.519892974545128"><ele>129.0</ele><time>2026-03-29T09:27:04Z</time></trkpt><trkpt lat="45.440509109582344" lon="10.520041431344874"><ele>129.75</ele><time>2026-03-29T09:27:05Z</time></trkpt><trkpt lat="45.44062377844807" lon="10.520165590511752"><ele>130.5</ele><time>2026-03-29T09:27:06Z</time></trkpt><trkpt lat="45.44074985025127" lon="10.520259619132938"><ele>131.25</ele><time>2026-03-29T09:27:07Z</time></trkpt><trkpt lat="45.440884791510896" lon="10.52030304431227"><ele>132.0</ele><time>2026-03-29T09:27:08Z</time></trkpt><trkpt lat="45.4410454472113" lon="10.5203106596009"><ele>132.0</ele><time>2026-03-29T09:27:09Z</time></trkpt><trkpt lat="45.44124064971543" lon="10.520297662829547"><ele>132.0</ele><time>2026-03-29T09:27:10Z</time></trkpt><trkpt lat="45.44143828132715" lon="10.520299532053363"><ele>132.0</ele><time>2026-03-29T09:27:11Z</time></trkpt><trkpt lat="45.4416421217113" lon="10.520305079884585"><ele>131.5</ele><time>2026-03-29T09:27:12Z</time></trkpt><trkpt lat="45.441850712160196" lon="10.520309226936597"><ele>131.0</ele><time>2026-03-29T09:27:13Z</time></trkpt><trkpt lat="45.44206489231213" lon="10.520552991489897"><ele>130.66666666666666</ele><time>2026-03-29T09:27:14Z</time></trkpt><trkpt lat="45.44226729687887" lon="10.520312350720936"><ele>130.33333333333334</ele><time>2026-03-29T09:27:15Z</time></trkpt><trkpt lat="45.44245100718351" lon="10.520309795007849"><ele>130.0</ele><time>2026-03-29T09:27:16Z</time></trkpt><trkpt lat="45.44262180895879" lon="10.520311649853358"><ele>130.0</ele><time>2026-03-29T09:27:17Z</time></trkpt><trkpt lat="45.44277176612559" lon="10.520317664188433"><ele>130.0</ele><time>2026-03-29T09:27:18Z</time></trkpt><trkpt lat="45.442924179385614" lon="10.520321755163085"><ele>130.0</ele><time>2026-03-29T09:27:19Z</time></trkpt><trkpt lat="45.44305600718378" lon="10.520325467519198"><ele>130.0</ele><time>2026-03-29T09:27:20Z</time></trkpt><trkpt lat="45.44317641727168" lon="10.520330079472172"><ele>130.4</ele><time>2026-03-29T09:27:21Z</time></trkpt><trkpt lat="45.44328461632138" lon="10.520332434031952"><ele>130.8</ele><time>2026-03-29T09:27:22Z</time></trkpt><trkpt lat="45.443366913055364" lon="10.520335312256865"><ele>131.2</ele><time>2026-03-29T09:27:23Z</time></trkpt><trkpt lat="45.44346260638473" lon="10.520252085294167"><ele>131.6</ele><time>2026-03-29T09:27:25Z</time></trkpt><trkpt lat="45.44346690441447" lon="10.520150335599057"><ele>132.0</ele><time>2026-03-29T09:27:26Z</time></trkpt><trkpt lat="45.443468293043146" lon="10.520032315543832"><ele>132.0</ele><time>2026-03-29T09:27:27Z</time></trkpt><trkpt lat="45.44350731773896" lon="10.51993544604311"><ele>132.0</ele><time>2026-03-29T09:27:28Z</time></trkpt><trkpt lat="45.44359643359902" lon="10.51989737507741"><ele>132.0</ele><time>2026-03-29T09:27:29Z</time></trkpt><trkpt lat="45.44372135985306" lon="10.51990022731365"><ele>132.0</ele><time>2026-03-29T09:27:30Z</time></trkpt><trkpt lat="45.44386453843967" lon="10.519902322421387"><ele>132.0</ele><time>2026-03-29T09:27:31Z</time></trkpt><trkpt lat="45.44401736757591" lon="10.519885594894305"><ele>132.2</ele><time>2026-03-29T09:27:32Z</time></trkpt><trkpt lat="45.44413687533233" lon="10.519848541358547"><ele>132.39999999999998</ele><time>2026-03-29T09:27:33Z</time></trkpt><trkpt lat="45.4442170458434" lon="10.51977246981761"><ele>132.60000000000002</ele><time>2026-03-29T09:27:34Z</time></trkpt><trkpt lat="45.44427006281016" lon="10.51965385597888"><ele>132.8</ele><time>2026-03-29T09:27:35Z</time></trkpt><trkpt lat="45.44428985210667" lon="10.519493858476817"><ele>133.0</ele><time>2026-03-29T09:27:36Z</time></trkpt><trkpt lat="45.444303262673756" lon="10.519323462784195"><ele>133.20000000000002</ele><time>2026-03-29T09:27:37Z</time></trkpt><trkpt lat="45.44433723585587" lon="10.519186225389095"><ele>133.4</ele><time>2026-03-29T09:27:38Z</time></trkpt><trkpt lat="45.444404973070625" lon="10.519103250407372"><ele>133.60000000000002</ele><time>2026-03-29T09:27:39Z</time></trkpt><trkpt lat="45.444496460170775" lon="10.519092203337568"><ele>133.8</ele><time>2026-03-29T09:27:40Z</time></trkpt><trkpt lat="45.44460296605439" lon="10.519133581476105"><ele>134.0</ele><time>2026-03-29T09:27:41Z</time></trkpt><trkpt lat="45.44472152895488" lon="10.519213891912178"><ele>134.0</ele><time>2026-03-29T09:27:42Z</time></trkpt><trkpt lat="45.44485498428176" lon="10.519295845086209"><ele>134.0</ele><time>2026-03-29T09:27:43Z</time></trkpt><trkpt lat="45.4450131099121" lon="10.519381219108244"><ele>134.0</ele><time>2026-03-29T09:27:44Z</time></trkpt><trkpt lat="45.44517194237292" lon="10.51946470569618"><ele>134.0</ele><time>2026-03-29T09:27:45Z</time></trkpt><trkpt lat="45.44531794565415" lon="10.519534435248834"><ele>134.0</ele><time>2026-03-29T09:27:46Z</time></trkpt><trkpt lat="45.445454454448345" lon="10.519605891404415"><ele>134.0</ele><time>2026-03-29T09:27:47Z</time></trkpt><trkpt lat="45.44557360813567" lon="10.51966603460831"><ele>134.0</ele><time>2026-03-29T09:27:48Z</time></trkpt><trkpt lat="45.445684235212056" lon="10.519716221296873"><ele>133.8</ele><time>2026-03-29T09:27:49Z</time></trkpt><trkpt lat="45.445788598086246" lon="10.519732823568011"><ele>133.60000000000002</ele><time>2026-03-29T09:27:50Z</time></trkpt><trkpt lat="45.44588717943079" lon="10.519735630904004"><ele>133.4</ele><time>2026-03-29T09:27:51Z</time></trkpt><trkpt lat="45.445992601995876" lon="10.51974316781098"><ele>133.20000000000002</ele><time>2026-03-29T09:27:52Z</time></trkpt><trkpt lat="45.446126648469544" lon="10.51976234855274"><ele>133.0</ele><time>2026-03-29T09:27:53Z</time></trkpt><trkpt lat="45.446219595900246" lon="10.519959822078985"><ele>133.25</ele><time>2026-03-29T09:27:54Z</time></trkpt><trkpt lat="45.44633078316019" lon="10.519999041409637"><ele>133.5</ele><time>2026-03-29T09:27:55Z</time></trkpt><trkpt lat="45.446453306597" lon="10.520028145521763"><ele>133.75</ele><time>2026-03-29T09:27:56Z</time></trkpt><trkpt lat="45.44658633052431" lon="10.520064968033612"><ele>134.0</ele><time>2026-03-29T09:27:57Z</time></trkpt><trkpt lat="45.44672372729685" lon="10.520102471407577"><ele>134.0</ele><time>2026-03-29T09:27:58Z</time></trkpt><trkpt lat="45.446862893712" lon="10.52013640126382"><ele>134.0</ele><time>2026-03-29T09:27:59Z</time></trkpt><trkpt lat="45.447015116184254" lon="10.520169394678963"><ele>134.0</ele><time>2026-03-29T09:28:00Z</time></trkpt><trkpt lat="45.44718211179607" lon="10.520205409478919"><ele>134.0</ele><time>2026-03-29T09:28:01Z</time></trkpt><trkpt lat="45.447341229556535" lon="10.520303382778708"><ele>134.0</ele><time>2026-03-29T09:28:02Z</time></trkpt><trkpt lat="45.44748914512004" lon="10.520349514188716"><ele>134.0</ele><time>2026-03-29T09:28:03Z</time></trkpt><trkpt lat="45.447621670744944" lon="10.520390421957694"><ele>134.0</ele><time>2026-03-29T09:28:04Z</time></trkpt><trkpt lat="45.44773470810342" lon="10.520399581965345"><ele>134.0</ele><time>2026-03-29T09:28:05Z</time></trkpt><trkpt lat="45.447832975008666" lon="10.5203942648979"><ele>134.0</ele><time>2026-03-29T09:28:06Z</time></trkpt><trkpt lat="45.44792300808252" lon="10.520324232586436"><ele>134.0</ele><time>2026-03-29T09:28:07Z</time></trkpt><trkpt lat="45.44800134381623" lon="10.520197224982313"><ele>134.0</ele><time>2026-03-29T09:28:08Z</time></trkpt><trkpt lat="45.44810035699351" lon="10.520016415128135"><ele>134.33333333333331</ele><time>2026-03-29T09:28:09Z</time></trkpt><trkpt lat="45.44821182162881" lon="10.51983590467183"><ele>134.66666666666666</ele><time>2026-03-29T09:28:10Z</time></trkpt><trkpt lat="45.448302659326174" lon="10.519632839390942"><ele>135.0</ele><time>2026-03-29T09:28:11Z</time></trkpt><trkpt lat="45.44840891886336" lon="10.519474147309156"><ele>135.0</ele><time>2026-03-29T09:28:12Z</time></trkpt><trkpt lat="45.44849279319155" lon="10.519330053725682"><ele>135.0</ele><time>2026-03-29T09:28:13Z</time></trkpt><trkpt lat="45.44854823850894" lon="10.51919835165645"><ele>135.0</ele><time>2026-03-29T09:28:14Z</time></trkpt><trkpt lat="45.44856631351508" lon="10.519061111098729"><ele>135.0</ele><time>2026-03-29T09:28:15Z</time></trkpt><trkpt lat="45.44854000510374" lon="10.518905498132792"><ele>135.0</ele><time>2026-03-29T09:28:16Z</time></trkpt><trkpt lat="45.44848389645448" lon="10.518731927254596"><ele>134.75</ele><time>2026-03-29T09:28:17Z</time></trkpt><trkpt lat="45.448414402575565" lon="10.518550114419384"><ele>134.5</ele><time>2026-03-29T09:28:18Z</time></trkpt><trkpt lat="45.448388178407505" lon="10.518355196025086"><ele>134.25</ele><time>2026-03-29T09:28:19Z</time></trkpt><trkpt lat="45.44840956831435" lon="10.518154346154592"><ele>134.0</ele><time>2026-03-29T09:28:20Z</time></trkpt><trkpt lat="45.448453528873394" lon="10.517963003064448"><ele>134.0</ele><time>2026-03-29T09:28:21Z</time></trkpt><trkpt lat="45.448501458933606" lon="10.517762576251716"><ele>134.0</ele><time>2026-03-29T09:28:22Z</time></trkpt><trkpt lat="45.44860964088223" lon="10.517623198064875"><ele>134.0</ele><time>2026-03-29T09:28:23Z</time></trkpt><trkpt lat="45.44872834394869" lon="10.517491399429629"><ele>134.0</ele><time>2026-03-29T09:28:24Z</time></trkpt><trkpt lat="45.44886337939239" lon="10.51736806911622"><ele>134.0</ele><time>2026-03-29T09:28:25Z</time></trkpt><trkpt lat="45.449009432205585" lon="10.517208167209807"><ele>134.0</ele><time>2026-03-29T09:28:26Z</time></trkpt><trkpt lat="45.449141470422205" lon="10.517053656938488"><ele>134.0</ele><time>2026-03-29T09:28:27Z</time></trkpt><trkpt lat="45.449237230093416" lon="10.516867140126138"><ele>134.0</ele><time>2026-03-29T09:28:28Z</time></trkpt><trkpt lat="45.44929987271652" lon="10.516681094922095"><ele>134.0</ele><time>2026-03-29T09:28:29Z</time></trkpt><trkpt lat="45.44935435079605" lon="10.516518226404164"><ele>134.0</ele><time>2026-03-29T09:28:30Z</time></trkpt><trkpt lat="45.44940144834777" lon="10.5163631021465"><ele>134.0</ele><time>2026-03-29T09:28:31Z</time></trkpt><trkpt lat="45.449462949137086" lon="10.516193432935463"><ele>133.66666666666666</ele><time>2026-03-29T09:28:32Z</time></trkpt><trkpt lat="45.44946427968952" lon="10.515951898739239"><ele>133.33333333333334</ele><time>2026-03-29T09:28:33Z</time></trkpt><trkpt lat="45.449515950338785" lon="10.51572603165554"><ele>133.0</ele><time>2026-03-29T09:28:34Z</time></trkpt><trkpt lat="45.449614338913" lon="10.51551392299532"><ele>133.66666666666669</ele><time>2026-03-29T09:28:35Z</time></trkpt><trkpt lat="45.44973258622302" lon="10.515290153824441"><ele>134.33333333333334</ele><time>2026-03-29T09:28:36Z</time></trkpt><trkpt lat="45.44981105777239" lon="10.51506263108831"><ele>135.0</ele><time>2026-03-29T09:28:37Z</time></trkpt><trkpt lat="45.44985161597017" lon="10.514816276686966"><ele>135.33333333333334</ele><time>2026-03-29T09:28:38Z</time></trkpt><trkpt lat="45.44987330483867" lon="10.514521871130908"><ele>135.66666666666669</ele><time>2026-03-29T09:28:39Z</time></trkpt><trkpt lat="45.449892442441815" lon="10.514207126703955"><ele>136.0</ele><time>2026-03-29T09:28:40Z</time></trkpt><trkpt lat="45.44991398574252" lon="10.513874489726609"><ele>137.5</ele><time>2026-03-29T09:28:41Z</time></trkpt><trkpt lat="45.44995422666753" lon="10.513539202720446"><ele>139.0</ele><time>2026-03-29T09:28:42Z</time></trkpt><trkpt lat="45.44997856596133" lon="10.513209103400788"><ele>139.0</ele><time>2026-03-29T09:28:43Z</time></trkpt><trkpt lat="45.450001592193345" lon="10.51291031164802"><ele>139.0</ele><time>2026-03-29T09:28:44Z</time></trkpt><trkpt lat="45.4500127102848" lon="10.512633462579302"><ele>139.0</ele><time>2026-03-29T09:28:45Z</time></trkpt><trkpt lat="45.45006429866369" lon="10.512392882470422"><ele>139.33333333333334</ele><time>2026-03-29T09:28:46Z</time></trkpt><trkpt lat="45.45011650505149" lon="10.512158330050163"><ele>139.66666666666666</ele><time>2026-03-29T09:28:47Z</time></trkpt><trkpt lat="45.45017004432747" lon="10.511948876842181"><ele>140.0</ele><time>2026-03-29T09:28:48Z</time></trkpt><trkpt lat="45.45020873414108" lon="10.511764947680126"><ele>141.0</ele><time>2026-03-29T09:28:49Z</time></trkpt><trkpt lat="45.45023115463415" lon="10.511600951742384"><ele>142.0</ele><time>2026-03-29T09:28:50Z</time></trkpt><trkpt lat="45.450248477999914" lon="10.511474307104868"><ele>143.0</ele><time>2026-03-29T09:28:51Z</time></trkpt><trkpt lat="45.45024780802891" lon="10.511374130097954"><ele>144.0</ele><time>2026-03-29T09:28:52Z</time></trkpt><trkpt lat="45.45028902295127" lon="10.511280722613078"><ele>145.0</ele><time>2026-03-29T09:28:54Z</time></trkpt><trkpt lat="45.450386739337446" lon="10.511355192359568"><ele>145.0</ele><time>2026-03-29T09:28:55Z</time></trkpt><trkpt lat="45.45049396399151" lon="10.511355469950432"><ele>145.0</ele><time>2026-03-29T09:28:56Z</time></trkpt><trkpt lat="45.45059384089112" lon="10.511384481328042"><ele>145.0</ele><time>2026-03-29T09:28:57Z</time></trkpt><trkpt lat="45.45069445222848" lon="10.511413378519654"><ele>145.0</ele><time>2026-03-29T09:28:58Z</time></trkpt><trkpt lat="45.450803522133114" lon="10.511417830159193"><ele>145.0</ele><time>2026-03-29T09:28:59Z</time></trkpt><trkpt lat="45.45089942775263" lon="10.511404074425903"><ele>145.0</ele><time>2026-03-29T09:29:01Z</time></trkpt><trkpt lat="45.45090223386912" lon="10.511302786191532"><ele>145.0</ele><time>2026-03-29T09:29:02Z</time></trkpt><trkpt lat="45.450847095072" lon="10.511208347133834"><ele>145.0</ele><time>2026-03-29T09:29:03Z</time></trkpt><trkpt lat="45.45078952289389" lon="10.511121309795286"><ele>145.0</ele><time>2026-03-29T09:29:04Z</time></trkpt><trkpt lat="45.45077753373959" lon="10.510983102829918"><ele>145.0</ele><time>2026-03-29T09:29:05Z</time></trkpt><trkpt lat="45.4507764451887" lon="10.510827129630426"><ele>145.0</ele><time>2026-03-29T09:29:06Z</time></trkpt><trkpt lat="45.450793499288935" lon="10.510618170596153"><ele>149.0</ele><time>2026-03-29T09:29:07Z</time></trkpt><trkpt lat="45.450812541383996" lon="10.510374201799968"><ele>153.0</ele><time>2026-03-29T09:29:08Z</time></trkpt><trkpt lat="45.450829179617564" lon="10.510132005544008"><ele>157.0</ele><time>2026-03-29T09:29:09Z</time></trkpt><trkpt lat="45.45084533739451" lon="10.509869656441152"><ele>157.0</ele><time>2026-03-29T09:29:10Z</time></trkpt><trkpt lat="45.45087045918304" lon="10.509596838452412"><ele>157.0</ele><time>2026-03-29T09:29:11Z</time></trkpt><trkpt lat="45.450890576358894" lon="10.509329491681482"><ele>157.0</ele><time>2026-03-29T09:29:12Z</time></trkpt><trkpt lat="45.45090922820776" lon="10.50905313589016"><ele>158.33333333333334</ele><time>2026-03-29T09:29:13Z</time></trkpt><trkpt lat="45.45092621114213" lon="10.508784537094245"><ele>159.66666666666666</ele><time>2026-03-29T09:29:14Z</time></trkpt><trkpt lat="45.45094377652266" lon="10.508535016312308"><ele>161.0</ele><time>2026-03-29T09:29:15Z</time></trkpt><trkpt lat="45.450959064112176" lon="10.508317224275057"><ele>161.5</ele><time>2026-03-29T09:29:16Z</time></trkpt><trkpt lat="45.45098351653944" lon="10.508131328677573"><ele>162.0</ele><time>2026-03-29T09:29:17Z</time></trkpt><trkpt lat="45.45105415436835" lon="10.507975305415153"><ele>162.5</ele><time>2026-03-29T09:29:18Z</time></trkpt><trkpt lat="45.45112070284959" lon="10.507804395319233"><ele>163.0</ele><time>2026-03-29T09:29:19Z</time></trkpt><trkpt lat="45.451215569531115" lon="10.507631909498897"><ele>167.33333333333334</ele><time>2026-03-29T09:29:20Z</time></trkpt><trkpt lat="45.451297566501374" lon="10.507417064679595"><ele>171.66666666666666</ele><time>2026-03-29T09:29:21Z</time></trkpt><trkpt lat="45.45135939756292" lon="10.507171722710867"><ele>176.0</ele><time>2026-03-29T09:29:22Z</time></trkpt><trkpt lat="45.451408528693065" lon="10.50691151845218"><ele>177.33333333333331</ele><time>2026-03-29T09:29:23Z</time></trkpt><trkpt lat="45.45145047926425" lon="10.506656566632133"><ele>178.66666666666666</ele><time>2026-03-29T09:29:24Z</time></trkpt><trkpt lat="45.45152272528808" lon="10.506412576469057"><ele>180.0</ele><time>2026-03-29T09:29:25Z</time></trkpt><trkpt lat="45.45156877977278" lon="10.506165700993641"><ele>180.75</ele><time>2026-03-29T09:29:26Z</time></trkpt><trkpt lat="45.451619127923394" lon="10.505963847039654"><ele>181.5</ele><time>2026-03-29T09:29:27Z</time></trkpt><trkpt lat="45.45168354075094" lon="10.505780455783684"><ele>182.25</ele><time>2026-03-29T09:29:28Z</time></trkpt><trkpt lat="45.45174759748817" lon="10.505610693700515"><ele>183.0</ele><time>2026-03-29T09:29:29Z</time></trkpt><trkpt lat="45.45183053619103" lon="10.505441899565305"><ele>181.66666666666666</ele><time>2026-03-29T09:29:30Z</time></trkpt><trkpt lat="45.45190494859189" lon="10.505242995871914"><ele>180.33333333333331</ele><time>2026-03-29T09:29:31Z</time></trkpt><trkpt lat="45.45199604904036" lon="10.505029724525258"><ele>179.0</ele><time>2026-03-29T09:29:32Z</time></trkpt><trkpt lat="45.45207108194198" lon="10.504786633551706"><ele>181.33333333333331</ele><time>2026-03-29T09:29:33Z</time></trkpt><trkpt lat="45.45213194003159" lon="10.504520302015186"><ele>183.66666666666666</ele><time>2026-03-29T09:29:34Z</time></trkpt><trkpt lat="45.452175095420806" lon="10.504242020477824"><ele>186.0</ele><time>2026-03-29T09:29:35Z</time></trkpt><trkpt lat="45.45219953985765" lon="10.50396040250794"><ele>186.0</ele><time>2026-03-29T09:29:36Z</time></trkpt><trkpt lat="45.45221294543003" lon="10.503717234128441"><ele>186.0</ele><time>2026-03-29T09:29:37Z</time></trkpt><trkpt lat="45.452247345648516" lon="10.503484458969298"><ele>186.0</ele><time>2026-03-29T09:29:38Z</time></trkpt><trkpt lat="45.45225238243965" lon="10.503268983888878"><ele>186.0</ele><time>2026-03-29T09:29:39Z</time></trkpt><trkpt lat="45.452294529808334" lon="10.50307051135911"><ele>186.0</ele><time>2026-03-29T09:29:40Z</time></trkpt><trkpt lat="45.45234166627768" lon="10.50288113457233"><ele>186.0</ele><time>2026-03-29T09:29:41Z</time></trkpt><trkpt lat="45.45240137565624" lon="10.502701472256076"><ele>186.0</ele><time>2026-03-29T09:29:42Z</time></trkpt><trkpt lat="45.45247630582512" lon="10.50253670075496"><ele>185.66666666666666</ele><time>2026-03-29T09:29:43Z</time></trkpt><trkpt lat="45.45257711120828" lon="10.5023703015784"><ele>185.33333333333331</ele><time>2026-03-29T09:29:44Z</time></trkpt><trkpt lat="45.452690005226216" lon="10.502192713398054"><ele>185.0</ele><time>2026-03-29T09:29:45Z</time></trkpt><trkpt lat="45.45281485594099" lon="10.501984404946088"><ele>184.33333333333331</ele><time>2026-03-29T09:29:46Z</time></trkpt><trkpt lat="45.45295128263206" lon="10.501779660307244"><ele>183.66666666666666</ele><time>2026-03-29T09:29:47Z</time></trkpt><trkpt lat="45.453090974383414" lon="10.501555089178384"><ele>183.0</ele><time>2026-03-29T09:29:48Z</time></trkpt><trkpt lat="45.45322268800526" lon="10.501310774519105"><ele>182.33333333333334</ele><time>2026-03-29T09:29:49Z</time></trkpt><trkpt lat="45.45333813798566" lon="10.501059028046704"><ele>181.66666666666669</ele><time>2026-03-29T09:29:50Z</time></trkpt><trkpt lat="45.45343520578852" lon="10.50079562308033"><ele>181.0</ele><time>2026-03-29T09:29:51Z</time></trkpt><trkpt lat="45.453514652565275" lon="10.500569706477206"><ele>182.0</ele><time>2026-03-29T09:29:52Z</time></trkpt><trkpt lat="45.45358747836829" lon="10.500347970021984"><ele>183.0</ele><time>2026-03-29T09:29:53Z</time></trkpt><trkpt lat="45.45363414540804" lon="10.500137883735283"><ele>184.0</ele><time>2026-03-29T09:29:54Z</time></trkpt><trkpt lat="45.45367888196642" lon="10.49993497250532"><ele>184.0</ele><time>2026-03-29T09:29:55Z</time></trkpt><trkpt lat="45.453749920132836" lon="10.499728857932057"><ele>184.0</ele><time>2026-03-29T09:29:56Z</time></trkpt><trkpt lat="45.45386937602808" lon="10.499550913444557"><ele>184.0</ele><time>2026-03-29T09:29:57Z</time></trkpt><trkpt lat="45.45398061991294" lon="10.499320719943222"><ele>184.66666666666669</ele><time>2026-03-29T09:29:58Z</time></trkpt><trkpt lat="45.45411005086262" lon="10.499094221206985"><ele>185.33333333333334</ele><time>2026-03-29T09:29:59Z</time></trkpt><trkpt lat="45.454244382807914" lon="10.498919399926429"><ele>186.0</ele><time>2026-03-29T09:30:00Z</time></trkpt><trkpt lat="45.45438122761246" lon="10.498780020583974"><ele>186.0</ele><time>2026-03-29T09:30:01Z</time></trkpt><trkpt lat="45.45454671772673" lon="10.498629883125274"><ele>186.0</ele><time>2026-03-29T09:30:02Z</time></trkpt><trkpt lat="45.45470313465929" lon="10.498441677978093"><ele>186.0</ele><time>2026-03-29T09:30:03Z</time></trkpt><trkpt lat="45.45484460418746" lon="10.498252126545987"><ele>185.66666666666666</ele><time>2026-03-29T09:30:04Z</time></trkpt><trkpt lat="45.45495636324045" lon="10.49803698502298"><ele>185.33333333333331</ele><time>2026-03-29T09:30:05Z</time></trkpt><trkpt lat="45.45504195477123" lon="10.49780667995362"><ele>185.0</ele><time>2026-03-29T09:30:06Z</time></trkpt><trkpt lat="45.45508868271604" lon="10.497572776803521"><ele>183.66666666666666</ele><time>2026-03-29T09:30:07Z</time></trkpt><trkpt lat="45.45513303648421" lon="10.497324712188226"><ele>182.33333333333334</ele><time>2026-03-29T09:30:08Z</time></trkpt><trkpt lat="45.45516299462658" lon="10.497072610818437"><ele>181.0</ele><time>2026-03-29T09:30:09Z</time></trkpt><trkpt lat="45.455204324420386" lon="10.49681750089574"><ele>179.66666666666669</ele><time>2026-03-29T09:30:10Z</time></trkpt><trkpt lat="45.45525473340044" lon="10.49654549198137"><ele>178.33333333333334</ele><time>2026-03-29T09:30:11Z</time></trkpt><trkpt lat="45.45530671004113" lon="10.496298554186088"><ele>177.0</ele><time>2026-03-29T09:30:12Z</time></trkpt><trkpt lat="45.455366319497344" lon="10.496048324522397"><ele>177.0</ele><time>2026-03-29T09:30:13Z</time></trkpt><trkpt lat="45.4554248328665" lon="10.495790222615717"><ele>177.0</ele><time>2026-03-29T09:30:14Z</time></trkpt><trkpt lat="45.455460780327066" lon="10.495506643623656"><ele>177.0</ele><time>2026-03-29T09:30:15Z</time></trkpt><trkpt lat="45.45548470429636" lon="10.495209642796409"><ele>176.33333333333334</ele><time>2026-03-29T09:30:16Z</time></trkpt><trkpt lat="45.45549587689495" lon="10.494899851072615"><ele>175.66666666666669</ele><time>2026-03-29T09:30:17Z</time></trkpt><trkpt lat="45.45552667950534" lon="10.494609147626909"><ele>175.0</ele><time>2026-03-29T09:30:18Z</time></trkpt><trkpt lat="45.455558263649785" lon="10.49433875640174"><ele>174.66666666666669</ele><time>2026-03-29T09:30:19Z</time></trkpt><trkpt lat="45.45559472185091" lon="10.494100056011783"><ele>174.33333333333334</ele><time>2026-03-29T09:30:20Z</time></trkpt><trkpt lat="45.45564146119834" lon="10.493853352633447"><ele>174.0</ele><time>2026-03-29T09:30:21Z</time></trkpt><trkpt lat="45.45569027354519" lon="10.49364172187252"><ele>172.66666666666666</ele><time>2026-03-29T09:30:22Z</time></trkpt><trkpt lat="45.45575134159649" lon="10.493446436425774"><ele>171.33333333333331</ele><time>2026-03-29T09:30:23Z</time></trkpt><trkpt lat="45.45582810771211" lon="10.493228303423248"><ele>170.0</ele><time>2026-03-29T09:30:24Z</time></trkpt><trkpt lat="45.45591819426723" lon="10.49301933332117"><ele>169.25</ele><time>2026-03-29T09:30:25Z</time></trkpt><trkpt lat="45.456005032840196" lon="10.49284044175429"><ele>168.5</ele><time>2026-03-29T09:30:26Z</time></trkpt><trkpt lat="45.45608681184387" lon="10.492672679458423"><ele>167.75</ele><time>2026-03-29T09:30:27Z</time></trkpt><trkpt lat="45.456158294732795" lon="10.492503995777515"><ele>167.0</ele><time>2026-03-29T09:30:28Z</time></trkpt><trkpt lat="45.4562026429375" lon="10.492340558866152"><ele>167.0</ele><time>2026-03-29T09:30:29Z</time></trkpt><trkpt lat="45.45621673750852" lon="10.492165906806019"><ele>167.0</ele><time>2026-03-29T09:30:30Z</time></trkpt><trkpt lat="45.456214365922634" lon="10.492006155060627"><ele>167.0</ele><time>2026-03-29T09:30:31Z</time></trkpt><trkpt lat="45.45619752986686" lon="10.491876661401303"><ele>167.0</ele><time>2026-03-29T09:30:32Z</time></trkpt><trkpt lat="45.45619186710419" lon="10.491779682231822"><ele>167.0</ele><time>2026-03-29T09:30:33Z</time></trkpt><trkpt lat="45.45618803497123" lon="10.491676383076207"><ele>166.16666666666666</ele><time>2026-03-29T09:30:35Z</time></trkpt><trkpt lat="45.45618464514144" lon="10.491580094639144"><ele>165.33333333333331</ele><time>2026-03-29T09:31:39Z</time></trkpt><trkpt lat="45.456188096225745" lon="10.49147599555626"><ele>164.5</ele><time>2026-03-29T09:31:40Z</time></trkpt><trkpt lat="45.45619754890318" lon="10.491352161576208"><ele>163.66666666666666</ele><time>2026-03-29T09:31:41Z</time></trkpt><trkpt lat="45.45621909707237" lon="10.49122651387252"><ele>162.83333333333334</ele><time>2026-03-29T09:31:42Z</time></trkpt><trkpt lat="45.45629422771169" lon="10.491093853065502"><ele>162.0</ele><time>2026-03-29T09:31:43Z</time></trkpt><trkpt lat="45.45638014091665" lon="10.490968274705976"><ele>161.75</ele><time>2026-03-29T09:31:44Z</time></trkpt><trkpt lat="45.45647340541852" lon="10.490841910427879"><ele>161.5</ele><time>2026-03-29T09:31:45Z</time></trkpt><trkpt lat="45.456589703998596" lon="10.490708996954753"><ele>161.25</ele><time>2026-03-29T09:31:46Z</time></trkpt><trkpt lat="45.45670105906005" lon="10.490585745940546"><ele>161.0</ele><time>2026-03-29T09:31:47Z</time></trkpt><trkpt lat="45.45680232053003" lon="10.490481017244957"><ele>161.0</ele><time>2026-03-29T09:31:48Z</time></trkpt><trkpt lat="45.45689726745889" lon="10.490390304354687"><ele>161.0</ele><time>2026-03-29T09:31:49Z</time></trkpt><trkpt lat="45.456989334983845" lon="10.490292453407497"><ele>161.0</ele><time>2026-03-29T09:31:50Z</time></trkpt><trkpt lat="45.45707934349474" lon="10.490193034962267"><ele>161.0</ele><time>2026-03-29T09:31:51Z</time></trkpt><trkpt lat="45.457163341800964" lon="10.49009141268849"><ele>161.60000000000002</ele><time>2026-03-29T09:31:52Z</time></trkpt><trkpt lat="45.45723640785086" lon="10.489999046931596"><ele>162.2</ele><time>2026-03-29T09:31:53Z</time></trkpt><trkpt lat="45.45731391782371" lon="10.489919873747793"><ele>162.8</ele><time>2026-03-29T09:31:54Z</time></trkpt><trkpt lat="45.457410321198246" lon="10.489856237859778"><ele>163.39999999999998</ele><time>2026-03-29T09:31:55Z</time></trkpt><trkpt lat="45.45750689717783" lon="10.489808565689593"><ele>164.0</ele><time>2026-03-29T09:31:56Z</time></trkpt><trkpt lat="45.457607896572696" lon="10.489740924554326"><ele>164.0</ele><time>2026-03-29T09:31:57Z</time></trkpt><trkpt lat="45.45771722365647" lon="10.489662991601644"><ele>164.0</ele><time>2026-03-29T09:31:58Z</time></trkpt><trkpt lat="45.45782809329286" lon="10.489583223540311"><ele>164.0</ele><time>2026-03-29T09:31:59Z</time></trkpt><trkpt lat="45.457925197143226" lon="10.489511080979504"><ele>164.0</ele><time>2026-03-29T09:32:00Z</time></trkpt><trkpt lat="45.458013786620505" lon="10.489447664061826"><ele>163.75</ele><time>2026-03-29T09:32:01Z</time></trkpt><trkpt lat="45.45811385840486" lon="10.48938139331769"><ele>163.5</ele><time>2026-03-29T09:32:02Z</time></trkpt><trkpt lat="45.458235167054085" lon="10.489312046344562"><ele>163.25</ele><time>2026-03-29T09:32:03Z</time></trkpt><trkpt lat="45.458359218206496" lon="10.489238347770762"><ele>163.0</ele><time>2026-03-29T09:32:04Z</time></trkpt><trkpt lat="45.45847892228692" lon="10.489168719623105"><ele>163.0</ele><time>2026-03-29T09:32:05Z</time></trkpt><trkpt lat="45.45860238085947" lon="10.489101887462503"><ele>163.0</ele><time>2026-03-29T09:32:06Z</time></trkpt><trkpt lat="45.458733142848885" lon="10.48905911191267"><ele>163.0</ele><time>2026-03-29T09:32:07Z</time></trkpt><trkpt lat="45.45885409198708" lon="10.489033395891187"><ele>163.0</ele><time>2026-03-29T09:32:08Z</time></trkpt><trkpt lat="45.45897433469823" lon="10.489014247292278"><ele>163.5</ele><time>2026-03-29T09:32:09Z</time></trkpt><trkpt lat="45.459099517302356" lon="10.489013908687369"><ele>164.0</ele><time>2026-03-29T09:32:10Z</time></trkpt><trkpt lat="45.459226084670725" lon="10.489032267767566"><ele>164.5</ele><time>2026-03-29T09:32:11Z</time></trkpt><trkpt lat="45.45935038458664" lon="10.489068003153657"><ele>165.0</ele><time>2026-03-29T09:32:12Z</time></trkpt><trkpt lat="45.45948628612075" lon="10.489116296814773"><ele>164.0</ele><time>2026-03-29T09:32:13Z</time></trkpt><trkpt lat="45.45963899375365" lon="10.489181811586471"><ele>163.0</ele><time>2026-03-29T09:32:14Z</time></trkpt><trkpt lat="45.45980185206243" lon="10.48926661604587"><ele>162.0</ele><time>2026-03-29T09:32:15Z</time></trkpt><trkpt lat="45.459940869774435" lon="10.48936345139746"><ele>162.0</ele><time>2026-03-29T09:32:16Z</time></trkpt><trkpt lat="45.46005583967312" lon="10.48947559588179"><ele>162.0</ele><time>2026-03-29T09:32:17Z</time></trkpt><trkpt lat="45.46015907051961" lon="10.489602208413615"><ele>162.0</ele><time>2026-03-29T09:32:18Z</time></trkpt><trkpt lat="45.46025150550113" lon="10.489732508022184"><ele>162.0</ele><time>2026-03-29T09:32:19Z</time></trkpt><trkpt lat="45.460328479663985" lon="10.489872352806634"><ele>161.83333333333334</ele><time>2026-03-29T09:32:20Z</time></trkpt><trkpt lat="45.46039177967371" lon="10.48999564744816"><ele>161.66666666666666</ele><time>2026-03-29T09:32:21Z</time></trkpt><trkpt lat="45.46045090361924" lon="10.490103900198637"><ele>161.5</ele><time>2026-03-29T09:32:22Z</time></trkpt><trkpt lat="45.46049949202204" lon="10.490197080275715"><ele>161.33333333333331</ele><time>2026-03-29T09:32:23Z</time></trkpt><trkpt lat="45.46054405724254" lon="10.490287405850928"><ele>161.16666666666666</ele><time>2026-03-29T09:32:24Z</time></trkpt><trkpt lat="45.4605883197999" lon="10.490375897004121"><ele>161.0</ele><time>2026-03-29T09:32:25Z</time></trkpt><trkpt lat="45.4606227026735" lon="10.490510518267552"><ele>161.5</ele><time>2026-03-29T09:32:27Z</time></trkpt><trkpt lat="45.460622594745594" lon="10.490651738178034"><ele>162.0</ele><time>2026-03-29T09:32:30Z</time></trkpt><trkpt lat="45.46061590921758" lon="10.490751271271957"><ele>162.5</ele><time>2026-03-29T09:32:31Z</time></trkpt><trkpt lat="45.460619513542404" lon="10.490877212657063"><ele>163.0</ele><time>2026-03-29T09:32:32Z</time></trkpt><trkpt lat="45.46064199012756" lon="10.490979082994855"><ele>163.5</ele><time>2026-03-29T09:32:33Z</time></trkpt><trkpt lat="45.46070490417923" lon="10.49106259788676"><ele>164.0</ele><time>2026-03-29T09:32:34Z</time></trkpt><trkpt lat="45.46077915718881" lon="10.491114842280227"><ele>164.0</ele><time>2026-03-29T09:32:35Z</time></trkpt><trkpt lat="45.460859454634004" lon="10.491136486969655"><ele>164.0</ele><time>2026-03-29T09:32:36Z</time></trkpt><trkpt lat="45.460926441796026" lon="10.491109879625592"><ele>164.0</ele><time>2026-03-29T09:32:37Z</time></trkpt><trkpt lat="45.46098873713062" lon="10.491061418110618"><ele>164.0</ele><time>2026-03-29T09:32:38Z</time></trkpt><trkpt lat="45.46104124529666" lon="10.49099210970709"><ele>164.0</ele><time>2026-03-29T09:32:39Z</time></trkpt><trkpt lat="45.461066984585074" lon="10.490894954295346"><ele>164.0</ele><time>2026-03-29T09:32:40Z</time></trkpt><trkpt lat="45.461078459273686" lon="10.490772069259819"><ele>164.0</ele><time>2026-03-29T09:32:41Z</time></trkpt><trkpt lat="45.46108672890944" lon="10.490660005433933"><ele>164.0</ele><time>2026-03-29T09:32:42Z</time></trkpt><trkpt lat="45.46110882154849" lon="10.49054708471803"><ele>164.0</ele><time>2026-03-29T09:32:43Z</time></trkpt><trkpt lat="45.461147682347104" lon="10.49044890126496"><ele>164.0</ele><time>2026-03-29T09:32:44Z</time></trkpt><trkpt lat="45.46120028438253" lon="10.490361018141773"><ele>164.0</ele><time>2026-03-29T09:32:45Z</time></trkpt><trkpt lat="45.46127271757716" lon="10.490255054883798"><ele>164.0</ele><time>2026-03-29T09:32:46Z</time></trkpt><trkpt lat="45.46134782572226" lon="10.490134648635236"><ele>164.39999999999998</ele><time>2026-03-29T09:32:47Z</time></trkpt><trkpt lat="45.46140901279754" lon="10.490017628158395"><ele>164.8</ele><time>2026-03-29T09:32:48Z</time></trkpt><trkpt lat="45.46148317656852" lon="10.489909849813202"><ele>165.2</ele><time>2026-03-29T09:32:49Z</time></trkpt><trkpt lat="45.46157406616998" lon="10.489835168422667"><ele>165.60000000000002</ele><time>2026-03-29T09:32:50Z</time></trkpt><trkpt lat="45.461677056451165" lon="10.489796204217528"><ele>166.0</ele><time>2026-03-29T09:32:51Z</time></trkpt><trkpt lat="45.461798633694045" lon="10.489767909675209"><ele>166.0</ele><time>2026-03-29T09:32:52Z</time></trkpt><trkpt lat="45.4619250059294" lon="10.489779864866884"><ele>166.0</ele><time>2026-03-29T09:32:53Z</time></trkpt><trkpt lat="45.462049006041" lon="10.489849463436476"><ele>166.0</ele><time>2026-03-29T09:32:54Z</time></trkpt><trkpt lat="45.462172096819195" lon="10.489951059980818"><ele>166.0</ele><time>2026-03-29T09:32:55Z</time></trkpt><trkpt lat="45.462303092944694" lon="10.490062598362861"><ele>167.0</ele><time>2026-03-29T09:32:56Z</time></trkpt><trkpt lat="45.46245422190389" lon="10.490155784248607"><ele>168.0</ele><time>2026-03-29T09:32:57Z</time></trkpt><trkpt lat="45.46261619696188" lon="10.49020990588114"><ele>169.0</ele><time>2026-03-29T09:32:58Z</time></trkpt><trkpt lat="45.46278873342477" lon="10.490177136028848"><ele>168.66666666666669</ele><time>2026-03-29T09:32:59Z</time></trkpt><trkpt lat="45.4629495821373" lon="10.490113980727838"><ele>168.33333333333334</ele><time>2026-03-29T09:33:00Z</time></trkpt><trkpt lat="45.463119300932014" lon="10.489989334796496"><ele>168.0</ele><time>2026-03-29T09:33:01Z</time></trkpt><trkpt lat="45.46327692299305" lon="10.48984634566684"><ele>168.0</ele><time>2026-03-29T09:33:02Z</time></trkpt><trkpt lat="45.463441403386504" lon="10.489706742793048"><ele>168.0</ele><time>2026-03-29T09:33:03Z</time></trkpt><trkpt lat="45.4636141671555" lon="10.489567517343968"><ele>168.0</ele><time>2026-03-29T09:33:04Z</time></trkpt><trkpt lat="45.463794836188576" lon="10.489421359212196"><ele>168.0</ele><time>2026-03-29T09:33:05Z</time></trkpt><trkpt lat="45.463983970626295" lon="10.489274177061759"><ele>168.0</ele><time>2026-03-29T09:33:06Z</time></trkpt><trkpt lat="45.46416656462807" lon="10.489138202927794"><ele>168.0</ele><time>2026-03-29T09:33:07Z</time></trkpt><trkpt lat="45.46433823365155" lon="10.489025713181471"><ele>168.0</ele><time>2026-03-29T09:33:08Z</time></trkpt><trkpt lat="45.46449625146518" lon="10.488946863626667"><ele>168.0</ele><time>2026-03-29T09:33:09Z</time></trkpt><trkpt lat="45.46465683011152" lon="10.488888613659176"><ele>168.0</ele><time>2026-03-29T09:33:10Z</time></trkpt><trkpt lat="45.46482492855671" lon="10.48883993489072"><ele>167.0</ele><time>2026-03-29T09:33:11Z</time></trkpt><trkpt lat="45.465000209947526" lon="10.488806254307073"><ele>166.0</ele><time>2026-03-29T09:33:12Z</time></trkpt><trkpt lat="45.46517980760908" lon="10.4887978883102"><ele>165.0</ele><time>2026-03-29T09:33:13Z</time></trkpt><trkpt lat="45.46535325806291" lon="10.488807633914682"><ele>163.0</ele><time>2026-03-29T09:33:14Z</time></trkpt><trkpt lat="45.46551664219626" lon="10.488832675398356"><ele>161.0</ele><time>2026-03-29T09:33:15Z</time></trkpt><trkpt lat="45.465683787368" lon="10.48887436373837"><ele>159.0</ele><time>2026-03-29T09:33:16Z</time></trkpt><trkpt lat="45.46585154669963" lon="10.488914463695307"><ele>159.0</ele><time>2026-03-29T09:33:17Z</time></trkpt><trkpt lat="45.466016005732584" lon="10.488954936389831"><ele>159.0</ele><time>2026-03-29T09:33:18Z</time></trkpt><trkpt lat="45.46618252497502" lon="10.488994918802058"><ele>159.0</ele><time>2026-03-29T09:33:19Z</time></trkpt><trkpt lat="45.46633528551361" lon="10.489027793354163"><ele>161.33333333333334</ele><time>2026-03-29T09:33:20Z</time></trkpt><trkpt lat="45.4664923920077" lon="10.489059698565178"><ele>163.66666666666669</ele><time>2026-03-29T09:33:21Z</time></trkpt><trkpt lat="45.46666308674392" lon="10.489099795112235"><ele>166.0</ele><time>2026-03-29T09:33:22Z</time></trkpt><trkpt lat="45.466822665760716" lon="10.489140929297337"><ele>166.0</ele><time>2026-03-29T09:33:23Z</time></trkpt><trkpt lat="45.46697926016718" lon="10.489187580670698"><ele>166.0</ele><time>2026-03-29T09:33:24Z</time></trkpt><trkpt lat="45.46714185210256" lon="10.48924099212494"><ele>166.0</ele><time>2026-03-29T09:33:25Z</time></trkpt><trkpt lat="45.46731234933144" lon="10.489298546037343"><ele>166.66666666666669</ele><time>2026-03-29T09:33:26Z</time></trkpt><trkpt lat="45.46748629161429" lon="10.489363458732397"><ele>167.33333333333334</ele><time>2026-03-29T09:33:27Z</time></trkpt><trkpt lat="45.46763940509158" lon="10.489421688139117"><ele>168.0</ele><time>2026-03-29T09:33:28Z</time></trkpt><trkpt lat="45.467788047501806" lon="10.489479677486164"><ele>168.0</ele><time>2026-03-29T09:33:29Z</time></trkpt><trkpt lat="45.467933009102964" lon="10.489538231394583"><ele>168.0</ele><time>2026-03-29T09:33:30Z</time></trkpt><trkpt lat="45.46808584101638" lon="10.489604244088525"><ele>168.0</ele><time>2026-03-29T09:33:31Z</time></trkpt><trkpt lat="45.46824007727578" lon="10.48967351312882"><ele>167.25</ele><time>2026-03-29T09:33:32Z</time></trkpt><trkpt lat="45.46838607921266" lon="10.489738816465861"><ele>166.5</ele><time>2026-03-29T09:33:33Z</time></trkpt><trkpt lat="45.468519305538855" lon="10.489794463977331"><ele>165.75</ele><time>2026-03-29T09:33:34Z</time></trkpt><trkpt lat="45.4686498273626" lon="10.489851749529745"><ele>165.0</ele><time>2026-03-29T09:33:35Z</time></trkpt><trkpt lat="45.468773286862955" lon="10.489909702169285"><ele>163.66666666666666</ele><time>2026-03-29T09:33:36Z</time></trkpt><trkpt lat="45.468919420760415" lon="10.489979385881663"><ele>162.33333333333331</ele><time>2026-03-29T09:33:37Z</time></trkpt><trkpt lat="45.469069419030994" lon="10.490046479882682"><ele>161.0</ele><time>2026-03-29T09:33:38Z</time></trkpt><trkpt lat="45.469227822471375" lon="10.4901182886501"><ele>161.0</ele><time>2026-03-29T09:33:39Z</time></trkpt><trkpt lat="45.46938560866788" lon="10.490185146777888"><ele>161.0</ele><time>2026-03-29T09:33:40Z</time></trkpt><trkpt lat="45.46955387136393" lon="10.490255136606601"><ele>161.0</ele><time>2026-03-29T09:33:41Z</time></trkpt><trkpt lat="45.46970686953484" lon="10.490330015830523"><ele>160.33333333333331</ele><time>2026-03-29T09:33:42Z</time></trkpt><trkpt lat="45.469874713272475" lon="10.49039967807682"><ele>159.66666666666666</ele><time>2026-03-29T09:33:43Z</time></trkpt><trkpt lat="45.47003530888438" lon="10.490467749670627"><ele>159.0</ele><time>2026-03-29T09:33:44Z</time></trkpt><trkpt lat="45.4702003818921" lon="10.490547571031245"><ele>158.66666666666666</ele><time>2026-03-29T09:33:45Z</time></trkpt><trkpt lat="45.47035437831512" lon="10.490617037432019"><ele>158.33333333333331</ele><time>2026-03-29T09:33:46Z</time></trkpt><trkpt lat="45.470498772844074" lon="10.49068424524817"><ele>158.0</ele><time>2026-03-29T09:33:47Z</time></trkpt><trkpt lat="45.470639181122806" lon="10.490749206018668"><ele>157.5</ele><time>2026-03-29T09:33:48Z</time></trkpt><trkpt lat="45.470765421079044" lon="10.490807645629415"><ele>157.0</ele><time>2026-03-29T09:33:49Z</time></trkpt><trkpt lat="45.47089847094104" lon="10.490861056033706"><ele>156.5</ele><time>2026-03-29T09:33:50Z</time></trkpt><trkpt lat="45.471026815680816" lon="10.49091931747095"><ele>156.0</ele><time>2026-03-29T09:33:51Z</time></trkpt><trkpt lat="45.4711495398701" lon="10.490973086242517"><ele>156.0</ele><time>2026-03-29T09:33:52Z</time></trkpt><trkpt lat="45.47126171312947" lon="10.491023590406279"><ele>156.0</ele><time>2026-03-29T09:33:53Z</time></trkpt><trkpt lat="45.47137264260272" lon="10.49107202677061"><ele>156.0</ele><time>2026-03-29T09:33:54Z</time></trkpt><trkpt lat="45.471487743663296" lon="10.491124995179277"><ele>156.0</ele><time>2026-03-29T09:33:55Z</time></trkpt><trkpt lat="45.47160908289895" lon="10.491179776552013"><ele>155.5</ele><time>2026-03-29T09:33:56Z</time></trkpt><trkpt lat="45.47172960402938" lon="10.491232789368928"><ele>155.0</ele><time>2026-03-29T09:33:57Z</time></trkpt><trkpt lat="45.47185918623795" lon="10.4912889359205"><ele>154.5</ele><time>2026-03-29T09:33:58Z</time></trkpt><trkpt lat="45.47199431571614" lon="10.491349382834942"><ele>154.0</ele><time>2026-03-29T09:33:59Z</time></trkpt><trkpt lat="45.4721288078948" lon="10.49140609732416"><ele>153.6</ele><time>2026-03-29T09:34:00Z</time></trkpt><trkpt lat="45.47224350468505" lon="10.491455796012808"><ele>153.2</ele><time>2026-03-29T09:34:01Z</time></trkpt><trkpt lat="45.472352675186436" lon="10.491499494731043"><ele>152.79999999999998</ele><time>2026-03-29T09:34:02Z</time></trkpt><trkpt lat="45.47245402666578" lon="10.491537775334455"><ele>152.4</ele><time>2026-03-29T09:34:03Z</time></trkpt><trkpt lat="45.472544945944954" lon="10.491572881423664"><ele>152.0</ele><time>2026-03-29T09:34:04Z</time></trkpt><trkpt lat="45.472617830730684" lon="10.49160520574183"><ele>152.0</ele><time>2026-03-29T09:34:05Z</time></trkpt><trkpt lat="45.472702280030376" lon="10.491644053903"><ele>152.0</ele><time>2026-03-29T09:34:07Z</time></trkpt><trkpt lat="45.47278242058319" lon="10.491671098601303"><ele>152.0</ele><time>2026-03-29T09:34:10Z</time></trkpt><trkpt lat="45.47285700335381" lon="10.49146403644618"><ele>152.0</ele><time>2026-03-29T09:34:13Z</time></trkpt><trkpt lat="45.472885874349714" lon="10.491301086829823"><ele>152.79999999999998</ele><time>2026-03-29T09:34:14Z</time></trkpt><trkpt lat="45.47290951910026" lon="10.491122894577883"><ele>153.6</ele><time>2026-03-29T09:34:15Z</time></trkpt><trkpt lat="45.47293599095709" lon="10.49094903260924"><ele>154.39999999999998</ele><time>2026-03-29T09:34:16Z</time></trkpt><trkpt lat="45.47296732546478" lon="10.490824809390206"><ele>155.2</ele><time>2026-03-29T09:34:17Z</time></trkpt><trkpt lat="45.47306913906701" lon="10.490814223166563"><ele>156.0</ele><time>2026-03-29T09:34:19Z</time></trkpt><trkpt lat="45.47314960262651" lon="10.490861846687265"><ele>156.25</ele><time>2026-03-29T09:34:20Z</time></trkpt><trkpt lat="45.473269622718114" lon="10.490877068847459"><ele>156.5</ele><time>2026-03-29T09:34:21Z</time></trkpt><trkpt lat="45.47339744451423" lon="10.490911271584597"><ele>156.75</ele><time>2026-03-29T09:34:22Z</time></trkpt><trkpt lat="45.47350011870497" lon="10.490898220075206"><ele>157.0</ele><time>2026-03-29T09:34:23Z</time></trkpt><trkpt lat="45.47358345893543" lon="10.490822124789906"><ele>157.0</ele><time>2026-03-29T09:34:24Z</time></trkpt><trkpt lat="45.473657235885774" lon="10.49069700462771"><ele>157.0</ele><time>2026-03-29T09:34:25Z</time></trkpt><trkpt lat="45.47372547574252" lon="10.49060757947176"><ele>157.0</ele><time>2026-03-29T09:34:26Z</time></trkpt><trkpt lat="45.47382406198193" lon="10.490574428514824"><ele>157.0</ele><time>2026-03-29T09:34:27Z</time></trkpt><trkpt lat="45.473939152476376" lon="10.490637756127056"><ele>157.0</ele><time>2026-03-29T09:34:28Z</time></trkpt><trkpt lat="45.47408628929051" lon="10.490669856655872"><ele>158.0</ele><time>2026-03-29T09:34:29Z</time></trkpt><trkpt lat="45.47424860670079" lon="10.49069250615483"><ele>159.0</ele><time>2026-03-29T09:34:30Z</time></trkpt><trkpt lat="45.47441306334473" lon="10.49070914815353"><ele>160.0</ele><time>2026-03-29T09:34:31Z</time></trkpt><trkpt lat="45.47456004274693" lon="10.49073016524585"><ele>160.75</ele><time>2026-03-29T09:34:32Z</time></trkpt><trkpt lat="45.47468891605108" lon="10.490743298290269"><ele>161.5</ele><time>2026-03-29T09:34:33Z</time></trkpt><trkpt lat="45.47479845774637" lon="10.490714836048179"><ele>162.25</ele><time>2026-03-29T09:34:34Z</time></trkpt><trkpt lat="45.47490799737219" lon="10.490639438061706"><ele>163.0</ele><time>2026-03-29T09:34:35Z</time></trkpt><trkpt lat="45.475035508518026" lon="10.490561708070551"><ele>163.0</ele><time>2026-03-29T09:34:36Z</time></trkpt><trkpt lat="45.47515553541232" lon="10.490495384955942"><ele>163.0</ele><time>2026-03-29T09:34:37Z</time></trkpt><trkpt lat="45.475260788096705" lon="10.49044941324619"><ele>163.0</ele><time>2026-03-29T09:34:38Z</time></trkpt><trkpt lat="45.47534723552589" lon="10.49044082672114"><ele>163.0</ele><time>2026-03-29T09:34:39Z</time></trkpt><trkpt lat="45.47543664179447" lon="10.490504930203613"><ele>163.0</ele><time>2026-03-29T09:34:40Z</time></trkpt><trkpt lat="45.47554871398797" lon="10.490563078186184"><ele>164.0</ele><time>2026-03-29T09:34:41Z</time></trkpt><trkpt lat="45.47567502469438" lon="10.490593155370545"><ele>165.0</ele><time>2026-03-29T09:34:42Z</time></trkpt><trkpt lat="45.47582816417822" lon="10.490650416805853"><ele>166.0</ele><time>2026-03-29T09:34:43Z</time></trkpt><trkpt lat="45.47595843610426" lon="10.49070545491674"><ele>167.0</ele><time>2026-03-29T09:34:44Z</time></trkpt><trkpt lat="45.47606551238471" lon="10.490839002527096"><ele>167.0</ele><time>2026-03-29T09:34:45Z</time></trkpt><trkpt lat="45.476193199998306" lon="10.490932842671679"><ele>167.0</ele><time>2026-03-29T09:34:46Z</time></trkpt><trkpt lat="45.476314589448904" lon="10.491038441697524"><ele>167.0</ele><time>2026-03-29T09:34:47Z</time></trkpt><trkpt lat="45.47645575661825" lon="10.491139708416986"><ele>167.0</ele><time>2026-03-29T09:34:48Z</time></trkpt><trkpt lat="45.47661905344978" lon="10.491238741300752"><ele>167.0</ele><time>2026-03-29T09:34:49Z</time></trkpt><trkpt lat="45.47678173334512" lon="10.491348086720208"><ele>167.0</ele><time>2026-03-29T09:34:50Z</time></trkpt><trkpt lat="45.47691894863646" lon="10.4915052507872"><ele>167.0</ele><time>2026-03-29T09:34:51Z</time></trkpt><trkpt lat="45.47705908034081" lon="10.491674146658461"><ele>168.33333333333331</ele><time>2026-03-29T09:34:52Z</time></trkpt><trkpt lat="45.47720252047198" lon="10.49185118524194"><ele>169.66666666666666</ele><time>2026-03-29T09:34:53Z</time></trkpt><trkpt lat="45.47734234532044" lon="10.492031579563754"><ele>171.0</ele><time>2026-03-29T09:34:54Z</time></trkpt><trkpt lat="45.47746619402332" lon="10.492182352843114"><ele>171.0</ele><time>2026-03-29T09:34:55Z</time></trkpt><trkpt lat="45.477592944384966" lon="10.49233150112777"><ele>171.0</ele><time>2026-03-29T09:34:56Z</time></trkpt><trkpt lat="45.47770875357546" lon="10.492432885429437"><ele>171.0</ele><time>2026-03-29T09:34:57Z</time></trkpt><trkpt lat="45.47779423656079" lon="10.492557405887736"><ele>171.0</ele><time>2026-03-29T09:34:58Z</time></trkpt><trkpt lat="45.477879944931345" lon="10.492617566399753"><ele>170.66666666666666</ele><time>2026-03-29T09:34:59Z</time></trkpt><trkpt lat="45.47794305740014" lon="10.49270272827805"><ele>170.33333333333334</ele><time>2026-03-29T09:35:00Z</time></trkpt><trkpt lat="45.47800860824877" lon="10.492750342892432"><ele>170.0</ele><time>2026-03-29T09:35:01Z</time></trkpt><trkpt lat="45.47807185257738" lon="10.492819632897323"><ele>169.66666666666669</ele><time>2026-03-29T09:35:02Z</time></trkpt><trkpt lat="45.478145400573716" lon="10.49289642938433"><ele>169.33333333333334</ele><time>2026-03-29T09:35:03Z</time></trkpt><trkpt lat="45.47821736629641" lon="10.492986789535772"><ele>169.0</ele><time>2026-03-29T09:35:04Z</time></trkpt><trkpt lat="45.47830271056711" lon="10.493080948753773"><ele>169.0</ele><time>2026-03-29T09:35:05Z</time></trkpt><trkpt lat="45.47836267586609" lon="10.493177203122949"><ele>169.0</ele><time>2026-03-29T09:35:06Z</time></trkpt><trkpt lat="45.47844439337115" lon="10.493236927302526"><ele>169.0</ele><time>2026-03-29T09:35:07Z</time></trkpt><trkpt lat="45.47850914235382" lon="10.493300822931296"><ele>169.0</ele><time>2026-03-29T09:35:08Z</time></trkpt><trkpt lat="45.47858124957548" lon="10.493361008931798"><ele>169.0</ele><time>2026-03-29T09:35:10Z</time></trkpt><trkpt lat="45.47869332990169" lon="10.493199190972163"><ele>169.0</ele><time>2026-03-29T09:35:11Z</time></trkpt><trkpt lat="45.47873622467051" lon="10.493052139557832"><ele>169.0</ele><time>2026-03-29T09:35:12Z</time></trkpt><trkpt lat="45.47876676573804" lon="10.492890339940333"><ele>169.0</ele><time>2026-03-29T09:35:13Z</time></trkpt><trkpt lat="45.47877965188371" lon="10.492720999614074"><ele>169.0</ele><time>2026-03-29T09:35:14Z</time></trkpt><trkpt lat="45.47881847817468" lon="10.49256663405715"><ele>170.0</ele><time>2026-03-29T09:35:15Z</time></trkpt><trkpt lat="45.4788439554069" lon="10.492416688714199"><ele>171.0</ele><time>2026-03-29T09:35:16Z</time></trkpt><trkpt lat="45.4788721552051" lon="10.492279459527458"><ele>172.0</ele><time>2026-03-29T09:35:17Z</time></trkpt><trkpt lat="45.47889912044226" lon="10.492135966038596"><ele>173.0</ele><time>2026-03-29T09:35:18Z</time></trkpt><trkpt lat="45.47893208574299" lon="10.492017037620212"><ele>174.0</ele><time>2026-03-29T09:35:19Z</time></trkpt><trkpt lat="45.47895372774412" lon="10.49190129193024"><ele>174.5</ele><time>2026-03-29T09:35:20Z</time></trkpt><trkpt lat="45.479012827114985" lon="10.491790865852709"><ele>175.0</ele><time>2026-03-29T09:35:21Z</time></trkpt><trkpt lat="45.47907058525184" lon="10.491677847709992"><ele>175.5</ele><time>2026-03-29T09:35:22Z</time></trkpt><trkpt lat="45.479132393028905" lon="10.491617494454822"><ele>176.0</ele><time>2026-03-29T09:35:23Z</time></trkpt><trkpt lat="45.47920740006811" lon="10.491572463994395"><ele>176.5</ele><time>2026-03-29T09:35:24Z</time></trkpt><trkpt lat="45.47929494679557" lon="10.491547439803401"><ele>177.0</ele><time>2026-03-29T09:35:25Z</time></trkpt><trkpt lat="45.47938475402522" lon="10.491566388577114"><ele>177.0</ele><time>2026-03-29T09:35:26Z</time></trkpt><trkpt lat="45.47951233026521" lon="10.491594794976741"><ele>177.0</ele><time>2026-03-29T09:35:27Z</time></trkpt><trkpt lat="45.479654012145126" lon="10.491623307153073"><ele>177.0</ele><time>2026-03-29T09:35:28Z</time></trkpt><trkpt lat="45.47978459056701" lon="10.491652424545386"><ele>177.0</ele><time>2026-03-29T09:35:29Z</time></trkpt><trkpt lat="45.47992961593302" lon="10.491685442940195"><ele>177.66666666666666</ele><time>2026-03-29T09:35:30Z</time></trkpt><trkpt lat="45.480081256593465" lon="10.491698312523248"><ele>178.33333333333331</ele><time>2026-03-29T09:35:31Z</time></trkpt><trkpt lat="45.480240916688054" lon="10.49169997177705"><ele>179.0</ele><time>2026-03-29T09:35:32Z</time></trkpt><trkpt lat="45.48038432552711" lon="10.491690627117375"><ele>179.5</ele><time>2026-03-29T09:35:33Z</time></trkpt><trkpt lat="45.48050841873895" lon="10.491692341688454"><ele>180.0</ele><time>2026-03-29T09:35:34Z</time></trkpt><trkpt lat="45.48064156667754" lon="10.491721625345374"><ele>180.5</ele><time>2026-03-29T09:35:35Z</time></trkpt><trkpt lat="45.48076385136678" lon="10.491786704390588"><ele>181.0</ele><time>2026-03-29T09:35:36Z</time></trkpt><trkpt lat="45.480892516568424" lon="10.49186013711347"><ele>181.0</ele><time>2026-03-29T09:35:37Z</time></trkpt><trkpt lat="45.481042910077626" lon="10.49193283620464"><ele>181.0</ele><time>2026-03-29T09:35:38Z</time></trkpt><trkpt lat="45.48120667591474" lon="10.491954553169025"><ele>181.0</ele><time>2026-03-29T09:35:39Z</time></trkpt><trkpt lat="45.48134360803901" lon="10.49196082488828"><ele>182.66666666666669</ele><time>2026-03-29T09:35:40Z</time></trkpt><trkpt lat="45.48148448619054" lon="10.491994255857"><ele>184.33333333333334</ele><time>2026-03-29T09:35:41Z</time></trkpt><trkpt lat="45.48164518069621" lon="10.492027128814478"><ele>186.0</ele><time>2026-03-29T09:35:42Z</time></trkpt><trkpt lat="45.481818276255865" lon="10.492066543525667"><ele>185.0</ele><time>2026-03-29T09:35:43Z</time></trkpt><trkpt lat="45.48195778498853" lon="10.492110879501594"><ele>184.0</ele><time>2026-03-29T09:35:44Z</time></trkpt><trkpt lat="45.482055939775464" lon="10.49213422244585"><ele>183.0</ele><time>2026-03-29T09:35:45Z</time></trkpt><trkpt lat="45.48214036546916" lon="10.492146183598324"><ele>182.0</ele><time>2026-03-29T09:35:46Z</time></trkpt><trkpt lat="45.482218973569864" lon="10.49212970371263"><ele>181.0</ele><time>2026-03-29T09:35:47Z</time></trkpt><trkpt lat="45.482332518696616" lon="10.49214664195633"><ele>181.0</ele><time>2026-03-29T09:35:49Z</time></trkpt><trkpt lat="45.48240543273073" lon="10.492138540420314"><ele>181.0</ele><time>2026-03-29T09:35:51Z</time></trkpt><trkpt lat="45.482443932691176" lon="10.491976755654813"><ele>181.0</ele><time>2026-03-29T09:35:52Z</time></trkpt><trkpt lat="45.48235110695527" lon="10.491885036549004"><ele>181.0</ele><time>2026-03-29T09:35:53Z</time></trkpt><trkpt lat="45.4822939383113" lon="10.491811969381136"><ele>181.0</ele><time>2026-03-29T09:35:54Z</time></trkpt><trkpt lat="45.482226956071024" lon="10.491721804170627"><ele>182.25</ele><time>2026-03-29T09:35:55Z</time></trkpt><trkpt lat="45.48216404793665" lon="10.49158889911144"><ele>183.5</ele><time>2026-03-29T09:35:56Z</time></trkpt><trkpt lat="45.4820793966984" lon="10.491452937750067"><ele>184.75</ele><time>2026-03-29T09:35:57Z</time></trkpt><trkpt lat="45.48197939084278" lon="10.49132669419602"><ele>186.0</ele><time>2026-03-29T09:35:58Z</time></trkpt><trkpt lat="45.48189458959196" lon="10.491161915141957"><ele>188.33333333333331</ele><time>2026-03-29T09:35:59Z</time></trkpt><trkpt lat="45.48178559823675" lon="10.491003175884703"><ele>190.66666666666666</ele><time>2026-03-29T09:36:00Z</time></trkpt><trkpt lat="45.48167191717388" lon="10.49084144630995"><ele>193.0</ele><time>2026-03-29T09:36:01Z</time></trkpt><trkpt lat="45.48157538563235" lon="10.490682278319012"><ele>193.0</ele><time>2026-03-29T09:36:02Z</time></trkpt><trkpt lat="45.48148513178138" lon="10.490530306637469"><ele>193.0</ele><time>2026-03-29T09:36:03Z</time></trkpt><trkpt lat="45.48140773015529" lon="10.490406365763205"><ele>193.0</ele><time>2026-03-29T09:36:04Z</time></trkpt><trkpt lat="45.48132527059868" lon="10.49027523236326"><ele>193.0</ele><time>2026-03-29T09:36:05Z</time></trkpt><trkpt lat="45.481237425718334" lon="10.490145957443461"><ele>192.0</ele><time>2026-03-29T09:36:06Z</time></trkpt><trkpt lat="45.481149431992016" lon="10.490020897212107"><ele>191.0</ele><time>2026-03-29T09:36:07Z</time></trkpt><trkpt lat="45.481066605336196" lon="10.489879880746741"><ele>190.0</ele><time>2026-03-29T09:36:08Z</time></trkpt><trkpt lat="45.48098244717658" lon="10.489752641744847"><ele>189.0</ele><time>2026-03-29T09:36:09Z</time></trkpt><trkpt lat="45.48088312357885" lon="10.489658422331681"><ele>189.0</ele><time>2026-03-29T09:36:10Z</time></trkpt><trkpt lat="45.48079848851093" lon="10.489591352411177"><ele>189.0</ele><time>2026-03-29T09:36:11Z</time></trkpt><trkpt lat="45.48070051369502" lon="10.489604206876457"><ele>189.0</ele><time>2026-03-29T09:36:12Z</time></trkpt><trkpt lat="45.48058229641533" lon="10.489571996413304"><ele>189.0</ele><time>2026-03-29T09:36:13Z</time></trkpt><trkpt lat="45.48046004883805" lon="10.48955860417508"><ele>189.0</ele><time>2026-03-29T09:36:14Z</time></trkpt><trkpt lat="45.48035705135132" lon="10.489520981798263"><ele>191.25</ele><time>2026-03-29T09:36:15Z</time></trkpt><trkpt lat="45.48026540257392" lon="10.489472789695828"><ele>193.5</ele><time>2026-03-29T09:36:16Z</time></trkpt><trkpt lat="45.48016138771727" lon="10.48936911474903"><ele>195.75</ele><time>2026-03-29T09:36:17Z</time></trkpt><trkpt lat="45.480062832447715" lon="10.489258628186507"><ele>198.0</ele><time>2026-03-29T09:36:18Z</time></trkpt><trkpt lat="45.47999386307874" lon="10.48914891710501"><ele>198.0</ele><time>2026-03-29T09:36:19Z</time></trkpt><trkpt lat="45.47993530286444" lon="10.489051685854957"><ele>198.0</ele><time>2026-03-29T09:36:20Z</time></trkpt><trkpt lat="45.4798740915355" lon="10.488931838218418"><ele>198.0</ele><time>2026-03-29T09:36:21Z</time></trkpt><trkpt lat="45.479810614336586" lon="10.488785737736837"><ele>198.0</ele><time>2026-03-29T09:36:22Z</time></trkpt><trkpt lat="45.47974623043007" lon="10.48864702841197"><ele>198.0</ele><time>2026-03-29T09:36:23Z</time></trkpt><trkpt lat="45.479705626090336" lon="10.488511695278001"><ele>197.5</ele><time>2026-03-29T09:36:24Z</time></trkpt><trkpt lat="45.47964990560822" lon="10.488336970817544"><ele>197.0</ele><time>2026-03-29T09:36:25Z</time></trkpt><trkpt lat="45.47960378632863" lon="10.488149071388479"><ele>196.5</ele><time>2026-03-29T09:36:26Z</time></trkpt><trkpt lat="45.47954129642924" lon="10.487980532384949"><ele>196.0</ele><time>2026-03-29T09:36:27Z</time></trkpt><trkpt lat="45.47948920667612" lon="10.487822474286386"><ele>197.4</ele><time>2026-03-29T09:36:28Z</time></trkpt><trkpt lat="45.479421869601396" lon="10.487682479881368"><ele>198.8</ele><time>2026-03-29T09:36:29Z</time></trkpt><trkpt lat="45.47934610666018" lon="10.487574864800038"><ele>200.20000000000002</ele><time>2026-03-29T09:36:30Z</time></trkpt><trkpt lat="45.47926525749457" lon="10.487508444796823"><ele>201.60000000000002</ele><time>2026-03-29T09:36:31Z</time></trkpt><trkpt lat="45.47920369453661" lon="10.487447142471382"><ele>203.0</ele><time>2026-03-29T09:36:32Z</time></trkpt><trkpt lat="45.47916873848222" lon="10.487370150090767"><ele>203.0</ele><time>2026-03-29T09:36:34Z</time></trkpt><trkpt lat="45.47923096744976" lon="10.487283647372095"><ele>203.0</ele><time>2026-03-29T09:36:35Z</time></trkpt><trkpt lat="45.479272340402545" lon="10.487176534810907"><ele>203.0</ele><time>2026-03-29T09:36:36Z</time></trkpt><trkpt lat="45.479314715917106" lon="10.487039653191356"><ele>203.0</ele><time>2026-03-29T09:36:37Z</time></trkpt><trkpt lat="45.47938397077981" lon="10.48685714739069"><ele>203.0</ele><time>2026-03-29T09:36:38Z</time></trkpt><trkpt lat="45.47944737082236" lon="10.48666447290918"><ele>204.0</ele><time>2026-03-29T09:36:39Z</time></trkpt><trkpt lat="45.47952050777038" lon="10.486459594602842"><ele>205.0</ele><time>2026-03-29T09:36:40Z</time></trkpt><trkpt lat="45.4795968272675" lon="10.486264062018302"><ele>206.0</ele><time>2026-03-29T09:36:41Z</time></trkpt><trkpt lat="45.47969937008912" lon="10.486032742203363"><ele>207.33333333333334</ele><time>2026-03-29T09:36:42Z</time></trkpt><trkpt lat="45.479787825121036" lon="10.485809946011837"><ele>208.66666666666669</ele><time>2026-03-29T09:36:43Z</time></trkpt><trkpt lat="45.47989126257841" lon="10.485583559154808"><ele>210.0</ele><time>2026-03-29T09:36:44Z</time></trkpt><trkpt lat="45.4799665189508" lon="10.485390782034456"><ele>211.0</ele><time>2026-03-29T09:36:45Z</time></trkpt><trkpt lat="45.48003497895515" lon="10.485238700883878"><ele>212.0</ele><time>2026-03-29T09:36:46Z</time></trkpt><trkpt lat="45.48007949234661" lon="10.485104191526904"><ele>213.0</ele><time>2026-03-29T09:36:47Z</time></trkpt><trkpt lat="45.480123393774356" lon="10.484981362135708"><ele>214.0</ele><time>2026-03-29T09:36:48Z</time></trkpt><trkpt lat="45.480191396408486" lon="10.484832319904003"><ele>214.0</ele><time>2026-03-29T09:36:49Z</time></trkpt><trkpt lat="45.4802364589638" lon="10.484657337920403"><ele>214.0</ele><time>2026-03-29T09:36:50Z</time></trkpt><trkpt lat="45.48025513947298" lon="10.484471807205527"><ele>214.0</ele><time>2026-03-29T09:36:51Z</time></trkpt><trkpt lat="45.48024094608012" lon="10.484306873097912"><ele>214.0</ele><time>2026-03-29T09:36:52Z</time></trkpt><trkpt lat="45.48019845260983" lon="10.484161394376075"><ele>215.0</ele><time>2026-03-29T09:36:53Z</time></trkpt><trkpt lat="45.48017582697885" lon="10.484053405385128"><ele>216.0</ele><time>2026-03-29T09:36:54Z</time></trkpt><trkpt lat="45.48013734035773" lon="10.48386684655408"><ele>217.0</ele><time>2026-03-29T09:36:55Z</time></trkpt><trkpt lat="45.48004412365492" lon="10.483687347060945"><ele>218.0</ele><time>2026-03-29T09:36:56Z</time></trkpt><trkpt lat="45.47996278821199" lon="10.483531645486954"><ele>219.0</ele><time>2026-03-29T09:36:57Z</time></trkpt><trkpt lat="45.47987081334542" lon="10.483380177316418"><ele>220.0</ele><time>2026-03-29T09:36:58Z</time></trkpt><trkpt lat="45.47979429051105" lon="10.483241386376571"><ele>221.0</ele><time>2026-03-29T09:36:59Z</time></trkpt><trkpt lat="45.47975433832068" lon="10.483138165909008"><ele>222.0</ele><time>2026-03-29T09:37:00Z</time></trkpt><trkpt lat="45.4797547966739" lon="10.483026826283082"><ele>223.0</ele><time>2026-03-29T09:37:02Z</time></trkpt><trkpt lat="45.47975159468931" lon="10.482897354556789"><ele>224.0</ele><time>2026-03-29T09:37:04Z</time></trkpt><trkpt lat="45.47973257700455" lon="10.482734583165989"><ele>225.0</ele><time>2026-03-29T09:37:05Z</time></trkpt><trkpt lat="45.47969697764131" lon="10.482576601921487"><ele>226.0</ele><time>2026-03-29T09:37:06Z</time></trkpt><trkpt lat="45.47967415630186" lon="10.482404891766995"><ele>227.0</ele><time>2026-03-29T09:37:07Z</time></trkpt><trkpt lat="45.479663849622" lon="10.482287069033415"><ele>228.0</ele><time>2026-03-29T09:37:08Z</time></trkpt><trkpt lat="45.47967172657082" lon="10.482181414606178"><ele>227.4</ele><time>2026-03-29T09:37:09Z</time></trkpt><trkpt lat="45.47967787921012" lon="10.48208190744802"><ele>226.8</ele><time>2026-03-29T09:37:10Z</time></trkpt><trkpt lat="45.47965531588129" lon="10.481929712723378"><ele>226.2</ele><time>2026-03-29T09:37:11Z</time></trkpt><trkpt lat="45.47958061743131" lon="10.481804566735383"><ele>225.6</ele><time>2026-03-29T09:37:12Z</time></trkpt><trkpt lat="45.479513289482995" lon="10.481638502442662"><ele>225.0</ele><time>2026-03-29T09:37:13Z</time></trkpt><trkpt lat="45.479419028532824" lon="10.481432510233684"><ele>222.75</ele><time>2026-03-29T09:37:14Z</time></trkpt><trkpt lat="45.47934832867563" lon="10.481226124895999"><ele>220.5</ele><time>2026-03-29T09:37:15Z</time></trkpt><trkpt lat="45.47929298402328" lon="10.481032992725856"><ele>218.25</ele><time>2026-03-29T09:37:16Z</time></trkpt><trkpt lat="45.47925653092098" lon="10.480866436630848"><ele>216.0</ele><time>2026-03-29T09:37:17Z</time></trkpt><trkpt lat="45.47921875873501" lon="10.480725437025225"><ele>216.0</ele><time>2026-03-29T09:37:18Z</time></trkpt><trkpt lat="45.479181773371636" lon="10.480633315376696"><ele>216.00000000000003</ele><time>2026-03-29T09:37:19Z</time></trkpt><trkpt lat="45.4791156204471" lon="10.480542976764514"><ele>216.00000000000003</ele><time>2026-03-29T09:37:21Z</time></trkpt><trkpt lat="45.479038178784705" lon="10.480555244155958"><ele>216.0</ele><time>2026-03-29T09:37:22Z</time></trkpt><trkpt lat="45.47893914378063" lon="10.480546959363508"><ele>216.0</ele><time>2026-03-29T09:37:23Z</time></trkpt><trkpt lat="45.47882203450059" lon="10.480535942725481"><ele>216.25</ele><time>2026-03-29T09:37:24Z</time></trkpt><trkpt lat="45.47870607520157" lon="10.480513158852506"><ele>216.5</ele><time>2026-03-29T09:37:25Z</time></trkpt><trkpt lat="45.47858627098419" lon="10.480495577821548"><ele>216.75</ele><time>2026-03-29T09:37:26Z</time></trkpt><trkpt lat="45.47850111598737" lon="10.48047203382822"><ele>217.0</ele><time>2026-03-29T09:37:27Z</time></trkpt><trkpt lat="45.47841961485776" lon="10.480330216236093"><ele>216.39999999999998</ele><time>2026-03-29T09:37:29Z</time></trkpt><trkpt lat="45.47841797096218" lon="10.480224937414166"><ele>215.79999999999998</ele><time>2026-03-29T09:37:30Z</time></trkpt><trkpt lat="45.47842399922657" lon="10.480092749122324"><ele>215.2</ele><time>2026-03-29T09:37:31Z</time></trkpt><trkpt lat="45.47839576923952" lon="10.479926568853157"><ele>214.6</ele><time>2026-03-29T09:37:32Z</time></trkpt><trkpt lat="45.478368467856775" lon="10.479818846250486"><ele>214.0</ele><time>2026-03-29T09:37:33Z</time></trkpt><trkpt lat="45.47826748610629" lon="10.47974568534785"><ele>214.0</ele><time>2026-03-29T09:37:35Z</time></trkpt><trkpt lat="45.47818994211306" lon="10.479725771948523"><ele>213.99999999999997</ele><time>2026-03-29T09:37:36Z</time></trkpt><trkpt lat="45.47809577645179" lon="10.479715275508369"><ele>213.99999999999997</ele><time>2026-03-29T09:37:37Z</time></trkpt><trkpt lat="45.47797869685145" lon="10.479713755323344"><ele>214.0</ele><time>2026-03-29T09:37:38Z</time></trkpt><trkpt lat="45.4778705962801" lon="10.479718247377564"><ele>214.0</ele><time>2026-03-29T09:37:39Z</time></trkpt><trkpt lat="45.477764784117554" lon="10.479715710135563"><ele>213.5</ele><time>2026-03-29T09:37:40Z</time></trkpt><trkpt lat="45.47766516721162" lon="10.479702485740104"><ele>213.0</ele><time>2026-03-29T09:37:41Z</time></trkpt><trkpt lat="45.47756995220269" lon="10.479663029928163"><ele>212.5</ele><time>2026-03-29T09:37:42Z</time></trkpt><trkpt lat="45.47747074685572" lon="10.479573618085638"><ele>212.0</ele><time>2026-03-29T09:37:43Z</time></trkpt><trkpt lat="45.47734241108414" lon="10.479476315588002"><ele>211.39999999999998</ele><time>2026-03-29T09:37:44Z</time></trkpt><trkpt lat="45.477229422167426" lon="10.47939310752412"><ele>210.79999999999998</ele><time>2026-03-29T09:37:45Z</time></trkpt><trkpt lat="45.477129719380024" lon="10.479306942795523"><ele>210.2</ele><time>2026-03-29T09:37:46Z</time></trkpt><trkpt lat="45.47707712417628" lon="10.479225496681073"><ele>209.6</ele><time>2026-03-29T09:37:47Z</time></trkpt><trkpt lat="45.477080113113004" lon="10.479090530028957"><ele>209.0</ele><time>2026-03-29T09:37:48Z</time></trkpt><trkpt lat="45.47705035825178" lon="10.478953006862712"><ele>208.79999999999998</ele><time>2026-03-29T09:37:49Z</time></trkpt><trkpt lat="45.477017585282645" lon="10.478823900989356"><ele>208.6</ele><time>2026-03-29T09:37:50Z</time></trkpt><trkpt lat="45.47697406633487" lon="10.478727876752854"><ele>208.4</ele><time>2026-03-29T09:37:51Z</time></trkpt><trkpt lat="45.47688604828777" lon="10.47865302416664"><ele>208.2</ele><time>2026-03-29T09:37:52Z</time></trkpt><trkpt lat="45.476771134594465" lon="10.478565756241924"><ele>208.0</ele><time>2026-03-29T09:37:53Z</time></trkpt><trkpt lat="45.476665255133064" lon="10.478440269798233"><ele>207.8</ele><time>2026-03-29T09:37:54Z</time></trkpt><trkpt lat="45.47654329881621" lon="10.478325528379568"><ele>207.60000000000002</ele><time>2026-03-29T09:37:55Z</time></trkpt><trkpt lat="45.476427514550814" lon="10.478232617362176"><ele>207.39999999999998</ele><time>2026-03-29T09:37:56Z</time></trkpt><trkpt lat="45.47634927282438" lon="10.478158706093858"><ele>207.2</ele><time>2026-03-29T09:37:57Z</time></trkpt><trkpt lat="45.47629109683265" lon="10.47809539589987"><ele>207.0</ele><time>2026-03-29T09:37:58Z</time></trkpt><trkpt lat="45.47627175524317" lon="10.477978444519588"><ele>205.8</ele><time>2026-03-29T09:37:59Z</time></trkpt><trkpt lat="45.47622225616206" lon="10.477844481886393"><ele>204.6</ele><time>2026-03-29T09:38:00Z</time></trkpt><trkpt lat="45.47618306187965" lon="10.477723598142209"><ele>203.4</ele><time>2026-03-29T09:38:01Z</time></trkpt><trkpt lat="45.47613628752219" lon="10.47764387500008"><ele>202.20000000000002</ele><time>2026-03-29T09:38:02Z</time></trkpt><trkpt lat="45.47608469419555" lon="10.477512747228738"><ele>201.0</ele><time>2026-03-29T09:38:04Z</time></trkpt><trkpt lat="45.47594161177758" lon="10.477533161637659"><ele>201.0</ele><time>2026-03-29T09:38:11Z</time></trkpt><trkpt lat="45.47584457625385" lon="10.47761212126182"><ele>201.0</ele><time>2026-03-29T09:38:12Z</time></trkpt><trkpt lat="45.47574612971216" lon="10.477704222596824"><ele>201.0</ele><time>2026-03-29T09:38:13Z</time></trkpt><trkpt lat="45.47563477479039" lon="10.477824483558583"><ele>201.0</ele><time>2026-03-29T09:38:14Z</time></trkpt><trkpt lat="45.47551759323281" lon="10.477939548962402"><ele>200.25</ele><time>2026-03-29T09:38:15Z</time></trkpt><trkpt lat="45.475388468784224" lon="10.478046971492622"><ele>199.5</ele><time>2026-03-29T09:38:16Z</time></trkpt><trkpt lat="45.475266310985695" lon="10.478112098687072"><ele>198.75</ele><time>2026-03-29T09:38:17Z</time></trkpt><trkpt lat="45.47514733859045" lon="10.47815595859464"><ele>198.0</ele><time>2026-03-29T09:38:18Z</time></trkpt><trkpt lat="45.4750257669852" lon="10.478179283022886"><ele>198.0</ele><time>2026-03-29T09:38:19Z</time></trkpt><trkpt lat="45.47491984198189" lon="10.47815776626539"><ele>198.0</ele><time>2026-03-29T09:38:20Z</time></trkpt><trkpt lat="45.47481748822077" lon="10.47815853679546"><ele>198.0</ele><time>2026-03-29T09:38:21Z</time></trkpt><trkpt lat="45.47472115394228" lon="10.478073277138256"><ele>198.0</ele><time>2026-03-29T09:38:22Z</time></trkpt><trkpt lat="45.47465915836052" lon="10.477939495946206"><ele>198.0</ele><time>2026-03-29T09:38:23Z</time></trkpt><trkpt lat="45.47460863345557" lon="10.477792562743366"><ele>197.66666666666669</ele><time>2026-03-29T09:38:24Z</time></trkpt><trkpt lat="45.47454499557941" lon="10.477634401990553"><ele>197.33333333333334</ele><time>2026-03-29T09:38:25Z</time></trkpt><trkpt lat="45.47463471816366" lon="10.477384305102325"><ele>197.0</ele><time>2026-03-29T09:38:26Z</time></trkpt><trkpt lat="45.474663052717176" lon="10.47711525929215"><ele>196.33333333333334</ele><time>2026-03-29T09:38:27Z</time></trkpt><trkpt lat="45.47469696772547" lon="10.476817153638681"><ele>195.66666666666669</ele><time>2026-03-29T09:38:28Z</time></trkpt><trkpt lat="45.47472711399241" lon="10.476502235185011"><ele>195.0</ele><time>2026-03-29T09:38:29Z</time></trkpt><trkpt lat="45.47475017389838" lon="10.476174151170238"><ele>194.0</ele><time>2026-03-29T09:38:30Z</time></trkpt><trkpt lat="45.474733961239515" lon="10.475841232619482"><ele>193.0</ele><time>2026-03-29T09:38:31Z</time></trkpt><trkpt lat="45.47470725731778" lon="10.47550747702488"><ele>191.5</ele><time>2026-03-29T09:38:32Z</time></trkpt><trkpt lat="45.47464377358417" lon="10.47514488329829"><ele>190.0</ele><time>2026-03-29T09:38:33Z</time></trkpt><trkpt lat="45.4745761524868" lon="10.474776297209289"><ele>187.5</ele><time>2026-03-29T09:38:34Z</time></trkpt><trkpt lat="45.47450970979969" lon="10.47442495590544"><ele>185.0</ele><time>2026-03-29T09:38:35Z</time></trkpt><trkpt lat="45.47444357784551" lon="10.474094170010481"><ele>185.0</ele><time>2026-03-29T09:38:36Z</time></trkpt><trkpt lat="45.47436497954135" lon="10.473773961768146"><ele>185.0</ele><time>2026-03-29T09:38:37Z</time></trkpt><trkpt lat="45.47427546536803" lon="10.473456488954787"><ele>184.0</ele><time>2026-03-29T09:38:38Z</time></trkpt><trkpt lat="45.47419306237085" lon="10.473161425168467"><ele>183.0</ele><time>2026-03-29T09:38:39Z</time></trkpt><trkpt lat="45.47412014986682" lon="10.47289473126712"><ele>182.0</ele><time>2026-03-29T09:38:40Z</time></trkpt><trkpt lat="45.47406345292652" lon="10.472660714200522"><ele>181.75</ele><time>2026-03-29T09:38:41Z</time></trkpt><trkpt lat="45.47402745986165" lon="10.472473345398708"><ele>181.5</ele><time>2026-03-29T09:38:42Z</time></trkpt><trkpt lat="45.474016614582204" lon="10.472323006029596"><ele>181.25</ele><time>2026-03-29T09:38:43Z</time></trkpt><trkpt lat="45.47399232718944" lon="10.47217073672574"><ele>181.0</ele><time>2026-03-29T09:38:44Z</time></trkpt><trkpt lat="45.47411538527749" lon="10.471992088421674"><ele>179.66666666666669</ele><time>2026-03-29T09:38:45Z</time></trkpt><trkpt lat="45.474201645375345" lon="10.471837432083987"><ele>178.33333333333334</ele><time>2026-03-29T09:38:46Z</time></trkpt><trkpt lat="45.47436502641906" lon="10.471775351159865"><ele>177.0</ele><time>2026-03-29T09:38:47Z</time></trkpt><trkpt lat="45.47453314015955" lon="10.471673088498562"><ele>177.33333333333334</ele><time>2026-03-29T09:38:48Z</time></trkpt><trkpt lat="45.47469908101428" lon="10.471547518303762"><ele>177.66666666666669</ele><time>2026-03-29T09:38:49Z</time></trkpt><trkpt lat="45.47482450818605" lon="10.471444389353241"><ele>178.0</ele><time>2026-03-29T09:38:50Z</time></trkpt><trkpt lat="45.47492663330466" lon="10.47131442833889"><ele>175.33333333333334</ele><time>2026-03-29T09:38:51Z</time></trkpt><trkpt lat="45.47500835670316" lon="10.471149998053548"><ele>172.66666666666666</ele><time>2026-03-29T09:38:52Z</time></trkpt><trkpt lat="45.47505695973003" lon="10.470921884870405"><ele>170.0</ele><time>2026-03-29T09:38:53Z</time></trkpt><trkpt lat="45.47508878652496" lon="10.47065504217538"><ele>168.66666666666666</ele><time>2026-03-29T09:38:54Z</time></trkpt><trkpt lat="45.47509524055967" lon="10.47034868855104"><ele>167.33333333333334</ele><time>2026-03-29T09:38:55Z</time></trkpt><trkpt lat="45.47509177102356" lon="10.470033387529034"><ele>166.0</ele><time>2026-03-29T09:38:56Z</time></trkpt><trkpt lat="45.4751014339977" lon="10.469696874082294"><ele>166.0</ele><time>2026-03-29T09:38:57Z</time></trkpt><trkpt lat="45.47511751868078" lon="10.46935250386314"><ele>166.0</ele><time>2026-03-29T09:38:58Z</time></trkpt><trkpt lat="45.475128278178744" lon="10.469007238729505"><ele>165.0</ele><time>2026-03-29T09:38:59Z</time></trkpt><trkpt lat="45.47515423342236" lon="10.46866098777765"><ele>164.0</ele><time>2026-03-29T09:39:00Z</time></trkpt><trkpt lat="45.475165231146065" lon="10.468322444158868"><ele>164.0</ele><time>2026-03-29T09:39:01Z</time></trkpt><trkpt lat="45.47517510469829" lon="10.46800023214595"><ele>164.0</ele><time>2026-03-29T09:39:02Z</time></trkpt><trkpt lat="45.47518508129902" lon="10.467674656930901"><ele>163.0</ele><time>2026-03-29T09:39:03Z</time></trkpt><trkpt lat="45.47519949133866" lon="10.467354302832012"><ele>162.0</ele><time>2026-03-29T09:39:04Z</time></trkpt><trkpt lat="45.47521949763055" lon="10.467023691191947"><ele>161.5</ele><time>2026-03-29T09:39:05Z</time></trkpt><trkpt lat="45.47524674650923" lon="10.466695450024996"><ele>161.0</ele><time>2026-03-29T09:39:06Z</time></trkpt><trkpt lat="45.47527582178213" lon="10.466370376299343"><ele>160.0</ele><time>2026-03-29T09:39:07Z</time></trkpt><trkpt lat="45.47530688720229" lon="10.466023051818592"><ele>159.0</ele><time>2026-03-29T09:39:08Z</time></trkpt><trkpt lat="45.47533174540666" lon="10.465699249828257"><ele>158.66666666666666</ele><time>2026-03-29T09:39:09Z</time></trkpt><trkpt lat="45.4753533837478" lon="10.465389709482208"><ele>158.33333333333331</ele><time>2026-03-29T09:39:10Z</time></trkpt><trkpt lat="45.475375755345965" lon="10.465086898492292"><ele>158.0</ele><time>2026-03-29T09:39:11Z</time></trkpt><trkpt lat="45.475391034818195" lon="10.464772872932837"><ele>157.66666666666666</ele><time>2026-03-29T09:39:12Z</time></trkpt><trkpt lat="45.47537539037354" lon="10.464461040198678"><ele>157.33333333333334</ele><time>2026-03-29T09:39:13Z</time></trkpt><trkpt lat="45.47538501348695" lon="10.464146451746323"><ele>157.0</ele><time>2026-03-29T09:39:14Z</time></trkpt><trkpt lat="45.475364564011414" lon="10.463843267597207"><ele>156.66666666666669</ele><time>2026-03-29T09:39:15Z</time></trkpt><trkpt lat="45.47534858568802" lon="10.463548569125026"><ele>156.33333333333334</ele><time>2026-03-29T09:39:16Z</time></trkpt><trkpt lat="45.47533998575212" lon="10.46328516611104"><ele>156.0</ele><time>2026-03-29T09:39:17Z</time></trkpt><trkpt lat="45.47535517957264" lon="10.463045039985593"><ele>156.0</ele><time>2026-03-29T09:39:18Z</time></trkpt><trkpt lat="45.47539732173176" lon="10.462828837180217"><ele>156.0</ele><time>2026-03-29T09:39:19Z</time></trkpt><trkpt lat="45.47546729623635" lon="10.462645700688501"><ele>156.0</ele><time>2026-03-29T09:39:20Z</time></trkpt><trkpt lat="45.47556309312671" lon="10.462487918639738"><ele>155.33333333333334</ele><time>2026-03-29T09:39:21Z</time></trkpt><trkpt lat="45.47568967520458" lon="10.462334218611877"><ele>154.66666666666669</ele><time>2026-03-29T09:39:22Z</time></trkpt><trkpt lat="45.475810221704975" lon="10.462180544870186"><ele>154.0</ele><time>2026-03-29T09:39:23Z</time></trkpt><trkpt lat="45.47590912824418" lon="10.461983416665921"><ele>154.0</ele><time>2026-03-29T09:39:24Z</time></trkpt><trkpt lat="45.47600296438767" lon="10.46177296621537"><ele>154.0</ele><time>2026-03-29T09:39:25Z</time></trkpt><trkpt lat="45.47608184815955" lon="10.461555575642093"><ele>154.0</ele><time>2026-03-29T09:39:26Z</time></trkpt><trkpt lat="45.476155927178816" lon="10.461323384006953"><ele>154.0</ele><time>2026-03-29T09:39:27Z</time></trkpt><trkpt lat="45.47624327859367" lon="10.461097601451083"><ele>154.0</ele><time>2026-03-29T09:39:28Z</time></trkpt><trkpt lat="45.476311440663196" lon="10.460875630814844"><ele>154.0</ele><time>2026-03-29T09:39:29Z</time></trkpt><trkpt lat="45.47636868606285" lon="10.460654967386239"><ele>154.33333333333334</ele><time>2026-03-29T09:39:30Z</time></trkpt><trkpt lat="45.47642137703735" lon="10.460420411287881"><ele>154.66666666666666</ele><time>2026-03-29T09:39:31Z</time></trkpt><trkpt lat="45.4764710186187" lon="10.460194537432226"><ele>155.0</ele><time>2026-03-29T09:39:32Z</time></trkpt><trkpt lat="45.47651431078648" lon="10.460001079188972"><ele>155.0</ele><time>2026-03-29T09:39:33Z</time></trkpt><trkpt lat="45.47653534424776" lon="10.459799722245306"><ele>155.0</ele><time>2026-03-29T09:39:34Z</time></trkpt><trkpt lat="45.47658487020538" lon="10.45962769867287"><ele>155.0</ele><time>2026-03-29T09:39:35Z</time></trkpt><trkpt lat="45.47664100163445" lon="10.459455155353437"><ele>155.0</ele><time>2026-03-29T09:39:36Z</time></trkpt><trkpt lat="45.476695574749286" lon="10.459273875185849"><ele>155.0</ele><time>2026-03-29T09:39:37Z</time></trkpt><trkpt lat="45.476775886527676" lon="10.45909354315057"><ele>155.0</ele><time>2026-03-29T09:39:38Z</time></trkpt><trkpt lat="45.47681173720981" lon="10.45889459314205"><ele>155.0</ele><time>2026-03-29T09:39:39Z</time></trkpt><trkpt lat="45.47685803095014" lon="10.458684580798858"><ele>155.0</ele><time>2026-03-29T09:39:40Z</time></trkpt><trkpt lat="45.47689898507015" lon="10.458479487050065"><ele>155.0</ele><time>2026-03-29T09:39:41Z</time></trkpt><trkpt lat="45.47693170006782" lon="10.458274332411756"><ele>155.0</ele><time>2026-03-29T09:39:42Z</time></trkpt><trkpt lat="45.47697129812853" lon="10.45807674725239"><ele>155.0</ele><time>2026-03-29T09:39:43Z</time></trkpt><trkpt lat="45.47700593029652" lon="10.457868739007361"><ele>155.0</ele><time>2026-03-29T09:39:44Z</time></trkpt><trkpt lat="45.477042633537366" lon="10.457681025799774"><ele>155.0</ele><time>2026-03-29T09:39:45Z</time></trkpt><trkpt lat="45.47707578776651" lon="10.457495341020735"><ele>155.0</ele><time>2026-03-29T09:39:46Z</time></trkpt><trkpt lat="45.477106594538775" lon="10.457318998177755"><ele>155.0</ele><time>2026-03-29T09:39:47Z</time></trkpt><trkpt lat="45.477138454361246" lon="10.457140932475538"><ele>155.0</ele><time>2026-03-29T09:39:48Z</time></trkpt><trkpt lat="45.477176287392204" lon="10.45696597409954"><ele>154.5</ele><time>2026-03-29T09:39:49Z</time></trkpt><trkpt lat="45.477214395450865" lon="10.456796279197928"><ele>154.0</ele><time>2026-03-29T09:39:50Z</time></trkpt><trkpt lat="45.47725450422702" lon="10.456628446546231"><ele>153.5</ele><time>2026-03-29T09:39:51Z</time></trkpt><trkpt lat="45.477293066320335" lon="10.456476758526255"><ele>153.0</ele><time>2026-03-29T09:39:52Z</time></trkpt><trkpt lat="45.47734665119947" lon="10.456335752061673"><ele>153.20000000000002</ele><time>2026-03-29T09:39:53Z</time></trkpt><trkpt lat="45.477376813853944" lon="10.456189469855278"><ele>153.4</ele><time>2026-03-29T09:39:54Z</time></trkpt><trkpt lat="45.47742195691287" lon="10.456075627591302"><ele>153.60000000000002</ele><time>2026-03-29T09:39:55Z</time></trkpt><trkpt lat="45.47752040835105" lon="10.455986189484529"><ele>153.8</ele><time>2026-03-29T09:39:56Z</time></trkpt><trkpt lat="45.477616770904625" lon="10.455893684590665"><ele>154.0</ele><time>2026-03-29T09:39:57Z</time></trkpt><trkpt lat="45.4777232586811" lon="10.45578952258269"><ele>154.0</ele><time>2026-03-29T09:39:58Z</time></trkpt><trkpt lat="45.477830157183554" lon="10.45565579969457"><ele>154.0</ele><time>2026-03-29T09:39:59Z</time></trkpt><trkpt lat="45.47754117889778" lon="10.45526767950482"><ele>153.75</ele><time>2026-03-29T09:40:00Z</time></trkpt><trkpt lat="45.477597483714995" lon="10.455112082750098"><ele>153.5</ele><time>2026-03-29T09:40:01Z</time></trkpt><trkpt lat="45.47766416139867" lon="10.454937665840264"><ele>153.25</ele><time>2026-03-29T09:40:02Z</time></trkpt><trkpt lat="45.477738825293734" lon="10.454751859807809"><ele>153.0</ele><time>2026-03-29T09:40:03Z</time></trkpt><trkpt lat="45.47802982160382" lon="10.454376314383762"><ele>152.0</ele><time>2026-03-29T09:40:04Z</time></trkpt><trkpt lat="45.47818029133091" lon="10.454348909999178"><ele>151.0</ele><time>2026-03-29T09:40:05Z</time></trkpt><trkpt lat="45.47836965037725" lon="10.454082076488785"><ele>150.0</ele><time>2026-03-29T09:40:06Z</time></trkpt><trkpt lat="45.478464533672195" lon="10.453947858284694"><ele>150.0</ele><time>2026-03-29T09:40:07Z</time></trkpt><trkpt lat="45.47856219662995" lon="10.453800858767693"><ele>150.0</ele><time>2026-03-29T09:40:08Z</time></trkpt><trkpt lat="45.47889833800122" lon="10.454056794796342"><ele>150.25</ele><time>2026-03-29T09:40:09Z</time></trkpt><trkpt lat="45.478935978607275" lon="10.45398358368125"><ele>150.5</ele><time>2026-03-29T09:40:10Z</time></trkpt><trkpt lat="45.479007134192656" lon="10.453900974083334"><ele>150.75</ele><time>2026-03-29T09:40:11Z</time></trkpt><trkpt lat="45.479088585242785" lon="10.453805334398721"><ele>151.0</ele><time>2026-03-29T09:40:13Z</time></trkpt><trkpt lat="45.479320926578765" lon="10.454097246908477"><ele>151.0</ele><time>2026-03-29T09:40:16Z</time></trkpt><trkpt lat="45.47937168448136" lon="10.45416320998104"><ele>151.0</ele><time>2026-03-29T09:40:17Z</time></trkpt><trkpt lat="45.479464342367265" lon="10.454199882895672"><ele>151.0</ele><time>2026-03-29T09:40:19Z</time></trkpt><trkpt lat="45.479546697042494" lon="10.454236323845361"><ele>151.0</ele><time>2026-03-29T09:40:22Z</time></trkpt><trkpt lat="45.47960807397434" lon="10.454274654401615"><ele>151.0</ele><time>2026-03-29T09:40:24Z</time></trkpt><trkpt lat="45.47954264375368" lon="10.454193017135681"><ele>151.0</ele><time>2026-03-29T09:40:33Z</time></trkpt><trkpt lat="45.479425494654585" lon="10.454171719728667"><ele>151.0</ele><time>2026-03-29T09:40:34Z</time></trkpt><trkpt lat="45.47933384292922" lon="10.454130558952912"><ele>151.0</ele><time>2026-03-29T09:40:35Z</time></trkpt><trkpt lat="45.47924812778863" lon="10.454024618185985"><ele>151.0</ele><time>2026-03-29T09:40:37Z</time></trkpt><trkpt lat="45.47923225046285" lon="10.453890612036481"><ele>151.0</ele><time>2026-03-29T09:40:39Z</time></trkpt><trkpt lat="45.47933399371642" lon="10.453776396733868"><ele>151.0</ele><time>2026-03-29T09:40:41Z</time></trkpt><trkpt lat="45.47943301357272" lon="10.453705764179128"><ele>151.0</ele><time>2026-03-29T09:40:42Z</time></trkpt><trkpt lat="45.479545671863015" lon="10.453601469269053"><ele>151.0</ele><time>2026-03-29T09:40:43Z</time></trkpt><trkpt lat="45.4796585446642" lon="10.453496611461208"><ele>151.0</ele><time>2026-03-29T09:40:44Z</time></trkpt><trkpt lat="45.47977616175828" lon="10.453400681584693"><ele>151.0</ele><time>2026-03-29T09:40:45Z</time></trkpt><trkpt lat="45.47988256773668" lon="10.453326506911555"><ele>151.0</ele><time>2026-03-29T09:40:46Z</time></trkpt><trkpt lat="45.479974403894474" lon="10.453284670105425"><ele>151.0</ele><time>2026-03-29T09:40:47Z</time></trkpt><trkpt lat="45.48006705439562" lon="10.453281122844148"><ele>151.0</ele><time>2026-03-29T09:40:48Z</time></trkpt><trkpt lat="45.480188798598235" lon="10.453296314588167"><ele>151.0</ele><time>2026-03-29T09:40:49Z</time></trkpt><trkpt lat="45.4803205100097" lon="10.453313690494545"><ele>151.0</ele><time>2026-03-29T09:40:50Z</time></trkpt><trkpt lat="45.480468507171665" lon="10.453337343688405"><ele>151.0</ele><time>2026-03-29T09:40:51Z</time></trkpt><trkpt lat="45.4806345164829" lon="10.453365307745036"><ele>151.0</ele><time>2026-03-29T09:40:52Z</time></trkpt><trkpt lat="45.48078193187614" lon="10.453383329860884"><ele>151.0</ele><time>2026-03-29T09:40:53Z</time></trkpt><trkpt lat="45.480942662229936" lon="10.453408592456535"><ele>151.0</ele><time>2026-03-29T09:40:54Z</time></trkpt><trkpt lat="45.48111724197467" lon="10.453432372259845"><ele>151.0</ele><time>2026-03-29T09:40:55Z</time></trkpt><trkpt lat="45.48129468182403" lon="10.453462994925543"><ele>151.0</ele><time>2026-03-29T09:40:56Z</time></trkpt><trkpt lat="45.48146577461265" lon="10.453485754479772"><ele>151.33333333333334</ele><time>2026-03-29T09:40:57Z</time></trkpt><trkpt lat="45.4816304713688" lon="10.453517009275247"><ele>151.66666666666666</ele><time>2026-03-29T09:40:58Z</time></trkpt><trkpt lat="45.481795077337544" lon="10.453541664257626"><ele>152.0</ele><time>2026-03-29T09:40:59Z</time></trkpt><trkpt lat="45.48195827125725" lon="10.453571317629342"><ele>152.0</ele><time>2026-03-29T09:41:00Z</time></trkpt><trkpt lat="45.482113379200285" lon="10.45359440784148"><ele>152.0</ele><time>2026-03-29T09:41:01Z</time></trkpt><trkpt lat="45.482290818339685" lon="10.45362284963498"><ele>152.0</ele><time>2026-03-29T09:41:02Z</time></trkpt><trkpt lat="45.48247910978032" lon="10.453651638141723"><ele>152.0</ele><time>2026-03-29T09:41:03Z</time></trkpt><trkpt lat="45.48263843375258" lon="10.453669662736047"><ele>152.0</ele><time>2026-03-29T09:41:04Z</time></trkpt><trkpt lat="45.48281753532682" lon="10.453698558974303"><ele>152.0</ele><time>2026-03-29T09:41:05Z</time></trkpt><trkpt lat="45.48300407340602" lon="10.453725286041161"><ele>152.33333333333331</ele><time>2026-03-29T09:41:06Z</time></trkpt><trkpt lat="45.48318891087652" lon="10.453749693720212"><ele>152.66666666666666</ele><time>2026-03-29T09:41:07Z</time></trkpt><trkpt lat="45.48336838645434" lon="10.453785438750279"><ele>153.0</ele><time>2026-03-29T09:41:08Z</time></trkpt><trkpt lat="45.48353389544926" lon="10.453806135371432"><ele>153.33333333333334</ele><time>2026-03-29T09:41:09Z</time></trkpt><trkpt lat="45.48370379918558" lon="10.453834746749678"><ele>153.66666666666669</ele><time>2026-03-29T09:41:10Z</time></trkpt><trkpt lat="45.48386617829915" lon="10.453861742447275"><ele>154.0</ele><time>2026-03-29T09:41:11Z</time></trkpt><trkpt lat="45.48401335041526" lon="10.453882077652716"><ele>154.2</ele><time>2026-03-29T09:41:12Z</time></trkpt><trkpt lat="45.48414255875395" lon="10.453898641046862"><ele>154.4</ele><time>2026-03-29T09:41:13Z</time></trkpt><trkpt lat="45.48426039983691" lon="10.45391567100741"><ele>154.6</ele><time>2026-03-29T09:41:14Z</time></trkpt><trkpt lat="45.48435590940238" lon="10.453937138341354"><ele>154.8</ele><time>2026-03-29T09:41:15Z</time></trkpt><trkpt lat="45.484438039923795" lon="10.45394317168144"><ele>155.0</ele><time>2026-03-29T09:41:16Z</time></trkpt><trkpt lat="45.48454457841536" lon="10.453960210013738"><ele>155.0</ele><time>2026-03-29T09:41:18Z</time></trkpt><trkpt lat="45.48457160584521" lon="10.454058151230779"><ele>155.0</ele><time>2026-03-29T09:41:20Z</time></trkpt><trkpt lat="45.48456498333601" lon="10.454153956814515"><ele>155.0</ele><time>2026-03-29T09:41:21Z</time></trkpt><trkpt lat="45.48454533737098" lon="10.454283696415818"><ele>155.0</ele><time>2026-03-29T09:41:22Z</time></trkpt><trkpt lat="45.48453119731801" lon="10.454431991046722"><ele>155.0</ele><time>2026-03-29T09:41:23Z</time></trkpt><trkpt lat="45.48452891942492" lon="10.45458579824996"><ele>155.0</ele><time>2026-03-29T09:41:24Z</time></trkpt><trkpt lat="45.4845306532378" lon="10.45475550675007"><ele>155.25</ele><time>2026-03-29T09:41:25Z</time></trkpt><trkpt lat="45.48452912037357" lon="10.454938989502677"><ele>155.5</ele><time>2026-03-29T09:41:26Z</time></trkpt><trkpt lat="45.48452741401302" lon="10.455156119138243"><ele>155.75</ele><time>2026-03-29T09:41:27Z</time></trkpt><trkpt lat="45.48452502714062" lon="10.45538568837103"><ele>156.0</ele><time>2026-03-29T09:41:28Z</time></trkpt><trkpt lat="45.484528016875586" lon="10.45560862969977"><ele>156.25</ele><time>2026-03-29T09:41:29Z</time></trkpt><trkpt lat="45.48452895548075" lon="10.455821901995542"><ele>156.5</ele><time>2026-03-29T09:41:30Z</time></trkpt><trkpt lat="45.48452634922408" lon="10.456029577353211"><ele>156.75</ele><time>2026-03-29T09:41:31Z</time></trkpt><trkpt lat="45.48453282671859" lon="10.45623394974747"><ele>157.0</ele><time>2026-03-29T09:41:32Z</time></trkpt><trkpt lat="45.48453416615646" lon="10.456451112039375"><ele>157.0</ele><time>2026-03-29T09:41:33Z</time></trkpt><trkpt lat="45.48453081401454" lon="10.456667855672745"><ele>157.0</ele><time>2026-03-29T09:41:34Z</time></trkpt><trkpt lat="45.484537249148524" lon="10.456904855498333"><ele>157.0</ele><time>2026-03-29T09:41:35Z</time></trkpt><trkpt lat="45.48453395818506" lon="10.457129540977835"><ele>157.0</ele><time>2026-03-29T09:41:36Z</time></trkpt><trkpt lat="45.48453254842018" lon="10.45732388297735"><ele>157.0</ele><time>2026-03-29T09:41:37Z</time></trkpt><trkpt lat="45.48453301418536" lon="10.457499260382658"><ele>157.0</ele><time>2026-03-29T09:41:38Z</time></trkpt><trkpt lat="45.484528156528654" lon="10.45767908496288"><ele>157.0</ele><time>2026-03-29T09:41:39Z</time></trkpt><trkpt lat="45.484519716670135" lon="10.45785018996625"><ele>157.25</ele><time>2026-03-29T09:41:40Z</time></trkpt><trkpt lat="45.484521981428706" lon="10.458009751635702"><ele>157.5</ele><time>2026-03-29T09:41:41Z</time></trkpt><trkpt lat="45.484501796651045" lon="10.458146507017206"><ele>157.75</ele><time>2026-03-29T09:41:42Z</time></trkpt><trkpt lat="45.48444162631372" lon="10.458276834456115"><ele>158.0</ele><time>2026-03-29T09:41:43Z</time></trkpt><trkpt lat="45.48435523850453" lon="10.45842334083973"><ele>158.0</ele><time>2026-03-29T09:41:44Z</time></trkpt><trkpt lat="45.48425159465771" lon="10.458548979488631"><ele>158.0</ele><time>2026-03-29T09:41:45Z</time></trkpt><trkpt lat="45.484142049868254" lon="10.458687881529077"><ele>158.0</ele><time>2026-03-29T09:41:46Z</time></trkpt><trkpt lat="45.48404256782024" lon="10.458846342536603"><ele>158.0</ele><time>2026-03-29T09:41:47Z</time></trkpt><trkpt lat="45.48395456853526" lon="10.458990849881177"><ele>158.20000000000002</ele><time>2026-03-29T09:41:48Z</time></trkpt><trkpt lat="45.48388344385889" lon="10.459098579045696"><ele>158.4</ele><time>2026-03-29T09:41:49Z</time></trkpt><trkpt lat="45.4838126738481" lon="10.459207099522773"><ele>158.60000000000002</ele><time>2026-03-29T09:41:50Z</time></trkpt><trkpt lat="45.48376996000149" lon="10.459280567776092"><ele>158.8</ele><time>2026-03-29T09:41:51Z</time></trkpt><trkpt lat="45.48374534968424" lon="10.459431401198218"><ele>159.0</ele><time>2026-03-29T09:41:53Z</time></trkpt><trkpt lat="45.483779185669846" lon="10.459535981792959"><ele>159.75</ele><time>2026-03-29T09:41:54Z</time></trkpt><trkpt lat="45.483816460548475" lon="10.459667825928644"><ele>160.5</ele><time>2026-03-29T09:41:55Z</time></trkpt><trkpt lat="45.48385333715451" lon="10.45983005799941"><ele>161.25</ele><time>2026-03-29T09:41:56Z</time></trkpt><trkpt lat="45.48387914175415" lon="10.460025971478709"><ele>162.0</ele><time>2026-03-29T09:41:57Z</time></trkpt><trkpt lat="45.48390493018042" lon="10.460251379658207"><ele>162.33333333333334</ele><time>2026-03-29T09:41:58Z</time></trkpt><trkpt lat="45.48392673344376" lon="10.460479321780227"><ele>162.66666666666669</ele><time>2026-03-29T09:41:59Z</time></trkpt><trkpt lat="45.483940962130525" lon="10.460720040176874"><ele>163.0</ele><time>2026-03-29T09:42:00Z</time></trkpt><trkpt lat="45.483948089152676" lon="10.460946709996215"><ele>163.0</ele><time>2026-03-29T09:42:01Z</time></trkpt><trkpt lat="45.48394591674165" lon="10.461150877142558"><ele>163.0</ele><time>2026-03-29T09:42:02Z</time></trkpt><trkpt lat="45.48393889667499" lon="10.461336466135718"><ele>163.0</ele><time>2026-03-29T09:42:03Z</time></trkpt><trkpt lat="45.48393318160025" lon="10.46149419899949"><ele>163.0</ele><time>2026-03-29T09:42:04Z</time></trkpt><trkpt lat="45.48392452242724" lon="10.461635558674256"><ele>163.0</ele><time>2026-03-29T09:42:05Z</time></trkpt><trkpt lat="45.48392167928978" lon="10.461753200508298"><ele>163.0</ele><time>2026-03-29T09:42:06Z</time></trkpt><trkpt lat="45.48393923794525" lon="10.461845042392962"><ele>163.0</ele><time>2026-03-29T09:42:07Z</time></trkpt><trkpt lat="45.48397881538408" lon="10.461922428565837"><ele>163.0</ele><time>2026-03-29T09:42:08Z</time></trkpt><trkpt lat="45.48403898089867" lon="10.462004401261357"><ele>163.0</ele><time>2026-03-29T09:42:09Z</time></trkpt><trkpt lat="45.484105132544116" lon="10.462125731077258"><ele>163.0</ele><time>2026-03-29T09:42:10Z</time></trkpt><trkpt lat="45.48418034707756" lon="10.462309916802264"><ele>163.0</ele><time>2026-03-29T09:42:11Z</time></trkpt><trkpt lat="45.48424861091168" lon="10.462477658373974"><ele>163.0</ele><time>2026-03-29T09:42:12Z</time></trkpt><trkpt lat="45.48430307956183" lon="10.462649199343328"><ele>163.0</ele><time>2026-03-29T09:42:13Z</time></trkpt><trkpt lat="45.48434841805381" lon="10.462815971447887"><ele>163.0</ele><time>2026-03-29T09:42:14Z</time></trkpt><trkpt lat="45.484406498838396" lon="10.462965925074927"><ele>163.2</ele><time>2026-03-29T09:42:15Z</time></trkpt><trkpt lat="45.48448807360493" lon="10.46308868194701"><ele>163.4</ele><time>2026-03-29T09:42:16Z</time></trkpt><trkpt lat="45.48455933064129" lon="10.463193920853973"><ele>163.6</ele><time>2026-03-29T09:42:17Z</time></trkpt><trkpt lat="45.484594317475135" lon="10.463300460156383"><ele>163.79999999999998</ele><time>2026-03-29T09:42:18Z</time></trkpt><trkpt lat="45.484601270254906" lon="10.463433036818778"><ele>164.0</ele><time>2026-03-29T09:42:19Z</time></trkpt><trkpt lat="45.484597993608446" lon="10.463611079150061"><ele>164.33333333333331</ele><time>2026-03-29T09:42:20Z</time></trkpt><trkpt lat="45.4845950056759" lon="10.463816888934902"><ele>164.66666666666666</ele><time>2026-03-29T09:42:21Z</time></trkpt><trkpt lat="45.48460776647048" lon="10.464040703271522"><ele>165.0</ele><time>2026-03-29T09:42:22Z</time></trkpt><trkpt lat="45.484632574322724" lon="10.464267805608486"><ele>165.0</ele><time>2026-03-29T09:42:23Z</time></trkpt><trkpt lat="45.48465938093235" lon="10.464482514898084"><ele>165.0</ele><time>2026-03-29T09:42:24Z</time></trkpt><trkpt lat="45.48468485948428" lon="10.464719546171906"><ele>165.0</ele><time>2026-03-29T09:42:25Z</time></trkpt><trkpt lat="45.4847099372976" lon="10.464957802339434"><ele>165.25</ele><time>2026-03-29T09:42:26Z</time></trkpt><trkpt lat="45.48473629295731" lon="10.465142987654817"><ele>165.5</ele><time>2026-03-29T09:42:27Z</time></trkpt><trkpt lat="45.484763102759274" lon="10.465367254342645"><ele>165.75</ele><time>2026-03-29T09:42:28Z</time></trkpt><trkpt lat="45.48479312969841" lon="10.465587770386257"><ele>166.0</ele><time>2026-03-29T09:42:29Z</time></trkpt><trkpt lat="45.48482847779335" lon="10.465809466115862"><ele>166.33333333333334</ele><time>2026-03-29T09:42:30Z</time></trkpt><trkpt lat="45.48484593379076" lon="10.466020691934773"><ele>166.66666666666666</ele><time>2026-03-29T09:42:31Z</time></trkpt><trkpt lat="45.484863496292384" lon="10.466241794865175"><ele>167.0</ele><time>2026-03-29T09:42:32Z</time></trkpt><trkpt lat="45.48488929808233" lon="10.466494832024683"><ele>167.66666666666666</ele><time>2026-03-29T09:42:33Z</time></trkpt><trkpt lat="45.48492431809345" lon="10.466745725449327"><ele>168.33333333333334</ele><time>2026-03-29T09:42:34Z</time></trkpt><trkpt lat="45.48497205947538" lon="10.466999960749025"><ele>169.0</ele><time>2026-03-29T09:42:35Z</time></trkpt><trkpt lat="45.485011002640725" lon="10.46723375283663"><ele>169.0</ele><time>2026-03-29T09:42:36Z</time></trkpt><trkpt lat="45.48503985749733" lon="10.467478662478976"><ele>169.0</ele><time>2026-03-29T09:42:37Z</time></trkpt><trkpt lat="45.48505364547673" lon="10.46771731720218"><ele>169.0</ele><time>2026-03-29T09:42:38Z</time></trkpt><trkpt lat="45.48507406689458" lon="10.467962356355175"><ele>169.33333333333334</ele><time>2026-03-29T09:42:39Z</time></trkpt><trkpt lat="45.485087518122896" lon="10.4682071499944"><ele>169.66666666666666</ele><time>2026-03-29T09:42:40Z</time></trkpt><trkpt lat="45.48510210277698" lon="10.468450646787728"><ele>170.0</ele><time>2026-03-29T09:42:41Z</time></trkpt><trkpt lat="45.48511891312128" lon="10.468696950436513"><ele>170.25</ele><time>2026-03-29T09:42:42Z</time></trkpt><trkpt lat="45.48513524343045" lon="10.468919802334717"><ele>170.5</ele><time>2026-03-29T09:42:43Z</time></trkpt><trkpt lat="45.485136202776914" lon="10.469108322272092"><ele>170.75</ele><time>2026-03-29T09:42:44Z</time></trkpt><trkpt lat="45.48513224605017" lon="10.469282925598261"><ele>171.0</ele><time>2026-03-29T09:42:45Z</time></trkpt><trkpt lat="45.485125615650574" lon="10.469439326311983"><ele>171.25</ele><time>2026-03-29T09:42:46Z</time></trkpt><trkpt lat="45.485116883131965" lon="10.469613625576322"><ele>171.5</ele><time>2026-03-29T09:42:47Z</time></trkpt><trkpt lat="45.485123378531746" lon="10.469806303018194"><ele>171.75</ele><time>2026-03-29T09:42:48Z</time></trkpt><trkpt lat="45.48514551103683" lon="10.470018227190145"><ele>172.0</ele><time>2026-03-29T09:42:49Z</time></trkpt><trkpt lat="45.4851740845144" lon="10.470268277978859"><ele>173.0</ele><time>2026-03-29T09:42:50Z</time></trkpt><trkpt lat="45.48521017245239" lon="10.470510327496594"><ele>174.0</ele><time>2026-03-29T09:42:51Z</time></trkpt><trkpt lat="45.485240362283015" lon="10.47074339282829"><ele>175.0</ele><time>2026-03-29T09:42:52Z</time></trkpt><trkpt lat="45.485303528432425" lon="10.470942861723588"><ele>175.0</ele><time>2026-03-29T09:42:53Z</time></trkpt><trkpt lat="45.48532647080829" lon="10.471125559257732"><ele>175.0</ele><time>2026-03-29T09:42:54Z</time></trkpt><trkpt lat="45.4853578091415" lon="10.471291515468865"><ele>175.0</ele><time>2026-03-29T09:42:55Z</time></trkpt><trkpt lat="45.48538983129468" lon="10.471440947426233"><ele>175.0</ele><time>2026-03-29T09:42:56Z</time></trkpt><trkpt lat="45.485413493092985" lon="10.471592424021537"><ele>176.0</ele><time>2026-03-29T09:42:57Z</time></trkpt><trkpt lat="45.48545011188763" lon="10.471751330227818"><ele>177.0</ele><time>2026-03-29T09:42:58Z</time></trkpt><trkpt lat="45.48548264415736" lon="10.471903281073958"><ele>178.0</ele><time>2026-03-29T09:42:59Z</time></trkpt><trkpt lat="45.485510990111585" lon="10.472042098236615"><ele>179.0</ele><time>2026-03-29T09:43:00Z</time></trkpt><trkpt lat="45.48555502666697" lon="10.47217755530157"><ele>180.0</ele><time>2026-03-29T09:43:01Z</time></trkpt><trkpt lat="45.48557259993852" lon="10.472302177472784"><ele>180.5</ele><time>2026-03-29T09:43:02Z</time></trkpt><trkpt lat="45.48559653436073" lon="10.472387315250145"><ele>181.0</ele><time>2026-03-29T09:43:03Z</time></trkpt><trkpt lat="45.48563268309619" lon="10.472463044904307"><ele>181.5</ele><time>2026-03-29T09:43:05Z</time></trkpt><trkpt lat="45.48576073385587" lon="10.472358556752276"><ele>182.0</ele><time>2026-03-29T09:43:06Z</time></trkpt><trkpt lat="45.485827932097486" lon="10.472335725721903"><ele>182.5</ele><time>2026-03-29T09:43:07Z</time></trkpt><trkpt lat="45.48589771522114" lon="10.472373326142025"><ele>183.0</ele><time>2026-03-29T09:43:09Z</time></trkpt><trkpt lat="45.48593639457443" lon="10.472491762269497"><ele>183.0</ele><time>2026-03-29T09:43:10Z</time></trkpt><trkpt lat="45.48601121962346" lon="10.472554678464505"><ele>183.0</ele><time>2026-03-29T09:43:11Z</time></trkpt><trkpt lat="45.48608679394636" lon="10.472613647962987"><ele>183.0</ele><time>2026-03-29T09:43:12Z</time></trkpt><trkpt lat="45.48612714730555" lon="10.472696898851115"><ele>183.0</ele><time>2026-03-29T09:43:13Z</time></trkpt><trkpt lat="45.48616263861902" lon="10.47277524823092"><ele>183.0</ele><time>2026-03-29T09:43:17Z</time></trkpt><trkpt lat="45.486213004362234" lon="10.472893996467045"><ele>183.0</ele><time>2026-03-29T09:43:35Z</time></trkpt><trkpt lat="45.48624318762593" lon="10.472988168143479"><ele>182.25</ele><time>2026-03-29T09:43:37Z</time></trkpt><trkpt lat="45.48640972232277" lon="10.472924301500194"><ele>181.5</ele><time>2026-03-29T09:43:39Z</time></trkpt><trkpt lat="45.48647534478485" lon="10.47283314775535"><ele>180.75</ele><time>2026-03-29T09:43:40Z</time></trkpt><trkpt lat="45.486546901082264" lon="10.472742239027069"><ele>180.0</ele><time>2026-03-29T09:43:41Z</time></trkpt><trkpt lat="45.48663104358478" lon="10.472626000619583"><ele>180.0</ele><time>2026-03-29T09:43:42Z</time></trkpt><trkpt lat="45.486723588115" lon="10.472500207504934"><ele>180.0</ele><time>2026-03-29T09:43:43Z</time></trkpt><trkpt lat="45.48682862317579" lon="10.472352788126969"><ele>180.0</ele><time>2026-03-29T09:43:44Z</time></trkpt><trkpt lat="45.48694504887563" lon="10.472194986106263"><ele>180.0</ele><time>2026-03-29T09:43:45Z</time></trkpt><trkpt lat="45.48705305960971" lon="10.47205455852705"><ele>179.0</ele><time>2026-03-29T09:43:46Z</time></trkpt><trkpt lat="45.48716399808097" lon="10.471900954457539"><ele>178.0</ele><time>2026-03-29T09:43:47Z</time></trkpt><trkpt lat="45.487275795335435" lon="10.471731594714205"><ele>177.0</ele><time>2026-03-29T09:43:48Z</time></trkpt><trkpt lat="45.48737507034221" lon="10.47155287613333"><ele>177.0</ele><time>2026-03-29T09:43:49Z</time></trkpt><trkpt lat="45.48745982705287" lon="10.471365572721522"><ele>177.0</ele><time>2026-03-29T09:43:50Z</time></trkpt><trkpt lat="45.487542715069715" lon="10.471189592883658"><ele>177.0</ele><time>2026-03-29T09:43:51Z</time></trkpt><trkpt lat="45.487638201508496" lon="10.471039836202813"><ele>177.0</ele><time>2026-03-29T09:43:52Z</time></trkpt><trkpt lat="45.487709643166546" lon="10.470864712481896"><ele>176.8</ele><time>2026-03-29T09:43:53Z</time></trkpt><trkpt lat="45.487786381397406" lon="10.47072360866357"><ele>176.6</ele><time>2026-03-29T09:43:54Z</time></trkpt><trkpt lat="45.487856301425694" lon="10.47059075665006"><ele>176.4</ele><time>2026-03-29T09:43:55Z</time></trkpt><trkpt lat="45.487911535182285" lon="10.47047957093797"><ele>176.20000000000002</ele><time>2026-03-29T09:43:56Z</time></trkpt><trkpt lat="45.487963609595106" lon="10.470378919645315"><ele>176.0</ele><time>2026-03-29T09:43:57Z</time></trkpt><trkpt lat="45.48801160114168" lon="10.47028629749008"><ele>176.0</ele><time>2026-03-29T09:43:58Z</time></trkpt><trkpt lat="45.48806774536857" lon="10.470223045152776"><ele>176.0</ele><time>2026-03-29T09:43:59Z</time></trkpt><trkpt lat="45.488132307608915" lon="10.470121379851184"><ele>176.0</ele><time>2026-03-29T09:44:01Z</time></trkpt><trkpt lat="45.48803172919907" lon="10.469938751088367"><ele>176.0</ele><time>2026-03-29T09:44:02Z</time></trkpt><trkpt lat="45.48802978993325" lon="10.469798556198661"><ele>176.0</ele><time>2026-03-29T09:44:03Z</time></trkpt><trkpt lat="45.488024022374674" lon="10.46963268346072"><ele>175.33333333333331</ele><time>2026-03-29T09:44:04Z</time></trkpt><trkpt lat="45.48801746069022" lon="10.469443248917086"><ele>174.66666666666666</ele><time>2026-03-29T09:44:05Z</time></trkpt><trkpt lat="45.48800972812902" lon="10.46921847903511"><ele>174.0</ele><time>2026-03-29T09:44:06Z</time></trkpt><trkpt lat="45.48800402792377" lon="10.468989136623126"><ele>173.33333333333334</ele><time>2026-03-29T09:44:07Z</time></trkpt><trkpt lat="45.487996763036236" lon="10.468755025931575"><ele>172.66666666666669</ele><time>2026-03-29T09:44:08Z</time></trkpt><trkpt lat="45.48798643398004" lon="10.46850343582189"><ele>172.0</ele><time>2026-03-29T09:44:09Z</time></trkpt><trkpt lat="45.48797651346836" lon="10.468261796811014"><ele>172.0</ele><time>2026-03-29T09:44:10Z</time></trkpt><trkpt lat="45.48796631680045" lon="10.46801343134872"><ele>172.0</ele><time>2026-03-29T09:44:11Z</time></trkpt><trkpt lat="45.487955051592635" lon="10.467771480196989"><ele>172.0</ele><time>2026-03-29T09:44:12Z</time></trkpt><trkpt lat="45.48793969804841" lon="10.46750925007777"><ele>172.0</ele><time>2026-03-29T09:44:13Z</time></trkpt><trkpt lat="45.48792330393266" lon="10.467257992423997"><ele>172.0</ele><time>2026-03-29T09:44:14Z</time></trkpt><trkpt lat="45.48788417022799" lon="10.467005112945005"><ele>172.0</ele><time>2026-03-29T09:44:15Z</time></trkpt><trkpt lat="45.48786724817523" lon="10.466728718628785"><ele>172.0</ele><time>2026-03-29T09:44:16Z</time></trkpt><trkpt lat="45.487861208328496" lon="10.466483476852366"><ele>172.0</ele><time>2026-03-29T09:44:17Z</time></trkpt><trkpt lat="45.48786201963043" lon="10.466236639630212"><ele>172.0</ele><time>2026-03-29T09:44:18Z</time></trkpt><trkpt lat="45.48789213826634" lon="10.46598836497048"><ele>171.33333333333334</ele><time>2026-03-29T09:44:19Z</time></trkpt><trkpt lat="45.48789327000392" lon="10.465747214560347"><ele>170.66666666666666</ele><time>2026-03-29T09:44:20Z</time></trkpt><trkpt lat="45.487895853169206" lon="10.465520681210151"><ele>170.0</ele><time>2026-03-29T09:44:21Z</time></trkpt><trkpt lat="45.48790097812285" lon="10.465316298088487"><ele>169.75</ele><time>2026-03-29T09:44:22Z</time></trkpt><trkpt lat="45.487907276697115" lon="10.465111597668383"><ele>169.5</ele><time>2026-03-29T09:44:23Z</time></trkpt><trkpt lat="45.48791440096044" lon="10.464898769367535"><ele>169.25</ele><time>2026-03-29T09:44:24Z</time></trkpt><trkpt lat="45.487921576986906" lon="10.46468439465106"><ele>169.0</ele><time>2026-03-29T09:44:25Z</time></trkpt><trkpt lat="45.487923345038745" lon="10.464449134484322"><ele>168.33333333333334</ele><time>2026-03-29T09:44:26Z</time></trkpt><trkpt lat="45.487908543871626" lon="10.464213318147912"><ele>167.66666666666666</ele><time>2026-03-29T09:44:27Z</time></trkpt><trkpt lat="45.487886200042105" lon="10.463965938097179"><ele>167.0</ele><time>2026-03-29T09:44:28Z</time></trkpt><trkpt lat="45.487863597985346" lon="10.463717064744397"><ele>166.66666666666666</ele><time>2026-03-29T09:44:29Z</time></trkpt><trkpt lat="45.48784189845715" lon="10.463478129276151"><ele>166.33333333333334</ele><time>2026-03-29T09:44:30Z</time></trkpt><trkpt lat="45.48782185169155" lon="10.463260672615206"><ele>166.0</ele><time>2026-03-29T09:44:31Z</time></trkpt><trkpt lat="45.4878009799752" lon="10.463033796299436"><ele>165.66666666666669</ele><time>2026-03-29T09:44:32Z</time></trkpt><trkpt lat="45.4877800128188" lon="10.462805882645597"><ele>165.33333333333334</ele><time>2026-03-29T09:44:33Z</time></trkpt><trkpt lat="45.487757270724856" lon="10.462564312843362"><ele>165.0</ele><time>2026-03-29T09:44:34Z</time></trkpt><trkpt lat="45.48773402756436" lon="10.462331037924747"><ele>164.33333333333334</ele><time>2026-03-29T09:44:35Z</time></trkpt><trkpt lat="45.48770672552171" lon="10.462082942122018"><ele>163.66666666666669</ele><time>2026-03-29T09:44:36Z</time></trkpt><trkpt lat="45.4876758058495" lon="10.461836342889384"><ele>163.0</ele><time>2026-03-29T09:44:37Z</time></trkpt><trkpt lat="45.487649763534925" lon="10.461587980601008"><ele>163.0</ele><time>2026-03-29T09:44:38Z</time></trkpt><trkpt lat="45.487640389172064" lon="10.46133889620573"><ele>163.0</ele><time>2026-03-29T09:44:39Z</time></trkpt><trkpt lat="45.48766182447969" lon="10.461087321896892"><ele>163.0</ele><time>2026-03-29T09:44:40Z</time></trkpt><trkpt lat="45.48769389105813" lon="10.460831053274527"><ele>162.66666666666669</ele><time>2026-03-29T09:44:41Z</time></trkpt><trkpt lat="45.48772265510055" lon="10.46056762355504"><ele>162.33333333333334</ele><time>2026-03-29T09:44:42Z</time></trkpt><trkpt lat="45.487748853784254" lon="10.460286635905218"><ele>162.0</ele><time>2026-03-29T09:44:43Z</time></trkpt><trkpt lat="45.487766360133556" lon="10.460005927671975"><ele>161.66666666666666</ele><time>2026-03-29T09:44:44Z</time></trkpt><trkpt lat="45.48776548061154" lon="10.459719091776039"><ele>161.33333333333331</ele><time>2026-03-29T09:44:45Z</time></trkpt><trkpt lat="45.48775728329801" lon="10.45942414823822"><ele>161.0</ele><time>2026-03-29T09:44:46Z</time></trkpt><trkpt lat="45.48774197126217" lon="10.45912214595846"><ele>161.0</ele><time>2026-03-29T09:44:47Z</time></trkpt><trkpt lat="45.487733213315266" lon="10.458833016827134"><ele>161.0</ele><time>2026-03-29T09:44:48Z</time></trkpt><trkpt lat="45.48773866064435" lon="10.458561743582148"><ele>161.0</ele><time>2026-03-29T09:44:49Z</time></trkpt><trkpt lat="45.48776162526626" lon="10.458287754385925"><ele>160.33333333333331</ele><time>2026-03-29T09:44:50Z</time></trkpt><trkpt lat="45.4877907326924" lon="10.458009008820392"><ele>159.66666666666666</ele><time>2026-03-29T09:44:51Z</time></trkpt><trkpt lat="45.48781649399102" lon="10.457765153912955"><ele>159.0</ele><time>2026-03-29T09:44:52Z</time></trkpt><trkpt lat="45.48784457369862" lon="10.457515462881307"><ele>159.0</ele><time>2026-03-29T09:44:53Z</time></trkpt><trkpt lat="45.48786557982011" lon="10.457258917270424"><ele>159.0</ele><time>2026-03-29T09:44:54Z</time></trkpt><trkpt lat="45.48788001080911" lon="10.456971061423674"><ele>159.0</ele><time>2026-03-29T09:44:55Z</time></trkpt><trkpt lat="45.48788893881226" lon="10.456695759953693"><ele>159.0</ele><time>2026-03-29T09:44:56Z</time></trkpt><trkpt lat="45.48788591715579" lon="10.45640692105386"><ele>159.0</ele><time>2026-03-29T09:44:57Z</time></trkpt><trkpt lat="45.48786339345623" lon="10.456107318357242"><ele>159.0</ele><time>2026-03-29T09:44:58Z</time></trkpt><trkpt lat="45.487886413258416" lon="10.45581361193672"><ele>159.0</ele><time>2026-03-29T09:44:59Z</time></trkpt><trkpt lat="45.487910023925295" lon="10.455507361683328"><ele>159.0</ele><time>2026-03-29T09:45:00Z</time></trkpt><trkpt lat="45.48792850619319" lon="10.455209155403471"><ele>159.0</ele><time>2026-03-29T09:45:01Z</time></trkpt><trkpt lat="45.487946449439406" lon="10.454919646023841"><ele>159.33333333333334</ele><time>2026-03-29T09:45:02Z</time></trkpt><trkpt lat="45.48796521440934" lon="10.454628020804817"><ele>159.66666666666669</ele><time>2026-03-29T09:45:03Z</time></trkpt><trkpt lat="45.48798535642414" lon="10.45433446590501"><ele>160.0</ele><time>2026-03-29T09:45:04Z</time></trkpt><trkpt lat="45.48800637909332" lon="10.45404277449482"><ele>159.66666666666669</ele><time>2026-03-29T09:45:05Z</time></trkpt><trkpt lat="45.48802973108735" lon="10.45374575240006"><ele>159.33333333333334</ele><time>2026-03-29T09:45:06Z</time></trkpt><trkpt lat="45.4880515482347" lon="10.453449462352205"><ele>159.0</ele><time>2026-03-29T09:45:07Z</time></trkpt><trkpt lat="45.488072386453766" lon="10.453160535279798"><ele>158.66666666666666</ele><time>2026-03-29T09:45:08Z</time></trkpt><trkpt lat="45.48809155691311" lon="10.452894732111632"><ele>158.33333333333331</ele><time>2026-03-29T09:45:09Z</time></trkpt><trkpt lat="45.48811714658235" lon="10.452644089885878"><ele>158.0</ele><time>2026-03-29T09:45:10Z</time></trkpt><trkpt lat="45.48814624817472" lon="10.452428508735588"><ele>158.0</ele><time>2026-03-29T09:45:11Z</time></trkpt><trkpt lat="45.48818144359382" lon="10.452222322251226"><ele>158.0</ele><time>2026-03-29T09:45:12Z</time></trkpt><trkpt lat="45.48822029409787" lon="10.452036377207648"><ele>158.0</ele><time>2026-03-29T09:45:13Z</time></trkpt><trkpt lat="45.48825510491492" lon="10.45184325035784"><ele>158.0</ele><time>2026-03-29T09:45:14Z</time></trkpt><trkpt lat="45.488282944206055" lon="10.451640114920101"><ele>157.66666666666666</ele><time>2026-03-29T09:45:15Z</time></trkpt><trkpt lat="45.48827522963567" lon="10.45141152061502"><ele>157.33333333333334</ele><time>2026-03-29T09:45:16Z</time></trkpt><trkpt lat="45.488296519437284" lon="10.451153707270777"><ele>157.0</ele><time>2026-03-29T09:45:17Z</time></trkpt><trkpt lat="45.48830408756132" lon="10.450866922636934"><ele>156.66666666666669</ele><time>2026-03-29T09:45:18Z</time></trkpt><trkpt lat="45.48830896263592" lon="10.450598323845243"><ele>156.33333333333334</ele><time>2026-03-29T09:45:19Z</time></trkpt><trkpt lat="45.48831532476094" lon="10.450317880017122"><ele>156.0</ele><time>2026-03-29T09:45:20Z</time></trkpt><trkpt lat="45.4883243962261" lon="10.450053441828635"><ele>156.0</ele><time>2026-03-29T09:45:21Z</time></trkpt><trkpt lat="45.48833585083053" lon="10.449782280892638"><ele>156.0</ele><time>2026-03-29T09:45:22Z</time></trkpt><trkpt lat="45.488346777335565" lon="10.449529551667649"><ele>156.0</ele><time>2026-03-29T09:45:23Z</time></trkpt><trkpt lat="45.48835429982779" lon="10.449300249715304"><ele>155.66666666666666</ele><time>2026-03-29T09:45:24Z</time></trkpt><trkpt lat="45.48834949709981" lon="10.449075127461457"><ele>155.33333333333331</ele><time>2026-03-29T09:45:25Z</time></trkpt><trkpt lat="45.4883304255484" lon="10.44886223448383"><ele>155.0</ele><time>2026-03-29T09:45:26Z</time></trkpt><trkpt lat="45.48828192126977" lon="10.448670232329663"><ele>154.66666666666666</ele><time>2026-03-29T09:45:27Z</time></trkpt><trkpt lat="45.488251659348386" lon="10.44844917876734"><ele>154.33333333333334</ele><time>2026-03-29T09:45:28Z</time></trkpt><trkpt lat="45.488264365369574" lon="10.448217474389192"><ele>154.0</ele><time>2026-03-29T09:45:29Z</time></trkpt><trkpt lat="45.48828379199697" lon="10.447981601139391"><ele>154.33333333333334</ele><time>2026-03-29T09:45:30Z</time></trkpt><trkpt lat="45.48829338226818" lon="10.447714073751982"><ele>154.66666666666666</ele><time>2026-03-29T09:45:31Z</time></trkpt><trkpt lat="45.488300309326696" lon="10.447455075292819"><ele>155.0</ele><time>2026-03-29T09:45:32Z</time></trkpt><trkpt lat="45.4883100111093" lon="10.447191103418751"><ele>154.66666666666666</ele><time>2026-03-29T09:45:33Z</time></trkpt><trkpt lat="45.488328306323325" lon="10.446914249136086"><ele>154.33333333333334</ele><time>2026-03-29T09:45:34Z</time></trkpt><trkpt lat="45.4883510318341" lon="10.446664761853242"><ele>154.0</ele><time>2026-03-29T09:45:35Z</time></trkpt><trkpt lat="45.48837776006638" lon="10.446418067745554"><ele>154.25</ele><time>2026-03-29T09:45:36Z</time></trkpt><trkpt lat="45.4884007268269" lon="10.446214473152876"><ele>154.5</ele><time>2026-03-29T09:45:37Z</time></trkpt><trkpt lat="45.488424907455794" lon="10.44601999571589"><ele>154.75</ele><time>2026-03-29T09:45:38Z</time></trkpt><trkpt lat="45.488445563329186" lon="10.445862459311726"><ele>155.0</ele><time>2026-03-29T09:45:39Z</time></trkpt><trkpt lat="45.488464592913814" lon="10.445740155345238"><ele>155.0</ele><time>2026-03-29T09:45:40Z</time></trkpt><trkpt lat="45.488488829767" lon="10.445616990412002"><ele>155.0</ele><time>2026-03-29T09:45:42Z</time></trkpt><trkpt lat="45.488508406304256" lon="10.445506832559483"><ele>155.0</ele><time>2026-03-29T09:45:45Z</time></trkpt><trkpt lat="45.488613687846254" lon="10.445566782246667"><ele>155.0</ele><time>2026-03-29T09:45:47Z</time></trkpt><trkpt lat="45.488713821257655" lon="10.44559857484537"><ele>155.0</ele><time>2026-03-29T09:45:48Z</time></trkpt><trkpt lat="45.488819393946166" lon="10.445655629439143"><ele>155.5</ele><time>2026-03-29T09:45:49Z</time></trkpt><trkpt lat="45.488946390283026" lon="10.445718096764475"><ele>156.0</ele><time>2026-03-29T09:45:50Z</time></trkpt><trkpt lat="45.48908456628817" lon="10.44578273603305"><ele>156.5</ele><time>2026-03-29T09:45:51Z</time></trkpt><trkpt lat="45.489239472058124" lon="10.445856232853986"><ele>157.0</ele><time>2026-03-29T09:45:52Z</time></trkpt><trkpt lat="45.48940236788265" lon="10.445936514833324"><ele>157.0</ele><time>2026-03-29T09:45:53Z</time></trkpt><trkpt lat="45.48958459934742" lon="10.446023590410038"><ele>157.0</ele><time>2026-03-29T09:45:54Z</time></trkpt><trkpt lat="45.48976092955096" lon="10.446103854765944"><ele>157.0</ele><time>2026-03-29T09:45:55Z</time></trkpt><trkpt lat="45.489961958861386" lon="10.446189906456432"><ele>157.0</ele><time>2026-03-29T09:45:56Z</time></trkpt><trkpt lat="45.490152234104436" lon="10.446262368085387"><ele>157.0</ele><time>2026-03-29T09:45:57Z</time></trkpt><trkpt lat="45.490352792620754" lon="10.446333717157763"><ele>157.0</ele><time>2026-03-29T09:45:58Z</time></trkpt><trkpt lat="45.490560995894796" lon="10.446388324983717"><ele>157.33333333333334</ele><time>2026-03-29T09:45:59Z</time></trkpt><trkpt lat="45.49078461497495" lon="10.446429550297845"><ele>157.66666666666666</ele><time>2026-03-29T09:46:00Z</time></trkpt><trkpt lat="45.49100440503502" lon="10.446465830022536"><ele>158.0</ele><time>2026-03-29T09:46:01Z</time></trkpt><trkpt lat="45.491218512970136" lon="10.4465046187123"><ele>158.0</ele><time>2026-03-29T09:46:02Z</time></trkpt><trkpt lat="45.49141807277405" lon="10.446546400356794"><ele>158.0</ele><time>2026-03-29T09:46:03Z</time></trkpt><trkpt lat="45.49161064279648" lon="10.446599521809528"><ele>158.0</ele><time>2026-03-29T09:46:04Z</time></trkpt><trkpt lat="45.49179598724986" lon="10.446661078703388"><ele>158.0</ele><time>2026-03-29T09:46:05Z</time></trkpt><trkpt lat="45.491977005173034" lon="10.446729181687235"><ele>158.0</ele><time>2026-03-29T09:46:06Z</time></trkpt><trkpt lat="45.492168770227124" lon="10.446804267667638"><ele>158.0</ele><time>2026-03-29T09:46:07Z</time></trkpt><trkpt lat="45.492364361562956" lon="10.446887497859677"><ele>158.66666666666666</ele><time>2026-03-29T09:46:08Z</time></trkpt><trkpt lat="45.492563126130015" lon="10.446967145343185"><ele>159.33333333333334</ele><time>2026-03-29T09:46:09Z</time></trkpt><trkpt lat="45.49276837307382" lon="10.447051120581692"><ele>160.0</ele><time>2026-03-29T09:46:10Z</time></trkpt><trkpt lat="45.49297157254824" lon="10.44713761397605"><ele>160.33333333333334</ele><time>2026-03-29T09:46:11Z</time></trkpt><trkpt lat="45.49316622299554" lon="10.447216301211574"><ele>160.66666666666666</ele><time>2026-03-29T09:46:12Z</time></trkpt><trkpt lat="45.493354285005964" lon="10.447298645144471"><ele>161.0</ele><time>2026-03-29T09:46:13Z</time></trkpt><trkpt lat="45.49351918027247" lon="10.447374113471044"><ele>161.0</ele><time>2026-03-29T09:46:14Z</time></trkpt><trkpt lat="45.493680117935945" lon="10.44744524888288"><ele>161.0</ele><time>2026-03-29T09:46:15Z</time></trkpt><trkpt lat="45.49382542045322" lon="10.447505503002594"><ele>161.0</ele><time>2026-03-29T09:46:16Z</time></trkpt><trkpt lat="45.49396855231629" lon="10.447563275380828"><ele>161.0</ele><time>2026-03-29T09:46:17Z</time></trkpt><trkpt lat="45.49411159878762" lon="10.447622930466189"><ele>161.0</ele><time>2026-03-29T09:46:18Z</time></trkpt><trkpt lat="45.49425611648336" lon="10.447686040563527"><ele>161.0</ele><time>2026-03-29T09:46:19Z</time></trkpt><trkpt lat="45.49440512301127" lon="10.447743312627207"><ele>161.0</ele><time>2026-03-29T09:46:20Z</time></trkpt><trkpt lat="45.49454615029164" lon="10.447803677394912"><ele>161.0</ele><time>2026-03-29T09:46:21Z</time></trkpt><trkpt lat="45.49468124965684" lon="10.447855532485626"><ele>161.0</ele><time>2026-03-29T09:46:22Z</time></trkpt><trkpt lat="45.49480648822362" lon="10.447910118081843"><ele>161.0</ele><time>2026-03-29T09:46:23Z</time></trkpt><trkpt lat="45.494931564713404" lon="10.447965226393151"><ele>161.4</ele><time>2026-03-29T09:46:24Z</time></trkpt><trkpt lat="45.49505197814701" lon="10.44801761498578"><ele>161.8</ele><time>2026-03-29T09:46:25Z</time></trkpt><trkpt lat="45.4951519229" lon="10.448055548472892"><ele>162.20000000000002</ele><time>2026-03-29T09:46:26Z</time></trkpt><trkpt lat="45.495230379218114" lon="10.448087893455039"><ele>162.60000000000002</ele><time>2026-03-29T09:46:27Z</time></trkpt><trkpt lat="45.49531778672302" lon="10.448138450043976"><ele>163.0</ele><time>2026-03-29T09:46:29Z</time></trkpt><trkpt lat="45.49538330378801" lon="10.447893981631191"><ele>163.0</ele><time>2026-03-29T09:46:31Z</time></trkpt><trkpt lat="45.49540411780648" lon="10.447743248495424"><ele>163.0</ele><time>2026-03-29T09:46:32Z</time></trkpt><trkpt lat="45.49544881071793" lon="10.447563145348948"><ele>163.0</ele><time>2026-03-29T09:46:33Z</time></trkpt><trkpt lat="45.49548514045335" lon="10.44737578013691"><ele>163.0</ele><time>2026-03-29T09:46:34Z</time></trkpt><trkpt lat="45.49552805053636" lon="10.447188637945052"><ele>163.33333333333334</ele><time>2026-03-29T09:46:35Z</time></trkpt><trkpt lat="45.49557221429786" lon="10.447040019906265"><ele>163.66666666666669</ele><time>2026-03-29T09:46:36Z</time></trkpt><trkpt lat="45.49561659445333" lon="10.446923031440264"><ele>164.0</ele><time>2026-03-29T09:46:37Z</time></trkpt><trkpt lat="45.495657471292596" lon="10.4468409440976"><ele>164.33333333333334</ele><time>2026-03-29T09:46:38Z</time></trkpt><trkpt lat="45.49573017414126" lon="10.446830534200986"><ele>164.66666666666666</ele><time>2026-03-29T09:46:41Z</time></trkpt><trkpt lat="45.49582112973298" lon="10.446795866452353"><ele>165.0</ele><time>2026-03-29T09:46:44Z</time></trkpt><trkpt lat="45.49594986294884" lon="10.44682266711604"><ele>165.0</ele><time>2026-03-29T09:46:46Z</time></trkpt><trkpt lat="45.496012415802944" lon="10.44673314662888"><ele>165.0</ele><time>2026-03-29T09:46:47Z</time></trkpt><trkpt lat="45.49606387354913" lon="10.446626164245815"><ele>165.0</ele><time>2026-03-29T09:46:48Z</time></trkpt><trkpt lat="45.496155764233265" lon="10.44651028426525"><ele>165.0</ele><time>2026-03-29T09:46:49Z</time></trkpt><trkpt lat="45.496243144152494" lon="10.446376407127357"><ele>165.0</ele><time>2026-03-29T09:46:50Z</time></trkpt><trkpt lat="45.49633952826759" lon="10.446259571018786"><ele>164.5</ele><time>2026-03-29T09:46:51Z</time></trkpt><trkpt lat="45.49644020855554" lon="10.446143792504868"><ele>164.0</ele><time>2026-03-29T09:46:52Z</time></trkpt><trkpt lat="45.496522041459016" lon="10.446047736972021"><ele>163.5</ele><time>2026-03-29T09:46:53Z</time></trkpt><trkpt lat="45.4966196981489" lon="10.445924373508165"><ele>163.0</ele><time>2026-03-29T09:46:54Z</time></trkpt><trkpt lat="45.496703725479264" lon="10.445778402014458"><ele>163.0</ele><time>2026-03-29T09:46:55Z</time></trkpt><trkpt lat="45.49676940380639" lon="10.445634803259612"><ele>163.0</ele><time>2026-03-29T09:46:56Z</time></trkpt><trkpt lat="45.49684642404336" lon="10.445503490767052"><ele>163.0</ele><time>2026-03-29T09:46:57Z</time></trkpt><trkpt lat="45.496945434730456" lon="10.445345259296596"><ele>163.0</ele><time>2026-03-29T09:46:58Z</time></trkpt><trkpt lat="45.497044333173015" lon="10.445197158256992"><ele>162.5</ele><time>2026-03-29T09:46:59Z</time></trkpt><trkpt lat="45.49711199799351" lon="10.445051022697799"><ele>162.0</ele><time>2026-03-29T09:47:00Z</time></trkpt><trkpt lat="45.497209172552026" lon="10.444930376320906"><ele>161.5</ele><time>2026-03-29T09:47:01Z</time></trkpt><trkpt lat="45.49730115173817" lon="10.444801366124183"><ele>161.0</ele><time>2026-03-29T09:47:02Z</time></trkpt><trkpt lat="45.49739647831952" lon="10.444676349596937"><ele>161.0</ele><time>2026-03-29T09:47:03Z</time></trkpt><trkpt lat="45.497502839201914" lon="10.444542680961149"><ele>161.0</ele><time>2026-03-29T09:47:04Z</time></trkpt><trkpt lat="45.49761180753403" lon="10.444432886889807"><ele>161.0</ele><time>2026-03-29T09:47:05Z</time></trkpt><trkpt lat="45.497713838657184" lon="10.444347903603354"><ele>161.0</ele><time>2026-03-29T09:47:06Z</time></trkpt><trkpt lat="45.4978078534602" lon="10.444270505513233"><ele>161.0</ele><time>2026-03-29T09:47:07Z</time></trkpt><trkpt lat="45.49789731881378" lon="10.444196852805579"><ele>161.0</ele><time>2026-03-29T09:47:08Z</time></trkpt><trkpt lat="45.497990524275075" lon="10.444120121044627"><ele>161.0</ele><time>2026-03-29T09:47:09Z</time></trkpt><trkpt lat="45.49808026645044" lon="10.444018940758074"><ele>161.0</ele><time>2026-03-29T09:47:10Z</time></trkpt><trkpt lat="45.49818379261488" lon="10.443945927186261"><ele>161.0</ele><time>2026-03-29T09:47:11Z</time></trkpt><trkpt lat="45.498284690497705" lon="10.443880589438221"><ele>162.0</ele><time>2026-03-29T09:47:12Z</time></trkpt><trkpt lat="45.49837842828522" lon="10.443779204843151"><ele>163.0</ele><time>2026-03-29T09:47:13Z</time></trkpt><trkpt lat="45.498502086868186" lon="10.44368160765807"><ele>164.0</ele><time>2026-03-29T09:47:14Z</time></trkpt><trkpt lat="45.49860644068306" lon="10.443554892997192"><ele>165.0</ele><time>2026-03-29T09:47:15Z</time></trkpt><trkpt lat="45.49870300362751" lon="10.443413893337548"><ele>165.25</ele><time>2026-03-29T09:47:16Z</time></trkpt><trkpt lat="45.49880057171658" lon="10.44326992941155"><ele>165.5</ele><time>2026-03-29T09:47:17Z</time></trkpt><trkpt lat="45.498903089396656" lon="10.443121097446046"><ele>165.75</ele><time>2026-03-29T09:47:18Z</time></trkpt><trkpt lat="45.498997392436" lon="10.442984191266193"><ele>166.0</ele><time>2026-03-29T09:47:19Z</time></trkpt><trkpt lat="45.49908623286227" lon="10.442830530393232"><ele>166.25</ele><time>2026-03-29T09:47:20Z</time></trkpt><trkpt lat="45.499184897191085" lon="10.44268485293225"><ele>166.5</ele><time>2026-03-29T09:47:21Z</time></trkpt><trkpt lat="45.49927860287498" lon="10.442579326971627"><ele>166.75</ele><time>2026-03-29T09:47:22Z</time></trkpt><trkpt lat="45.49937750567523" lon="10.44243821047403"><ele>167.0</ele><time>2026-03-29T09:47:23Z</time></trkpt><trkpt lat="45.49946238094103" lon="10.442317682111861"><ele>167.0</ele><time>2026-03-29T09:47:24Z</time></trkpt><trkpt lat="45.49954925828839" lon="10.442198271122189"><ele>167.0</ele><time>2026-03-29T09:47:25Z</time></trkpt><trkpt lat="45.499618349548626" lon="10.442086910986966"><ele>167.0</ele><time>2026-03-29T09:47:26Z</time></trkpt><trkpt lat="45.499666553084445" lon="10.441958452654058"><ele>167.0</ele><time>2026-03-29T09:47:27Z</time></trkpt><trkpt lat="45.499716092992436" lon="10.441899725713"><ele>167.0</ele><time>2026-03-29T09:47:28Z</time></trkpt><trkpt lat="45.49974644782977" lon="10.441817969776526"><ele>166.75</ele><time>2026-03-29T09:47:29Z</time></trkpt><trkpt lat="45.499858379211524" lon="10.441831094232038"><ele>166.5</ele><time>2026-03-29T09:47:30Z</time></trkpt><trkpt lat="45.499962978732775" lon="10.441757936625075"><ele>166.25</ele><time>2026-03-29T09:47:31Z</time></trkpt><trkpt lat="45.50007350723098" lon="10.441624101005717"><ele>166.0</ele><time>2026-03-29T09:47:32Z</time></trkpt><trkpt lat="45.500166024325836" lon="10.441478346604068"><ele>166.0</ele><time>2026-03-29T09:47:33Z</time></trkpt><trkpt lat="45.500220102867786" lon="10.441325666869755"><ele>166.0</ele><time>2026-03-29T09:47:34Z</time></trkpt><trkpt lat="45.500265697593825" lon="10.441182436092944"><ele>166.0</ele><time>2026-03-29T09:47:35Z</time></trkpt><trkpt lat="45.50031122902194" lon="10.44106613384233"><ele>166.0</ele><time>2026-03-29T09:47:36Z</time></trkpt><trkpt lat="45.50035219007232" lon="10.440984157789003"><ele>166.0</ele><time>2026-03-29T09:47:37Z</time></trkpt><trkpt lat="45.50041643825808" lon="10.440942514070928"><ele>165.66666666666669</ele><time>2026-03-29T09:47:38Z</time></trkpt><trkpt lat="45.50057680546525" lon="10.441042575817844"><ele>165.33333333333334</ele><time>2026-03-29T09:47:40Z</time></trkpt><trkpt lat="45.5006987236687" lon="10.441091937820026"><ele>165.0</ele><time>2026-03-29T09:47:41Z</time></trkpt><trkpt lat="45.500854661295016" lon="10.441091564044864"><ele>165.0</ele><time>2026-03-29T09:47:42Z</time></trkpt><trkpt lat="45.50102489492439" lon="10.441086287177404"><ele>165.0</ele><time>2026-03-29T09:47:43Z</time></trkpt><trkpt lat="45.50119512375062" lon="10.441077124266329"><ele>165.0</ele><time>2026-03-29T09:47:44Z</time></trkpt><trkpt lat="45.50137439497194" lon="10.441063103256775"><ele>164.75</ele><time>2026-03-29T09:47:45Z</time></trkpt><trkpt lat="45.50152681235845" lon="10.441071476456"><ele>164.5</ele><time>2026-03-29T09:47:46Z</time></trkpt><trkpt lat="45.50165777725537" lon="10.441062574272802"><ele>164.25</ele><time>2026-03-29T09:47:47Z</time></trkpt><trkpt lat="45.50175050643633" lon="10.441057869104215"><ele>164.0</ele><time>2026-03-29T09:47:48Z</time></trkpt><trkpt lat="45.50182511407861" lon="10.441046095292219"><ele>164.0</ele><time>2026-03-29T09:47:49Z</time></trkpt><trkpt lat="45.50188075602386" lon="10.441102406533389"><ele>164.0</ele><time>2026-03-29T09:47:50Z</time></trkpt><trkpt lat="45.50190846226987" lon="10.441202910038745"><ele>164.0</ele><time>2026-03-29T09:47:51Z</time></trkpt><trkpt lat="45.50191899304464" lon="10.441335374178037"><ele>164.0</ele><time>2026-03-29T09:47:52Z</time></trkpt><trkpt lat="45.50191097331682" lon="10.441510946113924"><ele>164.0</ele><time>2026-03-29T09:47:53Z</time></trkpt><trkpt lat="45.501905227271685" lon="10.441724462358561"><ele>164.25</ele><time>2026-03-29T09:47:54Z</time></trkpt><trkpt lat="45.501910036773864" lon="10.441950490795708"><ele>164.5</ele><time>2026-03-29T09:47:55Z</time></trkpt><trkpt lat="45.501913910852" lon="10.442159175826065"><ele>164.75</ele><time>2026-03-29T09:47:56Z</time></trkpt><trkpt lat="45.5019186667991" lon="10.442343992117385"><ele>165.0</ele><time>2026-03-29T09:47:57Z</time></trkpt><trkpt lat="45.501925575449846" lon="10.442477539966246"><ele>165.2</ele><time>2026-03-29T09:47:58Z</time></trkpt><trkpt lat="45.50196745133173" lon="10.44257708424122"><ele>165.4</ele><time>2026-03-29T09:48:00Z</time></trkpt><trkpt lat="45.502038478758635" lon="10.442607666047891"><ele>165.60000000000002</ele><time>2026-03-29T09:48:01Z</time></trkpt><trkpt lat="45.502134648872094" lon="10.442585933813747"><ele>165.8</ele><time>2026-03-29T09:48:02Z</time></trkpt><trkpt lat="45.50223981283624" lon="10.442567438691063"><ele>166.0</ele><time>2026-03-29T09:48:03Z</time></trkpt><trkpt lat="45.5023770088716" lon="10.442550349082945"><ele>166.20000000000002</ele><time>2026-03-29T09:48:04Z</time></trkpt><trkpt lat="45.502516035313135" lon="10.442540263258755"><ele>166.4</ele><time>2026-03-29T09:48:05Z</time></trkpt><trkpt lat="45.50262501125884" lon="10.442542382266108"><ele>166.6</ele><time>2026-03-29T09:48:06Z</time></trkpt><trkpt lat="45.502709335276904" lon="10.442549521627402"><ele>166.8</ele><time>2026-03-29T09:48:07Z</time></trkpt><trkpt lat="45.502785693856644" lon="10.442556158180205"><ele>167.0</ele><time>2026-03-29T09:48:09Z</time></trkpt><trkpt lat="45.5027356879712" lon="10.442892216886845"><ele>167.0</ele><time>2026-03-29T09:48:14Z</time></trkpt><trkpt lat="45.50268567496502" lon="10.443059694038299"><ele>167.0</ele><time>2026-03-29T09:48:15Z</time></trkpt><trkpt lat="45.502631344113695" lon="10.443244386534229"><ele>167.0</ele><time>2026-03-29T09:48:16Z</time></trkpt><trkpt lat="45.50257952234135" lon="10.443413485927433"><ele>167.0</ele><time>2026-03-29T09:48:17Z</time></trkpt><trkpt lat="45.502519025344284" lon="10.44362844353254"><ele>166.66666666666666</ele><time>2026-03-29T09:48:18Z</time></trkpt><trkpt lat="45.50245543450178" lon="10.443820264373326"><ele>166.33333333333334</ele><time>2026-03-29T09:48:19Z</time></trkpt><trkpt lat="45.5023745218127" lon="10.444014056529824"><ele>166.0</ele><time>2026-03-29T09:48:20Z</time></trkpt><trkpt lat="45.50228996867856" lon="10.444192365905186"><ele>166.0</ele><time>2026-03-29T09:48:21Z</time></trkpt><trkpt lat="45.502206381156945" lon="10.444381595509052"><ele>166.0</ele><time>2026-03-29T09:48:22Z</time></trkpt><trkpt lat="45.502117563886344" lon="10.444596803562918"><ele>166.0</ele><time>2026-03-29T09:48:23Z</time></trkpt><trkpt lat="45.50202522864176" lon="10.444791585515718"><ele>166.33333333333334</ele><time>2026-03-29T09:48:24Z</time></trkpt><trkpt lat="45.50192364851231" lon="10.445005872550034"><ele>166.66666666666666</ele><time>2026-03-29T09:48:25Z</time></trkpt><trkpt lat="45.50183405784471" lon="10.445188382257275"><ele>167.0</ele><time>2026-03-29T09:48:26Z</time></trkpt><trkpt lat="45.50174620753011" lon="10.445401677798722"><ele>167.66666666666666</ele><time>2026-03-29T09:48:27Z</time></trkpt><trkpt lat="45.501658564635235" lon="10.445588518554082"><ele>168.33333333333334</ele><time>2026-03-29T09:48:28Z</time></trkpt><trkpt lat="45.501566979765194" lon="10.445766643645578"><ele>169.0</ele><time>2026-03-29T09:48:29Z</time></trkpt><trkpt lat="45.501479720269145" lon="10.445949993508698"><ele>169.0</ele><time>2026-03-29T09:48:30Z</time></trkpt><trkpt lat="45.50141594926363" lon="10.446112919856816"><ele>169.0</ele><time>2026-03-29T09:48:31Z</time></trkpt><trkpt lat="45.501354507347614" lon="10.446264688512438"><ele>169.0</ele><time>2026-03-29T09:48:32Z</time></trkpt><trkpt lat="45.501311106241914" lon="10.446399706025002"><ele>169.0</ele><time>2026-03-29T09:48:33Z</time></trkpt><trkpt lat="45.501283432020685" lon="10.446531892769379"><ele>169.0</ele><time>2026-03-29T09:48:34Z</time></trkpt><trkpt lat="45.50128736083887" lon="10.44666945114673"><ele>169.0</ele><time>2026-03-29T09:48:35Z</time></trkpt><trkpt lat="45.501319117058216" lon="10.44685103141352"><ele>169.0</ele><time>2026-03-29T09:48:36Z</time></trkpt><trkpt lat="45.50134487134982" lon="10.446997982732496"><ele>169.0</ele><time>2026-03-29T09:48:37Z</time></trkpt><trkpt lat="45.501327957357255" lon="10.447117133960258"><ele>169.0</ele><time>2026-03-29T09:48:38Z</time></trkpt><trkpt lat="45.50125946388766" lon="10.447232178688198"><ele>168.66666666666669</ele><time>2026-03-29T09:48:39Z</time></trkpt><trkpt lat="45.50115846821961" lon="10.447382520209741"><ele>168.33333333333334</ele><time>2026-03-29T09:48:40Z</time></trkpt><trkpt lat="45.50104013741196" lon="10.447565323604252"><ele>168.0</ele><time>2026-03-29T09:48:41Z</time></trkpt><trkpt lat="45.500937637006864" lon="10.447754427700543"><ele>168.0</ele><time>2026-03-29T09:48:42Z</time></trkpt><trkpt lat="45.500831455220535" lon="10.447980443201589"><ele>168.0</ele><time>2026-03-29T09:48:43Z</time></trkpt><trkpt lat="45.500728739342776" lon="10.448216612377998"><ele>168.0</ele><time>2026-03-29T09:48:44Z</time></trkpt><trkpt lat="45.500637863852" lon="10.448435155417824"><ele>168.0</ele><time>2026-03-29T09:48:45Z</time></trkpt><trkpt lat="45.50055762641678" lon="10.448622996852098"><ele>168.0</ele><time>2026-03-29T09:48:46Z</time></trkpt><trkpt lat="45.50049229292395" lon="10.448791392054137"><ele>168.0</ele><time>2026-03-29T09:48:47Z</time></trkpt><trkpt lat="45.500440185351266" lon="10.44893322016239"><ele>168.0</ele><time>2026-03-29T09:48:48Z</time></trkpt><trkpt lat="45.500391443447256" lon="10.449056880820837"><ele>168.0</ele><time>2026-03-29T09:48:49Z</time></trkpt><trkpt lat="45.50035609976788" lon="10.449166444069423"><ele>168.0</ele><time>2026-03-29T09:48:50Z</time></trkpt><trkpt lat="45.50035024413953" lon="10.449318980446835"><ele>168.0</ele><time>2026-03-29T09:48:52Z</time></trkpt><trkpt lat="45.50046463300862" lon="10.449430519703286"><ele>168.0</ele><time>2026-03-29T09:48:54Z</time></trkpt><trkpt lat="45.50055926608805" lon="10.449494452416161"><ele>168.0</ele><time>2026-03-29T09:48:55Z</time></trkpt><trkpt lat="45.50067938850555" lon="10.449604565391382"><ele>168.0</ele><time>2026-03-29T09:48:56Z</time></trkpt><trkpt lat="45.50079255709894" lon="10.449735937901456"><ele>168.0</ele><time>2026-03-29T09:48:57Z</time></trkpt><trkpt lat="45.500867923521184" lon="10.449808593674925"><ele>168.0</ele><time>2026-03-29T09:48:58Z</time></trkpt><trkpt lat="45.50097346428193" lon="10.449768331837543"><ele>168.0</ele><time>2026-03-29T09:49:00Z</time></trkpt><trkpt lat="45.50102602412771" lon="10.449698728467448"><ele>168.0</ele><time>2026-03-29T09:49:01Z</time></trkpt><trkpt lat="45.50106373433685" lon="10.449572461347165"><ele>168.0</ele><time>2026-03-29T09:49:02Z</time></trkpt><trkpt lat="45.501093467349264" lon="10.44942370002693"><ele>168.0</ele><time>2026-03-29T09:49:03Z</time></trkpt><trkpt lat="45.501134923689044" lon="10.4493307852698"><ele>168.0</ele><time>2026-03-29T09:49:04Z</time></trkpt><trkpt lat="45.50119950167634" lon="10.449288496531834"><ele>168.0</ele><time>2026-03-29T09:49:05Z</time></trkpt><trkpt lat="45.50128417793824" lon="10.449303596630035"><ele>168.0</ele><time>2026-03-29T09:49:06Z</time></trkpt><trkpt lat="45.50138044181803" lon="10.449364112631978"><ele>168.0</ele><time>2026-03-29T09:49:07Z</time></trkpt><trkpt lat="45.50149072374283" lon="10.44944571538509"><ele>168.33333333333334</ele><time>2026-03-29T09:49:08Z</time></trkpt><trkpt lat="45.50165102668878" lon="10.449529677244776"><ele>168.66666666666669</ele><time>2026-03-29T09:49:09Z</time></trkpt><trkpt lat="45.50182560324756" lon="10.449607425913825"><ele>169.0</ele><time>2026-03-29T09:49:10Z</time></trkpt><trkpt lat="45.502003743951114" lon="10.449688517039833"><ele>169.33333333333334</ele><time>2026-03-29T09:49:11Z</time></trkpt><trkpt lat="45.50218447627533" lon="10.449751251019906"><ele>169.66666666666666</ele><time>2026-03-29T09:49:12Z</time></trkpt><trkpt lat="45.50236450403934" lon="10.449798931660604"><ele>170.0</ele><time>2026-03-29T09:49:13Z</time></trkpt><trkpt lat="45.5025266679431" lon="10.449815127143765"><ele>170.0</ele><time>2026-03-29T09:49:14Z</time></trkpt><trkpt lat="45.50266496759766" lon="10.449829195041557"><ele>170.0</ele><time>2026-03-29T09:49:15Z</time></trkpt><trkpt lat="45.50282495519372" lon="10.449844138876717"><ele>170.0</ele><time>2026-03-29T09:49:16Z</time></trkpt><trkpt lat="45.502967899996555" lon="10.44984585227771"><ele>170.0</ele><time>2026-03-29T09:49:17Z</time></trkpt><trkpt lat="45.50309741274927" lon="10.449842849965851"><ele>170.0</ele><time>2026-03-29T09:49:18Z</time></trkpt><trkpt lat="45.50321912533102" lon="10.449823010853695"><ele>170.0</ele><time>2026-03-29T09:49:19Z</time></trkpt><trkpt lat="45.503349394030096" lon="10.449757248683849"><ele>170.0</ele><time>2026-03-29T09:49:20Z</time></trkpt><trkpt lat="45.50349278443359" lon="10.449629418740805"><ele>170.0</ele><time>2026-03-29T09:49:21Z</time></trkpt><trkpt lat="45.503661053261155" lon="10.449501374405628"><ele>170.33333333333331</ele><time>2026-03-29T09:49:22Z</time></trkpt><trkpt lat="45.503819277793234" lon="10.4493902784709"><ele>170.66666666666666</ele><time>2026-03-29T09:49:23Z</time></trkpt><trkpt lat="45.50399189153788" lon="10.449288028253848"><ele>171.0</ele><time>2026-03-29T09:49:24Z</time></trkpt><trkpt lat="45.50416630765639" lon="10.44919127667652"><ele>171.0</ele><time>2026-03-29T09:49:25Z</time></trkpt><trkpt lat="45.50434790362486" lon="10.449094438843746"><ele>171.0</ele><time>2026-03-29T09:49:26Z</time></trkpt><trkpt lat="45.50452511238346" lon="10.449010585658273"><ele>171.0</ele><time>2026-03-29T09:49:27Z</time></trkpt><trkpt lat="45.50472177262083" lon="10.448935972920614"><ele>171.66666666666666</ele><time>2026-03-29T09:49:28Z</time></trkpt><trkpt lat="45.50490896258633" lon="10.448862653707705"><ele>172.33333333333331</ele><time>2026-03-29T09:49:29Z</time></trkpt><trkpt lat="45.505087600346336" lon="10.448799792094812"><ele>173.0</ele><time>2026-03-29T09:49:30Z</time></trkpt><trkpt lat="45.505234518792896" lon="10.448741926728239"><ele>173.0</ele><time>2026-03-29T09:49:31Z</time></trkpt><trkpt lat="45.50537817098719" lon="10.448690599630421"><ele>173.0</ele><time>2026-03-29T09:49:32Z</time></trkpt><trkpt lat="45.505488340448274" lon="10.448647281549391"><ele>173.0</ele><time>2026-03-29T09:49:33Z</time></trkpt><trkpt lat="45.50558794081064" lon="10.44860680502711"><ele>173.0</ele><time>2026-03-29T09:49:34Z</time></trkpt><trkpt lat="45.50567160311944" lon="10.448570207616548"><ele>173.16666666666666</ele><time>2026-03-29T09:49:35Z</time></trkpt><trkpt lat="45.50573893203519" lon="10.448541381202958"><ele>173.33333333333331</ele><time>2026-03-29T09:49:36Z</time></trkpt><trkpt lat="45.505799198645946" lon="10.448510975996447"><ele>173.5</ele><time>2026-03-29T09:49:37Z</time></trkpt><trkpt lat="45.50586710997569" lon="10.448490297013223"><ele>173.66666666666666</ele><time>2026-03-29T09:49:39Z</time></trkpt><trkpt lat="45.50593949040871" lon="10.44846676406623"><ele>173.83333333333334</ele><time>2026-03-29T09:49:42Z</time></trkpt><trkpt lat="45.50603830108232" lon="10.448392443378028"><ele>174.0</ele><time>2026-03-29T09:49:43Z</time></trkpt><trkpt lat="45.5061447713145" lon="10.448305590610303"><ele>174.66666666666666</ele><time>2026-03-29T09:49:44Z</time></trkpt><trkpt lat="45.50626909582594" lon="10.448204406599817"><ele>175.33333333333331</ele><time>2026-03-29T09:49:45Z</time></trkpt><trkpt lat="45.50640004938358" lon="10.448093353541672"><ele>176.0</ele><time>2026-03-29T09:49:46Z</time></trkpt><trkpt lat="45.50654433318126" lon="10.44797820357549"><ele>175.66666666666666</ele><time>2026-03-29T09:49:47Z</time></trkpt><trkpt lat="45.506705668238304" lon="10.447842009688825"><ele>175.33333333333334</ele><time>2026-03-29T09:49:48Z</time></trkpt><trkpt lat="45.50687111670197" lon="10.44769341989413"><ele>175.0</ele><time>2026-03-29T09:49:49Z</time></trkpt><trkpt lat="45.5070321428488" lon="10.447541683341955"><ele>174.66666666666669</ele><time>2026-03-29T09:49:50Z</time></trkpt><trkpt lat="45.507170652845936" lon="10.447405841640888"><ele>174.33333333333334</ele><time>2026-03-29T09:49:51Z</time></trkpt><trkpt lat="45.5073034730751" lon="10.447280994919847"><ele>174.0</ele><time>2026-03-29T09:49:52Z</time></trkpt><trkpt lat="45.50742974549643" lon="10.447153142619868"><ele>174.66666666666666</ele><time>2026-03-29T09:49:53Z</time></trkpt><trkpt lat="45.50755300972218" lon="10.44701657168362"><ele>175.33333333333331</ele><time>2026-03-29T09:49:54Z</time></trkpt><trkpt lat="45.507674885122256" lon="10.446872975056364"><ele>176.0</ele><time>2026-03-29T09:49:55Z</time></trkpt><trkpt lat="45.507797375818505" lon="10.446730552601744"><ele>175.66666666666666</ele><time>2026-03-29T09:49:56Z</time></trkpt><trkpt lat="45.50793892746001" lon="10.446588971497196"><ele>175.33333333333334</ele><time>2026-03-29T09:49:57Z</time></trkpt><trkpt lat="45.50807457443859" lon="10.446431930387579"><ele>175.0</ele><time>2026-03-29T09:49:58Z</time></trkpt><trkpt lat="45.50821453583095" lon="10.446270624214252"><ele>175.0</ele><time>2026-03-29T09:49:59Z</time></trkpt><trkpt lat="45.508355668896286" lon="10.446107159393323"><ele>175.0</ele><time>2026-03-29T09:50:00Z</time></trkpt><trkpt lat="45.508492908395134" lon="10.445948204243944"><ele>175.0</ele><time>2026-03-29T09:50:01Z</time></trkpt><trkpt lat="45.5086373563246" lon="10.44578090006092"><ele>175.66666666666669</ele><time>2026-03-29T09:50:02Z</time></trkpt><trkpt lat="45.50877132630378" lon="10.445598949101784"><ele>176.33333333333334</ele><time>2026-03-29T09:50:03Z</time></trkpt><trkpt lat="45.508919615583125" lon="10.445428208646415"><ele>177.0</ele><time>2026-03-29T09:50:04Z</time></trkpt><trkpt lat="45.50905278170873" lon="10.445281955750675"><ele>177.0</ele><time>2026-03-29T09:50:05Z</time></trkpt><trkpt lat="45.50919013826497" lon="10.445154601442047"><ele>177.0</ele><time>2026-03-29T09:50:06Z</time></trkpt><trkpt lat="45.509300929244404" lon="10.444962440651786"><ele>177.0</ele><time>2026-03-29T09:50:07Z</time></trkpt><trkpt lat="45.50940828967236" lon="10.444775961074798"><ele>176.66666666666666</ele><time>2026-03-29T09:50:08Z</time></trkpt><trkpt lat="45.50951479470642" lon="10.444563001921358"><ele>176.33333333333331</ele><time>2026-03-29T09:50:09Z</time></trkpt><trkpt lat="45.50961897780746" lon="10.444335748481306"><ele>176.0</ele><time>2026-03-29T09:50:10Z</time></trkpt><trkpt lat="45.50972281041967" lon="10.444114573129132"><ele>176.0</ele><time>2026-03-29T09:50:11Z</time></trkpt><trkpt lat="45.5098207037477" lon="10.443920318162803"><ele>176.0</ele><time>2026-03-29T09:50:12Z</time></trkpt><trkpt lat="45.509917243311875" lon="10.443725241776622"><ele>176.0</ele><time>2026-03-29T09:50:13Z</time></trkpt><trkpt lat="45.51000140871278" lon="10.443550833786546"><ele>176.0</ele><time>2026-03-29T09:50:14Z</time></trkpt><trkpt lat="45.51008353958592" lon="10.44338447769173"><ele>176.0</ele><time>2026-03-29T09:50:15Z</time></trkpt><trkpt lat="45.51015616574608" lon="10.443235550353064"><ele>176.0</ele><time>2026-03-29T09:50:16Z</time></trkpt><trkpt lat="45.51021868819486" lon="10.443104962949889"><ele>176.0</ele><time>2026-03-29T09:50:17Z</time></trkpt><trkpt lat="45.510274623367465" lon="10.44298896834509"><ele>176.20000000000002</ele><time>2026-03-29T09:50:18Z</time></trkpt><trkpt lat="45.510329749498815" lon="10.442885227370153"><ele>176.4</ele><time>2026-03-29T09:50:19Z</time></trkpt><trkpt lat="45.510372515994156" lon="10.442783721041893"><ele>176.6</ele><time>2026-03-29T09:50:20Z</time></trkpt><trkpt lat="45.510481219539116" lon="10.442716716991102"><ele>176.8</ele><time>2026-03-29T09:50:21Z</time></trkpt><trkpt lat="45.5106010353283" lon="10.442662630549417"><ele>177.0</ele><time>2026-03-29T09:50:22Z</time></trkpt><trkpt lat="45.51072712473955" lon="10.442661363587835"><ele>177.0</ele><time>2026-03-29T09:50:23Z</time></trkpt><trkpt lat="45.51082882479945" lon="10.442692593638458"><ele>177.0</ele><time>2026-03-29T09:50:24Z</time></trkpt><trkpt lat="45.51090501059054" lon="10.442725129675976"><ele>177.0</ele><time>2026-03-29T09:50:25Z</time></trkpt><trkpt lat="45.51099627742195" lon="10.442741719605312"><ele>177.0</ele><time>2026-03-29T09:50:26Z</time></trkpt><trkpt lat="45.511085078592224" lon="10.442746697058544"><ele>177.0</ele><time>2026-03-29T09:50:27Z</time></trkpt><trkpt lat="45.511166692412424" lon="10.44275491925014"><ele>177.0</ele><time>2026-03-29T09:50:28Z</time></trkpt><trkpt lat="45.511241178021834" lon="10.442775480819726"><ele>177.0</ele><time>2026-03-29T09:50:29Z</time></trkpt><trkpt lat="45.5113041348212" lon="10.442812679016367"><ele>177.0</ele><time>2026-03-29T09:50:30Z</time></trkpt><trkpt lat="45.51135878942684" lon="10.442869782853485"><ele>177.0</ele><time>2026-03-29T09:50:31Z</time></trkpt><trkpt lat="45.51139638819566" lon="10.442946333339046"><ele>177.0</ele><time>2026-03-29T09:50:32Z</time></trkpt><trkpt lat="45.511417767921" lon="10.443044623409682"><ele>177.0</ele><time>2026-03-29T09:50:33Z</time></trkpt><trkpt lat="45.51142981547954" lon="10.443170790749605"><ele>177.0</ele><time>2026-03-29T09:50:34Z</time></trkpt><trkpt lat="45.51146563676064" lon="10.4432946553366"><ele>177.0</ele><time>2026-03-29T09:50:35Z</time></trkpt><trkpt lat="45.51154048686559" lon="10.44336632696472"><ele>177.0</ele><time>2026-03-29T09:50:36Z</time></trkpt><trkpt lat="45.51161922800811" lon="10.44342536170541"><ele>177.0</ele><time>2026-03-29T09:50:37Z</time></trkpt><trkpt lat="45.511717394410354" lon="10.443407976877653"><ele>177.0</ele><time>2026-03-29T09:50:38Z</time></trkpt><trkpt lat="45.511803003674885" lon="10.44333874398834"><ele>177.0</ele><time>2026-03-29T09:50:39Z</time></trkpt><trkpt lat="45.51185132857106" lon="10.443184011154356"><ele>177.0</ele><time>2026-03-29T09:50:40Z</time></trkpt><trkpt lat="45.511924272155895" lon="10.44305813278075"><ele>177.0</ele><time>2026-03-29T09:50:41Z</time></trkpt><trkpt lat="45.51191953210554" lon="10.442848716059608"><ele>177.0</ele><time>2026-03-29T09:50:42Z</time></trkpt><trkpt lat="45.511967727838474" lon="10.44266854163722"><ele>177.0</ele><time>2026-03-29T09:50:43Z</time></trkpt><trkpt lat="45.51207929145785" lon="10.442536040688832"><ele>177.33333333333334</ele><time>2026-03-29T09:50:44Z</time></trkpt><trkpt lat="45.51218895874989" lon="10.442383794905437"><ele>177.66666666666669</ele><time>2026-03-29T09:50:45Z</time></trkpt><trkpt lat="45.5123015271876" lon="10.442196879312272"><ele>178.0</ele><time>2026-03-29T09:50:46Z</time></trkpt><trkpt lat="45.51243274006344" lon="10.442017299114093"><ele>178.0</ele><time>2026-03-29T09:50:47Z</time></trkpt><trkpt lat="45.51256094443269" lon="10.441840984654743"><ele>178.0</ele><time>2026-03-29T09:50:48Z</time></trkpt><trkpt lat="45.512682471954804" lon="10.441674913980865"><ele>178.0</ele><time>2026-03-29T09:50:49Z</time></trkpt><trkpt lat="45.512805465113146" lon="10.441497543857269"><ele>178.33333333333334</ele><time>2026-03-29T09:50:50Z</time></trkpt><trkpt lat="45.51293354853139" lon="10.44130511684865"><ele>178.66666666666666</ele><time>2026-03-29T09:50:51Z</time></trkpt><trkpt lat="45.51305895440322" lon="10.44110769550201"><ele>179.0</ele><time>2026-03-29T09:50:52Z</time></trkpt><trkpt lat="45.51317879900677" lon="10.440895077395286"><ele>179.0</ele><time>2026-03-29T09:50:53Z</time></trkpt><trkpt lat="45.51328416451724" lon="10.440692603734474"><ele>179.0</ele><time>2026-03-29T09:50:54Z</time></trkpt><trkpt lat="45.513393434230665" lon="10.440470119840892"><ele>179.0</ele><time>2026-03-29T09:50:55Z</time></trkpt><trkpt lat="45.51349526695687" lon="10.440258655108497"><ele>178.66666666666666</ele><time>2026-03-29T09:50:56Z</time></trkpt><trkpt lat="45.51360352893691" lon="10.440020234847957"><ele>178.33333333333334</ele><time>2026-03-29T09:50:57Z</time></trkpt><trkpt lat="45.51370082739214" lon="10.439795778424221"><ele>178.0</ele><time>2026-03-29T09:50:58Z</time></trkpt><trkpt lat="45.513785942463535" lon="10.4395764173549"><ele>178.66666666666669</ele><time>2026-03-29T09:50:59Z</time></trkpt><trkpt lat="45.513869990363496" lon="10.439348530981192"><ele>179.33333333333334</ele><time>2026-03-29T09:51:00Z</time></trkpt><trkpt lat="45.513952296081065" lon="10.439094719596268"><ele>180.0</ele><time>2026-03-29T09:51:01Z</time></trkpt><trkpt lat="45.514028578714225" lon="10.438845642272064"><ele>180.0</ele><time>2026-03-29T09:51:02Z</time></trkpt><trkpt lat="45.51410656575786" lon="10.438586346528862"><ele>180.0</ele><time>2026-03-29T09:51:03Z</time></trkpt><trkpt lat="45.51417192235288" lon="10.438341909478922"><ele>180.0</ele><time>2026-03-29T09:51:04Z</time></trkpt><trkpt lat="45.51422515884841" lon="10.438128816646408"><ele>180.25</ele><time>2026-03-29T09:51:05Z</time></trkpt><trkpt lat="45.51427823407627" lon="10.43791663042343"><ele>180.5</ele><time>2026-03-29T09:51:06Z</time></trkpt><trkpt lat="45.51433210291852" lon="10.437728721046096"><ele>180.75</ele><time>2026-03-29T09:51:07Z</time></trkpt><trkpt lat="45.51438206439732" lon="10.437555877905984"><ele>181.0</ele><time>2026-03-29T09:51:08Z</time></trkpt><trkpt lat="45.51443474851815" lon="10.437394494259022"><ele>181.0</ele><time>2026-03-29T09:51:09Z</time></trkpt><trkpt lat="45.51450720869818" lon="10.437256158556732"><ele>181.0</ele><time>2026-03-29T09:51:10Z</time></trkpt><trkpt lat="45.514588033121164" lon="10.437139540557105"><ele>181.0</ele><time>2026-03-29T09:51:11Z</time></trkpt><trkpt lat="45.514678244169346" lon="10.437040751553706"><ele>181.0</ele><time>2026-03-29T09:51:12Z</time></trkpt><trkpt lat="45.51475259795355" lon="10.43693465119759"><ele>181.5</ele><time>2026-03-29T09:51:13Z</time></trkpt><trkpt lat="45.51480108616101" lon="10.436806945483353"><ele>182.0</ele><time>2026-03-29T09:51:14Z</time></trkpt><trkpt lat="45.514808002681775" lon="10.436644057212733"><ele>182.5</ele><time>2026-03-29T09:51:15Z</time></trkpt><trkpt lat="45.514773167887384" lon="10.436475030552064"><ele>183.0</ele><time>2026-03-29T09:51:16Z</time></trkpt><trkpt lat="45.514702747390984" lon="10.436297346591717"><ele>183.0</ele><time>2026-03-29T09:51:17Z</time></trkpt><trkpt lat="45.51463682370685" lon="10.436104247329553"><ele>183.0</ele><time>2026-03-29T09:51:18Z</time></trkpt><trkpt lat="45.51457823400928" lon="10.435913922774471"><ele>183.0</ele><time>2026-03-29T09:51:19Z</time></trkpt><trkpt lat="45.51461157011814" lon="10.435671153142216"><ele>182.25</ele><time>2026-03-29T09:51:20Z</time></trkpt><trkpt lat="45.51460976635372" lon="10.435462644578463"><ele>181.5</ele><time>2026-03-29T09:51:21Z</time></trkpt><trkpt lat="45.514607601202236" lon="10.43525912932859"><ele>180.75</ele><time>2026-03-29T09:51:22Z</time></trkpt><trkpt lat="45.51460036113324" lon="10.435080380422194"><ele>180.0</ele><time>2026-03-29T09:51:23Z</time></trkpt><trkpt lat="45.514592620107884" lon="10.434890121386093"><ele>180.0</ele><time>2026-03-29T09:51:24Z</time></trkpt><trkpt lat="45.51458598965179" lon="10.434681543531125"><ele>180.0</ele><time>2026-03-29T09:51:25Z</time></trkpt><trkpt lat="45.51457817553788" lon="10.43446467779758"><ele>180.0</ele><time>2026-03-29T09:51:26Z</time></trkpt><trkpt lat="45.514562821977975" lon="10.434234863489912"><ele>180.33333333333334</ele><time>2026-03-29T09:51:27Z</time></trkpt><trkpt lat="45.51454738138647" lon="10.433996878246978"><ele>180.66666666666669</ele><time>2026-03-29T09:51:28Z</time></trkpt><trkpt lat="45.514533593878724" lon="10.43374823904048"><ele>181.0</ele><time>2026-03-29T09:51:29Z</time></trkpt><trkpt lat="45.51452339117631" lon="10.433517797122004"><ele>182.0</ele><time>2026-03-29T09:51:30Z</time></trkpt><trkpt lat="45.514514902062636" lon="10.433265081007976"><ele>183.0</ele><time>2026-03-29T09:51:31Z</time></trkpt><trkpt lat="45.514509102414934" lon="10.433020391982438"><ele>184.0</ele><time>2026-03-29T09:51:32Z</time></trkpt><trkpt lat="45.514500672592824" lon="10.432781146326475"><ele>184.0</ele><time>2026-03-29T09:51:33Z</time></trkpt><trkpt lat="45.5144894564625" lon="10.432526859152402"><ele>184.0</ele><time>2026-03-29T09:51:34Z</time></trkpt><trkpt lat="45.514484533339555" lon="10.432277383437969"><ele>184.0</ele><time>2026-03-29T09:51:35Z</time></trkpt><trkpt lat="45.514478871364766" lon="10.432022875931404"><ele>183.66666666666669</ele><time>2026-03-29T09:51:36Z</time></trkpt><trkpt lat="45.51447861637212" lon="10.431776038169183"><ele>183.33333333333334</ele><time>2026-03-29T09:51:37Z</time></trkpt><trkpt lat="45.51448773135834" lon="10.431525250563096"><ele>183.0</ele><time>2026-03-29T09:51:38Z</time></trkpt><trkpt lat="45.51449696129992" lon="10.431291410599005"><ele>182.66666666666666</ele><time>2026-03-29T09:51:39Z</time></trkpt><trkpt lat="45.514511046033626" lon="10.43104723837532"><ele>182.33333333333331</ele><time>2026-03-29T09:51:40Z</time></trkpt><trkpt lat="45.514529070513525" lon="10.430806588894985"><ele>182.0</ele><time>2026-03-29T09:51:41Z</time></trkpt><trkpt lat="45.51454503301086" lon="10.430571031977905"><ele>182.0</ele><time>2026-03-29T09:51:42Z</time></trkpt><trkpt lat="45.51456085956522" lon="10.430321707076676"><ele>182.0</ele><time>2026-03-29T09:51:43Z</time></trkpt><trkpt lat="45.51458255268198" lon="10.430094239344085"><ele>182.0</ele><time>2026-03-29T09:51:44Z</time></trkpt><trkpt lat="45.51460210487468" lon="10.42987068550602"><ele>182.66666666666666</ele><time>2026-03-29T09:51:45Z</time></trkpt><trkpt lat="45.51462288321333" lon="10.429649114403214"><ele>183.33333333333334</ele><time>2026-03-29T09:51:46Z</time></trkpt><trkpt lat="45.51463658545967" lon="10.429432293622991"><ele>184.0</ele><time>2026-03-29T09:51:47Z</time></trkpt><trkpt lat="45.514660434437296" lon="10.429211519785"><ele>184.0</ele><time>2026-03-29T09:51:48Z</time></trkpt><trkpt lat="45.51468020378677" lon="10.428976553919345"><ele>184.0</ele><time>2026-03-29T09:51:49Z</time></trkpt><trkpt lat="45.51470185935362" lon="10.428738114298213"><ele>184.0</ele><time>2026-03-29T09:51:50Z</time></trkpt><trkpt lat="45.514721954184175" lon="10.42849192034545"><ele>184.0</ele><time>2026-03-29T09:51:51Z</time></trkpt><trkpt lat="45.514749779983184" lon="10.428232809602951"><ele>184.0</ele><time>2026-03-29T09:51:52Z</time></trkpt><trkpt lat="45.51477381969446" lon="10.427967588675875"><ele>184.0</ele><time>2026-03-29T09:51:53Z</time></trkpt><trkpt lat="45.514795236836186" lon="10.427701401410024"><ele>184.0</ele><time>2026-03-29T09:51:54Z</time></trkpt><trkpt lat="45.51481802567918" lon="10.427421052067317"><ele>184.0</ele><time>2026-03-29T09:51:55Z</time></trkpt><trkpt lat="45.51483709578828" lon="10.427142595254765"><ele>184.0</ele><time>2026-03-29T09:51:56Z</time></trkpt><trkpt lat="45.51486003844786" lon="10.426865990765432"><ele>183.66666666666669</ele><time>2026-03-29T09:51:57Z</time></trkpt><trkpt lat="45.5148863817897" lon="10.426587183257036"><ele>183.33333333333334</ele><time>2026-03-29T09:51:58Z</time></trkpt><trkpt lat="45.51491173856284" lon="10.426303662335707"><ele>183.0</ele><time>2026-03-29T09:51:59Z</time></trkpt><trkpt lat="45.514937103571086" lon="10.426009130124038"><ele>183.0</ele><time>2026-03-29T09:52:00Z</time></trkpt><trkpt lat="45.51496065843562" lon="10.425719779898161"><ele>183.0</ele><time>2026-03-29T09:52:01Z</time></trkpt><trkpt lat="45.51498708562912" lon="10.425443441229291"><ele>183.0</ele><time>2026-03-29T09:52:02Z</time></trkpt><trkpt lat="45.51500625553176" lon="10.42517728684461"><ele>182.33333333333334</ele><time>2026-03-29T09:52:03Z</time></trkpt><trkpt lat="45.515022818647104" lon="10.424943091610787"><ele>181.66666666666669</ele><time>2026-03-29T09:52:04Z</time></trkpt><trkpt lat="45.51504229923724" lon="10.424703797988366"><ele>181.0</ele><time>2026-03-29T09:52:05Z</time></trkpt><trkpt lat="45.51506725680589" lon="10.424489167810924"><ele>180.66666666666669</ele><time>2026-03-29T09:52:06Z</time></trkpt><trkpt lat="45.515079744545325" lon="10.424265247293025"><ele>180.33333333333334</ele><time>2026-03-29T09:52:07Z</time></trkpt><trkpt lat="45.515100849206235" lon="10.424043589505976"><ele>180.0</ele><time>2026-03-29T09:52:08Z</time></trkpt><trkpt lat="45.51511906831995" lon="10.423839429408106"><ele>180.25</ele><time>2026-03-29T09:52:09Z</time></trkpt><trkpt lat="45.51513395300235" lon="10.423646028663759"><ele>180.5</ele><time>2026-03-29T09:52:10Z</time></trkpt><trkpt lat="45.5151545303235" lon="10.423477900162549"><ele>180.75</ele><time>2026-03-29T09:52:11Z</time></trkpt><trkpt lat="45.51519894845929" lon="10.423328986358035"><ele>181.0</ele><time>2026-03-29T09:52:12Z</time></trkpt><trkpt lat="45.51526234077559" lon="10.42319115820349"><ele>181.0</ele><time>2026-03-29T09:52:13Z</time></trkpt><trkpt lat="45.51533442357982" lon="10.423055696482589"><ele>181.0</ele><time>2026-03-29T09:52:14Z</time></trkpt><trkpt lat="45.515380136271204" lon="10.422913852670135"><ele>181.0</ele><time>2026-03-29T09:52:15Z</time></trkpt><trkpt lat="45.51538078983078" lon="10.422752892624604"><ele>181.0</ele><time>2026-03-29T09:52:16Z</time></trkpt><trkpt lat="45.51534873067699" lon="10.422577565868947"><ele>181.66666666666669</ele><time>2026-03-29T09:52:17Z</time></trkpt><trkpt lat="45.51528353590841" lon="10.42239319979437"><ele>182.33333333333334</ele><time>2026-03-29T09:52:18Z</time></trkpt><trkpt lat="45.51523498881468" lon="10.422186894103362"><ele>183.0</ele><time>2026-03-29T09:52:19Z</time></trkpt><trkpt lat="45.51524749340299" lon="10.42194978938717"><ele>183.0</ele><time>2026-03-29T09:52:20Z</time></trkpt><trkpt lat="45.515250992684635" lon="10.421673887160889"><ele>183.0</ele><time>2026-03-29T09:52:21Z</time></trkpt><trkpt lat="45.51527532757492" lon="10.42139310678326"><ele>183.0</ele><time>2026-03-29T09:52:22Z</time></trkpt><trkpt lat="45.515292426620725" lon="10.42109623901831"><ele>183.0</ele><time>2026-03-29T09:52:23Z</time></trkpt><trkpt lat="45.51530527332793" lon="10.420786675719222"><ele>183.0</ele><time>2026-03-29T09:52:24Z</time></trkpt><trkpt lat="45.51531873200655" lon="10.420464871549902"><ele>183.0</ele><time>2026-03-29T09:52:25Z</time></trkpt><trkpt lat="45.51533278171132" lon="10.420138803762152"><ele>183.0</ele><time>2026-03-29T09:52:26Z</time></trkpt><trkpt lat="45.515349066315345" lon="10.419819640857554"><ele>183.0</ele><time>2026-03-29T09:52:27Z</time></trkpt><trkpt lat="45.51536193360777" lon="10.419507220740915"><ele>183.0</ele><time>2026-03-29T09:52:28Z</time></trkpt><trkpt lat="45.515375570395385" lon="10.419215636950316"><ele>183.0</ele><time>2026-03-29T09:52:29Z</time></trkpt><trkpt lat="45.51538650725796" lon="10.41893808143009"><ele>183.0</ele><time>2026-03-29T09:52:30Z</time></trkpt><trkpt lat="45.5153709109791" lon="10.418650868219073"><ele>183.0</ele><time>2026-03-29T09:52:31Z</time></trkpt><trkpt lat="45.51534128612519" lon="10.418364039679744"><ele>183.0</ele><time>2026-03-29T09:52:32Z</time></trkpt><trkpt lat="45.515296987653194" lon="10.418099928610468"><ele>183.0</ele><time>2026-03-29T09:52:33Z</time></trkpt><trkpt lat="45.515238795342846" lon="10.417838814744936"><ele>183.0</ele><time>2026-03-29T09:52:34Z</time></trkpt><trkpt lat="45.5151613042509" lon="10.417593625058934"><ele>182.33333333333334</ele><time>2026-03-29T09:52:35Z</time></trkpt><trkpt lat="45.515070791277715" lon="10.417352356126283"><ele>181.66666666666669</ele><time>2026-03-29T09:52:36Z</time></trkpt><trkpt lat="45.51496344466665" lon="10.417114691704217"><ele>181.0</ele><time>2026-03-29T09:52:37Z</time></trkpt><trkpt lat="45.514838371307086" lon="10.41688580204618"><ele>180.0</ele><time>2026-03-29T09:52:38Z</time></trkpt><trkpt lat="45.514694864655056" lon="10.416676482392917"><ele>179.0</ele><time>2026-03-29T09:52:39Z</time></trkpt><trkpt lat="45.51454790124327" lon="10.416494107420842"><ele>178.0</ele><time>2026-03-29T09:52:40Z</time></trkpt><trkpt lat="45.51440033435135" lon="10.41633974071865"><ele>178.0</ele><time>2026-03-29T09:52:41Z</time></trkpt><trkpt lat="45.5142427017085" lon="10.416194896083475"><ele>178.0</ele><time>2026-03-29T09:52:42Z</time></trkpt><trkpt lat="45.514065780131276" lon="10.416062311354972"><ele>178.0</ele><time>2026-03-29T09:52:43Z</time></trkpt><trkpt lat="45.513883754291214" lon="10.415942290812312"><ele>177.0</ele><time>2026-03-29T09:52:44Z</time></trkpt><trkpt lat="45.513703788698884" lon="10.415837815603085"><ele>176.0</ele><time>2026-03-29T09:52:45Z</time></trkpt><trkpt lat="45.51353049368915" lon="10.415740320466174"><ele>175.0</ele><time>2026-03-29T09:52:46Z</time></trkpt><trkpt lat="45.513375336045286" lon="10.41565135351204"><ele>175.0</ele><time>2026-03-29T09:52:47Z</time></trkpt><trkpt lat="45.51323631264651" lon="10.415568672247543"><ele>175.0</ele><time>2026-03-29T09:52:48Z</time></trkpt><trkpt lat="45.51313133526228" lon="10.415506005095391"><ele>175.0</ele><time>2026-03-29T09:52:49Z</time></trkpt><trkpt lat="45.51304468500348" lon="10.415452780797736"><ele>175.0</ele><time>2026-03-29T09:52:50Z</time></trkpt><trkpt lat="45.51297276526505" lon="10.415405000924277"><ele>175.0</ele><time>2026-03-29T09:52:51Z</time></trkpt><trkpt lat="45.51291530486359" lon="10.415293912159953"><ele>175.8</ele><time>2026-03-29T09:52:53Z</time></trkpt><trkpt lat="45.512998978120365" lon="10.415074324348677"><ele>176.6</ele><time>2026-03-29T09:52:55Z</time></trkpt><trkpt lat="45.51304832883888" lon="10.41496598577263"><ele>177.39999999999998</ele><time>2026-03-29T09:52:56Z</time></trkpt><trkpt lat="45.51311431836994" lon="10.414876081412405"><ele>178.2</ele><time>2026-03-29T09:52:57Z</time></trkpt><trkpt lat="45.51320251653025" lon="10.414846636629287"><ele>179.0</ele><time>2026-03-29T09:52:58Z</time></trkpt><trkpt lat="45.51330871836577" lon="10.414803448982239"><ele>179.0</ele><time>2026-03-29T09:52:59Z</time></trkpt><trkpt lat="45.513430863541835" lon="10.414790016575624"><ele>179.0</ele><time>2026-03-29T09:53:00Z</time></trkpt><trkpt lat="45.513543643705766" lon="10.414769087268661"><ele>179.0</ele><time>2026-03-29T09:53:01Z</time></trkpt><trkpt lat="45.51362679938462" lon="10.414748433948597"><ele>179.0</ele><time>2026-03-29T09:53:02Z</time></trkpt><trkpt lat="45.513696733067015" lon="10.414714912303934"><ele>179.0</ele><time>2026-03-29T09:53:03Z</time></trkpt><trkpt lat="45.51376572314139" lon="10.414675833192955"><ele>180.39999999999998</ele><time>2026-03-29T09:53:04Z</time></trkpt><trkpt lat="45.513828604407294" lon="10.414635081456453"><ele>181.8</ele><time>2026-03-29T09:53:05Z</time></trkpt><trkpt lat="45.51395022506575" lon="10.414741308327718"><ele>183.2</ele><time>2026-03-29T09:53:07Z</time></trkpt><trkpt lat="45.514036695565466" lon="10.414789787546495"><ele>184.60000000000002</ele><time>2026-03-29T09:53:08Z</time></trkpt><trkpt lat="45.51411130758411" lon="10.4148089232274"><ele>186.0</ele><time>2026-03-29T09:53:09Z</time></trkpt><trkpt lat="45.514185490961005" lon="10.414843646863162"><ele>186.0</ele><time>2026-03-29T09:53:11Z</time></trkpt><trkpt lat="45.514304190383925" lon="10.41490933767891"><ele>186.0</ele><time>2026-03-29T09:53:13Z</time></trkpt><trkpt lat="45.51438106988039" lon="10.414956533229823"><ele>186.0</ele><time>2026-03-29T09:53:14Z</time></trkpt><trkpt lat="45.514447402058934" lon="10.415017357582373"><ele>186.0</ele><time>2026-03-29T09:53:15Z</time></trkpt><trkpt lat="45.51452031155011" lon="10.415045357884065"><ele>186.0</ele><time>2026-03-29T09:53:16Z</time></trkpt><trkpt lat="45.51458139856" lon="10.415098446689873"><ele>186.0</ele><time>2026-03-29T09:53:17Z</time></trkpt><trkpt lat="45.51464729446125" lon="10.415136487453674"><ele>186.33333333333334</ele><time>2026-03-29T09:53:18Z</time></trkpt><trkpt lat="45.51471202483674" lon="10.415173006349868"><ele>186.66666666666666</ele><time>2026-03-29T09:53:19Z</time></trkpt><trkpt lat="45.514792945327216" lon="10.415202187098743"><ele>187.0</ele><time>2026-03-29T09:53:20Z</time></trkpt><trkpt lat="45.51488640736521" lon="10.415232942948723"><ele>187.33333333333331</ele><time>2026-03-29T09:53:21Z</time></trkpt><trkpt lat="45.51497633773044" lon="10.41524935852619"><ele>187.66666666666666</ele><time>2026-03-29T09:53:22Z</time></trkpt><trkpt lat="45.51506132887455" lon="10.415259934735845"><ele>188.0</ele><time>2026-03-29T09:53:23Z</time></trkpt><trkpt lat="45.51515911977654" lon="10.41526573382654"><ele>188.0</ele><time>2026-03-29T09:53:24Z</time></trkpt><trkpt lat="45.51525609504862" lon="10.41527111433422"><ele>188.0</ele><time>2026-03-29T09:53:25Z</time></trkpt><trkpt lat="45.515352149077785" lon="10.415289015919399"><ele>188.0</ele><time>2026-03-29T09:53:26Z</time></trkpt><trkpt lat="45.51545783152671" lon="10.415271497872249"><ele>188.0</ele><time>2026-03-29T09:53:27Z</time></trkpt><trkpt lat="45.51557001713446" lon="10.415251001460442"><ele>188.0</ele><time>2026-03-29T09:53:28Z</time></trkpt><trkpt lat="45.51566733762078" lon="10.415200144353674"><ele>189.0</ele><time>2026-03-29T09:53:29Z</time></trkpt><trkpt lat="45.51575879040799" lon="10.415165726296731"><ele>190.0</ele><time>2026-03-29T09:53:30Z</time></trkpt><trkpt lat="45.51585335114542" lon="10.415144911294561"><ele>191.0</ele><time>2026-03-29T09:53:31Z</time></trkpt><trkpt lat="45.515945728898295" lon="10.415081154884346"><ele>192.0</ele><time>2026-03-29T09:53:32Z</time></trkpt><trkpt lat="45.516038149017994" lon="10.415065855010518"><ele>193.0</ele><time>2026-03-29T09:53:33Z</time></trkpt><trkpt lat="45.51612209344" lon="10.415032096207536"><ele>192.99999999999997</ele><time>2026-03-29T09:53:34Z</time></trkpt><trkpt lat="45.516209852550595" lon="10.41499664345094"><ele>193.0</ele><time>2026-03-29T09:53:35Z</time></trkpt><trkpt lat="45.51627948710847" lon="10.414972273495875"><ele>193.0</ele><time>2026-03-29T09:53:36Z</time></trkpt><trkpt lat="45.51635277514978" lon="10.414946694703573"><ele>193.0</ele><time>2026-03-29T09:53:37Z</time></trkpt><trkpt lat="45.5164342163815" lon="10.414918270304781"><ele>192.99999999999997</ele><time>2026-03-29T09:53:38Z</time></trkpt><trkpt lat="45.51650609478262" lon="10.414889087417253"><ele>193.0</ele><time>2026-03-29T09:53:39Z</time></trkpt><trkpt lat="45.516613012801535" lon="10.414827391994061"><ele>192.99999999999997</ele><time>2026-03-29T09:53:41Z</time></trkpt><trkpt lat="45.516675136182585" lon="10.414800411147672"><ele>193.0</ele><time>2026-03-29T09:53:42Z</time></trkpt><trkpt lat="45.51674520286827" lon="10.414773081638904"><ele>193.0</ele><time>2026-03-29T09:53:43Z</time></trkpt><trkpt lat="45.516820532336375" lon="10.414748108184934"><ele>193.0</ele><time>2026-03-29T09:53:44Z</time></trkpt><trkpt lat="45.51689668644839" lon="10.414715623602621"><ele>192.99999999999997</ele><time>2026-03-29T09:53:45Z</time></trkpt><trkpt lat="45.51697033608128" lon="10.414689341584092"><ele>193.0</ele><time>2026-03-29T09:53:46Z</time></trkpt><trkpt lat="45.51705023307261" lon="10.414677912264914"><ele>193.2</ele><time>2026-03-29T09:53:47Z</time></trkpt><trkpt lat="45.517168997764834" lon="10.414667566755748"><ele>193.4</ele><time>2026-03-29T09:53:49Z</time></trkpt><trkpt lat="45.51725718066477" lon="10.414696299201122"><ele>193.6</ele><time>2026-03-29T09:53:51Z</time></trkpt><trkpt lat="45.51727119881192" lon="10.414494553258528"><ele>193.79999999999998</ele><time>2026-03-29T09:53:52Z</time></trkpt><trkpt lat="45.51725367611468" lon="10.414382830139672"><ele>194.0</ele><time>2026-03-29T09:53:53Z</time></trkpt><trkpt lat="45.51724970291353" lon="10.414255504317195"><ele>194.50000000000003</ele><time>2026-03-29T09:53:54Z</time></trkpt><trkpt lat="45.51722131769559" lon="10.414126520301862"><ele>195.0</ele><time>2026-03-29T09:53:55Z</time></trkpt><trkpt lat="45.5172258997863" lon="10.41398432311419"><ele>195.5</ele><time>2026-03-29T09:53:56Z</time></trkpt><trkpt lat="45.51721729396789" lon="10.4138426054336"><ele>196.0</ele><time>2026-03-29T09:53:57Z</time></trkpt><trkpt lat="45.5172121875133" lon="10.413746888768072"><ele>196.50000000000003</ele><time>2026-03-29T09:53:58Z</time></trkpt><trkpt lat="45.517235246389475" lon="10.413655831261872"><ele>197.0</ele><time>2026-03-29T09:54:00Z</time></trkpt><trkpt lat="45.51733728518931" lon="10.413662279890067"><ele>197.0</ele><time>2026-03-29T09:54:04Z</time></trkpt><trkpt lat="45.51742452243835" lon="10.41367888373557"><ele>197.0</ele><time>2026-03-29T09:54:06Z</time></trkpt><trkpt lat="45.51750343667788" lon="10.413670146234445"><ele>197.0</ele><time>2026-03-29T09:54:08Z</time></trkpt><trkpt lat="45.5174342039202" lon="10.413680673219599"><ele>197.0</ele><time>2026-03-29T09:54:20Z</time></trkpt><trkpt lat="45.517407682173086" lon="10.41376314753236"><ele>197.0</ele><time>2026-03-29T09:54:24Z</time></trkpt><trkpt lat="45.51746720947029" lon="10.413804138755173"><ele>197.0</ele><time>2026-03-29T10:01:54Z</time></trkpt><trkpt lat="45.51753504129769" lon="10.413790049796635"><ele>197.0</ele><time>2026-03-29T10:02:01Z</time></trkpt><trkpt lat="45.51755843478792" lon="10.413684313011913"><ele>197.00000000000003</ele><time>2026-03-29T10:02:17Z</time></trkpt><trkpt lat="45.517563033836204" lon="10.413586168059917"><ele>197.0</ele><time>2026-03-29T10:03:19Z</time></trkpt><trkpt lat="45.51759068253309" lon="10.41349963980743"><ele>197.0</ele><time>2026-03-29T10:03:24Z</time></trkpt><trkpt lat="45.51763454114808" lon="10.413428549892597"><ele>197.0</ele><time>2026-03-29T10:03:29Z</time></trkpt><trkpt lat="45.517660816230574" lon="10.413337560684415"><ele>197.00000000000003</ele><time>2026-03-29T10:03:39Z</time></trkpt><trkpt lat="45.51781352613635" lon="10.413220273340505"><ele>197.0</ele><time>2026-03-29T10:04:01.583Z</time></trkpt><trkpt lat="45.51768352281816" lon="10.413214406008285"><ele>197.0</ele><time>2026-03-29T10:04:04.608Z</time></trkpt></trkseg></trk></gpx>